<?xml version="1.0"?>
<gpx
 version="1.1"
 creator="Satmap Active 20"
 xmlns:xsi="http://www.w3.org/2001/XMLSchema-instance"
 xmlns="http://www.topografix.com/GPX/1/1"
 xmlns:satmap="http://www.satmap.com/updates/xmlschemas/GpxExtensions/v2/GpxExtensions_v2.xsd"
 xsi:schemaLocation="http://www.topografix.com/GPX/1/1 http://www.topografix.com/GPX/1/1/gpx.xsd">
<metadata>
<time>2020-10-17T09:10:38Z</time>
<extensions>
<satmap:platform>43</satmap:platform>
<satmap:software version="3.12.831">SM15.exe</satmap:software>
<satmap:username>Jim Grant</satmap:username>
<satmap:network_ids>
<satmap:network_id type="wifi">00-23-A7-EC-D5-78</satmap:network_id>
<satmap:network_id type="bluetooth">80-BB-EB-D7-5B-7C</satmap:network_id>
</satmap:network_ids>
<satmap:snap_type>simple</satmap:snap_type>
</extensions>
</metadata>
<trk>
<name>2020-10-17_0910</name>
<desc>Track 1</desc>
<number>1</number>
<trkseg>
<trkpt lat="53.225911" lon="-2.020724"><ele>298</ele><time>2020-10-17T09:10:38Z</time><name>PT1</name></trkpt>
<trkpt lat="53.225908" lon="-2.020727"><ele>298</ele><time>2020-10-17T09:10:53Z</time><name>PT2</name></trkpt>
<trkpt lat="53.225908" lon="-2.020724"><ele>298</ele><time>2020-10-17T09:10:53Z</time><name>PT3</name></trkpt>
<trkpt lat="53.225907" lon="-2.020726"><ele>298</ele><time>2020-10-17T09:10:54Z</time><name>PT4</name></trkpt>
<trkpt lat="53.225909" lon="-2.020726"><ele>298</ele><time>2020-10-17T09:10:56Z</time><name>PT5</name></trkpt>
<trkpt lat="53.225911" lon="-2.020723"><ele>298</ele><time>2020-10-17T09:10:56Z</time><name>PT6</name></trkpt>
<trkpt lat="53.225912" lon="-2.020722"><ele>298</ele><time>2020-10-17T09:10:57Z</time><name>PT7</name></trkpt>
<trkpt lat="53.225916" lon="-2.020718"><ele>297</ele><time>2020-10-17T09:11:17Z</time><name>PT8</name></trkpt>
<trkpt lat="53.225917" lon="-2.020718"><ele>297</ele><time>2020-10-17T09:11:18Z</time><name>PT9</name></trkpt>
<trkpt lat="53.225918" lon="-2.020722"><ele>297</ele><time>2020-10-17T09:11:20Z</time><name>PT10</name></trkpt>
<trkpt lat="53.225916" lon="-2.020724"><ele>297</ele><time>2020-10-17T09:11:20Z</time><name>PT11</name></trkpt>
<trkpt lat="53.225920" lon="-2.020722"><ele>298</ele><time>2020-10-17T09:13:57Z</time><name>PT12</name></trkpt>
<trkpt lat="53.225917" lon="-2.020723"><ele>297</ele><time>2020-10-17T09:13:59Z</time><name>PT13</name></trkpt>
<trkpt lat="53.225915" lon="-2.020724"><ele>297</ele><time>2020-10-17T09:13:59Z</time><name>PT14</name></trkpt>
<trkpt lat="53.225912" lon="-2.020716"><ele>298</ele><time>2020-10-17T09:14:03Z</time><name>PT15</name></trkpt>
<trkpt lat="53.225911" lon="-2.020720"><ele>298</ele><time>2020-10-17T09:14:05Z</time><name>PT16</name></trkpt>
<trkpt lat="53.225883" lon="-2.020700"><ele>299</ele><time>2020-10-17T09:14:05Z</time><name>PT17</name></trkpt>
<trkpt lat="53.225880" lon="-2.020704"><ele>298</ele><time>2020-10-17T09:14:06Z</time><name>PT18</name></trkpt>
<trkpt lat="53.225876" lon="-2.020714"><ele>298</ele><time>2020-10-17T09:14:08Z</time><name>PT19</name></trkpt>
<trkpt lat="53.225877" lon="-2.020711"><ele>298</ele><time>2020-10-17T09:14:08Z</time><name>PT20</name></trkpt>
<trkpt lat="53.225878" lon="-2.020708"><ele>298</ele><time>2020-10-17T09:14:09Z</time><name>PT21</name></trkpt>
<trkpt lat="53.225880" lon="-2.020714"><ele>299</ele><time>2020-10-17T09:14:20Z</time><name>PT22</name></trkpt>
<trkpt lat="53.225884" lon="-2.020720"><ele>299</ele><time>2020-10-17T09:14:21Z</time><name>PT23</name></trkpt>
<trkpt lat="53.225890" lon="-2.020724"><ele>299</ele><time>2020-10-17T09:14:23Z</time><name>PT24</name></trkpt>
<trkpt lat="53.225892" lon="-2.020716"><ele>299</ele><time>2020-10-17T09:14:32Z</time><name>PT25</name></trkpt>
<trkpt lat="53.225900" lon="-2.020723"><ele>299</ele><time>2020-10-17T09:14:33Z</time><name>PT26</name></trkpt>
<trkpt lat="53.225904" lon="-2.020729"><ele>298</ele><time>2020-10-17T09:14:35Z</time><name>PT27</name></trkpt>
<trkpt lat="53.225903" lon="-2.020731"><ele>299</ele><time>2020-10-17T09:14:35Z</time><name>PT28</name></trkpt>
<trkpt lat="53.225904" lon="-2.020734"><ele>299</ele><time>2020-10-17T09:14:41Z</time><name>PT29</name></trkpt>
<trkpt lat="53.225904" lon="-2.020731"><ele>299</ele><time>2020-10-17T09:14:41Z</time><name>PT30</name></trkpt>
<trkpt lat="53.225898" lon="-2.020724"><ele>299</ele><time>2020-10-17T09:14:42Z</time><name>PT31</name></trkpt>
<trkpt lat="53.225896" lon="-2.020722"><ele>298</ele><time>2020-10-17T09:14:44Z</time><name>PT32</name></trkpt>
<trkpt lat="53.225895" lon="-2.020722"><ele>298</ele><time>2020-10-17T09:14:44Z</time><name>PT33</name></trkpt>
<trkpt lat="53.225893" lon="-2.020716"><ele>298</ele><time>2020-10-17T09:14:45Z</time><name>PT34</name></trkpt>
<trkpt lat="53.225888" lon="-2.020712"><ele>298</ele><time>2020-10-17T09:14:47Z</time><name>PT35</name></trkpt>
<trkpt lat="53.225891" lon="-2.020711"><ele>298</ele><time>2020-10-17T09:15:56Z</time><name>PT36</name></trkpt>
<trkpt lat="53.225896" lon="-2.020699"><ele>297</ele><time>2020-10-17T09:15:57Z</time><name>PT37</name></trkpt>
<trkpt lat="53.225897" lon="-2.020700"><ele>297</ele><time>2020-10-17T09:15:59Z</time><name>PT38</name></trkpt>
<trkpt lat="53.225896" lon="-2.020701"><ele>298</ele><time>2020-10-17T09:16:29Z</time><name>PT39</name></trkpt>
<trkpt lat="53.225898" lon="-2.020697"><ele>297</ele><time>2020-10-17T09:16:30Z</time><name>PT40</name></trkpt>
<trkpt lat="53.225902" lon="-2.020699"><ele>296</ele><time>2020-10-17T09:16:32Z</time><name>PT41</name></trkpt>
<trkpt lat="53.225898" lon="-2.020697"><ele>296</ele><time>2020-10-17T09:16:33Z</time><name>PT42</name></trkpt>
<trkpt lat="53.225894" lon="-2.020697"><ele>296</ele><time>2020-10-17T09:16:35Z</time><name>PT43</name></trkpt>
<trkpt lat="53.225887" lon="-2.020691"><ele>296</ele><time>2020-10-17T09:16:35Z</time><name>PT44</name></trkpt>
<trkpt lat="53.225886" lon="-2.020690"><ele>296</ele><time>2020-10-17T09:16:36Z</time><name>PT45</name></trkpt>
<trkpt lat="53.225871" lon="-2.020669"><ele>296</ele><time>2020-10-17T09:17:33Z</time><name>PT46</name></trkpt>
<trkpt lat="53.225837" lon="-2.020624"><ele>294</ele><time>2020-10-17T09:17:38Z</time><name>PT47</name></trkpt>
<trkpt lat="53.225812" lon="-2.020591"><ele>293</ele><time>2020-10-17T09:17:41Z</time><name>PT48</name></trkpt>
<trkpt lat="53.225807" lon="-2.020581"><ele>292</ele><time>2020-10-17T09:17:44Z</time><name>PT49</name></trkpt>
<trkpt lat="53.225801" lon="-2.020576"><ele>291</ele><time>2020-10-17T09:17:47Z</time><name>PT50</name></trkpt>
<trkpt lat="53.225803" lon="-2.020572"><ele>291</ele><time>2020-10-17T09:17:51Z</time><name>PT51</name></trkpt>
<trkpt lat="53.225796" lon="-2.020581"><ele>292</ele><time>2020-10-17T09:18:12Z</time><name>PT52</name></trkpt>
<trkpt lat="53.225793" lon="-2.020582"><ele>292</ele><time>2020-10-17T09:18:17Z</time><name>PT53</name></trkpt>
<trkpt lat="53.225801" lon="-2.020596"><ele>292</ele><time>2020-10-17T09:18:36Z</time><name>PT54</name></trkpt>
<trkpt lat="53.225806" lon="-2.020595"><ele>292</ele><time>2020-10-17T09:18:41Z</time><name>PT55</name></trkpt>
<trkpt lat="53.225818" lon="-2.020621"><ele>294</ele><time>2020-10-17T09:19:30Z</time><name>PT56</name></trkpt>
<trkpt lat="53.225823" lon="-2.020647"><ele>295</ele><time>2020-10-17T09:19:33Z</time><name>PT57</name></trkpt>
<trkpt lat="53.225830" lon="-2.020658"><ele>295</ele><time>2020-10-17T09:19:36Z</time><name>PT58</name></trkpt>
<trkpt lat="53.225832" lon="-2.020631"><ele>294</ele><time>2020-10-17T09:19:54Z</time><name>PT59</name></trkpt>
<trkpt lat="53.225840" lon="-2.020602"><ele>295</ele><time>2020-10-17T09:20:12Z</time><name>PT60</name></trkpt>
<trkpt lat="53.225844" lon="-2.020604"><ele>295</ele><time>2020-10-17T09:20:15Z</time><name>PT61</name></trkpt>
<trkpt lat="53.225846" lon="-2.020605"><ele>295</ele><time>2020-10-17T09:20:18Z</time><name>PT62</name></trkpt>
<trkpt lat="53.225849" lon="-2.020608"><ele>295</ele><time>2020-10-17T09:20:26Z</time><name>PT63</name></trkpt>
<trkpt lat="53.225874" lon="-2.020616"><ele>294</ele><time>2020-10-17T09:20:29Z</time><name>PT64</name></trkpt>
<trkpt lat="53.225896" lon="-2.020639"><ele>296</ele><time>2020-10-17T09:20:33Z</time><name>PT65</name></trkpt>
<trkpt lat="53.225883" lon="-2.020650"><ele>296</ele><time>2020-10-17T09:20:36Z</time><name>PT66</name></trkpt>
<trkpt lat="53.225881" lon="-2.020661"><ele>297</ele><time>2020-10-17T09:20:41Z</time><name>PT67</name></trkpt>
<trkpt lat="53.225882" lon="-2.020660"><ele>297</ele><time>2020-10-17T09:20:44Z</time><name>PT68</name></trkpt>
<trkpt lat="53.225892" lon="-2.020670"><ele>297</ele><time>2020-10-17T09:21:08Z</time><name>PT69</name></trkpt>
<trkpt lat="53.225910" lon="-2.020683"><ele>295</ele><time>2020-10-17T09:21:11Z</time><name>PT70</name></trkpt>
<trkpt lat="53.225930" lon="-2.020692"><ele>295</ele><time>2020-10-17T09:21:23Z</time><name>PT71</name></trkpt>
<trkpt lat="53.225934" lon="-2.020693"><ele>295</ele><time>2020-10-17T09:21:26Z</time><name>PT72</name></trkpt>
<trkpt lat="53.225938" lon="-2.020705"><ele>296</ele><time>2020-10-17T09:22:02Z</time><name>PT73</name></trkpt>
<trkpt lat="53.225951" lon="-2.020716"><ele>296</ele><time>2020-10-17T09:22:05Z</time><name>PT74</name></trkpt>
<trkpt lat="53.225961" lon="-2.020717"><ele>297</ele><time>2020-10-17T09:22:16Z</time><name>PT75</name></trkpt>
<trkpt lat="53.225961" lon="-2.020715"><ele>297</ele><time>2020-10-17T09:22:19Z</time><name>PT76</name></trkpt>
<trkpt lat="53.225952" lon="-2.020719"><ele>299</ele><time>2020-10-17T09:22:59Z</time><name>PT77</name></trkpt>
<trkpt lat="53.225949" lon="-2.020715"><ele>299</ele><time>2020-10-17T09:23:05Z</time><name>PT78</name></trkpt>
<trkpt lat="53.225953" lon="-2.020716"><ele>299</ele><time>2020-10-17T09:23:10Z</time><name>PT79</name></trkpt>
<trkpt lat="53.225952" lon="-2.020717"><ele>299</ele><time>2020-10-17T09:23:13Z</time><name>PT80</name></trkpt>
<trkpt lat="53.225953" lon="-2.020720"><ele>299</ele><time>2020-10-17T09:23:16Z</time><name>PT81</name></trkpt>
<trkpt lat="53.225954" lon="-2.020724"><ele>299</ele><time>2020-10-17T09:23:28Z</time><name>PT82</name></trkpt>
<trkpt lat="53.225953" lon="-2.020726"><ele>299</ele><time>2020-10-17T09:23:32Z</time><name>PT83</name></trkpt>
<trkpt lat="53.225950" lon="-2.020725"><ele>297</ele><time>2020-10-17T09:23:47Z</time><name>PT84</name></trkpt>
<trkpt lat="53.225948" lon="-2.020727"><ele>297</ele><time>2020-10-17T09:23:52Z</time><name>PT85</name></trkpt>
<trkpt lat="53.225979" lon="-2.020758"><ele>300</ele><time>2020-10-17T09:29:25Z</time><name>PT86</name></trkpt>
<trkpt lat="53.225974" lon="-2.020745"><ele>299</ele><time>2020-10-17T09:29:48Z</time><name>PT87</name></trkpt>
<trkpt lat="53.225967" lon="-2.020752"><ele>299</ele><time>2020-10-17T09:30:43Z</time><name>PT88</name></trkpt>
<trkpt lat="53.225965" lon="-2.020751"><ele>299</ele><time>2020-10-17T09:30:46Z</time><name>PT89</name></trkpt>
<trkpt lat="53.225954" lon="-2.020744"><ele>300</ele><time>2020-10-17T09:31:42Z</time><name>PT90</name></trkpt>
<trkpt lat="53.225954" lon="-2.020738"><ele>300</ele><time>2020-10-17T09:31:46Z</time><name>PT91</name></trkpt>
<trkpt lat="53.225956" lon="-2.020728"><ele>297</ele><time>2020-10-17T09:32:08Z</time><name>PT92</name></trkpt>
<trkpt lat="53.225969" lon="-2.020697"><ele>297</ele><time>2020-10-17T09:32:51Z</time><name>PT93</name></trkpt>
<trkpt lat="53.225957" lon="-2.020686"><ele>297</ele><time>2020-10-17T09:32:55Z</time><name>PT94</name></trkpt>
<trkpt lat="53.225953" lon="-2.020683"><ele>297</ele><time>2020-10-17T09:32:58Z</time><name>PT95</name></trkpt>
<trkpt lat="53.225958" lon="-2.020664"><ele>297</ele><time>2020-10-17T09:33:22Z</time><name>PT96</name></trkpt>
<trkpt lat="53.225963" lon="-2.020657"><ele>297</ele><time>2020-10-17T09:33:25Z</time><name>PT97</name></trkpt>
<trkpt lat="53.225958" lon="-2.020649"><ele>297</ele><time>2020-10-17T09:33:46Z</time><name>PT98</name></trkpt>
<trkpt lat="53.225954" lon="-2.020642"><ele>297</ele><time>2020-10-17T09:33:50Z</time><name>PT99</name></trkpt>
<trkpt lat="53.225964" lon="-2.020673"><ele>296</ele><time>2020-10-17T09:35:31Z</time><name>PT100</name></trkpt>
<trkpt lat="53.225966" lon="-2.020665"><ele>296</ele><time>2020-10-17T09:35:34Z</time><name>PT101</name></trkpt>
<trkpt lat="53.225987" lon="-2.020690"><ele>296</ele><time>2020-10-17T09:36:12Z</time><name>PT102</name></trkpt>
<trkpt lat="53.225976" lon="-2.020692"><ele>297</ele><time>2020-10-17T09:36:16Z</time><name>PT103</name></trkpt>
<trkpt lat="53.225989" lon="-2.020713"><ele>298</ele><time>2020-10-17T09:37:44Z</time><name>PT104</name></trkpt>
<trkpt lat="53.225993" lon="-2.020731"><ele>298</ele><time>2020-10-17T09:37:47Z</time><name>PT105</name></trkpt>
<trkpt lat="53.225956" lon="-2.020730"><ele>297</ele><time>2020-10-17T09:40:22Z</time><name>PT106</name></trkpt>
<trkpt lat="53.225940" lon="-2.020704"><ele>297</ele><time>2020-10-17T09:40:25Z</time><name>PT107</name></trkpt>
<trkpt lat="53.225927" lon="-2.020690"><ele>295</ele><time>2020-10-17T09:40:29Z</time><name>PT108</name></trkpt>
<trkpt lat="53.225918" lon="-2.020673"><ele>296</ele><time>2020-10-17T09:40:34Z</time><name>PT109</name></trkpt>
<trkpt lat="53.225895" lon="-2.020667"><ele>296</ele><time>2020-10-17T09:40:37Z</time><name>PT110</name></trkpt>
<trkpt lat="53.225871" lon="-2.020642"><ele>294</ele><time>2020-10-17T09:40:40Z</time><name>PT111</name></trkpt>
<trkpt lat="53.225853" lon="-2.020632"><ele>292</ele><time>2020-10-17T09:40:43Z</time><name>PT112</name></trkpt>
<trkpt lat="53.225831" lon="-2.020618"><ele>292</ele><time>2020-10-17T09:40:46Z</time><name>PT113</name></trkpt>
<trkpt lat="53.225799" lon="-2.020594"><ele>291</ele><time>2020-10-17T09:40:50Z</time><name>PT114</name></trkpt>
<trkpt lat="53.225774" lon="-2.020578"><ele>291</ele><time>2020-10-17T09:40:53Z</time><name>PT115</name></trkpt>
<trkpt lat="53.225746" lon="-2.020561"><ele>291</ele><time>2020-10-17T09:40:56Z</time><name>PT116</name></trkpt>
<trkpt lat="53.225721" lon="-2.020543"><ele>291</ele><time>2020-10-17T09:40:59Z</time><name>PT117</name></trkpt>
<trkpt lat="53.225674" lon="-2.020521"><ele>292</ele><time>2020-10-17T09:41:03Z</time><name>PT118</name></trkpt>
<trkpt lat="53.225637" lon="-2.020502"><ele>292</ele><time>2020-10-17T09:41:07Z</time><name>PT119</name></trkpt>
<trkpt lat="53.225606" lon="-2.020484"><ele>291</ele><time>2020-10-17T09:41:10Z</time><name>PT120</name></trkpt>
<trkpt lat="53.225571" lon="-2.020464"><ele>292</ele><time>2020-10-17T09:41:13Z</time><name>PT121</name></trkpt>
<trkpt lat="53.225527" lon="-2.020447"><ele>292</ele><time>2020-10-17T09:41:17Z</time><name>PT122</name></trkpt>
<trkpt lat="53.225482" lon="-2.020443"><ele>290</ele><time>2020-10-17T09:41:21Z</time><name>PT123</name></trkpt>
<trkpt lat="53.225457" lon="-2.020434"><ele>291</ele><time>2020-10-17T09:41:24Z</time><name>PT124</name></trkpt>
<trkpt lat="53.225400" lon="-2.020429"><ele>295</ele><time>2020-10-17T09:41:28Z</time><name>PT125</name></trkpt>
<trkpt lat="53.225351" lon="-2.020404"><ele>295</ele><time>2020-10-17T09:41:32Z</time><name>PT126</name></trkpt>
<trkpt lat="53.225307" lon="-2.020376"><ele>296</ele><time>2020-10-17T09:41:36Z</time><name>PT127</name></trkpt>
<trkpt lat="53.225296" lon="-2.020363"><ele>296</ele><time>2020-10-17T09:41:40Z</time><name>PT128</name></trkpt>
<trkpt lat="53.225286" lon="-2.020359"><ele>297</ele><time>2020-10-17T09:41:47Z</time><name>PT129</name></trkpt>
<trkpt lat="53.225281" lon="-2.020348"><ele>297</ele><time>2020-10-17T09:41:50Z</time><name>PT130</name></trkpt>
<trkpt lat="53.225283" lon="-2.020331"><ele>298</ele><time>2020-10-17T09:41:53Z</time><name>PT131</name></trkpt>
<trkpt lat="53.225278" lon="-2.020321"><ele>298</ele><time>2020-10-17T09:41:56Z</time><name>PT132</name></trkpt>
<trkpt lat="53.225279" lon="-2.020312"><ele>300</ele><time>2020-10-17T09:42:35Z</time><name>PT133</name></trkpt>
<trkpt lat="53.225275" lon="-2.020300"><ele>299</ele><time>2020-10-17T09:42:38Z</time><name>PT134</name></trkpt>
<trkpt lat="53.225267" lon="-2.020308"><ele>300</ele><time>2020-10-17T09:42:49Z</time><name>PT135</name></trkpt>
<trkpt lat="53.225268" lon="-2.020310"><ele>300</ele><time>2020-10-17T09:43:07Z</time><name>PT136</name></trkpt>
<trkpt lat="53.225267" lon="-2.020312"><ele>300</ele><time>2020-10-17T09:43:10Z</time><name>PT137</name></trkpt>
<trkpt lat="53.225269" lon="-2.020286"><ele>301</ele><time>2020-10-17T09:43:37Z</time><name>PT138</name></trkpt>
<trkpt lat="53.225268" lon="-2.020282"><ele>301</ele><time>2020-10-17T09:43:41Z</time><name>PT139</name></trkpt>
<trkpt lat="53.225221" lon="-2.020295"><ele>301</ele><time>2020-10-17T09:44:16Z</time><name>PT140</name></trkpt>
<trkpt lat="53.225192" lon="-2.020296"><ele>301</ele><time>2020-10-17T09:44:19Z</time><name>PT141</name></trkpt>
<trkpt lat="53.225159" lon="-2.020272"><ele>300</ele><time>2020-10-17T09:44:23Z</time><name>PT142</name></trkpt>
<trkpt lat="53.225137" lon="-2.020240"><ele>300</ele><time>2020-10-17T09:44:26Z</time><name>PT143</name></trkpt>
<trkpt lat="53.225116" lon="-2.020180"><ele>301</ele><time>2020-10-17T09:44:31Z</time><name>PT144</name></trkpt>
<trkpt lat="53.225095" lon="-2.020116"><ele>301</ele><time>2020-10-17T09:44:34Z</time><name>PT145</name></trkpt>
<trkpt lat="53.225077" lon="-2.020057"><ele>301</ele><time>2020-10-17T09:44:38Z</time><name>PT146</name></trkpt>
<trkpt lat="53.225055" lon="-2.019999"><ele>301</ele><time>2020-10-17T09:44:43Z</time><name>PT147</name></trkpt>
<trkpt lat="53.225036" lon="-2.019957"><ele>301</ele><time>2020-10-17T09:44:46Z</time><name>PT148</name></trkpt>
<trkpt lat="53.225012" lon="-2.019903"><ele>301</ele><time>2020-10-17T09:44:49Z</time><name>PT149</name></trkpt>
<trkpt lat="53.224999" lon="-2.019863"><ele>301</ele><time>2020-10-17T09:44:52Z</time><name>PT150</name></trkpt>
<trkpt lat="53.224989" lon="-2.019825"><ele>301</ele><time>2020-10-17T09:44:55Z</time><name>PT151</name></trkpt>
<trkpt lat="53.224973" lon="-2.019781"><ele>301</ele><time>2020-10-17T09:44:58Z</time><name>PT152</name></trkpt>
<trkpt lat="53.224952" lon="-2.019723"><ele>303</ele><time>2020-10-17T09:45:02Z</time><name>PT153</name></trkpt>
<trkpt lat="53.224937" lon="-2.019669"><ele>303</ele><time>2020-10-17T09:45:06Z</time><name>PT154</name></trkpt>
<trkpt lat="53.224931" lon="-2.019627"><ele>304</ele><time>2020-10-17T09:45:09Z</time><name>PT155</name></trkpt>
<trkpt lat="53.224927" lon="-2.019561"><ele>305</ele><time>2020-10-17T09:45:13Z</time><name>PT156</name></trkpt>
<trkpt lat="53.224927" lon="-2.019523"><ele>305</ele><time>2020-10-17T09:45:16Z</time><name>PT157</name></trkpt>
<trkpt lat="53.224924" lon="-2.019509"><ele>305</ele><time>2020-10-17T09:45:20Z</time><name>PT158</name></trkpt>
<trkpt lat="53.224949" lon="-2.019439"><ele>304</ele><time>2020-10-17T09:45:39Z</time><name>PT159</name></trkpt>
<trkpt lat="53.224954" lon="-2.019422"><ele>304</ele><time>2020-10-17T09:45:43Z</time><name>PT160</name></trkpt>
<trkpt lat="53.224956" lon="-2.019350"><ele>304</ele><time>2020-10-17T09:45:46Z</time><name>PT161</name></trkpt>
<trkpt lat="53.224950" lon="-2.019291"><ele>304</ele><time>2020-10-17T09:45:49Z</time><name>PT162</name></trkpt>
<trkpt lat="53.224949" lon="-2.019221"><ele>304</ele><time>2020-10-17T09:45:53Z</time><name>PT163</name></trkpt>
<trkpt lat="53.224941" lon="-2.019168"><ele>305</ele><time>2020-10-17T09:45:56Z</time><name>PT164</name></trkpt>
<trkpt lat="53.224939" lon="-2.019120"><ele>306</ele><time>2020-10-17T09:45:59Z</time><name>PT165</name></trkpt>
<trkpt lat="53.224932" lon="-2.019073"><ele>307</ele><time>2020-10-17T09:46:02Z</time><name>PT166</name></trkpt>
<trkpt lat="53.224921" lon="-2.019028"><ele>307</ele><time>2020-10-17T09:46:06Z</time><name>PT167</name></trkpt>
<trkpt lat="53.224917" lon="-2.018992"><ele>307</ele><time>2020-10-17T09:46:09Z</time><name>PT168</name></trkpt>
<trkpt lat="53.224908" lon="-2.018936"><ele>307</ele><time>2020-10-17T09:46:13Z</time><name>PT169</name></trkpt>
<trkpt lat="53.224906" lon="-2.018894"><ele>307</ele><time>2020-10-17T09:46:16Z</time><name>PT170</name></trkpt>
<trkpt lat="53.224899" lon="-2.018834"><ele>308</ele><time>2020-10-17T09:46:20Z</time><name>PT171</name></trkpt>
<trkpt lat="53.224896" lon="-2.018779"><ele>308</ele><time>2020-10-17T09:46:24Z</time><name>PT172</name></trkpt>
<trkpt lat="53.224887" lon="-2.018724"><ele>308</ele><time>2020-10-17T09:46:28Z</time><name>PT173</name></trkpt>
<trkpt lat="53.224882" lon="-2.018680"><ele>309</ele><time>2020-10-17T09:46:31Z</time><name>PT174</name></trkpt>
<trkpt lat="53.224878" lon="-2.018646"><ele>309</ele><time>2020-10-17T09:46:34Z</time><name>PT175</name></trkpt>
<trkpt lat="53.224876" lon="-2.018614"><ele>309</ele><time>2020-10-17T09:46:37Z</time><name>PT176</name></trkpt>
<trkpt lat="53.224871" lon="-2.018548"><ele>310</ele><time>2020-10-17T09:46:41Z</time><name>PT177</name></trkpt>
<trkpt lat="53.224864" lon="-2.018492"><ele>312</ele><time>2020-10-17T09:46:44Z</time><name>PT178</name></trkpt>
<trkpt lat="53.224865" lon="-2.018430"><ele>312</ele><time>2020-10-17T09:46:48Z</time><name>PT179</name></trkpt>
<trkpt lat="53.224867" lon="-2.018385"><ele>312</ele><time>2020-10-17T09:46:51Z</time><name>PT180</name></trkpt>
<trkpt lat="53.224865" lon="-2.018326"><ele>312</ele><time>2020-10-17T09:46:55Z</time><name>PT181</name></trkpt>
<trkpt lat="53.224863" lon="-2.018271"><ele>312</ele><time>2020-10-17T09:46:59Z</time><name>PT182</name></trkpt>
<trkpt lat="53.224866" lon="-2.018216"><ele>311</ele><time>2020-10-17T09:47:02Z</time><name>PT183</name></trkpt>
<trkpt lat="53.224873" lon="-2.018174"><ele>311</ele><time>2020-10-17T09:47:05Z</time><name>PT184</name></trkpt>
<trkpt lat="53.224888" lon="-2.018112"><ele>311</ele><time>2020-10-17T09:47:09Z</time><name>PT185</name></trkpt>
<trkpt lat="53.224896" lon="-2.018055"><ele>312</ele><time>2020-10-17T09:47:12Z</time><name>PT186</name></trkpt>
<trkpt lat="53.224896" lon="-2.017994"><ele>311</ele><time>2020-10-17T09:47:15Z</time><name>PT187</name></trkpt>
<trkpt lat="53.224909" lon="-2.017908"><ele>312</ele><time>2020-10-17T09:47:19Z</time><name>PT188</name></trkpt>
<trkpt lat="53.224909" lon="-2.017838"><ele>312</ele><time>2020-10-17T09:47:22Z</time><name>PT189</name></trkpt>
<trkpt lat="53.224918" lon="-2.017756"><ele>312</ele><time>2020-10-17T09:47:26Z</time><name>PT190</name></trkpt>
<trkpt lat="53.224921" lon="-2.017712"><ele>312</ele><time>2020-10-17T09:47:29Z</time><name>PT191</name></trkpt>
<trkpt lat="53.224924" lon="-2.017646"><ele>312</ele><time>2020-10-17T09:47:33Z</time><name>PT192</name></trkpt>
<trkpt lat="53.224924" lon="-2.017581"><ele>310</ele><time>2020-10-17T09:47:37Z</time><name>PT193</name></trkpt>
<trkpt lat="53.224935" lon="-2.017529"><ele>311</ele><time>2020-10-17T09:47:40Z</time><name>PT194</name></trkpt>
<trkpt lat="53.224939" lon="-2.017475"><ele>311</ele><time>2020-10-17T09:47:43Z</time><name>PT195</name></trkpt>
<trkpt lat="53.224941" lon="-2.017420"><ele>311</ele><time>2020-10-17T09:47:46Z</time><name>PT196</name></trkpt>
<trkpt lat="53.224948" lon="-2.017350"><ele>312</ele><time>2020-10-17T09:47:50Z</time><name>PT197</name></trkpt>
<trkpt lat="53.224954" lon="-2.017294"><ele>312</ele><time>2020-10-17T09:47:53Z</time><name>PT198</name></trkpt>
<trkpt lat="53.224962" lon="-2.017203"><ele>313</ele><time>2020-10-17T09:47:57Z</time><name>PT199</name></trkpt>
<trkpt lat="53.224968" lon="-2.017148"><ele>315</ele><time>2020-10-17T09:48:00Z</time><name>PT200</name></trkpt>
<trkpt lat="53.224979" lon="-2.017080"><ele>314</ele><time>2020-10-17T09:48:04Z</time><name>PT201</name></trkpt>
<trkpt lat="53.224996" lon="-2.017011"><ele>315</ele><time>2020-10-17T09:48:08Z</time><name>PT202</name></trkpt>
<trkpt lat="53.225016" lon="-2.016948"><ele>314</ele><time>2020-10-17T09:48:12Z</time><name>PT203</name></trkpt>
<trkpt lat="53.225034" lon="-2.016905"><ele>315</ele><time>2020-10-17T09:48:16Z</time><name>PT204</name></trkpt>
<trkpt lat="53.225060" lon="-2.016850"><ele>315</ele><time>2020-10-17T09:48:19Z</time><name>PT205</name></trkpt>
<trkpt lat="53.225080" lon="-2.016806"><ele>316</ele><time>2020-10-17T09:48:22Z</time><name>PT206</name></trkpt>
<trkpt lat="53.225096" lon="-2.016762"><ele>315</ele><time>2020-10-17T09:48:25Z</time><name>PT207</name></trkpt>
<trkpt lat="53.225110" lon="-2.016709"><ele>314</ele><time>2020-10-17T09:48:29Z</time><name>PT208</name></trkpt>
<trkpt lat="53.225118" lon="-2.016680"><ele>314</ele><time>2020-10-17T09:48:32Z</time><name>PT209</name></trkpt>
<trkpt lat="53.225132" lon="-2.016660"><ele>314</ele><time>2020-10-17T09:48:35Z</time><name>PT210</name></trkpt>
<trkpt lat="53.225133" lon="-2.016646"><ele>314</ele><time>2020-10-17T09:48:38Z</time><name>PT211</name></trkpt>
<trkpt lat="53.225150" lon="-2.016608"><ele>315</ele><time>2020-10-17T09:48:42Z</time><name>PT212</name></trkpt>
<trkpt lat="53.225178" lon="-2.016597"><ele>314</ele><time>2020-10-17T09:48:46Z</time><name>PT213</name></trkpt>
<trkpt lat="53.225189" lon="-2.016587"><ele>314</ele><time>2020-10-17T09:48:49Z</time><name>PT214</name></trkpt>
<trkpt lat="53.225210" lon="-2.016538"><ele>317</ele><time>2020-10-17T09:48:53Z</time><name>PT215</name></trkpt>
<trkpt lat="53.225214" lon="-2.016495"><ele>316</ele><time>2020-10-17T09:48:57Z</time><name>PT216</name></trkpt>
<trkpt lat="53.225204" lon="-2.016445"><ele>317</ele><time>2020-10-17T09:49:01Z</time><name>PT217</name></trkpt>
<trkpt lat="53.225204" lon="-2.016407"><ele>317</ele><time>2020-10-17T09:49:04Z</time><name>PT218</name></trkpt>
<trkpt lat="53.225206" lon="-2.016354"><ele>318</ele><time>2020-10-17T09:49:08Z</time><name>PT219</name></trkpt>
<trkpt lat="53.225203" lon="-2.016320"><ele>318</ele><time>2020-10-17T09:49:11Z</time><name>PT220</name></trkpt>
<trkpt lat="53.225199" lon="-2.016280"><ele>317</ele><time>2020-10-17T09:49:14Z</time><name>PT221</name></trkpt>
<trkpt lat="53.225201" lon="-2.016233"><ele>319</ele><time>2020-10-17T09:49:18Z</time><name>PT222</name></trkpt>
<trkpt lat="53.225204" lon="-2.016190"><ele>320</ele><time>2020-10-17T09:49:21Z</time><name>PT223</name></trkpt>
<trkpt lat="53.225206" lon="-2.016127"><ele>320</ele><time>2020-10-17T09:49:25Z</time><name>PT224</name></trkpt>
<trkpt lat="53.225215" lon="-2.016080"><ele>321</ele><time>2020-10-17T09:49:28Z</time><name>PT225</name></trkpt>
<trkpt lat="53.225222" lon="-2.016002"><ele>322</ele><time>2020-10-17T09:49:32Z</time><name>PT226</name></trkpt>
<trkpt lat="53.225235" lon="-2.015940"><ele>322</ele><time>2020-10-17T09:49:36Z</time><name>PT227</name></trkpt>
<trkpt lat="53.225240" lon="-2.015895"><ele>322</ele><time>2020-10-17T09:49:39Z</time><name>PT228</name></trkpt>
<trkpt lat="53.225242" lon="-2.015858"><ele>322</ele><time>2020-10-17T09:49:42Z</time><name>PT229</name></trkpt>
<trkpt lat="53.225248" lon="-2.015811"><ele>322</ele><time>2020-10-17T09:49:45Z</time><name>PT230</name></trkpt>
<trkpt lat="53.225256" lon="-2.015740"><ele>323</ele><time>2020-10-17T09:49:49Z</time><name>PT231</name></trkpt>
<trkpt lat="53.225256" lon="-2.015666"><ele>324</ele><time>2020-10-17T09:49:53Z</time><name>PT232</name></trkpt>
<trkpt lat="53.225261" lon="-2.015617"><ele>324</ele><time>2020-10-17T09:49:56Z</time><name>PT233</name></trkpt>
<trkpt lat="53.225253" lon="-2.015570"><ele>324</ele><time>2020-10-17T09:49:59Z</time><name>PT234</name></trkpt>
<trkpt lat="53.225253" lon="-2.015524"><ele>325</ele><time>2020-10-17T09:50:02Z</time><name>PT235</name></trkpt>
<trkpt lat="53.225268" lon="-2.015464"><ele>326</ele><time>2020-10-17T09:50:07Z</time><name>PT236</name></trkpt>
<trkpt lat="53.225275" lon="-2.015398"><ele>327</ele><time>2020-10-17T09:50:10Z</time><name>PT237</name></trkpt>
<trkpt lat="53.225283" lon="-2.015338"><ele>327</ele><time>2020-10-17T09:50:14Z</time><name>PT238</name></trkpt>
<trkpt lat="53.225291" lon="-2.015296"><ele>327</ele><time>2020-10-17T09:50:17Z</time><name>PT239</name></trkpt>
<trkpt lat="53.225292" lon="-2.015256"><ele>325</ele><time>2020-10-17T09:50:21Z</time><name>PT240</name></trkpt>
<trkpt lat="53.225312" lon="-2.015239"><ele>329</ele><time>2020-10-17T09:50:25Z</time><name>PT241</name></trkpt>
<trkpt lat="53.225313" lon="-2.015245"><ele>328</ele><time>2020-10-17T09:50:28Z</time><name>PT242</name></trkpt>
<trkpt lat="53.225310" lon="-2.015183"><ele>327</ele><time>2020-10-17T09:50:36Z</time><name>PT243</name></trkpt>
<trkpt lat="53.225317" lon="-2.015135"><ele>326</ele><time>2020-10-17T09:50:39Z</time><name>PT244</name></trkpt>
<trkpt lat="53.225316" lon="-2.015076"><ele>323</ele><time>2020-10-17T09:50:42Z</time><name>PT245</name></trkpt>
<trkpt lat="53.225317" lon="-2.015023"><ele>319</ele><time>2020-10-17T09:50:45Z</time><name>PT246</name></trkpt>
<trkpt lat="53.225307" lon="-2.014963"><ele>317</ele><time>2020-10-17T09:50:49Z</time><name>PT247</name></trkpt>
<trkpt lat="53.225312" lon="-2.014902"><ele>317</ele><time>2020-10-17T09:50:53Z</time><name>PT248</name></trkpt>
<trkpt lat="53.225313" lon="-2.014846"><ele>316</ele><time>2020-10-17T09:50:56Z</time><name>PT249</name></trkpt>
<trkpt lat="53.225342" lon="-2.014778"><ele>317</ele><time>2020-10-17T09:50:59Z</time><name>PT250</name></trkpt>
<trkpt lat="53.225354" lon="-2.014713"><ele>317</ele><time>2020-10-17T09:51:03Z</time><name>PT251</name></trkpt>
<trkpt lat="53.225356" lon="-2.014674"><ele>316</ele><time>2020-10-17T09:51:06Z</time><name>PT252</name></trkpt>
<trkpt lat="53.225366" lon="-2.014629"><ele>315</ele><time>2020-10-17T09:51:09Z</time><name>PT253</name></trkpt>
<trkpt lat="53.225375" lon="-2.014565"><ele>314</ele><time>2020-10-17T09:51:13Z</time><name>PT254</name></trkpt>
<trkpt lat="53.225384" lon="-2.014504"><ele>313</ele><time>2020-10-17T09:51:17Z</time><name>PT255</name></trkpt>
<trkpt lat="53.225387" lon="-2.014459"><ele>312</ele><time>2020-10-17T09:51:20Z</time><name>PT256</name></trkpt>
<trkpt lat="53.225395" lon="-2.014416"><ele>312</ele><time>2020-10-17T09:51:23Z</time><name>PT257</name></trkpt>
<trkpt lat="53.225415" lon="-2.014333"><ele>316</ele><time>2020-10-17T09:51:27Z</time><name>PT258</name></trkpt>
<trkpt lat="53.225423" lon="-2.014280"><ele>317</ele><time>2020-10-17T09:51:30Z</time><name>PT259</name></trkpt>
<trkpt lat="53.225422" lon="-2.014224"><ele>317</ele><time>2020-10-17T09:51:33Z</time><name>PT260</name></trkpt>
<trkpt lat="53.225428" lon="-2.014160"><ele>317</ele><time>2020-10-17T09:51:37Z</time><name>PT261</name></trkpt>
<trkpt lat="53.225428" lon="-2.014087"><ele>317</ele><time>2020-10-17T09:51:41Z</time><name>PT262</name></trkpt>
<trkpt lat="53.225429" lon="-2.014033"><ele>319</ele><time>2020-10-17T09:51:44Z</time><name>PT263</name></trkpt>
<trkpt lat="53.225432" lon="-2.013972"><ele>319</ele><time>2020-10-17T09:51:48Z</time><name>PT264</name></trkpt>
<trkpt lat="53.225436" lon="-2.013931"><ele>319</ele><time>2020-10-17T09:51:51Z</time><name>PT265</name></trkpt>
<trkpt lat="53.225437" lon="-2.013873"><ele>320</ele><time>2020-10-17T09:51:55Z</time><name>PT266</name></trkpt>
<trkpt lat="53.225441" lon="-2.013819"><ele>322</ele><time>2020-10-17T09:51:58Z</time><name>PT267</name></trkpt>
<trkpt lat="53.225450" lon="-2.013754"><ele>323</ele><time>2020-10-17T09:52:02Z</time><name>PT268</name></trkpt>
<trkpt lat="53.225460" lon="-2.013706"><ele>323</ele><time>2020-10-17T09:52:06Z</time><name>PT269</name></trkpt>
<trkpt lat="53.225472" lon="-2.013647"><ele>323</ele><time>2020-10-17T09:52:10Z</time><name>PT270</name></trkpt>
<trkpt lat="53.225484" lon="-2.013607"><ele>323</ele><time>2020-10-17T09:52:13Z</time><name>PT271</name></trkpt>
<trkpt lat="53.225496" lon="-2.013562"><ele>322</ele><time>2020-10-17T09:52:17Z</time><name>PT272</name></trkpt>
<trkpt lat="53.225498" lon="-2.013523"><ele>322</ele><time>2020-10-17T09:52:20Z</time><name>PT273</name></trkpt>
<trkpt lat="53.225507" lon="-2.013470"><ele>322</ele><time>2020-10-17T09:52:23Z</time><name>PT274</name></trkpt>
<trkpt lat="53.225518" lon="-2.013422"><ele>323</ele><time>2020-10-17T09:52:26Z</time><name>PT275</name></trkpt>
<trkpt lat="53.225523" lon="-2.013382"><ele>323</ele><time>2020-10-17T09:52:29Z</time><name>PT276</name></trkpt>
<trkpt lat="53.225530" lon="-2.013340"><ele>323</ele><time>2020-10-17T09:52:32Z</time><name>PT277</name></trkpt>
<trkpt lat="53.225542" lon="-2.013279"><ele>324</ele><time>2020-10-17T09:52:36Z</time><name>PT278</name></trkpt>
<trkpt lat="53.225551" lon="-2.013235"><ele>325</ele><time>2020-10-17T09:52:40Z</time><name>PT279</name></trkpt>
<trkpt lat="53.225561" lon="-2.013195"><ele>325</ele><time>2020-10-17T09:52:43Z</time><name>PT280</name></trkpt>
<trkpt lat="53.225572" lon="-2.013142"><ele>326</ele><time>2020-10-17T09:52:47Z</time><name>PT281</name></trkpt>
<trkpt lat="53.225585" lon="-2.013096"><ele>331</ele><time>2020-10-17T09:52:50Z</time><name>PT282</name></trkpt>
<trkpt lat="53.225596" lon="-2.013045"><ele>332</ele><time>2020-10-17T09:52:54Z</time><name>PT283</name></trkpt>
<trkpt lat="53.225596" lon="-2.013023"><ele>331</ele><time>2020-10-17T09:52:58Z</time><name>PT284</name></trkpt>
<trkpt lat="53.225615" lon="-2.012955"><ele>330</ele><time>2020-10-17T09:53:02Z</time><name>PT285</name></trkpt>
<trkpt lat="53.225621" lon="-2.012919"><ele>328</ele><time>2020-10-17T09:53:06Z</time><name>PT286</name></trkpt>
<trkpt lat="53.225613" lon="-2.012864"><ele>326</ele><time>2020-10-17T09:53:09Z</time><name>PT287</name></trkpt>
<trkpt lat="53.225620" lon="-2.012807"><ele>328</ele><time>2020-10-17T09:53:13Z</time><name>PT288</name></trkpt>
<trkpt lat="53.225620" lon="-2.012744"><ele>329</ele><time>2020-10-17T09:53:17Z</time><name>PT289</name></trkpt>
<trkpt lat="53.225628" lon="-2.012708"><ele>330</ele><time>2020-10-17T09:53:20Z</time><name>PT290</name></trkpt>
<trkpt lat="53.225632" lon="-2.012668"><ele>331</ele><time>2020-10-17T09:53:24Z</time><name>PT291</name></trkpt>
<trkpt lat="53.225638" lon="-2.012640"><ele>332</ele><time>2020-10-17T09:53:27Z</time><name>PT292</name></trkpt>
<trkpt lat="53.225639" lon="-2.012583"><ele>333</ele><time>2020-10-17T09:53:31Z</time><name>PT293</name></trkpt>
<trkpt lat="53.225643" lon="-2.012545"><ele>334</ele><time>2020-10-17T09:53:34Z</time><name>PT294</name></trkpt>
<trkpt lat="53.225650" lon="-2.012485"><ele>334</ele><time>2020-10-17T09:53:38Z</time><name>PT295</name></trkpt>
<trkpt lat="53.225654" lon="-2.012452"><ele>334</ele><time>2020-10-17T09:53:41Z</time><name>PT296</name></trkpt>
<trkpt lat="53.225656" lon="-2.012405"><ele>335</ele><time>2020-10-17T09:53:45Z</time><name>PT297</name></trkpt>
<trkpt lat="53.225661" lon="-2.012358"><ele>334</ele><time>2020-10-17T09:53:49Z</time><name>PT298</name></trkpt>
<trkpt lat="53.225663" lon="-2.012313"><ele>333</ele><time>2020-10-17T09:53:53Z</time><name>PT299</name></trkpt>
<trkpt lat="53.225658" lon="-2.012262"><ele>332</ele><time>2020-10-17T09:53:57Z</time><name>PT300</name></trkpt>
<trkpt lat="53.225664" lon="-2.012227"><ele>332</ele><time>2020-10-17T09:54:00Z</time><name>PT301</name></trkpt>
<trkpt lat="53.225675" lon="-2.012180"><ele>335</ele><time>2020-10-17T09:54:04Z</time><name>PT302</name></trkpt>
<trkpt lat="53.225682" lon="-2.012150"><ele>335</ele><time>2020-10-17T09:54:07Z</time><name>PT303</name></trkpt>
<trkpt lat="53.225692" lon="-2.012091"><ele>338</ele><time>2020-10-17T09:54:11Z</time><name>PT304</name></trkpt>
<trkpt lat="53.225698" lon="-2.012056"><ele>338</ele><time>2020-10-17T09:54:14Z</time><name>PT305</name></trkpt>
<trkpt lat="53.225704" lon="-2.012008"><ele>339</ele><time>2020-10-17T09:54:18Z</time><name>PT306</name></trkpt>
<trkpt lat="53.225708" lon="-2.011964"><ele>339</ele><time>2020-10-17T09:54:22Z</time><name>PT307</name></trkpt>
<trkpt lat="53.225708" lon="-2.011916"><ele>339</ele><time>2020-10-17T09:54:26Z</time><name>PT308</name></trkpt>
<trkpt lat="53.225709" lon="-2.011868"><ele>339</ele><time>2020-10-17T09:54:30Z</time><name>PT309</name></trkpt>
<trkpt lat="53.225710" lon="-2.011819"><ele>337</ele><time>2020-10-17T09:54:34Z</time><name>PT310</name></trkpt>
<trkpt lat="53.225714" lon="-2.011774"><ele>336</ele><time>2020-10-17T09:54:37Z</time><name>PT311</name></trkpt>
<trkpt lat="53.225722" lon="-2.011735"><ele>335</ele><time>2020-10-17T09:54:40Z</time><name>PT312</name></trkpt>
<trkpt lat="53.225728" lon="-2.011678"><ele>334</ele><time>2020-10-17T09:54:44Z</time><name>PT313</name></trkpt>
<trkpt lat="53.225743" lon="-2.011605"><ele>336</ele><time>2020-10-17T09:54:49Z</time><name>PT314</name></trkpt>
<trkpt lat="53.225755" lon="-2.011545"><ele>336</ele><time>2020-10-17T09:54:52Z</time><name>PT315</name></trkpt>
<trkpt lat="53.225758" lon="-2.011511"><ele>335</ele><time>2020-10-17T09:54:55Z</time><name>PT316</name></trkpt>
<trkpt lat="53.225760" lon="-2.011443"><ele>334</ele><time>2020-10-17T09:54:59Z</time><name>PT317</name></trkpt>
<trkpt lat="53.225774" lon="-2.011391"><ele>335</ele><time>2020-10-17T09:55:02Z</time><name>PT318</name></trkpt>
<trkpt lat="53.225789" lon="-2.011344"><ele>336</ele><time>2020-10-17T09:55:05Z</time><name>PT319</name></trkpt>
<trkpt lat="53.225802" lon="-2.011282"><ele>338</ele><time>2020-10-17T09:55:09Z</time><name>PT320</name></trkpt>
<trkpt lat="53.225820" lon="-2.011224"><ele>339</ele><time>2020-10-17T09:55:13Z</time><name>PT321</name></trkpt>
<trkpt lat="53.225828" lon="-2.011180"><ele>339</ele><time>2020-10-17T09:55:16Z</time><name>PT322</name></trkpt>
<trkpt lat="53.225841" lon="-2.011124"><ele>341</ele><time>2020-10-17T09:55:20Z</time><name>PT323</name></trkpt>
<trkpt lat="53.225852" lon="-2.011083"><ele>342</ele><time>2020-10-17T09:55:23Z</time><name>PT324</name></trkpt>
<trkpt lat="53.225859" lon="-2.011023"><ele>342</ele><time>2020-10-17T09:55:27Z</time><name>PT325</name></trkpt>
<trkpt lat="53.225871" lon="-2.010970"><ele>343</ele><time>2020-10-17T09:55:31Z</time><name>PT326</name></trkpt>
<trkpt lat="53.225885" lon="-2.010908"><ele>343</ele><time>2020-10-17T09:55:35Z</time><name>PT327</name></trkpt>
<trkpt lat="53.225895" lon="-2.010852"><ele>343</ele><time>2020-10-17T09:55:39Z</time><name>PT328</name></trkpt>
<trkpt lat="53.225898" lon="-2.010807"><ele>344</ele><time>2020-10-17T09:55:42Z</time><name>PT329</name></trkpt>
<trkpt lat="53.225921" lon="-2.010754"><ele>348</ele><time>2020-10-17T09:55:46Z</time><name>PT330</name></trkpt>
<trkpt lat="53.225924" lon="-2.010756"><ele>348</ele><time>2020-10-17T09:55:49Z</time><name>PT331</name></trkpt>
<trkpt lat="53.225931" lon="-2.010719"><ele>348</ele><time>2020-10-17T09:55:53Z</time><name>PT332</name></trkpt>
<trkpt lat="53.225938" lon="-2.010666"><ele>349</ele><time>2020-10-17T09:55:57Z</time><name>PT333</name></trkpt>
<trkpt lat="53.225944" lon="-2.010622"><ele>349</ele><time>2020-10-17T09:56:01Z</time><name>PT334</name></trkpt>
<trkpt lat="53.225955" lon="-2.010584"><ele>349</ele><time>2020-10-17T09:56:05Z</time><name>PT335</name></trkpt>
<trkpt lat="53.225959" lon="-2.010551"><ele>349</ele><time>2020-10-17T09:56:08Z</time><name>PT336</name></trkpt>
<trkpt lat="53.225961" lon="-2.010500"><ele>349</ele><time>2020-10-17T09:56:12Z</time><name>PT337</name></trkpt>
<trkpt lat="53.225956" lon="-2.010450"><ele>347</ele><time>2020-10-17T09:56:16Z</time><name>PT338</name></trkpt>
<trkpt lat="53.225967" lon="-2.010407"><ele>347</ele><time>2020-10-17T09:56:20Z</time><name>PT339</name></trkpt>
<trkpt lat="53.225979" lon="-2.010369"><ele>348</ele><time>2020-10-17T09:56:23Z</time><name>PT340</name></trkpt>
<trkpt lat="53.225992" lon="-2.010334"><ele>348</ele><time>2020-10-17T09:56:26Z</time><name>PT341</name></trkpt>
<trkpt lat="53.226000" lon="-2.010288"><ele>349</ele><time>2020-10-17T09:56:30Z</time><name>PT342</name></trkpt>
<trkpt lat="53.226008" lon="-2.010241"><ele>349</ele><time>2020-10-17T09:56:34Z</time><name>PT343</name></trkpt>
<trkpt lat="53.226016" lon="-2.010201"><ele>348</ele><time>2020-10-17T09:56:38Z</time><name>PT344</name></trkpt>
<trkpt lat="53.226019" lon="-2.010163"><ele>349</ele><time>2020-10-17T09:56:41Z</time><name>PT345</name></trkpt>
<trkpt lat="53.226020" lon="-2.010082"><ele>352</ele><time>2020-10-17T09:56:45Z</time><name>PT346</name></trkpt>
<trkpt lat="53.226024" lon="-2.010036"><ele>354</ele><time>2020-10-17T09:56:49Z</time><name>PT347</name></trkpt>
<trkpt lat="53.226037" lon="-2.010005"><ele>354</ele><time>2020-10-17T09:56:52Z</time><name>PT348</name></trkpt>
<trkpt lat="53.226046" lon="-2.009975"><ele>355</ele><time>2020-10-17T09:56:55Z</time><name>PT349</name></trkpt>
<trkpt lat="53.226050" lon="-2.009924"><ele>356</ele><time>2020-10-17T09:56:59Z</time><name>PT350</name></trkpt>
<trkpt lat="53.226054" lon="-2.009882"><ele>356</ele><time>2020-10-17T09:57:02Z</time><name>PT351</name></trkpt>
<trkpt lat="53.226052" lon="-2.009832"><ele>357</ele><time>2020-10-17T09:57:06Z</time><name>PT352</name></trkpt>
<trkpt lat="53.226054" lon="-2.009773"><ele>357</ele><time>2020-10-17T09:57:10Z</time><name>PT353</name></trkpt>
<trkpt lat="53.226058" lon="-2.009729"><ele>357</ele><time>2020-10-17T09:57:13Z</time><name>PT354</name></trkpt>
<trkpt lat="53.226055" lon="-2.009685"><ele>356</ele><time>2020-10-17T09:57:16Z</time><name>PT355</name></trkpt>
<trkpt lat="53.226044" lon="-2.009628"><ele>355</ele><time>2020-10-17T09:57:20Z</time><name>PT356</name></trkpt>
<trkpt lat="53.226041" lon="-2.009601"><ele>353</ele><time>2020-10-17T09:57:23Z</time><name>PT357</name></trkpt>
<trkpt lat="53.226040" lon="-2.009545"><ele>354</ele><time>2020-10-17T09:57:28Z</time><name>PT358</name></trkpt>
<trkpt lat="53.226055" lon="-2.009486"><ele>356</ele><time>2020-10-17T09:57:31Z</time><name>PT359</name></trkpt>
<trkpt lat="53.226050" lon="-2.009436"><ele>355</ele><time>2020-10-17T09:57:35Z</time><name>PT360</name></trkpt>
<trkpt lat="53.226050" lon="-2.009402"><ele>354</ele><time>2020-10-17T09:57:38Z</time><name>PT361</name></trkpt>
<trkpt lat="53.226051" lon="-2.009352"><ele>354</ele><time>2020-10-17T09:57:42Z</time><name>PT362</name></trkpt>
<trkpt lat="53.226058" lon="-2.009319"><ele>355</ele><time>2020-10-17T09:57:45Z</time><name>PT363</name></trkpt>
<trkpt lat="53.226052" lon="-2.009264"><ele>354</ele><time>2020-10-17T09:57:49Z</time><name>PT364</name></trkpt>
<trkpt lat="53.226054" lon="-2.009228"><ele>353</ele><time>2020-10-17T09:57:52Z</time><name>PT365</name></trkpt>
<trkpt lat="53.226057" lon="-2.009192"><ele>353</ele><time>2020-10-17T09:57:55Z</time><name>PT366</name></trkpt>
<trkpt lat="53.226062" lon="-2.009143"><ele>354</ele><time>2020-10-17T09:57:58Z</time><name>PT367</name></trkpt>
<trkpt lat="53.226062" lon="-2.009088"><ele>354</ele><time>2020-10-17T09:58:02Z</time><name>PT368</name></trkpt>
<trkpt lat="53.226069" lon="-2.009048"><ele>354</ele><time>2020-10-17T09:58:05Z</time><name>PT369</name></trkpt>
<trkpt lat="53.226078" lon="-2.008994"><ele>356</ele><time>2020-10-17T09:58:09Z</time><name>PT370</name></trkpt>
<trkpt lat="53.226078" lon="-2.008958"><ele>355</ele><time>2020-10-17T09:58:12Z</time><name>PT371</name></trkpt>
<trkpt lat="53.226086" lon="-2.008913"><ele>355</ele><time>2020-10-17T09:58:16Z</time><name>PT372</name></trkpt>
<trkpt lat="53.226089" lon="-2.008852"><ele>356</ele><time>2020-10-17T09:58:20Z</time><name>PT373</name></trkpt>
<trkpt lat="53.226096" lon="-2.008803"><ele>357</ele><time>2020-10-17T09:58:24Z</time><name>PT374</name></trkpt>
<trkpt lat="53.226079" lon="-2.008762"><ele>354</ele><time>2020-10-17T09:58:28Z</time><name>PT375</name></trkpt>
<trkpt lat="53.226081" lon="-2.008747"><ele>354</ele><time>2020-10-17T09:58:31Z</time><name>PT376</name></trkpt>
<trkpt lat="53.226094" lon="-2.008678"><ele>351</ele><time>2020-10-17T09:58:34Z</time><name>PT377</name></trkpt>
<trkpt lat="53.226091" lon="-2.008617"><ele>351</ele><time>2020-10-17T09:58:38Z</time><name>PT378</name></trkpt>
<trkpt lat="53.226083" lon="-2.008555"><ele>351</ele><time>2020-10-17T09:58:42Z</time><name>PT379</name></trkpt>
<trkpt lat="53.226092" lon="-2.008502"><ele>354</ele><time>2020-10-17T09:58:45Z</time><name>PT380</name></trkpt>
<trkpt lat="53.226098" lon="-2.008463"><ele>355</ele><time>2020-10-17T09:58:48Z</time><name>PT381</name></trkpt>
<trkpt lat="53.226102" lon="-2.008419"><ele>357</ele><time>2020-10-17T09:58:51Z</time><name>PT382</name></trkpt>
<trkpt lat="53.226107" lon="-2.008374"><ele>357</ele><time>2020-10-17T09:58:54Z</time><name>PT383</name></trkpt>
<trkpt lat="53.226115" lon="-2.008346"><ele>356</ele><time>2020-10-17T09:58:58Z</time><name>PT384</name></trkpt>
<trkpt lat="53.226121" lon="-2.008318"><ele>355</ele><time>2020-10-17T09:59:02Z</time><name>PT385</name></trkpt>
<trkpt lat="53.226124" lon="-2.008285"><ele>354</ele><time>2020-10-17T09:59:06Z</time><name>PT386</name></trkpt>
<trkpt lat="53.226136" lon="-2.008257"><ele>355</ele><time>2020-10-17T09:59:09Z</time><name>PT387</name></trkpt>
<trkpt lat="53.226143" lon="-2.008206"><ele>356</ele><time>2020-10-17T09:59:13Z</time><name>PT388</name></trkpt>
<trkpt lat="53.226148" lon="-2.008150"><ele>357</ele><time>2020-10-17T09:59:17Z</time><name>PT389</name></trkpt>
<trkpt lat="53.226161" lon="-2.008098"><ele>359</ele><time>2020-10-17T09:59:22Z</time><name>PT390</name></trkpt>
<trkpt lat="53.226176" lon="-2.008044"><ele>360</ele><time>2020-10-17T09:59:25Z</time><name>PT391</name></trkpt>
<trkpt lat="53.226178" lon="-2.008005"><ele>360</ele><time>2020-10-17T09:59:29Z</time><name>PT392</name></trkpt>
<trkpt lat="53.226185" lon="-2.007971"><ele>361</ele><time>2020-10-17T09:59:32Z</time><name>PT393</name></trkpt>
<trkpt lat="53.226195" lon="-2.007912"><ele>361</ele><time>2020-10-17T09:59:37Z</time><name>PT394</name></trkpt>
<trkpt lat="53.226200" lon="-2.007860"><ele>362</ele><time>2020-10-17T09:59:40Z</time><name>PT395</name></trkpt>
<trkpt lat="53.226207" lon="-2.007798"><ele>363</ele><time>2020-10-17T09:59:44Z</time><name>PT396</name></trkpt>
<trkpt lat="53.226212" lon="-2.007757"><ele>363</ele><time>2020-10-17T09:59:47Z</time><name>PT397</name></trkpt>
<trkpt lat="53.226211" lon="-2.007692"><ele>361</ele><time>2020-10-17T09:59:52Z</time><name>PT398</name></trkpt>
<trkpt lat="53.226212" lon="-2.007631"><ele>362</ele><time>2020-10-17T09:59:55Z</time><name>PT399</name></trkpt>
<trkpt lat="53.226214" lon="-2.007586"><ele>363</ele><time>2020-10-17T09:59:58Z</time><name>PT400</name></trkpt>
<trkpt lat="53.226215" lon="-2.007546"><ele>363</ele><time>2020-10-17T10:00:01Z</time><name>PT401</name></trkpt>
<trkpt lat="53.226215" lon="-2.007488"><ele>364</ele><time>2020-10-17T10:00:05Z</time><name>PT402</name></trkpt>
<trkpt lat="53.226215" lon="-2.007444"><ele>365</ele><time>2020-10-17T10:00:08Z</time><name>PT403</name></trkpt>
<trkpt lat="53.226216" lon="-2.007406"><ele>364</ele><time>2020-10-17T10:00:11Z</time><name>PT404</name></trkpt>
<trkpt lat="53.226219" lon="-2.007356"><ele>363</ele><time>2020-10-17T10:00:15Z</time><name>PT405</name></trkpt>
<trkpt lat="53.226231" lon="-2.007319"><ele>365</ele><time>2020-10-17T10:00:19Z</time><name>PT406</name></trkpt>
<trkpt lat="53.226268" lon="-2.007227"><ele>365</ele><time>2020-10-17T10:00:30Z</time><name>PT407</name></trkpt>
<trkpt lat="53.226289" lon="-2.007142"><ele>366</ele><time>2020-10-17T10:00:34Z</time><name>PT408</name></trkpt>
<trkpt lat="53.226298" lon="-2.007081"><ele>367</ele><time>2020-10-17T10:00:37Z</time><name>PT409</name></trkpt>
<trkpt lat="53.226300" lon="-2.007039"><ele>367</ele><time>2020-10-17T10:00:40Z</time><name>PT410</name></trkpt>
<trkpt lat="53.226305" lon="-2.006986"><ele>366</ele><time>2020-10-17T10:00:44Z</time><name>PT411</name></trkpt>
<trkpt lat="53.226294" lon="-2.006931"><ele>365</ele><time>2020-10-17T10:00:48Z</time><name>PT412</name></trkpt>
<trkpt lat="53.226296" lon="-2.006907"><ele>365</ele><time>2020-10-17T10:00:52Z</time><name>PT413</name></trkpt>
<trkpt lat="53.226307" lon="-2.006851"><ele>366</ele><time>2020-10-17T10:00:55Z</time><name>PT414</name></trkpt>
<trkpt lat="53.226311" lon="-2.006818"><ele>365</ele><time>2020-10-17T10:00:58Z</time><name>PT415</name></trkpt>
<trkpt lat="53.226305" lon="-2.006787"><ele>365</ele><time>2020-10-17T10:01:01Z</time><name>PT416</name></trkpt>
<trkpt lat="53.226305" lon="-2.006740"><ele>363</ele><time>2020-10-17T10:01:05Z</time><name>PT417</name></trkpt>
<trkpt lat="53.226311" lon="-2.006709"><ele>366</ele><time>2020-10-17T10:01:08Z</time><name>PT418</name></trkpt>
<trkpt lat="53.226312" lon="-2.006655"><ele>369</ele><time>2020-10-17T10:01:11Z</time><name>PT419</name></trkpt>
<trkpt lat="53.226315" lon="-2.006599"><ele>371</ele><time>2020-10-17T10:01:14Z</time><name>PT420</name></trkpt>
<trkpt lat="53.226323" lon="-2.006535"><ele>372</ele><time>2020-10-17T10:01:18Z</time><name>PT421</name></trkpt>
<trkpt lat="53.226333" lon="-2.006480"><ele>374</ele><time>2020-10-17T10:01:22Z</time><name>PT422</name></trkpt>
<trkpt lat="53.226341" lon="-2.006412"><ele>375</ele><time>2020-10-17T10:01:26Z</time><name>PT423</name></trkpt>
<trkpt lat="53.226348" lon="-2.006364"><ele>376</ele><time>2020-10-17T10:01:29Z</time><name>PT424</name></trkpt>
<trkpt lat="53.226350" lon="-2.006295"><ele>376</ele><time>2020-10-17T10:01:33Z</time><name>PT425</name></trkpt>
<trkpt lat="53.226362" lon="-2.006239"><ele>377</ele><time>2020-10-17T10:01:37Z</time><name>PT426</name></trkpt>
<trkpt lat="53.226367" lon="-2.006188"><ele>378</ele><time>2020-10-17T10:01:40Z</time><name>PT427</name></trkpt>
<trkpt lat="53.226370" lon="-2.006132"><ele>378</ele><time>2020-10-17T10:01:43Z</time><name>PT428</name></trkpt>
<trkpt lat="53.226378" lon="-2.006069"><ele>379</ele><time>2020-10-17T10:01:47Z</time><name>PT429</name></trkpt>
<trkpt lat="53.226391" lon="-2.006025"><ele>380</ele><time>2020-10-17T10:01:50Z</time><name>PT430</name></trkpt>
<trkpt lat="53.226400" lon="-2.005969"><ele>380</ele><time>2020-10-17T10:01:54Z</time><name>PT431</name></trkpt>
<trkpt lat="53.226409" lon="-2.005921"><ele>381</ele><time>2020-10-17T10:01:57Z</time><name>PT432</name></trkpt>
<trkpt lat="53.226423" lon="-2.005870"><ele>381</ele><time>2020-10-17T10:02:01Z</time><name>PT433</name></trkpt>
<trkpt lat="53.226444" lon="-2.005807"><ele>383</ele><time>2020-10-17T10:02:05Z</time><name>PT434</name></trkpt>
<trkpt lat="53.226459" lon="-2.005742"><ele>384</ele><time>2020-10-17T10:02:09Z</time><name>PT435</name></trkpt>
<trkpt lat="53.226461" lon="-2.005700"><ele>384</ele><time>2020-10-17T10:02:12Z</time><name>PT436</name></trkpt>
<trkpt lat="53.226468" lon="-2.005662"><ele>383</ele><time>2020-10-17T10:02:15Z</time><name>PT437</name></trkpt>
<trkpt lat="53.226480" lon="-2.005604"><ele>384</ele><time>2020-10-17T10:02:19Z</time><name>PT438</name></trkpt>
<trkpt lat="53.226489" lon="-2.005565"><ele>384</ele><time>2020-10-17T10:02:22Z</time><name>PT439</name></trkpt>
<trkpt lat="53.226494" lon="-2.005525"><ele>384</ele><time>2020-10-17T10:02:25Z</time><name>PT440</name></trkpt>
<trkpt lat="53.226510" lon="-2.005472"><ele>385</ele><time>2020-10-17T10:02:29Z</time><name>PT441</name></trkpt>
<trkpt lat="53.226527" lon="-2.005437"><ele>385</ele><time>2020-10-17T10:02:32Z</time><name>PT442</name></trkpt>
<trkpt lat="53.226550" lon="-2.005383"><ele>386</ele><time>2020-10-17T10:02:36Z</time><name>PT443</name></trkpt>
<trkpt lat="53.226570" lon="-2.005331"><ele>387</ele><time>2020-10-17T10:02:40Z</time><name>PT444</name></trkpt>
<trkpt lat="53.226585" lon="-2.005294"><ele>386</ele><time>2020-10-17T10:02:43Z</time><name>PT445</name></trkpt>
<trkpt lat="53.226601" lon="-2.005266"><ele>387</ele><time>2020-10-17T10:02:46Z</time><name>PT446</name></trkpt>
<trkpt lat="53.226621" lon="-2.005237"><ele>386</ele><time>2020-10-17T10:02:49Z</time><name>PT447</name></trkpt>
<trkpt lat="53.226639" lon="-2.005189"><ele>387</ele><time>2020-10-17T10:02:53Z</time><name>PT448</name></trkpt>
<trkpt lat="53.226662" lon="-2.005151"><ele>389</ele><time>2020-10-17T10:02:57Z</time><name>PT449</name></trkpt>
<trkpt lat="53.226682" lon="-2.005111"><ele>389</ele><time>2020-10-17T10:03:00Z</time><name>PT450</name></trkpt>
<trkpt lat="53.226703" lon="-2.005079"><ele>390</ele><time>2020-10-17T10:03:03Z</time><name>PT451</name></trkpt>
<trkpt lat="53.226715" lon="-2.005043"><ele>390</ele><time>2020-10-17T10:03:06Z</time><name>PT452</name></trkpt>
<trkpt lat="53.226729" lon="-2.004997"><ele>389</ele><time>2020-10-17T10:03:09Z</time><name>PT453</name></trkpt>
<trkpt lat="53.226746" lon="-2.004933"><ele>390</ele><time>2020-10-17T10:03:13Z</time><name>PT454</name></trkpt>
<trkpt lat="53.226761" lon="-2.004889"><ele>391</ele><time>2020-10-17T10:03:16Z</time><name>PT455</name></trkpt>
<trkpt lat="53.226774" lon="-2.004834"><ele>391</ele><time>2020-10-17T10:03:20Z</time><name>PT456</name></trkpt>
<trkpt lat="53.226780" lon="-2.004785"><ele>391</ele><time>2020-10-17T10:03:24Z</time><name>PT457</name></trkpt>
<trkpt lat="53.226780" lon="-2.004761"><ele>391</ele><time>2020-10-17T10:03:27Z</time><name>PT458</name></trkpt>
<trkpt lat="53.226780" lon="-2.004740"><ele>392</ele><time>2020-10-17T10:03:31Z</time><name>PT459</name></trkpt>
<trkpt lat="53.226777" lon="-2.004746"><ele>392</ele><time>2020-10-17T10:03:34Z</time><name>PT460</name></trkpt>
<trkpt lat="53.226787" lon="-2.004709"><ele>393</ele><time>2020-10-17T10:03:38Z</time><name>PT461</name></trkpt>
<trkpt lat="53.226801" lon="-2.004669"><ele>393</ele><time>2020-10-17T10:03:41Z</time><name>PT462</name></trkpt>
<trkpt lat="53.226810" lon="-2.004635"><ele>393</ele><time>2020-10-17T10:03:44Z</time><name>PT463</name></trkpt>
<trkpt lat="53.226826" lon="-2.004608"><ele>393</ele><time>2020-10-17T10:03:48Z</time><name>PT464</name></trkpt>
<trkpt lat="53.226828" lon="-2.004596"><ele>392</ele><time>2020-10-17T10:03:52Z</time><name>PT465</name></trkpt>
<trkpt lat="53.226830" lon="-2.004594"><ele>392</ele><time>2020-10-17T10:03:56Z</time><name>PT466</name></trkpt>
<trkpt lat="53.226842" lon="-2.004586"><ele>392</ele><time>2020-10-17T10:03:59Z</time><name>PT467</name></trkpt>
<trkpt lat="53.226844" lon="-2.004585"><ele>392</ele><time>2020-10-17T10:04:02Z</time><name>PT468</name></trkpt>
<trkpt lat="53.226883" lon="-2.004541"><ele>391</ele><time>2020-10-17T10:04:06Z</time><name>PT469</name></trkpt>
<trkpt lat="53.226904" lon="-2.004521"><ele>392</ele><time>2020-10-17T10:04:09Z</time><name>PT470</name></trkpt>
<trkpt lat="53.226923" lon="-2.004506"><ele>392</ele><time>2020-10-17T10:04:12Z</time><name>PT471</name></trkpt>
<trkpt lat="53.226948" lon="-2.004493"><ele>392</ele><time>2020-10-17T10:04:15Z</time><name>PT472</name></trkpt>
<trkpt lat="53.226980" lon="-2.004477"><ele>393</ele><time>2020-10-17T10:04:18Z</time><name>PT473</name></trkpt>
<trkpt lat="53.227018" lon="-2.004457"><ele>393</ele><time>2020-10-17T10:04:22Z</time><name>PT474</name></trkpt>
<trkpt lat="53.227039" lon="-2.004437"><ele>394</ele><time>2020-10-17T10:04:25Z</time><name>PT475</name></trkpt>
<trkpt lat="53.227066" lon="-2.004409"><ele>395</ele><time>2020-10-17T10:04:28Z</time><name>PT476</name></trkpt>
<trkpt lat="53.227102" lon="-2.004375"><ele>396</ele><time>2020-10-17T10:04:32Z</time><name>PT477</name></trkpt>
<trkpt lat="53.227132" lon="-2.004359"><ele>397</ele><time>2020-10-17T10:04:36Z</time><name>PT478</name></trkpt>
<trkpt lat="53.227155" lon="-2.004347"><ele>397</ele><time>2020-10-17T10:04:40Z</time><name>PT479</name></trkpt>
<trkpt lat="53.227195" lon="-2.004346"><ele>399</ele><time>2020-10-17T10:04:44Z</time><name>PT480</name></trkpt>
<trkpt lat="53.227230" lon="-2.004342"><ele>400</ele><time>2020-10-17T10:04:48Z</time><name>PT481</name></trkpt>
<trkpt lat="53.227249" lon="-2.004336"><ele>399</ele><time>2020-10-17T10:04:52Z</time><name>PT482</name></trkpt>
<trkpt lat="53.227257" lon="-2.004341"><ele>400</ele><time>2020-10-17T10:05:08Z</time><name>PT483</name></trkpt>
<trkpt lat="53.227256" lon="-2.004330"><ele>399</ele><time>2020-10-17T10:05:11Z</time><name>PT484</name></trkpt>
<trkpt lat="53.227254" lon="-2.004330"><ele>399</ele><time>2020-10-17T10:05:14Z</time><name>PT485</name></trkpt>
<trkpt lat="53.227252" lon="-2.004347"><ele>399</ele><time>2020-10-17T10:05:18Z</time><name>PT486</name></trkpt>
<trkpt lat="53.227254" lon="-2.004349"><ele>399</ele><time>2020-10-17T10:05:21Z</time><name>PT487</name></trkpt>
<trkpt lat="53.227254" lon="-2.004352"><ele>399</ele><time>2020-10-17T10:05:25Z</time><name>PT488</name></trkpt>
<trkpt lat="53.227258" lon="-2.004357"><ele>398</ele><time>2020-10-17T10:07:12Z</time><name>PT489</name></trkpt>
<trkpt lat="53.227256" lon="-2.004366"><ele>398</ele><time>2020-10-17T10:07:16Z</time><name>PT490</name></trkpt>
<trkpt lat="53.227256" lon="-2.004364"><ele>398</ele><time>2020-10-17T10:07:20Z</time><name>PT491</name></trkpt>
<trkpt lat="53.227256" lon="-2.004369"><ele>397</ele><time>2020-10-17T10:07:24Z</time><name>PT492</name></trkpt>
<trkpt lat="53.227266" lon="-2.004350"><ele>397</ele><time>2020-10-17T10:07:27Z</time><name>PT493</name></trkpt>
<trkpt lat="53.227257" lon="-2.004332"><ele>396</ele><time>2020-10-17T10:07:31Z</time><name>PT494</name></trkpt>
<trkpt lat="53.227256" lon="-2.004331"><ele>396</ele><time>2020-10-17T10:07:34Z</time><name>PT495</name></trkpt>
<trkpt lat="53.227275" lon="-2.004323"><ele>396</ele><time>2020-10-17T10:07:48Z</time><name>PT496</name></trkpt>
<trkpt lat="53.227294" lon="-2.004291"><ele>395</ele><time>2020-10-17T10:07:52Z</time><name>PT497</name></trkpt>
<trkpt lat="53.227307" lon="-2.004272"><ele>395</ele><time>2020-10-17T10:07:55Z</time><name>PT498</name></trkpt>
<trkpt lat="53.227335" lon="-2.004245"><ele>396</ele><time>2020-10-17T10:07:59Z</time><name>PT499</name></trkpt>
<trkpt lat="53.227362" lon="-2.004229"><ele>396</ele><time>2020-10-17T10:08:02Z</time><name>PT500</name></trkpt>
<trkpt lat="53.227401" lon="-2.004204"><ele>397</ele><time>2020-10-17T10:08:06Z</time><name>PT501</name></trkpt>
<trkpt lat="53.227422" lon="-2.004186"><ele>398</ele><time>2020-10-17T10:08:10Z</time><name>PT502</name></trkpt>
<trkpt lat="53.227445" lon="-2.004166"><ele>398</ele><time>2020-10-17T10:08:13Z</time><name>PT503</name></trkpt>
<trkpt lat="53.227480" lon="-2.004160"><ele>397</ele><time>2020-10-17T10:08:17Z</time><name>PT504</name></trkpt>
<trkpt lat="53.227502" lon="-2.004140"><ele>397</ele><time>2020-10-17T10:08:21Z</time><name>PT505</name></trkpt>
<trkpt lat="53.227527" lon="-2.004113"><ele>396</ele><time>2020-10-17T10:08:25Z</time><name>PT506</name></trkpt>
<trkpt lat="53.227552" lon="-2.004097"><ele>397</ele><time>2020-10-17T10:08:29Z</time><name>PT507</name></trkpt>
<trkpt lat="53.227568" lon="-2.004067"><ele>398</ele><time>2020-10-17T10:08:32Z</time><name>PT508</name></trkpt>
<trkpt lat="53.227585" lon="-2.004045"><ele>399</ele><time>2020-10-17T10:08:35Z</time><name>PT509</name></trkpt>
<trkpt lat="53.227614" lon="-2.004007"><ele>400</ele><time>2020-10-17T10:08:39Z</time><name>PT510</name></trkpt>
<trkpt lat="53.227629" lon="-2.003987"><ele>399</ele><time>2020-10-17T10:08:43Z</time><name>PT511</name></trkpt>
<trkpt lat="53.227655" lon="-2.003980"><ele>399</ele><time>2020-10-17T10:08:47Z</time><name>PT512</name></trkpt>
<trkpt lat="53.227686" lon="-2.003949"><ele>401</ele><time>2020-10-17T10:08:51Z</time><name>PT513</name></trkpt>
<trkpt lat="53.227712" lon="-2.003939"><ele>400</ele><time>2020-10-17T10:08:55Z</time><name>PT514</name></trkpt>
<trkpt lat="53.227739" lon="-2.003931"><ele>401</ele><time>2020-10-17T10:08:58Z</time><name>PT515</name></trkpt>
<trkpt lat="53.227758" lon="-2.003902"><ele>402</ele><time>2020-10-17T10:09:01Z</time><name>PT516</name></trkpt>
<trkpt lat="53.227790" lon="-2.003867"><ele>404</ele><time>2020-10-17T10:09:05Z</time><name>PT517</name></trkpt>
<trkpt lat="53.227808" lon="-2.003842"><ele>404</ele><time>2020-10-17T10:09:08Z</time><name>PT518</name></trkpt>
<trkpt lat="53.227835" lon="-2.003826"><ele>405</ele><time>2020-10-17T10:09:12Z</time><name>PT519</name></trkpt>
<trkpt lat="53.227851" lon="-2.003800"><ele>405</ele><time>2020-10-17T10:09:15Z</time><name>PT520</name></trkpt>
<trkpt lat="53.227872" lon="-2.003759"><ele>406</ele><time>2020-10-17T10:09:19Z</time><name>PT521</name></trkpt>
<trkpt lat="53.227893" lon="-2.003709"><ele>410</ele><time>2020-10-17T10:09:22Z</time><name>PT522</name></trkpt>
<trkpt lat="53.227926" lon="-2.003686"><ele>412</ele><time>2020-10-17T10:09:26Z</time><name>PT523</name></trkpt>
<trkpt lat="53.227953" lon="-2.003646"><ele>412</ele><time>2020-10-17T10:09:30Z</time><name>PT524</name></trkpt>
<trkpt lat="53.227969" lon="-2.003622"><ele>412</ele><time>2020-10-17T10:09:33Z</time><name>PT525</name></trkpt>
<trkpt lat="53.227992" lon="-2.003588"><ele>413</ele><time>2020-10-17T10:09:37Z</time><name>PT526</name></trkpt>
<trkpt lat="53.228011" lon="-2.003562"><ele>414</ele><time>2020-10-17T10:09:41Z</time><name>PT527</name></trkpt>
<trkpt lat="53.228025" lon="-2.003543"><ele>414</ele><time>2020-10-17T10:09:44Z</time><name>PT528</name></trkpt>
<trkpt lat="53.228040" lon="-2.003532"><ele>415</ele><time>2020-10-17T10:09:47Z</time><name>PT529</name></trkpt>
<trkpt lat="53.228064" lon="-2.003525"><ele>415</ele><time>2020-10-17T10:09:50Z</time><name>PT530</name></trkpt>
<trkpt lat="53.228104" lon="-2.003503"><ele>417</ele><time>2020-10-17T10:09:54Z</time><name>PT531</name></trkpt>
<trkpt lat="53.228133" lon="-2.003476"><ele>419</ele><time>2020-10-17T10:09:58Z</time><name>PT532</name></trkpt>
<trkpt lat="53.228149" lon="-2.003481"><ele>421</ele><time>2020-10-17T10:10:02Z</time><name>PT533</name></trkpt>
<trkpt lat="53.228173" lon="-2.003449"><ele>419</ele><time>2020-10-17T10:10:05Z</time><name>PT534</name></trkpt>
<trkpt lat="53.228203" lon="-2.003409"><ele>419</ele><time>2020-10-17T10:10:09Z</time><name>PT535</name></trkpt>
<trkpt lat="53.228237" lon="-2.003375"><ele>418</ele><time>2020-10-17T10:10:13Z</time><name>PT536</name></trkpt>
<trkpt lat="53.228270" lon="-2.003346"><ele>419</ele><time>2020-10-17T10:10:17Z</time><name>PT537</name></trkpt>
<trkpt lat="53.228299" lon="-2.003305"><ele>420</ele><time>2020-10-17T10:10:21Z</time><name>PT538</name></trkpt>
<trkpt lat="53.228325" lon="-2.003276"><ele>419</ele><time>2020-10-17T10:10:25Z</time><name>PT539</name></trkpt>
<trkpt lat="53.228357" lon="-2.003260"><ele>420</ele><time>2020-10-17T10:10:28Z</time><name>PT540</name></trkpt>
<trkpt lat="53.228384" lon="-2.003232"><ele>420</ele><time>2020-10-17T10:10:32Z</time><name>PT541</name></trkpt>
<trkpt lat="53.228403" lon="-2.003212"><ele>420</ele><time>2020-10-17T10:10:35Z</time><name>PT542</name></trkpt>
<trkpt lat="53.228419" lon="-2.003191"><ele>420</ele><time>2020-10-17T10:10:38Z</time><name>PT543</name></trkpt>
<trkpt lat="53.228438" lon="-2.003169"><ele>421</ele><time>2020-10-17T10:10:41Z</time><name>PT544</name></trkpt>
<trkpt lat="53.228458" lon="-2.003141"><ele>421</ele><time>2020-10-17T10:10:45Z</time><name>PT545</name></trkpt>
<trkpt lat="53.228483" lon="-2.003124"><ele>421</ele><time>2020-10-17T10:10:48Z</time><name>PT546</name></trkpt>
<trkpt lat="53.228515" lon="-2.003115"><ele>422</ele><time>2020-10-17T10:10:51Z</time><name>PT547</name></trkpt>
<trkpt lat="53.228546" lon="-2.003097"><ele>423</ele><time>2020-10-17T10:10:54Z</time><name>PT548</name></trkpt>
<trkpt lat="53.228575" lon="-2.003074"><ele>424</ele><time>2020-10-17T10:10:58Z</time><name>PT549</name></trkpt>
<trkpt lat="53.228597" lon="-2.003051"><ele>424</ele><time>2020-10-17T10:11:01Z</time><name>PT550</name></trkpt>
<trkpt lat="53.228620" lon="-2.003028"><ele>424</ele><time>2020-10-17T10:11:04Z</time><name>PT551</name></trkpt>
<trkpt lat="53.228642" lon="-2.002998"><ele>424</ele><time>2020-10-17T10:11:08Z</time><name>PT552</name></trkpt>
<trkpt lat="53.228663" lon="-2.002971"><ele>425</ele><time>2020-10-17T10:11:11Z</time><name>PT553</name></trkpt>
<trkpt lat="53.228700" lon="-2.002944"><ele>426</ele><time>2020-10-17T10:11:15Z</time><name>PT554</name></trkpt>
<trkpt lat="53.228718" lon="-2.002943"><ele>426</ele><time>2020-10-17T10:11:18Z</time><name>PT555</name></trkpt>
<trkpt lat="53.228757" lon="-2.002928"><ele>427</ele><time>2020-10-17T10:11:22Z</time><name>PT556</name></trkpt>
<trkpt lat="53.228783" lon="-2.002917"><ele>427</ele><time>2020-10-17T10:11:25Z</time><name>PT557</name></trkpt>
<trkpt lat="53.228810" lon="-2.002889"><ele>427</ele><time>2020-10-17T10:11:29Z</time><name>PT558</name></trkpt>
<trkpt lat="53.228838" lon="-2.002877"><ele>427</ele><time>2020-10-17T10:11:32Z</time><name>PT559</name></trkpt>
<trkpt lat="53.228880" lon="-2.002863"><ele>429</ele><time>2020-10-17T10:11:36Z</time><name>PT560</name></trkpt>
<trkpt lat="53.228918" lon="-2.002840"><ele>430</ele><time>2020-10-17T10:11:40Z</time><name>PT561</name></trkpt>
<trkpt lat="53.228947" lon="-2.002820"><ele>431</ele><time>2020-10-17T10:11:43Z</time><name>PT562</name></trkpt>
<trkpt lat="53.228984" lon="-2.002813"><ele>431</ele><time>2020-10-17T10:11:47Z</time><name>PT563</name></trkpt>
<trkpt lat="53.229018" lon="-2.002818"><ele>432</ele><time>2020-10-17T10:11:50Z</time><name>PT564</name></trkpt>
<trkpt lat="53.229049" lon="-2.002831"><ele>432</ele><time>2020-10-17T10:11:54Z</time><name>PT565</name></trkpt>
<trkpt lat="53.229071" lon="-2.002832"><ele>433</ele><time>2020-10-17T10:11:57Z</time><name>PT566</name></trkpt>
<trkpt lat="53.229087" lon="-2.002830"><ele>435</ele><time>2020-10-17T10:12:01Z</time><name>PT567</name></trkpt>
<trkpt lat="53.229088" lon="-2.002830"><ele>435</ele><time>2020-10-17T10:12:05Z</time><name>PT568</name></trkpt>
<trkpt lat="53.229094" lon="-2.002824"><ele>435</ele><time>2020-10-17T10:12:09Z</time><name>PT569</name></trkpt>
<trkpt lat="53.229136" lon="-2.002830"><ele>435</ele><time>2020-10-17T10:12:13Z</time><name>PT570</name></trkpt>
<trkpt lat="53.229168" lon="-2.002871"><ele>436</ele><time>2020-10-17T10:12:17Z</time><name>PT571</name></trkpt>
<trkpt lat="53.229192" lon="-2.002893"><ele>435</ele><time>2020-10-17T10:12:20Z</time><name>PT572</name></trkpt>
<trkpt lat="53.229220" lon="-2.002913"><ele>435</ele><time>2020-10-17T10:12:23Z</time><name>PT573</name></trkpt>
<trkpt lat="53.229250" lon="-2.002920"><ele>436</ele><time>2020-10-17T10:12:26Z</time><name>PT574</name></trkpt>
<trkpt lat="53.229281" lon="-2.002936"><ele>436</ele><time>2020-10-17T10:12:30Z</time><name>PT575</name></trkpt>
<trkpt lat="53.229307" lon="-2.002940"><ele>437</ele><time>2020-10-17T10:12:33Z</time><name>PT576</name></trkpt>
<trkpt lat="53.229340" lon="-2.002951"><ele>437</ele><time>2020-10-17T10:12:37Z</time><name>PT577</name></trkpt>
<trkpt lat="53.229368" lon="-2.002951"><ele>437</ele><time>2020-10-17T10:12:40Z</time><name>PT578</name></trkpt>
<trkpt lat="53.229395" lon="-2.002952"><ele>437</ele><time>2020-10-17T10:12:43Z</time><name>PT579</name></trkpt>
<trkpt lat="53.229416" lon="-2.002954"><ele>437</ele><time>2020-10-17T10:12:46Z</time><name>PT580</name></trkpt>
<trkpt lat="53.229430" lon="-2.002958"><ele>437</ele><time>2020-10-17T10:12:49Z</time><name>PT581</name></trkpt>
<trkpt lat="53.229445" lon="-2.002958"><ele>437</ele><time>2020-10-17T10:12:52Z</time><name>PT582</name></trkpt>
<trkpt lat="53.229448" lon="-2.002959"><ele>437</ele><time>2020-10-17T10:12:56Z</time><name>PT583</name></trkpt>
<trkpt lat="53.229461" lon="-2.002970"><ele>437</ele><time>2020-10-17T10:12:59Z</time><name>PT584</name></trkpt>
<trkpt lat="53.229507" lon="-2.002990"><ele>437</ele><time>2020-10-17T10:13:03Z</time><name>PT585</name></trkpt>
<trkpt lat="53.229535" lon="-2.003006"><ele>437</ele><time>2020-10-17T10:13:06Z</time><name>PT586</name></trkpt>
<trkpt lat="53.229572" lon="-2.003023"><ele>437</ele><time>2020-10-17T10:13:10Z</time><name>PT587</name></trkpt>
<trkpt lat="53.229595" lon="-2.003041"><ele>438</ele><time>2020-10-17T10:13:13Z</time><name>PT588</name></trkpt>
<trkpt lat="53.229618" lon="-2.003040"><ele>439</ele><time>2020-10-17T10:13:16Z</time><name>PT589</name></trkpt>
<trkpt lat="53.229644" lon="-2.003045"><ele>439</ele><time>2020-10-17T10:13:20Z</time><name>PT590</name></trkpt>
<trkpt lat="53.229667" lon="-2.003065"><ele>439</ele><time>2020-10-17T10:13:23Z</time><name>PT591</name></trkpt>
<trkpt lat="53.229702" lon="-2.003089"><ele>439</ele><time>2020-10-17T10:13:27Z</time><name>PT592</name></trkpt>
<trkpt lat="53.229735" lon="-2.003099"><ele>439</ele><time>2020-10-17T10:13:31Z</time><name>PT593</name></trkpt>
<trkpt lat="53.229762" lon="-2.003117"><ele>439</ele><time>2020-10-17T10:13:35Z</time><name>PT594</name></trkpt>
<trkpt lat="53.229775" lon="-2.003128"><ele>439</ele><time>2020-10-17T10:13:38Z</time><name>PT595</name></trkpt>
<trkpt lat="53.229799" lon="-2.003148"><ele>439</ele><time>2020-10-17T10:13:42Z</time><name>PT596</name></trkpt>
<trkpt lat="53.229835" lon="-2.003162"><ele>441</ele><time>2020-10-17T10:13:46Z</time><name>PT597</name></trkpt>
<trkpt lat="53.229860" lon="-2.003177"><ele>442</ele><time>2020-10-17T10:13:50Z</time><name>PT598</name></trkpt>
<trkpt lat="53.229888" lon="-2.003193"><ele>442</ele><time>2020-10-17T10:13:54Z</time><name>PT599</name></trkpt>
<trkpt lat="53.229900" lon="-2.003214"><ele>444</ele><time>2020-10-17T10:13:57Z</time><name>PT600</name></trkpt>
<trkpt lat="53.229916" lon="-2.003252"><ele>444</ele><time>2020-10-17T10:14:00Z</time><name>PT601</name></trkpt>
<trkpt lat="53.229928" lon="-2.003274"><ele>444</ele><time>2020-10-17T10:14:03Z</time><name>PT602</name></trkpt>
<trkpt lat="53.229940" lon="-2.003293"><ele>444</ele><time>2020-10-17T10:14:07Z</time><name>PT603</name></trkpt>
<trkpt lat="53.229946" lon="-2.003314"><ele>443</ele><time>2020-10-17T10:14:10Z</time><name>PT604</name></trkpt>
<trkpt lat="53.229950" lon="-2.003321"><ele>444</ele><time>2020-10-17T10:14:14Z</time><name>PT605</name></trkpt>
<trkpt lat="53.229953" lon="-2.003330"><ele>445</ele><time>2020-10-17T10:14:21Z</time><name>PT606</name></trkpt>
<trkpt lat="53.229958" lon="-2.003347"><ele>445</ele><time>2020-10-17T10:14:25Z</time><name>PT607</name></trkpt>
<trkpt lat="53.229960" lon="-2.003359"><ele>445</ele><time>2020-10-17T10:14:28Z</time><name>PT608</name></trkpt>
<trkpt lat="53.229978" lon="-2.003361"><ele>446</ele><time>2020-10-17T10:14:36Z</time><name>PT609</name></trkpt>
<trkpt lat="53.229982" lon="-2.003360"><ele>447</ele><time>2020-10-17T10:14:39Z</time><name>PT610</name></trkpt>
<trkpt lat="53.229984" lon="-2.003353"><ele>447</ele><time>2020-10-17T10:14:43Z</time><name>PT611</name></trkpt>
<trkpt lat="53.230004" lon="-2.003341"><ele>447</ele><time>2020-10-17T10:14:46Z</time><name>PT612</name></trkpt>
<trkpt lat="53.230029" lon="-2.003326"><ele>447</ele><time>2020-10-17T10:14:50Z</time><name>PT613</name></trkpt>
<trkpt lat="53.230036" lon="-2.003303"><ele>447</ele><time>2020-10-17T10:14:53Z</time><name>PT614</name></trkpt>
<trkpt lat="53.230046" lon="-2.003296"><ele>448</ele><time>2020-10-17T10:14:57Z</time><name>PT615</name></trkpt>
<trkpt lat="53.230060" lon="-2.003282"><ele>450</ele><time>2020-10-17T10:15:01Z</time><name>PT616</name></trkpt>
<trkpt lat="53.230060" lon="-2.003280"><ele>450</ele><time>2020-10-17T10:15:04Z</time><name>PT617</name></trkpt>
<trkpt lat="53.230060" lon="-2.003284"><ele>451</ele><time>2020-10-17T10:15:19Z</time><name>PT618</name></trkpt>
<trkpt lat="53.230088" lon="-2.003262"><ele>452</ele><time>2020-10-17T10:15:23Z</time><name>PT619</name></trkpt>
<trkpt lat="53.230093" lon="-2.003261"><ele>452</ele><time>2020-10-17T10:15:24Z</time><name>PT620</name></trkpt>
<trkpt lat="53.230096" lon="-2.003263"><ele>452</ele><time>2020-10-17T10:15:25Z</time><name>PT621</name></trkpt>
<trkpt lat="53.230101" lon="-2.003262"><ele>452</ele><time>2020-10-17T10:15:26Z</time><name>PT622</name></trkpt>
<trkpt lat="53.230106" lon="-2.003260"><ele>452</ele><time>2020-10-17T10:15:27Z</time><name>PT623</name></trkpt>
<trkpt lat="53.230110" lon="-2.003258"><ele>453</ele><time>2020-10-17T10:15:28Z</time><name>PT624</name></trkpt>
<trkpt lat="53.230116" lon="-2.003256"><ele>453</ele><time>2020-10-17T10:15:29Z</time><name>PT625</name></trkpt>
<trkpt lat="53.230124" lon="-2.003258"><ele>453</ele><time>2020-10-17T10:15:30Z</time><name>PT626</name></trkpt>
<trkpt lat="53.230129" lon="-2.003265"><ele>453</ele><time>2020-10-17T10:15:31Z</time><name>PT627</name></trkpt>
<trkpt lat="53.230135" lon="-2.003269"><ele>454</ele><time>2020-10-17T10:15:32Z</time><name>PT628</name></trkpt>
<trkpt lat="53.230140" lon="-2.003270"><ele>454</ele><time>2020-10-17T10:15:33Z</time><name>PT629</name></trkpt>
<trkpt lat="53.230149" lon="-2.003277"><ele>454</ele><time>2020-10-17T10:15:34Z</time><name>PT630</name></trkpt>
<trkpt lat="53.230157" lon="-2.003284"><ele>455</ele><time>2020-10-17T10:15:35Z</time><name>PT631</name></trkpt>
<trkpt lat="53.230163" lon="-2.003286"><ele>455</ele><time>2020-10-17T10:15:36Z</time><name>PT632</name></trkpt>
<trkpt lat="53.230165" lon="-2.003282"><ele>456</ele><time>2020-10-17T10:15:37Z</time><name>PT633</name></trkpt>
<trkpt lat="53.230169" lon="-2.003280"><ele>456</ele><time>2020-10-17T10:15:38Z</time><name>PT634</name></trkpt>
<trkpt lat="53.230177" lon="-2.003280"><ele>457</ele><time>2020-10-17T10:15:39Z</time><name>PT635</name></trkpt>
<trkpt lat="53.230179" lon="-2.003279"><ele>457</ele><time>2020-10-17T10:15:40Z</time><name>PT636</name></trkpt>
<trkpt lat="53.230187" lon="-2.003272"><ele>458</ele><time>2020-10-17T10:15:41Z</time><name>PT637</name></trkpt>
<trkpt lat="53.230197" lon="-2.003259"><ele>458</ele><time>2020-10-17T10:15:42Z</time><name>PT638</name></trkpt>
<trkpt lat="53.230204" lon="-2.003250"><ele>459</ele><time>2020-10-17T10:15:43Z</time><name>PT639</name></trkpt>
<trkpt lat="53.230207" lon="-2.003247"><ele>459</ele><time>2020-10-17T10:15:44Z</time><name>PT640</name></trkpt>
<trkpt lat="53.230205" lon="-2.003245"><ele>459</ele><time>2020-10-17T10:15:45Z</time><name>PT641</name></trkpt>
<trkpt lat="53.230203" lon="-2.003244"><ele>459</ele><time>2020-10-17T10:15:46Z</time><name>PT642</name></trkpt>
<trkpt lat="53.230202" lon="-2.003249"><ele>459</ele><time>2020-10-17T10:15:47Z</time><name>PT643</name></trkpt>
<trkpt lat="53.230202" lon="-2.003251"><ele>459</ele><time>2020-10-17T10:15:48Z</time><name>PT644</name></trkpt>
<trkpt lat="53.230199" lon="-2.003250"><ele>459</ele><time>2020-10-17T10:15:49Z</time><name>PT645</name></trkpt>
<trkpt lat="53.230198" lon="-2.003251"><ele>459</ele><time>2020-10-17T10:15:50Z</time><name>PT646</name></trkpt>
<trkpt lat="53.230198" lon="-2.003249"><ele>459</ele><time>2020-10-17T10:15:51Z</time><name>PT647</name></trkpt>
<trkpt lat="53.230197" lon="-2.003249"><ele>459</ele><time>2020-10-17T10:15:53Z</time><name>PT648</name></trkpt>
<trkpt lat="53.230198" lon="-2.003250"><ele>459</ele><time>2020-10-17T10:15:54Z</time><name>PT649</name></trkpt>
<trkpt lat="53.230200" lon="-2.003249"><ele>459</ele><time>2020-10-17T10:15:57Z</time><name>PT650</name></trkpt>
<trkpt lat="53.230209" lon="-2.003243"><ele>459</ele><time>2020-10-17T10:15:58Z</time><name>PT651</name></trkpt>
<trkpt lat="53.230217" lon="-2.003236"><ele>460</ele><time>2020-10-17T10:15:59Z</time><name>PT652</name></trkpt>
<trkpt lat="53.230222" lon="-2.003219"><ele>459</ele><time>2020-10-17T10:16:00Z</time><name>PT653</name></trkpt>
<trkpt lat="53.230228" lon="-2.003218"><ele>460</ele><time>2020-10-17T10:16:01Z</time><name>PT654</name></trkpt>
<trkpt lat="53.230236" lon="-2.003210"><ele>460</ele><time>2020-10-17T10:16:02Z</time><name>PT655</name></trkpt>
<trkpt lat="53.230247" lon="-2.003202"><ele>460</ele><time>2020-10-17T10:16:03Z</time><name>PT656</name></trkpt>
<trkpt lat="53.230260" lon="-2.003194"><ele>461</ele><time>2020-10-17T10:16:04Z</time><name>PT657</name></trkpt>
<trkpt lat="53.230269" lon="-2.003197"><ele>461</ele><time>2020-10-17T10:16:05Z</time><name>PT658</name></trkpt>
<trkpt lat="53.230275" lon="-2.003200"><ele>460</ele><time>2020-10-17T10:16:06Z</time><name>PT659</name></trkpt>
<trkpt lat="53.230283" lon="-2.003201"><ele>460</ele><time>2020-10-17T10:16:07Z</time><name>PT660</name></trkpt>
<trkpt lat="53.230291" lon="-2.003196"><ele>460</ele><time>2020-10-17T10:16:08Z</time><name>PT661</name></trkpt>
<trkpt lat="53.230296" lon="-2.003192"><ele>460</ele><time>2020-10-17T10:16:09Z</time><name>PT662</name></trkpt>
<trkpt lat="53.230302" lon="-2.003189"><ele>459</ele><time>2020-10-17T10:16:10Z</time><name>PT663</name></trkpt>
<trkpt lat="53.230308" lon="-2.003191"><ele>460</ele><time>2020-10-17T10:16:11Z</time><name>PT664</name></trkpt>
<trkpt lat="53.230311" lon="-2.003190"><ele>460</ele><time>2020-10-17T10:16:12Z</time><name>PT665</name></trkpt>
<trkpt lat="53.230314" lon="-2.003191"><ele>460</ele><time>2020-10-17T10:16:13Z</time><name>PT666</name></trkpt>
<trkpt lat="53.230313" lon="-2.003190"><ele>460</ele><time>2020-10-17T10:16:14Z</time><name>PT667</name></trkpt>
<trkpt lat="53.230315" lon="-2.003190"><ele>460</ele><time>2020-10-17T10:16:15Z</time><name>PT668</name></trkpt>
<trkpt lat="53.230319" lon="-2.003187"><ele>460</ele><time>2020-10-17T10:16:16Z</time><name>PT669</name></trkpt>
<trkpt lat="53.230325" lon="-2.003181"><ele>460</ele><time>2020-10-17T10:16:17Z</time><name>PT670</name></trkpt>
<trkpt lat="53.230334" lon="-2.003178"><ele>460</ele><time>2020-10-17T10:16:18Z</time><name>PT671</name></trkpt>
<trkpt lat="53.230342" lon="-2.003175"><ele>460</ele><time>2020-10-17T10:16:19Z</time><name>PT672</name></trkpt>
<trkpt lat="53.230350" lon="-2.003171"><ele>460</ele><time>2020-10-17T10:16:20Z</time><name>PT673</name></trkpt>
<trkpt lat="53.230359" lon="-2.003165"><ele>461</ele><time>2020-10-17T10:16:21Z</time><name>PT674</name></trkpt>
<trkpt lat="53.230363" lon="-2.003156"><ele>460</ele><time>2020-10-17T10:16:22Z</time><name>PT675</name></trkpt>
<trkpt lat="53.230368" lon="-2.003148"><ele>460</ele><time>2020-10-17T10:16:23Z</time><name>PT676</name></trkpt>
<trkpt lat="53.230374" lon="-2.003140"><ele>460</ele><time>2020-10-17T10:16:24Z</time><name>PT677</name></trkpt>
<trkpt lat="53.230381" lon="-2.003132"><ele>461</ele><time>2020-10-17T10:16:25Z</time><name>PT678</name></trkpt>
<trkpt lat="53.230387" lon="-2.003123"><ele>461</ele><time>2020-10-17T10:16:26Z</time><name>PT679</name></trkpt>
<trkpt lat="53.230394" lon="-2.003114"><ele>459</ele><time>2020-10-17T10:16:27Z</time><name>PT680</name></trkpt>
<trkpt lat="53.230401" lon="-2.003109"><ele>459</ele><time>2020-10-17T10:16:28Z</time><name>PT681</name></trkpt>
<trkpt lat="53.230410" lon="-2.003102"><ele>459</ele><time>2020-10-17T10:16:29Z</time><name>PT682</name></trkpt>
<trkpt lat="53.230417" lon="-2.003096"><ele>459</ele><time>2020-10-17T10:16:30Z</time><name>PT683</name></trkpt>
<trkpt lat="53.230422" lon="-2.003091"><ele>459</ele><time>2020-10-17T10:16:31Z</time><name>PT684</name></trkpt>
<trkpt lat="53.230425" lon="-2.003086"><ele>459</ele><time>2020-10-17T10:16:32Z</time><name>PT685</name></trkpt>
<trkpt lat="53.230425" lon="-2.003082"><ele>459</ele><time>2020-10-17T10:16:33Z</time><name>PT686</name></trkpt>
<trkpt lat="53.230426" lon="-2.003080"><ele>458</ele><time>2020-10-17T10:16:34Z</time><name>PT687</name></trkpt>
<trkpt lat="53.230428" lon="-2.003080"><ele>458</ele><time>2020-10-17T10:16:35Z</time><name>PT688</name></trkpt>
<trkpt lat="53.230433" lon="-2.003084"><ele>458</ele><time>2020-10-17T10:16:36Z</time><name>PT689</name></trkpt>
<trkpt lat="53.230438" lon="-2.003090"><ele>459</ele><time>2020-10-17T10:16:37Z</time><name>PT690</name></trkpt>
<trkpt lat="53.230441" lon="-2.003095"><ele>459</ele><time>2020-10-17T10:16:38Z</time><name>PT691</name></trkpt>
<trkpt lat="53.230443" lon="-2.003100"><ele>459</ele><time>2020-10-17T10:16:39Z</time><name>PT692</name></trkpt>
<trkpt lat="53.230444" lon="-2.003101"><ele>459</ele><time>2020-10-17T10:16:40Z</time><name>PT693</name></trkpt>
<trkpt lat="53.230444" lon="-2.003101"><ele>460</ele><time>2020-10-17T10:16:41Z</time><name>PT694</name></trkpt>
<trkpt lat="53.230444" lon="-2.003100"><ele>460</ele><time>2020-10-17T10:16:42Z</time><name>PT695</name></trkpt>
<trkpt lat="53.230442" lon="-2.003096"><ele>460</ele><time>2020-10-17T10:16:50Z</time><name>PT696</name></trkpt>
<trkpt lat="53.230441" lon="-2.003096"><ele>460</ele><time>2020-10-17T10:16:51Z</time><name>PT697</name></trkpt>
<trkpt lat="53.230443" lon="-2.003097"><ele>460</ele><time>2020-10-17T10:16:52Z</time><name>PT698</name></trkpt>
<trkpt lat="53.230445" lon="-2.003109"><ele>460</ele><time>2020-10-17T10:17:00Z</time><name>PT699</name></trkpt>
<trkpt lat="53.230445" lon="-2.003102"><ele>461</ele><time>2020-10-17T10:17:01Z</time><name>PT700</name></trkpt>
<trkpt lat="53.230441" lon="-2.003101"><ele>461</ele><time>2020-10-17T10:17:02Z</time><name>PT701</name></trkpt>
<trkpt lat="53.230439" lon="-2.003109"><ele>462</ele><time>2020-10-17T10:17:26Z</time><name>PT702</name></trkpt>
<trkpt lat="53.230440" lon="-2.003109"><ele>462</ele><time>2020-10-17T10:17:27Z</time><name>PT703</name></trkpt>
<trkpt lat="53.230442" lon="-2.003108"><ele>462</ele><time>2020-10-17T10:17:28Z</time><name>PT704</name></trkpt>
<trkpt lat="53.230442" lon="-2.003105"><ele>462</ele><time>2020-10-17T10:17:29Z</time><name>PT705</name></trkpt>
<trkpt lat="53.230442" lon="-2.003104"><ele>462</ele><time>2020-10-17T10:17:30Z</time><name>PT706</name></trkpt>
<trkpt lat="53.230443" lon="-2.003105"><ele>462</ele><time>2020-10-17T10:17:31Z</time><name>PT707</name></trkpt>
<trkpt lat="53.230444" lon="-2.003101"><ele>462</ele><time>2020-10-17T10:17:58Z</time><name>PT708</name></trkpt>
<trkpt lat="53.230447" lon="-2.003104"><ele>461</ele><time>2020-10-17T10:17:59Z</time><name>PT709</name></trkpt>
<trkpt lat="53.230448" lon="-2.003106"><ele>461</ele><time>2020-10-17T10:18:00Z</time><name>PT710</name></trkpt>
<trkpt lat="53.230451" lon="-2.003101"><ele>461</ele><time>2020-10-17T10:18:01Z</time><name>PT711</name></trkpt>
<trkpt lat="53.230451" lon="-2.003099"><ele>461</ele><time>2020-10-17T10:18:06Z</time><name>PT712</name></trkpt>
<trkpt lat="53.230453" lon="-2.003099"><ele>461</ele><time>2020-10-17T10:18:07Z</time><name>PT713</name></trkpt>
<trkpt lat="53.230457" lon="-2.003101"><ele>462</ele><time>2020-10-17T10:18:14Z</time><name>PT714</name></trkpt>
<trkpt lat="53.230459" lon="-2.003101"><ele>462</ele><time>2020-10-17T10:18:15Z</time><name>PT715</name></trkpt>
<trkpt lat="53.230461" lon="-2.003099"><ele>462</ele><time>2020-10-17T10:18:16Z</time><name>PT716</name></trkpt>
<trkpt lat="53.230481" lon="-2.003081"><ele>461</ele><time>2020-10-17T10:18:58Z</time><name>PT717</name></trkpt>
<trkpt lat="53.230515" lon="-2.003049"><ele>461</ele><time>2020-10-17T10:19:02Z</time><name>PT718</name></trkpt>
<trkpt lat="53.230539" lon="-2.003032"><ele>462</ele><time>2020-10-17T10:19:05Z</time><name>PT719</name></trkpt>
<trkpt lat="53.230574" lon="-2.003013"><ele>462</ele><time>2020-10-17T10:19:09Z</time><name>PT720</name></trkpt>
<trkpt lat="53.230610" lon="-2.002987"><ele>462</ele><time>2020-10-17T10:19:13Z</time><name>PT721</name></trkpt>
<trkpt lat="53.230633" lon="-2.002971"><ele>462</ele><time>2020-10-17T10:19:16Z</time><name>PT722</name></trkpt>
<trkpt lat="53.230663" lon="-2.002948"><ele>463</ele><time>2020-10-17T10:19:20Z</time><name>PT723</name></trkpt>
<trkpt lat="53.230698" lon="-2.002929"><ele>464</ele><time>2020-10-17T10:19:24Z</time><name>PT724</name></trkpt>
<trkpt lat="53.230733" lon="-2.002906"><ele>464</ele><time>2020-10-17T10:19:28Z</time><name>PT725</name></trkpt>
<trkpt lat="53.230760" lon="-2.002885"><ele>465</ele><time>2020-10-17T10:19:31Z</time><name>PT726</name></trkpt>
<trkpt lat="53.230792" lon="-2.002860"><ele>464</ele><time>2020-10-17T10:19:35Z</time><name>PT727</name></trkpt>
<trkpt lat="53.230818" lon="-2.002845"><ele>464</ele><time>2020-10-17T10:19:38Z</time><name>PT728</name></trkpt>
<trkpt lat="53.230855" lon="-2.002827"><ele>465</ele><time>2020-10-17T10:19:42Z</time><name>PT729</name></trkpt>
<trkpt lat="53.230882" lon="-2.002815"><ele>465</ele><time>2020-10-17T10:19:45Z</time><name>PT730</name></trkpt>
<trkpt lat="53.230917" lon="-2.002803"><ele>465</ele><time>2020-10-17T10:19:49Z</time><name>PT731</name></trkpt>
<trkpt lat="53.230944" lon="-2.002791"><ele>465</ele><time>2020-10-17T10:19:52Z</time><name>PT732</name></trkpt>
<trkpt lat="53.230981" lon="-2.002777"><ele>466</ele><time>2020-10-17T10:19:56Z</time><name>PT733</name></trkpt>
<trkpt lat="53.231010" lon="-2.002754"><ele>466</ele><time>2020-10-17T10:20:00Z</time><name>PT734</name></trkpt>
<trkpt lat="53.231045" lon="-2.002727"><ele>467</ele><time>2020-10-17T10:20:03Z</time><name>PT735</name></trkpt>
<trkpt lat="53.231072" lon="-2.002703"><ele>467</ele><time>2020-10-17T10:20:06Z</time><name>PT736</name></trkpt>
<trkpt lat="53.231107" lon="-2.002676"><ele>468</ele><time>2020-10-17T10:20:10Z</time><name>PT737</name></trkpt>
<trkpt lat="53.231142" lon="-2.002643"><ele>469</ele><time>2020-10-17T10:20:14Z</time><name>PT738</name></trkpt>
<trkpt lat="53.231176" lon="-2.002608"><ele>470</ele><time>2020-10-17T10:20:18Z</time><name>PT739</name></trkpt>
<trkpt lat="53.231202" lon="-2.002583"><ele>470</ele><time>2020-10-17T10:20:21Z</time><name>PT740</name></trkpt>
<trkpt lat="53.231230" lon="-2.002565"><ele>471</ele><time>2020-10-17T10:20:24Z</time><name>PT741</name></trkpt>
<trkpt lat="53.231266" lon="-2.002547"><ele>472</ele><time>2020-10-17T10:20:28Z</time><name>PT742</name></trkpt>
<trkpt lat="53.231299" lon="-2.002526"><ele>472</ele><time>2020-10-17T10:20:32Z</time><name>PT743</name></trkpt>
<trkpt lat="53.231337" lon="-2.002500"><ele>473</ele><time>2020-10-17T10:20:36Z</time><name>PT744</name></trkpt>
<trkpt lat="53.231373" lon="-2.002475"><ele>474</ele><time>2020-10-17T10:20:40Z</time><name>PT745</name></trkpt>
<trkpt lat="53.231399" lon="-2.002459"><ele>475</ele><time>2020-10-17T10:20:43Z</time><name>PT746</name></trkpt>
<trkpt lat="53.231407" lon="-2.002458"><ele>475</ele><time>2020-10-17T10:20:46Z</time><name>PT747</name></trkpt>
<trkpt lat="53.231415" lon="-2.002452"><ele>475</ele><time>2020-10-17T10:20:50Z</time><name>PT748</name></trkpt>
<trkpt lat="53.231428" lon="-2.002443"><ele>475</ele><time>2020-10-17T10:20:53Z</time><name>PT749</name></trkpt>
<trkpt lat="53.231458" lon="-2.002425"><ele>476</ele><time>2020-10-17T10:20:57Z</time><name>PT750</name></trkpt>
<trkpt lat="53.231480" lon="-2.002408"><ele>476</ele><time>2020-10-17T10:21:00Z</time><name>PT751</name></trkpt>
<trkpt lat="53.231513" lon="-2.002393"><ele>477</ele><time>2020-10-17T10:21:04Z</time><name>PT752</name></trkpt>
<trkpt lat="53.231539" lon="-2.002378"><ele>478</ele><time>2020-10-17T10:21:07Z</time><name>PT753</name></trkpt>
<trkpt lat="53.231564" lon="-2.002359"><ele>478</ele><time>2020-10-17T10:21:10Z</time><name>PT754</name></trkpt>
<trkpt lat="53.231594" lon="-2.002337"><ele>478</ele><time>2020-10-17T10:21:14Z</time><name>PT755</name></trkpt>
<trkpt lat="53.231625" lon="-2.002306"><ele>478</ele><time>2020-10-17T10:21:18Z</time><name>PT756</name></trkpt>
<trkpt lat="53.231651" lon="-2.002290"><ele>479</ele><time>2020-10-17T10:21:21Z</time><name>PT757</name></trkpt>
<trkpt lat="53.231673" lon="-2.002267"><ele>479</ele><time>2020-10-17T10:21:24Z</time><name>PT758</name></trkpt>
<trkpt lat="53.231695" lon="-2.002248"><ele>480</ele><time>2020-10-17T10:21:27Z</time><name>PT759</name></trkpt>
<trkpt lat="53.231726" lon="-2.002222"><ele>481</ele><time>2020-10-17T10:21:30Z</time><name>PT760</name></trkpt>
<trkpt lat="53.231761" lon="-2.002196"><ele>482</ele><time>2020-10-17T10:21:34Z</time><name>PT761</name></trkpt>
<trkpt lat="53.231786" lon="-2.002174"><ele>482</ele><time>2020-10-17T10:21:37Z</time><name>PT762</name></trkpt>
<trkpt lat="53.231821" lon="-2.002140"><ele>483</ele><time>2020-10-17T10:21:41Z</time><name>PT763</name></trkpt>
<trkpt lat="53.231849" lon="-2.002118"><ele>484</ele><time>2020-10-17T10:21:44Z</time><name>PT764</name></trkpt>
<trkpt lat="53.231882" lon="-2.002090"><ele>484</ele><time>2020-10-17T10:21:48Z</time><name>PT765</name></trkpt>
<trkpt lat="53.231905" lon="-2.002068"><ele>484</ele><time>2020-10-17T10:21:51Z</time><name>PT766</name></trkpt>
<trkpt lat="53.231930" lon="-2.002046"><ele>485</ele><time>2020-10-17T10:21:54Z</time><name>PT767</name></trkpt>
<trkpt lat="53.231964" lon="-2.002031"><ele>485</ele><time>2020-10-17T10:21:58Z</time><name>PT768</name></trkpt>
<trkpt lat="53.231986" lon="-2.002024"><ele>486</ele><time>2020-10-17T10:22:01Z</time><name>PT769</name></trkpt>
<trkpt lat="53.232012" lon="-2.002014"><ele>486</ele><time>2020-10-17T10:22:05Z</time><name>PT770</name></trkpt>
<trkpt lat="53.232038" lon="-2.001993"><ele>486</ele><time>2020-10-17T10:22:09Z</time><name>PT771</name></trkpt>
<trkpt lat="53.232054" lon="-2.001985"><ele>488</ele><time>2020-10-17T10:22:12Z</time><name>PT772</name></trkpt>
<trkpt lat="53.232085" lon="-2.001971"><ele>489</ele><time>2020-10-17T10:22:16Z</time><name>PT773</name></trkpt>
<trkpt lat="53.232114" lon="-2.001951"><ele>489</ele><time>2020-10-17T10:22:20Z</time><name>PT774</name></trkpt>
<trkpt lat="53.232132" lon="-2.001937"><ele>490</ele><time>2020-10-17T10:22:23Z</time><name>PT775</name></trkpt>
<trkpt lat="53.232151" lon="-2.001921"><ele>490</ele><time>2020-10-17T10:22:26Z</time><name>PT776</name></trkpt>
<trkpt lat="53.232172" lon="-2.001893"><ele>491</ele><time>2020-10-17T10:22:30Z</time><name>PT777</name></trkpt>
<trkpt lat="53.232195" lon="-2.001859"><ele>492</ele><time>2020-10-17T10:22:34Z</time><name>PT778</name></trkpt>
<trkpt lat="53.232216" lon="-2.001822"><ele>492</ele><time>2020-10-17T10:22:38Z</time><name>PT779</name></trkpt>
<trkpt lat="53.232240" lon="-2.001787"><ele>493</ele><time>2020-10-17T10:22:42Z</time><name>PT780</name></trkpt>
<trkpt lat="53.232256" lon="-2.001761"><ele>493</ele><time>2020-10-17T10:22:45Z</time><name>PT781</name></trkpt>
<trkpt lat="53.232281" lon="-2.001721"><ele>494</ele><time>2020-10-17T10:22:49Z</time><name>PT782</name></trkpt>
<trkpt lat="53.232298" lon="-2.001695"><ele>495</ele><time>2020-10-17T10:22:52Z</time><name>PT783</name></trkpt>
<trkpt lat="53.232323" lon="-2.001673"><ele>496</ele><time>2020-10-17T10:22:56Z</time><name>PT784</name></trkpt>
<trkpt lat="53.232338" lon="-2.001655"><ele>496</ele><time>2020-10-17T10:22:59Z</time><name>PT785</name></trkpt>
<trkpt lat="53.232356" lon="-2.001638"><ele>497</ele><time>2020-10-17T10:23:02Z</time><name>PT786</name></trkpt>
<trkpt lat="53.232375" lon="-2.001622"><ele>498</ele><time>2020-10-17T10:23:05Z</time><name>PT787</name></trkpt>
<trkpt lat="53.232399" lon="-2.001600"><ele>498</ele><time>2020-10-17T10:23:09Z</time><name>PT788</name></trkpt>
<trkpt lat="53.232422" lon="-2.001573"><ele>499</ele><time>2020-10-17T10:23:13Z</time><name>PT789</name></trkpt>
<trkpt lat="53.232450" lon="-2.001541"><ele>499</ele><time>2020-10-17T10:23:17Z</time><name>PT790</name></trkpt>
<trkpt lat="53.232485" lon="-2.001499"><ele>501</ele><time>2020-10-17T10:23:21Z</time><name>PT791</name></trkpt>
<trkpt lat="53.232517" lon="-2.001458"><ele>502</ele><time>2020-10-17T10:23:25Z</time><name>PT792</name></trkpt>
<trkpt lat="53.232534" lon="-2.001431"><ele>502</ele><time>2020-10-17T10:23:28Z</time><name>PT793</name></trkpt>
<trkpt lat="53.232549" lon="-2.001399"><ele>502</ele><time>2020-10-17T10:23:31Z</time><name>PT794</name></trkpt>
<trkpt lat="53.232573" lon="-2.001340"><ele>503</ele><time>2020-10-17T10:23:35Z</time><name>PT795</name></trkpt>
<trkpt lat="53.232586" lon="-2.001301"><ele>504</ele><time>2020-10-17T10:23:38Z</time><name>PT796</name></trkpt>
<trkpt lat="53.232600" lon="-2.001263"><ele>505</ele><time>2020-10-17T10:23:41Z</time><name>PT797</name></trkpt>
<trkpt lat="53.232611" lon="-2.001226"><ele>504</ele><time>2020-10-17T10:23:44Z</time><name>PT798</name></trkpt>
<trkpt lat="53.232626" lon="-2.001166"><ele>505</ele><time>2020-10-17T10:23:48Z</time><name>PT799</name></trkpt>
<trkpt lat="53.232639" lon="-2.001128"><ele>505</ele><time>2020-10-17T10:23:51Z</time><name>PT800</name></trkpt>
<trkpt lat="53.232647" lon="-2.001098"><ele>505</ele><time>2020-10-17T10:23:55Z</time><name>PT801</name></trkpt>
<trkpt lat="53.232658" lon="-2.001091"><ele>505</ele><time>2020-10-17T10:23:59Z</time><name>PT802</name></trkpt>
<trkpt lat="53.232671" lon="-2.001087"><ele>505</ele><time>2020-10-17T10:24:02Z</time><name>PT803</name></trkpt>
<trkpt lat="53.232688" lon="-2.001069"><ele>505</ele><time>2020-10-17T10:24:06Z</time><name>PT804</name></trkpt>
<trkpt lat="53.232725" lon="-2.001039"><ele>506</ele><time>2020-10-17T10:24:10Z</time><name>PT805</name></trkpt>
<trkpt lat="53.232751" lon="-2.001024"><ele>506</ele><time>2020-10-17T10:24:13Z</time><name>PT806</name></trkpt>
<trkpt lat="53.232774" lon="-2.001001"><ele>506</ele><time>2020-10-17T10:24:16Z</time><name>PT807</name></trkpt>
<trkpt lat="53.232810" lon="-2.000956"><ele>507</ele><time>2020-10-17T10:24:20Z</time><name>PT808</name></trkpt>
<trkpt lat="53.232843" lon="-2.000925"><ele>506</ele><time>2020-10-17T10:24:24Z</time><name>PT809</name></trkpt>
<trkpt lat="53.232858" lon="-2.000901"><ele>507</ele><time>2020-10-17T10:24:27Z</time><name>PT810</name></trkpt>
<trkpt lat="53.232851" lon="-2.000869"><ele>507</ele><time>2020-10-17T10:24:30Z</time><name>PT811</name></trkpt>
<trkpt lat="53.232840" lon="-2.000822"><ele>507</ele><time>2020-10-17T10:24:34Z</time><name>PT812</name></trkpt>
<trkpt lat="53.232832" lon="-2.000792"><ele>507</ele><time>2020-10-17T10:24:37Z</time><name>PT813</name></trkpt>
<trkpt lat="53.232826" lon="-2.000773"><ele>507</ele><time>2020-10-17T10:24:40Z</time><name>PT814</name></trkpt>
<trkpt lat="53.232805" lon="-2.000717"><ele>509</ele><time>2020-10-17T10:25:01Z</time><name>PT815</name></trkpt>
<trkpt lat="53.232793" lon="-2.000662"><ele>510</ele><time>2020-10-17T10:25:04Z</time><name>PT816</name></trkpt>
<trkpt lat="53.232791" lon="-2.000602"><ele>510</ele><time>2020-10-17T10:25:07Z</time><name>PT817</name></trkpt>
<trkpt lat="53.232798" lon="-2.000528"><ele>511</ele><time>2020-10-17T10:25:11Z</time><name>PT818</name></trkpt>
<trkpt lat="53.232826" lon="-2.000475"><ele>512</ele><time>2020-10-17T10:25:15Z</time><name>PT819</name></trkpt>
<trkpt lat="53.232866" lon="-2.000439"><ele>512</ele><time>2020-10-17T10:25:19Z</time><name>PT820</name></trkpt>
<trkpt lat="53.232894" lon="-2.000412"><ele>513</ele><time>2020-10-17T10:25:22Z</time><name>PT821</name></trkpt>
<trkpt lat="53.232935" lon="-2.000378"><ele>513</ele><time>2020-10-17T10:25:26Z</time><name>PT822</name></trkpt>
<trkpt lat="53.232972" lon="-2.000343"><ele>512</ele><time>2020-10-17T10:25:30Z</time><name>PT823</name></trkpt>
<trkpt lat="53.233000" lon="-2.000282"><ele>513</ele><time>2020-10-17T10:25:34Z</time><name>PT824</name></trkpt>
<trkpt lat="53.233035" lon="-2.000246"><ele>513</ele><time>2020-10-17T10:25:38Z</time><name>PT825</name></trkpt>
<trkpt lat="53.233063" lon="-2.000218"><ele>513</ele><time>2020-10-17T10:25:41Z</time><name>PT826</name></trkpt>
<trkpt lat="53.233103" lon="-2.000220"><ele>514</ele><time>2020-10-17T10:25:45Z</time><name>PT827</name></trkpt>
<trkpt lat="53.233143" lon="-2.000223"><ele>515</ele><time>2020-10-17T10:25:49Z</time><name>PT828</name></trkpt>
<trkpt lat="53.233175" lon="-2.000214"><ele>515</ele><time>2020-10-17T10:25:53Z</time><name>PT829</name></trkpt>
<trkpt lat="53.233204" lon="-2.000208"><ele>515</ele><time>2020-10-17T10:25:56Z</time><name>PT830</name></trkpt>
<trkpt lat="53.233243" lon="-2.000197"><ele>516</ele><time>2020-10-17T10:26:00Z</time><name>PT831</name></trkpt>
<trkpt lat="53.233271" lon="-2.000192"><ele>516</ele><time>2020-10-17T10:26:03Z</time><name>PT832</name></trkpt>
<trkpt lat="53.233299" lon="-2.000180"><ele>517</ele><time>2020-10-17T10:26:06Z</time><name>PT833</name></trkpt>
<trkpt lat="53.233334" lon="-2.000173"><ele>517</ele><time>2020-10-17T10:26:10Z</time><name>PT834</name></trkpt>
<trkpt lat="53.233372" lon="-2.000155"><ele>518</ele><time>2020-10-17T10:26:14Z</time><name>PT835</name></trkpt>
<trkpt lat="53.233407" lon="-2.000137"><ele>518</ele><time>2020-10-17T10:26:18Z</time><name>PT836</name></trkpt>
<trkpt lat="53.233438" lon="-2.000116"><ele>519</ele><time>2020-10-17T10:26:21Z</time><name>PT837</name></trkpt>
<trkpt lat="53.233475" lon="-2.000085"><ele>519</ele><time>2020-10-17T10:26:25Z</time><name>PT838</name></trkpt>
<trkpt lat="53.233503" lon="-2.000064"><ele>520</ele><time>2020-10-17T10:26:28Z</time><name>PT839</name></trkpt>
<trkpt lat="53.233534" lon="-2.000033"><ele>520</ele><time>2020-10-17T10:26:32Z</time><name>PT840</name></trkpt>
<trkpt lat="53.233561" lon="-2.000014"><ele>521</ele><time>2020-10-17T10:26:35Z</time><name>PT841</name></trkpt>
<trkpt lat="53.233589" lon="-2.000015"><ele>521</ele><time>2020-10-17T10:26:38Z</time><name>PT842</name></trkpt>
<trkpt lat="53.233613" lon="-2.000040"><ele>521</ele><time>2020-10-17T10:26:42Z</time><name>PT843</name></trkpt>
<trkpt lat="53.233629" lon="-2.000068"><ele>522</ele><time>2020-10-17T10:26:45Z</time><name>PT844</name></trkpt>
<trkpt lat="53.233657" lon="-2.000094"><ele>523</ele><time>2020-10-17T10:26:49Z</time><name>PT845</name></trkpt>
<trkpt lat="53.233683" lon="-2.000107"><ele>523</ele><time>2020-10-17T10:26:52Z</time><name>PT846</name></trkpt>
<trkpt lat="53.233712" lon="-2.000119"><ele>523</ele><time>2020-10-17T10:26:56Z</time><name>PT847</name></trkpt>
<trkpt lat="53.233738" lon="-2.000108"><ele>524</ele><time>2020-10-17T10:26:59Z</time><name>PT848</name></trkpt>
<trkpt lat="53.233770" lon="-2.000102"><ele>524</ele><time>2020-10-17T10:27:03Z</time><name>PT849</name></trkpt>
<trkpt lat="53.233799" lon="-2.000095"><ele>524</ele><time>2020-10-17T10:27:07Z</time><name>PT850</name></trkpt>
<trkpt lat="53.233826" lon="-2.000087"><ele>525</ele><time>2020-10-17T10:27:11Z</time><name>PT851</name></trkpt>
<trkpt lat="53.233857" lon="-2.000090"><ele>526</ele><time>2020-10-17T10:27:15Z</time><name>PT852</name></trkpt>
<trkpt lat="53.233882" lon="-2.000090"><ele>527</ele><time>2020-10-17T10:27:18Z</time><name>PT853</name></trkpt>
<trkpt lat="53.233904" lon="-2.000081"><ele>527</ele><time>2020-10-17T10:27:21Z</time><name>PT854</name></trkpt>
<trkpt lat="53.233908" lon="-2.000073"><ele>527</ele><time>2020-10-17T10:27:25Z</time><name>PT855</name></trkpt>
<trkpt lat="53.233911" lon="-2.000073"><ele>527</ele><time>2020-10-17T10:27:29Z</time><name>PT856</name></trkpt>
<trkpt lat="53.233907" lon="-2.000065"><ele>527</ele><time>2020-10-17T10:27:35Z</time><name>PT857</name></trkpt>
<trkpt lat="53.233906" lon="-2.000060"><ele>527</ele><time>2020-10-17T10:27:36Z</time><name>PT858</name></trkpt>
<trkpt lat="53.233907" lon="-2.000059"><ele>528</ele><time>2020-10-17T10:27:46Z</time><name>PT859</name></trkpt>
<trkpt lat="53.233906" lon="-2.000059"><ele>528</ele><time>2020-10-17T10:27:47Z</time><name>PT860</name></trkpt>
<trkpt lat="53.233904" lon="-2.000058"><ele>528</ele><time>2020-10-17T10:27:48Z</time><name>PT861</name></trkpt>
<trkpt lat="53.233897" lon="-2.000036"><ele>528</ele><time>2020-10-17T10:27:50Z</time><name>PT862</name></trkpt>
<trkpt lat="53.233892" lon="-2.000024"><ele>528</ele><time>2020-10-17T10:27:51Z</time><name>PT863</name></trkpt>
<trkpt lat="53.233884" lon="-2.000011"><ele>528</ele><time>2020-10-17T10:27:52Z</time><name>PT864</name></trkpt>
<trkpt lat="53.233881" lon="-2.000000"><ele>527</ele><time>2020-10-17T10:27:53Z</time><name>PT865</name></trkpt>
<trkpt lat="53.233875" lon="-1.999984"><ele>527</ele><time>2020-10-17T10:27:54Z</time><name>PT866</name></trkpt>
<trkpt lat="53.233870" lon="-1.999966"><ele>527</ele><time>2020-10-17T10:27:55Z</time><name>PT867</name></trkpt>
<trkpt lat="53.233864" lon="-1.999949"><ele>528</ele><time>2020-10-17T10:27:57Z</time><name>PT868</name></trkpt>
<trkpt lat="53.233859" lon="-1.999934"><ele>527</ele><time>2020-10-17T10:27:57Z</time><name>PT869</name></trkpt>
<trkpt lat="53.233853" lon="-1.999916"><ele>527</ele><time>2020-10-17T10:27:58Z</time><name>PT870</name></trkpt>
<trkpt lat="53.233845" lon="-1.999897"><ele>527</ele><time>2020-10-17T10:27:59Z</time><name>PT871</name></trkpt>
<trkpt lat="53.233836" lon="-1.999882"><ele>527</ele><time>2020-10-17T10:28:00Z</time><name>PT872</name></trkpt>
<trkpt lat="53.233829" lon="-1.999870"><ele>527</ele><time>2020-10-17T10:28:01Z</time><name>PT873</name></trkpt>
<trkpt lat="53.233822" lon="-1.999861"><ele>527</ele><time>2020-10-17T10:28:02Z</time><name>PT874</name></trkpt>
<trkpt lat="53.233817" lon="-1.999846"><ele>527</ele><time>2020-10-17T10:28:03Z</time><name>PT875</name></trkpt>
<trkpt lat="53.233811" lon="-1.999834"><ele>527</ele><time>2020-10-17T10:28:04Z</time><name>PT876</name></trkpt>
<trkpt lat="53.233806" lon="-1.999821"><ele>527</ele><time>2020-10-17T10:28:05Z</time><name>PT877</name></trkpt>
<trkpt lat="53.233801" lon="-1.999809"><ele>527</ele><time>2020-10-17T10:28:06Z</time><name>PT878</name></trkpt>
<trkpt lat="53.233796" lon="-1.999797"><ele>527</ele><time>2020-10-17T10:28:07Z</time><name>PT879</name></trkpt>
<trkpt lat="53.233789" lon="-1.999785"><ele>527</ele><time>2020-10-17T10:28:08Z</time><name>PT880</name></trkpt>
<trkpt lat="53.233783" lon="-1.999774"><ele>527</ele><time>2020-10-17T10:28:09Z</time><name>PT881</name></trkpt>
<trkpt lat="53.233777" lon="-1.999764"><ele>526</ele><time>2020-10-17T10:28:10Z</time><name>PT882</name></trkpt>
<trkpt lat="53.233776" lon="-1.999757"><ele>526</ele><time>2020-10-17T10:28:11Z</time><name>PT883</name></trkpt>
<trkpt lat="53.233773" lon="-1.999747"><ele>526</ele><time>2020-10-17T10:28:12Z</time><name>PT884</name></trkpt>
<trkpt lat="53.233768" lon="-1.999735"><ele>526</ele><time>2020-10-17T10:28:13Z</time><name>PT885</name></trkpt>
<trkpt lat="53.233761" lon="-1.999723"><ele>526</ele><time>2020-10-17T10:28:14Z</time><name>PT886</name></trkpt>
<trkpt lat="53.233755" lon="-1.999706"><ele>526</ele><time>2020-10-17T10:28:15Z</time><name>PT887</name></trkpt>
<trkpt lat="53.233748" lon="-1.999693"><ele>527</ele><time>2020-10-17T10:28:16Z</time><name>PT888</name></trkpt>
<trkpt lat="53.233742" lon="-1.999679"><ele>526</ele><time>2020-10-17T10:28:17Z</time><name>PT889</name></trkpt>
<trkpt lat="53.233734" lon="-1.999666"><ele>526</ele><time>2020-10-17T10:28:18Z</time><name>PT890</name></trkpt>
<trkpt lat="53.233728" lon="-1.999654"><ele>526</ele><time>2020-10-17T10:28:19Z</time><name>PT891</name></trkpt>
<trkpt lat="53.233721" lon="-1.999641"><ele>526</ele><time>2020-10-17T10:28:20Z</time><name>PT892</name></trkpt>
<trkpt lat="53.233720" lon="-1.999624"><ele>525</ele><time>2020-10-17T10:28:21Z</time><name>PT893</name></trkpt>
<trkpt lat="53.233715" lon="-1.999609"><ele>525</ele><time>2020-10-17T10:28:22Z</time><name>PT894</name></trkpt>
<trkpt lat="53.233707" lon="-1.999597"><ele>525</ele><time>2020-10-17T10:28:23Z</time><name>PT895</name></trkpt>
<trkpt lat="53.233700" lon="-1.999585"><ele>525</ele><time>2020-10-17T10:28:24Z</time><name>PT896</name></trkpt>
<trkpt lat="53.233693" lon="-1.999570"><ele>525</ele><time>2020-10-17T10:28:25Z</time><name>PT897</name></trkpt>
<trkpt lat="53.233684" lon="-1.999557"><ele>525</ele><time>2020-10-17T10:28:26Z</time><name>PT898</name></trkpt>
<trkpt lat="53.233677" lon="-1.999542"><ele>525</ele><time>2020-10-17T10:28:27Z</time><name>PT899</name></trkpt>
<trkpt lat="53.233670" lon="-1.999530"><ele>525</ele><time>2020-10-17T10:28:28Z</time><name>PT900</name></trkpt>
<trkpt lat="53.233663" lon="-1.999516"><ele>525</ele><time>2020-10-17T10:28:29Z</time><name>PT901</name></trkpt>
<trkpt lat="53.233656" lon="-1.999503"><ele>525</ele><time>2020-10-17T10:28:30Z</time><name>PT902</name></trkpt>
<trkpt lat="53.233648" lon="-1.999493"><ele>525</ele><time>2020-10-17T10:28:31Z</time><name>PT903</name></trkpt>
<trkpt lat="53.233640" lon="-1.999483"><ele>525</ele><time>2020-10-17T10:28:32Z</time><name>PT904</name></trkpt>
<trkpt lat="53.233635" lon="-1.999469"><ele>525</ele><time>2020-10-17T10:28:33Z</time><name>PT905</name></trkpt>
<trkpt lat="53.233629" lon="-1.999454"><ele>525</ele><time>2020-10-17T10:28:34Z</time><name>PT906</name></trkpt>
<trkpt lat="53.233622" lon="-1.999442"><ele>525</ele><time>2020-10-17T10:28:35Z</time><name>PT907</name></trkpt>
<trkpt lat="53.233617" lon="-1.999428"><ele>525</ele><time>2020-10-17T10:28:36Z</time><name>PT908</name></trkpt>
<trkpt lat="53.233611" lon="-1.999413"><ele>525</ele><time>2020-10-17T10:28:37Z</time><name>PT909</name></trkpt>
<trkpt lat="53.233604" lon="-1.999395"><ele>525</ele><time>2020-10-17T10:28:38Z</time><name>PT910</name></trkpt>
<trkpt lat="53.233597" lon="-1.999380"><ele>525</ele><time>2020-10-17T10:28:39Z</time><name>PT911</name></trkpt>
<trkpt lat="53.233588" lon="-1.999365"><ele>525</ele><time>2020-10-17T10:28:40Z</time><name>PT912</name></trkpt>
<trkpt lat="53.233580" lon="-1.999351"><ele>525</ele><time>2020-10-17T10:28:41Z</time><name>PT913</name></trkpt>
<trkpt lat="53.233575" lon="-1.999333"><ele>525</ele><time>2020-10-17T10:28:42Z</time><name>PT914</name></trkpt>
<trkpt lat="53.233567" lon="-1.999315"><ele>524</ele><time>2020-10-17T10:28:43Z</time><name>PT915</name></trkpt>
<trkpt lat="53.233561" lon="-1.999304"><ele>525</ele><time>2020-10-17T10:28:44Z</time><name>PT916</name></trkpt>
<trkpt lat="53.233554" lon="-1.999289"><ele>524</ele><time>2020-10-17T10:28:45Z</time><name>PT917</name></trkpt>
<trkpt lat="53.233546" lon="-1.999273"><ele>525</ele><time>2020-10-17T10:28:46Z</time><name>PT918</name></trkpt>
<trkpt lat="53.233540" lon="-1.999256"><ele>525</ele><time>2020-10-17T10:28:47Z</time><name>PT919</name></trkpt>
<trkpt lat="53.233533" lon="-1.999241"><ele>524</ele><time>2020-10-17T10:28:48Z</time><name>PT920</name></trkpt>
<trkpt lat="53.233525" lon="-1.999229"><ele>524</ele><time>2020-10-17T10:28:49Z</time><name>PT921</name></trkpt>
<trkpt lat="53.233517" lon="-1.999214"><ele>524</ele><time>2020-10-17T10:28:50Z</time><name>PT922</name></trkpt>
<trkpt lat="53.233508" lon="-1.999197"><ele>524</ele><time>2020-10-17T10:28:51Z</time><name>PT923</name></trkpt>
<trkpt lat="53.233500" lon="-1.999181"><ele>524</ele><time>2020-10-17T10:28:52Z</time><name>PT924</name></trkpt>
<trkpt lat="53.233492" lon="-1.999164"><ele>525</ele><time>2020-10-17T10:28:53Z</time><name>PT925</name></trkpt>
<trkpt lat="53.233485" lon="-1.999150"><ele>525</ele><time>2020-10-17T10:28:54Z</time><name>PT926</name></trkpt>
<trkpt lat="53.233477" lon="-1.999138"><ele>525</ele><time>2020-10-17T10:28:55Z</time><name>PT927</name></trkpt>
<trkpt lat="53.233471" lon="-1.999126"><ele>524</ele><time>2020-10-17T10:28:56Z</time><name>PT928</name></trkpt>
<trkpt lat="53.233464" lon="-1.999113"><ele>524</ele><time>2020-10-17T10:28:57Z</time><name>PT929</name></trkpt>
<trkpt lat="53.233455" lon="-1.999100"><ele>523</ele><time>2020-10-17T10:28:58Z</time><name>PT930</name></trkpt>
<trkpt lat="53.233446" lon="-1.999084"><ele>523</ele><time>2020-10-17T10:28:59Z</time><name>PT931</name></trkpt>
<trkpt lat="53.233439" lon="-1.999070"><ele>523</ele><time>2020-10-17T10:29:00Z</time><name>PT932</name></trkpt>
<trkpt lat="53.233433" lon="-1.999054"><ele>523</ele><time>2020-10-17T10:29:01Z</time><name>PT933</name></trkpt>
<trkpt lat="53.233427" lon="-1.999036"><ele>523</ele><time>2020-10-17T10:29:02Z</time><name>PT934</name></trkpt>
<trkpt lat="53.233419" lon="-1.999023"><ele>523</ele><time>2020-10-17T10:29:03Z</time><name>PT935</name></trkpt>
<trkpt lat="53.233410" lon="-1.999013"><ele>523</ele><time>2020-10-17T10:29:04Z</time><name>PT936</name></trkpt>
<trkpt lat="53.233401" lon="-1.998999"><ele>523</ele><time>2020-10-17T10:29:05Z</time><name>PT937</name></trkpt>
<trkpt lat="53.233394" lon="-1.998984"><ele>524</ele><time>2020-10-17T10:29:06Z</time><name>PT938</name></trkpt>
<trkpt lat="53.233386" lon="-1.998966"><ele>523</ele><time>2020-10-17T10:29:07Z</time><name>PT939</name></trkpt>
<trkpt lat="53.233379" lon="-1.998953"><ele>523</ele><time>2020-10-17T10:29:08Z</time><name>PT940</name></trkpt>
<trkpt lat="53.233372" lon="-1.998937"><ele>523</ele><time>2020-10-17T10:29:09Z</time><name>PT941</name></trkpt>
<trkpt lat="53.233365" lon="-1.998923"><ele>523</ele><time>2020-10-17T10:29:10Z</time><name>PT942</name></trkpt>
<trkpt lat="53.233358" lon="-1.998910"><ele>523</ele><time>2020-10-17T10:29:11Z</time><name>PT943</name></trkpt>
<trkpt lat="53.233351" lon="-1.998893"><ele>523</ele><time>2020-10-17T10:29:12Z</time><name>PT944</name></trkpt>
<trkpt lat="53.233346" lon="-1.998877"><ele>523</ele><time>2020-10-17T10:29:13Z</time><name>PT945</name></trkpt>
<trkpt lat="53.233339" lon="-1.998866"><ele>525</ele><time>2020-10-17T10:29:14Z</time><name>PT946</name></trkpt>
<trkpt lat="53.233332" lon="-1.998852"><ele>525</ele><time>2020-10-17T10:29:15Z</time><name>PT947</name></trkpt>
<trkpt lat="53.233326" lon="-1.998837"><ele>525</ele><time>2020-10-17T10:29:16Z</time><name>PT948</name></trkpt>
<trkpt lat="53.233319" lon="-1.998820"><ele>524</ele><time>2020-10-17T10:29:17Z</time><name>PT949</name></trkpt>
<trkpt lat="53.233315" lon="-1.998798"><ele>525</ele><time>2020-10-17T10:29:18Z</time><name>PT950</name></trkpt>
<trkpt lat="53.233309" lon="-1.998783"><ele>525</ele><time>2020-10-17T10:29:19Z</time><name>PT951</name></trkpt>
<trkpt lat="53.233302" lon="-1.998772"><ele>525</ele><time>2020-10-17T10:29:20Z</time><name>PT952</name></trkpt>
<trkpt lat="53.233295" lon="-1.998759"><ele>525</ele><time>2020-10-17T10:29:21Z</time><name>PT953</name></trkpt>
<trkpt lat="53.233286" lon="-1.998747"><ele>524</ele><time>2020-10-17T10:29:22Z</time><name>PT954</name></trkpt>
<trkpt lat="53.233278" lon="-1.998731"><ele>524</ele><time>2020-10-17T10:29:23Z</time><name>PT955</name></trkpt>
<trkpt lat="53.233271" lon="-1.998714"><ele>524</ele><time>2020-10-17T10:29:24Z</time><name>PT956</name></trkpt>
<trkpt lat="53.233264" lon="-1.998698"><ele>525</ele><time>2020-10-17T10:29:25Z</time><name>PT957</name></trkpt>
<trkpt lat="53.233258" lon="-1.998687"><ele>525</ele><time>2020-10-17T10:29:26Z</time><name>PT958</name></trkpt>
<trkpt lat="53.233250" lon="-1.998674"><ele>524</ele><time>2020-10-17T10:29:27Z</time><name>PT959</name></trkpt>
<trkpt lat="53.233245" lon="-1.998658"><ele>524</ele><time>2020-10-17T10:29:28Z</time><name>PT960</name></trkpt>
<trkpt lat="53.233236" lon="-1.998643"><ele>524</ele><time>2020-10-17T10:29:29Z</time><name>PT961</name></trkpt>
<trkpt lat="53.233227" lon="-1.998627"><ele>524</ele><time>2020-10-17T10:29:30Z</time><name>PT962</name></trkpt>
<trkpt lat="53.233216" lon="-1.998604"><ele>524</ele><time>2020-10-17T10:29:31Z</time><name>PT963</name></trkpt>
<trkpt lat="53.233208" lon="-1.998588"><ele>524</ele><time>2020-10-17T10:29:32Z</time><name>PT964</name></trkpt>
<trkpt lat="53.233201" lon="-1.998573"><ele>524</ele><time>2020-10-17T10:29:33Z</time><name>PT965</name></trkpt>
<trkpt lat="53.233194" lon="-1.998563"><ele>524</ele><time>2020-10-17T10:29:34Z</time><name>PT966</name></trkpt>
<trkpt lat="53.233188" lon="-1.998549"><ele>524</ele><time>2020-10-17T10:29:35Z</time><name>PT967</name></trkpt>
<trkpt lat="53.233182" lon="-1.998536"><ele>524</ele><time>2020-10-17T10:29:36Z</time><name>PT968</name></trkpt>
<trkpt lat="53.233175" lon="-1.998523"><ele>524</ele><time>2020-10-17T10:29:37Z</time><name>PT969</name></trkpt>
<trkpt lat="53.233166" lon="-1.998509"><ele>524</ele><time>2020-10-17T10:29:38Z</time><name>PT970</name></trkpt>
<trkpt lat="53.233159" lon="-1.998494"><ele>523</ele><time>2020-10-17T10:29:39Z</time><name>PT971</name></trkpt>
<trkpt lat="53.233153" lon="-1.998481"><ele>523</ele><time>2020-10-17T10:29:40Z</time><name>PT972</name></trkpt>
<trkpt lat="53.233147" lon="-1.998468"><ele>523</ele><time>2020-10-17T10:29:41Z</time><name>PT973</name></trkpt>
<trkpt lat="53.233140" lon="-1.998457"><ele>523</ele><time>2020-10-17T10:29:42Z</time><name>PT974</name></trkpt>
<trkpt lat="53.233133" lon="-1.998444"><ele>523</ele><time>2020-10-17T10:29:43Z</time><name>PT975</name></trkpt>
<trkpt lat="53.233126" lon="-1.998430"><ele>523</ele><time>2020-10-17T10:29:44Z</time><name>PT976</name></trkpt>
<trkpt lat="53.233119" lon="-1.998414"><ele>523</ele><time>2020-10-17T10:29:45Z</time><name>PT977</name></trkpt>
<trkpt lat="53.233110" lon="-1.998397"><ele>523</ele><time>2020-10-17T10:29:46Z</time><name>PT978</name></trkpt>
<trkpt lat="53.233101" lon="-1.998383"><ele>523</ele><time>2020-10-17T10:29:47Z</time><name>PT979</name></trkpt>
<trkpt lat="53.233095" lon="-1.998373"><ele>523</ele><time>2020-10-17T10:29:48Z</time><name>PT980</name></trkpt>
<trkpt lat="53.233089" lon="-1.998359"><ele>523</ele><time>2020-10-17T10:29:49Z</time><name>PT981</name></trkpt>
<trkpt lat="53.233082" lon="-1.998345"><ele>523</ele><time>2020-10-17T10:29:50Z</time><name>PT982</name></trkpt>
<trkpt lat="53.233076" lon="-1.998331"><ele>523</ele><time>2020-10-17T10:29:51Z</time><name>PT983</name></trkpt>
<trkpt lat="53.233068" lon="-1.998315"><ele>523</ele><time>2020-10-17T10:29:52Z</time><name>PT984</name></trkpt>
<trkpt lat="53.233061" lon="-1.998302"><ele>523</ele><time>2020-10-17T10:29:53Z</time><name>PT985</name></trkpt>
<trkpt lat="53.233053" lon="-1.998285"><ele>523</ele><time>2020-10-17T10:29:54Z</time><name>PT986</name></trkpt>
<trkpt lat="53.233047" lon="-1.998263"><ele>523</ele><time>2020-10-17T10:29:55Z</time><name>PT987</name></trkpt>
<trkpt lat="53.233042" lon="-1.998245"><ele>523</ele><time>2020-10-17T10:29:56Z</time><name>PT988</name></trkpt>
<trkpt lat="53.233036" lon="-1.998228"><ele>523</ele><time>2020-10-17T10:29:57Z</time><name>PT989</name></trkpt>
<trkpt lat="53.233028" lon="-1.998215"><ele>523</ele><time>2020-10-17T10:29:58Z</time><name>PT990</name></trkpt>
<trkpt lat="53.233022" lon="-1.998200"><ele>523</ele><time>2020-10-17T10:29:59Z</time><name>PT991</name></trkpt>
<trkpt lat="53.233016" lon="-1.998185"><ele>523</ele><time>2020-10-17T10:30:00Z</time><name>PT992</name></trkpt>
<trkpt lat="53.233011" lon="-1.998167"><ele>523</ele><time>2020-10-17T10:30:01Z</time><name>PT993</name></trkpt>
<trkpt lat="53.233005" lon="-1.998154"><ele>523</ele><time>2020-10-17T10:30:02Z</time><name>PT994</name></trkpt>
<trkpt lat="53.232994" lon="-1.998140"><ele>524</ele><time>2020-10-17T10:30:03Z</time><name>PT995</name></trkpt>
<trkpt lat="53.232988" lon="-1.998129"><ele>524</ele><time>2020-10-17T10:30:04Z</time><name>PT996</name></trkpt>
<trkpt lat="53.232983" lon="-1.998112"><ele>524</ele><time>2020-10-17T10:30:05Z</time><name>PT997</name></trkpt>
<trkpt lat="53.232975" lon="-1.998094"><ele>524</ele><time>2020-10-17T10:30:06Z</time><name>PT998</name></trkpt>
<trkpt lat="53.232969" lon="-1.998078"><ele>524</ele><time>2020-10-17T10:30:07Z</time><name>PT999</name></trkpt>
<trkpt lat="53.232960" lon="-1.998062"><ele>524</ele><time>2020-10-17T10:30:08Z</time><name>PT1000</name></trkpt>
<trkpt lat="53.232952" lon="-1.998044"><ele>524</ele><time>2020-10-17T10:30:09Z</time><name>PT1001</name></trkpt>
<trkpt lat="53.232944" lon="-1.998030"><ele>524</ele><time>2020-10-17T10:30:10Z</time><name>PT1002</name></trkpt>
<trkpt lat="53.232935" lon="-1.998014"><ele>524</ele><time>2020-10-17T10:30:11Z</time><name>PT1003</name></trkpt>
<trkpt lat="53.232928" lon="-1.998000"><ele>524</ele><time>2020-10-17T10:30:12Z</time><name>PT1004</name></trkpt>
<trkpt lat="53.232921" lon="-1.997986"><ele>524</ele><time>2020-10-17T10:30:13Z</time><name>PT1005</name></trkpt>
<trkpt lat="53.232911" lon="-1.997969"><ele>524</ele><time>2020-10-17T10:30:14Z</time><name>PT1006</name></trkpt>
<trkpt lat="53.232903" lon="-1.997956"><ele>524</ele><time>2020-10-17T10:30:15Z</time><name>PT1007</name></trkpt>
<trkpt lat="53.232896" lon="-1.997940"><ele>524</ele><time>2020-10-17T10:30:16Z</time><name>PT1008</name></trkpt>
<trkpt lat="53.232888" lon="-1.997926"><ele>524</ele><time>2020-10-17T10:30:17Z</time><name>PT1009</name></trkpt>
<trkpt lat="53.232880" lon="-1.997911"><ele>524</ele><time>2020-10-17T10:30:18Z</time><name>PT1010</name></trkpt>
<trkpt lat="53.232872" lon="-1.997898"><ele>524</ele><time>2020-10-17T10:30:19Z</time><name>PT1011</name></trkpt>
<trkpt lat="53.232865" lon="-1.997886"><ele>523</ele><time>2020-10-17T10:30:20Z</time><name>PT1012</name></trkpt>
<trkpt lat="53.232858" lon="-1.997871"><ele>523</ele><time>2020-10-17T10:30:21Z</time><name>PT1013</name></trkpt>
<trkpt lat="53.232850" lon="-1.997856"><ele>523</ele><time>2020-10-17T10:30:22Z</time><name>PT1014</name></trkpt>
<trkpt lat="53.232840" lon="-1.997843"><ele>523</ele><time>2020-10-17T10:30:23Z</time><name>PT1015</name></trkpt>
<trkpt lat="53.232831" lon="-1.997828"><ele>523</ele><time>2020-10-17T10:30:24Z</time><name>PT1016</name></trkpt>
<trkpt lat="53.232823" lon="-1.997813"><ele>523</ele><time>2020-10-17T10:30:25Z</time><name>PT1017</name></trkpt>
<trkpt lat="53.232815" lon="-1.997797"><ele>523</ele><time>2020-10-17T10:30:26Z</time><name>PT1018</name></trkpt>
<trkpt lat="53.232807" lon="-1.997783"><ele>523</ele><time>2020-10-17T10:30:27Z</time><name>PT1019</name></trkpt>
<trkpt lat="53.232799" lon="-1.997766"><ele>523</ele><time>2020-10-17T10:30:28Z</time><name>PT1020</name></trkpt>
<trkpt lat="53.232791" lon="-1.997751"><ele>523</ele><time>2020-10-17T10:30:29Z</time><name>PT1021</name></trkpt>
<trkpt lat="53.232784" lon="-1.997736"><ele>523</ele><time>2020-10-17T10:30:30Z</time><name>PT1022</name></trkpt>
<trkpt lat="53.232778" lon="-1.997722"><ele>523</ele><time>2020-10-17T10:30:31Z</time><name>PT1023</name></trkpt>
<trkpt lat="53.232772" lon="-1.997709"><ele>523</ele><time>2020-10-17T10:30:32Z</time><name>PT1024</name></trkpt>
<trkpt lat="53.232764" lon="-1.997696"><ele>523</ele><time>2020-10-17T10:30:33Z</time><name>PT1025</name></trkpt>
<trkpt lat="53.232755" lon="-1.997680"><ele>523</ele><time>2020-10-17T10:30:34Z</time><name>PT1026</name></trkpt>
<trkpt lat="53.232747" lon="-1.997664"><ele>523</ele><time>2020-10-17T10:30:35Z</time><name>PT1027</name></trkpt>
<trkpt lat="53.232739" lon="-1.997646"><ele>523</ele><time>2020-10-17T10:30:36Z</time><name>PT1028</name></trkpt>
<trkpt lat="53.232733" lon="-1.997633"><ele>523</ele><time>2020-10-17T10:30:37Z</time><name>PT1029</name></trkpt>
<trkpt lat="53.232726" lon="-1.997620"><ele>523</ele><time>2020-10-17T10:30:39Z</time><name>PT1030</name></trkpt>
<trkpt lat="53.232717" lon="-1.997603"><ele>523</ele><time>2020-10-17T10:30:39Z</time><name>PT1031</name></trkpt>
<trkpt lat="53.232694" lon="-1.997560"><ele>523</ele><time>2020-10-17T10:30:42Z</time><name>PT1032</name></trkpt>
<trkpt lat="53.232662" lon="-1.997502"><ele>523</ele><time>2020-10-17T10:30:46Z</time><name>PT1033</name></trkpt>
<trkpt lat="53.232634" lon="-1.997463"><ele>523</ele><time>2020-10-17T10:30:49Z</time><name>PT1034</name></trkpt>
<trkpt lat="53.232601" lon="-1.997401"><ele>523</ele><time>2020-10-17T10:30:53Z</time><name>PT1035</name></trkpt>
<trkpt lat="53.232572" lon="-1.997341"><ele>523</ele><time>2020-10-17T10:30:57Z</time><name>PT1036</name></trkpt>
<trkpt lat="53.232539" lon="-1.997289"><ele>523</ele><time>2020-10-17T10:31:01Z</time><name>PT1037</name></trkpt>
<trkpt lat="53.232516" lon="-1.997249"><ele>523</ele><time>2020-10-17T10:31:04Z</time><name>PT1038</name></trkpt>
<trkpt lat="53.232481" lon="-1.997195"><ele>523</ele><time>2020-10-17T10:31:08Z</time><name>PT1039</name></trkpt>
<trkpt lat="53.232459" lon="-1.997146"><ele>522</ele><time>2020-10-17T10:31:11Z</time><name>PT1040</name></trkpt>
<trkpt lat="53.232432" lon="-1.997098"><ele>523</ele><time>2020-10-17T10:31:15Z</time><name>PT1041</name></trkpt>
<trkpt lat="53.232407" lon="-1.997059"><ele>523</ele><time>2020-10-17T10:31:18Z</time><name>PT1042</name></trkpt>
<trkpt lat="53.232370" lon="-1.996997"><ele>522</ele><time>2020-10-17T10:31:22Z</time><name>PT1043</name></trkpt>
<trkpt lat="53.232333" lon="-1.996945"><ele>522</ele><time>2020-10-17T10:31:26Z</time><name>PT1044</name></trkpt>
<trkpt lat="53.232307" lon="-1.996905"><ele>522</ele><time>2020-10-17T10:31:29Z</time><name>PT1045</name></trkpt>
<trkpt lat="53.232268" lon="-1.996848"><ele>522</ele><time>2020-10-17T10:31:33Z</time><name>PT1046</name></trkpt>
<trkpt lat="53.232238" lon="-1.996812"><ele>522</ele><time>2020-10-17T10:31:36Z</time><name>PT1047</name></trkpt>
<trkpt lat="53.232210" lon="-1.996774"><ele>522</ele><time>2020-10-17T10:31:39Z</time><name>PT1048</name></trkpt>
<trkpt lat="53.232184" lon="-1.996731"><ele>521</ele><time>2020-10-17T10:31:42Z</time><name>PT1049</name></trkpt>
<trkpt lat="53.232156" lon="-1.996688"><ele>521</ele><time>2020-10-17T10:31:45Z</time><name>PT1050</name></trkpt>
<trkpt lat="53.232123" lon="-1.996635"><ele>521</ele><time>2020-10-17T10:31:49Z</time><name>PT1051</name></trkpt>
<trkpt lat="53.232092" lon="-1.996596"><ele>521</ele><time>2020-10-17T10:31:52Z</time><name>PT1052</name></trkpt>
<trkpt lat="53.232065" lon="-1.996558"><ele>522</ele><time>2020-10-17T10:31:55Z</time><name>PT1053</name></trkpt>
<trkpt lat="53.232025" lon="-1.996502"><ele>521</ele><time>2020-10-17T10:31:59Z</time><name>PT1054</name></trkpt>
<trkpt lat="53.231985" lon="-1.996454"><ele>521</ele><time>2020-10-17T10:32:03Z</time><name>PT1055</name></trkpt>
<trkpt lat="53.231954" lon="-1.996422"><ele>521</ele><time>2020-10-17T10:32:06Z</time><name>PT1056</name></trkpt>
<trkpt lat="53.231925" lon="-1.996386"><ele>521</ele><time>2020-10-17T10:32:09Z</time><name>PT1057</name></trkpt>
<trkpt lat="53.231897" lon="-1.996353"><ele>521</ele><time>2020-10-17T10:32:12Z</time><name>PT1058</name></trkpt>
<trkpt lat="53.231855" lon="-1.996307"><ele>520</ele><time>2020-10-17T10:32:16Z</time><name>PT1059</name></trkpt>
<trkpt lat="53.231825" lon="-1.996269"><ele>520</ele><time>2020-10-17T10:32:19Z</time><name>PT1060</name></trkpt>
<trkpt lat="53.231784" lon="-1.996230"><ele>520</ele><time>2020-10-17T10:32:23Z</time><name>PT1061</name></trkpt>
<trkpt lat="53.231753" lon="-1.996195"><ele>520</ele><time>2020-10-17T10:32:26Z</time><name>PT1062</name></trkpt>
<trkpt lat="53.231722" lon="-1.996164"><ele>520</ele><time>2020-10-17T10:32:29Z</time><name>PT1063</name></trkpt>
<trkpt lat="53.231688" lon="-1.996122"><ele>520</ele><time>2020-10-17T10:32:32Z</time><name>PT1064</name></trkpt>
<trkpt lat="53.231648" lon="-1.996073"><ele>521</ele><time>2020-10-17T10:32:36Z</time><name>PT1065</name></trkpt>
<trkpt lat="53.231621" lon="-1.996040"><ele>521</ele><time>2020-10-17T10:32:39Z</time><name>PT1066</name></trkpt>
<trkpt lat="53.231582" lon="-1.995995"><ele>521</ele><time>2020-10-17T10:32:43Z</time><name>PT1067</name></trkpt>
<trkpt lat="53.231550" lon="-1.995960"><ele>521</ele><time>2020-10-17T10:32:46Z</time><name>PT1068</name></trkpt>
<trkpt lat="53.231511" lon="-1.995914"><ele>521</ele><time>2020-10-17T10:32:50Z</time><name>PT1069</name></trkpt>
<trkpt lat="53.231469" lon="-1.995872"><ele>521</ele><time>2020-10-17T10:32:54Z</time><name>PT1070</name></trkpt>
<trkpt lat="53.231430" lon="-1.995839"><ele>521</ele><time>2020-10-17T10:32:58Z</time><name>PT1071</name></trkpt>
<trkpt lat="53.231399" lon="-1.995808"><ele>521</ele><time>2020-10-17T10:33:01Z</time><name>PT1072</name></trkpt>
<trkpt lat="53.231355" lon="-1.995764"><ele>520</ele><time>2020-10-17T10:33:05Z</time><name>PT1073</name></trkpt>
<trkpt lat="53.231323" lon="-1.995728"><ele>520</ele><time>2020-10-17T10:33:08Z</time><name>PT1074</name></trkpt>
<trkpt lat="53.231282" lon="-1.995686"><ele>520</ele><time>2020-10-17T10:33:12Z</time><name>PT1075</name></trkpt>
<trkpt lat="53.231240" lon="-1.995645"><ele>520</ele><time>2020-10-17T10:33:16Z</time><name>PT1076</name></trkpt>
<trkpt lat="53.231206" lon="-1.995598"><ele>520</ele><time>2020-10-17T10:33:20Z</time><name>PT1077</name></trkpt>
<trkpt lat="53.231171" lon="-1.995549"><ele>519</ele><time>2020-10-17T10:33:24Z</time><name>PT1078</name></trkpt>
<trkpt lat="53.231140" lon="-1.995514"><ele>519</ele><time>2020-10-17T10:33:27Z</time><name>PT1079</name></trkpt>
<trkpt lat="53.231107" lon="-1.995479"><ele>519</ele><time>2020-10-17T10:33:30Z</time><name>PT1080</name></trkpt>
<trkpt lat="53.231070" lon="-1.995437"><ele>519</ele><time>2020-10-17T10:33:34Z</time><name>PT1081</name></trkpt>
<trkpt lat="53.231039" lon="-1.995405"><ele>519</ele><time>2020-10-17T10:33:37Z</time><name>PT1082</name></trkpt>
<trkpt lat="53.231009" lon="-1.995372"><ele>519</ele><time>2020-10-17T10:33:40Z</time><name>PT1083</name></trkpt>
<trkpt lat="53.230981" lon="-1.995336"><ele>519</ele><time>2020-10-17T10:33:43Z</time><name>PT1084</name></trkpt>
<trkpt lat="53.230943" lon="-1.995288"><ele>519</ele><time>2020-10-17T10:33:47Z</time><name>PT1085</name></trkpt>
<trkpt lat="53.230902" lon="-1.995239"><ele>519</ele><time>2020-10-17T10:33:51Z</time><name>PT1086</name></trkpt>
<trkpt lat="53.230862" lon="-1.995187"><ele>519</ele><time>2020-10-17T10:33:55Z</time><name>PT1087</name></trkpt>
<trkpt lat="53.230822" lon="-1.995135"><ele>518</ele><time>2020-10-17T10:33:59Z</time><name>PT1088</name></trkpt>
<trkpt lat="53.230781" lon="-1.995077"><ele>517</ele><time>2020-10-17T10:34:03Z</time><name>PT1089</name></trkpt>
<trkpt lat="53.230753" lon="-1.995039"><ele>517</ele><time>2020-10-17T10:34:06Z</time><name>PT1090</name></trkpt>
<trkpt lat="53.230712" lon="-1.994978"><ele>517</ele><time>2020-10-17T10:34:10Z</time><name>PT1091</name></trkpt>
<trkpt lat="53.230687" lon="-1.994931"><ele>517</ele><time>2020-10-17T10:34:13Z</time><name>PT1092</name></trkpt>
<trkpt lat="53.230651" lon="-1.994874"><ele>517</ele><time>2020-10-17T10:34:17Z</time><name>PT1093</name></trkpt>
<trkpt lat="53.230615" lon="-1.994808"><ele>517</ele><time>2020-10-17T10:34:21Z</time><name>PT1094</name></trkpt>
<trkpt lat="53.230586" lon="-1.994762"><ele>516</ele><time>2020-10-17T10:34:24Z</time><name>PT1095</name></trkpt>
<trkpt lat="53.230549" lon="-1.994707"><ele>516</ele><time>2020-10-17T10:34:28Z</time><name>PT1096</name></trkpt>
<trkpt lat="53.230526" lon="-1.994658"><ele>516</ele><time>2020-10-17T10:34:31Z</time><name>PT1097</name></trkpt>
<trkpt lat="53.230497" lon="-1.994606"><ele>516</ele><time>2020-10-17T10:34:34Z</time><name>PT1098</name></trkpt>
<trkpt lat="53.230462" lon="-1.994544"><ele>516</ele><time>2020-10-17T10:34:38Z</time><name>PT1099</name></trkpt>
<trkpt lat="53.230427" lon="-1.994483"><ele>516</ele><time>2020-10-17T10:34:42Z</time><name>PT1100</name></trkpt>
<trkpt lat="53.230401" lon="-1.994441"><ele>517</ele><time>2020-10-17T10:34:45Z</time><name>PT1101</name></trkpt>
<trkpt lat="53.230366" lon="-1.994373"><ele>517</ele><time>2020-10-17T10:34:49Z</time><name>PT1102</name></trkpt>
<trkpt lat="53.230328" lon="-1.994299"><ele>517</ele><time>2020-10-17T10:34:53Z</time><name>PT1103</name></trkpt>
<trkpt lat="53.230296" lon="-1.994237"><ele>517</ele><time>2020-10-17T10:34:57Z</time><name>PT1104</name></trkpt>
<trkpt lat="53.230268" lon="-1.994185"><ele>516</ele><time>2020-10-17T10:35:00Z</time><name>PT1105</name></trkpt>
<trkpt lat="53.230236" lon="-1.994120"><ele>516</ele><time>2020-10-17T10:35:04Z</time><name>PT1106</name></trkpt>
<trkpt lat="53.230208" lon="-1.994053"><ele>515</ele><time>2020-10-17T10:35:08Z</time><name>PT1107</name></trkpt>
<trkpt lat="53.230182" lon="-1.993984"><ele>515</ele><time>2020-10-17T10:35:12Z</time><name>PT1108</name></trkpt>
<trkpt lat="53.230161" lon="-1.993934"><ele>514</ele><time>2020-10-17T10:35:15Z</time><name>PT1109</name></trkpt>
<trkpt lat="53.230134" lon="-1.993870"><ele>514</ele><time>2020-10-17T10:35:19Z</time><name>PT1110</name></trkpt>
<trkpt lat="53.230115" lon="-1.993819"><ele>512</ele><time>2020-10-17T10:35:22Z</time><name>PT1111</name></trkpt>
<trkpt lat="53.230101" lon="-1.993762"><ele>512</ele><time>2020-10-17T10:35:25Z</time><name>PT1112</name></trkpt>
<trkpt lat="53.230087" lon="-1.993706"><ele>512</ele><time>2020-10-17T10:35:28Z</time><name>PT1113</name></trkpt>
<trkpt lat="53.230065" lon="-1.993633"><ele>512</ele><time>2020-10-17T10:35:33Z</time><name>PT1114</name></trkpt>
<trkpt lat="53.230042" lon="-1.993553"><ele>512</ele><time>2020-10-17T10:35:36Z</time><name>PT1115</name></trkpt>
<trkpt lat="53.230017" lon="-1.993495"><ele>511</ele><time>2020-10-17T10:35:40Z</time><name>PT1116</name></trkpt>
<trkpt lat="53.230003" lon="-1.993446"><ele>512</ele><time>2020-10-17T10:35:43Z</time><name>PT1117</name></trkpt>
<trkpt lat="53.229983" lon="-1.993403"><ele>512</ele><time>2020-10-17T10:35:46Z</time><name>PT1118</name></trkpt>
<trkpt lat="53.229964" lon="-1.993344"><ele>512</ele><time>2020-10-17T10:35:49Z</time><name>PT1119</name></trkpt>
<trkpt lat="53.229938" lon="-1.993268"><ele>512</ele><time>2020-10-17T10:35:53Z</time><name>PT1120</name></trkpt>
<trkpt lat="53.229909" lon="-1.993194"><ele>512</ele><time>2020-10-17T10:35:57Z</time><name>PT1121</name></trkpt>
<trkpt lat="53.229889" lon="-1.993139"><ele>512</ele><time>2020-10-17T10:36:00Z</time><name>PT1122</name></trkpt>
<trkpt lat="53.229861" lon="-1.993063"><ele>512</ele><time>2020-10-17T10:36:04Z</time><name>PT1123</name></trkpt>
<trkpt lat="53.229843" lon="-1.993006"><ele>512</ele><time>2020-10-17T10:36:07Z</time><name>PT1124</name></trkpt>
<trkpt lat="53.229819" lon="-1.992938"><ele>511</ele><time>2020-10-17T10:36:11Z</time><name>PT1125</name></trkpt>
<trkpt lat="53.229792" lon="-1.992866"><ele>511</ele><time>2020-10-17T10:36:15Z</time><name>PT1126</name></trkpt>
<trkpt lat="53.229779" lon="-1.992804"><ele>511</ele><time>2020-10-17T10:36:18Z</time><name>PT1127</name></trkpt>
<trkpt lat="53.229754" lon="-1.992729"><ele>510</ele><time>2020-10-17T10:36:22Z</time><name>PT1128</name></trkpt>
<trkpt lat="53.229735" lon="-1.992644"><ele>509</ele><time>2020-10-17T10:36:26Z</time><name>PT1129</name></trkpt>
<trkpt lat="53.229715" lon="-1.992595"><ele>509</ele><time>2020-10-17T10:36:29Z</time><name>PT1130</name></trkpt>
<trkpt lat="53.229691" lon="-1.992525"><ele>508</ele><time>2020-10-17T10:36:33Z</time><name>PT1131</name></trkpt>
<trkpt lat="53.229668" lon="-1.992476"><ele>508</ele><time>2020-10-17T10:36:36Z</time><name>PT1132</name></trkpt>
<trkpt lat="53.229646" lon="-1.992416"><ele>508</ele><time>2020-10-17T10:36:39Z</time><name>PT1133</name></trkpt>
<trkpt lat="53.229620" lon="-1.992351"><ele>508</ele><time>2020-10-17T10:36:43Z</time><name>PT1134</name></trkpt>
<trkpt lat="53.229600" lon="-1.992290"><ele>506</ele><time>2020-10-17T10:36:46Z</time><name>PT1135</name></trkpt>
<trkpt lat="53.229574" lon="-1.992219"><ele>505</ele><time>2020-10-17T10:36:50Z</time><name>PT1136</name></trkpt>
<trkpt lat="53.229553" lon="-1.992151"><ele>505</ele><time>2020-10-17T10:36:54Z</time><name>PT1137</name></trkpt>
<trkpt lat="53.229538" lon="-1.992067"><ele>505</ele><time>2020-10-17T10:36:58Z</time><name>PT1138</name></trkpt>
<trkpt lat="53.229511" lon="-1.991997"><ele>504</ele><time>2020-10-17T10:37:02Z</time><name>PT1139</name></trkpt>
<trkpt lat="53.229479" lon="-1.991915"><ele>503</ele><time>2020-10-17T10:37:06Z</time><name>PT1140</name></trkpt>
<trkpt lat="53.229459" lon="-1.991850"><ele>503</ele><time>2020-10-17T10:37:09Z</time><name>PT1141</name></trkpt>
<trkpt lat="53.229430" lon="-1.991780"><ele>503</ele><time>2020-10-17T10:37:13Z</time><name>PT1142</name></trkpt>
<trkpt lat="53.229399" lon="-1.991704"><ele>504</ele><time>2020-10-17T10:37:17Z</time><name>PT1143</name></trkpt>
<trkpt lat="53.229370" lon="-1.991630"><ele>504</ele><time>2020-10-17T10:37:21Z</time><name>PT1144</name></trkpt>
<trkpt lat="53.229344" lon="-1.991572"><ele>504</ele><time>2020-10-17T10:37:25Z</time><name>PT1145</name></trkpt>
<trkpt lat="53.229324" lon="-1.991514"><ele>503</ele><time>2020-10-17T10:37:28Z</time><name>PT1146</name></trkpt>
<trkpt lat="53.229302" lon="-1.991467"><ele>503</ele><time>2020-10-17T10:37:31Z</time><name>PT1147</name></trkpt>
<trkpt lat="53.229280" lon="-1.991415"><ele>502</ele><time>2020-10-17T10:37:34Z</time><name>PT1148</name></trkpt>
<trkpt lat="53.229254" lon="-1.991327"><ele>503</ele><time>2020-10-17T10:37:38Z</time><name>PT1149</name></trkpt>
<trkpt lat="53.229229" lon="-1.991260"><ele>503</ele><time>2020-10-17T10:37:42Z</time><name>PT1150</name></trkpt>
<trkpt lat="53.229213" lon="-1.991202"><ele>502</ele><time>2020-10-17T10:37:45Z</time><name>PT1151</name></trkpt>
<trkpt lat="53.229188" lon="-1.991132"><ele>502</ele><time>2020-10-17T10:37:49Z</time><name>PT1152</name></trkpt>
<trkpt lat="53.229166" lon="-1.991079"><ele>502</ele><time>2020-10-17T10:37:52Z</time><name>PT1153</name></trkpt>
<trkpt lat="53.229145" lon="-1.991017"><ele>503</ele><time>2020-10-17T10:37:55Z</time><name>PT1154</name></trkpt>
<trkpt lat="53.229122" lon="-1.990943"><ele>502</ele><time>2020-10-17T10:37:59Z</time><name>PT1155</name></trkpt>
<trkpt lat="53.229100" lon="-1.990866"><ele>502</ele><time>2020-10-17T10:38:03Z</time><name>PT1156</name></trkpt>
<trkpt lat="53.229072" lon="-1.990794"><ele>502</ele><time>2020-10-17T10:38:07Z</time><name>PT1157</name></trkpt>
<trkpt lat="53.229053" lon="-1.990738"><ele>502</ele><time>2020-10-17T10:38:10Z</time><name>PT1158</name></trkpt>
<trkpt lat="53.229028" lon="-1.990659"><ele>501</ele><time>2020-10-17T10:38:14Z</time><name>PT1159</name></trkpt>
<trkpt lat="53.228999" lon="-1.990593"><ele>501</ele><time>2020-10-17T10:38:18Z</time><name>PT1160</name></trkpt>
<trkpt lat="53.228978" lon="-1.990513"><ele>501</ele><time>2020-10-17T10:38:22Z</time><name>PT1161</name></trkpt>
<trkpt lat="53.228958" lon="-1.990459"><ele>500</ele><time>2020-10-17T10:38:25Z</time><name>PT1162</name></trkpt>
<trkpt lat="53.228931" lon="-1.990392"><ele>500</ele><time>2020-10-17T10:38:29Z</time><name>PT1163</name></trkpt>
<trkpt lat="53.228908" lon="-1.990320"><ele>499</ele><time>2020-10-17T10:38:33Z</time><name>PT1164</name></trkpt>
<trkpt lat="53.228889" lon="-1.990270"><ele>499</ele><time>2020-10-17T10:38:36Z</time><name>PT1165</name></trkpt>
<trkpt lat="53.228866" lon="-1.990232"><ele>500</ele><time>2020-10-17T10:38:39Z</time><name>PT1166</name></trkpt>
<trkpt lat="53.228841" lon="-1.990178"><ele>500</ele><time>2020-10-17T10:38:43Z</time><name>PT1167</name></trkpt>
<trkpt lat="53.228816" lon="-1.990120"><ele>501</ele><time>2020-10-17T10:38:47Z</time><name>PT1168</name></trkpt>
<trkpt lat="53.228792" lon="-1.990069"><ele>501</ele><time>2020-10-17T10:38:50Z</time><name>PT1169</name></trkpt>
<trkpt lat="53.228760" lon="-1.989997"><ele>501</ele><time>2020-10-17T10:38:54Z</time><name>PT1170</name></trkpt>
<trkpt lat="53.228741" lon="-1.989938"><ele>500</ele><time>2020-10-17T10:38:57Z</time><name>PT1171</name></trkpt>
<trkpt lat="53.228731" lon="-1.989880"><ele>500</ele><time>2020-10-17T10:39:00Z</time><name>PT1172</name></trkpt>
<trkpt lat="53.228721" lon="-1.989834"><ele>499</ele><time>2020-10-17T10:39:03Z</time><name>PT1173</name></trkpt>
<trkpt lat="53.228706" lon="-1.989769"><ele>500</ele><time>2020-10-17T10:39:06Z</time><name>PT1174</name></trkpt>
<trkpt lat="53.228688" lon="-1.989714"><ele>499</ele><time>2020-10-17T10:39:09Z</time><name>PT1175</name></trkpt>
<trkpt lat="53.228668" lon="-1.989641"><ele>499</ele><time>2020-10-17T10:39:13Z</time><name>PT1176</name></trkpt>
<trkpt lat="53.228643" lon="-1.989568"><ele>497</ele><time>2020-10-17T10:39:17Z</time><name>PT1177</name></trkpt>
<trkpt lat="53.228628" lon="-1.989514"><ele>498</ele><time>2020-10-17T10:39:20Z</time><name>PT1178</name></trkpt>
<trkpt lat="53.228610" lon="-1.989464"><ele>497</ele><time>2020-10-17T10:39:23Z</time><name>PT1179</name></trkpt>
<trkpt lat="53.228592" lon="-1.989411"><ele>497</ele><time>2020-10-17T10:39:26Z</time><name>PT1180</name></trkpt>
<trkpt lat="53.228566" lon="-1.989352"><ele>497</ele><time>2020-10-17T10:39:30Z</time><name>PT1181</name></trkpt>
<trkpt lat="53.228542" lon="-1.989281"><ele>496</ele><time>2020-10-17T10:39:34Z</time><name>PT1182</name></trkpt>
<trkpt lat="53.228524" lon="-1.989227"><ele>495</ele><time>2020-10-17T10:39:37Z</time><name>PT1183</name></trkpt>
<trkpt lat="53.228508" lon="-1.989171"><ele>496</ele><time>2020-10-17T10:39:40Z</time><name>PT1184</name></trkpt>
<trkpt lat="53.228485" lon="-1.989103"><ele>495</ele><time>2020-10-17T10:39:44Z</time><name>PT1185</name></trkpt>
<trkpt lat="53.228472" lon="-1.989043"><ele>494</ele><time>2020-10-17T10:39:47Z</time><name>PT1186</name></trkpt>
<trkpt lat="53.228452" lon="-1.988971"><ele>494</ele><time>2020-10-17T10:39:51Z</time><name>PT1187</name></trkpt>
<trkpt lat="53.228440" lon="-1.988904"><ele>494</ele><time>2020-10-17T10:39:54Z</time><name>PT1188</name></trkpt>
<trkpt lat="53.228425" lon="-1.988841"><ele>494</ele><time>2020-10-17T10:39:57Z</time><name>PT1189</name></trkpt>
<trkpt lat="53.228408" lon="-1.988788"><ele>493</ele><time>2020-10-17T10:40:00Z</time><name>PT1190</name></trkpt>
<trkpt lat="53.228388" lon="-1.988708"><ele>492</ele><time>2020-10-17T10:40:04Z</time><name>PT1191</name></trkpt>
<trkpt lat="53.228361" lon="-1.988632"><ele>491</ele><time>2020-10-17T10:40:08Z</time><name>PT1192</name></trkpt>
<trkpt lat="53.228343" lon="-1.988555"><ele>492</ele><time>2020-10-17T10:40:12Z</time><name>PT1193</name></trkpt>
<trkpt lat="53.228320" lon="-1.988475"><ele>492</ele><time>2020-10-17T10:40:16Z</time><name>PT1194</name></trkpt>
<trkpt lat="53.228302" lon="-1.988433"><ele>491</ele><time>2020-10-17T10:40:19Z</time><name>PT1195</name></trkpt>
<trkpt lat="53.228288" lon="-1.988375"><ele>490</ele><time>2020-10-17T10:40:22Z</time><name>PT1196</name></trkpt>
<trkpt lat="53.228269" lon="-1.988319"><ele>489</ele><time>2020-10-17T10:40:25Z</time><name>PT1197</name></trkpt>
<trkpt lat="53.228257" lon="-1.988250"><ele>489</ele><time>2020-10-17T10:40:28Z</time><name>PT1198</name></trkpt>
<trkpt lat="53.228239" lon="-1.988196"><ele>489</ele><time>2020-10-17T10:40:31Z</time><name>PT1199</name></trkpt>
<trkpt lat="53.228211" lon="-1.988127"><ele>488</ele><time>2020-10-17T10:40:35Z</time><name>PT1200</name></trkpt>
<trkpt lat="53.228190" lon="-1.988081"><ele>488</ele><time>2020-10-17T10:40:38Z</time><name>PT1201</name></trkpt>
<trkpt lat="53.228163" lon="-1.988010"><ele>488</ele><time>2020-10-17T10:40:42Z</time><name>PT1202</name></trkpt>
<trkpt lat="53.228132" lon="-1.987947"><ele>488</ele><time>2020-10-17T10:40:46Z</time><name>PT1203</name></trkpt>
<trkpt lat="53.228094" lon="-1.987893"><ele>488</ele><time>2020-10-17T10:40:50Z</time><name>PT1204</name></trkpt>
<trkpt lat="53.228059" lon="-1.987836"><ele>487</ele><time>2020-10-17T10:40:54Z</time><name>PT1205</name></trkpt>
<trkpt lat="53.228034" lon="-1.987785"><ele>487</ele><time>2020-10-17T10:40:57Z</time><name>PT1206</name></trkpt>
<trkpt lat="53.228008" lon="-1.987733"><ele>487</ele><time>2020-10-17T10:41:00Z</time><name>PT1207</name></trkpt>
<trkpt lat="53.227983" lon="-1.987688"><ele>486</ele><time>2020-10-17T10:41:03Z</time><name>PT1208</name></trkpt>
<trkpt lat="53.227944" lon="-1.987625"><ele>485</ele><time>2020-10-17T10:41:07Z</time><name>PT1209</name></trkpt>
<trkpt lat="53.227915" lon="-1.987585"><ele>485</ele><time>2020-10-17T10:41:10Z</time><name>PT1210</name></trkpt>
<trkpt lat="53.227878" lon="-1.987535"><ele>484</ele><time>2020-10-17T10:41:14Z</time><name>PT1211</name></trkpt>
<trkpt lat="53.227854" lon="-1.987490"><ele>485</ele><time>2020-10-17T10:41:17Z</time><name>PT1212</name></trkpt>
<trkpt lat="53.227821" lon="-1.987427"><ele>486</ele><time>2020-10-17T10:41:21Z</time><name>PT1213</name></trkpt>
<trkpt lat="53.227791" lon="-1.987388"><ele>485</ele><time>2020-10-17T10:41:24Z</time><name>PT1214</name></trkpt>
<trkpt lat="53.227753" lon="-1.987323"><ele>484</ele><time>2020-10-17T10:41:28Z</time><name>PT1215</name></trkpt>
<trkpt lat="53.227730" lon="-1.987283"><ele>483</ele><time>2020-10-17T10:41:31Z</time><name>PT1216</name></trkpt>
<trkpt lat="53.227699" lon="-1.987248"><ele>483</ele><time>2020-10-17T10:41:34Z</time><name>PT1217</name></trkpt>
<trkpt lat="53.227658" lon="-1.987199"><ele>482</ele><time>2020-10-17T10:41:38Z</time><name>PT1218</name></trkpt>
<trkpt lat="53.227615" lon="-1.987148"><ele>481</ele><time>2020-10-17T10:41:42Z</time><name>PT1219</name></trkpt>
<trkpt lat="53.227582" lon="-1.987114"><ele>480</ele><time>2020-10-17T10:41:45Z</time><name>PT1220</name></trkpt>
<trkpt lat="53.227536" lon="-1.987075"><ele>480</ele><time>2020-10-17T10:41:49Z</time><name>PT1221</name></trkpt>
<trkpt lat="53.227507" lon="-1.987038"><ele>479</ele><time>2020-10-17T10:41:52Z</time><name>PT1222</name></trkpt>
<trkpt lat="53.227462" lon="-1.986997"><ele>479</ele><time>2020-10-17T10:41:56Z</time><name>PT1223</name></trkpt>
<trkpt lat="53.227428" lon="-1.986965"><ele>478</ele><time>2020-10-17T10:41:59Z</time><name>PT1224</name></trkpt>
<trkpt lat="53.227386" lon="-1.986939"><ele>477</ele><time>2020-10-17T10:42:03Z</time><name>PT1225</name></trkpt>
<trkpt lat="53.227342" lon="-1.986912"><ele>477</ele><time>2020-10-17T10:42:07Z</time><name>PT1226</name></trkpt>
<trkpt lat="53.227296" lon="-1.986911"><ele>476</ele><time>2020-10-17T10:42:11Z</time><name>PT1227</name></trkpt>
<trkpt lat="53.227256" lon="-1.986909"><ele>476</ele><time>2020-10-17T10:42:15Z</time><name>PT1228</name></trkpt>
<trkpt lat="53.227228" lon="-1.986900"><ele>475</ele><time>2020-10-17T10:42:18Z</time><name>PT1229</name></trkpt>
<trkpt lat="53.227186" lon="-1.986893"><ele>475</ele><time>2020-10-17T10:42:22Z</time><name>PT1230</name></trkpt>
<trkpt lat="53.227158" lon="-1.986877"><ele>475</ele><time>2020-10-17T10:42:25Z</time><name>PT1231</name></trkpt>
<trkpt lat="53.227139" lon="-1.986868"><ele>475</ele><time>2020-10-17T10:42:29Z</time><name>PT1232</name></trkpt>
<trkpt lat="53.227116" lon="-1.986867"><ele>475</ele><time>2020-10-17T10:42:32Z</time><name>PT1233</name></trkpt>
<trkpt lat="53.227100" lon="-1.986864"><ele>475</ele><time>2020-10-17T10:42:36Z</time><name>PT1234</name></trkpt>
<trkpt lat="53.227078" lon="-1.986867"><ele>474</ele><time>2020-10-17T10:42:39Z</time><name>PT1235</name></trkpt>
<trkpt lat="53.227038" lon="-1.986844"><ele>473</ele><time>2020-10-17T10:42:43Z</time><name>PT1236</name></trkpt>
<trkpt lat="53.227008" lon="-1.986840"><ele>473</ele><time>2020-10-17T10:42:47Z</time><name>PT1237</name></trkpt>
<trkpt lat="53.226995" lon="-1.986817"><ele>472</ele><time>2020-10-17T10:42:50Z</time><name>PT1238</name></trkpt>
<trkpt lat="53.226985" lon="-1.986817"><ele>473</ele><time>2020-10-17T10:42:54Z</time><name>PT1239</name></trkpt>
<trkpt lat="53.226978" lon="-1.986830"><ele>473</ele><time>2020-10-17T10:43:28Z</time><name>PT1240</name></trkpt>
<trkpt lat="53.226961" lon="-1.986846"><ele>474</ele><time>2020-10-17T10:43:32Z</time><name>PT1241</name></trkpt>
<trkpt lat="53.226960" lon="-1.986849"><ele>474</ele><time>2020-10-17T10:43:40Z</time><name>PT1242</name></trkpt>
<trkpt lat="53.226948" lon="-1.986824"><ele>472</ele><time>2020-10-17T10:43:44Z</time><name>PT1243</name></trkpt>
<trkpt lat="53.226950" lon="-1.986813"><ele>472</ele><time>2020-10-17T10:44:02Z</time><name>PT1244</name></trkpt>
<trkpt lat="53.226947" lon="-1.986813"><ele>472</ele><time>2020-10-17T10:44:05Z</time><name>PT1245</name></trkpt>
<trkpt lat="53.226932" lon="-1.986795"><ele>473</ele><time>2020-10-17T10:44:16Z</time><name>PT1246</name></trkpt>
<trkpt lat="53.226931" lon="-1.986790"><ele>473</ele><time>2020-10-17T10:44:20Z</time><name>PT1247</name></trkpt>
<trkpt lat="53.226931" lon="-1.986794"><ele>473</ele><time>2020-10-17T10:44:55Z</time><name>PT1248</name></trkpt>
<trkpt lat="53.226927" lon="-1.986808"><ele>473</ele><time>2020-10-17T10:44:59Z</time><name>PT1249</name></trkpt>
<trkpt lat="53.226926" lon="-1.986805"><ele>473</ele><time>2020-10-17T10:45:06Z</time><name>PT1250</name></trkpt>
<trkpt lat="53.226904" lon="-1.986788"><ele>472</ele><time>2020-10-17T10:45:10Z</time><name>PT1251</name></trkpt>
<trkpt lat="53.226887" lon="-1.986773"><ele>471</ele><time>2020-10-17T10:45:14Z</time><name>PT1252</name></trkpt>
<trkpt lat="53.226872" lon="-1.986776"><ele>471</ele><time>2020-10-17T10:45:18Z</time><name>PT1253</name></trkpt>
<trkpt lat="53.226857" lon="-1.986766"><ele>470</ele><time>2020-10-17T10:45:22Z</time><name>PT1254</name></trkpt>
<trkpt lat="53.226845" lon="-1.986739"><ele>470</ele><time>2020-10-17T10:45:25Z</time><name>PT1255</name></trkpt>
<trkpt lat="53.226825" lon="-1.986713"><ele>469</ele><time>2020-10-17T10:45:29Z</time><name>PT1256</name></trkpt>
<trkpt lat="53.226807" lon="-1.986722"><ele>468</ele><time>2020-10-17T10:45:39Z</time><name>PT1257</name></trkpt>
<trkpt lat="53.226793" lon="-1.986734"><ele>468</ele><time>2020-10-17T10:45:42Z</time><name>PT1258</name></trkpt>
<trkpt lat="53.226787" lon="-1.986726"><ele>467</ele><time>2020-10-17T10:45:45Z</time><name>PT1259</name></trkpt>
<trkpt lat="53.226765" lon="-1.986730"><ele>467</ele><time>2020-10-17T10:45:49Z</time><name>PT1260</name></trkpt>
<trkpt lat="53.226751" lon="-1.986716"><ele>464</ele><time>2020-10-17T10:45:53Z</time><name>PT1261</name></trkpt>
<trkpt lat="53.226741" lon="-1.986727"><ele>463</ele><time>2020-10-17T10:45:56Z</time><name>PT1262</name></trkpt>
<trkpt lat="53.226737" lon="-1.986730"><ele>463</ele><time>2020-10-17T10:45:59Z</time><name>PT1263</name></trkpt>
<trkpt lat="53.226724" lon="-1.986747"><ele>463</ele><time>2020-10-17T10:46:13Z</time><name>PT1264</name></trkpt>
<trkpt lat="53.226686" lon="-1.986752"><ele>462</ele><time>2020-10-17T10:46:17Z</time><name>PT1265</name></trkpt>
<trkpt lat="53.226667" lon="-1.986760"><ele>460</ele><time>2020-10-17T10:46:20Z</time><name>PT1266</name></trkpt>
<trkpt lat="53.226656" lon="-1.986768"><ele>460</ele><time>2020-10-17T10:46:23Z</time><name>PT1267</name></trkpt>
<trkpt lat="53.226630" lon="-1.986803"><ele>459</ele><time>2020-10-17T10:46:39Z</time><name>PT1268</name></trkpt>
<trkpt lat="53.226612" lon="-1.986816"><ele>456</ele><time>2020-10-17T10:46:42Z</time><name>PT1269</name></trkpt>
<trkpt lat="53.226608" lon="-1.986818"><ele>456</ele><time>2020-10-17T10:46:53Z</time><name>PT1270</name></trkpt>
<trkpt lat="53.226584" lon="-1.986828"><ele>456</ele><time>2020-10-17T10:46:57Z</time><name>PT1271</name></trkpt>
<trkpt lat="53.226575" lon="-1.986808"><ele>455</ele><time>2020-10-17T10:47:00Z</time><name>PT1272</name></trkpt>
<trkpt lat="53.226559" lon="-1.986788"><ele>454</ele><time>2020-10-17T10:47:04Z</time><name>PT1273</name></trkpt>
<trkpt lat="53.226547" lon="-1.986788"><ele>454</ele><time>2020-10-17T10:47:08Z</time><name>PT1274</name></trkpt>
<trkpt lat="53.226539" lon="-1.986804"><ele>453</ele><time>2020-10-17T10:47:11Z</time><name>PT1275</name></trkpt>
<trkpt lat="53.226528" lon="-1.986818"><ele>453</ele><time>2020-10-17T10:47:14Z</time><name>PT1276</name></trkpt>
<trkpt lat="53.226511" lon="-1.986849"><ele>452</ele><time>2020-10-17T10:47:18Z</time><name>PT1277</name></trkpt>
<trkpt lat="53.226496" lon="-1.986871"><ele>451</ele><time>2020-10-17T10:47:21Z</time><name>PT1278</name></trkpt>
<trkpt lat="53.226462" lon="-1.986894"><ele>450</ele><time>2020-10-17T10:47:25Z</time><name>PT1279</name></trkpt>
<trkpt lat="53.226443" lon="-1.986928"><ele>450</ele><time>2020-10-17T10:47:28Z</time><name>PT1280</name></trkpt>
<trkpt lat="53.226429" lon="-1.986944"><ele>450</ele><time>2020-10-17T10:47:31Z</time><name>PT1281</name></trkpt>
<trkpt lat="53.226421" lon="-1.986954"><ele>449</ele><time>2020-10-17T10:47:35Z</time><name>PT1282</name></trkpt>
<trkpt lat="53.226412" lon="-1.986960"><ele>448</ele><time>2020-10-17T10:47:41Z</time><name>PT1283</name></trkpt>
<trkpt lat="53.226396" lon="-1.986971"><ele>447</ele><time>2020-10-17T10:47:45Z</time><name>PT1284</name></trkpt>
<trkpt lat="53.226365" lon="-1.986992"><ele>447</ele><time>2020-10-17T10:47:49Z</time><name>PT1285</name></trkpt>
<trkpt lat="53.226352" lon="-1.987000"><ele>447</ele><time>2020-10-17T10:47:52Z</time><name>PT1286</name></trkpt>
<trkpt lat="53.226346" lon="-1.986972"><ele>446</ele><time>2020-10-17T10:47:56Z</time><name>PT1287</name></trkpt>
<trkpt lat="53.226332" lon="-1.986945"><ele>444</ele><time>2020-10-17T10:48:00Z</time><name>PT1288</name></trkpt>
<trkpt lat="53.226323" lon="-1.986943"><ele>444</ele><time>2020-10-17T10:48:03Z</time><name>PT1289</name></trkpt>
<trkpt lat="53.226320" lon="-1.986944"><ele>444</ele><time>2020-10-17T10:48:07Z</time><name>PT1290</name></trkpt>
<trkpt lat="53.226322" lon="-1.986955"><ele>443</ele><time>2020-10-17T10:48:14Z</time><name>PT1291</name></trkpt>
<trkpt lat="53.226320" lon="-1.986957"><ele>443</ele><time>2020-10-17T10:48:17Z</time><name>PT1292</name></trkpt>
<trkpt lat="53.226324" lon="-1.986957"><ele>443</ele><time>2020-10-17T10:48:21Z</time><name>PT1293</name></trkpt>
<trkpt lat="53.226329" lon="-1.986964"><ele>442</ele><time>2020-10-17T10:48:34Z</time><name>PT1294</name></trkpt>
<trkpt lat="53.226322" lon="-1.986959"><ele>442</ele><time>2020-10-17T10:48:38Z</time><name>PT1295</name></trkpt>
<trkpt lat="53.226322" lon="-1.986960"><ele>442</ele><time>2020-10-17T10:48:41Z</time><name>PT1296</name></trkpt>
<trkpt lat="53.226325" lon="-1.986963"><ele>442</ele><time>2020-10-17T10:54:53Z</time><name>PT1297</name></trkpt>
<trkpt lat="53.226319" lon="-1.986954"><ele>442</ele><time>2020-10-17T10:55:16Z</time><name>PT1298</name></trkpt>
<trkpt lat="53.226322" lon="-1.986961"><ele>442</ele><time>2020-10-17T10:55:19Z</time><name>PT1299</name></trkpt>
<trkpt lat="53.226318" lon="-1.986957"><ele>441</ele><time>2020-10-17T10:55:22Z</time><name>PT1300</name></trkpt>
<trkpt lat="53.226325" lon="-1.986909"><ele>440</ele><time>2020-10-17T10:55:25Z</time><name>PT1301</name></trkpt>
<trkpt lat="53.226336" lon="-1.986916"><ele>440</ele><time>2020-10-17T10:55:29Z</time><name>PT1302</name></trkpt>
<trkpt lat="53.226348" lon="-1.986935"><ele>441</ele><time>2020-10-17T10:55:33Z</time><name>PT1303</name></trkpt>
<trkpt lat="53.226352" lon="-1.986972"><ele>441</ele><time>2020-10-17T10:55:36Z</time><name>PT1304</name></trkpt>
<trkpt lat="53.226351" lon="-1.986985"><ele>440</ele><time>2020-10-17T10:55:39Z</time><name>PT1305</name></trkpt>
<trkpt lat="53.226346" lon="-1.986994"><ele>439</ele><time>2020-10-17T10:55:42Z</time><name>PT1306</name></trkpt>
<trkpt lat="53.226340" lon="-1.987016"><ele>436</ele><time>2020-10-17T10:55:46Z</time><name>PT1307</name></trkpt>
<trkpt lat="53.226335" lon="-1.987017"><ele>435</ele><time>2020-10-17T10:55:50Z</time><name>PT1308</name></trkpt>
<trkpt lat="53.226328" lon="-1.987044"><ele>434</ele><time>2020-10-17T10:55:54Z</time><name>PT1309</name></trkpt>
<trkpt lat="53.226328" lon="-1.987058"><ele>432</ele><time>2020-10-17T10:55:57Z</time><name>PT1310</name></trkpt>
<trkpt lat="53.226325" lon="-1.987059"><ele>432</ele><time>2020-10-17T10:56:00Z</time><name>PT1311</name></trkpt>
<trkpt lat="53.226326" lon="-1.987060"><ele>431</ele><time>2020-10-17T10:56:04Z</time><name>PT1312</name></trkpt>
<trkpt lat="53.226334" lon="-1.987079"><ele>432</ele><time>2020-10-17T10:56:12Z</time><name>PT1313</name></trkpt>
<trkpt lat="53.226353" lon="-1.987078"><ele>431</ele><time>2020-10-17T10:56:15Z</time><name>PT1314</name></trkpt>
<trkpt lat="53.226354" lon="-1.987052"><ele>432</ele><time>2020-10-17T10:56:18Z</time><name>PT1315</name></trkpt>
<trkpt lat="53.226347" lon="-1.987045"><ele>432</ele><time>2020-10-17T10:56:21Z</time><name>PT1316</name></trkpt>
<trkpt lat="53.226346" lon="-1.987038"><ele>432</ele><time>2020-10-17T10:56:25Z</time><name>PT1317</name></trkpt>
<trkpt lat="53.226346" lon="-1.987020"><ele>433</ele><time>2020-10-17T10:56:32Z</time><name>PT1318</name></trkpt>
<trkpt lat="53.226343" lon="-1.987022"><ele>433</ele><time>2020-10-17T10:56:39Z</time><name>PT1319</name></trkpt>
<trkpt lat="53.226341" lon="-1.987019"><ele>433</ele><time>2020-10-17T10:56:42Z</time><name>PT1320</name></trkpt>
<trkpt lat="53.226340" lon="-1.987017"><ele>433</ele><time>2020-10-17T10:56:46Z</time><name>PT1321</name></trkpt>
<trkpt lat="53.226363" lon="-1.987032"><ele>436</ele><time>2020-10-17T10:56:50Z</time><name>PT1322</name></trkpt>
<trkpt lat="53.226379" lon="-1.987013"><ele>436</ele><time>2020-10-17T10:56:53Z</time><name>PT1323</name></trkpt>
<trkpt lat="53.226379" lon="-1.987033"><ele>437</ele><time>2020-10-17T10:56:57Z</time><name>PT1324</name></trkpt>
<trkpt lat="53.226375" lon="-1.987013"><ele>437</ele><time>2020-10-17T10:57:00Z</time><name>PT1325</name></trkpt>
<trkpt lat="53.226346" lon="-1.986962"><ele>439</ele><time>2020-10-17T10:57:04Z</time><name>PT1326</name></trkpt>
<trkpt lat="53.226341" lon="-1.986962"><ele>439</ele><time>2020-10-17T10:57:07Z</time><name>PT1327</name></trkpt>
<trkpt lat="53.226328" lon="-1.986938"><ele>441</ele><time>2020-10-17T11:01:05Z</time><name>PT1328</name></trkpt>
<trkpt lat="53.226327" lon="-1.986945"><ele>441</ele><time>2020-10-17T11:01:09Z</time><name>PT1329</name></trkpt>
<trkpt lat="53.226322" lon="-1.986947"><ele>440</ele><time>2020-10-17T11:01:13Z</time><name>PT1330</name></trkpt>
<trkpt lat="53.226319" lon="-1.986948"><ele>440</ele><time>2020-10-17T11:01:16Z</time><name>PT1331</name></trkpt>
<trkpt lat="53.226293" lon="-1.986975"><ele>441</ele><time>2020-10-17T11:01:19Z</time><name>PT1332</name></trkpt>
<trkpt lat="53.226306" lon="-1.987031"><ele>442</ele><time>2020-10-17T11:01:22Z</time><name>PT1333</name></trkpt>
<trkpt lat="53.226301" lon="-1.987022"><ele>442</ele><time>2020-10-17T11:01:32Z</time><name>PT1334</name></trkpt>
<trkpt lat="53.226261" lon="-1.987018"><ele>442</ele><time>2020-10-17T11:01:36Z</time><name>PT1335</name></trkpt>
<trkpt lat="53.226239" lon="-1.987032"><ele>441</ele><time>2020-10-17T11:01:40Z</time><name>PT1336</name></trkpt>
<trkpt lat="53.226227" lon="-1.987042"><ele>441</ele><time>2020-10-17T11:01:43Z</time><name>PT1337</name></trkpt>
<trkpt lat="53.226205" lon="-1.987061"><ele>441</ele><time>2020-10-17T11:01:47Z</time><name>PT1338</name></trkpt>
<trkpt lat="53.226189" lon="-1.987076"><ele>441</ele><time>2020-10-17T11:01:50Z</time><name>PT1339</name></trkpt>
<trkpt lat="53.226173" lon="-1.987096"><ele>440</ele><time>2020-10-17T11:01:53Z</time><name>PT1340</name></trkpt>
<trkpt lat="53.226173" lon="-1.987098"><ele>440</ele><time>2020-10-17T11:01:56Z</time><name>PT1341</name></trkpt>
<trkpt lat="53.226168" lon="-1.987103"><ele>440</ele><time>2020-10-17T11:02:00Z</time><name>PT1342</name></trkpt>
<trkpt lat="53.226153" lon="-1.987122"><ele>439</ele><time>2020-10-17T11:02:03Z</time><name>PT1343</name></trkpt>
<trkpt lat="53.226141" lon="-1.987164"><ele>438</ele><time>2020-10-17T11:02:07Z</time><name>PT1344</name></trkpt>
<trkpt lat="53.226130" lon="-1.987185"><ele>437</ele><time>2020-10-17T11:02:10Z</time><name>PT1345</name></trkpt>
<trkpt lat="53.226121" lon="-1.987227"><ele>435</ele><time>2020-10-17T11:02:14Z</time><name>PT1346</name></trkpt>
<trkpt lat="53.226113" lon="-1.987247"><ele>434</ele><time>2020-10-17T11:02:18Z</time><name>PT1347</name></trkpt>
<trkpt lat="53.226099" lon="-1.987265"><ele>434</ele><time>2020-10-17T11:02:21Z</time><name>PT1348</name></trkpt>
<trkpt lat="53.226082" lon="-1.987267"><ele>433</ele><time>2020-10-17T11:02:25Z</time><name>PT1349</name></trkpt>
<trkpt lat="53.226066" lon="-1.987258"><ele>432</ele><time>2020-10-17T11:02:28Z</time><name>PT1350</name></trkpt>
<trkpt lat="53.226046" lon="-1.987269"><ele>431</ele><time>2020-10-17T11:02:31Z</time><name>PT1351</name></trkpt>
<trkpt lat="53.226035" lon="-1.987277"><ele>431</ele><time>2020-10-17T11:02:34Z</time><name>PT1352</name></trkpt>
<trkpt lat="53.226009" lon="-1.987280"><ele>430</ele><time>2020-10-17T11:02:38Z</time><name>PT1353</name></trkpt>
<trkpt lat="53.225995" lon="-1.987279"><ele>430</ele><time>2020-10-17T11:02:41Z</time><name>PT1354</name></trkpt>
<trkpt lat="53.225984" lon="-1.987280"><ele>429</ele><time>2020-10-17T11:02:44Z</time><name>PT1355</name></trkpt>
<trkpt lat="53.225973" lon="-1.987281"><ele>428</ele><time>2020-10-17T11:02:47Z</time><name>PT1356</name></trkpt>
<trkpt lat="53.225954" lon="-1.987280"><ele>428</ele><time>2020-10-17T11:02:51Z</time><name>PT1357</name></trkpt>
<trkpt lat="53.225949" lon="-1.987272"><ele>427</ele><time>2020-10-17T11:02:55Z</time><name>PT1358</name></trkpt>
<trkpt lat="53.225935" lon="-1.987267"><ele>426</ele><time>2020-10-17T11:02:59Z</time><name>PT1359</name></trkpt>
<trkpt lat="53.225910" lon="-1.987284"><ele>425</ele><time>2020-10-17T11:03:03Z</time><name>PT1360</name></trkpt>
<trkpt lat="53.225882" lon="-1.987300"><ele>425</ele><time>2020-10-17T11:03:06Z</time><name>PT1361</name></trkpt>
<trkpt lat="53.225850" lon="-1.987324"><ele>425</ele><time>2020-10-17T11:03:10Z</time><name>PT1362</name></trkpt>
<trkpt lat="53.225834" lon="-1.987338"><ele>423</ele><time>2020-10-17T11:03:13Z</time><name>PT1363</name></trkpt>
<trkpt lat="53.225822" lon="-1.987347"><ele>422</ele><time>2020-10-17T11:03:17Z</time><name>PT1364</name></trkpt>
<trkpt lat="53.225812" lon="-1.987364"><ele>421</ele><time>2020-10-17T11:03:20Z</time><name>PT1365</name></trkpt>
<trkpt lat="53.225786" lon="-1.987385"><ele>421</ele><time>2020-10-17T11:03:23Z</time><name>PT1366</name></trkpt>
<trkpt lat="53.225785" lon="-1.987394"><ele>420</ele><time>2020-10-17T11:03:27Z</time><name>PT1367</name></trkpt>
<trkpt lat="53.225767" lon="-1.987424"><ele>420</ele><time>2020-10-17T11:03:31Z</time><name>PT1368</name></trkpt>
<trkpt lat="53.225755" lon="-1.987478"><ele>420</ele><time>2020-10-17T11:03:35Z</time><name>PT1369</name></trkpt>
<trkpt lat="53.225731" lon="-1.987529"><ele>420</ele><time>2020-10-17T11:03:38Z</time><name>PT1370</name></trkpt>
<trkpt lat="53.225710" lon="-1.987583"><ele>420</ele><time>2020-10-17T11:03:42Z</time><name>PT1371</name></trkpt>
<trkpt lat="53.225695" lon="-1.987625"><ele>419</ele><time>2020-10-17T11:03:45Z</time><name>PT1372</name></trkpt>
<trkpt lat="53.225665" lon="-1.987674"><ele>419</ele><time>2020-10-17T11:03:49Z</time><name>PT1373</name></trkpt>
<trkpt lat="53.225637" lon="-1.987707"><ele>419</ele><time>2020-10-17T11:03:53Z</time><name>PT1374</name></trkpt>
<trkpt lat="53.225619" lon="-1.987737"><ele>420</ele><time>2020-10-17T11:03:57Z</time><name>PT1375</name></trkpt>
<trkpt lat="53.225579" lon="-1.987770"><ele>421</ele><time>2020-10-17T11:04:01Z</time><name>PT1376</name></trkpt>
<trkpt lat="53.225556" lon="-1.987801"><ele>421</ele><time>2020-10-17T11:04:05Z</time><name>PT1377</name></trkpt>
<trkpt lat="53.225510" lon="-1.987836"><ele>420</ele><time>2020-10-17T11:04:09Z</time><name>PT1378</name></trkpt>
<trkpt lat="53.225473" lon="-1.987875"><ele>420</ele><time>2020-10-17T11:04:13Z</time><name>PT1379</name></trkpt>
<trkpt lat="53.225445" lon="-1.987900"><ele>420</ele><time>2020-10-17T11:04:16Z</time><name>PT1380</name></trkpt>
<trkpt lat="53.225422" lon="-1.987923"><ele>419</ele><time>2020-10-17T11:04:19Z</time><name>PT1381</name></trkpt>
<trkpt lat="53.225394" lon="-1.987951"><ele>418</ele><time>2020-10-17T11:04:23Z</time><name>PT1382</name></trkpt>
<trkpt lat="53.225369" lon="-1.987984"><ele>417</ele><time>2020-10-17T11:04:27Z</time><name>PT1383</name></trkpt>
<trkpt lat="53.225340" lon="-1.988005"><ele>417</ele><time>2020-10-17T11:04:30Z</time><name>PT1384</name></trkpt>
<trkpt lat="53.225311" lon="-1.988024"><ele>417</ele><time>2020-10-17T11:04:34Z</time><name>PT1385</name></trkpt>
<trkpt lat="53.225289" lon="-1.988041"><ele>417</ele><time>2020-10-17T11:04:37Z</time><name>PT1386</name></trkpt>
<trkpt lat="53.225269" lon="-1.988067"><ele>416</ele><time>2020-10-17T11:04:40Z</time><name>PT1387</name></trkpt>
<trkpt lat="53.225235" lon="-1.988096"><ele>416</ele><time>2020-10-17T11:04:44Z</time><name>PT1388</name></trkpt>
<trkpt lat="53.225199" lon="-1.988127"><ele>415</ele><time>2020-10-17T11:04:48Z</time><name>PT1389</name></trkpt>
<trkpt lat="53.225171" lon="-1.988147"><ele>414</ele><time>2020-10-17T11:04:51Z</time><name>PT1390</name></trkpt>
<trkpt lat="53.225142" lon="-1.988169"><ele>414</ele><time>2020-10-17T11:04:54Z</time><name>PT1391</name></trkpt>
<trkpt lat="53.225104" lon="-1.988189"><ele>413</ele><time>2020-10-17T11:04:58Z</time><name>PT1392</name></trkpt>
<trkpt lat="53.225066" lon="-1.988210"><ele>413</ele><time>2020-10-17T11:05:02Z</time><name>PT1393</name></trkpt>
<trkpt lat="53.225037" lon="-1.988219"><ele>412</ele><time>2020-10-17T11:05:05Z</time><name>PT1394</name></trkpt>
<trkpt lat="53.224996" lon="-1.988238"><ele>412</ele><time>2020-10-17T11:05:09Z</time><name>PT1395</name></trkpt>
<trkpt lat="53.224962" lon="-1.988263"><ele>412</ele><time>2020-10-17T11:05:13Z</time><name>PT1396</name></trkpt>
<trkpt lat="53.224939" lon="-1.988278"><ele>412</ele><time>2020-10-17T11:05:16Z</time><name>PT1397</name></trkpt>
<trkpt lat="53.224910" lon="-1.988291"><ele>412</ele><time>2020-10-17T11:05:19Z</time><name>PT1398</name></trkpt>
<trkpt lat="53.224879" lon="-1.988293"><ele>412</ele><time>2020-10-17T11:05:22Z</time><name>PT1399</name></trkpt>
<trkpt lat="53.224846" lon="-1.988306"><ele>412</ele><time>2020-10-17T11:05:25Z</time><name>PT1400</name></trkpt>
<trkpt lat="53.224807" lon="-1.988333"><ele>412</ele><time>2020-10-17T11:05:29Z</time><name>PT1401</name></trkpt>
<trkpt lat="53.224770" lon="-1.988349"><ele>412</ele><time>2020-10-17T11:05:32Z</time><name>PT1402</name></trkpt>
<trkpt lat="53.224729" lon="-1.988381"><ele>412</ele><time>2020-10-17T11:05:36Z</time><name>PT1403</name></trkpt>
<trkpt lat="53.224695" lon="-1.988403"><ele>412</ele><time>2020-10-17T11:05:39Z</time><name>PT1404</name></trkpt>
<trkpt lat="53.224649" lon="-1.988424"><ele>411</ele><time>2020-10-17T11:05:43Z</time><name>PT1405</name></trkpt>
<trkpt lat="53.224605" lon="-1.988457"><ele>411</ele><time>2020-10-17T11:05:47Z</time><name>PT1406</name></trkpt>
<trkpt lat="53.224567" lon="-1.988477"><ele>410</ele><time>2020-10-17T11:05:50Z</time><name>PT1407</name></trkpt>
<trkpt lat="53.224519" lon="-1.988508"><ele>410</ele><time>2020-10-17T11:05:54Z</time><name>PT1408</name></trkpt>
<trkpt lat="53.224482" lon="-1.988535"><ele>409</ele><time>2020-10-17T11:05:57Z</time><name>PT1409</name></trkpt>
<trkpt lat="53.224431" lon="-1.988566"><ele>409</ele><time>2020-10-17T11:06:01Z</time><name>PT1410</name></trkpt>
<trkpt lat="53.224394" lon="-1.988587"><ele>409</ele><time>2020-10-17T11:06:04Z</time><name>PT1411</name></trkpt>
<trkpt lat="53.224351" lon="-1.988620"><ele>408</ele><time>2020-10-17T11:06:08Z</time><name>PT1412</name></trkpt>
<trkpt lat="53.224308" lon="-1.988656"><ele>408</ele><time>2020-10-17T11:06:12Z</time><name>PT1413</name></trkpt>
<trkpt lat="53.224277" lon="-1.988686"><ele>407</ele><time>2020-10-17T11:06:15Z</time><name>PT1414</name></trkpt>
<trkpt lat="53.224240" lon="-1.988721"><ele>406</ele><time>2020-10-17T11:06:19Z</time><name>PT1415</name></trkpt>
<trkpt lat="53.224198" lon="-1.988761"><ele>405</ele><time>2020-10-17T11:06:23Z</time><name>PT1416</name></trkpt>
<trkpt lat="53.224158" lon="-1.988804"><ele>405</ele><time>2020-10-17T11:06:27Z</time><name>PT1417</name></trkpt>
<trkpt lat="53.224115" lon="-1.988845"><ele>404</ele><time>2020-10-17T11:06:31Z</time><name>PT1418</name></trkpt>
<trkpt lat="53.224075" lon="-1.988890"><ele>403</ele><time>2020-10-17T11:06:35Z</time><name>PT1419</name></trkpt>
<trkpt lat="53.224045" lon="-1.988920"><ele>402</ele><time>2020-10-17T11:06:38Z</time><name>PT1420</name></trkpt>
<trkpt lat="53.224005" lon="-1.988963"><ele>402</ele><time>2020-10-17T11:06:42Z</time><name>PT1421</name></trkpt>
<trkpt lat="53.223978" lon="-1.988998"><ele>401</ele><time>2020-10-17T11:06:45Z</time><name>PT1422</name></trkpt>
<trkpt lat="53.223941" lon="-1.989047"><ele>400</ele><time>2020-10-17T11:06:49Z</time><name>PT1423</name></trkpt>
<trkpt lat="53.223898" lon="-1.989092"><ele>400</ele><time>2020-10-17T11:06:53Z</time><name>PT1424</name></trkpt>
<trkpt lat="53.223861" lon="-1.989131"><ele>400</ele><time>2020-10-17T11:06:56Z</time><name>PT1425</name></trkpt>
<trkpt lat="53.223824" lon="-1.989182"><ele>400</ele><time>2020-10-17T11:07:00Z</time><name>PT1426</name></trkpt>
<trkpt lat="53.223798" lon="-1.989218"><ele>399</ele><time>2020-10-17T11:07:03Z</time><name>PT1427</name></trkpt>
<trkpt lat="53.223762" lon="-1.989281"><ele>400</ele><time>2020-10-17T11:07:07Z</time><name>PT1428</name></trkpt>
<trkpt lat="53.223733" lon="-1.989319"><ele>400</ele><time>2020-10-17T11:07:10Z</time><name>PT1429</name></trkpt>
<trkpt lat="53.223709" lon="-1.989367"><ele>399</ele><time>2020-10-17T11:07:14Z</time><name>PT1430</name></trkpt>
<trkpt lat="53.223684" lon="-1.989414"><ele>399</ele><time>2020-10-17T11:07:17Z</time><name>PT1431</name></trkpt>
<trkpt lat="53.223646" lon="-1.989467"><ele>399</ele><time>2020-10-17T11:07:21Z</time><name>PT1432</name></trkpt>
<trkpt lat="53.223618" lon="-1.989509"><ele>399</ele><time>2020-10-17T11:07:24Z</time><name>PT1433</name></trkpt>
<trkpt lat="53.223582" lon="-1.989569"><ele>398</ele><time>2020-10-17T11:07:28Z</time><name>PT1434</name></trkpt>
<trkpt lat="53.223559" lon="-1.989620"><ele>398</ele><time>2020-10-17T11:07:31Z</time><name>PT1435</name></trkpt>
<trkpt lat="53.223525" lon="-1.989688"><ele>398</ele><time>2020-10-17T11:07:35Z</time><name>PT1436</name></trkpt>
<trkpt lat="53.223508" lon="-1.989739"><ele>397</ele><time>2020-10-17T11:07:38Z</time><name>PT1437</name></trkpt>
<trkpt lat="53.223481" lon="-1.989788"><ele>396</ele><time>2020-10-17T11:07:42Z</time><name>PT1438</name></trkpt>
<trkpt lat="53.223466" lon="-1.989827"><ele>395</ele><time>2020-10-17T11:07:45Z</time><name>PT1439</name></trkpt>
<trkpt lat="53.223447" lon="-1.989887"><ele>394</ele><time>2020-10-17T11:07:49Z</time><name>PT1440</name></trkpt>
<trkpt lat="53.223409" lon="-1.989932"><ele>396</ele><time>2020-10-17T11:07:53Z</time><name>PT1441</name></trkpt>
<trkpt lat="53.223380" lon="-1.989957"><ele>396</ele><time>2020-10-17T11:07:56Z</time><name>PT1442</name></trkpt>
<trkpt lat="53.223348" lon="-1.989983"><ele>395</ele><time>2020-10-17T11:08:00Z</time><name>PT1443</name></trkpt>
<trkpt lat="53.223314" lon="-1.990016"><ele>394</ele><time>2020-10-17T11:08:04Z</time><name>PT1444</name></trkpt>
<trkpt lat="53.223292" lon="-1.990052"><ele>393</ele><time>2020-10-17T11:08:08Z</time><name>PT1445</name></trkpt>
<trkpt lat="53.223261" lon="-1.990090"><ele>392</ele><time>2020-10-17T11:08:12Z</time><name>PT1446</name></trkpt>
<trkpt lat="53.223241" lon="-1.990127"><ele>392</ele><time>2020-10-17T11:08:15Z</time><name>PT1447</name></trkpt>
<trkpt lat="53.223219" lon="-1.990165"><ele>391</ele><time>2020-10-17T11:08:18Z</time><name>PT1448</name></trkpt>
<trkpt lat="53.223196" lon="-1.990218"><ele>391</ele><time>2020-10-17T11:08:22Z</time><name>PT1449</name></trkpt>
<trkpt lat="53.223163" lon="-1.990257"><ele>390</ele><time>2020-10-17T11:08:26Z</time><name>PT1450</name></trkpt>
<trkpt lat="53.223132" lon="-1.990299"><ele>389</ele><time>2020-10-17T11:08:30Z</time><name>PT1451</name></trkpt>
<trkpt lat="53.223098" lon="-1.990334"><ele>388</ele><time>2020-10-17T11:08:34Z</time><name>PT1452</name></trkpt>
<trkpt lat="53.223055" lon="-1.990356"><ele>389</ele><time>2020-10-17T11:08:38Z</time><name>PT1453</name></trkpt>
<trkpt lat="53.223019" lon="-1.990359"><ele>389</ele><time>2020-10-17T11:08:41Z</time><name>PT1454</name></trkpt>
<trkpt lat="53.222970" lon="-1.990383"><ele>388</ele><time>2020-10-17T11:08:45Z</time><name>PT1455</name></trkpt>
<trkpt lat="53.222933" lon="-1.990391"><ele>388</ele><time>2020-10-17T11:08:48Z</time><name>PT1456</name></trkpt>
<trkpt lat="53.222888" lon="-1.990399"><ele>388</ele><time>2020-10-17T11:08:52Z</time><name>PT1457</name></trkpt>
<trkpt lat="53.222840" lon="-1.990398"><ele>389</ele><time>2020-10-17T11:08:56Z</time><name>PT1458</name></trkpt>
<trkpt lat="53.222788" lon="-1.990395"><ele>388</ele><time>2020-10-17T11:09:00Z</time><name>PT1459</name></trkpt>
<trkpt lat="53.222751" lon="-1.990396"><ele>389</ele><time>2020-10-17T11:09:03Z</time><name>PT1460</name></trkpt>
<trkpt lat="53.222706" lon="-1.990401"><ele>390</ele><time>2020-10-17T11:09:07Z</time><name>PT1461</name></trkpt>
<trkpt lat="53.222667" lon="-1.990415"><ele>389</ele><time>2020-10-17T11:09:11Z</time><name>PT1462</name></trkpt>
<trkpt lat="53.222626" lon="-1.990418"><ele>390</ele><time>2020-10-17T11:09:14Z</time><name>PT1463</name></trkpt>
<trkpt lat="53.222587" lon="-1.990420"><ele>390</ele><time>2020-10-17T11:09:17Z</time><name>PT1464</name></trkpt>
<trkpt lat="53.222539" lon="-1.990409"><ele>389</ele><time>2020-10-17T11:09:21Z</time><name>PT1465</name></trkpt>
<trkpt lat="53.222502" lon="-1.990407"><ele>388</ele><time>2020-10-17T11:09:24Z</time><name>PT1466</name></trkpt>
<trkpt lat="53.222467" lon="-1.990399"><ele>388</ele><time>2020-10-17T11:09:27Z</time><name>PT1467</name></trkpt>
<trkpt lat="53.222430" lon="-1.990402"><ele>388</ele><time>2020-10-17T11:09:30Z</time><name>PT1468</name></trkpt>
<trkpt lat="53.222383" lon="-1.990407"><ele>388</ele><time>2020-10-17T11:09:34Z</time><name>PT1469</name></trkpt>
<trkpt lat="53.222335" lon="-1.990402"><ele>388</ele><time>2020-10-17T11:09:38Z</time><name>PT1470</name></trkpt>
<trkpt lat="53.222285" lon="-1.990405"><ele>388</ele><time>2020-10-17T11:09:42Z</time><name>PT1471</name></trkpt>
<trkpt lat="53.222254" lon="-1.990406"><ele>387</ele><time>2020-10-17T11:09:45Z</time><name>PT1472</name></trkpt>
<trkpt lat="53.222204" lon="-1.990401"><ele>386</ele><time>2020-10-17T11:09:49Z</time><name>PT1473</name></trkpt>
<trkpt lat="53.222166" lon="-1.990405"><ele>386</ele><time>2020-10-17T11:09:53Z</time><name>PT1474</name></trkpt>
<trkpt lat="53.222117" lon="-1.990404"><ele>386</ele><time>2020-10-17T11:09:57Z</time><name>PT1475</name></trkpt>
<trkpt lat="53.222069" lon="-1.990403"><ele>385</ele><time>2020-10-17T11:10:01Z</time><name>PT1476</name></trkpt>
<trkpt lat="53.222018" lon="-1.990393"><ele>385</ele><time>2020-10-17T11:10:05Z</time><name>PT1477</name></trkpt>
<trkpt lat="53.221978" lon="-1.990392"><ele>385</ele><time>2020-10-17T11:10:09Z</time><name>PT1478</name></trkpt>
<trkpt lat="53.221944" lon="-1.990381"><ele>384</ele><time>2020-10-17T11:10:13Z</time><name>PT1479</name></trkpt>
<trkpt lat="53.221919" lon="-1.990370"><ele>384</ele><time>2020-10-17T11:10:16Z</time><name>PT1480</name></trkpt>
<trkpt lat="53.221880" lon="-1.990356"><ele>386</ele><time>2020-10-17T11:10:19Z</time><name>PT1481</name></trkpt>
<trkpt lat="53.221831" lon="-1.990352"><ele>387</ele><time>2020-10-17T11:10:23Z</time><name>PT1482</name></trkpt>
<trkpt lat="53.221788" lon="-1.990349"><ele>386</ele><time>2020-10-17T11:10:27Z</time><name>PT1483</name></trkpt>
<trkpt lat="53.221752" lon="-1.990343"><ele>386</ele><time>2020-10-17T11:10:31Z</time><name>PT1484</name></trkpt>
<trkpt lat="53.221719" lon="-1.990330"><ele>385</ele><time>2020-10-17T11:10:34Z</time><name>PT1485</name></trkpt>
<trkpt lat="53.221674" lon="-1.990321"><ele>385</ele><time>2020-10-17T11:10:38Z</time><name>PT1486</name></trkpt>
<trkpt lat="53.221625" lon="-1.990307"><ele>385</ele><time>2020-10-17T11:10:42Z</time><name>PT1487</name></trkpt>
<trkpt lat="53.221589" lon="-1.990296"><ele>385</ele><time>2020-10-17T11:10:45Z</time><name>PT1488</name></trkpt>
<trkpt lat="53.221553" lon="-1.990282"><ele>385</ele><time>2020-10-17T11:10:48Z</time><name>PT1489</name></trkpt>
<trkpt lat="53.221520" lon="-1.990260"><ele>384</ele><time>2020-10-17T11:10:52Z</time><name>PT1490</name></trkpt>
<trkpt lat="53.221487" lon="-1.990262"><ele>384</ele><time>2020-10-17T11:10:55Z</time><name>PT1491</name></trkpt>
<trkpt lat="53.221450" lon="-1.990260"><ele>383</ele><time>2020-10-17T11:10:58Z</time><name>PT1492</name></trkpt>
<trkpt lat="53.221407" lon="-1.990264"><ele>382</ele><time>2020-10-17T11:11:02Z</time><name>PT1493</name></trkpt>
<trkpt lat="53.221370" lon="-1.990278"><ele>382</ele><time>2020-10-17T11:11:05Z</time><name>PT1494</name></trkpt>
<trkpt lat="53.221321" lon="-1.990282"><ele>383</ele><time>2020-10-17T11:11:09Z</time><name>PT1495</name></trkpt>
<trkpt lat="53.221275" lon="-1.990297"><ele>384</ele><time>2020-10-17T11:11:13Z</time><name>PT1496</name></trkpt>
<trkpt lat="53.221244" lon="-1.990306"><ele>384</ele><time>2020-10-17T11:11:16Z</time><name>PT1497</name></trkpt>
<trkpt lat="53.221201" lon="-1.990295"><ele>383</ele><time>2020-10-17T11:11:20Z</time><name>PT1498</name></trkpt>
<trkpt lat="53.221175" lon="-1.990310"><ele>384</ele><time>2020-10-17T11:11:23Z</time><name>PT1499</name></trkpt>
<trkpt lat="53.221131" lon="-1.990312"><ele>385</ele><time>2020-10-17T11:11:27Z</time><name>PT1500</name></trkpt>
<trkpt lat="53.221111" lon="-1.990312"><ele>384</ele><time>2020-10-17T11:11:30Z</time><name>PT1501</name></trkpt>
<trkpt lat="53.221086" lon="-1.990302"><ele>383</ele><time>2020-10-17T11:11:34Z</time><name>PT1502</name></trkpt>
<trkpt lat="53.221058" lon="-1.990290"><ele>382</ele><time>2020-10-17T11:11:37Z</time><name>PT1503</name></trkpt>
<trkpt lat="53.221034" lon="-1.990285"><ele>383</ele><time>2020-10-17T11:11:40Z</time><name>PT1504</name></trkpt>
<trkpt lat="53.220999" lon="-1.990258"><ele>383</ele><time>2020-10-17T11:11:44Z</time><name>PT1505</name></trkpt>
<trkpt lat="53.220974" lon="-1.990252"><ele>382</ele><time>2020-10-17T11:11:48Z</time><name>PT1506</name></trkpt>
<trkpt lat="53.220954" lon="-1.990234"><ele>382</ele><time>2020-10-17T11:11:51Z</time><name>PT1507</name></trkpt>
<trkpt lat="53.220925" lon="-1.990219"><ele>382</ele><time>2020-10-17T11:11:55Z</time><name>PT1508</name></trkpt>
<trkpt lat="53.220899" lon="-1.990202"><ele>382</ele><time>2020-10-17T11:11:59Z</time><name>PT1509</name></trkpt>
<trkpt lat="53.220880" lon="-1.990202"><ele>382</ele><time>2020-10-17T11:12:03Z</time><name>PT1510</name></trkpt>
<trkpt lat="53.220872" lon="-1.990206"><ele>382</ele><time>2020-10-17T11:12:06Z</time><name>PT1511</name></trkpt>
<trkpt lat="53.220865" lon="-1.990206"><ele>382</ele><time>2020-10-17T11:12:09Z</time><name>PT1512</name></trkpt>
<trkpt lat="53.220832" lon="-1.990186"><ele>383</ele><time>2020-10-17T11:12:24Z</time><name>PT1513</name></trkpt>
<trkpt lat="53.220803" lon="-1.990188"><ele>382</ele><time>2020-10-17T11:12:28Z</time><name>PT1514</name></trkpt>
<trkpt lat="53.220789" lon="-1.990188"><ele>382</ele><time>2020-10-17T11:12:32Z</time><name>PT1515</name></trkpt>
<trkpt lat="53.220782" lon="-1.990185"><ele>382</ele><time>2020-10-17T11:12:36Z</time><name>PT1516</name></trkpt>
<trkpt lat="53.220777" lon="-1.990176"><ele>383</ele><time>2020-10-17T11:12:40Z</time><name>PT1517</name></trkpt>
<trkpt lat="53.220770" lon="-1.990157"><ele>382</ele><time>2020-10-17T11:12:43Z</time><name>PT1518</name></trkpt>
<trkpt lat="53.220735" lon="-1.990146"><ele>381</ele><time>2020-10-17T11:12:47Z</time><name>PT1519</name></trkpt>
<trkpt lat="53.220701" lon="-1.990125"><ele>381</ele><time>2020-10-17T11:12:50Z</time><name>PT1520</name></trkpt>
<trkpt lat="53.220668" lon="-1.990130"><ele>380</ele><time>2020-10-17T11:12:54Z</time><name>PT1521</name></trkpt>
<trkpt lat="53.220635" lon="-1.990112"><ele>380</ele><time>2020-10-17T11:12:57Z</time><name>PT1522</name></trkpt>
<trkpt lat="53.220595" lon="-1.990070"><ele>380</ele><time>2020-10-17T11:13:01Z</time><name>PT1523</name></trkpt>
<trkpt lat="53.220563" lon="-1.990045"><ele>379</ele><time>2020-10-17T11:13:04Z</time><name>PT1524</name></trkpt>
<trkpt lat="53.220528" lon="-1.990031"><ele>379</ele><time>2020-10-17T11:13:08Z</time><name>PT1525</name></trkpt>
<trkpt lat="53.220477" lon="-1.990010"><ele>380</ele><time>2020-10-17T11:13:12Z</time><name>PT1526</name></trkpt>
<trkpt lat="53.220453" lon="-1.990025"><ele>379</ele><time>2020-10-17T11:13:15Z</time><name>PT1527</name></trkpt>
<trkpt lat="53.220422" lon="-1.990049"><ele>379</ele><time>2020-10-17T11:13:19Z</time><name>PT1528</name></trkpt>
<trkpt lat="53.220383" lon="-1.990041"><ele>379</ele><time>2020-10-17T11:13:23Z</time><name>PT1529</name></trkpt>
<trkpt lat="53.220342" lon="-1.990021"><ele>380</ele><time>2020-10-17T11:13:27Z</time><name>PT1530</name></trkpt>
<trkpt lat="53.220305" lon="-1.990008"><ele>380</ele><time>2020-10-17T11:13:31Z</time><name>PT1531</name></trkpt>
<trkpt lat="53.220274" lon="-1.989994"><ele>380</ele><time>2020-10-17T11:13:34Z</time><name>PT1532</name></trkpt>
<trkpt lat="53.220233" lon="-1.989979"><ele>380</ele><time>2020-10-17T11:13:38Z</time><name>PT1533</name></trkpt>
<trkpt lat="53.220210" lon="-1.989980"><ele>380</ele><time>2020-10-17T11:13:41Z</time><name>PT1534</name></trkpt>
<trkpt lat="53.220174" lon="-1.989957"><ele>380</ele><time>2020-10-17T11:13:45Z</time><name>PT1535</name></trkpt>
<trkpt lat="53.220130" lon="-1.989923"><ele>379</ele><time>2020-10-17T11:13:49Z</time><name>PT1536</name></trkpt>
<trkpt lat="53.220104" lon="-1.989908"><ele>380</ele><time>2020-10-17T11:13:53Z</time><name>PT1537</name></trkpt>
<trkpt lat="53.220076" lon="-1.989894"><ele>379</ele><time>2020-10-17T11:13:56Z</time><name>PT1538</name></trkpt>
<trkpt lat="53.220026" lon="-1.989907"><ele>379</ele><time>2020-10-17T11:14:00Z</time><name>PT1539</name></trkpt>
<trkpt lat="53.219984" lon="-1.989922"><ele>378</ele><time>2020-10-17T11:14:04Z</time><name>PT1540</name></trkpt>
<trkpt lat="53.219946" lon="-1.989932"><ele>379</ele><time>2020-10-17T11:14:07Z</time><name>PT1541</name></trkpt>
<trkpt lat="53.219908" lon="-1.989953"><ele>378</ele><time>2020-10-17T11:14:11Z</time><name>PT1542</name></trkpt>
<trkpt lat="53.219879" lon="-1.989961"><ele>378</ele><time>2020-10-17T11:14:15Z</time><name>PT1543</name></trkpt>
<trkpt lat="53.219835" lon="-1.989979"><ele>378</ele><time>2020-10-17T11:14:18Z</time><name>PT1544</name></trkpt>
<trkpt lat="53.219799" lon="-1.989994"><ele>379</ele><time>2020-10-17T11:14:21Z</time><name>PT1545</name></trkpt>
<trkpt lat="53.219764" lon="-1.990009"><ele>379</ele><time>2020-10-17T11:14:24Z</time><name>PT1546</name></trkpt>
<trkpt lat="53.219726" lon="-1.990028"><ele>378</ele><time>2020-10-17T11:14:28Z</time><name>PT1547</name></trkpt>
<trkpt lat="53.219688" lon="-1.990045"><ele>377</ele><time>2020-10-17T11:14:32Z</time><name>PT1548</name></trkpt>
<trkpt lat="53.219643" lon="-1.990062"><ele>377</ele><time>2020-10-17T11:14:36Z</time><name>PT1549</name></trkpt>
<trkpt lat="53.219604" lon="-1.990065"><ele>377</ele><time>2020-10-17T11:14:39Z</time><name>PT1550</name></trkpt>
<trkpt lat="53.219562" lon="-1.990075"><ele>376</ele><time>2020-10-17T11:14:43Z</time><name>PT1551</name></trkpt>
<trkpt lat="53.219529" lon="-1.990083"><ele>376</ele><time>2020-10-17T11:14:47Z</time><name>PT1552</name></trkpt>
<trkpt lat="53.219505" lon="-1.990087"><ele>376</ele><time>2020-10-17T11:14:50Z</time><name>PT1553</name></trkpt>
<trkpt lat="53.219476" lon="-1.990092"><ele>376</ele><time>2020-10-17T11:14:54Z</time><name>PT1554</name></trkpt>
<trkpt lat="53.219456" lon="-1.990096"><ele>376</ele><time>2020-10-17T11:14:57Z</time><name>PT1555</name></trkpt>
<trkpt lat="53.219438" lon="-1.990091"><ele>375</ele><time>2020-10-17T11:15:01Z</time><name>PT1556</name></trkpt>
<trkpt lat="53.219407" lon="-1.990092"><ele>375</ele><time>2020-10-17T11:15:06Z</time><name>PT1557</name></trkpt>
<trkpt lat="53.219378" lon="-1.990069"><ele>375</ele><time>2020-10-17T11:15:09Z</time><name>PT1558</name></trkpt>
<trkpt lat="53.219339" lon="-1.990064"><ele>374</ele><time>2020-10-17T11:15:13Z</time><name>PT1559</name></trkpt>
<trkpt lat="53.219320" lon="-1.990046"><ele>374</ele><time>2020-10-17T11:15:16Z</time><name>PT1560</name></trkpt>
<trkpt lat="53.219287" lon="-1.990004"><ele>374</ele><time>2020-10-17T11:15:20Z</time><name>PT1561</name></trkpt>
<trkpt lat="53.219255" lon="-1.989989"><ele>374</ele><time>2020-10-17T11:15:23Z</time><name>PT1562</name></trkpt>
<trkpt lat="53.219222" lon="-1.989963"><ele>375</ele><time>2020-10-17T11:15:26Z</time><name>PT1563</name></trkpt>
<trkpt lat="53.219179" lon="-1.989934"><ele>375</ele><time>2020-10-17T11:15:30Z</time><name>PT1564</name></trkpt>
<trkpt lat="53.219141" lon="-1.989912"><ele>375</ele><time>2020-10-17T11:15:34Z</time><name>PT1565</name></trkpt>
<trkpt lat="53.219112" lon="-1.989902"><ele>374</ele><time>2020-10-17T11:15:37Z</time><name>PT1566</name></trkpt>
<trkpt lat="53.219070" lon="-1.989884"><ele>374</ele><time>2020-10-17T11:15:41Z</time><name>PT1567</name></trkpt>
<trkpt lat="53.219031" lon="-1.989879"><ele>374</ele><time>2020-10-17T11:15:45Z</time><name>PT1568</name></trkpt>
<trkpt lat="53.218992" lon="-1.989869"><ele>374</ele><time>2020-10-17T11:15:49Z</time><name>PT1569</name></trkpt>
<trkpt lat="53.218963" lon="-1.989856"><ele>374</ele><time>2020-10-17T11:15:52Z</time><name>PT1570</name></trkpt>
<trkpt lat="53.218918" lon="-1.989851"><ele>375</ele><time>2020-10-17T11:15:56Z</time><name>PT1571</name></trkpt>
<trkpt lat="53.218894" lon="-1.989864"><ele>375</ele><time>2020-10-17T11:15:59Z</time><name>PT1572</name></trkpt>
<trkpt lat="53.218857" lon="-1.989869"><ele>375</ele><time>2020-10-17T11:16:03Z</time><name>PT1573</name></trkpt>
<trkpt lat="53.218825" lon="-1.989862"><ele>375</ele><time>2020-10-17T11:16:06Z</time><name>PT1574</name></trkpt>
<trkpt lat="53.218795" lon="-1.989851"><ele>375</ele><time>2020-10-17T11:16:09Z</time><name>PT1575</name></trkpt>
<trkpt lat="53.218752" lon="-1.989832"><ele>375</ele><time>2020-10-17T11:16:13Z</time><name>PT1576</name></trkpt>
<trkpt lat="53.218711" lon="-1.989811"><ele>375</ele><time>2020-10-17T11:16:17Z</time><name>PT1577</name></trkpt>
<trkpt lat="53.218671" lon="-1.989801"><ele>374</ele><time>2020-10-17T11:16:21Z</time><name>PT1578</name></trkpt>
<trkpt lat="53.218625" lon="-1.989794"><ele>374</ele><time>2020-10-17T11:16:25Z</time><name>PT1579</name></trkpt>
<trkpt lat="53.218581" lon="-1.989789"><ele>373</ele><time>2020-10-17T11:16:29Z</time><name>PT1580</name></trkpt>
<trkpt lat="53.218552" lon="-1.989786"><ele>373</ele><time>2020-10-17T11:16:32Z</time><name>PT1581</name></trkpt>
<trkpt lat="53.218521" lon="-1.989784"><ele>372</ele><time>2020-10-17T11:16:36Z</time><name>PT1582</name></trkpt>
<trkpt lat="53.218475" lon="-1.989774"><ele>373</ele><time>2020-10-17T11:16:39Z</time><name>PT1583</name></trkpt>
<trkpt lat="53.218441" lon="-1.989759"><ele>373</ele><time>2020-10-17T11:16:42Z</time><name>PT1584</name></trkpt>
<trkpt lat="53.218395" lon="-1.989752"><ele>373</ele><time>2020-10-17T11:16:46Z</time><name>PT1585</name></trkpt>
<trkpt lat="53.218357" lon="-1.989748"><ele>373</ele><time>2020-10-17T11:16:49Z</time><name>PT1586</name></trkpt>
<trkpt lat="53.218332" lon="-1.989749"><ele>373</ele><time>2020-10-17T11:16:52Z</time><name>PT1587</name></trkpt>
<trkpt lat="53.218293" lon="-1.989747"><ele>372</ele><time>2020-10-17T11:16:56Z</time><name>PT1588</name></trkpt>
<trkpt lat="53.218265" lon="-1.989715"><ele>374</ele><time>2020-10-17T11:16:59Z</time><name>PT1589</name></trkpt>
<trkpt lat="53.218261" lon="-1.989710"><ele>374</ele><time>2020-10-17T11:17:02Z</time><name>PT1590</name></trkpt>
<trkpt lat="53.218235" lon="-1.989706"><ele>375</ele><time>2020-10-17T11:17:13Z</time><name>PT1591</name></trkpt>
<trkpt lat="53.218211" lon="-1.989708"><ele>375</ele><time>2020-10-17T11:17:16Z</time><name>PT1592</name></trkpt>
<trkpt lat="53.218172" lon="-1.989718"><ele>374</ele><time>2020-10-17T11:17:20Z</time><name>PT1593</name></trkpt>
<trkpt lat="53.218152" lon="-1.989713"><ele>374</ele><time>2020-10-17T11:17:23Z</time><name>PT1594</name></trkpt>
<trkpt lat="53.218119" lon="-1.989723"><ele>375</ele><time>2020-10-17T11:17:26Z</time><name>PT1595</name></trkpt>
<trkpt lat="53.218105" lon="-1.989751"><ele>374</ele><time>2020-10-17T11:17:29Z</time><name>PT1596</name></trkpt>
<trkpt lat="53.218081" lon="-1.989754"><ele>374</ele><time>2020-10-17T11:17:33Z</time><name>PT1597</name></trkpt>
<trkpt lat="53.218070" lon="-1.989758"><ele>373</ele><time>2020-10-17T11:17:36Z</time><name>PT1598</name></trkpt>
<trkpt lat="53.218061" lon="-1.989756"><ele>372</ele><time>2020-10-17T11:17:39Z</time><name>PT1599</name></trkpt>
<trkpt lat="53.218047" lon="-1.989748"><ele>372</ele><time>2020-10-17T11:17:42Z</time><name>PT1600</name></trkpt>
<trkpt lat="53.218021" lon="-1.989731"><ele>372</ele><time>2020-10-17T11:17:45Z</time><name>PT1601</name></trkpt>
<trkpt lat="53.217997" lon="-1.989718"><ele>371</ele><time>2020-10-17T11:17:48Z</time><name>PT1602</name></trkpt>
<trkpt lat="53.217965" lon="-1.989716"><ele>370</ele><time>2020-10-17T11:17:52Z</time><name>PT1603</name></trkpt>
<trkpt lat="53.217941" lon="-1.989722"><ele>370</ele><time>2020-10-17T11:17:55Z</time><name>PT1604</name></trkpt>
<trkpt lat="53.217909" lon="-1.989725"><ele>369</ele><time>2020-10-17T11:17:59Z</time><name>PT1605</name></trkpt>
<trkpt lat="53.217889" lon="-1.989727"><ele>368</ele><time>2020-10-17T11:18:02Z</time><name>PT1606</name></trkpt>
<trkpt lat="53.217864" lon="-1.989711"><ele>368</ele><time>2020-10-17T11:18:05Z</time><name>PT1607</name></trkpt>
<trkpt lat="53.217842" lon="-1.989699"><ele>368</ele><time>2020-10-17T11:18:08Z</time><name>PT1608</name></trkpt>
<trkpt lat="53.217803" lon="-1.989671"><ele>368</ele><time>2020-10-17T11:18:12Z</time><name>PT1609</name></trkpt>
<trkpt lat="53.217772" lon="-1.989672"><ele>368</ele><time>2020-10-17T11:18:15Z</time><name>PT1610</name></trkpt>
<trkpt lat="53.217736" lon="-1.989657"><ele>367</ele><time>2020-10-17T11:18:19Z</time><name>PT1611</name></trkpt>
<trkpt lat="53.217709" lon="-1.989633"><ele>367</ele><time>2020-10-17T11:18:23Z</time><name>PT1612</name></trkpt>
<trkpt lat="53.217691" lon="-1.989602"><ele>365</ele><time>2020-10-17T11:18:27Z</time><name>PT1613</name></trkpt>
<trkpt lat="53.217670" lon="-1.989595"><ele>365</ele><time>2020-10-17T11:18:31Z</time><name>PT1614</name></trkpt>
<trkpt lat="53.217635" lon="-1.989589"><ele>366</ele><time>2020-10-17T11:18:35Z</time><name>PT1615</name></trkpt>
<trkpt lat="53.217594" lon="-1.989591"><ele>366</ele><time>2020-10-17T11:18:39Z</time><name>PT1616</name></trkpt>
<trkpt lat="53.217547" lon="-1.989578"><ele>366</ele><time>2020-10-17T11:18:43Z</time><name>PT1617</name></trkpt>
<trkpt lat="53.217512" lon="-1.989589"><ele>366</ele><time>2020-10-17T11:18:46Z</time><name>PT1618</name></trkpt>
<trkpt lat="53.217464" lon="-1.989616"><ele>367</ele><time>2020-10-17T11:18:50Z</time><name>PT1619</name></trkpt>
<trkpt lat="53.217432" lon="-1.989644"><ele>367</ele><time>2020-10-17T11:18:54Z</time><name>PT1620</name></trkpt>
<trkpt lat="53.217402" lon="-1.989680"><ele>368</ele><time>2020-10-17T11:18:57Z</time><name>PT1621</name></trkpt>
<trkpt lat="53.217385" lon="-1.989730"><ele>368</ele><time>2020-10-17T11:19:01Z</time><name>PT1622</name></trkpt>
<trkpt lat="53.217365" lon="-1.989770"><ele>368</ele><time>2020-10-17T11:19:04Z</time><name>PT1623</name></trkpt>
<trkpt lat="53.217332" lon="-1.989817"><ele>369</ele><time>2020-10-17T11:19:08Z</time><name>PT1624</name></trkpt>
<trkpt lat="53.217300" lon="-1.989843"><ele>369</ele><time>2020-10-17T11:19:12Z</time><name>PT1625</name></trkpt>
<trkpt lat="53.217279" lon="-1.989869"><ele>369</ele><time>2020-10-17T11:19:16Z</time><name>PT1626</name></trkpt>
<trkpt lat="53.217263" lon="-1.989880"><ele>370</ele><time>2020-10-17T11:19:20Z</time><name>PT1627</name></trkpt>
<trkpt lat="53.217250" lon="-1.989903"><ele>370</ele><time>2020-10-17T11:19:23Z</time><name>PT1628</name></trkpt>
<trkpt lat="53.217226" lon="-1.989922"><ele>371</ele><time>2020-10-17T11:19:26Z</time><name>PT1629</name></trkpt>
<trkpt lat="53.217225" lon="-1.989920"><ele>371</ele><time>2020-10-17T11:19:30Z</time><name>PT1630</name></trkpt>
<trkpt lat="53.217211" lon="-1.989894"><ele>371</ele><time>2020-10-17T11:19:33Z</time><name>PT1631</name></trkpt>
<trkpt lat="53.217179" lon="-1.989869"><ele>371</ele><time>2020-10-17T11:19:37Z</time><name>PT1632</name></trkpt>
<trkpt lat="53.217157" lon="-1.989859"><ele>371</ele><time>2020-10-17T11:19:40Z</time><name>PT1633</name></trkpt>
<trkpt lat="53.217131" lon="-1.989862"><ele>370</ele><time>2020-10-17T11:19:44Z</time><name>PT1634</name></trkpt>
<trkpt lat="53.217123" lon="-1.989860"><ele>370</ele><time>2020-10-17T11:19:47Z</time><name>PT1635</name></trkpt>
<trkpt lat="53.217107" lon="-1.989851"><ele>369</ele><time>2020-10-17T11:19:51Z</time><name>PT1636</name></trkpt>
<trkpt lat="53.217083" lon="-1.989836"><ele>369</ele><time>2020-10-17T11:19:54Z</time><name>PT1637</name></trkpt>
<trkpt lat="53.217054" lon="-1.989819"><ele>369</ele><time>2020-10-17T11:19:57Z</time><name>PT1638</name></trkpt>
<trkpt lat="53.217022" lon="-1.989812"><ele>369</ele><time>2020-10-17T11:20:00Z</time><name>PT1639</name></trkpt>
<trkpt lat="53.216990" lon="-1.989798"><ele>369</ele><time>2020-10-17T11:20:03Z</time><name>PT1640</name></trkpt>
<trkpt lat="53.216951" lon="-1.989795"><ele>368</ele><time>2020-10-17T11:20:07Z</time><name>PT1641</name></trkpt>
<trkpt lat="53.216906" lon="-1.989798"><ele>368</ele><time>2020-10-17T11:20:11Z</time><name>PT1642</name></trkpt>
<trkpt lat="53.216871" lon="-1.989806"><ele>368</ele><time>2020-10-17T11:20:14Z</time><name>PT1643</name></trkpt>
<trkpt lat="53.216834" lon="-1.989811"><ele>368</ele><time>2020-10-17T11:20:18Z</time><name>PT1644</name></trkpt>
<trkpt lat="53.216790" lon="-1.989818"><ele>367</ele><time>2020-10-17T11:20:22Z</time><name>PT1645</name></trkpt>
<trkpt lat="53.216756" lon="-1.989834"><ele>367</ele><time>2020-10-17T11:20:25Z</time><name>PT1646</name></trkpt>
<trkpt lat="53.216715" lon="-1.989844"><ele>367</ele><time>2020-10-17T11:20:29Z</time><name>PT1647</name></trkpt>
<trkpt lat="53.216683" lon="-1.989826"><ele>368</ele><time>2020-10-17T11:20:32Z</time><name>PT1648</name></trkpt>
<trkpt lat="53.216650" lon="-1.989805"><ele>368</ele><time>2020-10-17T11:20:36Z</time><name>PT1649</name></trkpt>
<trkpt lat="53.216642" lon="-1.989794"><ele>368</ele><time>2020-10-17T11:20:40Z</time><name>PT1650</name></trkpt>
<trkpt lat="53.216635" lon="-1.989768"><ele>369</ele><time>2020-10-17T11:21:08Z</time><name>PT1651</name></trkpt>
<trkpt lat="53.216635" lon="-1.989764"><ele>369</ele><time>2020-10-17T11:21:11Z</time><name>PT1652</name></trkpt>
<trkpt lat="53.216613" lon="-1.989776"><ele>370</ele><time>2020-10-17T11:21:15Z</time><name>PT1653</name></trkpt>
<trkpt lat="53.216579" lon="-1.989812"><ele>370</ele><time>2020-10-17T11:21:19Z</time><name>PT1654</name></trkpt>
<trkpt lat="53.216549" lon="-1.989842"><ele>369</ele><time>2020-10-17T11:21:23Z</time><name>PT1655</name></trkpt>
<trkpt lat="53.216514" lon="-1.989866"><ele>370</ele><time>2020-10-17T11:21:27Z</time><name>PT1656</name></trkpt>
<trkpt lat="53.216486" lon="-1.989882"><ele>369</ele><time>2020-10-17T11:21:31Z</time><name>PT1657</name></trkpt>
<trkpt lat="53.216448" lon="-1.989903"><ele>370</ele><time>2020-10-17T11:21:35Z</time><name>PT1658</name></trkpt>
<trkpt lat="53.216412" lon="-1.989917"><ele>370</ele><time>2020-10-17T11:21:39Z</time><name>PT1659</name></trkpt>
<trkpt lat="53.216379" lon="-1.989926"><ele>370</ele><time>2020-10-17T11:21:43Z</time><name>PT1660</name></trkpt>
<trkpt lat="53.216355" lon="-1.989939"><ele>369</ele><time>2020-10-17T11:21:46Z</time><name>PT1661</name></trkpt>
<trkpt lat="53.216319" lon="-1.989951"><ele>369</ele><time>2020-10-17T11:21:49Z</time><name>PT1662</name></trkpt>
<trkpt lat="53.216274" lon="-1.989963"><ele>369</ele><time>2020-10-17T11:21:53Z</time><name>PT1663</name></trkpt>
<trkpt lat="53.216235" lon="-1.989984"><ele>370</ele><time>2020-10-17T11:21:57Z</time><name>PT1664</name></trkpt>
<trkpt lat="53.216192" lon="-1.989997"><ele>369</ele><time>2020-10-17T11:22:01Z</time><name>PT1665</name></trkpt>
<trkpt lat="53.216160" lon="-1.989994"><ele>369</ele><time>2020-10-17T11:22:04Z</time><name>PT1666</name></trkpt>
<trkpt lat="53.216129" lon="-1.989993"><ele>369</ele><time>2020-10-17T11:22:07Z</time><name>PT1667</name></trkpt>
<trkpt lat="53.216091" lon="-1.989982"><ele>369</ele><time>2020-10-17T11:22:10Z</time><name>PT1668</name></trkpt>
<trkpt lat="53.216040" lon="-1.989968"><ele>369</ele><time>2020-10-17T11:22:14Z</time><name>PT1669</name></trkpt>
<trkpt lat="53.216005" lon="-1.989964"><ele>369</ele><time>2020-10-17T11:22:17Z</time><name>PT1670</name></trkpt>
<trkpt lat="53.215957" lon="-1.989961"><ele>369</ele><time>2020-10-17T11:22:21Z</time><name>PT1671</name></trkpt>
<trkpt lat="53.215913" lon="-1.989955"><ele>369</ele><time>2020-10-17T11:22:25Z</time><name>PT1672</name></trkpt>
<trkpt lat="53.215863" lon="-1.989938"><ele>369</ele><time>2020-10-17T11:22:29Z</time><name>PT1673</name></trkpt>
<trkpt lat="53.215812" lon="-1.989934"><ele>369</ele><time>2020-10-17T11:22:33Z</time><name>PT1674</name></trkpt>
<trkpt lat="53.215776" lon="-1.989932"><ele>370</ele><time>2020-10-17T11:22:36Z</time><name>PT1675</name></trkpt>
<trkpt lat="53.215754" lon="-1.989909"><ele>370</ele><time>2020-10-17T11:22:39Z</time><name>PT1676</name></trkpt>
<trkpt lat="53.215707" lon="-1.989873"><ele>369</ele><time>2020-10-17T11:22:43Z</time><name>PT1677</name></trkpt>
<trkpt lat="53.215688" lon="-1.989846"><ele>370</ele><time>2020-10-17T11:22:47Z</time><name>PT1678</name></trkpt>
<trkpt lat="53.215685" lon="-1.989846"><ele>370</ele><time>2020-10-17T11:22:50Z</time><name>PT1679</name></trkpt>
<trkpt lat="53.215653" lon="-1.989802"><ele>369</ele><time>2020-10-17T11:22:58Z</time><name>PT1680</name></trkpt>
<trkpt lat="53.215619" lon="-1.989777"><ele>369</ele><time>2020-10-17T11:23:01Z</time><name>PT1681</name></trkpt>
<trkpt lat="53.215584" lon="-1.989761"><ele>369</ele><time>2020-10-17T11:23:04Z</time><name>PT1682</name></trkpt>
<trkpt lat="53.215542" lon="-1.989737"><ele>369</ele><time>2020-10-17T11:23:08Z</time><name>PT1683</name></trkpt>
<trkpt lat="53.215502" lon="-1.989696"><ele>368</ele><time>2020-10-17T11:23:12Z</time><name>PT1684</name></trkpt>
<trkpt lat="53.215473" lon="-1.989636"><ele>369</ele><time>2020-10-17T11:23:16Z</time><name>PT1685</name></trkpt>
<trkpt lat="53.215452" lon="-1.989599"><ele>368</ele><time>2020-10-17T11:23:19Z</time><name>PT1686</name></trkpt>
<trkpt lat="53.215427" lon="-1.989561"><ele>368</ele><time>2020-10-17T11:23:22Z</time><name>PT1687</name></trkpt>
<trkpt lat="53.215391" lon="-1.989521"><ele>367</ele><time>2020-10-17T11:23:26Z</time><name>PT1688</name></trkpt>
<trkpt lat="53.215366" lon="-1.989478"><ele>367</ele><time>2020-10-17T11:23:29Z</time><name>PT1689</name></trkpt>
<trkpt lat="53.215336" lon="-1.989423"><ele>368</ele><time>2020-10-17T11:23:32Z</time><name>PT1690</name></trkpt>
<trkpt lat="53.215306" lon="-1.989357"><ele>368</ele><time>2020-10-17T11:23:36Z</time><name>PT1691</name></trkpt>
<trkpt lat="53.215270" lon="-1.989300"><ele>367</ele><time>2020-10-17T11:23:40Z</time><name>PT1692</name></trkpt>
<trkpt lat="53.215242" lon="-1.989252"><ele>367</ele><time>2020-10-17T11:23:43Z</time><name>PT1693</name></trkpt>
<trkpt lat="53.215209" lon="-1.989209"><ele>367</ele><time>2020-10-17T11:23:46Z</time><name>PT1694</name></trkpt>
<trkpt lat="53.215166" lon="-1.989157"><ele>368</ele><time>2020-10-17T11:23:50Z</time><name>PT1695</name></trkpt>
<trkpt lat="53.215138" lon="-1.989113"><ele>368</ele><time>2020-10-17T11:23:53Z</time><name>PT1696</name></trkpt>
<trkpt lat="53.215108" lon="-1.989079"><ele>368</ele><time>2020-10-17T11:23:56Z</time><name>PT1697</name></trkpt>
<trkpt lat="53.215077" lon="-1.989035"><ele>368</ele><time>2020-10-17T11:23:59Z</time><name>PT1698</name></trkpt>
<trkpt lat="53.215041" lon="-1.988998"><ele>367</ele><time>2020-10-17T11:24:03Z</time><name>PT1699</name></trkpt>
<trkpt lat="53.215009" lon="-1.988951"><ele>367</ele><time>2020-10-17T11:24:07Z</time><name>PT1700</name></trkpt>
<trkpt lat="53.214984" lon="-1.988907"><ele>367</ele><time>2020-10-17T11:24:10Z</time><name>PT1701</name></trkpt>
<trkpt lat="53.214962" lon="-1.988866"><ele>367</ele><time>2020-10-17T11:24:13Z</time><name>PT1702</name></trkpt>
<trkpt lat="53.214934" lon="-1.988817"><ele>366</ele><time>2020-10-17T11:24:17Z</time><name>PT1703</name></trkpt>
<trkpt lat="53.214907" lon="-1.988767"><ele>366</ele><time>2020-10-17T11:24:21Z</time><name>PT1704</name></trkpt>
<trkpt lat="53.214893" lon="-1.988735"><ele>365</ele><time>2020-10-17T11:24:24Z</time><name>PT1705</name></trkpt>
<trkpt lat="53.214879" lon="-1.988699"><ele>364</ele><time>2020-10-17T11:24:27Z</time><name>PT1706</name></trkpt>
<trkpt lat="53.214852" lon="-1.988651"><ele>363</ele><time>2020-10-17T11:24:31Z</time><name>PT1707</name></trkpt>
<trkpt lat="53.214826" lon="-1.988603"><ele>362</ele><time>2020-10-17T11:24:35Z</time><name>PT1708</name></trkpt>
<trkpt lat="53.214798" lon="-1.988566"><ele>362</ele><time>2020-10-17T11:24:38Z</time><name>PT1709</name></trkpt>
<trkpt lat="53.214754" lon="-1.988511"><ele>363</ele><time>2020-10-17T11:24:42Z</time><name>PT1710</name></trkpt>
<trkpt lat="53.214713" lon="-1.988467"><ele>362</ele><time>2020-10-17T11:24:46Z</time><name>PT1711</name></trkpt>
<trkpt lat="53.214690" lon="-1.988431"><ele>362</ele><time>2020-10-17T11:24:49Z</time><name>PT1712</name></trkpt>
<trkpt lat="53.214664" lon="-1.988374"><ele>362</ele><time>2020-10-17T11:24:53Z</time><name>PT1713</name></trkpt>
<trkpt lat="53.214640" lon="-1.988329"><ele>361</ele><time>2020-10-17T11:24:57Z</time><name>PT1714</name></trkpt>
<trkpt lat="53.214619" lon="-1.988301"><ele>361</ele><time>2020-10-17T11:25:00Z</time><name>PT1715</name></trkpt>
<trkpt lat="53.214599" lon="-1.988258"><ele>360</ele><time>2020-10-17T11:25:03Z</time><name>PT1716</name></trkpt>
<trkpt lat="53.214578" lon="-1.988228"><ele>359</ele><time>2020-10-17T11:25:06Z</time><name>PT1717</name></trkpt>
<trkpt lat="53.214542" lon="-1.988182"><ele>359</ele><time>2020-10-17T11:25:10Z</time><name>PT1718</name></trkpt>
<trkpt lat="53.214515" lon="-1.988150"><ele>359</ele><time>2020-10-17T11:25:13Z</time><name>PT1719</name></trkpt>
<trkpt lat="53.214487" lon="-1.988121"><ele>359</ele><time>2020-10-17T11:25:16Z</time><name>PT1720</name></trkpt>
<trkpt lat="53.214464" lon="-1.988074"><ele>357</ele><time>2020-10-17T11:25:20Z</time><name>PT1721</name></trkpt>
<trkpt lat="53.214429" lon="-1.988047"><ele>356</ele><time>2020-10-17T11:25:24Z</time><name>PT1722</name></trkpt>
<trkpt lat="53.214396" lon="-1.988002"><ele>355</ele><time>2020-10-17T11:25:28Z</time><name>PT1723</name></trkpt>
<trkpt lat="53.214357" lon="-1.987961"><ele>355</ele><time>2020-10-17T11:25:32Z</time><name>PT1724</name></trkpt>
<trkpt lat="53.214316" lon="-1.987924"><ele>354</ele><time>2020-10-17T11:25:36Z</time><name>PT1725</name></trkpt>
<trkpt lat="53.214283" lon="-1.987915"><ele>354</ele><time>2020-10-17T11:25:39Z</time><name>PT1726</name></trkpt>
<trkpt lat="53.214263" lon="-1.987887"><ele>354</ele><time>2020-10-17T11:25:43Z</time><name>PT1727</name></trkpt>
<trkpt lat="53.214229" lon="-1.987862"><ele>355</ele><time>2020-10-17T11:25:46Z</time><name>PT1728</name></trkpt>
<trkpt lat="53.214197" lon="-1.987834"><ele>355</ele><time>2020-10-17T11:25:49Z</time><name>PT1729</name></trkpt>
<trkpt lat="53.214168" lon="-1.987818"><ele>354</ele><time>2020-10-17T11:25:52Z</time><name>PT1730</name></trkpt>
<trkpt lat="53.214136" lon="-1.987799"><ele>354</ele><time>2020-10-17T11:25:55Z</time><name>PT1731</name></trkpt>
<trkpt lat="53.214096" lon="-1.987787"><ele>354</ele><time>2020-10-17T11:25:59Z</time><name>PT1732</name></trkpt>
<trkpt lat="53.214059" lon="-1.987764"><ele>353</ele><time>2020-10-17T11:26:03Z</time><name>PT1733</name></trkpt>
<trkpt lat="53.214029" lon="-1.987746"><ele>353</ele><time>2020-10-17T11:26:06Z</time><name>PT1734</name></trkpt>
<trkpt lat="53.213988" lon="-1.987716"><ele>353</ele><time>2020-10-17T11:26:10Z</time><name>PT1735</name></trkpt>
<trkpt lat="53.213949" lon="-1.987694"><ele>353</ele><time>2020-10-17T11:26:14Z</time><name>PT1736</name></trkpt>
<trkpt lat="53.213916" lon="-1.987684"><ele>353</ele><time>2020-10-17T11:26:17Z</time><name>PT1737</name></trkpt>
<trkpt lat="53.213895" lon="-1.987651"><ele>353</ele><time>2020-10-17T11:26:21Z</time><name>PT1738</name></trkpt>
<trkpt lat="53.213884" lon="-1.987633"><ele>353</ele><time>2020-10-17T11:26:24Z</time><name>PT1739</name></trkpt>
<trkpt lat="53.213875" lon="-1.987609"><ele>352</ele><time>2020-10-17T11:26:27Z</time><name>PT1740</name></trkpt>
<trkpt lat="53.213857" lon="-1.987584"><ele>351</ele><time>2020-10-17T11:26:31Z</time><name>PT1741</name></trkpt>
<trkpt lat="53.213845" lon="-1.987567"><ele>352</ele><time>2020-10-17T11:26:35Z</time><name>PT1742</name></trkpt>
<trkpt lat="53.213841" lon="-1.987548"><ele>353</ele><time>2020-10-17T11:26:39Z</time><name>PT1743</name></trkpt>
<trkpt lat="53.213850" lon="-1.987523"><ele>354</ele><time>2020-10-17T11:26:47Z</time><name>PT1744</name></trkpt>
<trkpt lat="53.213847" lon="-1.987518"><ele>353</ele><time>2020-10-17T11:27:01Z</time><name>PT1745</name></trkpt>
<trkpt lat="53.213845" lon="-1.987517"><ele>353</ele><time>2020-10-17T11:27:04Z</time><name>PT1746</name></trkpt>
<trkpt lat="53.213818" lon="-1.987512"><ele>352</ele><time>2020-10-17T11:27:10Z</time><name>PT1747</name></trkpt>
<trkpt lat="53.213818" lon="-1.987492"><ele>352</ele><time>2020-10-17T11:27:13Z</time><name>PT1748</name></trkpt>
<trkpt lat="53.213822" lon="-1.987510"><ele>350</ele><time>2020-10-17T11:27:46Z</time><name>PT1749</name></trkpt>
<trkpt lat="53.213795" lon="-1.987541"><ele>350</ele><time>2020-10-17T11:27:50Z</time><name>PT1750</name></trkpt>
<trkpt lat="53.213796" lon="-1.987552"><ele>350</ele><time>2020-10-17T11:28:15Z</time><name>PT1751</name></trkpt>
<trkpt lat="53.213801" lon="-1.987583"><ele>349</ele><time>2020-10-17T11:28:18Z</time><name>PT1752</name></trkpt>
<trkpt lat="53.213820" lon="-1.987607"><ele>348</ele><time>2020-10-17T11:28:22Z</time><name>PT1753</name></trkpt>
<trkpt lat="53.213825" lon="-1.987605"><ele>349</ele><time>2020-10-17T11:28:25Z</time><name>PT1754</name></trkpt>
<trkpt lat="53.213825" lon="-1.987607"><ele>350</ele><time>2020-10-17T11:28:28Z</time><name>PT1755</name></trkpt>
<trkpt lat="53.213814" lon="-1.987618"><ele>348</ele><time>2020-10-17T11:29:13Z</time><name>PT1756</name></trkpt>
<trkpt lat="53.213812" lon="-1.987623"><ele>348</ele><time>2020-10-17T11:29:17Z</time><name>PT1757</name></trkpt>
<trkpt lat="53.213803" lon="-1.987624"><ele>346</ele><time>2020-10-17T11:29:54Z</time><name>PT1758</name></trkpt>
<trkpt lat="53.213804" lon="-1.987619"><ele>345</ele><time>2020-10-17T11:30:07Z</time><name>PT1759</name></trkpt>
<trkpt lat="53.213811" lon="-1.987619"><ele>344</ele><time>2020-10-17T11:30:11Z</time><name>PT1760</name></trkpt>
<trkpt lat="53.213812" lon="-1.987622"><ele>345</ele><time>2020-10-17T11:30:14Z</time><name>PT1761</name></trkpt>
<trkpt lat="53.213819" lon="-1.987619"><ele>345</ele><time>2020-10-17T11:30:17Z</time><name>PT1762</name></trkpt>
<trkpt lat="53.213820" lon="-1.987637"><ele>345</ele><time>2020-10-17T11:30:24Z</time><name>PT1763</name></trkpt>
<trkpt lat="53.213821" lon="-1.987637"><ele>344</ele><time>2020-10-17T11:30:28Z</time><name>PT1764</name></trkpt>
<trkpt lat="53.213836" lon="-1.987622"><ele>343</ele><time>2020-10-17T11:31:07Z</time><name>PT1765</name></trkpt>
<trkpt lat="53.213837" lon="-1.987622"><ele>344</ele><time>2020-10-17T11:31:11Z</time><name>PT1766</name></trkpt>
<trkpt lat="53.213832" lon="-1.987616"><ele>346</ele><time>2020-10-17T11:32:53Z</time><name>PT1767</name></trkpt>
<trkpt lat="53.213837" lon="-1.987612"><ele>346</ele><time>2020-10-17T11:32:57Z</time><name>PT1768</name></trkpt>
<trkpt lat="53.213839" lon="-1.987611"><ele>347</ele><time>2020-10-17T11:33:00Z</time><name>PT1769</name></trkpt>
<trkpt lat="53.213844" lon="-1.987589"><ele>346</ele><time>2020-10-17T11:33:07Z</time><name>PT1770</name></trkpt>
<trkpt lat="53.213845" lon="-1.987587"><ele>346</ele><time>2020-10-17T11:33:10Z</time><name>PT1771</name></trkpt>
<trkpt lat="53.213852" lon="-1.987556"><ele>347</ele><time>2020-10-17T11:33:26Z</time><name>PT1772</name></trkpt>
<trkpt lat="53.213866" lon="-1.987513"><ele>347</ele><time>2020-10-17T11:33:30Z</time><name>PT1773</name></trkpt>
<trkpt lat="53.213871" lon="-1.987481"><ele>348</ele><time>2020-10-17T11:33:34Z</time><name>PT1774</name></trkpt>
<trkpt lat="53.213878" lon="-1.987472"><ele>348</ele><time>2020-10-17T11:33:37Z</time><name>PT1775</name></trkpt>
<trkpt lat="53.213880" lon="-1.987466"><ele>348</ele><time>2020-10-17T11:33:41Z</time><name>PT1776</name></trkpt>
<trkpt lat="53.213889" lon="-1.987464"><ele>349</ele><time>2020-10-17T11:33:44Z</time><name>PT1777</name></trkpt>
<trkpt lat="53.213892" lon="-1.987424"><ele>350</ele><time>2020-10-17T11:33:48Z</time><name>PT1778</name></trkpt>
<trkpt lat="53.213894" lon="-1.987390"><ele>351</ele><time>2020-10-17T11:33:51Z</time><name>PT1779</name></trkpt>
<trkpt lat="53.213877" lon="-1.987364"><ele>351</ele><time>2020-10-17T11:33:54Z</time><name>PT1780</name></trkpt>
<trkpt lat="53.213861" lon="-1.987326"><ele>351</ele><time>2020-10-17T11:33:58Z</time><name>PT1781</name></trkpt>
<trkpt lat="53.213842" lon="-1.987295"><ele>352</ele><time>2020-10-17T11:34:02Z</time><name>PT1782</name></trkpt>
<trkpt lat="53.213827" lon="-1.987278"><ele>352</ele><time>2020-10-17T11:34:05Z</time><name>PT1783</name></trkpt>
<trkpt lat="53.213802" lon="-1.987243"><ele>351</ele><time>2020-10-17T11:34:09Z</time><name>PT1784</name></trkpt>
<trkpt lat="53.213784" lon="-1.987214"><ele>351</ele><time>2020-10-17T11:34:12Z</time><name>PT1785</name></trkpt>
<trkpt lat="53.213765" lon="-1.987173"><ele>350</ele><time>2020-10-17T11:34:16Z</time><name>PT1786</name></trkpt>
<trkpt lat="53.213750" lon="-1.987142"><ele>349</ele><time>2020-10-17T11:34:20Z</time><name>PT1787</name></trkpt>
<trkpt lat="53.213712" lon="-1.987129"><ele>349</ele><time>2020-10-17T11:34:24Z</time><name>PT1788</name></trkpt>
<trkpt lat="53.213684" lon="-1.987137"><ele>348</ele><time>2020-10-17T11:34:27Z</time><name>PT1789</name></trkpt>
<trkpt lat="53.213652" lon="-1.987147"><ele>348</ele><time>2020-10-17T11:34:31Z</time><name>PT1790</name></trkpt>
<trkpt lat="53.213637" lon="-1.987176"><ele>347</ele><time>2020-10-17T11:34:35Z</time><name>PT1791</name></trkpt>
<trkpt lat="53.213607" lon="-1.987208"><ele>347</ele><time>2020-10-17T11:34:39Z</time><name>PT1792</name></trkpt>
<trkpt lat="53.213597" lon="-1.987227"><ele>347</ele><time>2020-10-17T11:34:42Z</time><name>PT1793</name></trkpt>
<trkpt lat="53.213587" lon="-1.987250"><ele>348</ele><time>2020-10-17T11:34:46Z</time><name>PT1794</name></trkpt>
<trkpt lat="53.213575" lon="-1.987231"><ele>349</ele><time>2020-10-17T11:35:00Z</time><name>PT1795</name></trkpt>
<trkpt lat="53.213559" lon="-1.987218"><ele>348</ele><time>2020-10-17T11:35:04Z</time><name>PT1796</name></trkpt>
<trkpt lat="53.213549" lon="-1.987215"><ele>349</ele><time>2020-10-17T11:35:11Z</time><name>PT1797</name></trkpt>
<trkpt lat="53.213517" lon="-1.987189"><ele>349</ele><time>2020-10-17T11:35:14Z</time><name>PT1798</name></trkpt>
<trkpt lat="53.213476" lon="-1.987167"><ele>348</ele><time>2020-10-17T11:35:17Z</time><name>PT1799</name></trkpt>
<trkpt lat="53.213431" lon="-1.987134"><ele>347</ele><time>2020-10-17T11:35:21Z</time><name>PT1800</name></trkpt>
<trkpt lat="53.213389" lon="-1.987114"><ele>345</ele><time>2020-10-17T11:35:25Z</time><name>PT1801</name></trkpt>
<trkpt lat="53.213353" lon="-1.987104"><ele>345</ele><time>2020-10-17T11:35:28Z</time><name>PT1802</name></trkpt>
<trkpt lat="53.213317" lon="-1.987091"><ele>345</ele><time>2020-10-17T11:35:31Z</time><name>PT1803</name></trkpt>
<trkpt lat="53.213276" lon="-1.987078"><ele>345</ele><time>2020-10-17T11:35:35Z</time><name>PT1804</name></trkpt>
<trkpt lat="53.213250" lon="-1.987074"><ele>346</ele><time>2020-10-17T11:35:38Z</time><name>PT1805</name></trkpt>
<trkpt lat="53.213216" lon="-1.987058"><ele>346</ele><time>2020-10-17T11:35:42Z</time><name>PT1806</name></trkpt>
<trkpt lat="53.213164" lon="-1.987044"><ele>346</ele><time>2020-10-17T11:35:46Z</time><name>PT1807</name></trkpt>
<trkpt lat="53.213115" lon="-1.987032"><ele>348</ele><time>2020-10-17T11:35:50Z</time><name>PT1808</name></trkpt>
<trkpt lat="53.213076" lon="-1.987010"><ele>348</ele><time>2020-10-17T11:35:53Z</time><name>PT1809</name></trkpt>
<trkpt lat="53.213041" lon="-1.986995"><ele>349</ele><time>2020-10-17T11:35:56Z</time><name>PT1810</name></trkpt>
<trkpt lat="53.213013" lon="-1.986981"><ele>349</ele><time>2020-10-17T11:36:00Z</time><name>PT1811</name></trkpt>
<trkpt lat="53.213008" lon="-1.986973"><ele>349</ele><time>2020-10-17T11:36:03Z</time><name>PT1812</name></trkpt>
<trkpt lat="53.213011" lon="-1.986968"><ele>348</ele><time>2020-10-17T11:36:07Z</time><name>PT1813</name></trkpt>
<trkpt lat="53.213017" lon="-1.986970"><ele>347</ele><time>2020-10-17T11:36:10Z</time><name>PT1814</name></trkpt>
<trkpt lat="53.213050" lon="-1.987005"><ele>348</ele><time>2020-10-17T11:36:14Z</time><name>PT1815</name></trkpt>
<trkpt lat="53.213068" lon="-1.987020"><ele>348</ele><time>2020-10-17T11:36:17Z</time><name>PT1816</name></trkpt>
<trkpt lat="53.213092" lon="-1.987007"><ele>347</ele><time>2020-10-17T11:36:21Z</time><name>PT1817</name></trkpt>
<trkpt lat="53.213106" lon="-1.986985"><ele>347</ele><time>2020-10-17T11:36:24Z</time><name>PT1818</name></trkpt>
<trkpt lat="53.213107" lon="-1.986983"><ele>347</ele><time>2020-10-17T11:36:28Z</time><name>PT1819</name></trkpt>
<trkpt lat="53.213086" lon="-1.986983"><ele>349</ele><time>2020-10-17T11:37:12Z</time><name>PT1820</name></trkpt>
<trkpt lat="53.213089" lon="-1.987010"><ele>349</ele><time>2020-10-17T11:37:15Z</time><name>PT1821</name></trkpt>
<trkpt lat="53.213067" lon="-1.987018"><ele>349</ele><time>2020-10-17T11:37:18Z</time><name>PT1822</name></trkpt>
<trkpt lat="53.213030" lon="-1.987002"><ele>350</ele><time>2020-10-17T11:37:22Z</time><name>PT1823</name></trkpt>
<trkpt lat="53.213001" lon="-1.986983"><ele>349</ele><time>2020-10-17T11:37:25Z</time><name>PT1824</name></trkpt>
<trkpt lat="53.212953" lon="-1.986963"><ele>350</ele><time>2020-10-17T11:37:29Z</time><name>PT1825</name></trkpt>
<trkpt lat="53.212923" lon="-1.986938"><ele>349</ele><time>2020-10-17T11:37:32Z</time><name>PT1826</name></trkpt>
<trkpt lat="53.212876" lon="-1.986908"><ele>349</ele><time>2020-10-17T11:37:36Z</time><name>PT1827</name></trkpt>
<trkpt lat="53.212843" lon="-1.986899"><ele>349</ele><time>2020-10-17T11:37:39Z</time><name>PT1828</name></trkpt>
<trkpt lat="53.212819" lon="-1.986886"><ele>348</ele><time>2020-10-17T11:37:42Z</time><name>PT1829</name></trkpt>
<trkpt lat="53.212784" lon="-1.986873"><ele>348</ele><time>2020-10-17T11:37:46Z</time><name>PT1830</name></trkpt>
<trkpt lat="53.212740" lon="-1.986864"><ele>349</ele><time>2020-10-17T11:37:50Z</time><name>PT1831</name></trkpt>
<trkpt lat="53.212693" lon="-1.986852"><ele>350</ele><time>2020-10-17T11:37:54Z</time><name>PT1832</name></trkpt>
<trkpt lat="53.212658" lon="-1.986831"><ele>350</ele><time>2020-10-17T11:37:57Z</time><name>PT1833</name></trkpt>
<trkpt lat="53.212622" lon="-1.986826"><ele>351</ele><time>2020-10-17T11:38:00Z</time><name>PT1834</name></trkpt>
<trkpt lat="53.212586" lon="-1.986804"><ele>352</ele><time>2020-10-17T11:38:03Z</time><name>PT1835</name></trkpt>
<trkpt lat="53.212544" lon="-1.986794"><ele>354</ele><time>2020-10-17T11:38:07Z</time><name>PT1836</name></trkpt>
<trkpt lat="53.212496" lon="-1.986782"><ele>354</ele><time>2020-10-17T11:38:11Z</time><name>PT1837</name></trkpt>
<trkpt lat="53.212461" lon="-1.986778"><ele>355</ele><time>2020-10-17T11:38:14Z</time><name>PT1838</name></trkpt>
<trkpt lat="53.212446" lon="-1.986785"><ele>355</ele><time>2020-10-17T11:38:17Z</time><name>PT1839</name></trkpt>
<trkpt lat="53.212445" lon="-1.986785"><ele>355</ele><time>2020-10-17T11:38:20Z</time><name>PT1840</name></trkpt>
<trkpt lat="53.212439" lon="-1.986785"><ele>356</ele><time>2020-10-17T11:38:27Z</time><name>PT1841</name></trkpt>
<trkpt lat="53.212392" lon="-1.986770"><ele>356</ele><time>2020-10-17T11:38:31Z</time><name>PT1842</name></trkpt>
<trkpt lat="53.212350" lon="-1.986767"><ele>357</ele><time>2020-10-17T11:38:35Z</time><name>PT1843</name></trkpt>
<trkpt lat="53.212319" lon="-1.986766"><ele>356</ele><time>2020-10-17T11:38:38Z</time><name>PT1844</name></trkpt>
<trkpt lat="53.212281" lon="-1.986759"><ele>356</ele><time>2020-10-17T11:38:41Z</time><name>PT1845</name></trkpt>
<trkpt lat="53.212236" lon="-1.986754"><ele>357</ele><time>2020-10-17T11:38:45Z</time><name>PT1846</name></trkpt>
<trkpt lat="53.212206" lon="-1.986753"><ele>357</ele><time>2020-10-17T11:38:48Z</time><name>PT1847</name></trkpt>
<trkpt lat="53.212162" lon="-1.986757"><ele>358</ele><time>2020-10-17T11:38:51Z</time><name>PT1848</name></trkpt>
<trkpt lat="53.212100" lon="-1.986756"><ele>359</ele><time>2020-10-17T11:38:55Z</time><name>PT1849</name></trkpt>
<trkpt lat="53.212061" lon="-1.986753"><ele>359</ele><time>2020-10-17T11:38:58Z</time><name>PT1850</name></trkpt>
<trkpt lat="53.212005" lon="-1.986738"><ele>360</ele><time>2020-10-17T11:39:02Z</time><name>PT1851</name></trkpt>
<trkpt lat="53.211957" lon="-1.986745"><ele>361</ele><time>2020-10-17T11:39:06Z</time><name>PT1852</name></trkpt>
<trkpt lat="53.211908" lon="-1.986772"><ele>361</ele><time>2020-10-17T11:39:10Z</time><name>PT1853</name></trkpt>
<trkpt lat="53.211873" lon="-1.986791"><ele>361</ele><time>2020-10-17T11:39:13Z</time><name>PT1854</name></trkpt>
<trkpt lat="53.211824" lon="-1.986807"><ele>361</ele><time>2020-10-17T11:39:17Z</time><name>PT1855</name></trkpt>
<trkpt lat="53.211793" lon="-1.986831"><ele>360</ele><time>2020-10-17T11:39:20Z</time><name>PT1856</name></trkpt>
<trkpt lat="53.211752" lon="-1.986876"><ele>360</ele><time>2020-10-17T11:39:24Z</time><name>PT1857</name></trkpt>
<trkpt lat="53.211721" lon="-1.986918"><ele>359</ele><time>2020-10-17T11:39:28Z</time><name>PT1858</name></trkpt>
<trkpt lat="53.211694" lon="-1.986939"><ele>357</ele><time>2020-10-17T11:39:31Z</time><name>PT1859</name></trkpt>
<trkpt lat="53.211658" lon="-1.986981"><ele>358</ele><time>2020-10-17T11:39:35Z</time><name>PT1860</name></trkpt>
<trkpt lat="53.211637" lon="-1.987021"><ele>356</ele><time>2020-10-17T11:39:39Z</time><name>PT1861</name></trkpt>
<trkpt lat="53.211615" lon="-1.987050"><ele>355</ele><time>2020-10-17T11:39:42Z</time><name>PT1862</name></trkpt>
<trkpt lat="53.211600" lon="-1.987070"><ele>355</ele><time>2020-10-17T11:39:46Z</time><name>PT1863</name></trkpt>
<trkpt lat="53.211591" lon="-1.987081"><ele>356</ele><time>2020-10-17T11:39:50Z</time><name>PT1864</name></trkpt>
<trkpt lat="53.211585" lon="-1.987085"><ele>355</ele><time>2020-10-17T11:39:53Z</time><name>PT1865</name></trkpt>
<trkpt lat="53.211583" lon="-1.987084"><ele>355</ele><time>2020-10-17T11:39:56Z</time><name>PT1866</name></trkpt>
<trkpt lat="53.211566" lon="-1.987101"><ele>355</ele><time>2020-10-17T11:40:00Z</time><name>PT1867</name></trkpt>
<trkpt lat="53.211547" lon="-1.987097"><ele>356</ele><time>2020-10-17T11:40:03Z</time><name>PT1868</name></trkpt>
<trkpt lat="53.211536" lon="-1.987098"><ele>356</ele><time>2020-10-17T11:40:07Z</time><name>PT1869</name></trkpt>
<trkpt lat="53.211532" lon="-1.987096"><ele>356</ele><time>2020-10-17T11:40:10Z</time><name>PT1870</name></trkpt>
<trkpt lat="53.211513" lon="-1.987109"><ele>355</ele><time>2020-10-17T11:40:37Z</time><name>PT1871</name></trkpt>
<trkpt lat="53.211487" lon="-1.987111"><ele>355</ele><time>2020-10-17T11:40:41Z</time><name>PT1872</name></trkpt>
<trkpt lat="53.211465" lon="-1.987113"><ele>354</ele><time>2020-10-17T11:40:44Z</time><name>PT1873</name></trkpt>
<trkpt lat="53.211430" lon="-1.987131"><ele>354</ele><time>2020-10-17T11:40:47Z</time><name>PT1874</name></trkpt>
<trkpt lat="53.211392" lon="-1.987148"><ele>356</ele><time>2020-10-17T11:40:51Z</time><name>PT1875</name></trkpt>
<trkpt lat="53.211383" lon="-1.987151"><ele>357</ele><time>2020-10-17T11:40:52Z</time><name>PT1876</name></trkpt>
<trkpt lat="53.211374" lon="-1.987151"><ele>357</ele><time>2020-10-17T11:40:53Z</time><name>PT1877</name></trkpt>
<trkpt lat="53.211366" lon="-1.987148"><ele>357</ele><time>2020-10-17T11:40:54Z</time><name>PT1878</name></trkpt>
<trkpt lat="53.211360" lon="-1.987150"><ele>357</ele><time>2020-10-17T11:40:55Z</time><name>PT1879</name></trkpt>
<trkpt lat="53.211352" lon="-1.987153"><ele>357</ele><time>2020-10-17T11:40:56Z</time><name>PT1880</name></trkpt>
<trkpt lat="53.211344" lon="-1.987155"><ele>357</ele><time>2020-10-17T11:40:57Z</time><name>PT1881</name></trkpt>
<trkpt lat="53.211336" lon="-1.987157"><ele>357</ele><time>2020-10-17T11:40:58Z</time><name>PT1882</name></trkpt>
<trkpt lat="53.211327" lon="-1.987161"><ele>358</ele><time>2020-10-17T11:40:59Z</time><name>PT1883</name></trkpt>
<trkpt lat="53.211316" lon="-1.987166"><ele>358</ele><time>2020-10-17T11:41:00Z</time><name>PT1884</name></trkpt>
<trkpt lat="53.211307" lon="-1.987169"><ele>358</ele><time>2020-10-17T11:41:01Z</time><name>PT1885</name></trkpt>
<trkpt lat="53.211298" lon="-1.987170"><ele>358</ele><time>2020-10-17T11:41:02Z</time><name>PT1886</name></trkpt>
<trkpt lat="53.211289" lon="-1.987173"><ele>358</ele><time>2020-10-17T11:41:03Z</time><name>PT1887</name></trkpt>
<trkpt lat="53.211281" lon="-1.987184"><ele>358</ele><time>2020-10-17T11:41:04Z</time><name>PT1888</name></trkpt>
<trkpt lat="53.211273" lon="-1.987207"><ele>358</ele><time>2020-10-17T11:41:05Z</time><name>PT1889</name></trkpt>
<trkpt lat="53.211265" lon="-1.987213"><ele>358</ele><time>2020-10-17T11:41:06Z</time><name>PT1890</name></trkpt>
<trkpt lat="53.211255" lon="-1.987216"><ele>358</ele><time>2020-10-17T11:41:07Z</time><name>PT1891</name></trkpt>
<trkpt lat="53.211248" lon="-1.987213"><ele>358</ele><time>2020-10-17T11:41:08Z</time><name>PT1892</name></trkpt>
<trkpt lat="53.211240" lon="-1.987212"><ele>357</ele><time>2020-10-17T11:41:09Z</time><name>PT1893</name></trkpt>
<trkpt lat="53.211230" lon="-1.987213"><ele>357</ele><time>2020-10-17T11:41:10Z</time><name>PT1894</name></trkpt>
<trkpt lat="53.211221" lon="-1.987216"><ele>357</ele><time>2020-10-17T11:41:11Z</time><name>PT1895</name></trkpt>
<trkpt lat="53.211210" lon="-1.987219"><ele>357</ele><time>2020-10-17T11:41:12Z</time><name>PT1896</name></trkpt>
<trkpt lat="53.211198" lon="-1.987222"><ele>358</ele><time>2020-10-17T11:41:13Z</time><name>PT1897</name></trkpt>
<trkpt lat="53.211196" lon="-1.987227"><ele>357</ele><time>2020-10-17T11:41:14Z</time><name>PT1898</name></trkpt>
<trkpt lat="53.211189" lon="-1.987227"><ele>357</ele><time>2020-10-17T11:41:15Z</time><name>PT1899</name></trkpt>
<trkpt lat="53.211184" lon="-1.987224"><ele>357</ele><time>2020-10-17T11:41:16Z</time><name>PT1900</name></trkpt>
<trkpt lat="53.211174" lon="-1.987227"><ele>357</ele><time>2020-10-17T11:41:17Z</time><name>PT1901</name></trkpt>
<trkpt lat="53.211164" lon="-1.987239"><ele>357</ele><time>2020-10-17T11:41:18Z</time><name>PT1902</name></trkpt>
<trkpt lat="53.211156" lon="-1.987234"><ele>357</ele><time>2020-10-17T11:41:19Z</time><name>PT1903</name></trkpt>
<trkpt lat="53.211147" lon="-1.987231"><ele>358</ele><time>2020-10-17T11:41:20Z</time><name>PT1904</name></trkpt>
<trkpt lat="53.211135" lon="-1.987234"><ele>358</ele><time>2020-10-17T11:41:21Z</time><name>PT1905</name></trkpt>
<trkpt lat="53.211126" lon="-1.987233"><ele>359</ele><time>2020-10-17T11:41:22Z</time><name>PT1906</name></trkpt>
<trkpt lat="53.211120" lon="-1.987230"><ele>358</ele><time>2020-10-17T11:41:23Z</time><name>PT1907</name></trkpt>
<trkpt lat="53.211113" lon="-1.987228"><ele>358</ele><time>2020-10-17T11:41:24Z</time><name>PT1908</name></trkpt>
<trkpt lat="53.211107" lon="-1.987228"><ele>357</ele><time>2020-10-17T11:41:25Z</time><name>PT1909</name></trkpt>
<trkpt lat="53.211101" lon="-1.987225"><ele>357</ele><time>2020-10-17T11:41:26Z</time><name>PT1910</name></trkpt>
<trkpt lat="53.211091" lon="-1.987231"><ele>358</ele><time>2020-10-17T11:41:27Z</time><name>PT1911</name></trkpt>
<trkpt lat="53.211087" lon="-1.987232"><ele>358</ele><time>2020-10-17T11:41:28Z</time><name>PT1912</name></trkpt>
<trkpt lat="53.211080" lon="-1.987228"><ele>358</ele><time>2020-10-17T11:41:30Z</time><name>PT1913</name></trkpt>
<trkpt lat="53.211074" lon="-1.987228"><ele>358</ele><time>2020-10-17T11:41:30Z</time><name>PT1914</name></trkpt>
<trkpt lat="53.211067" lon="-1.987225"><ele>357</ele><time>2020-10-17T11:41:31Z</time><name>PT1915</name></trkpt>
<trkpt lat="53.211060" lon="-1.987224"><ele>357</ele><time>2020-10-17T11:41:32Z</time><name>PT1916</name></trkpt>
<trkpt lat="53.211052" lon="-1.987223"><ele>357</ele><time>2020-10-17T11:41:33Z</time><name>PT1917</name></trkpt>
<trkpt lat="53.211042" lon="-1.987223"><ele>357</ele><time>2020-10-17T11:41:34Z</time><name>PT1918</name></trkpt>
<trkpt lat="53.211035" lon="-1.987220"><ele>357</ele><time>2020-10-17T11:41:35Z</time><name>PT1919</name></trkpt>
<trkpt lat="53.211027" lon="-1.987222"><ele>357</ele><time>2020-10-17T11:41:36Z</time><name>PT1920</name></trkpt>
<trkpt lat="53.211021" lon="-1.987224"><ele>356</ele><time>2020-10-17T11:41:37Z</time><name>PT1921</name></trkpt>
<trkpt lat="53.211011" lon="-1.987231"><ele>356</ele><time>2020-10-17T11:41:38Z</time><name>PT1922</name></trkpt>
<trkpt lat="53.211002" lon="-1.987232"><ele>356</ele><time>2020-10-17T11:41:39Z</time><name>PT1923</name></trkpt>
<trkpt lat="53.210990" lon="-1.987233"><ele>356</ele><time>2020-10-17T11:41:40Z</time><name>PT1924</name></trkpt>
<trkpt lat="53.210978" lon="-1.987239"><ele>356</ele><time>2020-10-17T11:41:41Z</time><name>PT1925</name></trkpt>
<trkpt lat="53.210967" lon="-1.987243"><ele>356</ele><time>2020-10-17T11:41:42Z</time><name>PT1926</name></trkpt>
<trkpt lat="53.210954" lon="-1.987243"><ele>356</ele><time>2020-10-17T11:41:43Z</time><name>PT1927</name></trkpt>
<trkpt lat="53.210943" lon="-1.987247"><ele>356</ele><time>2020-10-17T11:41:44Z</time><name>PT1928</name></trkpt>
<trkpt lat="53.210932" lon="-1.987252"><ele>356</ele><time>2020-10-17T11:41:45Z</time><name>PT1929</name></trkpt>
<trkpt lat="53.210920" lon="-1.987260"><ele>357</ele><time>2020-10-17T11:41:46Z</time><name>PT1930</name></trkpt>
<trkpt lat="53.210909" lon="-1.987266"><ele>357</ele><time>2020-10-17T11:41:47Z</time><name>PT1931</name></trkpt>
<trkpt lat="53.210897" lon="-1.987271"><ele>357</ele><time>2020-10-17T11:41:48Z</time><name>PT1932</name></trkpt>
<trkpt lat="53.210886" lon="-1.987277"><ele>357</ele><time>2020-10-17T11:41:49Z</time><name>PT1933</name></trkpt>
<trkpt lat="53.210875" lon="-1.987286"><ele>357</ele><time>2020-10-17T11:41:50Z</time><name>PT1934</name></trkpt>
<trkpt lat="53.210862" lon="-1.987295"><ele>357</ele><time>2020-10-17T11:41:51Z</time><name>PT1935</name></trkpt>
<trkpt lat="53.210853" lon="-1.987300"><ele>357</ele><time>2020-10-17T11:41:52Z</time><name>PT1936</name></trkpt>
<trkpt lat="53.210843" lon="-1.987302"><ele>356</ele><time>2020-10-17T11:41:53Z</time><name>PT1937</name></trkpt>
<trkpt lat="53.210833" lon="-1.987305"><ele>356</ele><time>2020-10-17T11:41:54Z</time><name>PT1938</name></trkpt>
<trkpt lat="53.210822" lon="-1.987307"><ele>356</ele><time>2020-10-17T11:41:55Z</time><name>PT1939</name></trkpt>
<trkpt lat="53.210810" lon="-1.987311"><ele>356</ele><time>2020-10-17T11:41:56Z</time><name>PT1940</name></trkpt>
<trkpt lat="53.210804" lon="-1.987323"><ele>356</ele><time>2020-10-17T11:41:57Z</time><name>PT1941</name></trkpt>
<trkpt lat="53.210796" lon="-1.987329"><ele>357</ele><time>2020-10-17T11:41:58Z</time><name>PT1942</name></trkpt>
<trkpt lat="53.210788" lon="-1.987330"><ele>357</ele><time>2020-10-17T11:41:59Z</time><name>PT1943</name></trkpt>
<trkpt lat="53.210780" lon="-1.987334"><ele>357</ele><time>2020-10-17T11:42:00Z</time><name>PT1944</name></trkpt>
<trkpt lat="53.210771" lon="-1.987337"><ele>358</ele><time>2020-10-17T11:42:01Z</time><name>PT1945</name></trkpt>
<trkpt lat="53.210765" lon="-1.987336"><ele>357</ele><time>2020-10-17T11:42:02Z</time><name>PT1946</name></trkpt>
<trkpt lat="53.210755" lon="-1.987338"><ele>357</ele><time>2020-10-17T11:42:03Z</time><name>PT1947</name></trkpt>
<trkpt lat="53.210745" lon="-1.987342"><ele>357</ele><time>2020-10-17T11:42:04Z</time><name>PT1948</name></trkpt>
<trkpt lat="53.210733" lon="-1.987348"><ele>357</ele><time>2020-10-17T11:42:05Z</time><name>PT1949</name></trkpt>
<trkpt lat="53.210720" lon="-1.987352"><ele>358</ele><time>2020-10-17T11:42:06Z</time><name>PT1950</name></trkpt>
<trkpt lat="53.210710" lon="-1.987355"><ele>358</ele><time>2020-10-17T11:42:07Z</time><name>PT1951</name></trkpt>
<trkpt lat="53.210702" lon="-1.987360"><ele>358</ele><time>2020-10-17T11:42:08Z</time><name>PT1952</name></trkpt>
<trkpt lat="53.210694" lon="-1.987364"><ele>357</ele><time>2020-10-17T11:42:09Z</time><name>PT1953</name></trkpt>
<trkpt lat="53.210684" lon="-1.987364"><ele>357</ele><time>2020-10-17T11:42:10Z</time><name>PT1954</name></trkpt>
<trkpt lat="53.210673" lon="-1.987367"><ele>357</ele><time>2020-10-17T11:42:11Z</time><name>PT1955</name></trkpt>
<trkpt lat="53.210665" lon="-1.987373"><ele>357</ele><time>2020-10-17T11:42:12Z</time><name>PT1956</name></trkpt>
<trkpt lat="53.210657" lon="-1.987379"><ele>357</ele><time>2020-10-17T11:42:13Z</time><name>PT1957</name></trkpt>
<trkpt lat="53.210647" lon="-1.987383"><ele>357</ele><time>2020-10-17T11:42:14Z</time><name>PT1958</name></trkpt>
<trkpt lat="53.210635" lon="-1.987388"><ele>357</ele><time>2020-10-17T11:42:15Z</time><name>PT1959</name></trkpt>
<trkpt lat="53.210626" lon="-1.987393"><ele>357</ele><time>2020-10-17T11:42:16Z</time><name>PT1960</name></trkpt>
<trkpt lat="53.210615" lon="-1.987399"><ele>357</ele><time>2020-10-17T11:42:17Z</time><name>PT1961</name></trkpt>
<trkpt lat="53.210605" lon="-1.987406"><ele>357</ele><time>2020-10-17T11:42:18Z</time><name>PT1962</name></trkpt>
<trkpt lat="53.210595" lon="-1.987411"><ele>357</ele><time>2020-10-17T11:42:19Z</time><name>PT1963</name></trkpt>
<trkpt lat="53.210580" lon="-1.987414"><ele>358</ele><time>2020-10-17T11:42:20Z</time><name>PT1964</name></trkpt>
<trkpt lat="53.210571" lon="-1.987413"><ele>358</ele><time>2020-10-17T11:42:21Z</time><name>PT1965</name></trkpt>
<trkpt lat="53.210560" lon="-1.987414"><ele>358</ele><time>2020-10-17T11:42:22Z</time><name>PT1966</name></trkpt>
<trkpt lat="53.210547" lon="-1.987418"><ele>357</ele><time>2020-10-17T11:42:23Z</time><name>PT1967</name></trkpt>
<trkpt lat="53.210535" lon="-1.987423"><ele>358</ele><time>2020-10-17T11:42:24Z</time><name>PT1968</name></trkpt>
<trkpt lat="53.210523" lon="-1.987424"><ele>357</ele><time>2020-10-17T11:42:25Z</time><name>PT1969</name></trkpt>
<trkpt lat="53.210510" lon="-1.987431"><ele>357</ele><time>2020-10-17T11:42:26Z</time><name>PT1970</name></trkpt>
<trkpt lat="53.210498" lon="-1.987435"><ele>357</ele><time>2020-10-17T11:42:27Z</time><name>PT1971</name></trkpt>
<trkpt lat="53.210486" lon="-1.987439"><ele>357</ele><time>2020-10-17T11:42:28Z</time><name>PT1972</name></trkpt>
<trkpt lat="53.210474" lon="-1.987445"><ele>358</ele><time>2020-10-17T11:42:29Z</time><name>PT1973</name></trkpt>
<trkpt lat="53.210461" lon="-1.987450"><ele>358</ele><time>2020-10-17T11:42:30Z</time><name>PT1974</name></trkpt>
<trkpt lat="53.210449" lon="-1.987455"><ele>357</ele><time>2020-10-17T11:42:31Z</time><name>PT1975</name></trkpt>
<trkpt lat="53.210436" lon="-1.987461"><ele>357</ele><time>2020-10-17T11:42:32Z</time><name>PT1976</name></trkpt>
<trkpt lat="53.210426" lon="-1.987464"><ele>358</ele><time>2020-10-17T11:42:33Z</time><name>PT1977</name></trkpt>
<trkpt lat="53.210417" lon="-1.987471"><ele>357</ele><time>2020-10-17T11:42:34Z</time><name>PT1978</name></trkpt>
<trkpt lat="53.210408" lon="-1.987477"><ele>357</ele><time>2020-10-17T11:42:35Z</time><name>PT1979</name></trkpt>
<trkpt lat="53.210395" lon="-1.987478"><ele>357</ele><time>2020-10-17T11:42:36Z</time><name>PT1980</name></trkpt>
<trkpt lat="53.210382" lon="-1.987483"><ele>357</ele><time>2020-10-17T11:42:37Z</time><name>PT1981</name></trkpt>
<trkpt lat="53.210369" lon="-1.987488"><ele>357</ele><time>2020-10-17T11:42:38Z</time><name>PT1982</name></trkpt>
<trkpt lat="53.210355" lon="-1.987496"><ele>357</ele><time>2020-10-17T11:42:39Z</time><name>PT1983</name></trkpt>
<trkpt lat="53.210345" lon="-1.987500"><ele>357</ele><time>2020-10-17T11:42:40Z</time><name>PT1984</name></trkpt>
<trkpt lat="53.210332" lon="-1.987501"><ele>357</ele><time>2020-10-17T11:42:41Z</time><name>PT1985</name></trkpt>
<trkpt lat="53.210322" lon="-1.987503"><ele>357</ele><time>2020-10-17T11:42:42Z</time><name>PT1986</name></trkpt>
<trkpt lat="53.210312" lon="-1.987511"><ele>358</ele><time>2020-10-17T11:42:43Z</time><name>PT1987</name></trkpt>
<trkpt lat="53.210301" lon="-1.987516"><ele>358</ele><time>2020-10-17T11:42:44Z</time><name>PT1988</name></trkpt>
<trkpt lat="53.210286" lon="-1.987516"><ele>358</ele><time>2020-10-17T11:42:45Z</time><name>PT1989</name></trkpt>
<trkpt lat="53.210276" lon="-1.987519"><ele>358</ele><time>2020-10-17T11:42:46Z</time><name>PT1990</name></trkpt>
<trkpt lat="53.210265" lon="-1.987527"><ele>358</ele><time>2020-10-17T11:42:47Z</time><name>PT1991</name></trkpt>
<trkpt lat="53.210256" lon="-1.987533"><ele>358</ele><time>2020-10-17T11:42:48Z</time><name>PT1992</name></trkpt>
<trkpt lat="53.210243" lon="-1.987535"><ele>358</ele><time>2020-10-17T11:42:49Z</time><name>PT1993</name></trkpt>
<trkpt lat="53.210228" lon="-1.987540"><ele>358</ele><time>2020-10-17T11:42:50Z</time><name>PT1994</name></trkpt>
<trkpt lat="53.210218" lon="-1.987547"><ele>358</ele><time>2020-10-17T11:42:51Z</time><name>PT1995</name></trkpt>
<trkpt lat="53.210207" lon="-1.987551"><ele>358</ele><time>2020-10-17T11:42:52Z</time><name>PT1996</name></trkpt>
<trkpt lat="53.210196" lon="-1.987554"><ele>359</ele><time>2020-10-17T11:42:53Z</time><name>PT1997</name></trkpt>
<trkpt lat="53.210185" lon="-1.987562"><ele>359</ele><time>2020-10-17T11:42:54Z</time><name>PT1998</name></trkpt>
<trkpt lat="53.210176" lon="-1.987563"><ele>359</ele><time>2020-10-17T11:42:55Z</time><name>PT1999</name></trkpt>
<trkpt lat="53.210169" lon="-1.987566"><ele>359</ele><time>2020-10-17T11:42:56Z</time><name>PT2000</name></trkpt>
<trkpt lat="53.210162" lon="-1.987571"><ele>358</ele><time>2020-10-17T11:42:57Z</time><name>PT2001</name></trkpt>
<trkpt lat="53.210151" lon="-1.987575"><ele>359</ele><time>2020-10-17T11:42:58Z</time><name>PT2002</name></trkpt>
<trkpt lat="53.210142" lon="-1.987579"><ele>359</ele><time>2020-10-17T11:42:59Z</time><name>PT2003</name></trkpt>
<trkpt lat="53.210134" lon="-1.987581"><ele>359</ele><time>2020-10-17T11:43:00Z</time><name>PT2004</name></trkpt>
<trkpt lat="53.210125" lon="-1.987588"><ele>358</ele><time>2020-10-17T11:43:01Z</time><name>PT2005</name></trkpt>
<trkpt lat="53.210116" lon="-1.987595"><ele>358</ele><time>2020-10-17T11:43:02Z</time><name>PT2006</name></trkpt>
<trkpt lat="53.210105" lon="-1.987601"><ele>358</ele><time>2020-10-17T11:43:03Z</time><name>PT2007</name></trkpt>
<trkpt lat="53.210094" lon="-1.987606"><ele>358</ele><time>2020-10-17T11:43:04Z</time><name>PT2008</name></trkpt>
<trkpt lat="53.210085" lon="-1.987610"><ele>358</ele><time>2020-10-17T11:43:05Z</time><name>PT2009</name></trkpt>
<trkpt lat="53.210078" lon="-1.987618"><ele>358</ele><time>2020-10-17T11:43:06Z</time><name>PT2010</name></trkpt>
<trkpt lat="53.210068" lon="-1.987621"><ele>359</ele><time>2020-10-17T11:43:07Z</time><name>PT2011</name></trkpt>
<trkpt lat="53.210055" lon="-1.987625"><ele>359</ele><time>2020-10-17T11:43:08Z</time><name>PT2012</name></trkpt>
<trkpt lat="53.210046" lon="-1.987634"><ele>359</ele><time>2020-10-17T11:43:09Z</time><name>PT2013</name></trkpt>
<trkpt lat="53.210035" lon="-1.987640"><ele>359</ele><time>2020-10-17T11:43:10Z</time><name>PT2014</name></trkpt>
<trkpt lat="53.210027" lon="-1.987643"><ele>360</ele><time>2020-10-17T11:43:11Z</time><name>PT2015</name></trkpt>
<trkpt lat="53.210018" lon="-1.987643"><ele>360</ele><time>2020-10-17T11:43:12Z</time><name>PT2016</name></trkpt>
<trkpt lat="53.210010" lon="-1.987646"><ele>360</ele><time>2020-10-17T11:43:13Z</time><name>PT2017</name></trkpt>
<trkpt lat="53.209998" lon="-1.987652"><ele>361</ele><time>2020-10-17T11:43:14Z</time><name>PT2018</name></trkpt>
<trkpt lat="53.209989" lon="-1.987657"><ele>361</ele><time>2020-10-17T11:43:15Z</time><name>PT2019</name></trkpt>
<trkpt lat="53.209977" lon="-1.987660"><ele>361</ele><time>2020-10-17T11:43:16Z</time><name>PT2020</name></trkpt>
<trkpt lat="53.209969" lon="-1.987662"><ele>361</ele><time>2020-10-17T11:43:17Z</time><name>PT2021</name></trkpt>
<trkpt lat="53.209960" lon="-1.987668"><ele>361</ele><time>2020-10-17T11:43:18Z</time><name>PT2022</name></trkpt>
<trkpt lat="53.209951" lon="-1.987674"><ele>361</ele><time>2020-10-17T11:43:19Z</time><name>PT2023</name></trkpt>
<trkpt lat="53.209939" lon="-1.987680"><ele>361</ele><time>2020-10-17T11:43:20Z</time><name>PT2024</name></trkpt>
<trkpt lat="53.209932" lon="-1.987683"><ele>360</ele><time>2020-10-17T11:43:21Z</time><name>PT2025</name></trkpt>
<trkpt lat="53.209919" lon="-1.987689"><ele>361</ele><time>2020-10-17T11:43:22Z</time><name>PT2026</name></trkpt>
<trkpt lat="53.209909" lon="-1.987695"><ele>361</ele><time>2020-10-17T11:43:23Z</time><name>PT2027</name></trkpt>
<trkpt lat="53.209895" lon="-1.987694"><ele>361</ele><time>2020-10-17T11:43:24Z</time><name>PT2028</name></trkpt>
<trkpt lat="53.209886" lon="-1.987697"><ele>360</ele><time>2020-10-17T11:43:25Z</time><name>PT2029</name></trkpt>
<trkpt lat="53.209876" lon="-1.987703"><ele>360</ele><time>2020-10-17T11:43:26Z</time><name>PT2030</name></trkpt>
<trkpt lat="53.209866" lon="-1.987706"><ele>360</ele><time>2020-10-17T11:43:27Z</time><name>PT2031</name></trkpt>
<trkpt lat="53.209855" lon="-1.987708"><ele>360</ele><time>2020-10-17T11:43:28Z</time><name>PT2032</name></trkpt>
<trkpt lat="53.209845" lon="-1.987711"><ele>360</ele><time>2020-10-17T11:43:29Z</time><name>PT2033</name></trkpt>
<trkpt lat="53.209837" lon="-1.987718"><ele>360</ele><time>2020-10-17T11:43:30Z</time><name>PT2034</name></trkpt>
<trkpt lat="53.209824" lon="-1.987724"><ele>361</ele><time>2020-10-17T11:43:31Z</time><name>PT2035</name></trkpt>
<trkpt lat="53.209816" lon="-1.987730"><ele>361</ele><time>2020-10-17T11:43:32Z</time><name>PT2036</name></trkpt>
<trkpt lat="53.209809" lon="-1.987734"><ele>361</ele><time>2020-10-17T11:43:33Z</time><name>PT2037</name></trkpt>
<trkpt lat="53.209801" lon="-1.987736"><ele>361</ele><time>2020-10-17T11:43:34Z</time><name>PT2038</name></trkpt>
<trkpt lat="53.209793" lon="-1.987736"><ele>360</ele><time>2020-10-17T11:43:35Z</time><name>PT2039</name></trkpt>
<trkpt lat="53.209782" lon="-1.987740"><ele>361</ele><time>2020-10-17T11:43:36Z</time><name>PT2040</name></trkpt>
<trkpt lat="53.209771" lon="-1.987742"><ele>361</ele><time>2020-10-17T11:43:37Z</time><name>PT2041</name></trkpt>
<trkpt lat="53.209759" lon="-1.987748"><ele>361</ele><time>2020-10-17T11:43:38Z</time><name>PT2042</name></trkpt>
<trkpt lat="53.209750" lon="-1.987752"><ele>361</ele><time>2020-10-17T11:43:39Z</time><name>PT2043</name></trkpt>
<trkpt lat="53.209740" lon="-1.987755"><ele>361</ele><time>2020-10-17T11:43:40Z</time><name>PT2044</name></trkpt>
<trkpt lat="53.209733" lon="-1.987757"><ele>361</ele><time>2020-10-17T11:43:41Z</time><name>PT2045</name></trkpt>
<trkpt lat="53.209722" lon="-1.987755"><ele>362</ele><time>2020-10-17T11:43:42Z</time><name>PT2046</name></trkpt>
<trkpt lat="53.209715" lon="-1.987754"><ele>362</ele><time>2020-10-17T11:43:43Z</time><name>PT2047</name></trkpt>
<trkpt lat="53.209708" lon="-1.987756"><ele>362</ele><time>2020-10-17T11:43:44Z</time><name>PT2048</name></trkpt>
<trkpt lat="53.209697" lon="-1.987760"><ele>362</ele><time>2020-10-17T11:43:45Z</time><name>PT2049</name></trkpt>
<trkpt lat="53.209687" lon="-1.987763"><ele>362</ele><time>2020-10-17T11:43:46Z</time><name>PT2050</name></trkpt>
<trkpt lat="53.209671" lon="-1.987767"><ele>362</ele><time>2020-10-17T11:43:47Z</time><name>PT2051</name></trkpt>
<trkpt lat="53.209662" lon="-1.987770"><ele>362</ele><time>2020-10-17T11:43:48Z</time><name>PT2052</name></trkpt>
<trkpt lat="53.209651" lon="-1.987781"><ele>362</ele><time>2020-10-17T11:43:49Z</time><name>PT2053</name></trkpt>
<trkpt lat="53.209643" lon="-1.987784"><ele>362</ele><time>2020-10-17T11:43:50Z</time><name>PT2054</name></trkpt>
<trkpt lat="53.209635" lon="-1.987788"><ele>362</ele><time>2020-10-17T11:43:51Z</time><name>PT2055</name></trkpt>
<trkpt lat="53.209627" lon="-1.987793"><ele>361</ele><time>2020-10-17T11:43:52Z</time><name>PT2056</name></trkpt>
<trkpt lat="53.209618" lon="-1.987795"><ele>361</ele><time>2020-10-17T11:43:53Z</time><name>PT2057</name></trkpt>
<trkpt lat="53.209609" lon="-1.987800"><ele>361</ele><time>2020-10-17T11:43:54Z</time><name>PT2058</name></trkpt>
<trkpt lat="53.209599" lon="-1.987804"><ele>361</ele><time>2020-10-17T11:43:55Z</time><name>PT2059</name></trkpt>
<trkpt lat="53.209554" lon="-1.987816"><ele>362</ele><time>2020-10-17T11:43:59Z</time><name>PT2060</name></trkpt>
<trkpt lat="53.209512" lon="-1.987828"><ele>362</ele><time>2020-10-17T11:44:03Z</time><name>PT2061</name></trkpt>
<trkpt lat="53.209475" lon="-1.987831"><ele>362</ele><time>2020-10-17T11:44:06Z</time><name>PT2062</name></trkpt>
<trkpt lat="53.209448" lon="-1.987843"><ele>362</ele><time>2020-10-17T11:44:09Z</time><name>PT2063</name></trkpt>
<trkpt lat="53.209412" lon="-1.987866"><ele>362</ele><time>2020-10-17T11:44:12Z</time><name>PT2064</name></trkpt>
<trkpt lat="53.209384" lon="-1.987881"><ele>363</ele><time>2020-10-17T11:44:15Z</time><name>PT2065</name></trkpt>
<trkpt lat="53.209343" lon="-1.987896"><ele>363</ele><time>2020-10-17T11:44:19Z</time><name>PT2066</name></trkpt>
<trkpt lat="53.209311" lon="-1.987876"><ele>362</ele><time>2020-10-17T11:44:22Z</time><name>PT2067</name></trkpt>
<trkpt lat="53.209285" lon="-1.987891"><ele>361</ele><time>2020-10-17T11:44:25Z</time><name>PT2068</name></trkpt>
<trkpt lat="53.209243" lon="-1.987913"><ele>363</ele><time>2020-10-17T11:44:29Z</time><name>PT2069</name></trkpt>
<trkpt lat="53.209215" lon="-1.987929"><ele>364</ele><time>2020-10-17T11:44:32Z</time><name>PT2070</name></trkpt>
<trkpt lat="53.209171" lon="-1.987942"><ele>364</ele><time>2020-10-17T11:44:36Z</time><name>PT2071</name></trkpt>
<trkpt lat="53.209133" lon="-1.987961"><ele>365</ele><time>2020-10-17T11:44:40Z</time><name>PT2072</name></trkpt>
<trkpt lat="53.209099" lon="-1.987967"><ele>365</ele><time>2020-10-17T11:44:44Z</time><name>PT2073</name></trkpt>
<trkpt lat="53.209071" lon="-1.987973"><ele>365</ele><time>2020-10-17T11:44:47Z</time><name>PT2074</name></trkpt>
<trkpt lat="53.209042" lon="-1.987983"><ele>365</ele><time>2020-10-17T11:44:51Z</time><name>PT2075</name></trkpt>
<trkpt lat="53.209005" lon="-1.987989"><ele>366</ele><time>2020-10-17T11:44:55Z</time><name>PT2076</name></trkpt>
<trkpt lat="53.208975" lon="-1.988000"><ele>366</ele><time>2020-10-17T11:44:58Z</time><name>PT2077</name></trkpt>
<trkpt lat="53.208943" lon="-1.988015"><ele>365</ele><time>2020-10-17T11:45:02Z</time><name>PT2078</name></trkpt>
<trkpt lat="53.208914" lon="-1.988025"><ele>364</ele><time>2020-10-17T11:45:06Z</time><name>PT2079</name></trkpt>
<trkpt lat="53.208889" lon="-1.988031"><ele>364</ele><time>2020-10-17T11:45:09Z</time><name>PT2080</name></trkpt>
<trkpt lat="53.208867" lon="-1.988036"><ele>364</ele><time>2020-10-17T11:45:12Z</time><name>PT2081</name></trkpt>
<trkpt lat="53.208837" lon="-1.988057"><ele>364</ele><time>2020-10-17T11:45:15Z</time><name>PT2082</name></trkpt>
<trkpt lat="53.208787" lon="-1.988079"><ele>367</ele><time>2020-10-17T11:45:19Z</time><name>PT2083</name></trkpt>
<trkpt lat="53.208756" lon="-1.988096"><ele>367</ele><time>2020-10-17T11:45:23Z</time><name>PT2084</name></trkpt>
<trkpt lat="53.208730" lon="-1.988109"><ele>367</ele><time>2020-10-17T11:45:26Z</time><name>PT2085</name></trkpt>
<trkpt lat="53.208709" lon="-1.988134"><ele>368</ele><time>2020-10-17T11:45:29Z</time><name>PT2086</name></trkpt>
<trkpt lat="53.208668" lon="-1.988154"><ele>367</ele><time>2020-10-17T11:45:33Z</time><name>PT2087</name></trkpt>
<trkpt lat="53.208636" lon="-1.988173"><ele>368</ele><time>2020-10-17T11:45:36Z</time><name>PT2088</name></trkpt>
<trkpt lat="53.208600" lon="-1.988188"><ele>369</ele><time>2020-10-17T11:45:40Z</time><name>PT2089</name></trkpt>
<trkpt lat="53.208559" lon="-1.988201"><ele>369</ele><time>2020-10-17T11:45:44Z</time><name>PT2090</name></trkpt>
<trkpt lat="53.208530" lon="-1.988218"><ele>369</ele><time>2020-10-17T11:45:47Z</time><name>PT2091</name></trkpt>
<trkpt lat="53.208501" lon="-1.988232"><ele>369</ele><time>2020-10-17T11:45:51Z</time><name>PT2092</name></trkpt>
<trkpt lat="53.208468" lon="-1.988237"><ele>369</ele><time>2020-10-17T11:45:55Z</time><name>PT2093</name></trkpt>
<trkpt lat="53.208431" lon="-1.988252"><ele>370</ele><time>2020-10-17T11:45:58Z</time><name>PT2094</name></trkpt>
<trkpt lat="53.208391" lon="-1.988257"><ele>369</ele><time>2020-10-17T11:46:02Z</time><name>PT2095</name></trkpt>
<trkpt lat="53.208353" lon="-1.988259"><ele>369</ele><time>2020-10-17T11:46:06Z</time><name>PT2096</name></trkpt>
<trkpt lat="53.208327" lon="-1.988258"><ele>369</ele><time>2020-10-17T11:46:09Z</time><name>PT2097</name></trkpt>
<trkpt lat="53.208293" lon="-1.988260"><ele>369</ele><time>2020-10-17T11:46:13Z</time><name>PT2098</name></trkpt>
<trkpt lat="53.208244" lon="-1.988262"><ele>371</ele><time>2020-10-17T11:46:17Z</time><name>PT2099</name></trkpt>
<trkpt lat="53.208215" lon="-1.988263"><ele>370</ele><time>2020-10-17T11:46:20Z</time><name>PT2100</name></trkpt>
<trkpt lat="53.208176" lon="-1.988267"><ele>369</ele><time>2020-10-17T11:46:24Z</time><name>PT2101</name></trkpt>
<trkpt lat="53.208155" lon="-1.988264"><ele>369</ele><time>2020-10-17T11:46:27Z</time><name>PT2102</name></trkpt>
<trkpt lat="53.208127" lon="-1.988274"><ele>369</ele><time>2020-10-17T11:46:30Z</time><name>PT2103</name></trkpt>
<trkpt lat="53.208097" lon="-1.988294"><ele>368</ele><time>2020-10-17T11:46:34Z</time><name>PT2104</name></trkpt>
<trkpt lat="53.208065" lon="-1.988314"><ele>370</ele><time>2020-10-17T11:46:37Z</time><name>PT2105</name></trkpt>
<trkpt lat="53.208030" lon="-1.988334"><ele>370</ele><time>2020-10-17T11:46:40Z</time><name>PT2106</name></trkpt>
<trkpt lat="53.207988" lon="-1.988346"><ele>370</ele><time>2020-10-17T11:46:44Z</time><name>PT2107</name></trkpt>
<trkpt lat="53.207943" lon="-1.988368"><ele>371</ele><time>2020-10-17T11:46:48Z</time><name>PT2108</name></trkpt>
<trkpt lat="53.207903" lon="-1.988384"><ele>371</ele><time>2020-10-17T11:46:52Z</time><name>PT2109</name></trkpt>
<trkpt lat="53.207861" lon="-1.988402"><ele>370</ele><time>2020-10-17T11:46:56Z</time><name>PT2110</name></trkpt>
<trkpt lat="53.207825" lon="-1.988439"><ele>370</ele><time>2020-10-17T11:47:00Z</time><name>PT2111</name></trkpt>
<trkpt lat="53.207791" lon="-1.988450"><ele>369</ele><time>2020-10-17T11:47:03Z</time><name>PT2112</name></trkpt>
<trkpt lat="53.207741" lon="-1.988484"><ele>371</ele><time>2020-10-17T11:47:07Z</time><name>PT2113</name></trkpt>
<trkpt lat="53.207714" lon="-1.988512"><ele>371</ele><time>2020-10-17T11:47:10Z</time><name>PT2114</name></trkpt>
<trkpt lat="53.207669" lon="-1.988537"><ele>374</ele><time>2020-10-17T11:47:14Z</time><name>PT2115</name></trkpt>
<trkpt lat="53.207639" lon="-1.988559"><ele>374</ele><time>2020-10-17T11:47:17Z</time><name>PT2116</name></trkpt>
<trkpt lat="53.207597" lon="-1.988584"><ele>374</ele><time>2020-10-17T11:47:21Z</time><name>PT2117</name></trkpt>
<trkpt lat="53.207553" lon="-1.988612"><ele>374</ele><time>2020-10-17T11:47:25Z</time><name>PT2118</name></trkpt>
<trkpt lat="53.207514" lon="-1.988629"><ele>373</ele><time>2020-10-17T11:47:29Z</time><name>PT2119</name></trkpt>
<trkpt lat="53.207482" lon="-1.988645"><ele>373</ele><time>2020-10-17T11:47:32Z</time><name>PT2120</name></trkpt>
<trkpt lat="53.207438" lon="-1.988658"><ele>373</ele><time>2020-10-17T11:47:36Z</time><name>PT2121</name></trkpt>
<trkpt lat="53.207397" lon="-1.988680"><ele>372</ele><time>2020-10-17T11:47:40Z</time><name>PT2122</name></trkpt>
<trkpt lat="53.207375" lon="-1.988697"><ele>373</ele><time>2020-10-17T11:47:43Z</time><name>PT2123</name></trkpt>
<trkpt lat="53.207346" lon="-1.988721"><ele>373</ele><time>2020-10-17T11:47:47Z</time><name>PT2124</name></trkpt>
<trkpt lat="53.207315" lon="-1.988734"><ele>374</ele><time>2020-10-17T11:47:50Z</time><name>PT2125</name></trkpt>
<trkpt lat="53.207286" lon="-1.988752"><ele>373</ele><time>2020-10-17T11:47:53Z</time><name>PT2126</name></trkpt>
<trkpt lat="53.207245" lon="-1.988770"><ele>374</ele><time>2020-10-17T11:47:57Z</time><name>PT2127</name></trkpt>
<trkpt lat="53.207211" lon="-1.988782"><ele>373</ele><time>2020-10-17T11:48:00Z</time><name>PT2128</name></trkpt>
<trkpt lat="53.207178" lon="-1.988778"><ele>373</ele><time>2020-10-17T11:48:03Z</time><name>PT2129</name></trkpt>
<trkpt lat="53.207137" lon="-1.988770"><ele>374</ele><time>2020-10-17T11:48:07Z</time><name>PT2130</name></trkpt>
<trkpt lat="53.207094" lon="-1.988770"><ele>374</ele><time>2020-10-17T11:48:11Z</time><name>PT2131</name></trkpt>
<trkpt lat="53.207060" lon="-1.988776"><ele>374</ele><time>2020-10-17T11:48:14Z</time><name>PT2132</name></trkpt>
<trkpt lat="53.207020" lon="-1.988791"><ele>373</ele><time>2020-10-17T11:48:18Z</time><name>PT2133</name></trkpt>
<trkpt lat="53.206978" lon="-1.988808"><ele>373</ele><time>2020-10-17T11:48:22Z</time><name>PT2134</name></trkpt>
<trkpt lat="53.206934" lon="-1.988827"><ele>372</ele><time>2020-10-17T11:48:25Z</time><name>PT2135</name></trkpt>
<trkpt lat="53.206888" lon="-1.988844"><ele>371</ele><time>2020-10-17T11:48:29Z</time><name>PT2136</name></trkpt>
<trkpt lat="53.206840" lon="-1.988863"><ele>372</ele><time>2020-10-17T11:48:33Z</time><name>PT2137</name></trkpt>
<trkpt lat="53.206794" lon="-1.988883"><ele>372</ele><time>2020-10-17T11:48:37Z</time><name>PT2138</name></trkpt>
<trkpt lat="53.206763" lon="-1.988899"><ele>370</ele><time>2020-10-17T11:48:40Z</time><name>PT2139</name></trkpt>
<trkpt lat="53.206743" lon="-1.988905"><ele>371</ele><time>2020-10-17T11:48:44Z</time><name>PT2140</name></trkpt>
<trkpt lat="53.206724" lon="-1.988905"><ele>373</ele><time>2020-10-17T11:48:48Z</time><name>PT2141</name></trkpt>
<trkpt lat="53.206711" lon="-1.988913"><ele>373</ele><time>2020-10-17T11:48:51Z</time><name>PT2142</name></trkpt>
<trkpt lat="53.206710" lon="-1.988911"><ele>373</ele><time>2020-10-17T11:48:54Z</time><name>PT2143</name></trkpt>
<trkpt lat="53.206701" lon="-1.988930"><ele>373</ele><time>2020-10-17T11:48:58Z</time><name>PT2144</name></trkpt>
<trkpt lat="53.206702" lon="-1.988927"><ele>372</ele><time>2020-10-17T11:49:02Z</time><name>PT2145</name></trkpt>
<trkpt lat="53.206699" lon="-1.988931"><ele>373</ele><time>2020-10-17T11:49:20Z</time><name>PT2146</name></trkpt>
<trkpt lat="53.206699" lon="-1.988934"><ele>372</ele><time>2020-10-17T11:49:23Z</time><name>PT2147</name></trkpt>
<trkpt lat="53.206695" lon="-1.988950"><ele>373</ele><time>2020-10-17T11:49:34Z</time><name>PT2148</name></trkpt>
<trkpt lat="53.206704" lon="-1.988951"><ele>373</ele><time>2020-10-17T11:49:36Z</time><name>PT2149</name></trkpt>
<trkpt lat="53.206710" lon="-1.988945"><ele>373</ele><time>2020-10-17T11:50:07Z</time><name>PT2150</name></trkpt>
<trkpt lat="53.206710" lon="-1.988944"><ele>373</ele><time>2020-10-17T11:50:08Z</time><name>PT2151</name></trkpt>
<trkpt lat="53.206709" lon="-1.988943"><ele>373</ele><time>2020-10-17T11:50:09Z</time><name>PT2152</name></trkpt>
<trkpt lat="53.206709" lon="-1.988945"><ele>373</ele><time>2020-10-17T11:50:18Z</time><name>PT2153</name></trkpt>
<trkpt lat="53.206711" lon="-1.988948"><ele>373</ele><time>2020-10-17T11:50:19Z</time><name>PT2154</name></trkpt>
<trkpt lat="53.206711" lon="-1.988937"><ele>373</ele><time>2020-10-17T11:50:20Z</time><name>PT2155</name></trkpt>
<trkpt lat="53.206712" lon="-1.988932"><ele>373</ele><time>2020-10-17T11:50:21Z</time><name>PT2156</name></trkpt>
<trkpt lat="53.206711" lon="-1.988931"><ele>373</ele><time>2020-10-17T11:50:27Z</time><name>PT2157</name></trkpt>
<trkpt lat="53.206710" lon="-1.988931"><ele>373</ele><time>2020-10-17T11:50:28Z</time><name>PT2158</name></trkpt>
<trkpt lat="53.206709" lon="-1.988931"><ele>373</ele><time>2020-10-17T11:50:32Z</time><name>PT2159</name></trkpt>
<trkpt lat="53.206707" lon="-1.988929"><ele>372</ele><time>2020-10-17T11:50:33Z</time><name>PT2160</name></trkpt>
<trkpt lat="53.206688" lon="-1.988941"><ele>373</ele><time>2020-10-17T11:50:56Z</time><name>PT2161</name></trkpt>
<trkpt lat="53.206678" lon="-1.988947"><ele>373</ele><time>2020-10-17T11:50:57Z</time><name>PT2162</name></trkpt>
<trkpt lat="53.206669" lon="-1.988949"><ele>373</ele><time>2020-10-17T11:50:58Z</time><name>PT2163</name></trkpt>
<trkpt lat="53.206659" lon="-1.988950"><ele>373</ele><time>2020-10-17T11:50:59Z</time><name>PT2164</name></trkpt>
<trkpt lat="53.206648" lon="-1.988948"><ele>373</ele><time>2020-10-17T11:51:00Z</time><name>PT2165</name></trkpt>
<trkpt lat="53.206640" lon="-1.988946"><ele>373</ele><time>2020-10-17T11:51:01Z</time><name>PT2166</name></trkpt>
<trkpt lat="53.206633" lon="-1.988942"><ele>372</ele><time>2020-10-17T11:51:02Z</time><name>PT2167</name></trkpt>
<trkpt lat="53.206625" lon="-1.988944"><ele>372</ele><time>2020-10-17T11:51:03Z</time><name>PT2168</name></trkpt>
<trkpt lat="53.206612" lon="-1.988940"><ele>371</ele><time>2020-10-17T11:51:04Z</time><name>PT2169</name></trkpt>
<trkpt lat="53.206603" lon="-1.988937"><ele>371</ele><time>2020-10-17T11:51:05Z</time><name>PT2170</name></trkpt>
<trkpt lat="53.206594" lon="-1.988938"><ele>371</ele><time>2020-10-17T11:51:06Z</time><name>PT2171</name></trkpt>
<trkpt lat="53.206585" lon="-1.988940"><ele>371</ele><time>2020-10-17T11:51:07Z</time><name>PT2172</name></trkpt>
<trkpt lat="53.206578" lon="-1.988943"><ele>371</ele><time>2020-10-17T11:51:08Z</time><name>PT2173</name></trkpt>
<trkpt lat="53.206570" lon="-1.988941"><ele>371</ele><time>2020-10-17T11:51:09Z</time><name>PT2174</name></trkpt>
<trkpt lat="53.206563" lon="-1.988940"><ele>371</ele><time>2020-10-17T11:51:10Z</time><name>PT2175</name></trkpt>
<trkpt lat="53.206556" lon="-1.988942"><ele>371</ele><time>2020-10-17T11:51:11Z</time><name>PT2176</name></trkpt>
<trkpt lat="53.206548" lon="-1.988942"><ele>371</ele><time>2020-10-17T11:51:12Z</time><name>PT2177</name></trkpt>
<trkpt lat="53.206539" lon="-1.988942"><ele>370</ele><time>2020-10-17T11:51:13Z</time><name>PT2178</name></trkpt>
<trkpt lat="53.206527" lon="-1.988949"><ele>371</ele><time>2020-10-17T11:51:14Z</time><name>PT2179</name></trkpt>
<trkpt lat="53.206517" lon="-1.988952"><ele>371</ele><time>2020-10-17T11:51:15Z</time><name>PT2180</name></trkpt>
<trkpt lat="53.206504" lon="-1.988952"><ele>371</ele><time>2020-10-17T11:51:16Z</time><name>PT2181</name></trkpt>
<trkpt lat="53.206497" lon="-1.988953"><ele>371</ele><time>2020-10-17T11:51:17Z</time><name>PT2182</name></trkpt>
<trkpt lat="53.206490" lon="-1.988958"><ele>371</ele><time>2020-10-17T11:51:18Z</time><name>PT2183</name></trkpt>
<trkpt lat="53.206479" lon="-1.988962"><ele>371</ele><time>2020-10-17T11:51:19Z</time><name>PT2184</name></trkpt>
<trkpt lat="53.206469" lon="-1.988965"><ele>371</ele><time>2020-10-17T11:51:20Z</time><name>PT2185</name></trkpt>
<trkpt lat="53.206459" lon="-1.988965"><ele>371</ele><time>2020-10-17T11:51:21Z</time><name>PT2186</name></trkpt>
<trkpt lat="53.206448" lon="-1.988969"><ele>371</ele><time>2020-10-17T11:51:22Z</time><name>PT2187</name></trkpt>
<trkpt lat="53.206436" lon="-1.988979"><ele>371</ele><time>2020-10-17T11:51:23Z</time><name>PT2188</name></trkpt>
<trkpt lat="53.206425" lon="-1.988985"><ele>372</ele><time>2020-10-17T11:51:24Z</time><name>PT2189</name></trkpt>
<trkpt lat="53.206414" lon="-1.988988"><ele>372</ele><time>2020-10-17T11:51:25Z</time><name>PT2190</name></trkpt>
<trkpt lat="53.206404" lon="-1.988990"><ele>372</ele><time>2020-10-17T11:51:26Z</time><name>PT2191</name></trkpt>
<trkpt lat="53.206393" lon="-1.988995"><ele>372</ele><time>2020-10-17T11:51:27Z</time><name>PT2192</name></trkpt>
<trkpt lat="53.206381" lon="-1.989000"><ele>372</ele><time>2020-10-17T11:51:28Z</time><name>PT2193</name></trkpt>
<trkpt lat="53.206370" lon="-1.989006"><ele>373</ele><time>2020-10-17T11:51:29Z</time><name>PT2194</name></trkpt>
<trkpt lat="53.206360" lon="-1.989008"><ele>372</ele><time>2020-10-17T11:51:30Z</time><name>PT2195</name></trkpt>
<trkpt lat="53.206353" lon="-1.989012"><ele>373</ele><time>2020-10-17T11:51:31Z</time><name>PT2196</name></trkpt>
<trkpt lat="53.206344" lon="-1.989020"><ele>373</ele><time>2020-10-17T11:51:32Z</time><name>PT2197</name></trkpt>
<trkpt lat="53.206336" lon="-1.989021"><ele>372</ele><time>2020-10-17T11:51:33Z</time><name>PT2198</name></trkpt>
<trkpt lat="53.206327" lon="-1.989021"><ele>372</ele><time>2020-10-17T11:51:34Z</time><name>PT2199</name></trkpt>
<trkpt lat="53.206318" lon="-1.989022"><ele>372</ele><time>2020-10-17T11:51:35Z</time><name>PT2200</name></trkpt>
<trkpt lat="53.206312" lon="-1.989022"><ele>371</ele><time>2020-10-17T11:51:36Z</time><name>PT2201</name></trkpt>
<trkpt lat="53.206302" lon="-1.989023"><ele>371</ele><time>2020-10-17T11:51:37Z</time><name>PT2202</name></trkpt>
<trkpt lat="53.206291" lon="-1.989025"><ele>371</ele><time>2020-10-17T11:51:38Z</time><name>PT2203</name></trkpt>
<trkpt lat="53.206279" lon="-1.989028"><ele>372</ele><time>2020-10-17T11:51:39Z</time><name>PT2204</name></trkpt>
<trkpt lat="53.206268" lon="-1.989029"><ele>372</ele><time>2020-10-17T11:51:40Z</time><name>PT2205</name></trkpt>
<trkpt lat="53.206257" lon="-1.989029"><ele>371</ele><time>2020-10-17T11:51:41Z</time><name>PT2206</name></trkpt>
<trkpt lat="53.206248" lon="-1.989030"><ele>371</ele><time>2020-10-17T11:51:42Z</time><name>PT2207</name></trkpt>
<trkpt lat="53.206236" lon="-1.989035"><ele>372</ele><time>2020-10-17T11:51:43Z</time><name>PT2208</name></trkpt>
<trkpt lat="53.206225" lon="-1.989035"><ele>372</ele><time>2020-10-17T11:51:44Z</time><name>PT2209</name></trkpt>
<trkpt lat="53.206215" lon="-1.989036"><ele>372</ele><time>2020-10-17T11:51:45Z</time><name>PT2210</name></trkpt>
<trkpt lat="53.206203" lon="-1.989035"><ele>373</ele><time>2020-10-17T11:51:46Z</time><name>PT2211</name></trkpt>
<trkpt lat="53.206190" lon="-1.989038"><ele>373</ele><time>2020-10-17T11:51:47Z</time><name>PT2212</name></trkpt>
<trkpt lat="53.206180" lon="-1.989037"><ele>373</ele><time>2020-10-17T11:51:48Z</time><name>PT2213</name></trkpt>
<trkpt lat="53.206171" lon="-1.989035"><ele>373</ele><time>2020-10-17T11:51:49Z</time><name>PT2214</name></trkpt>
<trkpt lat="53.206160" lon="-1.989033"><ele>373</ele><time>2020-10-17T11:51:50Z</time><name>PT2215</name></trkpt>
<trkpt lat="53.206151" lon="-1.989031"><ele>374</ele><time>2020-10-17T11:51:51Z</time><name>PT2216</name></trkpt>
<trkpt lat="53.206143" lon="-1.989031"><ele>373</ele><time>2020-10-17T11:51:52Z</time><name>PT2217</name></trkpt>
<trkpt lat="53.206134" lon="-1.989030"><ele>373</ele><time>2020-10-17T11:51:53Z</time><name>PT2218</name></trkpt>
<trkpt lat="53.206126" lon="-1.989030"><ele>373</ele><time>2020-10-17T11:51:54Z</time><name>PT2219</name></trkpt>
<trkpt lat="53.206116" lon="-1.989026"><ele>373</ele><time>2020-10-17T11:51:55Z</time><name>PT2220</name></trkpt>
<trkpt lat="53.206106" lon="-1.989026"><ele>373</ele><time>2020-10-17T11:51:56Z</time><name>PT2221</name></trkpt>
<trkpt lat="53.206098" lon="-1.989024"><ele>372</ele><time>2020-10-17T11:51:57Z</time><name>PT2222</name></trkpt>
<trkpt lat="53.206090" lon="-1.989023"><ele>372</ele><time>2020-10-17T11:51:58Z</time><name>PT2223</name></trkpt>
<trkpt lat="53.206081" lon="-1.989023"><ele>372</ele><time>2020-10-17T11:51:59Z</time><name>PT2224</name></trkpt>
<trkpt lat="53.206070" lon="-1.989023"><ele>372</ele><time>2020-10-17T11:52:00Z</time><name>PT2225</name></trkpt>
<trkpt lat="53.206062" lon="-1.989019"><ele>373</ele><time>2020-10-17T11:52:01Z</time><name>PT2226</name></trkpt>
<trkpt lat="53.206052" lon="-1.989016"><ele>373</ele><time>2020-10-17T11:52:02Z</time><name>PT2227</name></trkpt>
<trkpt lat="53.206043" lon="-1.989010"><ele>373</ele><time>2020-10-17T11:52:03Z</time><name>PT2228</name></trkpt>
<trkpt lat="53.206033" lon="-1.989009"><ele>373</ele><time>2020-10-17T11:52:04Z</time><name>PT2229</name></trkpt>
<trkpt lat="53.206025" lon="-1.989008"><ele>373</ele><time>2020-10-17T11:52:05Z</time><name>PT2230</name></trkpt>
<trkpt lat="53.206015" lon="-1.989003"><ele>373</ele><time>2020-10-17T11:52:06Z</time><name>PT2231</name></trkpt>
<trkpt lat="53.206008" lon="-1.988995"><ele>372</ele><time>2020-10-17T11:52:07Z</time><name>PT2232</name></trkpt>
<trkpt lat="53.205998" lon="-1.988989"><ele>372</ele><time>2020-10-17T11:52:08Z</time><name>PT2233</name></trkpt>
<trkpt lat="53.205992" lon="-1.988983"><ele>372</ele><time>2020-10-17T11:52:09Z</time><name>PT2234</name></trkpt>
<trkpt lat="53.205983" lon="-1.988976"><ele>372</ele><time>2020-10-17T11:52:10Z</time><name>PT2235</name></trkpt>
<trkpt lat="53.205975" lon="-1.988969"><ele>372</ele><time>2020-10-17T11:52:11Z</time><name>PT2236</name></trkpt>
<trkpt lat="53.205965" lon="-1.988960"><ele>372</ele><time>2020-10-17T11:52:12Z</time><name>PT2237</name></trkpt>
<trkpt lat="53.205955" lon="-1.988954"><ele>372</ele><time>2020-10-17T11:52:13Z</time><name>PT2238</name></trkpt>
<trkpt lat="53.205945" lon="-1.988948"><ele>372</ele><time>2020-10-17T11:52:15Z</time><name>PT2239</name></trkpt>
<trkpt lat="53.205937" lon="-1.988946"><ele>372</ele><time>2020-10-17T11:52:15Z</time><name>PT2240</name></trkpt>
<trkpt lat="53.205927" lon="-1.988943"><ele>372</ele><time>2020-10-17T11:52:16Z</time><name>PT2241</name></trkpt>
<trkpt lat="53.205917" lon="-1.988941"><ele>371</ele><time>2020-10-17T11:52:17Z</time><name>PT2242</name></trkpt>
<trkpt lat="53.205907" lon="-1.988939"><ele>371</ele><time>2020-10-17T11:52:18Z</time><name>PT2243</name></trkpt>
<trkpt lat="53.205898" lon="-1.988933"><ele>370</ele><time>2020-10-17T11:52:19Z</time><name>PT2244</name></trkpt>
<trkpt lat="53.205886" lon="-1.988932"><ele>371</ele><time>2020-10-17T11:52:20Z</time><name>PT2245</name></trkpt>
<trkpt lat="53.205875" lon="-1.988929"><ele>371</ele><time>2020-10-17T11:52:21Z</time><name>PT2246</name></trkpt>
<trkpt lat="53.205866" lon="-1.988928"><ele>371</ele><time>2020-10-17T11:52:22Z</time><name>PT2247</name></trkpt>
<trkpt lat="53.205855" lon="-1.988922"><ele>371</ele><time>2020-10-17T11:52:23Z</time><name>PT2248</name></trkpt>
<trkpt lat="53.205843" lon="-1.988917"><ele>372</ele><time>2020-10-17T11:52:24Z</time><name>PT2249</name></trkpt>
<trkpt lat="53.205833" lon="-1.988913"><ele>372</ele><time>2020-10-17T11:52:25Z</time><name>PT2250</name></trkpt>
<trkpt lat="53.205824" lon="-1.988908"><ele>372</ele><time>2020-10-17T11:52:27Z</time><name>PT2251</name></trkpt>
<trkpt lat="53.205806" lon="-1.988907"><ele>373</ele><time>2020-10-17T11:52:27Z</time><name>PT2252</name></trkpt>
<trkpt lat="53.205795" lon="-1.988905"><ele>373</ele><time>2020-10-17T11:52:28Z</time><name>PT2253</name></trkpt>
<trkpt lat="53.205786" lon="-1.988899"><ele>373</ele><time>2020-10-17T11:52:29Z</time><name>PT2254</name></trkpt>
<trkpt lat="53.205776" lon="-1.988891"><ele>374</ele><time>2020-10-17T11:52:30Z</time><name>PT2255</name></trkpt>
<trkpt lat="53.205769" lon="-1.988886"><ele>373</ele><time>2020-10-17T11:52:31Z</time><name>PT2256</name></trkpt>
<trkpt lat="53.205761" lon="-1.988882"><ele>373</ele><time>2020-10-17T11:52:32Z</time><name>PT2257</name></trkpt>
<trkpt lat="53.205753" lon="-1.988877"><ele>373</ele><time>2020-10-17T11:52:33Z</time><name>PT2258</name></trkpt>
<trkpt lat="53.205747" lon="-1.988870"><ele>373</ele><time>2020-10-17T11:52:34Z</time><name>PT2259</name></trkpt>
<trkpt lat="53.205735" lon="-1.988861"><ele>373</ele><time>2020-10-17T11:52:35Z</time><name>PT2260</name></trkpt>
<trkpt lat="53.205726" lon="-1.988854"><ele>373</ele><time>2020-10-17T11:52:36Z</time><name>PT2261</name></trkpt>
<trkpt lat="53.205716" lon="-1.988848"><ele>373</ele><time>2020-10-17T11:52:37Z</time><name>PT2262</name></trkpt>
<trkpt lat="53.205693" lon="-1.988825"><ele>373</ele><time>2020-10-17T11:52:40Z</time><name>PT2263</name></trkpt>
<trkpt lat="53.205654" lon="-1.988791"><ele>373</ele><time>2020-10-17T11:52:44Z</time><name>PT2264</name></trkpt>
<trkpt lat="53.205620" lon="-1.988763"><ele>373</ele><time>2020-10-17T11:52:48Z</time><name>PT2265</name></trkpt>
<trkpt lat="53.205589" lon="-1.988735"><ele>373</ele><time>2020-10-17T11:52:52Z</time><name>PT2266</name></trkpt>
<trkpt lat="53.205561" lon="-1.988710"><ele>373</ele><time>2020-10-17T11:52:56Z</time><name>PT2267</name></trkpt>
<trkpt lat="53.205532" lon="-1.988697"><ele>374</ele><time>2020-10-17T11:52:59Z</time><name>PT2268</name></trkpt>
<trkpt lat="53.205502" lon="-1.988678"><ele>376</ele><time>2020-10-17T11:53:02Z</time><name>PT2269</name></trkpt>
<trkpt lat="53.205475" lon="-1.988658"><ele>376</ele><time>2020-10-17T11:53:06Z</time><name>PT2270</name></trkpt>
<trkpt lat="53.205457" lon="-1.988645"><ele>375</ele><time>2020-10-17T11:53:09Z</time><name>PT2271</name></trkpt>
<trkpt lat="53.205426" lon="-1.988626"><ele>376</ele><time>2020-10-17T11:53:13Z</time><name>PT2272</name></trkpt>
<trkpt lat="53.205398" lon="-1.988612"><ele>375</ele><time>2020-10-17T11:53:16Z</time><name>PT2273</name></trkpt>
<trkpt lat="53.205361" lon="-1.988585"><ele>376</ele><time>2020-10-17T11:53:20Z</time><name>PT2274</name></trkpt>
<trkpt lat="53.205337" lon="-1.988562"><ele>376</ele><time>2020-10-17T11:53:23Z</time><name>PT2275</name></trkpt>
<trkpt lat="53.205301" lon="-1.988543"><ele>376</ele><time>2020-10-17T11:53:27Z</time><name>PT2276</name></trkpt>
<trkpt lat="53.205280" lon="-1.988525"><ele>376</ele><time>2020-10-17T11:53:30Z</time><name>PT2277</name></trkpt>
<trkpt lat="53.205265" lon="-1.988518"><ele>376</ele><time>2020-10-17T11:53:34Z</time><name>PT2278</name></trkpt>
<trkpt lat="53.205263" lon="-1.988514"><ele>376</ele><time>2020-10-17T11:53:38Z</time><name>PT2279</name></trkpt>
<trkpt lat="53.205245" lon="-1.988494"><ele>377</ele><time>2020-10-17T11:53:46Z</time><name>PT2280</name></trkpt>
<trkpt lat="53.205221" lon="-1.988475"><ele>376</ele><time>2020-10-17T11:53:49Z</time><name>PT2281</name></trkpt>
<trkpt lat="53.205195" lon="-1.988439"><ele>375</ele><time>2020-10-17T11:53:52Z</time><name>PT2282</name></trkpt>
<trkpt lat="53.205157" lon="-1.988411"><ele>375</ele><time>2020-10-17T11:53:56Z</time><name>PT2283</name></trkpt>
<trkpt lat="53.205131" lon="-1.988382"><ele>375</ele><time>2020-10-17T11:53:59Z</time><name>PT2284</name></trkpt>
<trkpt lat="53.205091" lon="-1.988342"><ele>376</ele><time>2020-10-17T11:54:03Z</time><name>PT2285</name></trkpt>
<trkpt lat="53.205059" lon="-1.988314"><ele>377</ele><time>2020-10-17T11:54:07Z</time><name>PT2286</name></trkpt>
<trkpt lat="53.205034" lon="-1.988290"><ele>377</ele><time>2020-10-17T11:54:10Z</time><name>PT2287</name></trkpt>
<trkpt lat="53.204993" lon="-1.988250"><ele>379</ele><time>2020-10-17T11:54:14Z</time><name>PT2288</name></trkpt>
<trkpt lat="53.204963" lon="-1.988197"><ele>380</ele><time>2020-10-17T11:54:18Z</time><name>PT2289</name></trkpt>
<trkpt lat="53.204935" lon="-1.988160"><ele>380</ele><time>2020-10-17T11:54:22Z</time><name>PT2290</name></trkpt>
<trkpt lat="53.204909" lon="-1.988131"><ele>380</ele><time>2020-10-17T11:54:26Z</time><name>PT2291</name></trkpt>
<trkpt lat="53.204880" lon="-1.988107"><ele>381</ele><time>2020-10-17T11:54:30Z</time><name>PT2292</name></trkpt>
<trkpt lat="53.204850" lon="-1.988083"><ele>381</ele><time>2020-10-17T11:54:33Z</time><name>PT2293</name></trkpt>
<trkpt lat="53.204827" lon="-1.988062"><ele>381</ele><time>2020-10-17T11:54:36Z</time><name>PT2294</name></trkpt>
<trkpt lat="53.204800" lon="-1.988029"><ele>382</ele><time>2020-10-17T11:54:40Z</time><name>PT2295</name></trkpt>
<trkpt lat="53.204765" lon="-1.987993"><ele>383</ele><time>2020-10-17T11:54:44Z</time><name>PT2296</name></trkpt>
<trkpt lat="53.204734" lon="-1.987958"><ele>384</ele><time>2020-10-17T11:54:48Z</time><name>PT2297</name></trkpt>
<trkpt lat="53.204699" lon="-1.987926"><ele>384</ele><time>2020-10-17T11:54:52Z</time><name>PT2298</name></trkpt>
<trkpt lat="53.204669" lon="-1.987886"><ele>385</ele><time>2020-10-17T11:54:56Z</time><name>PT2299</name></trkpt>
<trkpt lat="53.204641" lon="-1.987846"><ele>386</ele><time>2020-10-17T11:55:00Z</time><name>PT2300</name></trkpt>
<trkpt lat="53.204621" lon="-1.987823"><ele>386</ele><time>2020-10-17T11:55:03Z</time><name>PT2301</name></trkpt>
<trkpt lat="53.204601" lon="-1.987795"><ele>386</ele><time>2020-10-17T11:55:06Z</time><name>PT2302</name></trkpt>
<trkpt lat="53.204570" lon="-1.987745"><ele>385</ele><time>2020-10-17T11:55:10Z</time><name>PT2303</name></trkpt>
<trkpt lat="53.204549" lon="-1.987718"><ele>385</ele><time>2020-10-17T11:55:13Z</time><name>PT2304</name></trkpt>
<trkpt lat="53.204531" lon="-1.987689"><ele>384</ele><time>2020-10-17T11:55:16Z</time><name>PT2305</name></trkpt>
<trkpt lat="53.204509" lon="-1.987655"><ele>384</ele><time>2020-10-17T11:55:20Z</time><name>PT2306</name></trkpt>
<trkpt lat="53.204486" lon="-1.987623"><ele>384</ele><time>2020-10-17T11:55:23Z</time><name>PT2307</name></trkpt>
<trkpt lat="53.204451" lon="-1.987581"><ele>384</ele><time>2020-10-17T11:55:27Z</time><name>PT2308</name></trkpt>
<trkpt lat="53.204427" lon="-1.987548"><ele>385</ele><time>2020-10-17T11:55:30Z</time><name>PT2309</name></trkpt>
<trkpt lat="53.204396" lon="-1.987505"><ele>385</ele><time>2020-10-17T11:55:34Z</time><name>PT2310</name></trkpt>
<trkpt lat="53.204371" lon="-1.987470"><ele>386</ele><time>2020-10-17T11:55:37Z</time><name>PT2311</name></trkpt>
<trkpt lat="53.204349" lon="-1.987440"><ele>386</ele><time>2020-10-17T11:55:40Z</time><name>PT2312</name></trkpt>
<trkpt lat="53.204317" lon="-1.987399"><ele>386</ele><time>2020-10-17T11:55:44Z</time><name>PT2313</name></trkpt>
<trkpt lat="53.204280" lon="-1.987355"><ele>386</ele><time>2020-10-17T11:55:48Z</time><name>PT2314</name></trkpt>
<trkpt lat="53.204242" lon="-1.987309"><ele>387</ele><time>2020-10-17T11:55:52Z</time><name>PT2315</name></trkpt>
<trkpt lat="53.204204" lon="-1.987262"><ele>387</ele><time>2020-10-17T11:55:56Z</time><name>PT2316</name></trkpt>
<trkpt lat="53.204173" lon="-1.987223"><ele>386</ele><time>2020-10-17T11:56:00Z</time><name>PT2317</name></trkpt>
<trkpt lat="53.204141" lon="-1.987180"><ele>385</ele><time>2020-10-17T11:56:04Z</time><name>PT2318</name></trkpt>
<trkpt lat="53.204117" lon="-1.987156"><ele>384</ele><time>2020-10-17T11:56:07Z</time><name>PT2319</name></trkpt>
<trkpt lat="53.204081" lon="-1.987117"><ele>383</ele><time>2020-10-17T11:56:11Z</time><name>PT2320</name></trkpt>
<trkpt lat="53.204052" lon="-1.987078"><ele>381</ele><time>2020-10-17T11:56:15Z</time><name>PT2321</name></trkpt>
<trkpt lat="53.204021" lon="-1.987045"><ele>383</ele><time>2020-10-17T11:56:18Z</time><name>PT2322</name></trkpt>
<trkpt lat="53.203990" lon="-1.987026"><ele>383</ele><time>2020-10-17T11:56:21Z</time><name>PT2323</name></trkpt>
<trkpt lat="53.203951" lon="-1.986974"><ele>384</ele><time>2020-10-17T11:56:25Z</time><name>PT2324</name></trkpt>
<trkpt lat="53.203914" lon="-1.986932"><ele>385</ele><time>2020-10-17T11:56:29Z</time><name>PT2325</name></trkpt>
<trkpt lat="53.203886" lon="-1.986907"><ele>385</ele><time>2020-10-17T11:56:32Z</time><name>PT2326</name></trkpt>
<trkpt lat="53.203847" lon="-1.986867"><ele>384</ele><time>2020-10-17T11:56:36Z</time><name>PT2327</name></trkpt>
<trkpt lat="53.203822" lon="-1.986832"><ele>383</ele><time>2020-10-17T11:56:39Z</time><name>PT2328</name></trkpt>
<trkpt lat="53.203787" lon="-1.986793"><ele>382</ele><time>2020-10-17T11:56:43Z</time><name>PT2329</name></trkpt>
<trkpt lat="53.203759" lon="-1.986766"><ele>381</ele><time>2020-10-17T11:56:46Z</time><name>PT2330</name></trkpt>
<trkpt lat="53.203729" lon="-1.986726"><ele>382</ele><time>2020-10-17T11:56:49Z</time><name>PT2331</name></trkpt>
<trkpt lat="53.203688" lon="-1.986684"><ele>382</ele><time>2020-10-17T11:56:53Z</time><name>PT2332</name></trkpt>
<trkpt lat="53.203662" lon="-1.986655"><ele>383</ele><time>2020-10-17T11:56:56Z</time><name>PT2333</name></trkpt>
<trkpt lat="53.203629" lon="-1.986615"><ele>383</ele><time>2020-10-17T11:57:00Z</time><name>PT2334</name></trkpt>
<trkpt lat="53.203607" lon="-1.986580"><ele>382</ele><time>2020-10-17T11:57:04Z</time><name>PT2335</name></trkpt>
<trkpt lat="53.203590" lon="-1.986538"><ele>382</ele><time>2020-10-17T11:57:08Z</time><name>PT2336</name></trkpt>
<trkpt lat="53.203570" lon="-1.986503"><ele>383</ele><time>2020-10-17T11:57:11Z</time><name>PT2337</name></trkpt>
<trkpt lat="53.203555" lon="-1.986453"><ele>382</ele><time>2020-10-17T11:57:14Z</time><name>PT2338</name></trkpt>
<trkpt lat="53.203551" lon="-1.986440"><ele>382</ele><time>2020-10-17T11:57:15Z</time><name>PT2339</name></trkpt>
<trkpt lat="53.203543" lon="-1.986422"><ele>383</ele><time>2020-10-17T11:57:16Z</time><name>PT2340</name></trkpt>
<trkpt lat="53.203537" lon="-1.986405"><ele>383</ele><time>2020-10-17T11:57:17Z</time><name>PT2341</name></trkpt>
<trkpt lat="53.203531" lon="-1.986388"><ele>383</ele><time>2020-10-17T11:57:18Z</time><name>PT2342</name></trkpt>
<trkpt lat="53.203523" lon="-1.986370"><ele>383</ele><time>2020-10-17T11:57:19Z</time><name>PT2343</name></trkpt>
<trkpt lat="53.203518" lon="-1.986355"><ele>383</ele><time>2020-10-17T11:57:20Z</time><name>PT2344</name></trkpt>
<trkpt lat="53.203512" lon="-1.986342"><ele>383</ele><time>2020-10-17T11:57:21Z</time><name>PT2345</name></trkpt>
<trkpt lat="53.203506" lon="-1.986330"><ele>383</ele><time>2020-10-17T11:57:22Z</time><name>PT2346</name></trkpt>
<trkpt lat="53.203501" lon="-1.986318"><ele>383</ele><time>2020-10-17T11:57:23Z</time><name>PT2347</name></trkpt>
<trkpt lat="53.203495" lon="-1.986306"><ele>383</ele><time>2020-10-17T11:57:24Z</time><name>PT2348</name></trkpt>
<trkpt lat="53.203490" lon="-1.986291"><ele>383</ele><time>2020-10-17T11:57:25Z</time><name>PT2349</name></trkpt>
<trkpt lat="53.203483" lon="-1.986276"><ele>383</ele><time>2020-10-17T11:57:26Z</time><name>PT2350</name></trkpt>
<trkpt lat="53.203477" lon="-1.986262"><ele>383</ele><time>2020-10-17T11:57:27Z</time><name>PT2351</name></trkpt>
<trkpt lat="53.203480" lon="-1.986256"><ele>384</ele><time>2020-10-17T11:57:28Z</time><name>PT2352</name></trkpt>
<trkpt lat="53.203480" lon="-1.986257"><ele>384</ele><time>2020-10-17T11:57:29Z</time><name>PT2353</name></trkpt>
<trkpt lat="53.203477" lon="-1.986252"><ele>384</ele><time>2020-10-17T11:57:30Z</time><name>PT2354</name></trkpt>
<trkpt lat="53.203471" lon="-1.986243"><ele>384</ele><time>2020-10-17T11:57:31Z</time><name>PT2355</name></trkpt>
<trkpt lat="53.203467" lon="-1.986229"><ele>384</ele><time>2020-10-17T11:57:32Z</time><name>PT2356</name></trkpt>
<trkpt lat="53.203462" lon="-1.986218"><ele>383</ele><time>2020-10-17T11:57:33Z</time><name>PT2357</name></trkpt>
<trkpt lat="53.203457" lon="-1.986206"><ele>383</ele><time>2020-10-17T11:57:34Z</time><name>PT2358</name></trkpt>
<trkpt lat="53.203452" lon="-1.986191"><ele>383</ele><time>2020-10-17T11:57:35Z</time><name>PT2359</name></trkpt>
<trkpt lat="53.203447" lon="-1.986177"><ele>383</ele><time>2020-10-17T11:57:36Z</time><name>PT2360</name></trkpt>
<trkpt lat="53.203441" lon="-1.986164"><ele>383</ele><time>2020-10-17T11:57:37Z</time><name>PT2361</name></trkpt>
<trkpt lat="53.203435" lon="-1.986150"><ele>383</ele><time>2020-10-17T11:57:38Z</time><name>PT2362</name></trkpt>
<trkpt lat="53.203426" lon="-1.986139"><ele>383</ele><time>2020-10-17T11:57:39Z</time><name>PT2363</name></trkpt>
<trkpt lat="53.203420" lon="-1.986125"><ele>383</ele><time>2020-10-17T11:57:40Z</time><name>PT2364</name></trkpt>
<trkpt lat="53.203420" lon="-1.986112"><ele>383</ele><time>2020-10-17T11:57:41Z</time><name>PT2365</name></trkpt>
<trkpt lat="53.203418" lon="-1.986103"><ele>383</ele><time>2020-10-17T11:57:42Z</time><name>PT2366</name></trkpt>
<trkpt lat="53.203413" lon="-1.986095"><ele>383</ele><time>2020-10-17T11:57:43Z</time><name>PT2367</name></trkpt>
<trkpt lat="53.203408" lon="-1.986080"><ele>384</ele><time>2020-10-17T11:57:44Z</time><name>PT2368</name></trkpt>
<trkpt lat="53.203404" lon="-1.986068"><ele>383</ele><time>2020-10-17T11:57:45Z</time><name>PT2369</name></trkpt>
<trkpt lat="53.203398" lon="-1.986053"><ele>384</ele><time>2020-10-17T11:57:46Z</time><name>PT2370</name></trkpt>
<trkpt lat="53.203391" lon="-1.986037"><ele>384</ele><time>2020-10-17T11:57:47Z</time><name>PT2371</name></trkpt>
<trkpt lat="53.203384" lon="-1.986021"><ele>384</ele><time>2020-10-17T11:57:48Z</time><name>PT2372</name></trkpt>
<trkpt lat="53.203380" lon="-1.986010"><ele>384</ele><time>2020-10-17T11:57:49Z</time><name>PT2373</name></trkpt>
<trkpt lat="53.203375" lon="-1.985997"><ele>384</ele><time>2020-10-17T11:57:50Z</time><name>PT2374</name></trkpt>
<trkpt lat="53.203370" lon="-1.985981"><ele>383</ele><time>2020-10-17T11:57:51Z</time><name>PT2375</name></trkpt>
<trkpt lat="53.203366" lon="-1.985964"><ele>383</ele><time>2020-10-17T11:57:52Z</time><name>PT2376</name></trkpt>
<trkpt lat="53.203363" lon="-1.985949"><ele>383</ele><time>2020-10-17T11:57:53Z</time><name>PT2377</name></trkpt>
<trkpt lat="53.203358" lon="-1.985936"><ele>383</ele><time>2020-10-17T11:57:54Z</time><name>PT2378</name></trkpt>
<trkpt lat="53.203354" lon="-1.985922"><ele>383</ele><time>2020-10-17T11:57:55Z</time><name>PT2379</name></trkpt>
<trkpt lat="53.203351" lon="-1.985906"><ele>383</ele><time>2020-10-17T11:57:56Z</time><name>PT2380</name></trkpt>
<trkpt lat="53.203346" lon="-1.985890"><ele>383</ele><time>2020-10-17T11:57:57Z</time><name>PT2381</name></trkpt>
<trkpt lat="53.203341" lon="-1.985874"><ele>383</ele><time>2020-10-17T11:57:58Z</time><name>PT2382</name></trkpt>
<trkpt lat="53.203335" lon="-1.985858"><ele>383</ele><time>2020-10-17T11:57:59Z</time><name>PT2383</name></trkpt>
<trkpt lat="53.203329" lon="-1.985848"><ele>383</ele><time>2020-10-17T11:58:00Z</time><name>PT2384</name></trkpt>
<trkpt lat="53.203325" lon="-1.985830"><ele>383</ele><time>2020-10-17T11:58:01Z</time><name>PT2385</name></trkpt>
<trkpt lat="53.203323" lon="-1.985814"><ele>383</ele><time>2020-10-17T11:58:02Z</time><name>PT2386</name></trkpt>
<trkpt lat="53.203321" lon="-1.985798"><ele>383</ele><time>2020-10-17T11:58:03Z</time><name>PT2387</name></trkpt>
<trkpt lat="53.203318" lon="-1.985782"><ele>383</ele><time>2020-10-17T11:58:04Z</time><name>PT2388</name></trkpt>
<trkpt lat="53.203315" lon="-1.985764"><ele>383</ele><time>2020-10-17T11:58:05Z</time><name>PT2389</name></trkpt>
<trkpt lat="53.203311" lon="-1.985755"><ele>383</ele><time>2020-10-17T11:58:06Z</time><name>PT2390</name></trkpt>
<trkpt lat="53.203309" lon="-1.985739"><ele>383</ele><time>2020-10-17T11:58:07Z</time><name>PT2391</name></trkpt>
<trkpt lat="53.203307" lon="-1.985727"><ele>382</ele><time>2020-10-17T11:58:09Z</time><name>PT2392</name></trkpt>
<trkpt lat="53.203306" lon="-1.985721"><ele>382</ele><time>2020-10-17T11:58:09Z</time><name>PT2393</name></trkpt>
<trkpt lat="53.203300" lon="-1.985712"><ele>382</ele><time>2020-10-17T11:58:10Z</time><name>PT2394</name></trkpt>
<trkpt lat="53.203295" lon="-1.985702"><ele>382</ele><time>2020-10-17T11:58:11Z</time><name>PT2395</name></trkpt>
<trkpt lat="53.203289" lon="-1.985696"><ele>382</ele><time>2020-10-17T11:58:12Z</time><name>PT2396</name></trkpt>
<trkpt lat="53.203285" lon="-1.985686"><ele>382</ele><time>2020-10-17T11:58:13Z</time><name>PT2397</name></trkpt>
<trkpt lat="53.203283" lon="-1.985672"><ele>382</ele><time>2020-10-17T11:58:14Z</time><name>PT2398</name></trkpt>
<trkpt lat="53.203283" lon="-1.985668"><ele>381</ele><time>2020-10-17T11:58:15Z</time><name>PT2399</name></trkpt>
<trkpt lat="53.203282" lon="-1.985663"><ele>382</ele><time>2020-10-17T11:58:16Z</time><name>PT2400</name></trkpt>
<trkpt lat="53.203280" lon="-1.985666"><ele>382</ele><time>2020-10-17T11:58:17Z</time><name>PT2401</name></trkpt>
<trkpt lat="53.203279" lon="-1.985667"><ele>382</ele><time>2020-10-17T11:58:18Z</time><name>PT2402</name></trkpt>
<trkpt lat="53.203276" lon="-1.985672"><ele>383</ele><time>2020-10-17T11:58:31Z</time><name>PT2403</name></trkpt>
<trkpt lat="53.203274" lon="-1.985684"><ele>382</ele><time>2020-10-17T11:58:32Z</time><name>PT2404</name></trkpt>
<trkpt lat="53.203275" lon="-1.985712"><ele>382</ele><time>2020-10-17T11:58:33Z</time><name>PT2405</name></trkpt>
<trkpt lat="53.203274" lon="-1.985728"><ele>382</ele><time>2020-10-17T11:58:34Z</time><name>PT2406</name></trkpt>
<trkpt lat="53.203271" lon="-1.985738"><ele>383</ele><time>2020-10-17T11:58:35Z</time><name>PT2407</name></trkpt>
<trkpt lat="53.203267" lon="-1.985741"><ele>383</ele><time>2020-10-17T11:58:36Z</time><name>PT2408</name></trkpt>
<trkpt lat="53.203267" lon="-1.985742"><ele>383</ele><time>2020-10-17T11:58:37Z</time><name>PT2409</name></trkpt>
<trkpt lat="53.203267" lon="-1.985745"><ele>382</ele><time>2020-10-17T11:58:38Z</time><name>PT2410</name></trkpt>
<trkpt lat="53.203266" lon="-1.985746"><ele>383</ele><time>2020-10-17T11:58:39Z</time><name>PT2411</name></trkpt>
<trkpt lat="53.203266" lon="-1.985751"><ele>383</ele><time>2020-10-17T11:58:53Z</time><name>PT2412</name></trkpt>
<trkpt lat="53.203263" lon="-1.985770"><ele>383</ele><time>2020-10-17T11:58:54Z</time><name>PT2413</name></trkpt>
<trkpt lat="53.203257" lon="-1.985785"><ele>383</ele><time>2020-10-17T11:58:55Z</time><name>PT2414</name></trkpt>
<trkpt lat="53.203253" lon="-1.985789"><ele>383</ele><time>2020-10-17T11:58:56Z</time><name>PT2415</name></trkpt>
<trkpt lat="53.203253" lon="-1.985799"><ele>382</ele><time>2020-10-17T11:58:57Z</time><name>PT2416</name></trkpt>
<trkpt lat="53.203253" lon="-1.985803"><ele>382</ele><time>2020-10-17T11:58:58Z</time><name>PT2417</name></trkpt>
<trkpt lat="53.203251" lon="-1.985802"><ele>382</ele><time>2020-10-17T11:59:09Z</time><name>PT2418</name></trkpt>
<trkpt lat="53.203249" lon="-1.985800"><ele>382</ele><time>2020-10-17T11:59:10Z</time><name>PT2419</name></trkpt>
<trkpt lat="53.203247" lon="-1.985800"><ele>382</ele><time>2020-10-17T11:59:11Z</time><name>PT2420</name></trkpt>
<trkpt lat="53.203247" lon="-1.985800"><ele>382</ele><time>2020-10-17T11:59:12Z</time><name>PT2421</name></trkpt>
<trkpt lat="53.203248" lon="-1.985823"><ele>382</ele><time>2020-10-17T11:59:19Z</time><name>PT2422</name></trkpt>
<trkpt lat="53.203246" lon="-1.985854"><ele>381</ele><time>2020-10-17T11:59:20Z</time><name>PT2423</name></trkpt>
<trkpt lat="53.203244" lon="-1.985876"><ele>381</ele><time>2020-10-17T11:59:21Z</time><name>PT2424</name></trkpt>
<trkpt lat="53.203243" lon="-1.985891"><ele>381</ele><time>2020-10-17T11:59:22Z</time><name>PT2425</name></trkpt>
<trkpt lat="53.203241" lon="-1.985900"><ele>381</ele><time>2020-10-17T11:59:23Z</time><name>PT2426</name></trkpt>
<trkpt lat="53.203240" lon="-1.985905"><ele>381</ele><time>2020-10-17T11:59:24Z</time><name>PT2427</name></trkpt>
<trkpt lat="53.203239" lon="-1.985906"><ele>380</ele><time>2020-10-17T11:59:25Z</time><name>PT2428</name></trkpt>
<trkpt lat="53.203238" lon="-1.985908"><ele>380</ele><time>2020-10-17T11:59:28Z</time><name>PT2429</name></trkpt>
<trkpt lat="53.203235" lon="-1.985915"><ele>380</ele><time>2020-10-17T11:59:29Z</time><name>PT2430</name></trkpt>
<trkpt lat="53.203232" lon="-1.985923"><ele>380</ele><time>2020-10-17T11:59:30Z</time><name>PT2431</name></trkpt>
<trkpt lat="53.203232" lon="-1.985927"><ele>380</ele><time>2020-10-17T11:59:31Z</time><name>PT2432</name></trkpt>
<trkpt lat="53.203233" lon="-1.985928"><ele>379</ele><time>2020-10-17T11:59:32Z</time><name>PT2433</name></trkpt>
<trkpt lat="53.203232" lon="-1.985931"><ele>379</ele><time>2020-10-17T11:59:33Z</time><name>PT2434</name></trkpt>
<trkpt lat="53.203233" lon="-1.985932"><ele>379</ele><time>2020-10-17T11:59:34Z</time><name>PT2435</name></trkpt>
<trkpt lat="53.203231" lon="-1.985928"><ele>379</ele><time>2020-10-17T11:59:39Z</time><name>PT2436</name></trkpt>
<trkpt lat="53.203232" lon="-1.985926"><ele>379</ele><time>2020-10-17T11:59:40Z</time><name>PT2437</name></trkpt>
<trkpt lat="53.203230" lon="-1.985921"><ele>379</ele><time>2020-10-17T11:59:41Z</time><name>PT2438</name></trkpt>
<trkpt lat="53.203229" lon="-1.985925"><ele>379</ele><time>2020-10-17T11:59:48Z</time><name>PT2439</name></trkpt>
<trkpt lat="53.203227" lon="-1.985923"><ele>378</ele><time>2020-10-17T11:59:49Z</time><name>PT2440</name></trkpt>
<trkpt lat="53.203226" lon="-1.985925"><ele>378</ele><time>2020-10-17T11:59:51Z</time><name>PT2441</name></trkpt>
<trkpt lat="53.203225" lon="-1.985925"><ele>378</ele><time>2020-10-17T11:59:51Z</time><name>PT2442</name></trkpt>
<trkpt lat="53.203223" lon="-1.985928"><ele>378</ele><time>2020-10-17T11:59:52Z</time><name>PT2443</name></trkpt>
<trkpt lat="53.203210" lon="-1.985939"><ele>379</ele><time>2020-10-17T12:00:14Z</time><name>PT2444</name></trkpt>
<trkpt lat="53.203204" lon="-1.985941"><ele>379</ele><time>2020-10-17T12:00:15Z</time><name>PT2445</name></trkpt>
<trkpt lat="53.203207" lon="-1.985931"><ele>379</ele><time>2020-10-17T12:00:19Z</time><name>PT2446</name></trkpt>
<trkpt lat="53.203210" lon="-1.985930"><ele>379</ele><time>2020-10-17T12:00:23Z</time><name>PT2447</name></trkpt>
<trkpt lat="53.203203" lon="-1.985964"><ele>379</ele><time>2020-10-17T12:01:22Z</time><name>PT2448</name></trkpt>
<trkpt lat="53.203174" lon="-1.986008"><ele>378</ele><time>2020-10-17T12:01:26Z</time><name>PT2449</name></trkpt>
<trkpt lat="53.203151" lon="-1.986024"><ele>377</ele><time>2020-10-17T12:01:30Z</time><name>PT2450</name></trkpt>
<trkpt lat="53.203116" lon="-1.986054"><ele>375</ele><time>2020-10-17T12:01:34Z</time><name>PT2451</name></trkpt>
<trkpt lat="53.203080" lon="-1.986091"><ele>375</ele><time>2020-10-17T12:01:38Z</time><name>PT2452</name></trkpt>
<trkpt lat="53.203045" lon="-1.986125"><ele>375</ele><time>2020-10-17T12:01:42Z</time><name>PT2453</name></trkpt>
<trkpt lat="53.202999" lon="-1.986144"><ele>374</ele><time>2020-10-17T12:01:46Z</time><name>PT2454</name></trkpt>
<trkpt lat="53.202974" lon="-1.986171"><ele>374</ele><time>2020-10-17T12:01:49Z</time><name>PT2455</name></trkpt>
<trkpt lat="53.202942" lon="-1.986228"><ele>372</ele><time>2020-10-17T12:01:53Z</time><name>PT2456</name></trkpt>
<trkpt lat="53.202907" lon="-1.986271"><ele>372</ele><time>2020-10-17T12:01:57Z</time><name>PT2457</name></trkpt>
<trkpt lat="53.202877" lon="-1.986294"><ele>371</ele><time>2020-10-17T12:02:01Z</time><name>PT2458</name></trkpt>
<trkpt lat="53.202846" lon="-1.986313"><ele>371</ele><time>2020-10-17T12:02:04Z</time><name>PT2459</name></trkpt>
<trkpt lat="53.202808" lon="-1.986351"><ele>369</ele><time>2020-10-17T12:02:08Z</time><name>PT2460</name></trkpt>
<trkpt lat="53.202781" lon="-1.986381"><ele>368</ele><time>2020-10-17T12:02:11Z</time><name>PT2461</name></trkpt>
<trkpt lat="53.202740" lon="-1.986423"><ele>367</ele><time>2020-10-17T12:02:15Z</time><name>PT2462</name></trkpt>
<trkpt lat="53.202701" lon="-1.986452"><ele>368</ele><time>2020-10-17T12:02:18Z</time><name>PT2463</name></trkpt>
<trkpt lat="53.202667" lon="-1.986494"><ele>367</ele><time>2020-10-17T12:02:20Z</time><name>PT2464</name></trkpt>
<trkpt lat="53.202655" lon="-1.986505"><ele>367</ele><time>2020-10-17T12:02:21Z</time><name>PT2465</name></trkpt>
<trkpt lat="53.202642" lon="-1.986518"><ele>367</ele><time>2020-10-17T12:02:22Z</time><name>PT2466</name></trkpt>
<trkpt lat="53.202630" lon="-1.986533"><ele>366</ele><time>2020-10-17T12:02:23Z</time><name>PT2467</name></trkpt>
<trkpt lat="53.202620" lon="-1.986542"><ele>366</ele><time>2020-10-17T12:02:24Z</time><name>PT2468</name></trkpt>
<trkpt lat="53.202609" lon="-1.986551"><ele>366</ele><time>2020-10-17T12:02:25Z</time><name>PT2469</name></trkpt>
<trkpt lat="53.202596" lon="-1.986559"><ele>365</ele><time>2020-10-17T12:02:26Z</time><name>PT2470</name></trkpt>
<trkpt lat="53.202584" lon="-1.986569"><ele>365</ele><time>2020-10-17T12:02:27Z</time><name>PT2471</name></trkpt>
<trkpt lat="53.202574" lon="-1.986581"><ele>365</ele><time>2020-10-17T12:02:28Z</time><name>PT2472</name></trkpt>
<trkpt lat="53.202566" lon="-1.986598"><ele>365</ele><time>2020-10-17T12:02:29Z</time><name>PT2473</name></trkpt>
<trkpt lat="53.202558" lon="-1.986615"><ele>365</ele><time>2020-10-17T12:02:30Z</time><name>PT2474</name></trkpt>
<trkpt lat="53.202548" lon="-1.986632"><ele>365</ele><time>2020-10-17T12:02:31Z</time><name>PT2475</name></trkpt>
<trkpt lat="53.202538" lon="-1.986647"><ele>365</ele><time>2020-10-17T12:02:32Z</time><name>PT2476</name></trkpt>
<trkpt lat="53.202527" lon="-1.986659"><ele>364</ele><time>2020-10-17T12:02:33Z</time><name>PT2477</name></trkpt>
<trkpt lat="53.202517" lon="-1.986671"><ele>364</ele><time>2020-10-17T12:02:34Z</time><name>PT2478</name></trkpt>
<trkpt lat="53.202507" lon="-1.986681"><ele>364</ele><time>2020-10-17T12:02:35Z</time><name>PT2479</name></trkpt>
<trkpt lat="53.202495" lon="-1.986690"><ele>364</ele><time>2020-10-17T12:02:36Z</time><name>PT2480</name></trkpt>
<trkpt lat="53.202483" lon="-1.986700"><ele>364</ele><time>2020-10-17T12:02:37Z</time><name>PT2481</name></trkpt>
<trkpt lat="53.202471" lon="-1.986711"><ele>364</ele><time>2020-10-17T12:02:38Z</time><name>PT2482</name></trkpt>
<trkpt lat="53.202460" lon="-1.986723"><ele>364</ele><time>2020-10-17T12:02:39Z</time><name>PT2483</name></trkpt>
<trkpt lat="53.202452" lon="-1.986737"><ele>364</ele><time>2020-10-17T12:02:40Z</time><name>PT2484</name></trkpt>
<trkpt lat="53.202444" lon="-1.986754"><ele>364</ele><time>2020-10-17T12:02:41Z</time><name>PT2485</name></trkpt>
<trkpt lat="53.202435" lon="-1.986769"><ele>364</ele><time>2020-10-17T12:02:42Z</time><name>PT2486</name></trkpt>
<trkpt lat="53.202425" lon="-1.986780"><ele>364</ele><time>2020-10-17T12:02:43Z</time><name>PT2487</name></trkpt>
<trkpt lat="53.202414" lon="-1.986794"><ele>363</ele><time>2020-10-17T12:02:44Z</time><name>PT2488</name></trkpt>
<trkpt lat="53.202403" lon="-1.986806"><ele>363</ele><time>2020-10-17T12:02:45Z</time><name>PT2489</name></trkpt>
<trkpt lat="53.202392" lon="-1.986818"><ele>363</ele><time>2020-10-17T12:02:46Z</time><name>PT2490</name></trkpt>
<trkpt lat="53.202381" lon="-1.986828"><ele>363</ele><time>2020-10-17T12:02:47Z</time><name>PT2491</name></trkpt>
<trkpt lat="53.202370" lon="-1.986839"><ele>363</ele><time>2020-10-17T12:02:48Z</time><name>PT2492</name></trkpt>
<trkpt lat="53.202358" lon="-1.986849"><ele>363</ele><time>2020-10-17T12:02:49Z</time><name>PT2493</name></trkpt>
<trkpt lat="53.202346" lon="-1.986857"><ele>363</ele><time>2020-10-17T12:02:50Z</time><name>PT2494</name></trkpt>
<trkpt lat="53.202334" lon="-1.986863"><ele>363</ele><time>2020-10-17T12:02:51Z</time><name>PT2495</name></trkpt>
<trkpt lat="53.202323" lon="-1.986873"><ele>363</ele><time>2020-10-17T12:02:52Z</time><name>PT2496</name></trkpt>
<trkpt lat="53.202310" lon="-1.986883"><ele>363</ele><time>2020-10-17T12:02:53Z</time><name>PT2497</name></trkpt>
<trkpt lat="53.202299" lon="-1.986892"><ele>363</ele><time>2020-10-17T12:02:54Z</time><name>PT2498</name></trkpt>
<trkpt lat="53.202288" lon="-1.986901"><ele>363</ele><time>2020-10-17T12:02:55Z</time><name>PT2499</name></trkpt>
<trkpt lat="53.202275" lon="-1.986913"><ele>363</ele><time>2020-10-17T12:02:56Z</time><name>PT2500</name></trkpt>
<trkpt lat="53.202263" lon="-1.986922"><ele>362</ele><time>2020-10-17T12:02:57Z</time><name>PT2501</name></trkpt>
<trkpt lat="53.202253" lon="-1.986930"><ele>362</ele><time>2020-10-17T12:02:58Z</time><name>PT2502</name></trkpt>
<trkpt lat="53.202240" lon="-1.986940"><ele>362</ele><time>2020-10-17T12:02:59Z</time><name>PT2503</name></trkpt>
<trkpt lat="53.202229" lon="-1.986951"><ele>362</ele><time>2020-10-17T12:03:00Z</time><name>PT2504</name></trkpt>
<trkpt lat="53.202217" lon="-1.986962"><ele>362</ele><time>2020-10-17T12:03:01Z</time><name>PT2505</name></trkpt>
<trkpt lat="53.202205" lon="-1.986972"><ele>362</ele><time>2020-10-17T12:03:02Z</time><name>PT2506</name></trkpt>
<trkpt lat="53.202194" lon="-1.986981"><ele>362</ele><time>2020-10-17T12:03:03Z</time><name>PT2507</name></trkpt>
<trkpt lat="53.202182" lon="-1.986990"><ele>362</ele><time>2020-10-17T12:03:04Z</time><name>PT2508</name></trkpt>
<trkpt lat="53.202170" lon="-1.986999"><ele>362</ele><time>2020-10-17T12:03:05Z</time><name>PT2509</name></trkpt>
<trkpt lat="53.202160" lon="-1.987010"><ele>362</ele><time>2020-10-17T12:03:06Z</time><name>PT2510</name></trkpt>
<trkpt lat="53.202148" lon="-1.987018"><ele>362</ele><time>2020-10-17T12:03:07Z</time><name>PT2511</name></trkpt>
<trkpt lat="53.202134" lon="-1.987028"><ele>361</ele><time>2020-10-17T12:03:08Z</time><name>PT2512</name></trkpt>
<trkpt lat="53.202122" lon="-1.987039"><ele>361</ele><time>2020-10-17T12:03:09Z</time><name>PT2513</name></trkpt>
<trkpt lat="53.202111" lon="-1.987049"><ele>361</ele><time>2020-10-17T12:03:10Z</time><name>PT2514</name></trkpt>
<trkpt lat="53.202102" lon="-1.987058"><ele>361</ele><time>2020-10-17T12:03:11Z</time><name>PT2515</name></trkpt>
<trkpt lat="53.202089" lon="-1.987063"><ele>361</ele><time>2020-10-17T12:03:12Z</time><name>PT2516</name></trkpt>
<trkpt lat="53.202077" lon="-1.987067"><ele>361</ele><time>2020-10-17T12:03:13Z</time><name>PT2517</name></trkpt>
<trkpt lat="53.202066" lon="-1.987073"><ele>360</ele><time>2020-10-17T12:03:14Z</time><name>PT2518</name></trkpt>
<trkpt lat="53.202052" lon="-1.987082"><ele>360</ele><time>2020-10-17T12:03:15Z</time><name>PT2519</name></trkpt>
<trkpt lat="53.202040" lon="-1.987091"><ele>360</ele><time>2020-10-17T12:03:16Z</time><name>PT2520</name></trkpt>
<trkpt lat="53.202030" lon="-1.987102"><ele>360</ele><time>2020-10-17T12:03:17Z</time><name>PT2521</name></trkpt>
<trkpt lat="53.202020" lon="-1.987110"><ele>359</ele><time>2020-10-17T12:03:18Z</time><name>PT2522</name></trkpt>
<trkpt lat="53.202008" lon="-1.987117"><ele>359</ele><time>2020-10-17T12:03:19Z</time><name>PT2523</name></trkpt>
<trkpt lat="53.201997" lon="-1.987127"><ele>359</ele><time>2020-10-17T12:03:20Z</time><name>PT2524</name></trkpt>
<trkpt lat="53.201988" lon="-1.987130"><ele>359</ele><time>2020-10-17T12:03:21Z</time><name>PT2525</name></trkpt>
<trkpt lat="53.201982" lon="-1.987140"><ele>359</ele><time>2020-10-17T12:03:22Z</time><name>PT2526</name></trkpt>
<trkpt lat="53.201977" lon="-1.987149"><ele>360</ele><time>2020-10-17T12:03:23Z</time><name>PT2527</name></trkpt>
<trkpt lat="53.201971" lon="-1.987156"><ele>359</ele><time>2020-10-17T12:03:24Z</time><name>PT2528</name></trkpt>
<trkpt lat="53.201965" lon="-1.987161"><ele>358</ele><time>2020-10-17T12:03:25Z</time><name>PT2529</name></trkpt>
<trkpt lat="53.201953" lon="-1.987169"><ele>359</ele><time>2020-10-17T12:03:26Z</time><name>PT2530</name></trkpt>
<trkpt lat="53.201944" lon="-1.987176"><ele>358</ele><time>2020-10-17T12:03:27Z</time><name>PT2531</name></trkpt>
<trkpt lat="53.201933" lon="-1.987182"><ele>359</ele><time>2020-10-17T12:03:28Z</time><name>PT2532</name></trkpt>
<trkpt lat="53.201921" lon="-1.987193"><ele>359</ele><time>2020-10-17T12:03:29Z</time><name>PT2533</name></trkpt>
<trkpt lat="53.201908" lon="-1.987200"><ele>359</ele><time>2020-10-17T12:03:30Z</time><name>PT2534</name></trkpt>
<trkpt lat="53.201898" lon="-1.987212"><ele>359</ele><time>2020-10-17T12:03:31Z</time><name>PT2535</name></trkpt>
<trkpt lat="53.201888" lon="-1.987220"><ele>359</ele><time>2020-10-17T12:03:32Z</time><name>PT2536</name></trkpt>
<trkpt lat="53.201876" lon="-1.987227"><ele>359</ele><time>2020-10-17T12:03:33Z</time><name>PT2537</name></trkpt>
<trkpt lat="53.201868" lon="-1.987239"><ele>359</ele><time>2020-10-17T12:03:34Z</time><name>PT2538</name></trkpt>
<trkpt lat="53.201857" lon="-1.987250"><ele>359</ele><time>2020-10-17T12:03:35Z</time><name>PT2539</name></trkpt>
<trkpt lat="53.201849" lon="-1.987256"><ele>359</ele><time>2020-10-17T12:03:36Z</time><name>PT2540</name></trkpt>
<trkpt lat="53.201837" lon="-1.987261"><ele>359</ele><time>2020-10-17T12:03:37Z</time><name>PT2541</name></trkpt>
<trkpt lat="53.201827" lon="-1.987272"><ele>359</ele><time>2020-10-17T12:03:38Z</time><name>PT2542</name></trkpt>
<trkpt lat="53.201815" lon="-1.987283"><ele>359</ele><time>2020-10-17T12:03:39Z</time><name>PT2543</name></trkpt>
<trkpt lat="53.201806" lon="-1.987294"><ele>359</ele><time>2020-10-17T12:03:40Z</time><name>PT2544</name></trkpt>
<trkpt lat="53.201795" lon="-1.987303"><ele>359</ele><time>2020-10-17T12:03:41Z</time><name>PT2545</name></trkpt>
<trkpt lat="53.201785" lon="-1.987312"><ele>359</ele><time>2020-10-17T12:03:42Z</time><name>PT2546</name></trkpt>
<trkpt lat="53.201770" lon="-1.987320"><ele>359</ele><time>2020-10-17T12:03:43Z</time><name>PT2547</name></trkpt>
<trkpt lat="53.201761" lon="-1.987331"><ele>358</ele><time>2020-10-17T12:03:44Z</time><name>PT2548</name></trkpt>
<trkpt lat="53.201755" lon="-1.987351"><ele>358</ele><time>2020-10-17T12:03:45Z</time><name>PT2549</name></trkpt>
<trkpt lat="53.201747" lon="-1.987368"><ele>358</ele><time>2020-10-17T12:03:46Z</time><name>PT2550</name></trkpt>
<trkpt lat="53.201738" lon="-1.987381"><ele>358</ele><time>2020-10-17T12:03:47Z</time><name>PT2551</name></trkpt>
<trkpt lat="53.201726" lon="-1.987392"><ele>358</ele><time>2020-10-17T12:03:48Z</time><name>PT2552</name></trkpt>
<trkpt lat="53.201716" lon="-1.987401"><ele>358</ele><time>2020-10-17T12:03:49Z</time><name>PT2553</name></trkpt>
<trkpt lat="53.201707" lon="-1.987411"><ele>358</ele><time>2020-10-17T12:03:50Z</time><name>PT2554</name></trkpt>
<trkpt lat="53.201697" lon="-1.987427"><ele>358</ele><time>2020-10-17T12:03:51Z</time><name>PT2555</name></trkpt>
<trkpt lat="53.201686" lon="-1.987439"><ele>358</ele><time>2020-10-17T12:03:52Z</time><name>PT2556</name></trkpt>
<trkpt lat="53.201674" lon="-1.987449"><ele>358</ele><time>2020-10-17T12:03:53Z</time><name>PT2557</name></trkpt>
<trkpt lat="53.201664" lon="-1.987458"><ele>358</ele><time>2020-10-17T12:03:54Z</time><name>PT2558</name></trkpt>
<trkpt lat="53.201656" lon="-1.987471"><ele>358</ele><time>2020-10-17T12:03:55Z</time><name>PT2559</name></trkpt>
<trkpt lat="53.201648" lon="-1.987477"><ele>358</ele><time>2020-10-17T12:03:56Z</time><name>PT2560</name></trkpt>
<trkpt lat="53.201640" lon="-1.987481"><ele>358</ele><time>2020-10-17T12:03:57Z</time><name>PT2561</name></trkpt>
<trkpt lat="53.201629" lon="-1.987488"><ele>358</ele><time>2020-10-17T12:03:58Z</time><name>PT2562</name></trkpt>
<trkpt lat="53.201617" lon="-1.987496"><ele>358</ele><time>2020-10-17T12:03:59Z</time><name>PT2563</name></trkpt>
<trkpt lat="53.201607" lon="-1.987506"><ele>358</ele><time>2020-10-17T12:04:00Z</time><name>PT2564</name></trkpt>
<trkpt lat="53.201595" lon="-1.987521"><ele>357</ele><time>2020-10-17T12:04:01Z</time><name>PT2565</name></trkpt>
<trkpt lat="53.201586" lon="-1.987533"><ele>357</ele><time>2020-10-17T12:04:02Z</time><name>PT2566</name></trkpt>
<trkpt lat="53.201578" lon="-1.987548"><ele>357</ele><time>2020-10-17T12:04:03Z</time><name>PT2567</name></trkpt>
<trkpt lat="53.201567" lon="-1.987562"><ele>357</ele><time>2020-10-17T12:04:04Z</time><name>PT2568</name></trkpt>
<trkpt lat="53.201556" lon="-1.987573"><ele>358</ele><time>2020-10-17T12:04:05Z</time><name>PT2569</name></trkpt>
<trkpt lat="53.201539" lon="-1.987587"><ele>358</ele><time>2020-10-17T12:04:06Z</time><name>PT2570</name></trkpt>
<trkpt lat="53.201529" lon="-1.987597"><ele>357</ele><time>2020-10-17T12:04:07Z</time><name>PT2571</name></trkpt>
<trkpt lat="53.201519" lon="-1.987606"><ele>357</ele><time>2020-10-17T12:04:08Z</time><name>PT2572</name></trkpt>
<trkpt lat="53.201505" lon="-1.987621"><ele>357</ele><time>2020-10-17T12:04:09Z</time><name>PT2573</name></trkpt>
<trkpt lat="53.201493" lon="-1.987628"><ele>357</ele><time>2020-10-17T12:04:10Z</time><name>PT2574</name></trkpt>
<trkpt lat="53.201481" lon="-1.987636"><ele>357</ele><time>2020-10-17T12:04:11Z</time><name>PT2575</name></trkpt>
<trkpt lat="53.201470" lon="-1.987645"><ele>357</ele><time>2020-10-17T12:04:12Z</time><name>PT2576</name></trkpt>
<trkpt lat="53.201459" lon="-1.987652"><ele>356</ele><time>2020-10-17T12:04:13Z</time><name>PT2577</name></trkpt>
<trkpt lat="53.201447" lon="-1.987660"><ele>356</ele><time>2020-10-17T12:04:14Z</time><name>PT2578</name></trkpt>
<trkpt lat="53.201439" lon="-1.987668"><ele>356</ele><time>2020-10-17T12:04:15Z</time><name>PT2579</name></trkpt>
<trkpt lat="53.201426" lon="-1.987676"><ele>356</ele><time>2020-10-17T12:04:16Z</time><name>PT2580</name></trkpt>
<trkpt lat="53.201418" lon="-1.987681"><ele>356</ele><time>2020-10-17T12:04:17Z</time><name>PT2581</name></trkpt>
<trkpt lat="53.201411" lon="-1.987691"><ele>356</ele><time>2020-10-17T12:04:18Z</time><name>PT2582</name></trkpt>
<trkpt lat="53.201407" lon="-1.987695"><ele>356</ele><time>2020-10-17T12:04:19Z</time><name>PT2583</name></trkpt>
<trkpt lat="53.201403" lon="-1.987697"><ele>356</ele><time>2020-10-17T12:04:20Z</time><name>PT2584</name></trkpt>
<trkpt lat="53.201401" lon="-1.987701"><ele>355</ele><time>2020-10-17T12:04:21Z</time><name>PT2585</name></trkpt>
<trkpt lat="53.201398" lon="-1.987721"><ele>355</ele><time>2020-10-17T12:04:23Z</time><name>PT2586</name></trkpt>
<trkpt lat="53.201388" lon="-1.987742"><ele>353</ele><time>2020-10-17T12:04:24Z</time><name>PT2587</name></trkpt>
<trkpt lat="53.201374" lon="-1.987752"><ele>353</ele><time>2020-10-17T12:04:25Z</time><name>PT2588</name></trkpt>
<trkpt lat="53.201367" lon="-1.987770"><ele>353</ele><time>2020-10-17T12:04:26Z</time><name>PT2589</name></trkpt>
<trkpt lat="53.201357" lon="-1.987789"><ele>353</ele><time>2020-10-17T12:04:27Z</time><name>PT2590</name></trkpt>
<trkpt lat="53.201348" lon="-1.987804"><ele>353</ele><time>2020-10-17T12:04:28Z</time><name>PT2591</name></trkpt>
<trkpt lat="53.201335" lon="-1.987823"><ele>352</ele><time>2020-10-17T12:04:29Z</time><name>PT2592</name></trkpt>
<trkpt lat="53.201325" lon="-1.987839"><ele>352</ele><time>2020-10-17T12:04:30Z</time><name>PT2593</name></trkpt>
<trkpt lat="53.201318" lon="-1.987856"><ele>352</ele><time>2020-10-17T12:04:31Z</time><name>PT2594</name></trkpt>
<trkpt lat="53.201310" lon="-1.987869"><ele>353</ele><time>2020-10-17T12:04:32Z</time><name>PT2595</name></trkpt>
<trkpt lat="53.201304" lon="-1.987878"><ele>353</ele><time>2020-10-17T12:04:33Z</time><name>PT2596</name></trkpt>
<trkpt lat="53.201298" lon="-1.987891"><ele>353</ele><time>2020-10-17T12:04:34Z</time><name>PT2597</name></trkpt>
<trkpt lat="53.201297" lon="-1.987899"><ele>353</ele><time>2020-10-17T12:04:35Z</time><name>PT2598</name></trkpt>
<trkpt lat="53.201294" lon="-1.987911"><ele>353</ele><time>2020-10-17T12:04:36Z</time><name>PT2599</name></trkpt>
<trkpt lat="53.201290" lon="-1.987922"><ele>353</ele><time>2020-10-17T12:04:37Z</time><name>PT2600</name></trkpt>
<trkpt lat="53.201284" lon="-1.987937"><ele>353</ele><time>2020-10-17T12:04:38Z</time><name>PT2601</name></trkpt>
<trkpt lat="53.201279" lon="-1.987961"><ele>353</ele><time>2020-10-17T12:04:39Z</time><name>PT2602</name></trkpt>
<trkpt lat="53.201269" lon="-1.987983"><ele>353</ele><time>2020-10-17T12:04:40Z</time><name>PT2603</name></trkpt>
<trkpt lat="53.201262" lon="-1.987995"><ele>352</ele><time>2020-10-17T12:04:41Z</time><name>PT2604</name></trkpt>
<trkpt lat="53.201253" lon="-1.988010"><ele>352</ele><time>2020-10-17T12:04:42Z</time><name>PT2605</name></trkpt>
<trkpt lat="53.201247" lon="-1.988021"><ele>352</ele><time>2020-10-17T12:04:43Z</time><name>PT2606</name></trkpt>
<trkpt lat="53.201241" lon="-1.988032"><ele>353</ele><time>2020-10-17T12:04:44Z</time><name>PT2607</name></trkpt>
<trkpt lat="53.201240" lon="-1.988041"><ele>352</ele><time>2020-10-17T12:04:45Z</time><name>PT2608</name></trkpt>
<trkpt lat="53.201239" lon="-1.988044"><ele>352</ele><time>2020-10-17T12:04:46Z</time><name>PT2609</name></trkpt>
<trkpt lat="53.201238" lon="-1.988046"><ele>352</ele><time>2020-10-17T12:04:47Z</time><name>PT2610</name></trkpt>
<trkpt lat="53.201237" lon="-1.988049"><ele>352</ele><time>2020-10-17T12:04:51Z</time><name>PT2611</name></trkpt>
<trkpt lat="53.201229" lon="-1.988060"><ele>352</ele><time>2020-10-17T12:04:52Z</time><name>PT2612</name></trkpt>
<trkpt lat="53.201220" lon="-1.988077"><ele>352</ele><time>2020-10-17T12:04:53Z</time><name>PT2613</name></trkpt>
<trkpt lat="53.201209" lon="-1.988094"><ele>353</ele><time>2020-10-17T12:04:54Z</time><name>PT2614</name></trkpt>
<trkpt lat="53.201202" lon="-1.988108"><ele>352</ele><time>2020-10-17T12:04:55Z</time><name>PT2615</name></trkpt>
<trkpt lat="53.201195" lon="-1.988125"><ele>352</ele><time>2020-10-17T12:04:56Z</time><name>PT2616</name></trkpt>
<trkpt lat="53.201189" lon="-1.988141"><ele>352</ele><time>2020-10-17T12:04:57Z</time><name>PT2617</name></trkpt>
<trkpt lat="53.201183" lon="-1.988163"><ele>352</ele><time>2020-10-17T12:04:58Z</time><name>PT2618</name></trkpt>
<trkpt lat="53.201176" lon="-1.988183"><ele>352</ele><time>2020-10-17T12:04:59Z</time><name>PT2619</name></trkpt>
<trkpt lat="53.201168" lon="-1.988201"><ele>352</ele><time>2020-10-17T12:05:00Z</time><name>PT2620</name></trkpt>
<trkpt lat="53.201161" lon="-1.988218"><ele>352</ele><time>2020-10-17T12:05:01Z</time><name>PT2621</name></trkpt>
<trkpt lat="53.201152" lon="-1.988236"><ele>352</ele><time>2020-10-17T12:05:02Z</time><name>PT2622</name></trkpt>
<trkpt lat="53.201145" lon="-1.988255"><ele>351</ele><time>2020-10-17T12:05:03Z</time><name>PT2623</name></trkpt>
<trkpt lat="53.201139" lon="-1.988270"><ele>351</ele><time>2020-10-17T12:05:04Z</time><name>PT2624</name></trkpt>
<trkpt lat="53.201133" lon="-1.988288"><ele>351</ele><time>2020-10-17T12:05:05Z</time><name>PT2625</name></trkpt>
<trkpt lat="53.201129" lon="-1.988306"><ele>351</ele><time>2020-10-17T12:05:06Z</time><name>PT2626</name></trkpt>
<trkpt lat="53.201121" lon="-1.988322"><ele>351</ele><time>2020-10-17T12:05:07Z</time><name>PT2627</name></trkpt>
<trkpt lat="53.201114" lon="-1.988339"><ele>351</ele><time>2020-10-17T12:05:08Z</time><name>PT2628</name></trkpt>
<trkpt lat="53.201101" lon="-1.988354"><ele>351</ele><time>2020-10-17T12:05:09Z</time><name>PT2629</name></trkpt>
<trkpt lat="53.201093" lon="-1.988366"><ele>350</ele><time>2020-10-17T12:05:10Z</time><name>PT2630</name></trkpt>
<trkpt lat="53.201085" lon="-1.988380"><ele>350</ele><time>2020-10-17T12:05:11Z</time><name>PT2631</name></trkpt>
<trkpt lat="53.201074" lon="-1.988400"><ele>350</ele><time>2020-10-17T12:05:12Z</time><name>PT2632</name></trkpt>
<trkpt lat="53.201066" lon="-1.988412"><ele>350</ele><time>2020-10-17T12:05:13Z</time><name>PT2633</name></trkpt>
<trkpt lat="53.201055" lon="-1.988421"><ele>350</ele><time>2020-10-17T12:05:14Z</time><name>PT2634</name></trkpt>
<trkpt lat="53.201044" lon="-1.988436"><ele>350</ele><time>2020-10-17T12:05:15Z</time><name>PT2635</name></trkpt>
<trkpt lat="53.201036" lon="-1.988451"><ele>349</ele><time>2020-10-17T12:05:16Z</time><name>PT2636</name></trkpt>
<trkpt lat="53.201029" lon="-1.988473"><ele>349</ele><time>2020-10-17T12:05:17Z</time><name>PT2637</name></trkpt>
<trkpt lat="53.201024" lon="-1.988495"><ele>349</ele><time>2020-10-17T12:05:18Z</time><name>PT2638</name></trkpt>
<trkpt lat="53.201015" lon="-1.988516"><ele>349</ele><time>2020-10-17T12:05:19Z</time><name>PT2639</name></trkpt>
<trkpt lat="53.201008" lon="-1.988531"><ele>348</ele><time>2020-10-17T12:05:20Z</time><name>PT2640</name></trkpt>
<trkpt lat="53.200999" lon="-1.988548"><ele>349</ele><time>2020-10-17T12:05:21Z</time><name>PT2641</name></trkpt>
<trkpt lat="53.200989" lon="-1.988564"><ele>348</ele><time>2020-10-17T12:05:22Z</time><name>PT2642</name></trkpt>
<trkpt lat="53.200983" lon="-1.988577"><ele>348</ele><time>2020-10-17T12:05:23Z</time><name>PT2643</name></trkpt>
<trkpt lat="53.200977" lon="-1.988597"><ele>349</ele><time>2020-10-17T12:05:24Z</time><name>PT2644</name></trkpt>
<trkpt lat="53.200952" lon="-1.988637"><ele>349</ele><time>2020-10-17T12:05:27Z</time><name>PT2645</name></trkpt>
<trkpt lat="53.200917" lon="-1.988699"><ele>350</ele><time>2020-10-17T12:05:31Z</time><name>PT2646</name></trkpt>
<trkpt lat="53.200892" lon="-1.988735"><ele>349</ele><time>2020-10-17T12:05:34Z</time><name>PT2647</name></trkpt>
<trkpt lat="53.200854" lon="-1.988796"><ele>349</ele><time>2020-10-17T12:05:38Z</time><name>PT2648</name></trkpt>
<trkpt lat="53.200820" lon="-1.988833"><ele>350</ele><time>2020-10-17T12:05:41Z</time><name>PT2649</name></trkpt>
<trkpt lat="53.200778" lon="-1.988882"><ele>349</ele><time>2020-10-17T12:05:45Z</time><name>PT2650</name></trkpt>
<trkpt lat="53.200737" lon="-1.988938"><ele>348</ele><time>2020-10-17T12:05:49Z</time><name>PT2651</name></trkpt>
<trkpt lat="53.200692" lon="-1.989009"><ele>348</ele><time>2020-10-17T12:05:53Z</time><name>PT2652</name></trkpt>
<trkpt lat="53.200646" lon="-1.989078"><ele>347</ele><time>2020-10-17T12:05:57Z</time><name>PT2653</name></trkpt>
<trkpt lat="53.200616" lon="-1.989151"><ele>347</ele><time>2020-10-17T12:06:01Z</time><name>PT2654</name></trkpt>
<trkpt lat="53.200604" lon="-1.989212"><ele>346</ele><time>2020-10-17T12:06:04Z</time><name>PT2655</name></trkpt>
<trkpt lat="53.200589" lon="-1.989256"><ele>346</ele><time>2020-10-17T12:06:08Z</time><name>PT2656</name></trkpt>
<trkpt lat="53.200565" lon="-1.989283"><ele>346</ele><time>2020-10-17T12:06:11Z</time><name>PT2657</name></trkpt>
<trkpt lat="53.200536" lon="-1.989341"><ele>346</ele><time>2020-10-17T12:06:15Z</time><name>PT2658</name></trkpt>
<trkpt lat="53.200508" lon="-1.989385"><ele>346</ele><time>2020-10-17T12:06:19Z</time><name>PT2659</name></trkpt>
<trkpt lat="53.200475" lon="-1.989413"><ele>345</ele><time>2020-10-17T12:06:22Z</time><name>PT2660</name></trkpt>
<trkpt lat="53.200424" lon="-1.989462"><ele>345</ele><time>2020-10-17T12:06:26Z</time><name>PT2661</name></trkpt>
<trkpt lat="53.200393" lon="-1.989508"><ele>345</ele><time>2020-10-17T12:06:29Z</time><name>PT2662</name></trkpt>
<trkpt lat="53.200353" lon="-1.989558"><ele>346</ele><time>2020-10-17T12:06:33Z</time><name>PT2663</name></trkpt>
<trkpt lat="53.200333" lon="-1.989606"><ele>346</ele><time>2020-10-17T12:06:36Z</time><name>PT2664</name></trkpt>
<trkpt lat="53.200299" lon="-1.989643"><ele>347</ele><time>2020-10-17T12:06:39Z</time><name>PT2665</name></trkpt>
<trkpt lat="53.200269" lon="-1.989687"><ele>347</ele><time>2020-10-17T12:06:42Z</time><name>PT2666</name></trkpt>
<trkpt lat="53.200222" lon="-1.989714"><ele>347</ele><time>2020-10-17T12:06:46Z</time><name>PT2667</name></trkpt>
<trkpt lat="53.200185" lon="-1.989742"><ele>348</ele><time>2020-10-17T12:06:49Z</time><name>PT2668</name></trkpt>
<trkpt lat="53.200139" lon="-1.989771"><ele>348</ele><time>2020-10-17T12:06:53Z</time><name>PT2669</name></trkpt>
<trkpt lat="53.200103" lon="-1.989796"><ele>348</ele><time>2020-10-17T12:06:56Z</time><name>PT2670</name></trkpt>
<trkpt lat="53.200064" lon="-1.989843"><ele>347</ele><time>2020-10-17T12:07:00Z</time><name>PT2671</name></trkpt>
<trkpt lat="53.200016" lon="-1.989889"><ele>347</ele><time>2020-10-17T12:07:04Z</time><name>PT2672</name></trkpt>
<trkpt lat="53.199973" lon="-1.989940"><ele>347</ele><time>2020-10-17T12:07:08Z</time><name>PT2673</name></trkpt>
<trkpt lat="53.199933" lon="-1.989975"><ele>346</ele><time>2020-10-17T12:07:11Z</time><name>PT2674</name></trkpt>
<trkpt lat="53.199901" lon="-1.990009"><ele>346</ele><time>2020-10-17T12:07:14Z</time><name>PT2675</name></trkpt>
<trkpt lat="53.199854" lon="-1.990042"><ele>347</ele><time>2020-10-17T12:07:18Z</time><name>PT2676</name></trkpt>
<trkpt lat="53.199816" lon="-1.990074"><ele>346</ele><time>2020-10-17T12:07:21Z</time><name>PT2677</name></trkpt>
<trkpt lat="53.199782" lon="-1.990113"><ele>346</ele><time>2020-10-17T12:07:24Z</time><name>PT2678</name></trkpt>
<trkpt lat="53.199738" lon="-1.990163"><ele>345</ele><time>2020-10-17T12:07:28Z</time><name>PT2679</name></trkpt>
<trkpt lat="53.199709" lon="-1.990202"><ele>344</ele><time>2020-10-17T12:07:31Z</time><name>PT2680</name></trkpt>
<trkpt lat="53.199688" lon="-1.990225"><ele>345</ele><time>2020-10-17T12:07:34Z</time><name>PT2681</name></trkpt>
<trkpt lat="53.199646" lon="-1.990269"><ele>344</ele><time>2020-10-17T12:07:38Z</time><name>PT2682</name></trkpt>
<trkpt lat="53.199626" lon="-1.990302"><ele>343</ele><time>2020-10-17T12:07:41Z</time><name>PT2683</name></trkpt>
<trkpt lat="53.199605" lon="-1.990353"><ele>342</ele><time>2020-10-17T12:07:45Z</time><name>PT2684</name></trkpt>
<trkpt lat="53.199587" lon="-1.990411"><ele>341</ele><time>2020-10-17T12:07:49Z</time><name>PT2685</name></trkpt>
<trkpt lat="53.199560" lon="-1.990458"><ele>341</ele><time>2020-10-17T12:07:52Z</time><name>PT2686</name></trkpt>
<trkpt lat="53.199524" lon="-1.990525"><ele>340</ele><time>2020-10-17T12:07:56Z</time><name>PT2687</name></trkpt>
<trkpt lat="53.199490" lon="-1.990563"><ele>340</ele><time>2020-10-17T12:07:59Z</time><name>PT2688</name></trkpt>
<trkpt lat="53.199458" lon="-1.990624"><ele>339</ele><time>2020-10-17T12:08:03Z</time><name>PT2689</name></trkpt>
<trkpt lat="53.199421" lon="-1.990675"><ele>338</ele><time>2020-10-17T12:08:07Z</time><name>PT2690</name></trkpt>
<trkpt lat="53.199397" lon="-1.990716"><ele>338</ele><time>2020-10-17T12:08:10Z</time><name>PT2691</name></trkpt>
<trkpt lat="53.199360" lon="-1.990769"><ele>337</ele><time>2020-10-17T12:08:14Z</time><name>PT2692</name></trkpt>
<trkpt lat="53.199333" lon="-1.990810"><ele>337</ele><time>2020-10-17T12:08:17Z</time><name>PT2693</name></trkpt>
<trkpt lat="53.199300" lon="-1.990872"><ele>335</ele><time>2020-10-17T12:08:21Z</time><name>PT2694</name></trkpt>
<trkpt lat="53.199275" lon="-1.990920"><ele>335</ele><time>2020-10-17T12:08:24Z</time><name>PT2695</name></trkpt>
<trkpt lat="53.199242" lon="-1.990980"><ele>333</ele><time>2020-10-17T12:08:28Z</time><name>PT2696</name></trkpt>
<trkpt lat="53.199214" lon="-1.991027"><ele>333</ele><time>2020-10-17T12:08:31Z</time><name>PT2697</name></trkpt>
<trkpt lat="53.199183" lon="-1.991114"><ele>333</ele><time>2020-10-17T12:08:35Z</time><name>PT2698</name></trkpt>
<trkpt lat="53.199156" lon="-1.991172"><ele>332</ele><time>2020-10-17T12:08:39Z</time><name>PT2699</name></trkpt>
<trkpt lat="53.199132" lon="-1.991228"><ele>330</ele><time>2020-10-17T12:08:43Z</time><name>PT2700</name></trkpt>
<trkpt lat="53.199110" lon="-1.991267"><ele>329</ele><time>2020-10-17T12:08:46Z</time><name>PT2701</name></trkpt>
<trkpt lat="53.199081" lon="-1.991327"><ele>328</ele><time>2020-10-17T12:08:50Z</time><name>PT2702</name></trkpt>
<trkpt lat="53.199061" lon="-1.991368"><ele>326</ele><time>2020-10-17T12:08:53Z</time><name>PT2703</name></trkpt>
<trkpt lat="53.199034" lon="-1.991423"><ele>325</ele><time>2020-10-17T12:08:57Z</time><name>PT2704</name></trkpt>
<trkpt lat="53.199017" lon="-1.991447"><ele>327</ele><time>2020-10-17T12:09:00Z</time><name>PT2705</name></trkpt>
<trkpt lat="53.199010" lon="-1.991458"><ele>327</ele><time>2020-10-17T12:09:04Z</time><name>PT2706</name></trkpt>
<trkpt lat="53.199010" lon="-1.991460"><ele>327</ele><time>2020-10-17T12:09:08Z</time><name>PT2707</name></trkpt>
<trkpt lat="53.198971" lon="-1.991505"><ele>327</ele><time>2020-10-17T12:09:12Z</time><name>PT2708</name></trkpt>
<trkpt lat="53.198927" lon="-1.991582"><ele>326</ele><time>2020-10-17T12:09:16Z</time><name>PT2709</name></trkpt>
<trkpt lat="53.198894" lon="-1.991660"><ele>325</ele><time>2020-10-17T12:09:20Z</time><name>PT2710</name></trkpt>
<trkpt lat="53.198866" lon="-1.991710"><ele>325</ele><time>2020-10-17T12:09:23Z</time><name>PT2711</name></trkpt>
<trkpt lat="53.198825" lon="-1.991784"><ele>324</ele><time>2020-10-17T12:09:27Z</time><name>PT2712</name></trkpt>
<trkpt lat="53.198799" lon="-1.991841"><ele>324</ele><time>2020-10-17T12:09:30Z</time><name>PT2713</name></trkpt>
<trkpt lat="53.198758" lon="-1.991908"><ele>323</ele><time>2020-10-17T12:09:34Z</time><name>PT2714</name></trkpt>
<trkpt lat="53.198732" lon="-1.991965"><ele>322</ele><time>2020-10-17T12:09:37Z</time><name>PT2715</name></trkpt>
<trkpt lat="53.198701" lon="-1.992031"><ele>323</ele><time>2020-10-17T12:09:41Z</time><name>PT2716</name></trkpt>
<trkpt lat="53.198675" lon="-1.992073"><ele>324</ele><time>2020-10-17T12:09:44Z</time><name>PT2717</name></trkpt>
<trkpt lat="53.198650" lon="-1.992126"><ele>323</ele><time>2020-10-17T12:09:47Z</time><name>PT2718</name></trkpt>
<trkpt lat="53.198614" lon="-1.992195"><ele>323</ele><time>2020-10-17T12:09:51Z</time><name>PT2719</name></trkpt>
<trkpt lat="53.198582" lon="-1.992266"><ele>322</ele><time>2020-10-17T12:09:55Z</time><name>PT2720</name></trkpt>
<trkpt lat="53.198557" lon="-1.992316"><ele>323</ele><time>2020-10-17T12:09:58Z</time><name>PT2721</name></trkpt>
<trkpt lat="53.198528" lon="-1.992386"><ele>322</ele><time>2020-10-17T12:10:02Z</time><name>PT2722</name></trkpt>
<trkpt lat="53.198514" lon="-1.992441"><ele>321</ele><time>2020-10-17T12:10:05Z</time><name>PT2723</name></trkpt>
<trkpt lat="53.198494" lon="-1.992503"><ele>320</ele><time>2020-10-17T12:10:08Z</time><name>PT2724</name></trkpt>
<trkpt lat="53.198470" lon="-1.992559"><ele>319</ele><time>2020-10-17T12:10:11Z</time><name>PT2725</name></trkpt>
<trkpt lat="53.198444" lon="-1.992634"><ele>319</ele><time>2020-10-17T12:10:15Z</time><name>PT2726</name></trkpt>
<trkpt lat="53.198411" lon="-1.992705"><ele>320</ele><time>2020-10-17T12:10:19Z</time><name>PT2727</name></trkpt>
<trkpt lat="53.198388" lon="-1.992760"><ele>320</ele><time>2020-10-17T12:10:22Z</time><name>PT2728</name></trkpt>
<trkpt lat="53.198363" lon="-1.992813"><ele>320</ele><time>2020-10-17T12:10:25Z</time><name>PT2729</name></trkpt>
<trkpt lat="53.198338" lon="-1.992867"><ele>320</ele><time>2020-10-17T12:10:28Z</time><name>PT2730</name></trkpt>
<trkpt lat="53.198314" lon="-1.992914"><ele>320</ele><time>2020-10-17T12:10:31Z</time><name>PT2731</name></trkpt>
<trkpt lat="53.198290" lon="-1.992987"><ele>318</ele><time>2020-10-17T12:10:35Z</time><name>PT2732</name></trkpt>
<trkpt lat="53.198268" lon="-1.993036"><ele>318</ele><time>2020-10-17T12:10:38Z</time><name>PT2733</name></trkpt>
<trkpt lat="53.198246" lon="-1.993103"><ele>317</ele><time>2020-10-17T12:10:42Z</time><name>PT2734</name></trkpt>
<trkpt lat="53.198218" lon="-1.993163"><ele>316</ele><time>2020-10-17T12:10:46Z</time><name>PT2735</name></trkpt>
<trkpt lat="53.198192" lon="-1.993217"><ele>316</ele><time>2020-10-17T12:10:49Z</time><name>PT2736</name></trkpt>
<trkpt lat="53.198159" lon="-1.993275"><ele>316</ele><time>2020-10-17T12:10:53Z</time><name>PT2737</name></trkpt>
<trkpt lat="53.198120" lon="-1.993334"><ele>315</ele><time>2020-10-17T12:10:57Z</time><name>PT2738</name></trkpt>
<trkpt lat="53.198094" lon="-1.993384"><ele>316</ele><time>2020-10-17T12:11:00Z</time><name>PT2739</name></trkpt>
<trkpt lat="53.198058" lon="-1.993446"><ele>317</ele><time>2020-10-17T12:11:04Z</time><name>PT2740</name></trkpt>
<trkpt lat="53.198032" lon="-1.993489"><ele>318</ele><time>2020-10-17T12:11:07Z</time><name>PT2741</name></trkpt>
<trkpt lat="53.198008" lon="-1.993544"><ele>320</ele><time>2020-10-17T12:11:11Z</time><name>PT2742</name></trkpt>
<trkpt lat="53.197980" lon="-1.993581"><ele>320</ele><time>2020-10-17T12:11:14Z</time><name>PT2743</name></trkpt>
<trkpt lat="53.197948" lon="-1.993646"><ele>320</ele><time>2020-10-17T12:11:18Z</time><name>PT2744</name></trkpt>
<trkpt lat="53.197918" lon="-1.993702"><ele>319</ele><time>2020-10-17T12:11:22Z</time><name>PT2745</name></trkpt>
<trkpt lat="53.197890" lon="-1.993771"><ele>318</ele><time>2020-10-17T12:11:26Z</time><name>PT2746</name></trkpt>
<trkpt lat="53.197856" lon="-1.993838"><ele>318</ele><time>2020-10-17T12:11:30Z</time><name>PT2747</name></trkpt>
<trkpt lat="53.197824" lon="-1.993883"><ele>317</ele><time>2020-10-17T12:11:33Z</time><name>PT2748</name></trkpt>
<trkpt lat="53.197800" lon="-1.993926"><ele>317</ele><time>2020-10-17T12:11:36Z</time><name>PT2749</name></trkpt>
<trkpt lat="53.197772" lon="-1.993974"><ele>316</ele><time>2020-10-17T12:11:39Z</time><name>PT2750</name></trkpt>
<trkpt lat="53.197741" lon="-1.994048"><ele>315</ele><time>2020-10-17T12:11:43Z</time><name>PT2751</name></trkpt>
<trkpt lat="53.197705" lon="-1.994104"><ele>315</ele><time>2020-10-17T12:11:47Z</time><name>PT2752</name></trkpt>
<trkpt lat="53.197667" lon="-1.994168"><ele>315</ele><time>2020-10-17T12:11:51Z</time><name>PT2753</name></trkpt>
<trkpt lat="53.197634" lon="-1.994226"><ele>314</ele><time>2020-10-17T12:11:55Z</time><name>PT2754</name></trkpt>
<trkpt lat="53.197598" lon="-1.994279"><ele>314</ele><time>2020-10-17T12:11:59Z</time><name>PT2755</name></trkpt>
<trkpt lat="53.197566" lon="-1.994328"><ele>314</ele><time>2020-10-17T12:12:03Z</time><name>PT2756</name></trkpt>
<trkpt lat="53.197540" lon="-1.994374"><ele>314</ele><time>2020-10-17T12:12:06Z</time><name>PT2757</name></trkpt>
<trkpt lat="53.197495" lon="-1.994439"><ele>314</ele><time>2020-10-17T12:12:10Z</time><name>PT2758</name></trkpt>
<trkpt lat="53.197459" lon="-1.994491"><ele>313</ele><time>2020-10-17T12:12:14Z</time><name>PT2759</name></trkpt>
<trkpt lat="53.197426" lon="-1.994529"><ele>313</ele><time>2020-10-17T12:12:17Z</time><name>PT2760</name></trkpt>
<trkpt lat="53.197390" lon="-1.994585"><ele>313</ele><time>2020-10-17T12:12:21Z</time><name>PT2761</name></trkpt>
<trkpt lat="53.197359" lon="-1.994621"><ele>313</ele><time>2020-10-17T12:12:24Z</time><name>PT2762</name></trkpt>
<trkpt lat="53.197321" lon="-1.994684"><ele>313</ele><time>2020-10-17T12:12:28Z</time><name>PT2763</name></trkpt>
<trkpt lat="53.197290" lon="-1.994727"><ele>313</ele><time>2020-10-17T12:12:31Z</time><name>PT2764</name></trkpt>
<trkpt lat="53.197256" lon="-1.994777"><ele>313</ele><time>2020-10-17T12:12:35Z</time><name>PT2765</name></trkpt>
<trkpt lat="53.197227" lon="-1.994820"><ele>313</ele><time>2020-10-17T12:12:38Z</time><name>PT2766</name></trkpt>
<trkpt lat="53.197192" lon="-1.994879"><ele>312</ele><time>2020-10-17T12:12:42Z</time><name>PT2767</name></trkpt>
<trkpt lat="53.197156" lon="-1.994950"><ele>312</ele><time>2020-10-17T12:12:46Z</time><name>PT2768</name></trkpt>
<trkpt lat="53.197119" lon="-1.995003"><ele>311</ele><time>2020-10-17T12:12:50Z</time><name>PT2769</name></trkpt>
<trkpt lat="53.197084" lon="-1.995067"><ele>311</ele><time>2020-10-17T12:12:54Z</time><name>PT2770</name></trkpt>
<trkpt lat="53.197057" lon="-1.995131"><ele>311</ele><time>2020-10-17T12:12:58Z</time><name>PT2771</name></trkpt>
<trkpt lat="53.197034" lon="-1.995171"><ele>311</ele><time>2020-10-17T12:13:01Z</time><name>PT2772</name></trkpt>
<trkpt lat="53.197001" lon="-1.995223"><ele>310</ele><time>2020-10-17T12:13:04Z</time><name>PT2773</name></trkpt>
<trkpt lat="53.196979" lon="-1.995273"><ele>309</ele><time>2020-10-17T12:13:07Z</time><name>PT2774</name></trkpt>
<trkpt lat="53.196946" lon="-1.995325"><ele>308</ele><time>2020-10-17T12:13:11Z</time><name>PT2775</name></trkpt>
<trkpt lat="53.196917" lon="-1.995372"><ele>308</ele><time>2020-10-17T12:13:14Z</time><name>PT2776</name></trkpt>
<trkpt lat="53.196877" lon="-1.995440"><ele>308</ele><time>2020-10-17T12:13:18Z</time><name>PT2777</name></trkpt>
<trkpt lat="53.196853" lon="-1.995487"><ele>309</ele><time>2020-10-17T12:13:21Z</time><name>PT2778</name></trkpt>
<trkpt lat="53.196822" lon="-1.995531"><ele>309</ele><time>2020-10-17T12:13:24Z</time><name>PT2779</name></trkpt>
<trkpt lat="53.196789" lon="-1.995583"><ele>308</ele><time>2020-10-17T12:13:28Z</time><name>PT2780</name></trkpt>
<trkpt lat="53.196765" lon="-1.995654"><ele>308</ele><time>2020-10-17T12:13:32Z</time><name>PT2781</name></trkpt>
<trkpt lat="53.196735" lon="-1.995724"><ele>308</ele><time>2020-10-17T12:13:36Z</time><name>PT2782</name></trkpt>
<trkpt lat="53.196695" lon="-1.995780"><ele>309</ele><time>2020-10-17T12:13:40Z</time><name>PT2783</name></trkpt>
<trkpt lat="53.196666" lon="-1.995828"><ele>308</ele><time>2020-10-17T12:13:43Z</time><name>PT2784</name></trkpt>
<trkpt lat="53.196630" lon="-1.995895"><ele>308</ele><time>2020-10-17T12:13:47Z</time><name>PT2785</name></trkpt>
<trkpt lat="53.196604" lon="-1.995945"><ele>308</ele><time>2020-10-17T12:13:50Z</time><name>PT2786</name></trkpt>
<trkpt lat="53.196575" lon="-1.996002"><ele>308</ele><time>2020-10-17T12:13:53Z</time><name>PT2787</name></trkpt>
<trkpt lat="53.196551" lon="-1.996052"><ele>307</ele><time>2020-10-17T12:13:56Z</time><name>PT2788</name></trkpt>
<trkpt lat="53.196517" lon="-1.996121"><ele>306</ele><time>2020-10-17T12:14:00Z</time><name>PT2789</name></trkpt>
<trkpt lat="53.196486" lon="-1.996182"><ele>306</ele><time>2020-10-17T12:14:04Z</time><name>PT2790</name></trkpt>
<trkpt lat="53.196452" lon="-1.996254"><ele>305</ele><time>2020-10-17T12:14:08Z</time><name>PT2791</name></trkpt>
<trkpt lat="53.196422" lon="-1.996300"><ele>304</ele><time>2020-10-17T12:14:11Z</time><name>PT2792</name></trkpt>
<trkpt lat="53.196389" lon="-1.996358"><ele>305</ele><time>2020-10-17T12:14:15Z</time><name>PT2793</name></trkpt>
<trkpt lat="53.196349" lon="-1.996413"><ele>304</ele><time>2020-10-17T12:14:19Z</time><name>PT2794</name></trkpt>
<trkpt lat="53.196309" lon="-1.996471"><ele>305</ele><time>2020-10-17T12:14:23Z</time><name>PT2795</name></trkpt>
<trkpt lat="53.196272" lon="-1.996532"><ele>304</ele><time>2020-10-17T12:14:27Z</time><name>PT2796</name></trkpt>
<trkpt lat="53.196241" lon="-1.996572"><ele>305</ele><time>2020-10-17T12:14:30Z</time><name>PT2797</name></trkpt>
<trkpt lat="53.196202" lon="-1.996630"><ele>305</ele><time>2020-10-17T12:14:34Z</time><name>PT2798</name></trkpt>
<trkpt lat="53.196161" lon="-1.996685"><ele>304</ele><time>2020-10-17T12:14:38Z</time><name>PT2799</name></trkpt>
<trkpt lat="53.196119" lon="-1.996730"><ele>303</ele><time>2020-10-17T12:14:42Z</time><name>PT2800</name></trkpt>
<trkpt lat="53.196100" lon="-1.996770"><ele>303</ele><time>2020-10-17T12:14:45Z</time><name>PT2801</name></trkpt>
<trkpt lat="53.196078" lon="-1.996806"><ele>302</ele><time>2020-10-17T12:14:48Z</time><name>PT2802</name></trkpt>
<trkpt lat="53.196048" lon="-1.996838"><ele>302</ele><time>2020-10-17T12:14:52Z</time><name>PT2803</name></trkpt>
<trkpt lat="53.196034" lon="-1.996858"><ele>302</ele><time>2020-10-17T12:14:55Z</time><name>PT2804</name></trkpt>
<trkpt lat="53.196020" lon="-1.996878"><ele>302</ele><time>2020-10-17T12:14:59Z</time><name>PT2805</name></trkpt>
<trkpt lat="53.196010" lon="-1.996887"><ele>302</ele><time>2020-10-17T12:15:02Z</time><name>PT2806</name></trkpt>
<trkpt lat="53.195993" lon="-1.996909"><ele>301</ele><time>2020-10-17T12:15:06Z</time><name>PT2807</name></trkpt>
<trkpt lat="53.195964" lon="-1.996965"><ele>301</ele><time>2020-10-17T12:15:09Z</time><name>PT2808</name></trkpt>
<trkpt lat="53.195932" lon="-1.997042"><ele>301</ele><time>2020-10-17T12:15:13Z</time><name>PT2809</name></trkpt>
<trkpt lat="53.195888" lon="-1.997104"><ele>302</ele><time>2020-10-17T12:15:17Z</time><name>PT2810</name></trkpt>
<trkpt lat="53.195851" lon="-1.997184"><ele>301</ele><time>2020-10-17T12:15:21Z</time><name>PT2811</name></trkpt>
<trkpt lat="53.195822" lon="-1.997226"><ele>301</ele><time>2020-10-17T12:15:24Z</time><name>PT2812</name></trkpt>
<trkpt lat="53.195785" lon="-1.997293"><ele>301</ele><time>2020-10-17T12:15:28Z</time><name>PT2813</name></trkpt>
<trkpt lat="53.195760" lon="-1.997341"><ele>301</ele><time>2020-10-17T12:15:31Z</time><name>PT2814</name></trkpt>
<trkpt lat="53.195729" lon="-1.997388"><ele>302</ele><time>2020-10-17T12:15:35Z</time><name>PT2815</name></trkpt>
<trkpt lat="53.195693" lon="-1.997434"><ele>305</ele><time>2020-10-17T12:15:39Z</time><name>PT2816</name></trkpt>
<trkpt lat="53.195652" lon="-1.997485"><ele>306</ele><time>2020-10-17T12:15:43Z</time><name>PT2817</name></trkpt>
<trkpt lat="53.195621" lon="-1.997520"><ele>307</ele><time>2020-10-17T12:15:46Z</time><name>PT2818</name></trkpt>
<trkpt lat="53.195583" lon="-1.997570"><ele>308</ele><time>2020-10-17T12:15:50Z</time><name>PT2819</name></trkpt>
<trkpt lat="53.195551" lon="-1.997612"><ele>308</ele><time>2020-10-17T12:15:53Z</time><name>PT2820</name></trkpt>
<trkpt lat="53.195508" lon="-1.997664"><ele>308</ele><time>2020-10-17T12:15:57Z</time><name>PT2821</name></trkpt>
<trkpt lat="53.195469" lon="-1.997717"><ele>308</ele><time>2020-10-17T12:16:01Z</time><name>PT2822</name></trkpt>
<trkpt lat="53.195438" lon="-1.997746"><ele>308</ele><time>2020-10-17T12:16:04Z</time><name>PT2823</name></trkpt>
<trkpt lat="53.195402" lon="-1.997780"><ele>307</ele><time>2020-10-17T12:16:08Z</time><name>PT2824</name></trkpt>
<trkpt lat="53.195373" lon="-1.997809"><ele>307</ele><time>2020-10-17T12:16:11Z</time><name>PT2825</name></trkpt>
<trkpt lat="53.195331" lon="-1.997851"><ele>307</ele><time>2020-10-17T12:16:15Z</time><name>PT2826</name></trkpt>
<trkpt lat="53.195297" lon="-1.997880"><ele>306</ele><time>2020-10-17T12:16:18Z</time><name>PT2827</name></trkpt>
<trkpt lat="53.195261" lon="-1.997903"><ele>306</ele><time>2020-10-17T12:16:21Z</time><name>PT2828</name></trkpt>
<trkpt lat="53.195232" lon="-1.997936"><ele>306</ele><time>2020-10-17T12:16:24Z</time><name>PT2829</name></trkpt>
<trkpt lat="53.195190" lon="-1.997967"><ele>305</ele><time>2020-10-17T12:16:28Z</time><name>PT2830</name></trkpt>
<trkpt lat="53.195159" lon="-1.998005"><ele>304</ele><time>2020-10-17T12:16:32Z</time><name>PT2831</name></trkpt>
<trkpt lat="53.195133" lon="-1.998027"><ele>304</ele><time>2020-10-17T12:16:35Z</time><name>PT2832</name></trkpt>
<trkpt lat="53.195118" lon="-1.998051"><ele>303</ele><time>2020-10-17T12:16:39Z</time><name>PT2833</name></trkpt>
<trkpt lat="53.195106" lon="-1.998072"><ele>303</ele><time>2020-10-17T12:16:42Z</time><name>PT2834</name></trkpt>
<trkpt lat="53.195071" lon="-1.998114"><ele>303</ele><time>2020-10-17T12:16:46Z</time><name>PT2835</name></trkpt>
<trkpt lat="53.195034" lon="-1.998188"><ele>301</ele><time>2020-10-17T12:16:50Z</time><name>PT2836</name></trkpt>
<trkpt lat="53.195002" lon="-1.998227"><ele>300</ele><time>2020-10-17T12:16:53Z</time><name>PT2837</name></trkpt>
<trkpt lat="53.194948" lon="-1.998286"><ele>300</ele><time>2020-10-17T12:16:57Z</time><name>PT2838</name></trkpt>
<trkpt lat="53.194917" lon="-1.998323"><ele>301</ele><time>2020-10-17T12:17:00Z</time><name>PT2839</name></trkpt>
<trkpt lat="53.194886" lon="-1.998358"><ele>300</ele><time>2020-10-17T12:17:03Z</time><name>PT2840</name></trkpt>
<trkpt lat="53.194845" lon="-1.998406"><ele>299</ele><time>2020-10-17T12:17:07Z</time><name>PT2841</name></trkpt>
<trkpt lat="53.194810" lon="-1.998440"><ele>299</ele><time>2020-10-17T12:17:10Z</time><name>PT2842</name></trkpt>
<trkpt lat="53.194775" lon="-1.998484"><ele>298</ele><time>2020-10-17T12:17:14Z</time><name>PT2843</name></trkpt>
<trkpt lat="53.194726" lon="-1.998526"><ele>298</ele><time>2020-10-17T12:17:18Z</time><name>PT2844</name></trkpt>
<trkpt lat="53.194688" lon="-1.998569"><ele>297</ele><time>2020-10-17T12:17:22Z</time><name>PT2845</name></trkpt>
<trkpt lat="53.194648" lon="-1.998612"><ele>296</ele><time>2020-10-17T12:17:26Z</time><name>PT2846</name></trkpt>
<trkpt lat="53.194616" lon="-1.998646"><ele>296</ele><time>2020-10-17T12:17:29Z</time><name>PT2847</name></trkpt>
<trkpt lat="53.194597" lon="-1.998689"><ele>293</ele><time>2020-10-17T12:17:33Z</time><name>PT2848</name></trkpt>
<trkpt lat="53.194570" lon="-1.998732"><ele>292</ele><time>2020-10-17T12:17:36Z</time><name>PT2849</name></trkpt>
<trkpt lat="53.194546" lon="-1.998759"><ele>291</ele><time>2020-10-17T12:17:39Z</time><name>PT2850</name></trkpt>
<trkpt lat="53.194524" lon="-1.998789"><ele>289</ele><time>2020-10-17T12:17:42Z</time><name>PT2851</name></trkpt>
<trkpt lat="53.194497" lon="-1.998811"><ele>288</ele><time>2020-10-17T12:17:45Z</time><name>PT2852</name></trkpt>
<trkpt lat="53.194459" lon="-1.998857"><ele>290</ele><time>2020-10-17T12:17:49Z</time><name>PT2853</name></trkpt>
<trkpt lat="53.194438" lon="-1.998877"><ele>290</ele><time>2020-10-17T12:17:52Z</time><name>PT2854</name></trkpt>
<trkpt lat="53.194416" lon="-1.998900"><ele>290</ele><time>2020-10-17T12:17:56Z</time><name>PT2855</name></trkpt>
<trkpt lat="53.194396" lon="-1.998932"><ele>289</ele><time>2020-10-17T12:17:59Z</time><name>PT2856</name></trkpt>
<trkpt lat="53.194369" lon="-1.998967"><ele>288</ele><time>2020-10-17T12:18:02Z</time><name>PT2857</name></trkpt>
<trkpt lat="53.194348" lon="-1.999001"><ele>287</ele><time>2020-10-17T12:18:06Z</time><name>PT2858</name></trkpt>
<trkpt lat="53.194322" lon="-1.999016"><ele>284</ele><time>2020-10-17T12:18:09Z</time><name>PT2859</name></trkpt>
<trkpt lat="53.194286" lon="-1.999026"><ele>283</ele><time>2020-10-17T12:18:13Z</time><name>PT2860</name></trkpt>
<trkpt lat="53.194252" lon="-1.999042"><ele>281</ele><time>2020-10-17T12:18:16Z</time><name>PT2861</name></trkpt>
<trkpt lat="53.194227" lon="-1.999044"><ele>280</ele><time>2020-10-17T12:18:19Z</time><name>PT2862</name></trkpt>
<trkpt lat="53.194195" lon="-1.999020"><ele>280</ele><time>2020-10-17T12:18:22Z</time><name>PT2863</name></trkpt>
<trkpt lat="53.194136" lon="-1.999031"><ele>282</ele><time>2020-10-17T12:18:24Z</time><name>PT2864</name></trkpt>
<trkpt lat="53.194118" lon="-1.999034"><ele>282</ele><time>2020-10-17T12:18:25Z</time><name>PT2865</name></trkpt>
<trkpt lat="53.194106" lon="-1.999029"><ele>283</ele><time>2020-10-17T12:18:26Z</time><name>PT2866</name></trkpt>
<trkpt lat="53.194099" lon="-1.999021"><ele>283</ele><time>2020-10-17T12:18:27Z</time><name>PT2867</name></trkpt>
<trkpt lat="53.194092" lon="-1.999012"><ele>283</ele><time>2020-10-17T12:18:28Z</time><name>PT2868</name></trkpt>
<trkpt lat="53.194080" lon="-1.999000"><ele>283</ele><time>2020-10-17T12:18:29Z</time><name>PT2869</name></trkpt>
<trkpt lat="53.194075" lon="-1.998995"><ele>282</ele><time>2020-10-17T12:18:30Z</time><name>PT2870</name></trkpt>
<trkpt lat="53.194072" lon="-1.998986"><ele>282</ele><time>2020-10-17T12:18:31Z</time><name>PT2871</name></trkpt>
<trkpt lat="53.194070" lon="-1.998979"><ele>282</ele><time>2020-10-17T12:18:32Z</time><name>PT2872</name></trkpt>
<trkpt lat="53.194067" lon="-1.998976"><ele>281</ele><time>2020-10-17T12:18:33Z</time><name>PT2873</name></trkpt>
<trkpt lat="53.194065" lon="-1.998973"><ele>281</ele><time>2020-10-17T12:18:34Z</time><name>PT2874</name></trkpt>
<trkpt lat="53.194065" lon="-1.998970"><ele>281</ele><time>2020-10-17T12:18:35Z</time><name>PT2875</name></trkpt>
<trkpt lat="53.194062" lon="-1.998964"><ele>281</ele><time>2020-10-17T12:18:36Z</time><name>PT2876</name></trkpt>
<trkpt lat="53.194061" lon="-1.998957"><ele>281</ele><time>2020-10-17T12:18:37Z</time><name>PT2877</name></trkpt>
<trkpt lat="53.194057" lon="-1.998955"><ele>281</ele><time>2020-10-17T12:18:38Z</time><name>PT2878</name></trkpt>
<trkpt lat="53.194052" lon="-1.998956"><ele>281</ele><time>2020-10-17T12:18:39Z</time><name>PT2879</name></trkpt>
<trkpt lat="53.194049" lon="-1.998955"><ele>281</ele><time>2020-10-17T12:18:40Z</time><name>PT2880</name></trkpt>
<trkpt lat="53.194037" lon="-1.998953"><ele>283</ele><time>2020-10-17T12:18:58Z</time><name>PT2881</name></trkpt>
<trkpt lat="53.194032" lon="-1.998952"><ele>283</ele><time>2020-10-17T12:18:59Z</time><name>PT2882</name></trkpt>
<trkpt lat="53.194030" lon="-1.998947"><ele>283</ele><time>2020-10-17T12:19:00Z</time><name>PT2883</name></trkpt>
<trkpt lat="53.194029" lon="-1.998948"><ele>283</ele><time>2020-10-17T12:19:10Z</time><name>PT2884</name></trkpt>
<trkpt lat="53.194031" lon="-1.998948"><ele>283</ele><time>2020-10-17T12:19:11Z</time><name>PT2885</name></trkpt>
<trkpt lat="53.194034" lon="-1.998945"><ele>282</ele><time>2020-10-17T12:19:12Z</time><name>PT2886</name></trkpt>
<trkpt lat="53.194031" lon="-1.998946"><ele>282</ele><time>2020-10-17T12:19:13Z</time><name>PT2887</name></trkpt>
<trkpt lat="53.194030" lon="-1.998944"><ele>282</ele><time>2020-10-17T12:19:14Z</time><name>PT2888</name></trkpt>
<trkpt lat="53.194028" lon="-1.998946"><ele>282</ele><time>2020-10-17T12:19:15Z</time><name>PT2889</name></trkpt>
<trkpt lat="53.194028" lon="-1.998936"><ele>282</ele><time>2020-10-17T12:19:16Z</time><name>PT2890</name></trkpt>
<trkpt lat="53.194026" lon="-1.998929"><ele>281</ele><time>2020-10-17T12:19:17Z</time><name>PT2891</name></trkpt>
<trkpt lat="53.194024" lon="-1.998926"><ele>281</ele><time>2020-10-17T12:19:18Z</time><name>PT2892</name></trkpt>
<trkpt lat="53.194025" lon="-1.998927"><ele>281</ele><time>2020-10-17T12:19:19Z</time><name>PT2893</name></trkpt>
<trkpt lat="53.194028" lon="-1.998926"><ele>281</ele><time>2020-10-17T12:19:33Z</time><name>PT2894</name></trkpt>
<trkpt lat="53.194027" lon="-1.998926"><ele>280</ele><time>2020-10-17T12:19:34Z</time><name>PT2895</name></trkpt>
<trkpt lat="53.194017" lon="-1.998926"><ele>281</ele><time>2020-10-17T12:20:14Z</time><name>PT2896</name></trkpt>
<trkpt lat="53.194001" lon="-1.998929"><ele>281</ele><time>2020-10-17T12:20:15Z</time><name>PT2897</name></trkpt>
<trkpt lat="53.193999" lon="-1.998946"><ele>281</ele><time>2020-10-17T12:20:16Z</time><name>PT2898</name></trkpt>
<trkpt lat="53.194005" lon="-1.998963"><ele>281</ele><time>2020-10-17T12:20:17Z</time><name>PT2899</name></trkpt>
<trkpt lat="53.194001" lon="-1.998974"><ele>281</ele><time>2020-10-17T12:20:18Z</time><name>PT2900</name></trkpt>
<trkpt lat="53.193997" lon="-1.998980"><ele>281</ele><time>2020-10-17T12:20:19Z</time><name>PT2901</name></trkpt>
<trkpt lat="53.193995" lon="-1.998990"><ele>281</ele><time>2020-10-17T12:20:20Z</time><name>PT2902</name></trkpt>
<trkpt lat="53.193994" lon="-1.998998"><ele>281</ele><time>2020-10-17T12:20:21Z</time><name>PT2903</name></trkpt>
<trkpt lat="53.193992" lon="-1.999006"><ele>282</ele><time>2020-10-17T12:20:22Z</time><name>PT2904</name></trkpt>
<trkpt lat="53.193996" lon="-1.999017"><ele>282</ele><time>2020-10-17T12:20:23Z</time><name>PT2905</name></trkpt>
<trkpt lat="53.193990" lon="-1.999032"><ele>282</ele><time>2020-10-17T12:20:24Z</time><name>PT2906</name></trkpt>
<trkpt lat="53.193986" lon="-1.999041"><ele>282</ele><time>2020-10-17T12:20:25Z</time><name>PT2907</name></trkpt>
<trkpt lat="53.193985" lon="-1.999049"><ele>282</ele><time>2020-10-17T12:20:26Z</time><name>PT2908</name></trkpt>
<trkpt lat="53.193985" lon="-1.999067"><ele>282</ele><time>2020-10-17T12:20:27Z</time><name>PT2909</name></trkpt>
<trkpt lat="53.193984" lon="-1.999082"><ele>282</ele><time>2020-10-17T12:20:28Z</time><name>PT2910</name></trkpt>
<trkpt lat="53.193983" lon="-1.999101"><ele>282</ele><time>2020-10-17T12:20:29Z</time><name>PT2911</name></trkpt>
<trkpt lat="53.193979" lon="-1.999117"><ele>282</ele><time>2020-10-17T12:20:30Z</time><name>PT2912</name></trkpt>
<trkpt lat="53.193979" lon="-1.999133"><ele>282</ele><time>2020-10-17T12:20:31Z</time><name>PT2913</name></trkpt>
<trkpt lat="53.193982" lon="-1.999153"><ele>283</ele><time>2020-10-17T12:20:32Z</time><name>PT2914</name></trkpt>
<trkpt lat="53.193979" lon="-1.999166"><ele>283</ele><time>2020-10-17T12:20:33Z</time><name>PT2915</name></trkpt>
<trkpt lat="53.193975" lon="-1.999178"><ele>283</ele><time>2020-10-17T12:20:34Z</time><name>PT2916</name></trkpt>
<trkpt lat="53.193975" lon="-1.999190"><ele>282</ele><time>2020-10-17T12:20:35Z</time><name>PT2917</name></trkpt>
<trkpt lat="53.193970" lon="-1.999204"><ele>282</ele><time>2020-10-17T12:20:36Z</time><name>PT2918</name></trkpt>
<trkpt lat="53.193974" lon="-1.999217"><ele>281</ele><time>2020-10-17T12:20:37Z</time><name>PT2919</name></trkpt>
<trkpt lat="53.193975" lon="-1.999237"><ele>282</ele><time>2020-10-17T12:20:38Z</time><name>PT2920</name></trkpt>
<trkpt lat="53.193976" lon="-1.999258"><ele>281</ele><time>2020-10-17T12:20:39Z</time><name>PT2921</name></trkpt>
<trkpt lat="53.193976" lon="-1.999269"><ele>281</ele><time>2020-10-17T12:20:40Z</time><name>PT2922</name></trkpt>
<trkpt lat="53.193977" lon="-1.999282"><ele>280</ele><time>2020-10-17T12:20:41Z</time><name>PT2923</name></trkpt>
<trkpt lat="53.193973" lon="-1.999305"><ele>281</ele><time>2020-10-17T12:20:42Z</time><name>PT2924</name></trkpt>
<trkpt lat="53.193971" lon="-1.999324"><ele>280</ele><time>2020-10-17T12:20:43Z</time><name>PT2925</name></trkpt>
<trkpt lat="53.193971" lon="-1.999336"><ele>281</ele><time>2020-10-17T12:20:44Z</time><name>PT2926</name></trkpt>
<trkpt lat="53.193972" lon="-1.999350"><ele>280</ele><time>2020-10-17T12:20:45Z</time><name>PT2927</name></trkpt>
<trkpt lat="53.193970" lon="-1.999362"><ele>280</ele><time>2020-10-17T12:20:46Z</time><name>PT2928</name></trkpt>
<trkpt lat="53.193971" lon="-1.999368"><ele>279</ele><time>2020-10-17T12:20:47Z</time><name>PT2929</name></trkpt>
<trkpt lat="53.193971" lon="-1.999382"><ele>278</ele><time>2020-10-17T12:20:48Z</time><name>PT2930</name></trkpt>
<trkpt lat="53.193967" lon="-1.999408"><ele>279</ele><time>2020-10-17T12:20:50Z</time><name>PT2931</name></trkpt>
<trkpt lat="53.193973" lon="-1.999418"><ele>278</ele><time>2020-10-17T12:20:50Z</time><name>PT2932</name></trkpt>
<trkpt lat="53.193977" lon="-1.999438"><ele>278</ele><time>2020-10-17T12:20:51Z</time><name>PT2933</name></trkpt>
<trkpt lat="53.193980" lon="-1.999459"><ele>278</ele><time>2020-10-17T12:20:52Z</time><name>PT2934</name></trkpt>
<trkpt lat="53.193982" lon="-1.999476"><ele>278</ele><time>2020-10-17T12:20:53Z</time><name>PT2935</name></trkpt>
<trkpt lat="53.193989" lon="-1.999485"><ele>277</ele><time>2020-10-17T12:20:54Z</time><name>PT2936</name></trkpt>
<trkpt lat="53.193989" lon="-1.999503"><ele>278</ele><time>2020-10-17T12:20:55Z</time><name>PT2937</name></trkpt>
<trkpt lat="53.193994" lon="-1.999526"><ele>278</ele><time>2020-10-17T12:20:56Z</time><name>PT2938</name></trkpt>
<trkpt lat="53.193999" lon="-1.999536"><ele>279</ele><time>2020-10-17T12:20:57Z</time><name>PT2939</name></trkpt>
<trkpt lat="53.194011" lon="-1.999546"><ele>278</ele><time>2020-10-17T12:20:58Z</time><name>PT2940</name></trkpt>
<trkpt lat="53.194015" lon="-1.999563"><ele>277</ele><time>2020-10-17T12:20:59Z</time><name>PT2941</name></trkpt>
<trkpt lat="53.194019" lon="-1.999583"><ele>277</ele><time>2020-10-17T12:21:00Z</time><name>PT2942</name></trkpt>
<trkpt lat="53.194022" lon="-1.999601"><ele>276</ele><time>2020-10-17T12:21:01Z</time><name>PT2943</name></trkpt>
<trkpt lat="53.194033" lon="-1.999615"><ele>276</ele><time>2020-10-17T12:21:02Z</time><name>PT2944</name></trkpt>
<trkpt lat="53.194036" lon="-1.999631"><ele>275</ele><time>2020-10-17T12:21:03Z</time><name>PT2945</name></trkpt>
<trkpt lat="53.194038" lon="-1.999650"><ele>275</ele><time>2020-10-17T12:21:04Z</time><name>PT2946</name></trkpt>
<trkpt lat="53.194041" lon="-1.999664"><ele>274</ele><time>2020-10-17T12:21:05Z</time><name>PT2947</name></trkpt>
<trkpt lat="53.194046" lon="-1.999677"><ele>272</ele><time>2020-10-17T12:21:06Z</time><name>PT2948</name></trkpt>
<trkpt lat="53.194053" lon="-1.999696"><ele>271</ele><time>2020-10-17T12:21:07Z</time><name>PT2949</name></trkpt>
<trkpt lat="53.194063" lon="-1.999724"><ele>271</ele><time>2020-10-17T12:21:08Z</time><name>PT2950</name></trkpt>
<trkpt lat="53.194069" lon="-1.999742"><ele>271</ele><time>2020-10-17T12:21:09Z</time><name>PT2951</name></trkpt>
<trkpt lat="53.194079" lon="-1.999771"><ele>270</ele><time>2020-10-17T12:21:10Z</time><name>PT2952</name></trkpt>
<trkpt lat="53.194084" lon="-1.999790"><ele>270</ele><time>2020-10-17T12:21:11Z</time><name>PT2953</name></trkpt>
<trkpt lat="53.194090" lon="-1.999803"><ele>270</ele><time>2020-10-17T12:21:12Z</time><name>PT2954</name></trkpt>
<trkpt lat="53.194096" lon="-1.999815"><ele>270</ele><time>2020-10-17T12:21:13Z</time><name>PT2955</name></trkpt>
<trkpt lat="53.194100" lon="-1.999829"><ele>269</ele><time>2020-10-17T12:21:14Z</time><name>PT2956</name></trkpt>
<trkpt lat="53.194107" lon="-1.999834"><ele>269</ele><time>2020-10-17T12:21:15Z</time><name>PT2957</name></trkpt>
<trkpt lat="53.194120" lon="-1.999838"><ele>270</ele><time>2020-10-17T12:21:16Z</time><name>PT2958</name></trkpt>
<trkpt lat="53.194129" lon="-1.999848"><ele>271</ele><time>2020-10-17T12:21:17Z</time><name>PT2959</name></trkpt>
<trkpt lat="53.194141" lon="-1.999861"><ele>272</ele><time>2020-10-17T12:21:18Z</time><name>PT2960</name></trkpt>
<trkpt lat="53.194151" lon="-1.999867"><ele>272</ele><time>2020-10-17T12:21:19Z</time><name>PT2961</name></trkpt>
<trkpt lat="53.194158" lon="-1.999870"><ele>272</ele><time>2020-10-17T12:21:20Z</time><name>PT2962</name></trkpt>
<trkpt lat="53.194162" lon="-1.999874"><ele>272</ele><time>2020-10-17T12:21:21Z</time><name>PT2963</name></trkpt>
<trkpt lat="53.194166" lon="-1.999879"><ele>272</ele><time>2020-10-17T12:21:22Z</time><name>PT2964</name></trkpt>
<trkpt lat="53.194173" lon="-1.999878"><ele>274</ele><time>2020-10-17T12:21:23Z</time><name>PT2965</name></trkpt>
<trkpt lat="53.194172" lon="-1.999883"><ele>274</ele><time>2020-10-17T12:21:24Z</time><name>PT2966</name></trkpt>
<trkpt lat="53.194171" lon="-1.999890"><ele>275</ele><time>2020-10-17T12:21:25Z</time><name>PT2967</name></trkpt>
<trkpt lat="53.194168" lon="-1.999894"><ele>276</ele><time>2020-10-17T12:21:28Z</time><name>PT2968</name></trkpt>
<trkpt lat="53.194170" lon="-1.999890"><ele>275</ele><time>2020-10-17T12:21:37Z</time><name>PT2969</name></trkpt>
<trkpt lat="53.194168" lon="-1.999890"><ele>275</ele><time>2020-10-17T12:21:38Z</time><name>PT2970</name></trkpt>
<trkpt lat="53.194164" lon="-1.999888"><ele>275</ele><time>2020-10-17T12:21:39Z</time><name>PT2971</name></trkpt>
<trkpt lat="53.194161" lon="-1.999889"><ele>275</ele><time>2020-10-17T12:21:40Z</time><name>PT2972</name></trkpt>
<trkpt lat="53.194162" lon="-1.999887"><ele>274</ele><time>2020-10-17T12:21:41Z</time><name>PT2973</name></trkpt>
<trkpt lat="53.194161" lon="-1.999884"><ele>274</ele><time>2020-10-17T12:21:42Z</time><name>PT2974</name></trkpt>
<trkpt lat="53.194159" lon="-1.999881"><ele>274</ele><time>2020-10-17T12:21:43Z</time><name>PT2975</name></trkpt>
<trkpt lat="53.194161" lon="-1.999880"><ele>274</ele><time>2020-10-17T12:21:44Z</time><name>PT2976</name></trkpt>
<trkpt lat="53.194161" lon="-1.999879"><ele>274</ele><time>2020-10-17T12:21:45Z</time><name>PT2977</name></trkpt>
<trkpt lat="53.194162" lon="-1.999880"><ele>274</ele><time>2020-10-17T12:21:46Z</time><name>PT2978</name></trkpt>
<trkpt lat="53.194160" lon="-1.999878"><ele>274</ele><time>2020-10-17T12:21:52Z</time><name>PT2979</name></trkpt>
<trkpt lat="53.194161" lon="-1.999878"><ele>274</ele><time>2020-10-17T12:21:53Z</time><name>PT2980</name></trkpt>
<trkpt lat="53.194163" lon="-1.999879"><ele>274</ele><time>2020-10-17T12:21:54Z</time><name>PT2981</name></trkpt>
<trkpt lat="53.194165" lon="-1.999880"><ele>274</ele><time>2020-10-17T12:21:56Z</time><name>PT2982</name></trkpt>
<trkpt lat="53.194163" lon="-1.999880"><ele>274</ele><time>2020-10-17T12:21:57Z</time><name>PT2983</name></trkpt>
<trkpt lat="53.194167" lon="-1.999878"><ele>274</ele><time>2020-10-17T12:21:58Z</time><name>PT2984</name></trkpt>
<trkpt lat="53.194170" lon="-1.999878"><ele>274</ele><time>2020-10-17T12:21:59Z</time><name>PT2985</name></trkpt>
<trkpt lat="53.194176" lon="-1.999886"><ele>274</ele><time>2020-10-17T12:22:00Z</time><name>PT2986</name></trkpt>
<trkpt lat="53.194180" lon="-1.999890"><ele>274</ele><time>2020-10-17T12:22:01Z</time><name>PT2987</name></trkpt>
<trkpt lat="53.194182" lon="-1.999890"><ele>274</ele><time>2020-10-17T12:22:02Z</time><name>PT2988</name></trkpt>
<trkpt lat="53.194182" lon="-1.999882"><ele>274</ele><time>2020-10-17T12:22:03Z</time><name>PT2989</name></trkpt>
<trkpt lat="53.194182" lon="-1.999879"><ele>274</ele><time>2020-10-17T12:22:04Z</time><name>PT2990</name></trkpt>
<trkpt lat="53.194184" lon="-1.999883"><ele>274</ele><time>2020-10-17T12:22:05Z</time><name>PT2991</name></trkpt>
<trkpt lat="53.194189" lon="-1.999885"><ele>274</ele><time>2020-10-17T12:22:06Z</time><name>PT2992</name></trkpt>
<trkpt lat="53.194185" lon="-1.999885"><ele>274</ele><time>2020-10-17T12:22:07Z</time><name>PT2993</name></trkpt>
<trkpt lat="53.194180" lon="-1.999886"><ele>274</ele><time>2020-10-17T12:22:08Z</time><name>PT2994</name></trkpt>
<trkpt lat="53.194176" lon="-1.999898"><ele>273</ele><time>2020-10-17T12:22:09Z</time><name>PT2995</name></trkpt>
<trkpt lat="53.194176" lon="-1.999906"><ele>274</ele><time>2020-10-17T12:22:10Z</time><name>PT2996</name></trkpt>
<trkpt lat="53.194174" lon="-1.999909"><ele>274</ele><time>2020-10-17T12:22:11Z</time><name>PT2997</name></trkpt>
<trkpt lat="53.194170" lon="-1.999900"><ele>272</ele><time>2020-10-17T12:22:15Z</time><name>PT2998</name></trkpt>
<trkpt lat="53.194166" lon="-1.999910"><ele>273</ele><time>2020-10-17T12:22:16Z</time><name>PT2999</name></trkpt>
<trkpt lat="53.194170" lon="-1.999910"><ele>273</ele><time>2020-10-17T12:22:17Z</time><name>PT3000</name></trkpt>
<trkpt lat="53.194163" lon="-1.999917"><ele>273</ele><time>2020-10-17T12:22:21Z</time><name>PT3001</name></trkpt>
<trkpt lat="53.194157" lon="-1.999914"><ele>273</ele><time>2020-10-17T12:22:22Z</time><name>PT3002</name></trkpt>
<trkpt lat="53.194159" lon="-1.999917"><ele>273</ele><time>2020-10-17T12:22:23Z</time><name>PT3003</name></trkpt>
<trkpt lat="53.194159" lon="-1.999925"><ele>273</ele><time>2020-10-17T12:22:24Z</time><name>PT3004</name></trkpt>
<trkpt lat="53.194159" lon="-1.999937"><ele>273</ele><time>2020-10-17T12:22:25Z</time><name>PT3005</name></trkpt>
<trkpt lat="53.194162" lon="-1.999951"><ele>273</ele><time>2020-10-17T12:22:26Z</time><name>PT3006</name></trkpt>
<trkpt lat="53.194158" lon="-1.999961"><ele>272</ele><time>2020-10-17T12:22:27Z</time><name>PT3007</name></trkpt>
<trkpt lat="53.194154" lon="-1.999979"><ele>273</ele><time>2020-10-17T12:22:28Z</time><name>PT3008</name></trkpt>
<trkpt lat="53.194151" lon="-1.999982"><ele>273</ele><time>2020-10-17T12:22:29Z</time><name>PT3009</name></trkpt>
<trkpt lat="53.194140" lon="-1.999982"><ele>273</ele><time>2020-10-17T12:22:30Z</time><name>PT3010</name></trkpt>
<trkpt lat="53.194137" lon="-1.999988"><ele>273</ele><time>2020-10-17T12:22:31Z</time><name>PT3011</name></trkpt>
<trkpt lat="53.194136" lon="-1.999990"><ele>272</ele><time>2020-10-17T12:22:32Z</time><name>PT3012</name></trkpt>
<trkpt lat="53.194137" lon="-2.000004"><ele>273</ele><time>2020-10-17T12:22:33Z</time><name>PT3013</name></trkpt>
<trkpt lat="53.194134" lon="-2.000015"><ele>272</ele><time>2020-10-17T12:22:34Z</time><name>PT3014</name></trkpt>
<trkpt lat="53.194131" lon="-2.000019"><ele>272</ele><time>2020-10-17T12:22:35Z</time><name>PT3015</name></trkpt>
<trkpt lat="53.194129" lon="-2.000025"><ele>272</ele><time>2020-10-17T12:22:36Z</time><name>PT3016</name></trkpt>
<trkpt lat="53.194127" lon="-2.000027"><ele>272</ele><time>2020-10-17T12:22:37Z</time><name>PT3017</name></trkpt>
<trkpt lat="53.194126" lon="-2.000024"><ele>273</ele><time>2020-10-17T12:22:38Z</time><name>PT3018</name></trkpt>
<trkpt lat="53.194124" lon="-2.000031"><ele>273</ele><time>2020-10-17T12:22:39Z</time><name>PT3019</name></trkpt>
<trkpt lat="53.194122" lon="-2.000041"><ele>273</ele><time>2020-10-17T12:22:40Z</time><name>PT3020</name></trkpt>
<trkpt lat="53.194121" lon="-2.000046"><ele>273</ele><time>2020-10-17T12:22:41Z</time><name>PT3021</name></trkpt>
<trkpt lat="53.194106" lon="-2.000063"><ele>273</ele><time>2020-10-17T12:22:47Z</time><name>PT3022</name></trkpt>
<trkpt lat="53.194103" lon="-2.000074"><ele>273</ele><time>2020-10-17T12:22:48Z</time><name>PT3023</name></trkpt>
<trkpt lat="53.194099" lon="-2.000078"><ele>273</ele><time>2020-10-17T12:22:49Z</time><name>PT3024</name></trkpt>
<trkpt lat="53.194096" lon="-2.000080"><ele>273</ele><time>2020-10-17T12:22:50Z</time><name>PT3025</name></trkpt>
<trkpt lat="53.194091" lon="-2.000076"><ele>273</ele><time>2020-10-17T12:22:51Z</time><name>PT3026</name></trkpt>
<trkpt lat="53.194085" lon="-2.000071"><ele>273</ele><time>2020-10-17T12:22:52Z</time><name>PT3027</name></trkpt>
<trkpt lat="53.194079" lon="-2.000070"><ele>273</ele><time>2020-10-17T12:22:53Z</time><name>PT3028</name></trkpt>
<trkpt lat="53.194077" lon="-2.000069"><ele>274</ele><time>2020-10-17T12:22:54Z</time><name>PT3029</name></trkpt>
<trkpt lat="53.194070" lon="-2.000065"><ele>274</ele><time>2020-10-17T12:22:55Z</time><name>PT3030</name></trkpt>
<trkpt lat="53.194066" lon="-2.000065"><ele>274</ele><time>2020-10-17T12:22:56Z</time><name>PT3031</name></trkpt>
<trkpt lat="53.194063" lon="-2.000068"><ele>274</ele><time>2020-10-17T12:22:57Z</time><name>PT3032</name></trkpt>
<trkpt lat="53.194062" lon="-2.000065"><ele>274</ele><time>2020-10-17T12:22:58Z</time><name>PT3033</name></trkpt>
<trkpt lat="53.194053" lon="-2.000061"><ele>274</ele><time>2020-10-17T12:22:59Z</time><name>PT3034</name></trkpt>
<trkpt lat="53.194043" lon="-2.000061"><ele>275</ele><time>2020-10-17T12:23:00Z</time><name>PT3035</name></trkpt>
<trkpt lat="53.194034" lon="-2.000056"><ele>275</ele><time>2020-10-17T12:23:01Z</time><name>PT3036</name></trkpt>
<trkpt lat="53.194030" lon="-2.000057"><ele>274</ele><time>2020-10-17T12:23:02Z</time><name>PT3037</name></trkpt>
<trkpt lat="53.194027" lon="-2.000056"><ele>274</ele><time>2020-10-17T12:23:03Z</time><name>PT3038</name></trkpt>
<trkpt lat="53.194025" lon="-2.000053"><ele>274</ele><time>2020-10-17T12:23:04Z</time><name>PT3039</name></trkpt>
<trkpt lat="53.194019" lon="-2.000047"><ele>274</ele><time>2020-10-17T12:23:05Z</time><name>PT3040</name></trkpt>
<trkpt lat="53.194016" lon="-2.000048"><ele>274</ele><time>2020-10-17T12:23:06Z</time><name>PT3041</name></trkpt>
<trkpt lat="53.194011" lon="-2.000049"><ele>274</ele><time>2020-10-17T12:23:07Z</time><name>PT3042</name></trkpt>
<trkpt lat="53.194007" lon="-2.000048"><ele>274</ele><time>2020-10-17T12:23:08Z</time><name>PT3043</name></trkpt>
<trkpt lat="53.193996" lon="-2.000036"><ele>274</ele><time>2020-10-17T12:23:09Z</time><name>PT3044</name></trkpt>
<trkpt lat="53.193987" lon="-2.000027"><ele>274</ele><time>2020-10-17T12:23:10Z</time><name>PT3045</name></trkpt>
<trkpt lat="53.193981" lon="-2.000020"><ele>275</ele><time>2020-10-17T12:23:11Z</time><name>PT3046</name></trkpt>
<trkpt lat="53.193971" lon="-2.000014"><ele>275</ele><time>2020-10-17T12:23:12Z</time><name>PT3047</name></trkpt>
<trkpt lat="53.193964" lon="-2.000014"><ele>275</ele><time>2020-10-17T12:23:13Z</time><name>PT3048</name></trkpt>
<trkpt lat="53.193957" lon="-2.000014"><ele>275</ele><time>2020-10-17T12:23:14Z</time><name>PT3049</name></trkpt>
<trkpt lat="53.193948" lon="-2.000012"><ele>275</ele><time>2020-10-17T12:23:15Z</time><name>PT3050</name></trkpt>
<trkpt lat="53.193939" lon="-2.000016"><ele>276</ele><time>2020-10-17T12:23:16Z</time><name>PT3051</name></trkpt>
<trkpt lat="53.193931" lon="-2.000018"><ele>276</ele><time>2020-10-17T12:23:17Z</time><name>PT3052</name></trkpt>
<trkpt lat="53.193922" lon="-2.000020"><ele>276</ele><time>2020-10-17T12:23:18Z</time><name>PT3053</name></trkpt>
<trkpt lat="53.193912" lon="-2.000025"><ele>277</ele><time>2020-10-17T12:23:19Z</time><name>PT3054</name></trkpt>
<trkpt lat="53.193903" lon="-2.000031"><ele>276</ele><time>2020-10-17T12:23:20Z</time><name>PT3055</name></trkpt>
<trkpt lat="53.193893" lon="-2.000039"><ele>276</ele><time>2020-10-17T12:23:21Z</time><name>PT3056</name></trkpt>
<trkpt lat="53.193886" lon="-2.000047"><ele>275</ele><time>2020-10-17T12:23:22Z</time><name>PT3057</name></trkpt>
<trkpt lat="53.193877" lon="-2.000057"><ele>275</ele><time>2020-10-17T12:23:23Z</time><name>PT3058</name></trkpt>
<trkpt lat="53.193869" lon="-2.000065"><ele>275</ele><time>2020-10-17T12:23:24Z</time><name>PT3059</name></trkpt>
<trkpt lat="53.193860" lon="-2.000075"><ele>275</ele><time>2020-10-17T12:23:25Z</time><name>PT3060</name></trkpt>
<trkpt lat="53.193850" lon="-2.000082"><ele>276</ele><time>2020-10-17T12:23:26Z</time><name>PT3061</name></trkpt>
<trkpt lat="53.193840" lon="-2.000086"><ele>276</ele><time>2020-10-17T12:23:27Z</time><name>PT3062</name></trkpt>
<trkpt lat="53.193834" lon="-2.000089"><ele>276</ele><time>2020-10-17T12:23:28Z</time><name>PT3063</name></trkpt>
<trkpt lat="53.193830" lon="-2.000088"><ele>276</ele><time>2020-10-17T12:23:29Z</time><name>PT3064</name></trkpt>
<trkpt lat="53.193824" lon="-2.000088"><ele>276</ele><time>2020-10-17T12:23:30Z</time><name>PT3065</name></trkpt>
<trkpt lat="53.193821" lon="-2.000093"><ele>276</ele><time>2020-10-17T12:23:31Z</time><name>PT3066</name></trkpt>
<trkpt lat="53.193814" lon="-2.000100"><ele>275</ele><time>2020-10-17T12:23:32Z</time><name>PT3067</name></trkpt>
<trkpt lat="53.193804" lon="-2.000112"><ele>275</ele><time>2020-10-17T12:23:33Z</time><name>PT3068</name></trkpt>
<trkpt lat="53.193799" lon="-2.000125"><ele>275</ele><time>2020-10-17T12:23:34Z</time><name>PT3069</name></trkpt>
<trkpt lat="53.193794" lon="-2.000137"><ele>275</ele><time>2020-10-17T12:23:35Z</time><name>PT3070</name></trkpt>
<trkpt lat="53.193794" lon="-2.000149"><ele>274</ele><time>2020-10-17T12:23:36Z</time><name>PT3071</name></trkpt>
<trkpt lat="53.193790" lon="-2.000165"><ele>274</ele><time>2020-10-17T12:23:37Z</time><name>PT3072</name></trkpt>
<trkpt lat="53.193783" lon="-2.000181"><ele>274</ele><time>2020-10-17T12:23:38Z</time><name>PT3073</name></trkpt>
<trkpt lat="53.193776" lon="-2.000198"><ele>273</ele><time>2020-10-17T12:23:39Z</time><name>PT3074</name></trkpt>
<trkpt lat="53.193773" lon="-2.000211"><ele>273</ele><time>2020-10-17T12:23:40Z</time><name>PT3075</name></trkpt>
<trkpt lat="53.193763" lon="-2.000227"><ele>273</ele><time>2020-10-17T12:23:41Z</time><name>PT3076</name></trkpt>
<trkpt lat="53.193757" lon="-2.000242"><ele>274</ele><time>2020-10-17T12:23:42Z</time><name>PT3077</name></trkpt>
<trkpt lat="53.193751" lon="-2.000253"><ele>273</ele><time>2020-10-17T12:23:43Z</time><name>PT3078</name></trkpt>
<trkpt lat="53.193735" lon="-2.000279"><ele>273</ele><time>2020-10-17T12:23:44Z</time><name>PT3079</name></trkpt>
<trkpt lat="53.193730" lon="-2.000297"><ele>273</ele><time>2020-10-17T12:23:45Z</time><name>PT3080</name></trkpt>
<trkpt lat="53.193722" lon="-2.000317"><ele>273</ele><time>2020-10-17T12:23:46Z</time><name>PT3081</name></trkpt>
<trkpt lat="53.193713" lon="-2.000332"><ele>273</ele><time>2020-10-17T12:23:47Z</time><name>PT3082</name></trkpt>
<trkpt lat="53.193708" lon="-2.000342"><ele>273</ele><time>2020-10-17T12:23:48Z</time><name>PT3083</name></trkpt>
<trkpt lat="53.193701" lon="-2.000360"><ele>274</ele><time>2020-10-17T12:23:49Z</time><name>PT3084</name></trkpt>
<trkpt lat="53.193700" lon="-2.000373"><ele>273</ele><time>2020-10-17T12:23:50Z</time><name>PT3085</name></trkpt>
<trkpt lat="53.193694" lon="-2.000390"><ele>274</ele><time>2020-10-17T12:23:51Z</time><name>PT3086</name></trkpt>
<trkpt lat="53.193691" lon="-2.000400"><ele>274</ele><time>2020-10-17T12:23:52Z</time><name>PT3087</name></trkpt>
<trkpt lat="53.193685" lon="-2.000424"><ele>272</ele><time>2020-10-17T12:23:53Z</time><name>PT3088</name></trkpt>
<trkpt lat="53.193681" lon="-2.000436"><ele>271</ele><time>2020-10-17T12:23:54Z</time><name>PT3089</name></trkpt>
<trkpt lat="53.193676" lon="-2.000449"><ele>271</ele><time>2020-10-17T12:23:55Z</time><name>PT3090</name></trkpt>
<trkpt lat="53.193664" lon="-2.000473"><ele>272</ele><time>2020-10-17T12:23:56Z</time><name>PT3091</name></trkpt>
<trkpt lat="53.193654" lon="-2.000497"><ele>272</ele><time>2020-10-17T12:23:57Z</time><name>PT3092</name></trkpt>
<trkpt lat="53.193644" lon="-2.000514"><ele>272</ele><time>2020-10-17T12:23:58Z</time><name>PT3093</name></trkpt>
<trkpt lat="53.193637" lon="-2.000532"><ele>273</ele><time>2020-10-17T12:23:59Z</time><name>PT3094</name></trkpt>
<trkpt lat="53.193632" lon="-2.000555"><ele>273</ele><time>2020-10-17T12:24:00Z</time><name>PT3095</name></trkpt>
<trkpt lat="53.193626" lon="-2.000570"><ele>274</ele><time>2020-10-17T12:24:01Z</time><name>PT3096</name></trkpt>
<trkpt lat="53.193619" lon="-2.000579"><ele>274</ele><time>2020-10-17T12:24:02Z</time><name>PT3097</name></trkpt>
<trkpt lat="53.193611" lon="-2.000594"><ele>273</ele><time>2020-10-17T12:24:03Z</time><name>PT3098</name></trkpt>
<trkpt lat="53.193603" lon="-2.000611"><ele>273</ele><time>2020-10-17T12:24:04Z</time><name>PT3099</name></trkpt>
<trkpt lat="53.193596" lon="-2.000630"><ele>273</ele><time>2020-10-17T12:24:05Z</time><name>PT3100</name></trkpt>
<trkpt lat="53.193588" lon="-2.000633"><ele>272</ele><time>2020-10-17T12:24:06Z</time><name>PT3101</name></trkpt>
<trkpt lat="53.193587" lon="-2.000636"><ele>272</ele><time>2020-10-17T12:24:07Z</time><name>PT3102</name></trkpt>
<trkpt lat="53.193584" lon="-2.000644"><ele>271</ele><time>2020-10-17T12:24:08Z</time><name>PT3103</name></trkpt>
<trkpt lat="53.193578" lon="-2.000651"><ele>271</ele><time>2020-10-17T12:24:09Z</time><name>PT3104</name></trkpt>
<trkpt lat="53.193567" lon="-2.000669"><ele>271</ele><time>2020-10-17T12:24:10Z</time><name>PT3105</name></trkpt>
<trkpt lat="53.193544" lon="-2.000688"><ele>272</ele><time>2020-10-17T12:24:11Z</time><name>PT3106</name></trkpt>
<trkpt lat="53.193533" lon="-2.000703"><ele>272</ele><time>2020-10-17T12:24:12Z</time><name>PT3107</name></trkpt>
<trkpt lat="53.193526" lon="-2.000720"><ele>272</ele><time>2020-10-17T12:24:13Z</time><name>PT3108</name></trkpt>
<trkpt lat="53.193514" lon="-2.000740"><ele>272</ele><time>2020-10-17T12:24:14Z</time><name>PT3109</name></trkpt>
<trkpt lat="53.193505" lon="-2.000745"><ele>272</ele><time>2020-10-17T12:24:15Z</time><name>PT3110</name></trkpt>
<trkpt lat="53.193493" lon="-2.000756"><ele>271</ele><time>2020-10-17T12:24:16Z</time><name>PT3111</name></trkpt>
<trkpt lat="53.193475" lon="-2.000772"><ele>272</ele><time>2020-10-17T12:24:17Z</time><name>PT3112</name></trkpt>
<trkpt lat="53.193461" lon="-2.000782"><ele>272</ele><time>2020-10-17T12:24:18Z</time><name>PT3113</name></trkpt>
<trkpt lat="53.193452" lon="-2.000791"><ele>271</ele><time>2020-10-17T12:24:19Z</time><name>PT3114</name></trkpt>
<trkpt lat="53.193440" lon="-2.000802"><ele>271</ele><time>2020-10-17T12:24:20Z</time><name>PT3115</name></trkpt>
<trkpt lat="53.193434" lon="-2.000816"><ele>272</ele><time>2020-10-17T12:24:21Z</time><name>PT3116</name></trkpt>
<trkpt lat="53.193430" lon="-2.000831"><ele>271</ele><time>2020-10-17T12:24:22Z</time><name>PT3117</name></trkpt>
<trkpt lat="53.193421" lon="-2.000848"><ele>271</ele><time>2020-10-17T12:24:23Z</time><name>PT3118</name></trkpt>
<trkpt lat="53.193417" lon="-2.000858"><ele>270</ele><time>2020-10-17T12:24:24Z</time><name>PT3119</name></trkpt>
<trkpt lat="53.193408" lon="-2.000874"><ele>270</ele><time>2020-10-17T12:24:25Z</time><name>PT3120</name></trkpt>
<trkpt lat="53.193401" lon="-2.000888"><ele>270</ele><time>2020-10-17T12:24:26Z</time><name>PT3121</name></trkpt>
<trkpt lat="53.193397" lon="-2.000896"><ele>269</ele><time>2020-10-17T12:24:27Z</time><name>PT3122</name></trkpt>
<trkpt lat="53.193388" lon="-2.000904"><ele>269</ele><time>2020-10-17T12:24:28Z</time><name>PT3123</name></trkpt>
<trkpt lat="53.193384" lon="-2.000913"><ele>269</ele><time>2020-10-17T12:24:29Z</time><name>PT3124</name></trkpt>
<trkpt lat="53.193382" lon="-2.000916"><ele>269</ele><time>2020-10-17T12:24:30Z</time><name>PT3125</name></trkpt>
<trkpt lat="53.193378" lon="-2.000926"><ele>266</ele><time>2020-10-17T12:24:31Z</time><name>PT3126</name></trkpt>
<trkpt lat="53.193377" lon="-2.000931"><ele>265</ele><time>2020-10-17T12:24:32Z</time><name>PT3127</name></trkpt>
<trkpt lat="53.193358" lon="-2.000952"><ele>264</ele><time>2020-10-17T12:24:45Z</time><name>PT3128</name></trkpt>
<trkpt lat="53.193329" lon="-2.001001"><ele>262</ele><time>2020-10-17T12:24:49Z</time><name>PT3129</name></trkpt>
<trkpt lat="53.193305" lon="-2.001046"><ele>262</ele><time>2020-10-17T12:24:52Z</time><name>PT3130</name></trkpt>
<trkpt lat="53.193269" lon="-2.001075"><ele>264</ele><time>2020-10-17T12:24:55Z</time><name>PT3131</name></trkpt>
<trkpt lat="53.193232" lon="-2.001122"><ele>263</ele><time>2020-10-17T12:24:59Z</time><name>PT3132</name></trkpt>
<trkpt lat="53.193196" lon="-2.001177"><ele>263</ele><time>2020-10-17T12:25:03Z</time><name>PT3133</name></trkpt>
<trkpt lat="53.193176" lon="-2.001237"><ele>264</ele><time>2020-10-17T12:25:06Z</time><name>PT3134</name></trkpt>
<trkpt lat="53.193144" lon="-2.001285"><ele>263</ele><time>2020-10-17T12:25:10Z</time><name>PT3135</name></trkpt>
<trkpt lat="53.193130" lon="-2.001336"><ele>262</ele><time>2020-10-17T12:25:13Z</time><name>PT3136</name></trkpt>
<trkpt lat="53.193112" lon="-2.001370"><ele>262</ele><time>2020-10-17T12:25:16Z</time><name>PT3137</name></trkpt>
<trkpt lat="53.193097" lon="-2.001399"><ele>262</ele><time>2020-10-17T12:25:19Z</time><name>PT3138</name></trkpt>
<trkpt lat="53.193076" lon="-2.001407"><ele>264</ele><time>2020-10-17T12:25:23Z</time><name>PT3139</name></trkpt>
<trkpt lat="53.193072" lon="-2.001411"><ele>265</ele><time>2020-10-17T12:25:26Z</time><name>PT3140</name></trkpt>
<trkpt lat="53.193026" lon="-2.001416"><ele>264</ele><time>2020-10-17T12:25:34Z</time><name>PT3141</name></trkpt>
<trkpt lat="53.193019" lon="-2.001404"><ele>264</ele><time>2020-10-17T12:25:38Z</time><name>PT3142</name></trkpt>
<trkpt lat="53.192967" lon="-2.001413"><ele>265</ele><time>2020-10-17T12:25:53Z</time><name>PT3143</name></trkpt>
<trkpt lat="53.192960" lon="-2.001425"><ele>265</ele><time>2020-10-17T12:25:56Z</time><name>PT3144</name></trkpt>
<trkpt lat="53.192953" lon="-2.001462"><ele>263</ele><time>2020-10-17T12:26:01Z</time><name>PT3145</name></trkpt>
<trkpt lat="53.192950" lon="-2.001506"><ele>262</ele><time>2020-10-17T12:26:04Z</time><name>PT3146</name></trkpt>
<trkpt lat="53.192944" lon="-2.001575"><ele>259</ele><time>2020-10-17T12:26:08Z</time><name>PT3147</name></trkpt>
<trkpt lat="53.192952" lon="-2.001607"><ele>260</ele><time>2020-10-17T12:26:11Z</time><name>PT3148</name></trkpt>
<trkpt lat="53.192954" lon="-2.001657"><ele>259</ele><time>2020-10-17T12:26:15Z</time><name>PT3149</name></trkpt>
<trkpt lat="53.192954" lon="-2.001733"><ele>262</ele><time>2020-10-17T12:26:18Z</time><name>PT3150</name></trkpt>
<trkpt lat="53.192954" lon="-2.001785"><ele>262</ele><time>2020-10-17T12:26:21Z</time><name>PT3151</name></trkpt>
<trkpt lat="53.192968" lon="-2.001862"><ele>263</ele><time>2020-10-17T12:26:25Z</time><name>PT3152</name></trkpt>
<trkpt lat="53.192977" lon="-2.001922"><ele>263</ele><time>2020-10-17T12:26:28Z</time><name>PT3153</name></trkpt>
<trkpt lat="53.192978" lon="-2.001995"><ele>263</ele><time>2020-10-17T12:26:32Z</time><name>PT3154</name></trkpt>
<trkpt lat="53.192976" lon="-2.002056"><ele>264</ele><time>2020-10-17T12:26:35Z</time><name>PT3155</name></trkpt>
<trkpt lat="53.192977" lon="-2.002159"><ele>266</ele><time>2020-10-17T12:26:39Z</time><name>PT3156</name></trkpt>
<trkpt lat="53.192992" lon="-2.002213"><ele>267</ele><time>2020-10-17T12:26:43Z</time><name>PT3157</name></trkpt>
<trkpt lat="53.193005" lon="-2.002271"><ele>267</ele><time>2020-10-17T12:26:47Z</time><name>PT3158</name></trkpt>
<trkpt lat="53.193005" lon="-2.002295"><ele>267</ele><time>2020-10-17T12:26:51Z</time><name>PT3159</name></trkpt>
<trkpt lat="53.193003" lon="-2.002338"><ele>267</ele><time>2020-10-17T12:26:57Z</time><name>PT3160</name></trkpt>
<trkpt lat="53.192994" lon="-2.002385"><ele>267</ele><time>2020-10-17T12:27:01Z</time><name>PT3161</name></trkpt>
<trkpt lat="53.192997" lon="-2.002441"><ele>266</ele><time>2020-10-17T12:27:04Z</time><name>PT3162</name></trkpt>
<trkpt lat="53.192975" lon="-2.002486"><ele>260</ele><time>2020-10-17T12:27:08Z</time><name>PT3163</name></trkpt>
<trkpt lat="53.192982" lon="-2.002535"><ele>261</ele><time>2020-10-17T12:27:12Z</time><name>PT3164</name></trkpt>
<trkpt lat="53.192999" lon="-2.002581"><ele>262</ele><time>2020-10-17T12:27:16Z</time><name>PT3165</name></trkpt>
<trkpt lat="53.193022" lon="-2.002631"><ele>262</ele><time>2020-10-17T12:27:20Z</time><name>PT3166</name></trkpt>
<trkpt lat="53.193048" lon="-2.002683"><ele>264</ele><time>2020-10-17T12:27:24Z</time><name>PT3167</name></trkpt>
<trkpt lat="53.193064" lon="-2.002730"><ele>263</ele><time>2020-10-17T12:27:28Z</time><name>PT3168</name></trkpt>
<trkpt lat="53.193082" lon="-2.002779"><ele>264</ele><time>2020-10-17T12:27:31Z</time><name>PT3169</name></trkpt>
<trkpt lat="53.193108" lon="-2.002834"><ele>264</ele><time>2020-10-17T12:27:35Z</time><name>PT3170</name></trkpt>
<trkpt lat="53.193114" lon="-2.002916"><ele>263</ele><time>2020-10-17T12:27:39Z</time><name>PT3171</name></trkpt>
<trkpt lat="53.193118" lon="-2.002968"><ele>262</ele><time>2020-10-17T12:27:42Z</time><name>PT3172</name></trkpt>
<trkpt lat="53.193122" lon="-2.002990"><ele>262</ele><time>2020-10-17T12:27:45Z</time><name>PT3173</name></trkpt>
<trkpt lat="53.193121" lon="-2.003038"><ele>262</ele><time>2020-10-17T12:28:06Z</time><name>PT3174</name></trkpt>
<trkpt lat="53.193119" lon="-2.003051"><ele>262</ele><time>2020-10-17T12:28:31Z</time><name>PT3175</name></trkpt>
<trkpt lat="53.193129" lon="-2.003047"><ele>261</ele><time>2020-10-17T12:28:34Z</time><name>PT3176</name></trkpt>
<trkpt lat="53.193067" lon="-2.003037"><ele>264</ele><time>2020-10-17T12:28:38Z</time><name>PT3177</name></trkpt>
<trkpt lat="53.193051" lon="-2.003042"><ele>264</ele><time>2020-10-17T12:28:39Z</time><name>PT3178</name></trkpt>
<trkpt lat="53.193038" lon="-2.003047"><ele>264</ele><time>2020-10-17T12:28:40Z</time><name>PT3179</name></trkpt>
<trkpt lat="53.193026" lon="-2.003053"><ele>264</ele><time>2020-10-17T12:28:41Z</time><name>PT3180</name></trkpt>
<trkpt lat="53.193016" lon="-2.003061"><ele>264</ele><time>2020-10-17T12:28:42Z</time><name>PT3181</name></trkpt>
<trkpt lat="53.193006" lon="-2.003068"><ele>264</ele><time>2020-10-17T12:28:43Z</time><name>PT3182</name></trkpt>
<trkpt lat="53.192998" lon="-2.003075"><ele>264</ele><time>2020-10-17T12:28:44Z</time><name>PT3183</name></trkpt>
<trkpt lat="53.192991" lon="-2.003085"><ele>264</ele><time>2020-10-17T12:28:45Z</time><name>PT3184</name></trkpt>
<trkpt lat="53.192989" lon="-2.003097"><ele>264</ele><time>2020-10-17T12:28:46Z</time><name>PT3185</name></trkpt>
<trkpt lat="53.192990" lon="-2.003110"><ele>264</ele><time>2020-10-17T12:28:47Z</time><name>PT3186</name></trkpt>
<trkpt lat="53.192992" lon="-2.003126"><ele>264</ele><time>2020-10-17T12:28:48Z</time><name>PT3187</name></trkpt>
<trkpt lat="53.192994" lon="-2.003141"><ele>264</ele><time>2020-10-17T12:28:49Z</time><name>PT3188</name></trkpt>
<trkpt lat="53.192996" lon="-2.003158"><ele>264</ele><time>2020-10-17T12:28:50Z</time><name>PT3189</name></trkpt>
<trkpt lat="53.192997" lon="-2.003177"><ele>264</ele><time>2020-10-17T12:28:51Z</time><name>PT3190</name></trkpt>
<trkpt lat="53.193000" lon="-2.003194"><ele>264</ele><time>2020-10-17T12:28:52Z</time><name>PT3191</name></trkpt>
<trkpt lat="53.193003" lon="-2.003214"><ele>264</ele><time>2020-10-17T12:28:53Z</time><name>PT3192</name></trkpt>
<trkpt lat="53.193006" lon="-2.003232"><ele>264</ele><time>2020-10-17T12:28:54Z</time><name>PT3193</name></trkpt>
<trkpt lat="53.193010" lon="-2.003251"><ele>264</ele><time>2020-10-17T12:28:55Z</time><name>PT3194</name></trkpt>
<trkpt lat="53.193012" lon="-2.003272"><ele>264</ele><time>2020-10-17T12:28:56Z</time><name>PT3195</name></trkpt>
<trkpt lat="53.193013" lon="-2.003291"><ele>264</ele><time>2020-10-17T12:28:57Z</time><name>PT3196</name></trkpt>
<trkpt lat="53.193015" lon="-2.003311"><ele>264</ele><time>2020-10-17T12:28:58Z</time><name>PT3197</name></trkpt>
<trkpt lat="53.193018" lon="-2.003332"><ele>265</ele><time>2020-10-17T12:28:59Z</time><name>PT3198</name></trkpt>
<trkpt lat="53.193023" lon="-2.003352"><ele>265</ele><time>2020-10-17T12:29:00Z</time><name>PT3199</name></trkpt>
<trkpt lat="53.193027" lon="-2.003373"><ele>265</ele><time>2020-10-17T12:29:01Z</time><name>PT3200</name></trkpt>
<trkpt lat="53.193029" lon="-2.003396"><ele>265</ele><time>2020-10-17T12:29:02Z</time><name>PT3201</name></trkpt>
<trkpt lat="53.193029" lon="-2.003418"><ele>266</ele><time>2020-10-17T12:29:03Z</time><name>PT3202</name></trkpt>
<trkpt lat="53.193031" lon="-2.003440"><ele>266</ele><time>2020-10-17T12:29:04Z</time><name>PT3203</name></trkpt>
<trkpt lat="53.193034" lon="-2.003465"><ele>267</ele><time>2020-10-17T12:29:05Z</time><name>PT3204</name></trkpt>
<trkpt lat="53.193035" lon="-2.003485"><ele>267</ele><time>2020-10-17T12:29:06Z</time><name>PT3205</name></trkpt>
<trkpt lat="53.193037" lon="-2.003505"><ele>267</ele><time>2020-10-17T12:29:07Z</time><name>PT3206</name></trkpt>
<trkpt lat="53.193039" lon="-2.003526"><ele>267</ele><time>2020-10-17T12:29:08Z</time><name>PT3207</name></trkpt>
<trkpt lat="53.193040" lon="-2.003547"><ele>267</ele><time>2020-10-17T12:29:09Z</time><name>PT3208</name></trkpt>
<trkpt lat="53.193040" lon="-2.003570"><ele>267</ele><time>2020-10-17T12:29:10Z</time><name>PT3209</name></trkpt>
<trkpt lat="53.193040" lon="-2.003593"><ele>267</ele><time>2020-10-17T12:29:11Z</time><name>PT3210</name></trkpt>
<trkpt lat="53.193042" lon="-2.003615"><ele>267</ele><time>2020-10-17T12:29:12Z</time><name>PT3211</name></trkpt>
<trkpt lat="53.193043" lon="-2.003634"><ele>267</ele><time>2020-10-17T12:29:13Z</time><name>PT3212</name></trkpt>
<trkpt lat="53.193044" lon="-2.003654"><ele>267</ele><time>2020-10-17T12:29:14Z</time><name>PT3213</name></trkpt>
<trkpt lat="53.193046" lon="-2.003673"><ele>267</ele><time>2020-10-17T12:29:15Z</time><name>PT3214</name></trkpt>
<trkpt lat="53.193047" lon="-2.003691"><ele>267</ele><time>2020-10-17T12:29:16Z</time><name>PT3215</name></trkpt>
<trkpt lat="53.193048" lon="-2.003711"><ele>267</ele><time>2020-10-17T12:29:17Z</time><name>PT3216</name></trkpt>
<trkpt lat="53.193047" lon="-2.003726"><ele>268</ele><time>2020-10-17T12:29:18Z</time><name>PT3217</name></trkpt>
<trkpt lat="53.193047" lon="-2.003740"><ele>268</ele><time>2020-10-17T12:29:19Z</time><name>PT3218</name></trkpt>
<trkpt lat="53.193048" lon="-2.003751"><ele>268</ele><time>2020-10-17T12:29:20Z</time><name>PT3219</name></trkpt>
<trkpt lat="53.193047" lon="-2.003763"><ele>268</ele><time>2020-10-17T12:29:21Z</time><name>PT3220</name></trkpt>
<trkpt lat="53.193046" lon="-2.003780"><ele>269</ele><time>2020-10-17T12:29:22Z</time><name>PT3221</name></trkpt>
<trkpt lat="53.193046" lon="-2.003799"><ele>269</ele><time>2020-10-17T12:29:23Z</time><name>PT3222</name></trkpt>
<trkpt lat="53.193046" lon="-2.003818"><ele>269</ele><time>2020-10-17T12:29:24Z</time><name>PT3223</name></trkpt>
<trkpt lat="53.193047" lon="-2.003839"><ele>269</ele><time>2020-10-17T12:29:25Z</time><name>PT3224</name></trkpt>
<trkpt lat="53.193047" lon="-2.003859"><ele>269</ele><time>2020-10-17T12:29:26Z</time><name>PT3225</name></trkpt>
<trkpt lat="53.193045" lon="-2.003878"><ele>269</ele><time>2020-10-17T12:29:27Z</time><name>PT3226</name></trkpt>
<trkpt lat="53.193042" lon="-2.003895"><ele>268</ele><time>2020-10-17T12:29:28Z</time><name>PT3227</name></trkpt>
<trkpt lat="53.193040" lon="-2.003910"><ele>268</ele><time>2020-10-17T12:29:29Z</time><name>PT3228</name></trkpt>
<trkpt lat="53.193039" lon="-2.003930"><ele>268</ele><time>2020-10-17T12:29:30Z</time><name>PT3229</name></trkpt>
<trkpt lat="53.193038" lon="-2.003952"><ele>268</ele><time>2020-10-17T12:29:31Z</time><name>PT3230</name></trkpt>
<trkpt lat="53.193036" lon="-2.003971"><ele>268</ele><time>2020-10-17T12:29:32Z</time><name>PT3231</name></trkpt>
<trkpt lat="53.193033" lon="-2.003992"><ele>268</ele><time>2020-10-17T12:29:33Z</time><name>PT3232</name></trkpt>
<trkpt lat="53.193030" lon="-2.004011"><ele>268</ele><time>2020-10-17T12:29:34Z</time><name>PT3233</name></trkpt>
<trkpt lat="53.193027" lon="-2.004030"><ele>268</ele><time>2020-10-17T12:29:35Z</time><name>PT3234</name></trkpt>
<trkpt lat="53.193024" lon="-2.004051"><ele>267</ele><time>2020-10-17T12:29:36Z</time><name>PT3235</name></trkpt>
<trkpt lat="53.193023" lon="-2.004070"><ele>267</ele><time>2020-10-17T12:29:37Z</time><name>PT3236</name></trkpt>
<trkpt lat="53.193021" lon="-2.004089"><ele>267</ele><time>2020-10-17T12:29:38Z</time><name>PT3237</name></trkpt>
<trkpt lat="53.193019" lon="-2.004109"><ele>267</ele><time>2020-10-17T12:29:39Z</time><name>PT3238</name></trkpt>
<trkpt lat="53.193014" lon="-2.004127"><ele>267</ele><time>2020-10-17T12:29:40Z</time><name>PT3239</name></trkpt>
<trkpt lat="53.193011" lon="-2.004144"><ele>266</ele><time>2020-10-17T12:29:41Z</time><name>PT3240</name></trkpt>
<trkpt lat="53.193009" lon="-2.004162"><ele>266</ele><time>2020-10-17T12:29:42Z</time><name>PT3241</name></trkpt>
<trkpt lat="53.193008" lon="-2.004181"><ele>266</ele><time>2020-10-17T12:29:43Z</time><name>PT3242</name></trkpt>
<trkpt lat="53.193006" lon="-2.004198"><ele>266</ele><time>2020-10-17T12:29:44Z</time><name>PT3243</name></trkpt>
<trkpt lat="53.193003" lon="-2.004216"><ele>266</ele><time>2020-10-17T12:29:45Z</time><name>PT3244</name></trkpt>
<trkpt lat="53.192999" lon="-2.004234"><ele>266</ele><time>2020-10-17T12:29:46Z</time><name>PT3245</name></trkpt>
<trkpt lat="53.192997" lon="-2.004251"><ele>266</ele><time>2020-10-17T12:29:47Z</time><name>PT3246</name></trkpt>
<trkpt lat="53.192995" lon="-2.004269"><ele>266</ele><time>2020-10-17T12:29:48Z</time><name>PT3247</name></trkpt>
<trkpt lat="53.192993" lon="-2.004286"><ele>266</ele><time>2020-10-17T12:29:49Z</time><name>PT3248</name></trkpt>
<trkpt lat="53.192991" lon="-2.004305"><ele>266</ele><time>2020-10-17T12:29:50Z</time><name>PT3249</name></trkpt>
<trkpt lat="53.192986" lon="-2.004323"><ele>266</ele><time>2020-10-17T12:29:51Z</time><name>PT3250</name></trkpt>
<trkpt lat="53.192982" lon="-2.004341"><ele>266</ele><time>2020-10-17T12:29:52Z</time><name>PT3251</name></trkpt>
<trkpt lat="53.192978" lon="-2.004360"><ele>266</ele><time>2020-10-17T12:29:53Z</time><name>PT3252</name></trkpt>
<trkpt lat="53.192975" lon="-2.004379"><ele>266</ele><time>2020-10-17T12:29:54Z</time><name>PT3253</name></trkpt>
<trkpt lat="53.192971" lon="-2.004396"><ele>266</ele><time>2020-10-17T12:29:55Z</time><name>PT3254</name></trkpt>
<trkpt lat="53.192967" lon="-2.004416"><ele>265</ele><time>2020-10-17T12:29:56Z</time><name>PT3255</name></trkpt>
<trkpt lat="53.192962" lon="-2.004433"><ele>265</ele><time>2020-10-17T12:29:57Z</time><name>PT3256</name></trkpt>
<trkpt lat="53.192958" lon="-2.004451"><ele>265</ele><time>2020-10-17T12:29:58Z</time><name>PT3257</name></trkpt>
<trkpt lat="53.192955" lon="-2.004471"><ele>265</ele><time>2020-10-17T12:29:59Z</time><name>PT3258</name></trkpt>
<trkpt lat="53.192952" lon="-2.004491"><ele>265</ele><time>2020-10-17T12:30:00Z</time><name>PT3259</name></trkpt>
<trkpt lat="53.192947" lon="-2.004510"><ele>265</ele><time>2020-10-17T12:30:01Z</time><name>PT3260</name></trkpt>
<trkpt lat="53.192941" lon="-2.004528"><ele>265</ele><time>2020-10-17T12:30:02Z</time><name>PT3261</name></trkpt>
<trkpt lat="53.192936" lon="-2.004546"><ele>265</ele><time>2020-10-17T12:30:03Z</time><name>PT3262</name></trkpt>
<trkpt lat="53.192933" lon="-2.004566"><ele>265</ele><time>2020-10-17T12:30:04Z</time><name>PT3263</name></trkpt>
<trkpt lat="53.192930" lon="-2.004583"><ele>265</ele><time>2020-10-17T12:30:05Z</time><name>PT3264</name></trkpt>
<trkpt lat="53.192925" lon="-2.004602"><ele>265</ele><time>2020-10-17T12:30:06Z</time><name>PT3265</name></trkpt>
<trkpt lat="53.192919" lon="-2.004620"><ele>265</ele><time>2020-10-17T12:30:07Z</time><name>PT3266</name></trkpt>
<trkpt lat="53.192914" lon="-2.004637"><ele>265</ele><time>2020-10-17T12:30:08Z</time><name>PT3267</name></trkpt>
<trkpt lat="53.192908" lon="-2.004656"><ele>265</ele><time>2020-10-17T12:30:09Z</time><name>PT3268</name></trkpt>
<trkpt lat="53.192904" lon="-2.004675"><ele>265</ele><time>2020-10-17T12:30:10Z</time><name>PT3269</name></trkpt>
<trkpt lat="53.192899" lon="-2.004692"><ele>266</ele><time>2020-10-17T12:30:11Z</time><name>PT3270</name></trkpt>
<trkpt lat="53.192893" lon="-2.004708"><ele>265</ele><time>2020-10-17T12:30:12Z</time><name>PT3271</name></trkpt>
<trkpt lat="53.192889" lon="-2.004722"><ele>265</ele><time>2020-10-17T12:30:13Z</time><name>PT3272</name></trkpt>
<trkpt lat="53.192883" lon="-2.004740"><ele>265</ele><time>2020-10-17T12:30:14Z</time><name>PT3273</name></trkpt>
<trkpt lat="53.192879" lon="-2.004756"><ele>265</ele><time>2020-10-17T12:30:15Z</time><name>PT3274</name></trkpt>
<trkpt lat="53.192873" lon="-2.004773"><ele>265</ele><time>2020-10-17T12:30:16Z</time><name>PT3275</name></trkpt>
<trkpt lat="53.192867" lon="-2.004790"><ele>265</ele><time>2020-10-17T12:30:17Z</time><name>PT3276</name></trkpt>
<trkpt lat="53.192861" lon="-2.004807"><ele>265</ele><time>2020-10-17T12:30:18Z</time><name>PT3277</name></trkpt>
<trkpt lat="53.192854" lon="-2.004824"><ele>265</ele><time>2020-10-17T12:30:19Z</time><name>PT3278</name></trkpt>
<trkpt lat="53.192852" lon="-2.004834"><ele>265</ele><time>2020-10-17T12:30:20Z</time><name>PT3279</name></trkpt>
<trkpt lat="53.192847" lon="-2.004851"><ele>266</ele><time>2020-10-17T12:30:21Z</time><name>PT3280</name></trkpt>
<trkpt lat="53.192841" lon="-2.004866"><ele>266</ele><time>2020-10-17T12:30:22Z</time><name>PT3281</name></trkpt>
<trkpt lat="53.192836" lon="-2.004882"><ele>266</ele><time>2020-10-17T12:30:23Z</time><name>PT3282</name></trkpt>
<trkpt lat="53.192830" lon="-2.004897"><ele>266</ele><time>2020-10-17T12:30:24Z</time><name>PT3283</name></trkpt>
<trkpt lat="53.192826" lon="-2.004912"><ele>267</ele><time>2020-10-17T12:30:25Z</time><name>PT3284</name></trkpt>
<trkpt lat="53.192818" lon="-2.004927"><ele>267</ele><time>2020-10-17T12:30:26Z</time><name>PT3285</name></trkpt>
<trkpt lat="53.192812" lon="-2.004941"><ele>267</ele><time>2020-10-17T12:30:27Z</time><name>PT3286</name></trkpt>
<trkpt lat="53.192805" lon="-2.004954"><ele>267</ele><time>2020-10-17T12:30:28Z</time><name>PT3287</name></trkpt>
<trkpt lat="53.192799" lon="-2.004970"><ele>266</ele><time>2020-10-17T12:30:29Z</time><name>PT3288</name></trkpt>
<trkpt lat="53.192795" lon="-2.004986"><ele>265</ele><time>2020-10-17T12:30:30Z</time><name>PT3289</name></trkpt>
<trkpt lat="53.192789" lon="-2.004996"><ele>265</ele><time>2020-10-17T12:30:31Z</time><name>PT3290</name></trkpt>
<trkpt lat="53.192782" lon="-2.005010"><ele>265</ele><time>2020-10-17T12:30:32Z</time><name>PT3291</name></trkpt>
<trkpt lat="53.192779" lon="-2.005026"><ele>265</ele><time>2020-10-17T12:30:33Z</time><name>PT3292</name></trkpt>
<trkpt lat="53.192772" lon="-2.005045"><ele>265</ele><time>2020-10-17T12:30:34Z</time><name>PT3293</name></trkpt>
<trkpt lat="53.192763" lon="-2.005064"><ele>265</ele><time>2020-10-17T12:30:35Z</time><name>PT3294</name></trkpt>
<trkpt lat="53.192756" lon="-2.005084"><ele>266</ele><time>2020-10-17T12:30:36Z</time><name>PT3295</name></trkpt>
<trkpt lat="53.192747" lon="-2.005104"><ele>267</ele><time>2020-10-17T12:30:37Z</time><name>PT3296</name></trkpt>
<trkpt lat="53.192744" lon="-2.005122"><ele>267</ele><time>2020-10-17T12:30:38Z</time><name>PT3297</name></trkpt>
<trkpt lat="53.192740" lon="-2.005142"><ele>266</ele><time>2020-10-17T12:30:39Z</time><name>PT3298</name></trkpt>
<trkpt lat="53.192737" lon="-2.005158"><ele>266</ele><time>2020-10-17T12:30:40Z</time><name>PT3299</name></trkpt>
<trkpt lat="53.192730" lon="-2.005176"><ele>267</ele><time>2020-10-17T12:30:41Z</time><name>PT3300</name></trkpt>
<trkpt lat="53.192725" lon="-2.005199"><ele>267</ele><time>2020-10-17T12:30:42Z</time><name>PT3301</name></trkpt>
<trkpt lat="53.192721" lon="-2.005217"><ele>267</ele><time>2020-10-17T12:30:43Z</time><name>PT3302</name></trkpt>
<trkpt lat="53.192716" lon="-2.005233"><ele>268</ele><time>2020-10-17T12:30:44Z</time><name>PT3303</name></trkpt>
<trkpt lat="53.192710" lon="-2.005249"><ele>268</ele><time>2020-10-17T12:30:45Z</time><name>PT3304</name></trkpt>
<trkpt lat="53.192706" lon="-2.005266"><ele>268</ele><time>2020-10-17T12:30:46Z</time><name>PT3305</name></trkpt>
<trkpt lat="53.192706" lon="-2.005286"><ele>269</ele><time>2020-10-17T12:30:47Z</time><name>PT3306</name></trkpt>
<trkpt lat="53.192703" lon="-2.005303"><ele>269</ele><time>2020-10-17T12:30:48Z</time><name>PT3307</name></trkpt>
<trkpt lat="53.192701" lon="-2.005323"><ele>269</ele><time>2020-10-17T12:30:49Z</time><name>PT3308</name></trkpt>
<trkpt lat="53.192697" lon="-2.005340"><ele>269</ele><time>2020-10-17T12:30:50Z</time><name>PT3309</name></trkpt>
<trkpt lat="53.192691" lon="-2.005357"><ele>269</ele><time>2020-10-17T12:30:51Z</time><name>PT3310</name></trkpt>
<trkpt lat="53.192689" lon="-2.005374"><ele>269</ele><time>2020-10-17T12:30:52Z</time><name>PT3311</name></trkpt>
<trkpt lat="53.192687" lon="-2.005391"><ele>269</ele><time>2020-10-17T12:30:53Z</time><name>PT3312</name></trkpt>
<trkpt lat="53.192683" lon="-2.005410"><ele>269</ele><time>2020-10-17T12:30:54Z</time><name>PT3313</name></trkpt>
<trkpt lat="53.192677" lon="-2.005424"><ele>270</ele><time>2020-10-17T12:30:55Z</time><name>PT3314</name></trkpt>
<trkpt lat="53.192673" lon="-2.005442"><ele>270</ele><time>2020-10-17T12:30:56Z</time><name>PT3315</name></trkpt>
<trkpt lat="53.192670" lon="-2.005463"><ele>271</ele><time>2020-10-17T12:30:57Z</time><name>PT3316</name></trkpt>
<trkpt lat="53.192667" lon="-2.005478"><ele>271</ele><time>2020-10-17T12:30:58Z</time><name>PT3317</name></trkpt>
<trkpt lat="53.192663" lon="-2.005494"><ele>271</ele><time>2020-10-17T12:30:59Z</time><name>PT3318</name></trkpt>
<trkpt lat="53.192659" lon="-2.005506"><ele>270</ele><time>2020-10-17T12:31:00Z</time><name>PT3319</name></trkpt>
<trkpt lat="53.192655" lon="-2.005520"><ele>270</ele><time>2020-10-17T12:31:01Z</time><name>PT3320</name></trkpt>
<trkpt lat="53.192647" lon="-2.005542"><ele>270</ele><time>2020-10-17T12:31:02Z</time><name>PT3321</name></trkpt>
<trkpt lat="53.192645" lon="-2.005561"><ele>270</ele><time>2020-10-17T12:31:03Z</time><name>PT3322</name></trkpt>
<trkpt lat="53.192641" lon="-2.005582"><ele>270</ele><time>2020-10-17T12:31:04Z</time><name>PT3323</name></trkpt>
<trkpt lat="53.192636" lon="-2.005599"><ele>270</ele><time>2020-10-17T12:31:05Z</time><name>PT3324</name></trkpt>
<trkpt lat="53.192629" lon="-2.005610"><ele>272</ele><time>2020-10-17T12:31:06Z</time><name>PT3325</name></trkpt>
<trkpt lat="53.192620" lon="-2.005626"><ele>273</ele><time>2020-10-17T12:31:07Z</time><name>PT3326</name></trkpt>
<trkpt lat="53.192610" lon="-2.005645"><ele>274</ele><time>2020-10-17T12:31:08Z</time><name>PT3327</name></trkpt>
<trkpt lat="53.192604" lon="-2.005656"><ele>275</ele><time>2020-10-17T12:31:09Z</time><name>PT3328</name></trkpt>
<trkpt lat="53.192596" lon="-2.005674"><ele>275</ele><time>2020-10-17T12:31:10Z</time><name>PT3329</name></trkpt>
<trkpt lat="53.192593" lon="-2.005691"><ele>275</ele><time>2020-10-17T12:31:11Z</time><name>PT3330</name></trkpt>
<trkpt lat="53.192585" lon="-2.005712"><ele>275</ele><time>2020-10-17T12:31:12Z</time><name>PT3331</name></trkpt>
<trkpt lat="53.192580" lon="-2.005728"><ele>275</ele><time>2020-10-17T12:31:13Z</time><name>PT3332</name></trkpt>
<trkpt lat="53.192577" lon="-2.005741"><ele>275</ele><time>2020-10-17T12:31:14Z</time><name>PT3333</name></trkpt>
<trkpt lat="53.192569" lon="-2.005759"><ele>275</ele><time>2020-10-17T12:31:15Z</time><name>PT3334</name></trkpt>
<trkpt lat="53.192562" lon="-2.005773"><ele>275</ele><time>2020-10-17T12:31:16Z</time><name>PT3335</name></trkpt>
<trkpt lat="53.192554" lon="-2.005790"><ele>276</ele><time>2020-10-17T12:31:17Z</time><name>PT3336</name></trkpt>
<trkpt lat="53.192548" lon="-2.005807"><ele>275</ele><time>2020-10-17T12:31:18Z</time><name>PT3337</name></trkpt>
<trkpt lat="53.192542" lon="-2.005827"><ele>276</ele><time>2020-10-17T12:31:19Z</time><name>PT3338</name></trkpt>
<trkpt lat="53.192537" lon="-2.005843"><ele>276</ele><time>2020-10-17T12:31:20Z</time><name>PT3339</name></trkpt>
<trkpt lat="53.192530" lon="-2.005856"><ele>276</ele><time>2020-10-17T12:31:21Z</time><name>PT3340</name></trkpt>
<trkpt lat="53.192523" lon="-2.005877"><ele>276</ele><time>2020-10-17T12:31:22Z</time><name>PT3341</name></trkpt>
<trkpt lat="53.192519" lon="-2.005891"><ele>276</ele><time>2020-10-17T12:31:23Z</time><name>PT3342</name></trkpt>
<trkpt lat="53.192514" lon="-2.005901"><ele>276</ele><time>2020-10-17T12:31:24Z</time><name>PT3343</name></trkpt>
<trkpt lat="53.192509" lon="-2.005913"><ele>277</ele><time>2020-10-17T12:31:25Z</time><name>PT3344</name></trkpt>
<trkpt lat="53.192505" lon="-2.005927"><ele>276</ele><time>2020-10-17T12:31:26Z</time><name>PT3345</name></trkpt>
<trkpt lat="53.192498" lon="-2.005940"><ele>276</ele><time>2020-10-17T12:31:27Z</time><name>PT3346</name></trkpt>
<trkpt lat="53.192490" lon="-2.005955"><ele>276</ele><time>2020-10-17T12:31:28Z</time><name>PT3347</name></trkpt>
<trkpt lat="53.192486" lon="-2.005965"><ele>276</ele><time>2020-10-17T12:31:29Z</time><name>PT3348</name></trkpt>
<trkpt lat="53.192480" lon="-2.005978"><ele>275</ele><time>2020-10-17T12:31:30Z</time><name>PT3349</name></trkpt>
<trkpt lat="53.192474" lon="-2.005994"><ele>275</ele><time>2020-10-17T12:31:31Z</time><name>PT3350</name></trkpt>
<trkpt lat="53.192465" lon="-2.006008"><ele>276</ele><time>2020-10-17T12:31:32Z</time><name>PT3351</name></trkpt>
<trkpt lat="53.192461" lon="-2.006016"><ele>276</ele><time>2020-10-17T12:31:33Z</time><name>PT3352</name></trkpt>
<trkpt lat="53.192455" lon="-2.006027"><ele>276</ele><time>2020-10-17T12:31:34Z</time><name>PT3353</name></trkpt>
<trkpt lat="53.192448" lon="-2.006042"><ele>275</ele><time>2020-10-17T12:31:35Z</time><name>PT3354</name></trkpt>
<trkpt lat="53.192439" lon="-2.006058"><ele>275</ele><time>2020-10-17T12:31:36Z</time><name>PT3355</name></trkpt>
<trkpt lat="53.192434" lon="-2.006075"><ele>275</ele><time>2020-10-17T12:31:37Z</time><name>PT3356</name></trkpt>
<trkpt lat="53.192426" lon="-2.006088"><ele>276</ele><time>2020-10-17T12:31:38Z</time><name>PT3357</name></trkpt>
<trkpt lat="53.192417" lon="-2.006103"><ele>277</ele><time>2020-10-17T12:31:39Z</time><name>PT3358</name></trkpt>
<trkpt lat="53.192406" lon="-2.006117"><ele>277</ele><time>2020-10-17T12:31:40Z</time><name>PT3359</name></trkpt>
<trkpt lat="53.192376" lon="-2.006170"><ele>279</ele><time>2020-10-17T12:31:44Z</time><name>PT3360</name></trkpt>
<trkpt lat="53.192350" lon="-2.006221"><ele>279</ele><time>2020-10-17T12:31:48Z</time><name>PT3361</name></trkpt>
<trkpt lat="53.192332" lon="-2.006268"><ele>281</ele><time>2020-10-17T12:31:51Z</time><name>PT3362</name></trkpt>
<trkpt lat="53.192310" lon="-2.006305"><ele>281</ele><time>2020-10-17T12:31:54Z</time><name>PT3363</name></trkpt>
<trkpt lat="53.192279" lon="-2.006335"><ele>280</ele><time>2020-10-17T12:31:58Z</time><name>PT3364</name></trkpt>
<trkpt lat="53.192261" lon="-2.006403"><ele>280</ele><time>2020-10-17T12:32:02Z</time><name>PT3365</name></trkpt>
<trkpt lat="53.192243" lon="-2.006492"><ele>282</ele><time>2020-10-17T12:32:06Z</time><name>PT3366</name></trkpt>
<trkpt lat="53.192234" lon="-2.006548"><ele>282</ele><time>2020-10-17T12:32:09Z</time><name>PT3367</name></trkpt>
<trkpt lat="53.192227" lon="-2.006615"><ele>282</ele><time>2020-10-17T12:32:13Z</time><name>PT3368</name></trkpt>
<trkpt lat="53.192229" lon="-2.006676"><ele>283</ele><time>2020-10-17T12:32:16Z</time><name>PT3369</name></trkpt>
<trkpt lat="53.192219" lon="-2.006755"><ele>283</ele><time>2020-10-17T12:32:20Z</time><name>PT3370</name></trkpt>
<trkpt lat="53.192214" lon="-2.006838"><ele>282</ele><time>2020-10-17T12:32:22Z</time><name>PT3371</name></trkpt>
<trkpt lat="53.192211" lon="-2.006862"><ele>282</ele><time>2020-10-17T12:32:23Z</time><name>PT3372</name></trkpt>
<trkpt lat="53.192209" lon="-2.006883"><ele>281</ele><time>2020-10-17T12:32:24Z</time><name>PT3373</name></trkpt>
<trkpt lat="53.192207" lon="-2.006896"><ele>281</ele><time>2020-10-17T12:32:25Z</time><name>PT3374</name></trkpt>
<trkpt lat="53.192206" lon="-2.006912"><ele>281</ele><time>2020-10-17T12:32:26Z</time><name>PT3375</name></trkpt>
<trkpt lat="53.192205" lon="-2.006930"><ele>281</ele><time>2020-10-17T12:32:27Z</time><name>PT3376</name></trkpt>
<trkpt lat="53.192205" lon="-2.006945"><ele>280</ele><time>2020-10-17T12:32:28Z</time><name>PT3377</name></trkpt>
<trkpt lat="53.192204" lon="-2.006967"><ele>280</ele><time>2020-10-17T12:32:29Z</time><name>PT3378</name></trkpt>
<trkpt lat="53.192204" lon="-2.006987"><ele>280</ele><time>2020-10-17T12:32:30Z</time><name>PT3379</name></trkpt>
<trkpt lat="53.192205" lon="-2.007010"><ele>280</ele><time>2020-10-17T12:32:31Z</time><name>PT3380</name></trkpt>
<trkpt lat="53.192205" lon="-2.007030"><ele>280</ele><time>2020-10-17T12:32:32Z</time><name>PT3381</name></trkpt>
<trkpt lat="53.192205" lon="-2.007048"><ele>280</ele><time>2020-10-17T12:32:33Z</time><name>PT3382</name></trkpt>
<trkpt lat="53.192208" lon="-2.007064"><ele>280</ele><time>2020-10-17T12:32:34Z</time><name>PT3383</name></trkpt>
<trkpt lat="53.192212" lon="-2.007080"><ele>280</ele><time>2020-10-17T12:32:35Z</time><name>PT3384</name></trkpt>
<trkpt lat="53.192214" lon="-2.007094"><ele>280</ele><time>2020-10-17T12:32:36Z</time><name>PT3385</name></trkpt>
<trkpt lat="53.192214" lon="-2.007110"><ele>279</ele><time>2020-10-17T12:32:37Z</time><name>PT3386</name></trkpt>
<trkpt lat="53.192216" lon="-2.007124"><ele>280</ele><time>2020-10-17T12:32:38Z</time><name>PT3387</name></trkpt>
<trkpt lat="53.192214" lon="-2.007141"><ele>279</ele><time>2020-10-17T12:32:39Z</time><name>PT3388</name></trkpt>
<trkpt lat="53.192211" lon="-2.007157"><ele>279</ele><time>2020-10-17T12:32:40Z</time><name>PT3389</name></trkpt>
<trkpt lat="53.192211" lon="-2.007170"><ele>278</ele><time>2020-10-17T12:32:41Z</time><name>PT3390</name></trkpt>
<trkpt lat="53.192211" lon="-2.007194"><ele>278</ele><time>2020-10-17T12:32:42Z</time><name>PT3391</name></trkpt>
<trkpt lat="53.192210" lon="-2.007214"><ele>278</ele><time>2020-10-17T12:32:43Z</time><name>PT3392</name></trkpt>
<trkpt lat="53.192209" lon="-2.007232"><ele>278</ele><time>2020-10-17T12:32:44Z</time><name>PT3393</name></trkpt>
<trkpt lat="53.192209" lon="-2.007252"><ele>278</ele><time>2020-10-17T12:32:45Z</time><name>PT3394</name></trkpt>
<trkpt lat="53.192210" lon="-2.007270"><ele>278</ele><time>2020-10-17T12:32:46Z</time><name>PT3395</name></trkpt>
<trkpt lat="53.192212" lon="-2.007287"><ele>278</ele><time>2020-10-17T12:32:47Z</time><name>PT3396</name></trkpt>
<trkpt lat="53.192210" lon="-2.007308"><ele>277</ele><time>2020-10-17T12:32:48Z</time><name>PT3397</name></trkpt>
<trkpt lat="53.192209" lon="-2.007326"><ele>277</ele><time>2020-10-17T12:32:49Z</time><name>PT3398</name></trkpt>
<trkpt lat="53.192209" lon="-2.007345"><ele>277</ele><time>2020-10-17T12:32:50Z</time><name>PT3399</name></trkpt>
<trkpt lat="53.192209" lon="-2.007365"><ele>277</ele><time>2020-10-17T12:32:51Z</time><name>PT3400</name></trkpt>
<trkpt lat="53.192210" lon="-2.007384"><ele>277</ele><time>2020-10-17T12:32:52Z</time><name>PT3401</name></trkpt>
<trkpt lat="53.192210" lon="-2.007405"><ele>277</ele><time>2020-10-17T12:32:53Z</time><name>PT3402</name></trkpt>
<trkpt lat="53.192209" lon="-2.007427"><ele>277</ele><time>2020-10-17T12:32:54Z</time><name>PT3403</name></trkpt>
<trkpt lat="53.192211" lon="-2.007447"><ele>277</ele><time>2020-10-17T12:32:55Z</time><name>PT3404</name></trkpt>
<trkpt lat="53.192212" lon="-2.007469"><ele>277</ele><time>2020-10-17T12:32:56Z</time><name>PT3405</name></trkpt>
<trkpt lat="53.192213" lon="-2.007491"><ele>277</ele><time>2020-10-17T12:32:57Z</time><name>PT3406</name></trkpt>
<trkpt lat="53.192217" lon="-2.007509"><ele>277</ele><time>2020-10-17T12:32:58Z</time><name>PT3407</name></trkpt>
<trkpt lat="53.192217" lon="-2.007532"><ele>277</ele><time>2020-10-17T12:32:59Z</time><name>PT3408</name></trkpt>
<trkpt lat="53.192217" lon="-2.007551"><ele>277</ele><time>2020-10-17T12:33:00Z</time><name>PT3409</name></trkpt>
<trkpt lat="53.192219" lon="-2.007571"><ele>277</ele><time>2020-10-17T12:33:01Z</time><name>PT3410</name></trkpt>
<trkpt lat="53.192222" lon="-2.007592"><ele>277</ele><time>2020-10-17T12:33:02Z</time><name>PT3411</name></trkpt>
<trkpt lat="53.192225" lon="-2.007615"><ele>277</ele><time>2020-10-17T12:33:03Z</time><name>PT3412</name></trkpt>
<trkpt lat="53.192225" lon="-2.007635"><ele>278</ele><time>2020-10-17T12:33:04Z</time><name>PT3413</name></trkpt>
<trkpt lat="53.192226" lon="-2.007658"><ele>278</ele><time>2020-10-17T12:33:05Z</time><name>PT3414</name></trkpt>
<trkpt lat="53.192229" lon="-2.007670"><ele>278</ele><time>2020-10-17T12:33:06Z</time><name>PT3415</name></trkpt>
<trkpt lat="53.192230" lon="-2.007686"><ele>278</ele><time>2020-10-17T12:33:07Z</time><name>PT3416</name></trkpt>
<trkpt lat="53.192231" lon="-2.007706"><ele>278</ele><time>2020-10-17T12:33:08Z</time><name>PT3417</name></trkpt>
<trkpt lat="53.192233" lon="-2.007724"><ele>277</ele><time>2020-10-17T12:33:09Z</time><name>PT3418</name></trkpt>
<trkpt lat="53.192236" lon="-2.007742"><ele>277</ele><time>2020-10-17T12:33:10Z</time><name>PT3419</name></trkpt>
<trkpt lat="53.192237" lon="-2.007762"><ele>277</ele><time>2020-10-17T12:33:11Z</time><name>PT3420</name></trkpt>
<trkpt lat="53.192239" lon="-2.007779"><ele>277</ele><time>2020-10-17T12:33:12Z</time><name>PT3421</name></trkpt>
<trkpt lat="53.192240" lon="-2.007798"><ele>276</ele><time>2020-10-17T12:33:13Z</time><name>PT3422</name></trkpt>
<trkpt lat="53.192241" lon="-2.007816"><ele>276</ele><time>2020-10-17T12:33:14Z</time><name>PT3423</name></trkpt>
<trkpt lat="53.192242" lon="-2.007836"><ele>276</ele><time>2020-10-17T12:33:15Z</time><name>PT3424</name></trkpt>
<trkpt lat="53.192242" lon="-2.007857"><ele>276</ele><time>2020-10-17T12:33:16Z</time><name>PT3425</name></trkpt>
<trkpt lat="53.192242" lon="-2.007876"><ele>276</ele><time>2020-10-17T12:33:17Z</time><name>PT3426</name></trkpt>
<trkpt lat="53.192242" lon="-2.007896"><ele>276</ele><time>2020-10-17T12:33:18Z</time><name>PT3427</name></trkpt>
<trkpt lat="53.192242" lon="-2.007917"><ele>275</ele><time>2020-10-17T12:33:19Z</time><name>PT3428</name></trkpt>
<trkpt lat="53.192244" lon="-2.007935"><ele>275</ele><time>2020-10-17T12:33:20Z</time><name>PT3429</name></trkpt>
<trkpt lat="53.192244" lon="-2.007955"><ele>275</ele><time>2020-10-17T12:33:21Z</time><name>PT3430</name></trkpt>
<trkpt lat="53.192244" lon="-2.007974"><ele>274</ele><time>2020-10-17T12:33:22Z</time><name>PT3431</name></trkpt>
<trkpt lat="53.192244" lon="-2.007994"><ele>275</ele><time>2020-10-17T12:33:23Z</time><name>PT3432</name></trkpt>
<trkpt lat="53.192243" lon="-2.008014"><ele>275</ele><time>2020-10-17T12:33:24Z</time><name>PT3433</name></trkpt>
<trkpt lat="53.192245" lon="-2.008034"><ele>274</ele><time>2020-10-17T12:33:25Z</time><name>PT3434</name></trkpt>
<trkpt lat="53.192246" lon="-2.008053"><ele>275</ele><time>2020-10-17T12:33:26Z</time><name>PT3435</name></trkpt>
<trkpt lat="53.192248" lon="-2.008073"><ele>275</ele><time>2020-10-17T12:33:27Z</time><name>PT3436</name></trkpt>
<trkpt lat="53.192248" lon="-2.008094"><ele>274</ele><time>2020-10-17T12:33:28Z</time><name>PT3437</name></trkpt>
<trkpt lat="53.192248" lon="-2.008115"><ele>275</ele><time>2020-10-17T12:33:29Z</time><name>PT3438</name></trkpt>
<trkpt lat="53.192249" lon="-2.008137"><ele>275</ele><time>2020-10-17T12:33:30Z</time><name>PT3439</name></trkpt>
<trkpt lat="53.192252" lon="-2.008153"><ele>275</ele><time>2020-10-17T12:33:31Z</time><name>PT3440</name></trkpt>
<trkpt lat="53.192254" lon="-2.008162"><ele>275</ele><time>2020-10-17T12:33:32Z</time><name>PT3441</name></trkpt>
<trkpt lat="53.192255" lon="-2.008167"><ele>275</ele><time>2020-10-17T12:33:33Z</time><name>PT3442</name></trkpt>
<trkpt lat="53.192255" lon="-2.008168"><ele>274</ele><time>2020-10-17T12:33:34Z</time><name>PT3443</name></trkpt>
<trkpt lat="53.192255" lon="-2.008169"><ele>274</ele><time>2020-10-17T12:33:35Z</time><name>PT3444</name></trkpt>
<trkpt lat="53.192257" lon="-2.008178"><ele>274</ele><time>2020-10-17T12:33:40Z</time><name>PT3445</name></trkpt>
<trkpt lat="53.192258" lon="-2.008193"><ele>275</ele><time>2020-10-17T12:33:41Z</time><name>PT3446</name></trkpt>
<trkpt lat="53.192260" lon="-2.008212"><ele>275</ele><time>2020-10-17T12:33:42Z</time><name>PT3447</name></trkpt>
<trkpt lat="53.192263" lon="-2.008230"><ele>275</ele><time>2020-10-17T12:33:43Z</time><name>PT3448</name></trkpt>
<trkpt lat="53.192263" lon="-2.008249"><ele>275</ele><time>2020-10-17T12:33:44Z</time><name>PT3449</name></trkpt>
<trkpt lat="53.192263" lon="-2.008269"><ele>274</ele><time>2020-10-17T12:33:45Z</time><name>PT3450</name></trkpt>
<trkpt lat="53.192264" lon="-2.008291"><ele>274</ele><time>2020-10-17T12:33:46Z</time><name>PT3451</name></trkpt>
<trkpt lat="53.192266" lon="-2.008309"><ele>274</ele><time>2020-10-17T12:33:47Z</time><name>PT3452</name></trkpt>
<trkpt lat="53.192266" lon="-2.008329"><ele>274</ele><time>2020-10-17T12:33:48Z</time><name>PT3453</name></trkpt>
<trkpt lat="53.192264" lon="-2.008350"><ele>274</ele><time>2020-10-17T12:33:49Z</time><name>PT3454</name></trkpt>
<trkpt lat="53.192262" lon="-2.008372"><ele>274</ele><time>2020-10-17T12:33:50Z</time><name>PT3455</name></trkpt>
<trkpt lat="53.192260" lon="-2.008395"><ele>274</ele><time>2020-10-17T12:33:51Z</time><name>PT3456</name></trkpt>
<trkpt lat="53.192261" lon="-2.008419"><ele>274</ele><time>2020-10-17T12:33:52Z</time><name>PT3457</name></trkpt>
<trkpt lat="53.192262" lon="-2.008438"><ele>274</ele><time>2020-10-17T12:33:53Z</time><name>PT3458</name></trkpt>
<trkpt lat="53.192262" lon="-2.008457"><ele>274</ele><time>2020-10-17T12:33:54Z</time><name>PT3459</name></trkpt>
<trkpt lat="53.192262" lon="-2.008475"><ele>274</ele><time>2020-10-17T12:33:55Z</time><name>PT3460</name></trkpt>
<trkpt lat="53.192262" lon="-2.008494"><ele>274</ele><time>2020-10-17T12:33:56Z</time><name>PT3461</name></trkpt>
<trkpt lat="53.192259" lon="-2.008512"><ele>274</ele><time>2020-10-17T12:33:57Z</time><name>PT3462</name></trkpt>
<trkpt lat="53.192256" lon="-2.008531"><ele>274</ele><time>2020-10-17T12:33:58Z</time><name>PT3463</name></trkpt>
<trkpt lat="53.192256" lon="-2.008549"><ele>274</ele><time>2020-10-17T12:33:59Z</time><name>PT3464</name></trkpt>
<trkpt lat="53.192257" lon="-2.008567"><ele>274</ele><time>2020-10-17T12:34:00Z</time><name>PT3465</name></trkpt>
<trkpt lat="53.192256" lon="-2.008583"><ele>274</ele><time>2020-10-17T12:34:01Z</time><name>PT3466</name></trkpt>
<trkpt lat="53.192253" lon="-2.008601"><ele>274</ele><time>2020-10-17T12:34:02Z</time><name>PT3467</name></trkpt>
<trkpt lat="53.192248" lon="-2.008619"><ele>274</ele><time>2020-10-17T12:34:03Z</time><name>PT3468</name></trkpt>
<trkpt lat="53.192245" lon="-2.008640"><ele>274</ele><time>2020-10-17T12:34:04Z</time><name>PT3469</name></trkpt>
<trkpt lat="53.192242" lon="-2.008664"><ele>274</ele><time>2020-10-17T12:34:05Z</time><name>PT3470</name></trkpt>
<trkpt lat="53.192240" lon="-2.008685"><ele>274</ele><time>2020-10-17T12:34:06Z</time><name>PT3471</name></trkpt>
<trkpt lat="53.192238" lon="-2.008706"><ele>274</ele><time>2020-10-17T12:34:07Z</time><name>PT3472</name></trkpt>
<trkpt lat="53.192236" lon="-2.008725"><ele>274</ele><time>2020-10-17T12:34:08Z</time><name>PT3473</name></trkpt>
<trkpt lat="53.192231" lon="-2.008742"><ele>274</ele><time>2020-10-17T12:34:09Z</time><name>PT3474</name></trkpt>
<trkpt lat="53.192227" lon="-2.008760"><ele>274</ele><time>2020-10-17T12:34:10Z</time><name>PT3475</name></trkpt>
<trkpt lat="53.192224" lon="-2.008781"><ele>274</ele><time>2020-10-17T12:34:11Z</time><name>PT3476</name></trkpt>
<trkpt lat="53.192223" lon="-2.008800"><ele>274</ele><time>2020-10-17T12:34:12Z</time><name>PT3477</name></trkpt>
<trkpt lat="53.192221" lon="-2.008818"><ele>274</ele><time>2020-10-17T12:34:13Z</time><name>PT3478</name></trkpt>
<trkpt lat="53.192219" lon="-2.008834"><ele>273</ele><time>2020-10-17T12:34:14Z</time><name>PT3479</name></trkpt>
<trkpt lat="53.192215" lon="-2.008853"><ele>273</ele><time>2020-10-17T12:34:15Z</time><name>PT3480</name></trkpt>
<trkpt lat="53.192211" lon="-2.008871"><ele>273</ele><time>2020-10-17T12:34:16Z</time><name>PT3481</name></trkpt>
<trkpt lat="53.192208" lon="-2.008892"><ele>273</ele><time>2020-10-17T12:34:17Z</time><name>PT3482</name></trkpt>
<trkpt lat="53.192205" lon="-2.008914"><ele>273</ele><time>2020-10-17T12:34:18Z</time><name>PT3483</name></trkpt>
<trkpt lat="53.192202" lon="-2.008935"><ele>273</ele><time>2020-10-17T12:34:19Z</time><name>PT3484</name></trkpt>
<trkpt lat="53.192198" lon="-2.008955"><ele>273</ele><time>2020-10-17T12:34:20Z</time><name>PT3485</name></trkpt>
<trkpt lat="53.192194" lon="-2.008974"><ele>273</ele><time>2020-10-17T12:34:21Z</time><name>PT3486</name></trkpt>
<trkpt lat="53.192192" lon="-2.008993"><ele>273</ele><time>2020-10-17T12:34:22Z</time><name>PT3487</name></trkpt>
<trkpt lat="53.192189" lon="-2.009012"><ele>273</ele><time>2020-10-17T12:34:23Z</time><name>PT3488</name></trkpt>
<trkpt lat="53.192187" lon="-2.009029"><ele>273</ele><time>2020-10-17T12:34:24Z</time><name>PT3489</name></trkpt>
<trkpt lat="53.192183" lon="-2.009049"><ele>273</ele><time>2020-10-17T12:34:25Z</time><name>PT3490</name></trkpt>
<trkpt lat="53.192179" lon="-2.009069"><ele>273</ele><time>2020-10-17T12:34:26Z</time><name>PT3491</name></trkpt>
<trkpt lat="53.192175" lon="-2.009088"><ele>272</ele><time>2020-10-17T12:34:27Z</time><name>PT3492</name></trkpt>
<trkpt lat="53.192170" lon="-2.009106"><ele>272</ele><time>2020-10-17T12:34:28Z</time><name>PT3493</name></trkpt>
<trkpt lat="53.192164" lon="-2.009125"><ele>272</ele><time>2020-10-17T12:34:29Z</time><name>PT3494</name></trkpt>
<trkpt lat="53.192159" lon="-2.009144"><ele>272</ele><time>2020-10-17T12:34:30Z</time><name>PT3495</name></trkpt>
<trkpt lat="53.192155" lon="-2.009162"><ele>272</ele><time>2020-10-17T12:34:31Z</time><name>PT3496</name></trkpt>
<trkpt lat="53.192149" lon="-2.009181"><ele>272</ele><time>2020-10-17T12:34:32Z</time><name>PT3497</name></trkpt>
<trkpt lat="53.192143" lon="-2.009200"><ele>272</ele><time>2020-10-17T12:34:33Z</time><name>PT3498</name></trkpt>
<trkpt lat="53.192137" lon="-2.009217"><ele>272</ele><time>2020-10-17T12:34:34Z</time><name>PT3499</name></trkpt>
<trkpt lat="53.192132" lon="-2.009234"><ele>272</ele><time>2020-10-17T12:34:35Z</time><name>PT3500</name></trkpt>
<trkpt lat="53.192126" lon="-2.009251"><ele>271</ele><time>2020-10-17T12:34:36Z</time><name>PT3501</name></trkpt>
<trkpt lat="53.192120" lon="-2.009270"><ele>271</ele><time>2020-10-17T12:34:37Z</time><name>PT3502</name></trkpt>
<trkpt lat="53.192115" lon="-2.009289"><ele>271</ele><time>2020-10-17T12:34:38Z</time><name>PT3503</name></trkpt>
<trkpt lat="53.192110" lon="-2.009308"><ele>271</ele><time>2020-10-17T12:34:39Z</time><name>PT3504</name></trkpt>
<trkpt lat="53.192104" lon="-2.009328"><ele>271</ele><time>2020-10-17T12:34:40Z</time><name>PT3505</name></trkpt>
<trkpt lat="53.192099" lon="-2.009345"><ele>270</ele><time>2020-10-17T12:34:41Z</time><name>PT3506</name></trkpt>
<trkpt lat="53.192094" lon="-2.009363"><ele>270</ele><time>2020-10-17T12:34:42Z</time><name>PT3507</name></trkpt>
<trkpt lat="53.192088" lon="-2.009382"><ele>270</ele><time>2020-10-17T12:34:43Z</time><name>PT3508</name></trkpt>
<trkpt lat="53.192084" lon="-2.009400"><ele>270</ele><time>2020-10-17T12:34:44Z</time><name>PT3509</name></trkpt>
<trkpt lat="53.192080" lon="-2.009419"><ele>270</ele><time>2020-10-17T12:34:45Z</time><name>PT3510</name></trkpt>
<trkpt lat="53.192074" lon="-2.009438"><ele>270</ele><time>2020-10-17T12:34:46Z</time><name>PT3511</name></trkpt>
<trkpt lat="53.192068" lon="-2.009457"><ele>270</ele><time>2020-10-17T12:34:47Z</time><name>PT3512</name></trkpt>
<trkpt lat="53.192062" lon="-2.009476"><ele>270</ele><time>2020-10-17T12:34:48Z</time><name>PT3513</name></trkpt>
<trkpt lat="53.192057" lon="-2.009493"><ele>270</ele><time>2020-10-17T12:34:49Z</time><name>PT3514</name></trkpt>
<trkpt lat="53.192053" lon="-2.009510"><ele>269</ele><time>2020-10-17T12:34:50Z</time><name>PT3515</name></trkpt>
<trkpt lat="53.192048" lon="-2.009528"><ele>269</ele><time>2020-10-17T12:34:51Z</time><name>PT3516</name></trkpt>
<trkpt lat="53.192045" lon="-2.009547"><ele>269</ele><time>2020-10-17T12:34:52Z</time><name>PT3517</name></trkpt>
<trkpt lat="53.192041" lon="-2.009566"><ele>269</ele><time>2020-10-17T12:34:53Z</time><name>PT3518</name></trkpt>
<trkpt lat="53.192033" lon="-2.009584"><ele>269</ele><time>2020-10-17T12:34:54Z</time><name>PT3519</name></trkpt>
<trkpt lat="53.192027" lon="-2.009597"><ele>269</ele><time>2020-10-17T12:34:55Z</time><name>PT3520</name></trkpt>
<trkpt lat="53.192022" lon="-2.009612"><ele>269</ele><time>2020-10-17T12:34:56Z</time><name>PT3521</name></trkpt>
<trkpt lat="53.192021" lon="-2.009619"><ele>269</ele><time>2020-10-17T12:34:57Z</time><name>PT3522</name></trkpt>
<trkpt lat="53.192021" lon="-2.009623"><ele>269</ele><time>2020-10-17T12:34:58Z</time><name>PT3523</name></trkpt>
<trkpt lat="53.192021" lon="-2.009626"><ele>269</ele><time>2020-10-17T12:34:59Z</time><name>PT3524</name></trkpt>
<trkpt lat="53.192021" lon="-2.009626"><ele>269</ele><time>2020-10-17T12:35:00Z</time><name>PT3525</name></trkpt>
<trkpt lat="53.192018" lon="-2.009626"><ele>269</ele><time>2020-10-17T12:35:01Z</time><name>PT3526</name></trkpt>
<trkpt lat="53.192015" lon="-2.009634"><ele>268</ele><time>2020-10-17T12:35:02Z</time><name>PT3527</name></trkpt>
<trkpt lat="53.192012" lon="-2.009649"><ele>268</ele><time>2020-10-17T12:35:03Z</time><name>PT3528</name></trkpt>
<trkpt lat="53.192007" lon="-2.009667"><ele>268</ele><time>2020-10-17T12:35:04Z</time><name>PT3529</name></trkpt>
<trkpt lat="53.192001" lon="-2.009684"><ele>268</ele><time>2020-10-17T12:35:05Z</time><name>PT3530</name></trkpt>
<trkpt lat="53.191995" lon="-2.009700"><ele>268</ele><time>2020-10-17T12:35:06Z</time><name>PT3531</name></trkpt>
<trkpt lat="53.191989" lon="-2.009721"><ele>268</ele><time>2020-10-17T12:35:07Z</time><name>PT3532</name></trkpt>
<trkpt lat="53.191983" lon="-2.009739"><ele>268</ele><time>2020-10-17T12:35:08Z</time><name>PT3533</name></trkpt>
<trkpt lat="53.191980" lon="-2.009756"><ele>268</ele><time>2020-10-17T12:35:09Z</time><name>PT3534</name></trkpt>
<trkpt lat="53.191975" lon="-2.009773"><ele>268</ele><time>2020-10-17T12:35:10Z</time><name>PT3535</name></trkpt>
<trkpt lat="53.191969" lon="-2.009791"><ele>268</ele><time>2020-10-17T12:35:11Z</time><name>PT3536</name></trkpt>
<trkpt lat="53.191963" lon="-2.009812"><ele>268</ele><time>2020-10-17T12:35:12Z</time><name>PT3537</name></trkpt>
<trkpt lat="53.191957" lon="-2.009826"><ele>267</ele><time>2020-10-17T12:35:13Z</time><name>PT3538</name></trkpt>
<trkpt lat="53.191950" lon="-2.009846"><ele>267</ele><time>2020-10-17T12:35:14Z</time><name>PT3539</name></trkpt>
<trkpt lat="53.191943" lon="-2.009864"><ele>267</ele><time>2020-10-17T12:35:15Z</time><name>PT3540</name></trkpt>
<trkpt lat="53.191939" lon="-2.009883"><ele>267</ele><time>2020-10-17T12:35:16Z</time><name>PT3541</name></trkpt>
<trkpt lat="53.191935" lon="-2.009901"><ele>267</ele><time>2020-10-17T12:35:17Z</time><name>PT3542</name></trkpt>
<trkpt lat="53.191930" lon="-2.009919"><ele>267</ele><time>2020-10-17T12:35:18Z</time><name>PT3543</name></trkpt>
<trkpt lat="53.191925" lon="-2.009939"><ele>267</ele><time>2020-10-17T12:35:19Z</time><name>PT3544</name></trkpt>
<trkpt lat="53.191919" lon="-2.009957"><ele>266</ele><time>2020-10-17T12:35:20Z</time><name>PT3545</name></trkpt>
<trkpt lat="53.191912" lon="-2.009971"><ele>266</ele><time>2020-10-17T12:35:21Z</time><name>PT3546</name></trkpt>
<trkpt lat="53.191905" lon="-2.009986"><ele>267</ele><time>2020-10-17T12:35:22Z</time><name>PT3547</name></trkpt>
<trkpt lat="53.191889" lon="-2.010036"><ele>266</ele><time>2020-10-17T12:35:25Z</time><name>PT3548</name></trkpt>
<trkpt lat="53.191870" lon="-2.010088"><ele>265</ele><time>2020-10-17T12:35:28Z</time><name>PT3549</name></trkpt>
<trkpt lat="53.191849" lon="-2.010138"><ele>266</ele><time>2020-10-17T12:35:31Z</time><name>PT3550</name></trkpt>
<trkpt lat="53.191831" lon="-2.010193"><ele>266</ele><time>2020-10-17T12:35:34Z</time><name>PT3551</name></trkpt>
<trkpt lat="53.191797" lon="-2.010253"><ele>265</ele><time>2020-10-17T12:35:38Z</time><name>PT3552</name></trkpt>
<trkpt lat="53.191766" lon="-2.010306"><ele>265</ele><time>2020-10-17T12:35:42Z</time><name>PT3553</name></trkpt>
<trkpt lat="53.191741" lon="-2.010345"><ele>265</ele><time>2020-10-17T12:35:45Z</time><name>PT3554</name></trkpt>
<trkpt lat="53.191720" lon="-2.010377"><ele>264</ele><time>2020-10-17T12:35:48Z</time><name>PT3555</name></trkpt>
<trkpt lat="53.191689" lon="-2.010417"><ele>263</ele><time>2020-10-17T12:35:52Z</time><name>PT3556</name></trkpt>
<trkpt lat="53.191653" lon="-2.010496"><ele>264</ele><time>2020-10-17T12:35:55Z</time><name>PT3557</name></trkpt>
<trkpt lat="53.191639" lon="-2.010549"><ele>262</ele><time>2020-10-17T12:35:59Z</time><name>PT3558</name></trkpt>
<trkpt lat="53.191620" lon="-2.010594"><ele>262</ele><time>2020-10-17T12:36:02Z</time><name>PT3559</name></trkpt>
<trkpt lat="53.191613" lon="-2.010608"><ele>261</ele><time>2020-10-17T12:36:03Z</time><name>PT3560</name></trkpt>
<trkpt lat="53.191606" lon="-2.010625"><ele>261</ele><time>2020-10-17T12:36:04Z</time><name>PT3561</name></trkpt>
<trkpt lat="53.191601" lon="-2.010643"><ele>261</ele><time>2020-10-17T12:36:05Z</time><name>PT3562</name></trkpt>
<trkpt lat="53.191598" lon="-2.010660"><ele>261</ele><time>2020-10-17T12:36:06Z</time><name>PT3563</name></trkpt>
<trkpt lat="53.191594" lon="-2.010680"><ele>261</ele><time>2020-10-17T12:36:07Z</time><name>PT3564</name></trkpt>
<trkpt lat="53.191593" lon="-2.010700"><ele>260</ele><time>2020-10-17T12:36:08Z</time><name>PT3565</name></trkpt>
<trkpt lat="53.191596" lon="-2.010715"><ele>260</ele><time>2020-10-17T12:36:09Z</time><name>PT3566</name></trkpt>
<trkpt lat="53.191595" lon="-2.010740"><ele>261</ele><time>2020-10-17T12:36:10Z</time><name>PT3567</name></trkpt>
<trkpt lat="53.191598" lon="-2.010759"><ele>261</ele><time>2020-10-17T12:36:11Z</time><name>PT3568</name></trkpt>
<trkpt lat="53.191604" lon="-2.010769"><ele>260</ele><time>2020-10-17T12:36:12Z</time><name>PT3569</name></trkpt>
<trkpt lat="53.191610" lon="-2.010777"><ele>260</ele><time>2020-10-17T12:36:13Z</time><name>PT3570</name></trkpt>
<trkpt lat="53.191612" lon="-2.010787"><ele>259</ele><time>2020-10-17T12:36:14Z</time><name>PT3571</name></trkpt>
<trkpt lat="53.191616" lon="-2.010797"><ele>259</ele><time>2020-10-17T12:36:15Z</time><name>PT3572</name></trkpt>
<trkpt lat="53.191619" lon="-2.010805"><ele>259</ele><time>2020-10-17T12:36:16Z</time><name>PT3573</name></trkpt>
<trkpt lat="53.191623" lon="-2.010815"><ele>259</ele><time>2020-10-17T12:36:17Z</time><name>PT3574</name></trkpt>
<trkpt lat="53.191625" lon="-2.010826"><ele>259</ele><time>2020-10-17T12:36:18Z</time><name>PT3575</name></trkpt>
<trkpt lat="53.191626" lon="-2.010841"><ele>259</ele><time>2020-10-17T12:36:19Z</time><name>PT3576</name></trkpt>
<trkpt lat="53.191626" lon="-2.010853"><ele>259</ele><time>2020-10-17T12:36:20Z</time><name>PT3577</name></trkpt>
<trkpt lat="53.191629" lon="-2.010868"><ele>259</ele><time>2020-10-17T12:36:21Z</time><name>PT3578</name></trkpt>
<trkpt lat="53.191626" lon="-2.010880"><ele>259</ele><time>2020-10-17T12:36:22Z</time><name>PT3579</name></trkpt>
<trkpt lat="53.191621" lon="-2.010896"><ele>259</ele><time>2020-10-17T12:36:23Z</time><name>PT3580</name></trkpt>
<trkpt lat="53.191627" lon="-2.010905"><ele>258</ele><time>2020-10-17T12:36:24Z</time><name>PT3581</name></trkpt>
<trkpt lat="53.191628" lon="-2.010912"><ele>258</ele><time>2020-10-17T12:36:25Z</time><name>PT3582</name></trkpt>
<trkpt lat="53.191628" lon="-2.010916"><ele>258</ele><time>2020-10-17T12:36:26Z</time><name>PT3583</name></trkpt>
<trkpt lat="53.191628" lon="-2.010921"><ele>258</ele><time>2020-10-17T12:36:27Z</time><name>PT3584</name></trkpt>
<trkpt lat="53.191635" lon="-2.010931"><ele>258</ele><time>2020-10-17T12:36:33Z</time><name>PT3585</name></trkpt>
<trkpt lat="53.191647" lon="-2.010938"><ele>258</ele><time>2020-10-17T12:36:34Z</time><name>PT3586</name></trkpt>
<trkpt lat="53.191660" lon="-2.010947"><ele>258</ele><time>2020-10-17T12:36:35Z</time><name>PT3587</name></trkpt>
<trkpt lat="53.191670" lon="-2.010958"><ele>258</ele><time>2020-10-17T12:36:36Z</time><name>PT3588</name></trkpt>
<trkpt lat="53.191683" lon="-2.010970"><ele>257</ele><time>2020-10-17T12:36:37Z</time><name>PT3589</name></trkpt>
<trkpt lat="53.191692" lon="-2.010984"><ele>257</ele><time>2020-10-17T12:36:38Z</time><name>PT3590</name></trkpt>
<trkpt lat="53.191704" lon="-2.010994"><ele>257</ele><time>2020-10-17T12:36:39Z</time><name>PT3591</name></trkpt>
<trkpt lat="53.191713" lon="-2.011000"><ele>256</ele><time>2020-10-17T12:36:40Z</time><name>PT3592</name></trkpt>
<trkpt lat="53.191724" lon="-2.011010"><ele>257</ele><time>2020-10-17T12:36:41Z</time><name>PT3593</name></trkpt>
<trkpt lat="53.191734" lon="-2.011014"><ele>257</ele><time>2020-10-17T12:36:42Z</time><name>PT3594</name></trkpt>
<trkpt lat="53.191744" lon="-2.011023"><ele>256</ele><time>2020-10-17T12:36:43Z</time><name>PT3595</name></trkpt>
<trkpt lat="53.191751" lon="-2.011027"><ele>256</ele><time>2020-10-17T12:36:44Z</time><name>PT3596</name></trkpt>
<trkpt lat="53.191759" lon="-2.011029"><ele>255</ele><time>2020-10-17T12:36:45Z</time><name>PT3597</name></trkpt>
<trkpt lat="53.191767" lon="-2.011029"><ele>255</ele><time>2020-10-17T12:36:46Z</time><name>PT3598</name></trkpt>
<trkpt lat="53.191779" lon="-2.011026"><ele>255</ele><time>2020-10-17T12:36:47Z</time><name>PT3599</name></trkpt>
<trkpt lat="53.191788" lon="-2.011028"><ele>254</ele><time>2020-10-17T12:36:48Z</time><name>PT3600</name></trkpt>
<trkpt lat="53.191797" lon="-2.011025"><ele>253</ele><time>2020-10-17T12:36:49Z</time><name>PT3601</name></trkpt>
<trkpt lat="53.191806" lon="-2.011024"><ele>252</ele><time>2020-10-17T12:36:50Z</time><name>PT3602</name></trkpt>
<trkpt lat="53.191816" lon="-2.011023"><ele>252</ele><time>2020-10-17T12:36:51Z</time><name>PT3603</name></trkpt>
<trkpt lat="53.191821" lon="-2.011023"><ele>251</ele><time>2020-10-17T12:36:52Z</time><name>PT3604</name></trkpt>
<trkpt lat="53.191826" lon="-2.011023"><ele>250</ele><time>2020-10-17T12:36:53Z</time><name>PT3605</name></trkpt>
<trkpt lat="53.191838" lon="-2.011012"><ele>249</ele><time>2020-10-17T12:36:54Z</time><name>PT3606</name></trkpt>
<trkpt lat="53.191840" lon="-2.011014"><ele>248</ele><time>2020-10-17T12:36:55Z</time><name>PT3607</name></trkpt>
<trkpt lat="53.191841" lon="-2.011014"><ele>247</ele><time>2020-10-17T12:36:56Z</time><name>PT3608</name></trkpt>
<trkpt lat="53.191845" lon="-2.011021"><ele>246</ele><time>2020-10-17T12:36:57Z</time><name>PT3609</name></trkpt>
<trkpt lat="53.191852" lon="-2.011037"><ele>250</ele><time>2020-10-17T12:36:58Z</time><name>PT3610</name></trkpt>
<trkpt lat="53.191853" lon="-2.011037"><ele>250</ele><time>2020-10-17T12:36:59Z</time><name>PT3611</name></trkpt>
<trkpt lat="53.191855" lon="-2.011036"><ele>251</ele><time>2020-10-17T12:37:00Z</time><name>PT3612</name></trkpt>
<trkpt lat="53.191861" lon="-2.011035"><ele>253</ele><time>2020-10-17T12:37:01Z</time><name>PT3613</name></trkpt>
<trkpt lat="53.191870" lon="-2.011036"><ele>253</ele><time>2020-10-17T12:37:06Z</time><name>PT3614</name></trkpt>
<trkpt lat="53.191879" lon="-2.011046"><ele>252</ele><time>2020-10-17T12:37:07Z</time><name>PT3615</name></trkpt>
<trkpt lat="53.191886" lon="-2.011060"><ele>251</ele><time>2020-10-17T12:37:08Z</time><name>PT3616</name></trkpt>
<trkpt lat="53.191893" lon="-2.011075"><ele>251</ele><time>2020-10-17T12:37:09Z</time><name>PT3617</name></trkpt>
<trkpt lat="53.191894" lon="-2.011084"><ele>251</ele><time>2020-10-17T12:37:10Z</time><name>PT3618</name></trkpt>
<trkpt lat="53.191898" lon="-2.011096"><ele>250</ele><time>2020-10-17T12:37:11Z</time><name>PT3619</name></trkpt>
<trkpt lat="53.191904" lon="-2.011104"><ele>250</ele><time>2020-10-17T12:37:12Z</time><name>PT3620</name></trkpt>
<trkpt lat="53.191907" lon="-2.011116"><ele>249</ele><time>2020-10-17T12:37:13Z</time><name>PT3621</name></trkpt>
<trkpt lat="53.191912" lon="-2.011117"><ele>249</ele><time>2020-10-17T12:37:14Z</time><name>PT3622</name></trkpt>
<trkpt lat="53.191918" lon="-2.011118"><ele>247</ele><time>2020-10-17T12:37:15Z</time><name>PT3623</name></trkpt>
<trkpt lat="53.191919" lon="-2.011123"><ele>247</ele><time>2020-10-17T12:37:16Z</time><name>PT3624</name></trkpt>
<trkpt lat="53.191923" lon="-2.011121"><ele>247</ele><time>2020-10-17T12:37:17Z</time><name>PT3625</name></trkpt>
<trkpt lat="53.191923" lon="-2.011118"><ele>247</ele><time>2020-10-17T12:37:18Z</time><name>PT3626</name></trkpt>
<trkpt lat="53.191922" lon="-2.011119"><ele>247</ele><time>2020-10-17T12:37:19Z</time><name>PT3627</name></trkpt>
<trkpt lat="53.191927" lon="-2.011126"><ele>247</ele><time>2020-10-17T12:37:20Z</time><name>PT3628</name></trkpt>
<trkpt lat="53.191943" lon="-2.011157"><ele>249</ele><time>2020-10-17T12:37:21Z</time><name>PT3629</name></trkpt>
<trkpt lat="53.191946" lon="-2.011162"><ele>249</ele><time>2020-10-17T12:37:22Z</time><name>PT3630</name></trkpt>
<trkpt lat="53.191962" lon="-2.011158"><ele>251</ele><time>2020-10-17T12:37:23Z</time><name>PT3631</name></trkpt>
<trkpt lat="53.191961" lon="-2.011160"><ele>251</ele><time>2020-10-17T12:37:24Z</time><name>PT3632</name></trkpt>
<trkpt lat="53.191955" lon="-2.011160"><ele>251</ele><time>2020-10-17T12:37:25Z</time><name>PT3633</name></trkpt>
<trkpt lat="53.191952" lon="-2.011166"><ele>250</ele><time>2020-10-17T12:37:26Z</time><name>PT3634</name></trkpt>
<trkpt lat="53.191944" lon="-2.011168"><ele>251</ele><time>2020-10-17T12:37:27Z</time><name>PT3635</name></trkpt>
<trkpt lat="53.191936" lon="-2.011164"><ele>252</ele><time>2020-10-17T12:37:28Z</time><name>PT3636</name></trkpt>
<trkpt lat="53.191934" lon="-2.011167"><ele>252</ele><time>2020-10-17T12:37:29Z</time><name>PT3637</name></trkpt>
<trkpt lat="53.191935" lon="-2.011170"><ele>252</ele><time>2020-10-17T12:37:30Z</time><name>PT3638</name></trkpt>
<trkpt lat="53.191933" lon="-2.011174"><ele>252</ele><time>2020-10-17T12:37:31Z</time><name>PT3639</name></trkpt>
<trkpt lat="53.191930" lon="-2.011179"><ele>251</ele><time>2020-10-17T12:37:32Z</time><name>PT3640</name></trkpt>
<trkpt lat="53.191924" lon="-2.011184"><ele>251</ele><time>2020-10-17T12:37:33Z</time><name>PT3641</name></trkpt>
<trkpt lat="53.191916" lon="-2.011191"><ele>250</ele><time>2020-10-17T12:37:34Z</time><name>PT3642</name></trkpt>
<trkpt lat="53.191907" lon="-2.011193"><ele>250</ele><time>2020-10-17T12:37:35Z</time><name>PT3643</name></trkpt>
<trkpt lat="53.191901" lon="-2.011198"><ele>250</ele><time>2020-10-17T12:37:36Z</time><name>PT3644</name></trkpt>
<trkpt lat="53.191894" lon="-2.011203"><ele>250</ele><time>2020-10-17T12:37:37Z</time><name>PT3645</name></trkpt>
<trkpt lat="53.191889" lon="-2.011204"><ele>249</ele><time>2020-10-17T12:37:38Z</time><name>PT3646</name></trkpt>
<trkpt lat="53.191878" lon="-2.011207"><ele>248</ele><time>2020-10-17T12:37:39Z</time><name>PT3647</name></trkpt>
<trkpt lat="53.191867" lon="-2.011209"><ele>248</ele><time>2020-10-17T12:37:40Z</time><name>PT3648</name></trkpt>
<trkpt lat="53.191858" lon="-2.011215"><ele>248</ele><time>2020-10-17T12:37:41Z</time><name>PT3649</name></trkpt>
<trkpt lat="53.191848" lon="-2.011226"><ele>247</ele><time>2020-10-17T12:37:42Z</time><name>PT3650</name></trkpt>
<trkpt lat="53.191834" lon="-2.011231"><ele>248</ele><time>2020-10-17T12:37:43Z</time><name>PT3651</name></trkpt>
<trkpt lat="53.191824" lon="-2.011236"><ele>247</ele><time>2020-10-17T12:37:44Z</time><name>PT3652</name></trkpt>
<trkpt lat="53.191813" lon="-2.011230"><ele>248</ele><time>2020-10-17T12:37:45Z</time><name>PT3653</name></trkpt>
<trkpt lat="53.191806" lon="-2.011225"><ele>248</ele><time>2020-10-17T12:37:46Z</time><name>PT3654</name></trkpt>
<trkpt lat="53.191798" lon="-2.011236"><ele>248</ele><time>2020-10-17T12:37:47Z</time><name>PT3655</name></trkpt>
<trkpt lat="53.191790" lon="-2.011244"><ele>247</ele><time>2020-10-17T12:37:48Z</time><name>PT3656</name></trkpt>
<trkpt lat="53.191782" lon="-2.011251"><ele>247</ele><time>2020-10-17T12:37:49Z</time><name>PT3657</name></trkpt>
<trkpt lat="53.191773" lon="-2.011255"><ele>249</ele><time>2020-10-17T12:37:50Z</time><name>PT3658</name></trkpt>
<trkpt lat="53.191758" lon="-2.011271"><ele>249</ele><time>2020-10-17T12:37:51Z</time><name>PT3659</name></trkpt>
<trkpt lat="53.191751" lon="-2.011273"><ele>249</ele><time>2020-10-17T12:37:52Z</time><name>PT3660</name></trkpt>
<trkpt lat="53.191743" lon="-2.011281"><ele>250</ele><time>2020-10-17T12:37:53Z</time><name>PT3661</name></trkpt>
<trkpt lat="53.191738" lon="-2.011292"><ele>251</ele><time>2020-10-17T12:37:54Z</time><name>PT3662</name></trkpt>
<trkpt lat="53.191730" lon="-2.011306"><ele>252</ele><time>2020-10-17T12:37:55Z</time><name>PT3663</name></trkpt>
<trkpt lat="53.191728" lon="-2.011315"><ele>252</ele><time>2020-10-17T12:37:56Z</time><name>PT3664</name></trkpt>
<trkpt lat="53.191725" lon="-2.011321"><ele>252</ele><time>2020-10-17T12:37:57Z</time><name>PT3665</name></trkpt>
<trkpt lat="53.191719" lon="-2.011331"><ele>252</ele><time>2020-10-17T12:37:58Z</time><name>PT3666</name></trkpt>
<trkpt lat="53.191718" lon="-2.011331"><ele>252</ele><time>2020-10-17T12:37:59Z</time><name>PT3667</name></trkpt>
<trkpt lat="53.191718" lon="-2.011335"><ele>251</ele><time>2020-10-17T12:38:01Z</time><name>PT3668</name></trkpt>
<trkpt lat="53.191716" lon="-2.011333"><ele>250</ele><time>2020-10-17T12:38:06Z</time><name>PT3669</name></trkpt>
<trkpt lat="53.191714" lon="-2.011333"><ele>250</ele><time>2020-10-17T12:38:07Z</time><name>PT3670</name></trkpt>
<trkpt lat="53.191706" lon="-2.011349"><ele>251</ele><time>2020-10-17T12:38:11Z</time><name>PT3671</name></trkpt>
<trkpt lat="53.191707" lon="-2.011367"><ele>251</ele><time>2020-10-17T12:38:12Z</time><name>PT3672</name></trkpt>
<trkpt lat="53.191687" lon="-2.011374"><ele>251</ele><time>2020-10-17T12:38:16Z</time><name>PT3673</name></trkpt>
<trkpt lat="53.191685" lon="-2.011384"><ele>249</ele><time>2020-10-17T12:38:17Z</time><name>PT3674</name></trkpt>
<trkpt lat="53.191682" lon="-2.011389"><ele>249</ele><time>2020-10-17T12:38:18Z</time><name>PT3675</name></trkpt>
<trkpt lat="53.191682" lon="-2.011386"><ele>249</ele><time>2020-10-17T12:38:19Z</time><name>PT3676</name></trkpt>
<trkpt lat="53.191676" lon="-2.011366"><ele>251</ele><time>2020-10-17T12:38:53Z</time><name>PT3677</name></trkpt>
<trkpt lat="53.191677" lon="-2.011364"><ele>252</ele><time>2020-10-17T12:38:54Z</time><name>PT3678</name></trkpt>
<trkpt lat="53.191669" lon="-2.011370"><ele>251</ele><time>2020-10-17T12:39:04Z</time><name>PT3679</name></trkpt>
<trkpt lat="53.191673" lon="-2.011378"><ele>251</ele><time>2020-10-17T12:39:08Z</time><name>PT3680</name></trkpt>
<trkpt lat="53.191677" lon="-2.011389"><ele>250</ele><time>2020-10-17T12:39:12Z</time><name>PT3681</name></trkpt>
<trkpt lat="53.191679" lon="-2.011407"><ele>249</ele><time>2020-10-17T12:39:15Z</time><name>PT3682</name></trkpt>
<trkpt lat="53.191694" lon="-2.011402"><ele>250</ele><time>2020-10-17T12:39:19Z</time><name>PT3683</name></trkpt>
<trkpt lat="53.191694" lon="-2.011403"><ele>250</ele><time>2020-10-17T12:39:23Z</time><name>PT3684</name></trkpt>
<trkpt lat="53.191692" lon="-2.011398"><ele>250</ele><time>2020-10-17T12:39:27Z</time><name>PT3685</name></trkpt>
<trkpt lat="53.191679" lon="-2.011387"><ele>249</ele><time>2020-10-17T12:39:33Z</time><name>PT3686</name></trkpt>
<trkpt lat="53.191681" lon="-2.011395"><ele>249</ele><time>2020-10-17T12:39:37Z</time><name>PT3687</name></trkpt>
<trkpt lat="53.191682" lon="-2.011379"><ele>249</ele><time>2020-10-17T12:39:41Z</time><name>PT3688</name></trkpt>
<trkpt lat="53.191681" lon="-2.011377"><ele>249</ele><time>2020-10-17T12:39:45Z</time><name>PT3689</name></trkpt>
<trkpt lat="53.191676" lon="-2.011388"><ele>249</ele><time>2020-10-17T12:39:48Z</time><name>PT3690</name></trkpt>
<trkpt lat="53.191676" lon="-2.011387"><ele>249</ele><time>2020-10-17T12:40:03Z</time><name>PT3691</name></trkpt>
<trkpt lat="53.191682" lon="-2.011397"><ele>250</ele><time>2020-10-17T12:40:42Z</time><name>PT3692</name></trkpt>
<trkpt lat="53.191691" lon="-2.011372"><ele>251</ele><time>2020-10-17T12:40:49Z</time><name>PT3693</name></trkpt>
<trkpt lat="53.191689" lon="-2.011365"><ele>253</ele><time>2020-10-17T12:42:16Z</time><name>PT3694</name></trkpt>
<trkpt lat="53.191687" lon="-2.011367"><ele>253</ele><time>2020-10-17T12:42:19Z</time><name>PT3695</name></trkpt>
<trkpt lat="53.191689" lon="-2.011377"><ele>253</ele><time>2020-10-17T12:42:23Z</time><name>PT3696</name></trkpt>
<trkpt lat="53.191697" lon="-2.011366"><ele>253</ele><time>2020-10-17T12:42:44Z</time><name>PT3697</name></trkpt>
<trkpt lat="53.191713" lon="-2.011375"><ele>252</ele><time>2020-10-17T12:42:48Z</time><name>PT3698</name></trkpt>
<trkpt lat="53.191699" lon="-2.011376"><ele>251</ele><time>2020-10-17T12:42:51Z</time><name>PT3699</name></trkpt>
<trkpt lat="53.191685" lon="-2.011365"><ele>252</ele><time>2020-10-17T12:42:55Z</time><name>PT3700</name></trkpt>
<trkpt lat="53.191694" lon="-2.011362"><ele>252</ele><time>2020-10-17T12:42:59Z</time><name>PT3701</name></trkpt>
<trkpt lat="53.191699" lon="-2.011358"><ele>251</ele><time>2020-10-17T12:43:02Z</time><name>PT3702</name></trkpt>
<trkpt lat="53.191687" lon="-2.011359"><ele>254</ele><time>2020-10-17T12:43:05Z</time><name>PT3703</name></trkpt>
<trkpt lat="53.191689" lon="-2.011357"><ele>254</ele><time>2020-10-17T12:43:09Z</time><name>PT3704</name></trkpt>
<trkpt lat="53.191672" lon="-2.011358"><ele>253</ele><time>2020-10-17T12:43:13Z</time><name>PT3705</name></trkpt>
<trkpt lat="53.191674" lon="-2.011356"><ele>253</ele><time>2020-10-17T12:43:17Z</time><name>PT3706</name></trkpt>
<trkpt lat="53.191670" lon="-2.011347"><ele>251</ele><time>2020-10-17T12:43:21Z</time><name>PT3707</name></trkpt>
<trkpt lat="53.191674" lon="-2.011352"><ele>250</ele><time>2020-10-17T12:43:25Z</time><name>PT3708</name></trkpt>
<trkpt lat="53.191660" lon="-2.011373"><ele>248</ele><time>2020-10-17T12:43:29Z</time><name>PT3709</name></trkpt>
<trkpt lat="53.191649" lon="-2.011374"><ele>249</ele><time>2020-10-17T12:43:33Z</time><name>PT3710</name></trkpt>
<trkpt lat="53.191644" lon="-2.011373"><ele>250</ele><time>2020-10-17T12:43:36Z</time><name>PT3711</name></trkpt>
<trkpt lat="53.191609" lon="-2.011399"><ele>251</ele><time>2020-10-17T12:43:40Z</time><name>PT3712</name></trkpt>
<trkpt lat="53.191617" lon="-2.011410"><ele>253</ele><time>2020-10-17T12:43:44Z</time><name>PT3713</name></trkpt>
<trkpt lat="53.191621" lon="-2.011411"><ele>253</ele><time>2020-10-17T12:43:47Z</time><name>PT3714</name></trkpt>
<trkpt lat="53.191615" lon="-2.011414"><ele>254</ele><time>2020-10-17T12:43:54Z</time><name>PT3715</name></trkpt>
<trkpt lat="53.191606" lon="-2.011418"><ele>255</ele><time>2020-10-17T12:43:58Z</time><name>PT3716</name></trkpt>
<trkpt lat="53.191619" lon="-2.011419"><ele>254</ele><time>2020-10-17T12:44:02Z</time><name>PT3717</name></trkpt>
<trkpt lat="53.191630" lon="-2.011425"><ele>254</ele><time>2020-10-17T12:44:06Z</time><name>PT3718</name></trkpt>
<trkpt lat="53.191636" lon="-2.011410"><ele>254</ele><time>2020-10-17T12:44:09Z</time><name>PT3719</name></trkpt>
<trkpt lat="53.191640" lon="-2.011401"><ele>254</ele><time>2020-10-17T12:44:12Z</time><name>PT3720</name></trkpt>
<trkpt lat="53.191641" lon="-2.011374"><ele>254</ele><time>2020-10-17T12:44:16Z</time><name>PT3721</name></trkpt>
<trkpt lat="53.191643" lon="-2.011366"><ele>253</ele><time>2020-10-17T12:44:19Z</time><name>PT3722</name></trkpt>
<trkpt lat="53.191637" lon="-2.011356"><ele>253</ele><time>2020-10-17T12:44:23Z</time><name>PT3723</name></trkpt>
<trkpt lat="53.191628" lon="-2.011358"><ele>253</ele><time>2020-10-17T12:44:26Z</time><name>PT3724</name></trkpt>
<trkpt lat="53.191644" lon="-2.011374"><ele>252</ele><time>2020-10-17T12:44:29Z</time><name>PT3725</name></trkpt>
<trkpt lat="53.191654" lon="-2.011386"><ele>251</ele><time>2020-10-17T12:44:33Z</time><name>PT3726</name></trkpt>
<trkpt lat="53.191662" lon="-2.011401"><ele>250</ele><time>2020-10-17T12:44:36Z</time><name>PT3727</name></trkpt>
<trkpt lat="53.191654" lon="-2.011397"><ele>249</ele><time>2020-10-17T12:44:40Z</time><name>PT3728</name></trkpt>
<trkpt lat="53.191649" lon="-2.011393"><ele>249</ele><time>2020-10-17T12:44:43Z</time><name>PT3729</name></trkpt>
<trkpt lat="53.191667" lon="-2.011405"><ele>247</ele><time>2020-10-17T12:44:46Z</time><name>PT3730</name></trkpt>
<trkpt lat="53.191671" lon="-2.011400"><ele>247</ele><time>2020-10-17T12:44:50Z</time><name>PT3731</name></trkpt>
<trkpt lat="53.191672" lon="-2.011403"><ele>246</ele><time>2020-10-17T12:44:54Z</time><name>PT3732</name></trkpt>
<trkpt lat="53.191679" lon="-2.011389"><ele>246</ele><time>2020-10-17T12:44:58Z</time><name>PT3733</name></trkpt>
<trkpt lat="53.191684" lon="-2.011384"><ele>246</ele><time>2020-10-17T12:45:11Z</time><name>PT3734</name></trkpt>
<trkpt lat="53.191702" lon="-2.011382"><ele>246</ele><time>2020-10-17T12:45:14Z</time><name>PT3735</name></trkpt>
<trkpt lat="53.191716" lon="-2.011388"><ele>246</ele><time>2020-10-17T12:45:18Z</time><name>PT3736</name></trkpt>
<trkpt lat="53.191736" lon="-2.011404"><ele>245</ele><time>2020-10-17T12:45:22Z</time><name>PT3737</name></trkpt>
<trkpt lat="53.191743" lon="-2.011405"><ele>244</ele><time>2020-10-17T12:45:26Z</time><name>PT3738</name></trkpt>
<trkpt lat="53.191739" lon="-2.011384"><ele>245</ele><time>2020-10-17T12:45:29Z</time><name>PT3739</name></trkpt>
<trkpt lat="53.191740" lon="-2.011388"><ele>246</ele><time>2020-10-17T12:45:33Z</time><name>PT3740</name></trkpt>
<trkpt lat="53.191740" lon="-2.011415"><ele>247</ele><time>2020-10-17T12:45:37Z</time><name>PT3741</name></trkpt>
<trkpt lat="53.191742" lon="-2.011440"><ele>247</ele><time>2020-10-17T12:45:41Z</time><name>PT3742</name></trkpt>
<trkpt lat="53.191739" lon="-2.011436"><ele>248</ele><time>2020-10-17T12:45:45Z</time><name>PT3743</name></trkpt>
<trkpt lat="53.191746" lon="-2.011429"><ele>248</ele><time>2020-10-17T12:45:48Z</time><name>PT3744</name></trkpt>
<trkpt lat="53.191747" lon="-2.011415"><ele>248</ele><time>2020-10-17T12:45:52Z</time><name>PT3745</name></trkpt>
<trkpt lat="53.191743" lon="-2.011418"><ele>249</ele><time>2020-10-17T12:46:20Z</time><name>PT3746</name></trkpt>
<trkpt lat="53.191732" lon="-2.011416"><ele>250</ele><time>2020-10-17T12:46:23Z</time><name>PT3747</name></trkpt>
<trkpt lat="53.191731" lon="-2.011411"><ele>250</ele><time>2020-10-17T12:46:27Z</time><name>PT3748</name></trkpt>
<trkpt lat="53.191730" lon="-2.011406"><ele>251</ele><time>2020-10-17T12:46:41Z</time><name>PT3749</name></trkpt>
<trkpt lat="53.191724" lon="-2.011410"><ele>251</ele><time>2020-10-17T12:46:44Z</time><name>PT3750</name></trkpt>
<trkpt lat="53.191717" lon="-2.011415"><ele>252</ele><time>2020-10-17T12:46:48Z</time><name>PT3751</name></trkpt>
<trkpt lat="53.191716" lon="-2.011420"><ele>252</ele><time>2020-10-17T12:46:52Z</time><name>PT3752</name></trkpt>
<trkpt lat="53.191712" lon="-2.011406"><ele>252</ele><time>2020-10-17T12:47:03Z</time><name>PT3753</name></trkpt>
<trkpt lat="53.191706" lon="-2.011385"><ele>253</ele><time>2020-10-17T12:47:07Z</time><name>PT3754</name></trkpt>
<trkpt lat="53.191702" lon="-2.011382"><ele>253</ele><time>2020-10-17T12:47:10Z</time><name>PT3755</name></trkpt>
<trkpt lat="53.191703" lon="-2.011397"><ele>254</ele><time>2020-10-17T12:47:14Z</time><name>PT3756</name></trkpt>
<trkpt lat="53.191705" lon="-2.011409"><ele>253</ele><time>2020-10-17T12:47:21Z</time><name>PT3757</name></trkpt>
<trkpt lat="53.191711" lon="-2.011420"><ele>253</ele><time>2020-10-17T12:47:25Z</time><name>PT3758</name></trkpt>
<trkpt lat="53.191711" lon="-2.011418"><ele>253</ele><time>2020-10-17T12:48:45Z</time><name>PT3759</name></trkpt>
<trkpt lat="53.191709" lon="-2.011413"><ele>253</ele><time>2020-10-17T12:48:48Z</time><name>PT3760</name></trkpt>
<trkpt lat="53.191709" lon="-2.011403"><ele>253</ele><time>2020-10-17T12:49:15Z</time><name>PT3761</name></trkpt>
<trkpt lat="53.191714" lon="-2.011407"><ele>253</ele><time>2020-10-17T12:49:19Z</time><name>PT3762</name></trkpt>
<trkpt lat="53.191715" lon="-2.011402"><ele>254</ele><time>2020-10-17T12:49:23Z</time><name>PT3763</name></trkpt>
<trkpt lat="53.191717" lon="-2.011393"><ele>254</ele><time>2020-10-17T12:49:26Z</time><name>PT3764</name></trkpt>
<trkpt lat="53.191719" lon="-2.011396"><ele>254</ele><time>2020-10-17T12:49:29Z</time><name>PT3765</name></trkpt>
<trkpt lat="53.191717" lon="-2.011394"><ele>254</ele><time>2020-10-17T12:49:32Z</time><name>PT3766</name></trkpt>
<trkpt lat="53.191712" lon="-2.011396"><ele>255</ele><time>2020-10-17T12:49:36Z</time><name>PT3767</name></trkpt>
<trkpt lat="53.191714" lon="-2.011397"><ele>254</ele><time>2020-10-17T12:49:40Z</time><name>PT3768</name></trkpt>
<trkpt lat="53.191712" lon="-2.011387"><ele>255</ele><time>2020-10-17T12:49:43Z</time><name>PT3769</name></trkpt>
<trkpt lat="53.191708" lon="-2.011382"><ele>255</ele><time>2020-10-17T12:49:47Z</time><name>PT3770</name></trkpt>
<trkpt lat="53.191720" lon="-2.011366"><ele>256</ele><time>2020-10-17T12:49:51Z</time><name>PT3771</name></trkpt>
<trkpt lat="53.191719" lon="-2.011374"><ele>256</ele><time>2020-10-17T12:49:54Z</time><name>PT3772</name></trkpt>
<trkpt lat="53.191719" lon="-2.011375"><ele>256</ele><time>2020-10-17T12:49:57Z</time><name>PT3773</name></trkpt>
<trkpt lat="53.191714" lon="-2.011374"><ele>255</ele><time>2020-10-17T12:50:04Z</time><name>PT3774</name></trkpt>
<trkpt lat="53.191712" lon="-2.011379"><ele>255</ele><time>2020-10-17T12:50:07Z</time><name>PT3775</name></trkpt>
<trkpt lat="53.191720" lon="-2.011383"><ele>255</ele><time>2020-10-17T12:50:28Z</time><name>PT3776</name></trkpt>
<trkpt lat="53.191731" lon="-2.011403"><ele>254</ele><time>2020-10-17T12:50:32Z</time><name>PT3777</name></trkpt>
<trkpt lat="53.191741" lon="-2.011410"><ele>254</ele><time>2020-10-17T12:50:36Z</time><name>PT3778</name></trkpt>
<trkpt lat="53.191739" lon="-2.011409"><ele>255</ele><time>2020-10-17T12:50:40Z</time><name>PT3779</name></trkpt>
<trkpt lat="53.191750" lon="-2.011410"><ele>256</ele><time>2020-10-17T12:50:44Z</time><name>PT3780</name></trkpt>
<trkpt lat="53.191756" lon="-2.011409"><ele>257</ele><time>2020-10-17T12:50:47Z</time><name>PT3781</name></trkpt>
<trkpt lat="53.191750" lon="-2.011422"><ele>256</ele><time>2020-10-17T12:50:53Z</time><name>PT3782</name></trkpt>
<trkpt lat="53.191747" lon="-2.011421"><ele>256</ele><time>2020-10-17T12:50:56Z</time><name>PT3783</name></trkpt>
<trkpt lat="53.191747" lon="-2.011411"><ele>254</ele><time>2020-10-17T12:51:04Z</time><name>PT3784</name></trkpt>
<trkpt lat="53.191738" lon="-2.011393"><ele>256</ele><time>2020-10-17T12:51:29Z</time><name>PT3785</name></trkpt>
<trkpt lat="53.191743" lon="-2.011387"><ele>256</ele><time>2020-10-17T12:51:33Z</time><name>PT3786</name></trkpt>
<trkpt lat="53.191742" lon="-2.011388"><ele>257</ele><time>2020-10-17T12:51:37Z</time><name>PT3787</name></trkpt>
<trkpt lat="53.191750" lon="-2.011402"><ele>258</ele><time>2020-10-17T12:51:41Z</time><name>PT3788</name></trkpt>
<trkpt lat="53.191759" lon="-2.011405"><ele>259</ele><time>2020-10-17T12:51:48Z</time><name>PT3789</name></trkpt>
<trkpt lat="53.191766" lon="-2.011401"><ele>260</ele><time>2020-10-17T12:51:51Z</time><name>PT3790</name></trkpt>
<trkpt lat="53.191772" lon="-2.011398"><ele>259</ele><time>2020-10-17T12:51:54Z</time><name>PT3791</name></trkpt>
<trkpt lat="53.191775" lon="-2.011393"><ele>260</ele><time>2020-10-17T12:51:58Z</time><name>PT3792</name></trkpt>
<trkpt lat="53.191770" lon="-2.011371"><ele>260</ele><time>2020-10-17T12:52:05Z</time><name>PT3793</name></trkpt>
<trkpt lat="53.191769" lon="-2.011363"><ele>260</ele><time>2020-10-17T12:52:09Z</time><name>PT3794</name></trkpt>
<trkpt lat="53.191762" lon="-2.011356"><ele>262</ele><time>2020-10-17T12:52:24Z</time><name>PT3795</name></trkpt>
<trkpt lat="53.191762" lon="-2.011352"><ele>262</ele><time>2020-10-17T12:52:28Z</time><name>PT3796</name></trkpt>
<trkpt lat="53.191774" lon="-2.011344"><ele>262</ele><time>2020-10-17T12:52:32Z</time><name>PT3797</name></trkpt>
<trkpt lat="53.191780" lon="-2.011336"><ele>262</ele><time>2020-10-17T12:52:35Z</time><name>PT3798</name></trkpt>
<trkpt lat="53.191781" lon="-2.011320"><ele>261</ele><time>2020-10-17T12:52:38Z</time><name>PT3799</name></trkpt>
<trkpt lat="53.191783" lon="-2.011309"><ele>261</ele><time>2020-10-17T12:52:42Z</time><name>PT3800</name></trkpt>
<trkpt lat="53.191781" lon="-2.011321"><ele>260</ele><time>2020-10-17T12:52:56Z</time><name>PT3801</name></trkpt>
<trkpt lat="53.191769" lon="-2.011337"><ele>260</ele><time>2020-10-17T12:53:00Z</time><name>PT3802</name></trkpt>
<trkpt lat="53.191756" lon="-2.011336"><ele>259</ele><time>2020-10-17T12:53:03Z</time><name>PT3803</name></trkpt>
<trkpt lat="53.191735" lon="-2.011322"><ele>260</ele><time>2020-10-17T12:53:07Z</time><name>PT3804</name></trkpt>
<trkpt lat="53.191740" lon="-2.011352"><ele>260</ele><time>2020-10-17T12:53:22Z</time><name>PT3805</name></trkpt>
<trkpt lat="53.191742" lon="-2.011356"><ele>260</ele><time>2020-10-17T12:53:26Z</time><name>PT3806</name></trkpt>
<trkpt lat="53.191747" lon="-2.011374"><ele>261</ele><time>2020-10-17T12:53:30Z</time><name>PT3807</name></trkpt>
<trkpt lat="53.191746" lon="-2.011367"><ele>260</ele><time>2020-10-17T12:53:34Z</time><name>PT3808</name></trkpt>
<trkpt lat="53.191721" lon="-2.011358"><ele>260</ele><time>2020-10-17T12:53:37Z</time><name>PT3809</name></trkpt>
<trkpt lat="53.191705" lon="-2.011363"><ele>259</ele><time>2020-10-17T12:53:41Z</time><name>PT3810</name></trkpt>
<trkpt lat="53.191694" lon="-2.011362"><ele>258</ele><time>2020-10-17T12:53:45Z</time><name>PT3811</name></trkpt>
<trkpt lat="53.191697" lon="-2.011364"><ele>259</ele><time>2020-10-17T12:53:55Z</time><name>PT3812</name></trkpt>
<trkpt lat="53.191694" lon="-2.011363"><ele>260</ele><time>2020-10-17T12:53:58Z</time><name>PT3813</name></trkpt>
<trkpt lat="53.191690" lon="-2.011355"><ele>259</ele><time>2020-10-17T12:54:02Z</time><name>PT3814</name></trkpt>
<trkpt lat="53.191689" lon="-2.011353"><ele>259</ele><time>2020-10-17T12:54:05Z</time><name>PT3815</name></trkpt>
<trkpt lat="53.191690" lon="-2.011331"><ele>258</ele><time>2020-10-17T12:54:12Z</time><name>PT3816</name></trkpt>
<trkpt lat="53.191692" lon="-2.011325"><ele>258</ele><time>2020-10-17T12:54:16Z</time><name>PT3817</name></trkpt>
<trkpt lat="53.191696" lon="-2.011325"><ele>258</ele><time>2020-10-17T12:54:27Z</time><name>PT3818</name></trkpt>
<trkpt lat="53.191697" lon="-2.011321"><ele>258</ele><time>2020-10-17T12:54:30Z</time><name>PT3819</name></trkpt>
<trkpt lat="53.191696" lon="-2.011312"><ele>259</ele><time>2020-10-17T12:55:03Z</time><name>PT3820</name></trkpt>
<trkpt lat="53.191696" lon="-2.011308"><ele>260</ele><time>2020-10-17T12:55:06Z</time><name>PT3821</name></trkpt>
<trkpt lat="53.191690" lon="-2.011304"><ele>259</ele><time>2020-10-17T12:56:38Z</time><name>PT3822</name></trkpt>
<trkpt lat="53.191679" lon="-2.011292"><ele>259</ele><time>2020-10-17T12:56:56Z</time><name>PT3823</name></trkpt>
<trkpt lat="53.191676" lon="-2.011276"><ele>259</ele><time>2020-10-17T12:57:00Z</time><name>PT3824</name></trkpt>
<trkpt lat="53.191676" lon="-2.011277"><ele>258</ele><time>2020-10-17T12:57:03Z</time><name>PT3825</name></trkpt>
<trkpt lat="53.191661" lon="-2.011268"><ele>257</ele><time>2020-10-17T12:57:07Z</time><name>PT3826</name></trkpt>
<trkpt lat="53.191648" lon="-2.011262"><ele>257</ele><time>2020-10-17T12:57:11Z</time><name>PT3827</name></trkpt>
<trkpt lat="53.191645" lon="-2.011286"><ele>256</ele><time>2020-10-17T12:57:15Z</time><name>PT3828</name></trkpt>
<trkpt lat="53.191640" lon="-2.011313"><ele>257</ele><time>2020-10-17T12:57:18Z</time><name>PT3829</name></trkpt>
<trkpt lat="53.191640" lon="-2.011313"><ele>257</ele><time>2020-10-17T12:57:22Z</time><name>PT3830</name></trkpt>
<trkpt lat="53.191643" lon="-2.011322"><ele>257</ele><time>2020-10-17T12:57:25Z</time><name>PT3831</name></trkpt>
<trkpt lat="53.191650" lon="-2.011332"><ele>258</ele><time>2020-10-17T12:57:29Z</time><name>PT3832</name></trkpt>
<trkpt lat="53.191658" lon="-2.011348"><ele>259</ele><time>2020-10-17T12:57:33Z</time><name>PT3833</name></trkpt>
<trkpt lat="53.191660" lon="-2.011357"><ele>258</ele><time>2020-10-17T12:57:36Z</time><name>PT3834</name></trkpt>
<trkpt lat="53.191660" lon="-2.011366"><ele>258</ele><time>2020-10-17T12:57:39Z</time><name>PT3835</name></trkpt>
<trkpt lat="53.191640" lon="-2.011361"><ele>259</ele><time>2020-10-17T12:57:43Z</time><name>PT3836</name></trkpt>
<trkpt lat="53.191641" lon="-2.011383"><ele>260</ele><time>2020-10-17T12:57:47Z</time><name>PT3837</name></trkpt>
<trkpt lat="53.191633" lon="-2.011393"><ele>260</ele><time>2020-10-17T12:57:53Z</time><name>PT3838</name></trkpt>
<trkpt lat="53.191641" lon="-2.011393"><ele>259</ele><time>2020-10-17T12:57:57Z</time><name>PT3839</name></trkpt>
<trkpt lat="53.191643" lon="-2.011394"><ele>259</ele><time>2020-10-17T12:58:01Z</time><name>PT3840</name></trkpt>
<trkpt lat="53.191665" lon="-2.011396"><ele>258</ele><time>2020-10-17T12:58:04Z</time><name>PT3841</name></trkpt>
<trkpt lat="53.191672" lon="-2.011375"><ele>258</ele><time>2020-10-17T13:01:26Z</time><name>PT3842</name></trkpt>
<trkpt lat="53.191708" lon="-2.011383"><ele>257</ele><time>2020-10-17T13:01:30Z</time><name>PT3843</name></trkpt>
<trkpt lat="53.191749" lon="-2.011381"><ele>256</ele><time>2020-10-17T13:01:34Z</time><name>PT3844</name></trkpt>
<trkpt lat="53.191783" lon="-2.011373"><ele>255</ele><time>2020-10-17T13:01:37Z</time><name>PT3845</name></trkpt>
<trkpt lat="53.191806" lon="-2.011360"><ele>254</ele><time>2020-10-17T13:01:40Z</time><name>PT3846</name></trkpt>
<trkpt lat="53.191835" lon="-2.011345"><ele>253</ele><time>2020-10-17T13:01:44Z</time><name>PT3847</name></trkpt>
<trkpt lat="53.191851" lon="-2.011315"><ele>253</ele><time>2020-10-17T13:01:47Z</time><name>PT3848</name></trkpt>
<trkpt lat="53.191856" lon="-2.011291"><ele>252</ele><time>2020-10-17T13:01:50Z</time><name>PT3849</name></trkpt>
<trkpt lat="53.191879" lon="-2.011253"><ele>250</ele><time>2020-10-17T13:01:53Z</time><name>PT3850</name></trkpt>
<trkpt lat="53.191893" lon="-2.011234"><ele>250</ele><time>2020-10-17T13:01:56Z</time><name>PT3851</name></trkpt>
<trkpt lat="53.191908" lon="-2.011222"><ele>250</ele><time>2020-10-17T13:02:00Z</time><name>PT3852</name></trkpt>
<trkpt lat="53.191921" lon="-2.011215"><ele>251</ele><time>2020-10-17T13:02:03Z</time><name>PT3853</name></trkpt>
<trkpt lat="53.191927" lon="-2.011202"><ele>252</ele><time>2020-10-17T13:02:07Z</time><name>PT3854</name></trkpt>
<trkpt lat="53.191964" lon="-2.011209"><ele>254</ele><time>2020-10-17T13:02:11Z</time><name>PT3855</name></trkpt>
<trkpt lat="53.191980" lon="-2.011215"><ele>255</ele><time>2020-10-17T13:02:14Z</time><name>PT3856</name></trkpt>
<trkpt lat="53.191997" lon="-2.011219"><ele>257</ele><time>2020-10-17T13:02:17Z</time><name>PT3857</name></trkpt>
<trkpt lat="53.191997" lon="-2.011248"><ele>257</ele><time>2020-10-17T13:02:20Z</time><name>PT3858</name></trkpt>
<trkpt lat="53.191986" lon="-2.011271"><ele>257</ele><time>2020-10-17T13:02:24Z</time><name>PT3859</name></trkpt>
<trkpt lat="53.191973" lon="-2.011302"><ele>257</ele><time>2020-10-17T13:02:28Z</time><name>PT3860</name></trkpt>
<trkpt lat="53.191969" lon="-2.011331"><ele>257</ele><time>2020-10-17T13:02:31Z</time><name>PT3861</name></trkpt>
<trkpt lat="53.191960" lon="-2.011353"><ele>257</ele><time>2020-10-17T13:02:35Z</time><name>PT3862</name></trkpt>
<trkpt lat="53.191949" lon="-2.011377"><ele>257</ele><time>2020-10-17T13:02:41Z</time><name>PT3863</name></trkpt>
<trkpt lat="53.191945" lon="-2.011420"><ele>257</ele><time>2020-10-17T13:02:45Z</time><name>PT3864</name></trkpt>
<trkpt lat="53.191944" lon="-2.011443"><ele>258</ele><time>2020-10-17T13:02:48Z</time><name>PT3865</name></trkpt>
<trkpt lat="53.191940" lon="-2.011479"><ele>258</ele><time>2020-10-17T13:02:52Z</time><name>PT3866</name></trkpt>
<trkpt lat="53.191933" lon="-2.011510"><ele>258</ele><time>2020-10-17T13:02:55Z</time><name>PT3867</name></trkpt>
<trkpt lat="53.191936" lon="-2.011552"><ele>259</ele><time>2020-10-17T13:02:58Z</time><name>PT3868</name></trkpt>
<trkpt lat="53.191938" lon="-2.011570"><ele>259</ele><time>2020-10-17T13:03:02Z</time><name>PT3869</name></trkpt>
<trkpt lat="53.191945" lon="-2.011599"><ele>261</ele><time>2020-10-17T13:03:23Z</time><name>PT3870</name></trkpt>
<trkpt lat="53.191973" lon="-2.011664"><ele>264</ele><time>2020-10-17T13:03:26Z</time><name>PT3871</name></trkpt>
<trkpt lat="53.192004" lon="-2.011700"><ele>266</ele><time>2020-10-17T13:03:30Z</time><name>PT3872</name></trkpt>
<trkpt lat="53.192036" lon="-2.011754"><ele>268</ele><time>2020-10-17T13:03:34Z</time><name>PT3873</name></trkpt>
<trkpt lat="53.192066" lon="-2.011783"><ele>270</ele><time>2020-10-17T13:03:37Z</time><name>PT3874</name></trkpt>
<trkpt lat="53.192081" lon="-2.011826"><ele>271</ele><time>2020-10-17T13:03:40Z</time><name>PT3875</name></trkpt>
<trkpt lat="53.192092" lon="-2.011842"><ele>272</ele><time>2020-10-17T13:03:44Z</time><name>PT3876</name></trkpt>
<trkpt lat="53.192117" lon="-2.011870"><ele>276</ele><time>2020-10-17T13:03:48Z</time><name>PT3877</name></trkpt>
<trkpt lat="53.192128" lon="-2.011893"><ele>277</ele><time>2020-10-17T13:03:52Z</time><name>PT3878</name></trkpt>
<trkpt lat="53.192140" lon="-2.011907"><ele>278</ele><time>2020-10-17T13:03:56Z</time><name>PT3879</name></trkpt>
<trkpt lat="53.192155" lon="-2.011924"><ele>279</ele><time>2020-10-17T13:03:59Z</time><name>PT3880</name></trkpt>
<trkpt lat="53.192171" lon="-2.011945"><ele>280</ele><time>2020-10-17T13:04:02Z</time><name>PT3881</name></trkpt>
<trkpt lat="53.192191" lon="-2.011962"><ele>281</ele><time>2020-10-17T13:04:05Z</time><name>PT3882</name></trkpt>
<trkpt lat="53.192202" lon="-2.011967"><ele>281</ele><time>2020-10-17T13:04:09Z</time><name>PT3883</name></trkpt>
<trkpt lat="53.192216" lon="-2.011996"><ele>281</ele><time>2020-10-17T13:04:12Z</time><name>PT3884</name></trkpt>
<trkpt lat="53.192219" lon="-2.012014"><ele>281</ele><time>2020-10-17T13:04:16Z</time><name>PT3885</name></trkpt>
<trkpt lat="53.192226" lon="-2.012027"><ele>282</ele><time>2020-10-17T13:04:20Z</time><name>PT3886</name></trkpt>
<trkpt lat="53.192236" lon="-2.012039"><ele>282</ele><time>2020-10-17T13:04:23Z</time><name>PT3887</name></trkpt>
<trkpt lat="53.192260" lon="-2.012065"><ele>283</ele><time>2020-10-17T13:04:27Z</time><name>PT3888</name></trkpt>
<trkpt lat="53.192272" lon="-2.012075"><ele>284</ele><time>2020-10-17T13:04:31Z</time><name>PT3889</name></trkpt>
<trkpt lat="53.192285" lon="-2.012095"><ele>284</ele><time>2020-10-17T13:04:34Z</time><name>PT3890</name></trkpt>
<trkpt lat="53.192298" lon="-2.012116"><ele>284</ele><time>2020-10-17T13:04:38Z</time><name>PT3891</name></trkpt>
<trkpt lat="53.192304" lon="-2.012130"><ele>283</ele><time>2020-10-17T13:04:45Z</time><name>PT3892</name></trkpt>
<trkpt lat="53.192318" lon="-2.012146"><ele>284</ele><time>2020-10-17T13:04:48Z</time><name>PT3893</name></trkpt>
<trkpt lat="53.192325" lon="-2.012159"><ele>284</ele><time>2020-10-17T13:04:51Z</time><name>PT3894</name></trkpt>
<trkpt lat="53.192342" lon="-2.012205"><ele>286</ele><time>2020-10-17T13:05:12Z</time><name>PT3895</name></trkpt>
<trkpt lat="53.192382" lon="-2.012287"><ele>287</ele><time>2020-10-17T13:05:16Z</time><name>PT3896</name></trkpt>
<trkpt lat="53.192406" lon="-2.012315"><ele>288</ele><time>2020-10-17T13:05:20Z</time><name>PT3897</name></trkpt>
<trkpt lat="53.192424" lon="-2.012338"><ele>288</ele><time>2020-10-17T13:05:23Z</time><name>PT3898</name></trkpt>
<trkpt lat="53.192446" lon="-2.012366"><ele>289</ele><time>2020-10-17T13:05:27Z</time><name>PT3899</name></trkpt>
<trkpt lat="53.192461" lon="-2.012377"><ele>291</ele><time>2020-10-17T13:05:30Z</time><name>PT3900</name></trkpt>
<trkpt lat="53.192495" lon="-2.012415"><ele>292</ele><time>2020-10-17T13:05:34Z</time><name>PT3901</name></trkpt>
<trkpt lat="53.192517" lon="-2.012439"><ele>293</ele><time>2020-10-17T13:05:37Z</time><name>PT3902</name></trkpt>
<trkpt lat="53.192533" lon="-2.012451"><ele>294</ele><time>2020-10-17T13:05:41Z</time><name>PT3903</name></trkpt>
<trkpt lat="53.192545" lon="-2.012463"><ele>294</ele><time>2020-10-17T13:05:44Z</time><name>PT3904</name></trkpt>
<trkpt lat="53.192561" lon="-2.012481"><ele>295</ele><time>2020-10-17T13:05:47Z</time><name>PT3905</name></trkpt>
<trkpt lat="53.192561" lon="-2.012517"><ele>295</ele><time>2020-10-17T13:05:50Z</time><name>PT3906</name></trkpt>
<trkpt lat="53.192579" lon="-2.012561"><ele>295</ele><time>2020-10-17T13:05:54Z</time><name>PT3907</name></trkpt>
<trkpt lat="53.192588" lon="-2.012613"><ele>294</ele><time>2020-10-17T13:05:58Z</time><name>PT3908</name></trkpt>
<trkpt lat="53.192600" lon="-2.012647"><ele>295</ele><time>2020-10-17T13:06:01Z</time><name>PT3909</name></trkpt>
<trkpt lat="53.192612" lon="-2.012693"><ele>295</ele><time>2020-10-17T13:06:05Z</time><name>PT3910</name></trkpt>
<trkpt lat="53.192617" lon="-2.012708"><ele>295</ele><time>2020-10-17T13:06:08Z</time><name>PT3911</name></trkpt>
<trkpt lat="53.192617" lon="-2.012717"><ele>296</ele><time>2020-10-17T13:06:12Z</time><name>PT3912</name></trkpt>
<trkpt lat="53.192632" lon="-2.012738"><ele>296</ele><time>2020-10-17T13:06:15Z</time><name>PT3913</name></trkpt>
<trkpt lat="53.192636" lon="-2.012777"><ele>296</ele><time>2020-10-17T13:06:19Z</time><name>PT3914</name></trkpt>
<trkpt lat="53.192645" lon="-2.012799"><ele>295</ele><time>2020-10-17T13:06:22Z</time><name>PT3915</name></trkpt>
<trkpt lat="53.192662" lon="-2.012793"><ele>296</ele><time>2020-10-17T13:06:25Z</time><name>PT3916</name></trkpt>
<trkpt lat="53.192673" lon="-2.012764"><ele>296</ele><time>2020-10-17T13:06:29Z</time><name>PT3917</name></trkpt>
<trkpt lat="53.192671" lon="-2.012768"><ele>297</ele><time>2020-10-17T13:06:32Z</time><name>PT3918</name></trkpt>
<trkpt lat="53.192665" lon="-2.012767"><ele>297</ele><time>2020-10-17T13:06:38Z</time><name>PT3919</name></trkpt>
<trkpt lat="53.192660" lon="-2.012812"><ele>297</ele><time>2020-10-17T13:06:41Z</time><name>PT3920</name></trkpt>
<trkpt lat="53.192655" lon="-2.012864"><ele>297</ele><time>2020-10-17T13:06:45Z</time><name>PT3921</name></trkpt>
<trkpt lat="53.192658" lon="-2.012905"><ele>298</ele><time>2020-10-17T13:06:48Z</time><name>PT3922</name></trkpt>
<trkpt lat="53.192661" lon="-2.012963"><ele>299</ele><time>2020-10-17T13:06:52Z</time><name>PT3923</name></trkpt>
<trkpt lat="53.192667" lon="-2.013008"><ele>299</ele><time>2020-10-17T13:06:55Z</time><name>PT3924</name></trkpt>
<trkpt lat="53.192673" lon="-2.013058"><ele>299</ele><time>2020-10-17T13:06:59Z</time><name>PT3925</name></trkpt>
<trkpt lat="53.192685" lon="-2.013105"><ele>301</ele><time>2020-10-17T13:07:03Z</time><name>PT3926</name></trkpt>
<trkpt lat="53.192691" lon="-2.013137"><ele>302</ele><time>2020-10-17T13:07:06Z</time><name>PT3927</name></trkpt>
<trkpt lat="53.192692" lon="-2.013183"><ele>301</ele><time>2020-10-17T13:07:10Z</time><name>PT3928</name></trkpt>
<trkpt lat="53.192698" lon="-2.013228"><ele>301</ele><time>2020-10-17T13:07:14Z</time><name>PT3929</name></trkpt>
<trkpt lat="53.192699" lon="-2.013260"><ele>301</ele><time>2020-10-17T13:07:18Z</time><name>PT3930</name></trkpt>
<trkpt lat="53.192704" lon="-2.013307"><ele>301</ele><time>2020-10-17T13:07:22Z</time><name>PT3931</name></trkpt>
<trkpt lat="53.192707" lon="-2.013335"><ele>302</ele><time>2020-10-17T13:07:25Z</time><name>PT3932</name></trkpt>
<trkpt lat="53.192715" lon="-2.013365"><ele>303</ele><time>2020-10-17T13:07:28Z</time><name>PT3933</name></trkpt>
<trkpt lat="53.192720" lon="-2.013379"><ele>303</ele><time>2020-10-17T13:07:32Z</time><name>PT3934</name></trkpt>
<trkpt lat="53.192740" lon="-2.013396"><ele>304</ele><time>2020-10-17T13:07:38Z</time><name>PT3935</name></trkpt>
<trkpt lat="53.192760" lon="-2.013421"><ele>304</ele><time>2020-10-17T13:07:41Z</time><name>PT3936</name></trkpt>
<trkpt lat="53.192766" lon="-2.013424"><ele>303</ele><time>2020-10-17T13:07:44Z</time><name>PT3937</name></trkpt>
<trkpt lat="53.192780" lon="-2.013466"><ele>304</ele><time>2020-10-17T13:07:51Z</time><name>PT3938</name></trkpt>
<trkpt lat="53.192840" lon="-2.013522"><ele>305</ele><time>2020-10-17T13:07:55Z</time><name>PT3939</name></trkpt>
<trkpt lat="53.192851" lon="-2.013514"><ele>305</ele><time>2020-10-17T13:07:56Z</time><name>PT3940</name></trkpt>
<trkpt lat="53.192859" lon="-2.013511"><ele>306</ele><time>2020-10-17T13:07:57Z</time><name>PT3941</name></trkpt>
<trkpt lat="53.192867" lon="-2.013517"><ele>306</ele><time>2020-10-17T13:07:58Z</time><name>PT3942</name></trkpt>
<trkpt lat="53.192875" lon="-2.013517"><ele>307</ele><time>2020-10-17T13:07:59Z</time><name>PT3943</name></trkpt>
<trkpt lat="53.192885" lon="-2.013519"><ele>307</ele><time>2020-10-17T13:08:00Z</time><name>PT3944</name></trkpt>
<trkpt lat="53.192892" lon="-2.013521"><ele>307</ele><time>2020-10-17T13:08:01Z</time><name>PT3945</name></trkpt>
<trkpt lat="53.192899" lon="-2.013525"><ele>308</ele><time>2020-10-17T13:08:02Z</time><name>PT3946</name></trkpt>
<trkpt lat="53.192907" lon="-2.013532"><ele>308</ele><time>2020-10-17T13:08:03Z</time><name>PT3947</name></trkpt>
<trkpt lat="53.192915" lon="-2.013538"><ele>308</ele><time>2020-10-17T13:08:04Z</time><name>PT3948</name></trkpt>
<trkpt lat="53.192922" lon="-2.013543"><ele>309</ele><time>2020-10-17T13:08:05Z</time><name>PT3949</name></trkpt>
<trkpt lat="53.192932" lon="-2.013546"><ele>309</ele><time>2020-10-17T13:08:06Z</time><name>PT3950</name></trkpt>
<trkpt lat="53.192940" lon="-2.013550"><ele>309</ele><time>2020-10-17T13:08:07Z</time><name>PT3951</name></trkpt>
<trkpt lat="53.192944" lon="-2.013555"><ele>309</ele><time>2020-10-17T13:08:08Z</time><name>PT3952</name></trkpt>
<trkpt lat="53.192948" lon="-2.013562"><ele>309</ele><time>2020-10-17T13:08:09Z</time><name>PT3953</name></trkpt>
<trkpt lat="53.192955" lon="-2.013565"><ele>309</ele><time>2020-10-17T13:08:10Z</time><name>PT3954</name></trkpt>
<trkpt lat="53.192964" lon="-2.013566"><ele>309</ele><time>2020-10-17T13:08:11Z</time><name>PT3955</name></trkpt>
<trkpt lat="53.192972" lon="-2.013570"><ele>309</ele><time>2020-10-17T13:08:12Z</time><name>PT3956</name></trkpt>
<trkpt lat="53.192979" lon="-2.013573"><ele>310</ele><time>2020-10-17T13:08:13Z</time><name>PT3957</name></trkpt>
<trkpt lat="53.192988" lon="-2.013573"><ele>310</ele><time>2020-10-17T13:08:14Z</time><name>PT3958</name></trkpt>
<trkpt lat="53.192992" lon="-2.013577"><ele>310</ele><time>2020-10-17T13:08:15Z</time><name>PT3959</name></trkpt>
<trkpt lat="53.192997" lon="-2.013577"><ele>311</ele><time>2020-10-17T13:08:16Z</time><name>PT3960</name></trkpt>
<trkpt lat="53.193003" lon="-2.013583"><ele>311</ele><time>2020-10-17T13:08:17Z</time><name>PT3961</name></trkpt>
<trkpt lat="53.193010" lon="-2.013587"><ele>312</ele><time>2020-10-17T13:08:18Z</time><name>PT3962</name></trkpt>
<trkpt lat="53.193015" lon="-2.013586"><ele>313</ele><time>2020-10-17T13:08:19Z</time><name>PT3963</name></trkpt>
<trkpt lat="53.193020" lon="-2.013586"><ele>313</ele><time>2020-10-17T13:08:20Z</time><name>PT3964</name></trkpt>
<trkpt lat="53.193027" lon="-2.013590"><ele>314</ele><time>2020-10-17T13:08:21Z</time><name>PT3965</name></trkpt>
<trkpt lat="53.193030" lon="-2.013595"><ele>313</ele><time>2020-10-17T13:08:22Z</time><name>PT3966</name></trkpt>
<trkpt lat="53.193033" lon="-2.013600"><ele>313</ele><time>2020-10-17T13:08:23Z</time><name>PT3967</name></trkpt>
<trkpt lat="53.193040" lon="-2.013602"><ele>313</ele><time>2020-10-17T13:08:24Z</time><name>PT3968</name></trkpt>
<trkpt lat="53.193047" lon="-2.013611"><ele>312</ele><time>2020-10-17T13:08:25Z</time><name>PT3969</name></trkpt>
<trkpt lat="53.193055" lon="-2.013619"><ele>312</ele><time>2020-10-17T13:08:26Z</time><name>PT3970</name></trkpt>
<trkpt lat="53.193061" lon="-2.013617"><ele>313</ele><time>2020-10-17T13:08:27Z</time><name>PT3971</name></trkpt>
<trkpt lat="53.193070" lon="-2.013622"><ele>312</ele><time>2020-10-17T13:08:28Z</time><name>PT3972</name></trkpt>
<trkpt lat="53.193076" lon="-2.013623"><ele>312</ele><time>2020-10-17T13:08:29Z</time><name>PT3973</name></trkpt>
<trkpt lat="53.193079" lon="-2.013626"><ele>311</ele><time>2020-10-17T13:08:30Z</time><name>PT3974</name></trkpt>
<trkpt lat="53.193086" lon="-2.013632"><ele>311</ele><time>2020-10-17T13:08:31Z</time><name>PT3975</name></trkpt>
<trkpt lat="53.193094" lon="-2.013633"><ele>311</ele><time>2020-10-17T13:08:32Z</time><name>PT3976</name></trkpt>
<trkpt lat="53.193106" lon="-2.013637"><ele>311</ele><time>2020-10-17T13:08:33Z</time><name>PT3977</name></trkpt>
<trkpt lat="53.193114" lon="-2.013640"><ele>312</ele><time>2020-10-17T13:08:34Z</time><name>PT3978</name></trkpt>
<trkpt lat="53.193127" lon="-2.013644"><ele>312</ele><time>2020-10-17T13:08:35Z</time><name>PT3979</name></trkpt>
<trkpt lat="53.193133" lon="-2.013646"><ele>312</ele><time>2020-10-17T13:08:36Z</time><name>PT3980</name></trkpt>
<trkpt lat="53.193137" lon="-2.013649"><ele>313</ele><time>2020-10-17T13:08:37Z</time><name>PT3981</name></trkpt>
<trkpt lat="53.193143" lon="-2.013651"><ele>313</ele><time>2020-10-17T13:08:38Z</time><name>PT3982</name></trkpt>
<trkpt lat="53.193151" lon="-2.013655"><ele>313</ele><time>2020-10-17T13:08:39Z</time><name>PT3983</name></trkpt>
<trkpt lat="53.193160" lon="-2.013660"><ele>314</ele><time>2020-10-17T13:08:40Z</time><name>PT3984</name></trkpt>
<trkpt lat="53.193170" lon="-2.013663"><ele>315</ele><time>2020-10-17T13:08:41Z</time><name>PT3985</name></trkpt>
<trkpt lat="53.193178" lon="-2.013669"><ele>315</ele><time>2020-10-17T13:08:42Z</time><name>PT3986</name></trkpt>
<trkpt lat="53.193184" lon="-2.013676"><ele>315</ele><time>2020-10-17T13:08:43Z</time><name>PT3987</name></trkpt>
<trkpt lat="53.193189" lon="-2.013678"><ele>315</ele><time>2020-10-17T13:08:44Z</time><name>PT3988</name></trkpt>
<trkpt lat="53.193194" lon="-2.013684"><ele>316</ele><time>2020-10-17T13:08:45Z</time><name>PT3989</name></trkpt>
<trkpt lat="53.193199" lon="-2.013687"><ele>316</ele><time>2020-10-17T13:08:46Z</time><name>PT3990</name></trkpt>
<trkpt lat="53.193204" lon="-2.013689"><ele>316</ele><time>2020-10-17T13:08:47Z</time><name>PT3991</name></trkpt>
<trkpt lat="53.193208" lon="-2.013694"><ele>316</ele><time>2020-10-17T13:08:48Z</time><name>PT3992</name></trkpt>
<trkpt lat="53.193212" lon="-2.013697"><ele>316</ele><time>2020-10-17T13:08:50Z</time><name>PT3993</name></trkpt>
<trkpt lat="53.193219" lon="-2.013701"><ele>316</ele><time>2020-10-17T13:08:51Z</time><name>PT3994</name></trkpt>
<trkpt lat="53.193228" lon="-2.013704"><ele>316</ele><time>2020-10-17T13:08:52Z</time><name>PT3995</name></trkpt>
<trkpt lat="53.193233" lon="-2.013706"><ele>316</ele><time>2020-10-17T13:08:53Z</time><name>PT3996</name></trkpt>
<trkpt lat="53.193237" lon="-2.013710"><ele>316</ele><time>2020-10-17T13:08:54Z</time><name>PT3997</name></trkpt>
<trkpt lat="53.193242" lon="-2.013713"><ele>316</ele><time>2020-10-17T13:08:55Z</time><name>PT3998</name></trkpt>
<trkpt lat="53.193248" lon="-2.013714"><ele>317</ele><time>2020-10-17T13:08:56Z</time><name>PT3999</name></trkpt>
<trkpt lat="53.193258" lon="-2.013711"><ele>317</ele><time>2020-10-17T13:08:57Z</time><name>PT4000</name></trkpt>
<trkpt lat="53.193265" lon="-2.013701"><ele>317</ele><time>2020-10-17T13:08:58Z</time><name>PT4001</name></trkpt>
<trkpt lat="53.193271" lon="-2.013699"><ele>317</ele><time>2020-10-17T13:08:59Z</time><name>PT4002</name></trkpt>
<trkpt lat="53.193279" lon="-2.013703"><ele>317</ele><time>2020-10-17T13:09:00Z</time><name>PT4003</name></trkpt>
<trkpt lat="53.193283" lon="-2.013704"><ele>318</ele><time>2020-10-17T13:09:01Z</time><name>PT4004</name></trkpt>
<trkpt lat="53.193287" lon="-2.013705"><ele>317</ele><time>2020-10-17T13:09:02Z</time><name>PT4005</name></trkpt>
<trkpt lat="53.193294" lon="-2.013706"><ele>317</ele><time>2020-10-17T13:09:03Z</time><name>PT4006</name></trkpt>
<trkpt lat="53.193297" lon="-2.013704"><ele>318</ele><time>2020-10-17T13:09:04Z</time><name>PT4007</name></trkpt>
<trkpt lat="53.193303" lon="-2.013704"><ele>318</ele><time>2020-10-17T13:09:05Z</time><name>PT4008</name></trkpt>
<trkpt lat="53.193311" lon="-2.013699"><ele>317</ele><time>2020-10-17T13:09:06Z</time><name>PT4009</name></trkpt>
<trkpt lat="53.193315" lon="-2.013696"><ele>317</ele><time>2020-10-17T13:09:07Z</time><name>PT4010</name></trkpt>
<trkpt lat="53.193318" lon="-2.013694"><ele>317</ele><time>2020-10-17T13:09:08Z</time><name>PT4011</name></trkpt>
<trkpt lat="53.193322" lon="-2.013697"><ele>318</ele><time>2020-10-17T13:09:09Z</time><name>PT4012</name></trkpt>
<trkpt lat="53.193326" lon="-2.013698"><ele>318</ele><time>2020-10-17T13:09:10Z</time><name>PT4013</name></trkpt>
<trkpt lat="53.193325" lon="-2.013697"><ele>319</ele><time>2020-10-17T13:09:11Z</time><name>PT4014</name></trkpt>
<trkpt lat="53.193329" lon="-2.013694"><ele>319</ele><time>2020-10-17T13:09:12Z</time><name>PT4015</name></trkpt>
<trkpt lat="53.193333" lon="-2.013695"><ele>318</ele><time>2020-10-17T13:09:13Z</time><name>PT4016</name></trkpt>
<trkpt lat="53.193337" lon="-2.013698"><ele>317</ele><time>2020-10-17T13:09:14Z</time><name>PT4017</name></trkpt>
<trkpt lat="53.193340" lon="-2.013700"><ele>317</ele><time>2020-10-17T13:09:15Z</time><name>PT4018</name></trkpt>
<trkpt lat="53.193342" lon="-2.013702"><ele>318</ele><time>2020-10-17T13:09:16Z</time><name>PT4019</name></trkpt>
<trkpt lat="53.193346" lon="-2.013705"><ele>318</ele><time>2020-10-17T13:09:17Z</time><name>PT4020</name></trkpt>
<trkpt lat="53.193350" lon="-2.013706"><ele>318</ele><time>2020-10-17T13:09:18Z</time><name>PT4021</name></trkpt>
<trkpt lat="53.193358" lon="-2.013688"><ele>319</ele><time>2020-10-17T13:09:29Z</time><name>PT4022</name></trkpt>
<trkpt lat="53.193364" lon="-2.013678"><ele>319</ele><time>2020-10-17T13:09:30Z</time><name>PT4023</name></trkpt>
<trkpt lat="53.193369" lon="-2.013666"><ele>319</ele><time>2020-10-17T13:09:31Z</time><name>PT4024</name></trkpt>
<trkpt lat="53.193374" lon="-2.013654"><ele>319</ele><time>2020-10-17T13:09:39Z</time><name>PT4025</name></trkpt>
<trkpt lat="53.193381" lon="-2.013635"><ele>319</ele><time>2020-10-17T13:09:40Z</time><name>PT4026</name></trkpt>
<trkpt lat="53.193387" lon="-2.013624"><ele>319</ele><time>2020-10-17T13:09:41Z</time><name>PT4027</name></trkpt>
<trkpt lat="53.193402" lon="-2.013608"><ele>320</ele><time>2020-10-17T13:09:42Z</time><name>PT4028</name></trkpt>
<trkpt lat="53.193408" lon="-2.013602"><ele>320</ele><time>2020-10-17T13:09:43Z</time><name>PT4029</name></trkpt>
<trkpt lat="53.193413" lon="-2.013605"><ele>320</ele><time>2020-10-17T13:09:44Z</time><name>PT4030</name></trkpt>
<trkpt lat="53.193417" lon="-2.013605"><ele>320</ele><time>2020-10-17T13:09:45Z</time><name>PT4031</name></trkpt>
<trkpt lat="53.193422" lon="-2.013602"><ele>320</ele><time>2020-10-17T13:09:46Z</time><name>PT4032</name></trkpt>
<trkpt lat="53.193426" lon="-2.013606"><ele>320</ele><time>2020-10-17T13:09:47Z</time><name>PT4033</name></trkpt>
<trkpt lat="53.193432" lon="-2.013608"><ele>320</ele><time>2020-10-17T13:09:48Z</time><name>PT4034</name></trkpt>
<trkpt lat="53.193438" lon="-2.013612"><ele>320</ele><time>2020-10-17T13:09:49Z</time><name>PT4035</name></trkpt>
<trkpt lat="53.193444" lon="-2.013615"><ele>321</ele><time>2020-10-17T13:09:50Z</time><name>PT4036</name></trkpt>
<trkpt lat="53.193446" lon="-2.013620"><ele>321</ele><time>2020-10-17T13:09:51Z</time><name>PT4037</name></trkpt>
<trkpt lat="53.193457" lon="-2.013624"><ele>322</ele><time>2020-10-17T13:09:52Z</time><name>PT4038</name></trkpt>
<trkpt lat="53.193465" lon="-2.013628"><ele>322</ele><time>2020-10-17T13:09:53Z</time><name>PT4039</name></trkpt>
<trkpt lat="53.193474" lon="-2.013627"><ele>322</ele><time>2020-10-17T13:09:54Z</time><name>PT4040</name></trkpt>
<trkpt lat="53.193488" lon="-2.013620"><ele>323</ele><time>2020-10-17T13:09:55Z</time><name>PT4041</name></trkpt>
<trkpt lat="53.193500" lon="-2.013617"><ele>323</ele><time>2020-10-17T13:09:56Z</time><name>PT4042</name></trkpt>
<trkpt lat="53.193505" lon="-2.013618"><ele>323</ele><time>2020-10-17T13:09:57Z</time><name>PT4043</name></trkpt>
<trkpt lat="53.193514" lon="-2.013618"><ele>323</ele><time>2020-10-17T13:09:58Z</time><name>PT4044</name></trkpt>
<trkpt lat="53.193522" lon="-2.013616"><ele>323</ele><time>2020-10-17T13:09:59Z</time><name>PT4045</name></trkpt>
<trkpt lat="53.193532" lon="-2.013616"><ele>323</ele><time>2020-10-17T13:10:00Z</time><name>PT4046</name></trkpt>
<trkpt lat="53.193539" lon="-2.013615"><ele>324</ele><time>2020-10-17T13:10:01Z</time><name>PT4047</name></trkpt>
<trkpt lat="53.193550" lon="-2.013612"><ele>325</ele><time>2020-10-17T13:10:02Z</time><name>PT4048</name></trkpt>
<trkpt lat="53.193556" lon="-2.013612"><ele>325</ele><time>2020-10-17T13:10:03Z</time><name>PT4049</name></trkpt>
<trkpt lat="53.193563" lon="-2.013613"><ele>325</ele><time>2020-10-17T13:10:04Z</time><name>PT4050</name></trkpt>
<trkpt lat="53.193569" lon="-2.013616"><ele>325</ele><time>2020-10-17T13:10:05Z</time><name>PT4051</name></trkpt>
<trkpt lat="53.193574" lon="-2.013620"><ele>325</ele><time>2020-10-17T13:10:06Z</time><name>PT4052</name></trkpt>
<trkpt lat="53.193580" lon="-2.013624"><ele>325</ele><time>2020-10-17T13:10:07Z</time><name>PT4053</name></trkpt>
<trkpt lat="53.193585" lon="-2.013625"><ele>326</ele><time>2020-10-17T13:10:08Z</time><name>PT4054</name></trkpt>
<trkpt lat="53.193589" lon="-2.013626"><ele>326</ele><time>2020-10-17T13:10:09Z</time><name>PT4055</name></trkpt>
<trkpt lat="53.193594" lon="-2.013625"><ele>326</ele><time>2020-10-17T13:10:10Z</time><name>PT4056</name></trkpt>
<trkpt lat="53.193597" lon="-2.013628"><ele>325</ele><time>2020-10-17T13:10:13Z</time><name>PT4057</name></trkpt>
<trkpt lat="53.193598" lon="-2.013627"><ele>325</ele><time>2020-10-17T13:10:14Z</time><name>PT4058</name></trkpt>
<trkpt lat="53.193598" lon="-2.013637"><ele>325</ele><time>2020-10-17T13:10:20Z</time><name>PT4059</name></trkpt>
<trkpt lat="53.193595" lon="-2.013632"><ele>325</ele><time>2020-10-17T13:10:21Z</time><name>PT4060</name></trkpt>
<trkpt lat="53.193593" lon="-2.013634"><ele>325</ele><time>2020-10-17T13:10:22Z</time><name>PT4061</name></trkpt>
<trkpt lat="53.193595" lon="-2.013637"><ele>325</ele><time>2020-10-17T13:10:23Z</time><name>PT4062</name></trkpt>
<trkpt lat="53.193600" lon="-2.013643"><ele>325</ele><time>2020-10-17T13:10:24Z</time><name>PT4063</name></trkpt>
<trkpt lat="53.193605" lon="-2.013651"><ele>325</ele><time>2020-10-17T13:10:25Z</time><name>PT4064</name></trkpt>
<trkpt lat="53.193616" lon="-2.013663"><ele>325</ele><time>2020-10-17T13:10:26Z</time><name>PT4065</name></trkpt>
<trkpt lat="53.193628" lon="-2.013677"><ele>325</ele><time>2020-10-17T13:10:27Z</time><name>PT4066</name></trkpt>
<trkpt lat="53.193632" lon="-2.013693"><ele>325</ele><time>2020-10-17T13:10:28Z</time><name>PT4067</name></trkpt>
<trkpt lat="53.193644" lon="-2.013705"><ele>326</ele><time>2020-10-17T13:10:29Z</time><name>PT4068</name></trkpt>
<trkpt lat="53.193651" lon="-2.013717"><ele>326</ele><time>2020-10-17T13:10:30Z</time><name>PT4069</name></trkpt>
<trkpt lat="53.193660" lon="-2.013725"><ele>327</ele><time>2020-10-17T13:10:31Z</time><name>PT4070</name></trkpt>
<trkpt lat="53.193670" lon="-2.013733"><ele>328</ele><time>2020-10-17T13:10:32Z</time><name>PT4071</name></trkpt>
<trkpt lat="53.193679" lon="-2.013741"><ele>328</ele><time>2020-10-17T13:10:33Z</time><name>PT4072</name></trkpt>
<trkpt lat="53.193683" lon="-2.013752"><ele>328</ele><time>2020-10-17T13:10:34Z</time><name>PT4073</name></trkpt>
<trkpt lat="53.193691" lon="-2.013755"><ele>328</ele><time>2020-10-17T13:10:35Z</time><name>PT4074</name></trkpt>
<trkpt lat="53.193699" lon="-2.013764"><ele>329</ele><time>2020-10-17T13:10:36Z</time><name>PT4075</name></trkpt>
<trkpt lat="53.193702" lon="-2.013776"><ele>329</ele><time>2020-10-17T13:10:37Z</time><name>PT4076</name></trkpt>
<trkpt lat="53.193708" lon="-2.013783"><ele>329</ele><time>2020-10-17T13:10:38Z</time><name>PT4077</name></trkpt>
<trkpt lat="53.193713" lon="-2.013793"><ele>329</ele><time>2020-10-17T13:10:39Z</time><name>PT4078</name></trkpt>
<trkpt lat="53.193720" lon="-2.013800"><ele>329</ele><time>2020-10-17T13:10:40Z</time><name>PT4079</name></trkpt>
<trkpt lat="53.193728" lon="-2.013809"><ele>330</ele><time>2020-10-17T13:10:41Z</time><name>PT4080</name></trkpt>
<trkpt lat="53.193733" lon="-2.013819"><ele>330</ele><time>2020-10-17T13:10:42Z</time><name>PT4081</name></trkpt>
<trkpt lat="53.193740" lon="-2.013827"><ele>330</ele><time>2020-10-17T13:10:43Z</time><name>PT4082</name></trkpt>
<trkpt lat="53.193747" lon="-2.013835"><ele>331</ele><time>2020-10-17T13:10:44Z</time><name>PT4083</name></trkpt>
<trkpt lat="53.193754" lon="-2.013843"><ele>330</ele><time>2020-10-17T13:10:45Z</time><name>PT4084</name></trkpt>
<trkpt lat="53.193760" lon="-2.013855"><ele>330</ele><time>2020-10-17T13:10:46Z</time><name>PT4085</name></trkpt>
<trkpt lat="53.193767" lon="-2.013869"><ele>331</ele><time>2020-10-17T13:10:47Z</time><name>PT4086</name></trkpt>
<trkpt lat="53.193774" lon="-2.013875"><ele>331</ele><time>2020-10-17T13:10:48Z</time><name>PT4087</name></trkpt>
<trkpt lat="53.193779" lon="-2.013883"><ele>331</ele><time>2020-10-17T13:10:49Z</time><name>PT4088</name></trkpt>
<trkpt lat="53.193784" lon="-2.013887"><ele>331</ele><time>2020-10-17T13:10:50Z</time><name>PT4089</name></trkpt>
<trkpt lat="53.193790" lon="-2.013898"><ele>331</ele><time>2020-10-17T13:10:51Z</time><name>PT4090</name></trkpt>
<trkpt lat="53.193795" lon="-2.013910"><ele>331</ele><time>2020-10-17T13:10:52Z</time><name>PT4091</name></trkpt>
<trkpt lat="53.193799" lon="-2.013919"><ele>332</ele><time>2020-10-17T13:10:53Z</time><name>PT4092</name></trkpt>
<trkpt lat="53.193805" lon="-2.013932"><ele>332</ele><time>2020-10-17T13:10:54Z</time><name>PT4093</name></trkpt>
<trkpt lat="53.193811" lon="-2.013946"><ele>332</ele><time>2020-10-17T13:10:55Z</time><name>PT4094</name></trkpt>
<trkpt lat="53.193815" lon="-2.013963"><ele>333</ele><time>2020-10-17T13:10:56Z</time><name>PT4095</name></trkpt>
<trkpt lat="53.193835" lon="-2.013997"><ele>332</ele><time>2020-10-17T13:10:59Z</time><name>PT4096</name></trkpt>
<trkpt lat="53.193851" lon="-2.014037"><ele>333</ele><time>2020-10-17T13:11:02Z</time><name>PT4097</name></trkpt>
<trkpt lat="53.193869" lon="-2.014078"><ele>334</ele><time>2020-10-17T13:11:05Z</time><name>PT4098</name></trkpt>
<trkpt lat="53.193887" lon="-2.014134"><ele>333</ele><time>2020-10-17T13:11:09Z</time><name>PT4099</name></trkpt>
<trkpt lat="53.193907" lon="-2.014181"><ele>334</ele><time>2020-10-17T13:11:13Z</time><name>PT4100</name></trkpt>
<trkpt lat="53.193929" lon="-2.014238"><ele>335</ele><time>2020-10-17T13:11:17Z</time><name>PT4101</name></trkpt>
<trkpt lat="53.193942" lon="-2.014286"><ele>335</ele><time>2020-10-17T13:11:20Z</time><name>PT4102</name></trkpt>
<trkpt lat="53.193956" lon="-2.014335"><ele>335</ele><time>2020-10-17T13:11:23Z</time><name>PT4103</name></trkpt>
<trkpt lat="53.193972" lon="-2.014373"><ele>335</ele><time>2020-10-17T13:11:26Z</time><name>PT4104</name></trkpt>
<trkpt lat="53.193991" lon="-2.014419"><ele>335</ele><time>2020-10-17T13:11:30Z</time><name>PT4105</name></trkpt>
<trkpt lat="53.194005" lon="-2.014469"><ele>334</ele><time>2020-10-17T13:11:34Z</time><name>PT4106</name></trkpt>
<trkpt lat="53.194011" lon="-2.014495"><ele>334</ele><time>2020-10-17T13:11:37Z</time><name>PT4107</name></trkpt>
<trkpt lat="53.194019" lon="-2.014532"><ele>334</ele><time>2020-10-17T13:11:41Z</time><name>PT4108</name></trkpt>
<trkpt lat="53.194043" lon="-2.014581"><ele>335</ele><time>2020-10-17T13:11:45Z</time><name>PT4109</name></trkpt>
<trkpt lat="53.194066" lon="-2.014636"><ele>336</ele><time>2020-10-17T13:11:49Z</time><name>PT4110</name></trkpt>
<trkpt lat="53.194083" lon="-2.014708"><ele>336</ele><time>2020-10-17T13:11:53Z</time><name>PT4111</name></trkpt>
<trkpt lat="53.194095" lon="-2.014751"><ele>337</ele><time>2020-10-17T13:11:56Z</time><name>PT4112</name></trkpt>
<trkpt lat="53.194123" lon="-2.014811"><ele>338</ele><time>2020-10-17T13:12:00Z</time><name>PT4113</name></trkpt>
<trkpt lat="53.194150" lon="-2.014868"><ele>340</ele><time>2020-10-17T13:12:04Z</time><name>PT4114</name></trkpt>
<trkpt lat="53.194171" lon="-2.014904"><ele>341</ele><time>2020-10-17T13:12:07Z</time><name>PT4115</name></trkpt>
<trkpt lat="53.194194" lon="-2.014944"><ele>342</ele><time>2020-10-17T13:12:11Z</time><name>PT4116</name></trkpt>
<trkpt lat="53.194210" lon="-2.014973"><ele>342</ele><time>2020-10-17T13:12:14Z</time><name>PT4117</name></trkpt>
<trkpt lat="53.194228" lon="-2.015011"><ele>343</ele><time>2020-10-17T13:12:17Z</time><name>PT4118</name></trkpt>
<trkpt lat="53.194258" lon="-2.015049"><ele>344</ele><time>2020-10-17T13:12:21Z</time><name>PT4119</name></trkpt>
<trkpt lat="53.194290" lon="-2.015096"><ele>344</ele><time>2020-10-17T13:12:25Z</time><name>PT4120</name></trkpt>
<trkpt lat="53.194320" lon="-2.015132"><ele>343</ele><time>2020-10-17T13:12:29Z</time><name>PT4121</name></trkpt>
<trkpt lat="53.194339" lon="-2.015163"><ele>343</ele><time>2020-10-17T13:12:32Z</time><name>PT4122</name></trkpt>
<trkpt lat="53.194362" lon="-2.015206"><ele>343</ele><time>2020-10-17T13:12:36Z</time><name>PT4123</name></trkpt>
<trkpt lat="53.194384" lon="-2.015223"><ele>343</ele><time>2020-10-17T13:12:39Z</time><name>PT4124</name></trkpt>
<trkpt lat="53.194417" lon="-2.015241"><ele>345</ele><time>2020-10-17T13:12:43Z</time><name>PT4125</name></trkpt>
<trkpt lat="53.194443" lon="-2.015263"><ele>345</ele><time>2020-10-17T13:12:47Z</time><name>PT4126</name></trkpt>
<trkpt lat="53.194473" lon="-2.015293"><ele>347</ele><time>2020-10-17T13:12:51Z</time><name>PT4127</name></trkpt>
<trkpt lat="53.194500" lon="-2.015328"><ele>347</ele><time>2020-10-17T13:12:55Z</time><name>PT4128</name></trkpt>
<trkpt lat="53.194515" lon="-2.015347"><ele>347</ele><time>2020-10-17T13:12:58Z</time><name>PT4129</name></trkpt>
<trkpt lat="53.194541" lon="-2.015378"><ele>349</ele><time>2020-10-17T13:13:02Z</time><name>PT4130</name></trkpt>
<trkpt lat="53.194559" lon="-2.015398"><ele>349</ele><time>2020-10-17T13:13:05Z</time><name>PT4131</name></trkpt>
<trkpt lat="53.194576" lon="-2.015418"><ele>348</ele><time>2020-10-17T13:13:08Z</time><name>PT4132</name></trkpt>
<trkpt lat="53.194593" lon="-2.015442"><ele>348</ele><time>2020-10-17T13:13:11Z</time><name>PT4133</name></trkpt>
<trkpt lat="53.194617" lon="-2.015464"><ele>348</ele><time>2020-10-17T13:13:15Z</time><name>PT4134</name></trkpt>
<trkpt lat="53.194644" lon="-2.015499"><ele>349</ele><time>2020-10-17T13:13:19Z</time><name>PT4135</name></trkpt>
<trkpt lat="53.194663" lon="-2.015522"><ele>350</ele><time>2020-10-17T13:13:22Z</time><name>PT4136</name></trkpt>
<trkpt lat="53.194682" lon="-2.015540"><ele>350</ele><time>2020-10-17T13:13:25Z</time><name>PT4137</name></trkpt>
<trkpt lat="53.194707" lon="-2.015564"><ele>350</ele><time>2020-10-17T13:13:29Z</time><name>PT4138</name></trkpt>
<trkpt lat="53.194725" lon="-2.015592"><ele>350</ele><time>2020-10-17T13:13:32Z</time><name>PT4139</name></trkpt>
<trkpt lat="53.194745" lon="-2.015626"><ele>350</ele><time>2020-10-17T13:13:36Z</time><name>PT4140</name></trkpt>
<trkpt lat="53.194764" lon="-2.015662"><ele>350</ele><time>2020-10-17T13:13:40Z</time><name>PT4141</name></trkpt>
<trkpt lat="53.194784" lon="-2.015679"><ele>350</ele><time>2020-10-17T13:13:43Z</time><name>PT4142</name></trkpt>
<trkpt lat="53.194805" lon="-2.015713"><ele>350</ele><time>2020-10-17T13:13:47Z</time><name>PT4143</name></trkpt>
<trkpt lat="53.194826" lon="-2.015734"><ele>352</ele><time>2020-10-17T13:13:50Z</time><name>PT4144</name></trkpt>
<trkpt lat="53.194843" lon="-2.015755"><ele>352</ele><time>2020-10-17T13:13:53Z</time><name>PT4145</name></trkpt>
<trkpt lat="53.194861" lon="-2.015777"><ele>352</ele><time>2020-10-17T13:13:57Z</time><name>PT4146</name></trkpt>
<trkpt lat="53.194880" lon="-2.015809"><ele>352</ele><time>2020-10-17T13:14:01Z</time><name>PT4147</name></trkpt>
<trkpt lat="53.194902" lon="-2.015837"><ele>353</ele><time>2020-10-17T13:14:05Z</time><name>PT4148</name></trkpt>
<trkpt lat="53.194917" lon="-2.015865"><ele>354</ele><time>2020-10-17T13:14:08Z</time><name>PT4149</name></trkpt>
<trkpt lat="53.194948" lon="-2.015892"><ele>355</ele><time>2020-10-17T13:14:12Z</time><name>PT4150</name></trkpt>
<trkpt lat="53.194968" lon="-2.015911"><ele>356</ele><time>2020-10-17T13:14:15Z</time><name>PT4151</name></trkpt>
<trkpt lat="53.194977" lon="-2.015922"><ele>356</ele><time>2020-10-17T13:14:19Z</time><name>PT4152</name></trkpt>
<trkpt lat="53.194983" lon="-2.015928"><ele>356</ele><time>2020-10-17T13:14:22Z</time><name>PT4153</name></trkpt>
<trkpt lat="53.195018" lon="-2.015938"><ele>357</ele><time>2020-10-17T13:14:26Z</time><name>PT4154</name></trkpt>
<trkpt lat="53.195051" lon="-2.015951"><ele>357</ele><time>2020-10-17T13:14:29Z</time><name>PT4155</name></trkpt>
<trkpt lat="53.195087" lon="-2.015956"><ele>358</ele><time>2020-10-17T13:14:32Z</time><name>PT4156</name></trkpt>
<trkpt lat="53.195137" lon="-2.015962"><ele>359</ele><time>2020-10-17T13:14:36Z</time><name>PT4157</name></trkpt>
<trkpt lat="53.195169" lon="-2.015962"><ele>359</ele><time>2020-10-17T13:14:40Z</time><name>PT4158</name></trkpt>
<trkpt lat="53.195205" lon="-2.015956"><ele>359</ele><time>2020-10-17T13:14:44Z</time><name>PT4159</name></trkpt>
<trkpt lat="53.195236" lon="-2.015951"><ele>359</ele><time>2020-10-17T13:14:48Z</time><name>PT4160</name></trkpt>
<trkpt lat="53.195281" lon="-2.015955"><ele>361</ele><time>2020-10-17T13:14:52Z</time><name>PT4161</name></trkpt>
<trkpt lat="53.195323" lon="-2.015960"><ele>362</ele><time>2020-10-17T13:14:56Z</time><name>PT4162</name></trkpt>
<trkpt lat="53.195349" lon="-2.015965"><ele>362</ele><time>2020-10-17T13:14:59Z</time><name>PT4163</name></trkpt>
<trkpt lat="53.195380" lon="-2.015969"><ele>363</ele><time>2020-10-17T13:15:02Z</time><name>PT4164</name></trkpt>
<trkpt lat="53.195410" lon="-2.015974"><ele>363</ele><time>2020-10-17T13:15:05Z</time><name>PT4165</name></trkpt>
<trkpt lat="53.195453" lon="-2.015988"><ele>364</ele><time>2020-10-17T13:15:09Z</time><name>PT4166</name></trkpt>
<trkpt lat="53.195486" lon="-2.016000"><ele>364</ele><time>2020-10-17T13:15:12Z</time><name>PT4167</name></trkpt>
<trkpt lat="53.195537" lon="-2.016006"><ele>366</ele><time>2020-10-17T13:15:16Z</time><name>PT4168</name></trkpt>
<trkpt lat="53.195561" lon="-2.016020"><ele>366</ele><time>2020-10-17T13:15:19Z</time><name>PT4169</name></trkpt>
<trkpt lat="53.195579" lon="-2.016031"><ele>366</ele><time>2020-10-17T13:15:22Z</time><name>PT4170</name></trkpt>
<trkpt lat="53.195619" lon="-2.016057"><ele>365</ele><time>2020-10-17T13:15:26Z</time><name>PT4171</name></trkpt>
<trkpt lat="53.195654" lon="-2.016070"><ele>365</ele><time>2020-10-17T13:15:29Z</time><name>PT4172</name></trkpt>
<trkpt lat="53.195695" lon="-2.016095"><ele>366</ele><time>2020-10-17T13:15:33Z</time><name>PT4173</name></trkpt>
<trkpt lat="53.195729" lon="-2.016119"><ele>366</ele><time>2020-10-17T13:15:36Z</time><name>PT4174</name></trkpt>
<trkpt lat="53.195765" lon="-2.016142"><ele>367</ele><time>2020-10-17T13:15:39Z</time><name>PT4175</name></trkpt>
<trkpt lat="53.195795" lon="-2.016165"><ele>367</ele><time>2020-10-17T13:15:42Z</time><name>PT4176</name></trkpt>
<trkpt lat="53.195839" lon="-2.016191"><ele>368</ele><time>2020-10-17T13:15:46Z</time><name>PT4177</name></trkpt>
<trkpt lat="53.195871" lon="-2.016213"><ele>368</ele><time>2020-10-17T13:15:49Z</time><name>PT4178</name></trkpt>
<trkpt lat="53.195916" lon="-2.016245"><ele>368</ele><time>2020-10-17T13:15:53Z</time><name>PT4179</name></trkpt>
<trkpt lat="53.195950" lon="-2.016286"><ele>368</ele><time>2020-10-17T13:15:57Z</time><name>PT4180</name></trkpt>
<trkpt lat="53.195984" lon="-2.016315"><ele>368</ele><time>2020-10-17T13:16:00Z</time><name>PT4181</name></trkpt>
<trkpt lat="53.196018" lon="-2.016355"><ele>368</ele><time>2020-10-17T13:16:04Z</time><name>PT4182</name></trkpt>
<trkpt lat="53.196046" lon="-2.016382"><ele>368</ele><time>2020-10-17T13:16:07Z</time><name>PT4183</name></trkpt>
<trkpt lat="53.196084" lon="-2.016426"><ele>368</ele><time>2020-10-17T13:16:11Z</time><name>PT4184</name></trkpt>
<trkpt lat="53.196120" lon="-2.016470"><ele>368</ele><time>2020-10-17T13:16:15Z</time><name>PT4185</name></trkpt>
<trkpt lat="53.196156" lon="-2.016515"><ele>368</ele><time>2020-10-17T13:16:19Z</time><name>PT4186</name></trkpt>
<trkpt lat="53.196185" lon="-2.016551"><ele>368</ele><time>2020-10-17T13:16:22Z</time><name>PT4187</name></trkpt>
<trkpt lat="53.196223" lon="-2.016589"><ele>368</ele><time>2020-10-17T13:16:26Z</time><name>PT4188</name></trkpt>
<trkpt lat="53.196255" lon="-2.016617"><ele>367</ele><time>2020-10-17T13:16:29Z</time><name>PT4189</name></trkpt>
<trkpt lat="53.196292" lon="-2.016647"><ele>367</ele><time>2020-10-17T13:16:33Z</time><name>PT4190</name></trkpt>
<trkpt lat="53.196321" lon="-2.016668"><ele>367</ele><time>2020-10-17T13:16:36Z</time><name>PT4191</name></trkpt>
<trkpt lat="53.196370" lon="-2.016695"><ele>369</ele><time>2020-10-17T13:16:40Z</time><name>PT4192</name></trkpt>
<trkpt lat="53.196412" lon="-2.016711"><ele>369</ele><time>2020-10-17T13:16:44Z</time><name>PT4193</name></trkpt>
<trkpt lat="53.196453" lon="-2.016726"><ele>370</ele><time>2020-10-17T13:16:48Z</time><name>PT4194</name></trkpt>
<trkpt lat="53.196494" lon="-2.016745"><ele>370</ele><time>2020-10-17T13:16:52Z</time><name>PT4195</name></trkpt>
<trkpt lat="53.196525" lon="-2.016759"><ele>371</ele><time>2020-10-17T13:16:55Z</time><name>PT4196</name></trkpt>
<trkpt lat="53.196552" lon="-2.016780"><ele>371</ele><time>2020-10-17T13:16:58Z</time><name>PT4197</name></trkpt>
<trkpt lat="53.196588" lon="-2.016808"><ele>371</ele><time>2020-10-17T13:17:02Z</time><name>PT4198</name></trkpt>
<trkpt lat="53.196623" lon="-2.016839"><ele>371</ele><time>2020-10-17T13:17:06Z</time><name>PT4199</name></trkpt>
<trkpt lat="53.196665" lon="-2.016873"><ele>372</ele><time>2020-10-17T13:17:10Z</time><name>PT4200</name></trkpt>
<trkpt lat="53.196705" lon="-2.016901"><ele>372</ele><time>2020-10-17T13:17:14Z</time><name>PT4201</name></trkpt>
<trkpt lat="53.196748" lon="-2.016934"><ele>372</ele><time>2020-10-17T13:17:18Z</time><name>PT4202</name></trkpt>
<trkpt lat="53.196773" lon="-2.016953"><ele>372</ele><time>2020-10-17T13:17:21Z</time><name>PT4203</name></trkpt>
<trkpt lat="53.196801" lon="-2.016982"><ele>372</ele><time>2020-10-17T13:17:24Z</time><name>PT4204</name></trkpt>
<trkpt lat="53.196833" lon="-2.017010"><ele>372</ele><time>2020-10-17T13:17:27Z</time><name>PT4205</name></trkpt>
<trkpt lat="53.196864" lon="-2.017041"><ele>372</ele><time>2020-10-17T13:17:30Z</time><name>PT4206</name></trkpt>
<trkpt lat="53.196893" lon="-2.017074"><ele>372</ele><time>2020-10-17T13:17:33Z</time><name>PT4207</name></trkpt>
<trkpt lat="53.196929" lon="-2.017121"><ele>372</ele><time>2020-10-17T13:17:37Z</time><name>PT4208</name></trkpt>
<trkpt lat="53.196960" lon="-2.017152"><ele>372</ele><time>2020-10-17T13:17:40Z</time><name>PT4209</name></trkpt>
<trkpt lat="53.196986" lon="-2.017190"><ele>371</ele><time>2020-10-17T13:17:43Z</time><name>PT4210</name></trkpt>
<trkpt lat="53.197012" lon="-2.017230"><ele>370</ele><time>2020-10-17T13:17:46Z</time><name>PT4211</name></trkpt>
<trkpt lat="53.197040" lon="-2.017266"><ele>370</ele><time>2020-10-17T13:17:49Z</time><name>PT4212</name></trkpt>
<trkpt lat="53.197068" lon="-2.017296"><ele>369</ele><time>2020-10-17T13:17:52Z</time><name>PT4213</name></trkpt>
<trkpt lat="53.197096" lon="-2.017323"><ele>369</ele><time>2020-10-17T13:17:55Z</time><name>PT4214</name></trkpt>
<trkpt lat="53.197134" lon="-2.017360"><ele>370</ele><time>2020-10-17T13:17:59Z</time><name>PT4215</name></trkpt>
<trkpt lat="53.197174" lon="-2.017391"><ele>370</ele><time>2020-10-17T13:18:03Z</time><name>PT4216</name></trkpt>
<trkpt lat="53.197207" lon="-2.017402"><ele>370</ele><time>2020-10-17T13:18:06Z</time><name>PT4217</name></trkpt>
<trkpt lat="53.197241" lon="-2.017428"><ele>371</ele><time>2020-10-17T13:18:10Z</time><name>PT4218</name></trkpt>
<trkpt lat="53.197267" lon="-2.017449"><ele>372</ele><time>2020-10-17T13:18:14Z</time><name>PT4219</name></trkpt>
<trkpt lat="53.197302" lon="-2.017480"><ele>372</ele><time>2020-10-17T13:18:18Z</time><name>PT4220</name></trkpt>
<trkpt lat="53.197329" lon="-2.017502"><ele>373</ele><time>2020-10-17T13:18:21Z</time><name>PT4221</name></trkpt>
<trkpt lat="53.197351" lon="-2.017525"><ele>374</ele><time>2020-10-17T13:18:24Z</time><name>PT4222</name></trkpt>
<trkpt lat="53.197382" lon="-2.017545"><ele>374</ele><time>2020-10-17T13:18:28Z</time><name>PT4223</name></trkpt>
<trkpt lat="53.197409" lon="-2.017566"><ele>375</ele><time>2020-10-17T13:18:31Z</time><name>PT4224</name></trkpt>
<trkpt lat="53.197435" lon="-2.017583"><ele>375</ele><time>2020-10-17T13:18:34Z</time><name>PT4225</name></trkpt>
<trkpt lat="53.197462" lon="-2.017599"><ele>375</ele><time>2020-10-17T13:18:37Z</time><name>PT4226</name></trkpt>
<trkpt lat="53.197491" lon="-2.017620"><ele>375</ele><time>2020-10-17T13:18:40Z</time><name>PT4227</name></trkpt>
<trkpt lat="53.197502" lon="-2.017660"><ele>373</ele><time>2020-10-17T13:18:44Z</time><name>PT4228</name></trkpt>
<trkpt lat="53.197514" lon="-2.017683"><ele>373</ele><time>2020-10-17T13:18:47Z</time><name>PT4229</name></trkpt>
<trkpt lat="53.197537" lon="-2.017714"><ele>373</ele><time>2020-10-17T13:18:51Z</time><name>PT4230</name></trkpt>
<trkpt lat="53.197563" lon="-2.017734"><ele>374</ele><time>2020-10-17T13:18:54Z</time><name>PT4231</name></trkpt>
<trkpt lat="53.197590" lon="-2.017757"><ele>374</ele><time>2020-10-17T13:18:58Z</time><name>PT4232</name></trkpt>
<trkpt lat="53.197615" lon="-2.017789"><ele>375</ele><time>2020-10-17T13:19:02Z</time><name>PT4233</name></trkpt>
<trkpt lat="53.197632" lon="-2.017811"><ele>375</ele><time>2020-10-17T13:19:06Z</time><name>PT4234</name></trkpt>
<trkpt lat="53.197654" lon="-2.017833"><ele>375</ele><time>2020-10-17T13:19:09Z</time><name>PT4235</name></trkpt>
<trkpt lat="53.197674" lon="-2.017857"><ele>375</ele><time>2020-10-17T13:19:12Z</time><name>PT4236</name></trkpt>
<trkpt lat="53.197704" lon="-2.017887"><ele>376</ele><time>2020-10-17T13:19:16Z</time><name>PT4237</name></trkpt>
<trkpt lat="53.197725" lon="-2.017911"><ele>376</ele><time>2020-10-17T13:19:19Z</time><name>PT4238</name></trkpt>
<trkpt lat="53.197734" lon="-2.017930"><ele>375</ele><time>2020-10-17T13:19:22Z</time><name>PT4239</name></trkpt>
<trkpt lat="53.197761" lon="-2.017950"><ele>375</ele><time>2020-10-17T13:19:25Z</time><name>PT4240</name></trkpt>
<trkpt lat="53.197781" lon="-2.017971"><ele>375</ele><time>2020-10-17T13:19:28Z</time><name>PT4241</name></trkpt>
<trkpt lat="53.197807" lon="-2.017983"><ele>376</ele><time>2020-10-17T13:19:31Z</time><name>PT4242</name></trkpt>
<trkpt lat="53.197828" lon="-2.017997"><ele>376</ele><time>2020-10-17T13:19:34Z</time><name>PT4243</name></trkpt>
<trkpt lat="53.197833" lon="-2.018000"><ele>376</ele><time>2020-10-17T13:19:37Z</time><name>PT4244</name></trkpt>
<trkpt lat="53.197863" lon="-2.018016"><ele>377</ele><time>2020-10-17T13:19:40Z</time><name>PT4245</name></trkpt>
<trkpt lat="53.197879" lon="-2.018023"><ele>376</ele><time>2020-10-17T13:19:43Z</time><name>PT4246</name></trkpt>
<trkpt lat="53.197920" lon="-2.018035"><ele>378</ele><time>2020-10-17T13:19:46Z</time><name>PT4247</name></trkpt>
<trkpt lat="53.197955" lon="-2.018060"><ele>379</ele><time>2020-10-17T13:19:50Z</time><name>PT4248</name></trkpt>
<trkpt lat="53.197974" lon="-2.018073"><ele>379</ele><time>2020-10-17T13:19:53Z</time><name>PT4249</name></trkpt>
<trkpt lat="53.198003" lon="-2.018098"><ele>379</ele><time>2020-10-17T13:19:56Z</time><name>PT4250</name></trkpt>
<trkpt lat="53.198037" lon="-2.018132"><ele>380</ele><time>2020-10-17T13:20:00Z</time><name>PT4251</name></trkpt>
<trkpt lat="53.198080" lon="-2.018166"><ele>380</ele><time>2020-10-17T13:20:04Z</time><name>PT4252</name></trkpt>
<trkpt lat="53.198101" lon="-2.018195"><ele>380</ele><time>2020-10-17T13:20:07Z</time><name>PT4253</name></trkpt>
<trkpt lat="53.198127" lon="-2.018237"><ele>381</ele><time>2020-10-17T13:20:11Z</time><name>PT4254</name></trkpt>
<trkpt lat="53.198151" lon="-2.018279"><ele>382</ele><time>2020-10-17T13:20:14Z</time><name>PT4255</name></trkpt>
<trkpt lat="53.198174" lon="-2.018328"><ele>384</ele><time>2020-10-17T13:20:18Z</time><name>PT4256</name></trkpt>
<trkpt lat="53.198198" lon="-2.018385"><ele>384</ele><time>2020-10-17T13:20:22Z</time><name>PT4257</name></trkpt>
<trkpt lat="53.198239" lon="-2.018425"><ele>386</ele><time>2020-10-17T13:20:26Z</time><name>PT4258</name></trkpt>
<trkpt lat="53.198269" lon="-2.018451"><ele>386</ele><time>2020-10-17T13:20:29Z</time><name>PT4259</name></trkpt>
<trkpt lat="53.198295" lon="-2.018485"><ele>386</ele><time>2020-10-17T13:20:32Z</time><name>PT4260</name></trkpt>
<trkpt lat="53.198315" lon="-2.018514"><ele>386</ele><time>2020-10-17T13:20:35Z</time><name>PT4261</name></trkpt>
<trkpt lat="53.198312" lon="-2.018517"><ele>385</ele><time>2020-10-17T13:20:39Z</time><name>PT4262</name></trkpt>
<trkpt lat="53.198313" lon="-2.018518"><ele>385</ele><time>2020-10-17T13:20:42Z</time><name>PT4263</name></trkpt>
<trkpt lat="53.198344" lon="-2.018565"><ele>386</ele><time>2020-10-17T13:20:46Z</time><name>PT4264</name></trkpt>
<trkpt lat="53.198376" lon="-2.018598"><ele>386</ele><time>2020-10-17T13:20:49Z</time><name>PT4265</name></trkpt>
<trkpt lat="53.198407" lon="-2.018639"><ele>385</ele><time>2020-10-17T13:20:52Z</time><name>PT4266</name></trkpt>
<trkpt lat="53.198442" lon="-2.018670"><ele>386</ele><time>2020-10-17T13:20:55Z</time><name>PT4267</name></trkpt>
<trkpt lat="53.198467" lon="-2.018706"><ele>386</ele><time>2020-10-17T13:20:58Z</time><name>PT4268</name></trkpt>
<trkpt lat="53.198500" lon="-2.018755"><ele>387</ele><time>2020-10-17T13:21:02Z</time><name>PT4269</name></trkpt>
<trkpt lat="53.198528" lon="-2.018792"><ele>387</ele><time>2020-10-17T13:21:05Z</time><name>PT4270</name></trkpt>
<trkpt lat="53.198554" lon="-2.018852"><ele>387</ele><time>2020-10-17T13:21:09Z</time><name>PT4271</name></trkpt>
<trkpt lat="53.198587" lon="-2.018903"><ele>388</ele><time>2020-10-17T13:21:13Z</time><name>PT4272</name></trkpt>
<trkpt lat="53.198621" lon="-2.018961"><ele>388</ele><time>2020-10-17T13:21:17Z</time><name>PT4273</name></trkpt>
<trkpt lat="53.198652" lon="-2.018988"><ele>388</ele><time>2020-10-17T13:21:20Z</time><name>PT4274</name></trkpt>
<trkpt lat="53.198683" lon="-2.019012"><ele>388</ele><time>2020-10-17T13:21:23Z</time><name>PT4275</name></trkpt>
<trkpt lat="53.198724" lon="-2.019040"><ele>388</ele><time>2020-10-17T13:21:27Z</time><name>PT4276</name></trkpt>
<trkpt lat="53.198768" lon="-2.019074"><ele>388</ele><time>2020-10-17T13:21:31Z</time><name>PT4277</name></trkpt>
<trkpt lat="53.198816" lon="-2.019106"><ele>388</ele><time>2020-10-17T13:21:35Z</time><name>PT4278</name></trkpt>
<trkpt lat="53.198857" lon="-2.019140"><ele>388</ele><time>2020-10-17T13:21:39Z</time><name>PT4279</name></trkpt>
<trkpt lat="53.198891" lon="-2.019168"><ele>388</ele><time>2020-10-17T13:21:42Z</time><name>PT4280</name></trkpt>
<trkpt lat="53.198938" lon="-2.019204"><ele>388</ele><time>2020-10-17T13:21:46Z</time><name>PT4281</name></trkpt>
<trkpt lat="53.198985" lon="-2.019232"><ele>389</ele><time>2020-10-17T13:21:50Z</time><name>PT4282</name></trkpt>
<trkpt lat="53.199029" lon="-2.019270"><ele>389</ele><time>2020-10-17T13:21:54Z</time><name>PT4283</name></trkpt>
<trkpt lat="53.199068" lon="-2.019295"><ele>389</ele><time>2020-10-17T13:21:57Z</time><name>PT4284</name></trkpt>
<trkpt lat="53.199118" lon="-2.019327"><ele>390</ele><time>2020-10-17T13:22:01Z</time><name>PT4285</name></trkpt>
<trkpt lat="53.199166" lon="-2.019365"><ele>391</ele><time>2020-10-17T13:22:05Z</time><name>PT4286</name></trkpt>
<trkpt lat="53.199199" lon="-2.019384"><ele>392</ele><time>2020-10-17T13:22:08Z</time><name>PT4287</name></trkpt>
<trkpt lat="53.199240" lon="-2.019422"><ele>392</ele><time>2020-10-17T13:22:12Z</time><name>PT4288</name></trkpt>
<trkpt lat="53.199273" lon="-2.019457"><ele>392</ele><time>2020-10-17T13:22:15Z</time><name>PT4289</name></trkpt>
<trkpt lat="53.199306" lon="-2.019487"><ele>392</ele><time>2020-10-17T13:22:18Z</time><name>PT4290</name></trkpt>
<trkpt lat="53.199349" lon="-2.019531"><ele>392</ele><time>2020-10-17T13:22:22Z</time><name>PT4291</name></trkpt>
<trkpt lat="53.199382" lon="-2.019555"><ele>392</ele><time>2020-10-17T13:22:25Z</time><name>PT4292</name></trkpt>
<trkpt lat="53.199414" lon="-2.019584"><ele>392</ele><time>2020-10-17T13:22:28Z</time><name>PT4293</name></trkpt>
<trkpt lat="53.199448" lon="-2.019632"><ele>392</ele><time>2020-10-17T13:22:32Z</time><name>PT4294</name></trkpt>
<trkpt lat="53.199493" lon="-2.019659"><ele>393</ele><time>2020-10-17T13:22:36Z</time><name>PT4295</name></trkpt>
<trkpt lat="53.199535" lon="-2.019689"><ele>393</ele><time>2020-10-17T13:22:40Z</time><name>PT4296</name></trkpt>
<trkpt lat="53.199564" lon="-2.019708"><ele>394</ele><time>2020-10-17T13:22:43Z</time><name>PT4297</name></trkpt>
<trkpt lat="53.199601" lon="-2.019736"><ele>394</ele><time>2020-10-17T13:22:47Z</time><name>PT4298</name></trkpt>
<trkpt lat="53.199644" lon="-2.019769"><ele>394</ele><time>2020-10-17T13:22:51Z</time><name>PT4299</name></trkpt>
<trkpt lat="53.199684" lon="-2.019781"><ele>394</ele><time>2020-10-17T13:22:55Z</time><name>PT4300</name></trkpt>
<trkpt lat="53.199711" lon="-2.019791"><ele>394</ele><time>2020-10-17T13:22:58Z</time><name>PT4301</name></trkpt>
<trkpt lat="53.199741" lon="-2.019812"><ele>394</ele><time>2020-10-17T13:23:01Z</time><name>PT4302</name></trkpt>
<trkpt lat="53.199768" lon="-2.019836"><ele>394</ele><time>2020-10-17T13:23:04Z</time><name>PT4303</name></trkpt>
<trkpt lat="53.199810" lon="-2.019864"><ele>395</ele><time>2020-10-17T13:23:08Z</time><name>PT4304</name></trkpt>
<trkpt lat="53.199850" lon="-2.019901"><ele>395</ele><time>2020-10-17T13:23:12Z</time><name>PT4305</name></trkpt>
<trkpt lat="53.199881" lon="-2.019928"><ele>396</ele><time>2020-10-17T13:23:15Z</time><name>PT4306</name></trkpt>
<trkpt lat="53.199917" lon="-2.019963"><ele>395</ele><time>2020-10-17T13:23:19Z</time><name>PT4307</name></trkpt>
<trkpt lat="53.199954" lon="-2.020010"><ele>396</ele><time>2020-10-17T13:23:23Z</time><name>PT4308</name></trkpt>
<trkpt lat="53.199979" lon="-2.020068"><ele>395</ele><time>2020-10-17T13:23:27Z</time><name>PT4309</name></trkpt>
<trkpt lat="53.199990" lon="-2.020107"><ele>395</ele><time>2020-10-17T13:23:30Z</time><name>PT4310</name></trkpt>
<trkpt lat="53.200002" lon="-2.020134"><ele>396</ele><time>2020-10-17T13:23:33Z</time><name>PT4311</name></trkpt>
<trkpt lat="53.200024" lon="-2.020157"><ele>396</ele><time>2020-10-17T13:23:36Z</time><name>PT4312</name></trkpt>
<trkpt lat="53.200069" lon="-2.020187"><ele>396</ele><time>2020-10-17T13:23:40Z</time><name>PT4313</name></trkpt>
<trkpt lat="53.200108" lon="-2.020236"><ele>395</ele><time>2020-10-17T13:23:44Z</time><name>PT4314</name></trkpt>
<trkpt lat="53.200136" lon="-2.020264"><ele>395</ele><time>2020-10-17T13:23:47Z</time><name>PT4315</name></trkpt>
<trkpt lat="53.200173" lon="-2.020296"><ele>396</ele><time>2020-10-17T13:23:51Z</time><name>PT4316</name></trkpt>
<trkpt lat="53.200206" lon="-2.020327"><ele>396</ele><time>2020-10-17T13:23:54Z</time><name>PT4317</name></trkpt>
<trkpt lat="53.200234" lon="-2.020363"><ele>396</ele><time>2020-10-17T13:23:57Z</time><name>PT4318</name></trkpt>
<trkpt lat="53.200266" lon="-2.020388"><ele>397</ele><time>2020-10-17T13:24:00Z</time><name>PT4319</name></trkpt>
<trkpt lat="53.200302" lon="-2.020423"><ele>396</ele><time>2020-10-17T13:24:04Z</time><name>PT4320</name></trkpt>
<trkpt lat="53.200324" lon="-2.020466"><ele>397</ele><time>2020-10-17T13:24:07Z</time><name>PT4321</name></trkpt>
<trkpt lat="53.200362" lon="-2.020498"><ele>397</ele><time>2020-10-17T13:24:11Z</time><name>PT4322</name></trkpt>
<trkpt lat="53.200403" lon="-2.020543"><ele>397</ele><time>2020-10-17T13:24:15Z</time><name>PT4323</name></trkpt>
<trkpt lat="53.200432" lon="-2.020572"><ele>397</ele><time>2020-10-17T13:24:18Z</time><name>PT4324</name></trkpt>
<trkpt lat="53.200469" lon="-2.020616"><ele>397</ele><time>2020-10-17T13:24:22Z</time><name>PT4325</name></trkpt>
<trkpt lat="53.200498" lon="-2.020648"><ele>397</ele><time>2020-10-17T13:24:25Z</time><name>PT4326</name></trkpt>
<trkpt lat="53.200520" lon="-2.020685"><ele>397</ele><time>2020-10-17T13:24:28Z</time><name>PT4327</name></trkpt>
<trkpt lat="53.200546" lon="-2.020719"><ele>397</ele><time>2020-10-17T13:24:31Z</time><name>PT4328</name></trkpt>
<trkpt lat="53.200575" lon="-2.020749"><ele>397</ele><time>2020-10-17T13:24:34Z</time><name>PT4329</name></trkpt>
<trkpt lat="53.200602" lon="-2.020781"><ele>397</ele><time>2020-10-17T13:24:37Z</time><name>PT4330</name></trkpt>
<trkpt lat="53.200646" lon="-2.020828"><ele>398</ele><time>2020-10-17T13:24:41Z</time><name>PT4331</name></trkpt>
<trkpt lat="53.200672" lon="-2.020861"><ele>396</ele><time>2020-10-17T13:24:44Z</time><name>PT4332</name></trkpt>
<trkpt lat="53.200699" lon="-2.020902"><ele>396</ele><time>2020-10-17T13:24:47Z</time><name>PT4333</name></trkpt>
<trkpt lat="53.200737" lon="-2.020941"><ele>397</ele><time>2020-10-17T13:24:51Z</time><name>PT4334</name></trkpt>
<trkpt lat="53.200780" lon="-2.020984"><ele>397</ele><time>2020-10-17T13:24:55Z</time><name>PT4335</name></trkpt>
<trkpt lat="53.200813" lon="-2.021005"><ele>397</ele><time>2020-10-17T13:24:59Z</time><name>PT4336</name></trkpt>
<trkpt lat="53.200839" lon="-2.021036"><ele>397</ele><time>2020-10-17T13:25:02Z</time><name>PT4337</name></trkpt>
<trkpt lat="53.200876" lon="-2.021081"><ele>398</ele><time>2020-10-17T13:25:06Z</time><name>PT4338</name></trkpt>
<trkpt lat="53.200918" lon="-2.021126"><ele>399</ele><time>2020-10-17T13:25:10Z</time><name>PT4339</name></trkpt>
<trkpt lat="53.200950" lon="-2.021175"><ele>399</ele><time>2020-10-17T13:25:14Z</time><name>PT4340</name></trkpt>
<trkpt lat="53.200978" lon="-2.021209"><ele>399</ele><time>2020-10-17T13:25:17Z</time><name>PT4341</name></trkpt>
<trkpt lat="53.201008" lon="-2.021241"><ele>400</ele><time>2020-10-17T13:25:20Z</time><name>PT4342</name></trkpt>
<trkpt lat="53.201043" lon="-2.021284"><ele>400</ele><time>2020-10-17T13:25:24Z</time><name>PT4343</name></trkpt>
<trkpt lat="53.201078" lon="-2.021335"><ele>400</ele><time>2020-10-17T13:25:28Z</time><name>PT4344</name></trkpt>
<trkpt lat="53.201114" lon="-2.021376"><ele>401</ele><time>2020-10-17T13:25:32Z</time><name>PT4345</name></trkpt>
<trkpt lat="53.201143" lon="-2.021411"><ele>401</ele><time>2020-10-17T13:25:35Z</time><name>PT4346</name></trkpt>
<trkpt lat="53.201179" lon="-2.021456"><ele>402</ele><time>2020-10-17T13:25:39Z</time><name>PT4347</name></trkpt>
<trkpt lat="53.201209" lon="-2.021483"><ele>403</ele><time>2020-10-17T13:25:42Z</time><name>PT4348</name></trkpt>
<trkpt lat="53.201246" lon="-2.021529"><ele>404</ele><time>2020-10-17T13:25:46Z</time><name>PT4349</name></trkpt>
<trkpt lat="53.201284" lon="-2.021570"><ele>405</ele><time>2020-10-17T13:25:50Z</time><name>PT4350</name></trkpt>
<trkpt lat="53.201306" lon="-2.021608"><ele>406</ele><time>2020-10-17T13:25:53Z</time><name>PT4351</name></trkpt>
<trkpt lat="53.201337" lon="-2.021673"><ele>404</ele><time>2020-10-17T13:25:57Z</time><name>PT4352</name></trkpt>
<trkpt lat="53.201356" lon="-2.021709"><ele>404</ele><time>2020-10-17T13:26:00Z</time><name>PT4353</name></trkpt>
<trkpt lat="53.201390" lon="-2.021766"><ele>403</ele><time>2020-10-17T13:26:04Z</time><name>PT4354</name></trkpt>
<trkpt lat="53.201419" lon="-2.021829"><ele>402</ele><time>2020-10-17T13:26:08Z</time><name>PT4355</name></trkpt>
<trkpt lat="53.201437" lon="-2.021870"><ele>401</ele><time>2020-10-17T13:26:11Z</time><name>PT4356</name></trkpt>
<trkpt lat="53.201452" lon="-2.021910"><ele>401</ele><time>2020-10-17T13:26:14Z</time><name>PT4357</name></trkpt>
<trkpt lat="53.201476" lon="-2.021958"><ele>401</ele><time>2020-10-17T13:26:18Z</time><name>PT4358</name></trkpt>
<trkpt lat="53.201498" lon="-2.022000"><ele>401</ele><time>2020-10-17T13:26:21Z</time><name>PT4359</name></trkpt>
<trkpt lat="53.201532" lon="-2.022061"><ele>401</ele><time>2020-10-17T13:26:25Z</time><name>PT4360</name></trkpt>
<trkpt lat="53.201560" lon="-2.022116"><ele>402</ele><time>2020-10-17T13:26:29Z</time><name>PT4361</name></trkpt>
<trkpt lat="53.201591" lon="-2.022173"><ele>402</ele><time>2020-10-17T13:26:33Z</time><name>PT4362</name></trkpt>
<trkpt lat="53.201626" lon="-2.022231"><ele>403</ele><time>2020-10-17T13:26:37Z</time><name>PT4363</name></trkpt>
<trkpt lat="53.201647" lon="-2.022269"><ele>403</ele><time>2020-10-17T13:26:40Z</time><name>PT4364</name></trkpt>
<trkpt lat="53.201675" lon="-2.022325"><ele>403</ele><time>2020-10-17T13:26:44Z</time><name>PT4365</name></trkpt>
<trkpt lat="53.201698" lon="-2.022372"><ele>403</ele><time>2020-10-17T13:26:47Z</time><name>PT4366</name></trkpt>
<trkpt lat="53.201729" lon="-2.022434"><ele>403</ele><time>2020-10-17T13:26:51Z</time><name>PT4367</name></trkpt>
<trkpt lat="53.201759" lon="-2.022498"><ele>404</ele><time>2020-10-17T13:26:55Z</time><name>PT4368</name></trkpt>
<trkpt lat="53.201790" lon="-2.022554"><ele>404</ele><time>2020-10-17T13:26:59Z</time><name>PT4369</name></trkpt>
<trkpt lat="53.201821" lon="-2.022611"><ele>405</ele><time>2020-10-17T13:27:03Z</time><name>PT4370</name></trkpt>
<trkpt lat="53.201849" lon="-2.022674"><ele>404</ele><time>2020-10-17T13:27:07Z</time><name>PT4371</name></trkpt>
<trkpt lat="53.201875" lon="-2.022719"><ele>403</ele><time>2020-10-17T13:27:10Z</time><name>PT4372</name></trkpt>
<trkpt lat="53.201898" lon="-2.022758"><ele>403</ele><time>2020-10-17T13:27:13Z</time><name>PT4373</name></trkpt>
<trkpt lat="53.201924" lon="-2.022800"><ele>403</ele><time>2020-10-17T13:27:16Z</time><name>PT4374</name></trkpt>
<trkpt lat="53.201963" lon="-2.022847"><ele>403</ele><time>2020-10-17T13:27:20Z</time><name>PT4375</name></trkpt>
<trkpt lat="53.201997" lon="-2.022890"><ele>403</ele><time>2020-10-17T13:27:24Z</time><name>PT4376</name></trkpt>
<trkpt lat="53.202031" lon="-2.022927"><ele>404</ele><time>2020-10-17T13:27:28Z</time><name>PT4377</name></trkpt>
<trkpt lat="53.202075" lon="-2.022970"><ele>404</ele><time>2020-10-17T13:27:32Z</time><name>PT4378</name></trkpt>
<trkpt lat="53.202118" lon="-2.023006"><ele>405</ele><time>2020-10-17T13:27:36Z</time><name>PT4379</name></trkpt>
<trkpt lat="53.202149" lon="-2.023038"><ele>405</ele><time>2020-10-17T13:27:39Z</time><name>PT4380</name></trkpt>
<trkpt lat="53.202186" lon="-2.023065"><ele>405</ele><time>2020-10-17T13:27:43Z</time><name>PT4381</name></trkpt>
<trkpt lat="53.202222" lon="-2.023104"><ele>404</ele><time>2020-10-17T13:27:47Z</time><name>PT4382</name></trkpt>
<trkpt lat="53.202251" lon="-2.023131"><ele>404</ele><time>2020-10-17T13:27:50Z</time><name>PT4383</name></trkpt>
<trkpt lat="53.202289" lon="-2.023168"><ele>403</ele><time>2020-10-17T13:27:54Z</time><name>PT4384</name></trkpt>
<trkpt lat="53.202325" lon="-2.023209"><ele>403</ele><time>2020-10-17T13:27:58Z</time><name>PT4385</name></trkpt>
<trkpt lat="53.202363" lon="-2.023259"><ele>403</ele><time>2020-10-17T13:28:02Z</time><name>PT4386</name></trkpt>
<trkpt lat="53.202397" lon="-2.023298"><ele>403</ele><time>2020-10-17T13:28:06Z</time><name>PT4387</name></trkpt>
<trkpt lat="53.202434" lon="-2.023341"><ele>403</ele><time>2020-10-17T13:28:10Z</time><name>PT4388</name></trkpt>
<trkpt lat="53.202462" lon="-2.023371"><ele>403</ele><time>2020-10-17T13:28:13Z</time><name>PT4389</name></trkpt>
<trkpt lat="53.202501" lon="-2.023415"><ele>403</ele><time>2020-10-17T13:28:17Z</time><name>PT4390</name></trkpt>
<trkpt lat="53.202538" lon="-2.023457"><ele>404</ele><time>2020-10-17T13:28:21Z</time><name>PT4391</name></trkpt>
<trkpt lat="53.202573" lon="-2.023500"><ele>403</ele><time>2020-10-17T13:28:25Z</time><name>PT4392</name></trkpt>
<trkpt lat="53.202602" lon="-2.023528"><ele>403</ele><time>2020-10-17T13:28:28Z</time><name>PT4393</name></trkpt>
<trkpt lat="53.202641" lon="-2.023572"><ele>403</ele><time>2020-10-17T13:28:32Z</time><name>PT4394</name></trkpt>
<trkpt lat="53.202684" lon="-2.023617"><ele>403</ele><time>2020-10-17T13:28:36Z</time><name>PT4395</name></trkpt>
<trkpt lat="53.202728" lon="-2.023661"><ele>403</ele><time>2020-10-17T13:28:40Z</time><name>PT4396</name></trkpt>
<trkpt lat="53.202775" lon="-2.023705"><ele>404</ele><time>2020-10-17T13:28:44Z</time><name>PT4397</name></trkpt>
<trkpt lat="53.202806" lon="-2.023737"><ele>404</ele><time>2020-10-17T13:28:47Z</time><name>PT4398</name></trkpt>
<trkpt lat="53.202836" lon="-2.023763"><ele>403</ele><time>2020-10-17T13:28:50Z</time><name>PT4399</name></trkpt>
<trkpt lat="53.202865" lon="-2.023794"><ele>403</ele><time>2020-10-17T13:28:53Z</time><name>PT4400</name></trkpt>
<trkpt lat="53.202907" lon="-2.023833"><ele>403</ele><time>2020-10-17T13:28:57Z</time><name>PT4401</name></trkpt>
<trkpt lat="53.202941" lon="-2.023854"><ele>403</ele><time>2020-10-17T13:29:00Z</time><name>PT4402</name></trkpt>
<trkpt lat="53.202974" lon="-2.023877"><ele>403</ele><time>2020-10-17T13:29:04Z</time><name>PT4403</name></trkpt>
<trkpt lat="53.203017" lon="-2.023912"><ele>402</ele><time>2020-10-17T13:29:07Z</time><name>PT4404</name></trkpt>
<trkpt lat="53.203054" lon="-2.023937"><ele>402</ele><time>2020-10-17T13:29:10Z</time><name>PT4405</name></trkpt>
<trkpt lat="53.203102" lon="-2.023970"><ele>402</ele><time>2020-10-17T13:29:14Z</time><name>PT4406</name></trkpt>
<trkpt lat="53.203136" lon="-2.023987"><ele>402</ele><time>2020-10-17T13:29:17Z</time><name>PT4407</name></trkpt>
<trkpt lat="53.203176" lon="-2.024009"><ele>401</ele><time>2020-10-17T13:29:21Z</time><name>PT4408</name></trkpt>
<trkpt lat="53.203218" lon="-2.024035"><ele>401</ele><time>2020-10-17T13:29:25Z</time><name>PT4409</name></trkpt>
<trkpt lat="53.203251" lon="-2.024057"><ele>402</ele><time>2020-10-17T13:29:28Z</time><name>PT4410</name></trkpt>
<trkpt lat="53.203281" lon="-2.024078"><ele>402</ele><time>2020-10-17T13:29:31Z</time><name>PT4411</name></trkpt>
<trkpt lat="53.203314" lon="-2.024087"><ele>402</ele><time>2020-10-17T13:29:34Z</time><name>PT4412</name></trkpt>
<trkpt lat="53.203349" lon="-2.024103"><ele>402</ele><time>2020-10-17T13:29:37Z</time><name>PT4413</name></trkpt>
<trkpt lat="53.203393" lon="-2.024127"><ele>402</ele><time>2020-10-17T13:29:41Z</time><name>PT4414</name></trkpt>
<trkpt lat="53.203443" lon="-2.024150"><ele>402</ele><time>2020-10-17T13:29:45Z</time><name>PT4415</name></trkpt>
<trkpt lat="53.203490" lon="-2.024171"><ele>402</ele><time>2020-10-17T13:29:49Z</time><name>PT4416</name></trkpt>
<trkpt lat="53.203536" lon="-2.024190"><ele>402</ele><time>2020-10-17T13:29:53Z</time><name>PT4417</name></trkpt>
<trkpt lat="53.203570" lon="-2.024200"><ele>402</ele><time>2020-10-17T13:29:56Z</time><name>PT4418</name></trkpt>
<trkpt lat="53.203604" lon="-2.024214"><ele>402</ele><time>2020-10-17T13:29:59Z</time><name>PT4419</name></trkpt>
<trkpt lat="53.203653" lon="-2.024237"><ele>402</ele><time>2020-10-17T13:30:03Z</time><name>PT4420</name></trkpt>
<trkpt lat="53.203688" lon="-2.024254"><ele>402</ele><time>2020-10-17T13:30:06Z</time><name>PT4421</name></trkpt>
<trkpt lat="53.203721" lon="-2.024274"><ele>402</ele><time>2020-10-17T13:30:09Z</time><name>PT4422</name></trkpt>
<trkpt lat="53.203755" lon="-2.024286"><ele>402</ele><time>2020-10-17T13:30:12Z</time><name>PT4423</name></trkpt>
<trkpt lat="53.203802" lon="-2.024306"><ele>402</ele><time>2020-10-17T13:30:16Z</time><name>PT4424</name></trkpt>
<trkpt lat="53.203836" lon="-2.024316"><ele>401</ele><time>2020-10-17T13:30:19Z</time><name>PT4425</name></trkpt>
<trkpt lat="53.203862" lon="-2.024331"><ele>400</ele><time>2020-10-17T13:30:23Z</time><name>PT4426</name></trkpt>
<trkpt lat="53.203863" lon="-2.024326"><ele>399</ele><time>2020-10-17T13:30:26Z</time><name>PT4427</name></trkpt>
<trkpt lat="53.203871" lon="-2.024321"><ele>399</ele><time>2020-10-17T13:30:30Z</time><name>PT4428</name></trkpt>
<trkpt lat="53.203906" lon="-2.024337"><ele>399</ele><time>2020-10-17T13:30:33Z</time><name>PT4429</name></trkpt>
<trkpt lat="53.203937" lon="-2.024352"><ele>399</ele><time>2020-10-17T13:30:37Z</time><name>PT4430</name></trkpt>
<trkpt lat="53.203972" lon="-2.024367"><ele>399</ele><time>2020-10-17T13:30:40Z</time><name>PT4431</name></trkpt>
<trkpt lat="53.204012" lon="-2.024380"><ele>398</ele><time>2020-10-17T13:30:44Z</time><name>PT4432</name></trkpt>
<trkpt lat="53.204042" lon="-2.024400"><ele>398</ele><time>2020-10-17T13:30:47Z</time><name>PT4433</name></trkpt>
<trkpt lat="53.204075" lon="-2.024417"><ele>398</ele><time>2020-10-17T13:30:50Z</time><name>PT4434</name></trkpt>
<trkpt lat="53.204118" lon="-2.024435"><ele>398</ele><time>2020-10-17T13:30:54Z</time><name>PT4435</name></trkpt>
<trkpt lat="53.204162" lon="-2.024455"><ele>398</ele><time>2020-10-17T13:30:58Z</time><name>PT4436</name></trkpt>
<trkpt lat="53.204191" lon="-2.024465"><ele>397</ele><time>2020-10-17T13:31:01Z</time><name>PT4437</name></trkpt>
<trkpt lat="53.204232" lon="-2.024482"><ele>397</ele><time>2020-10-17T13:31:05Z</time><name>PT4438</name></trkpt>
<trkpt lat="53.204267" lon="-2.024496"><ele>397</ele><time>2020-10-17T13:31:08Z</time><name>PT4439</name></trkpt>
<trkpt lat="53.204303" lon="-2.024512"><ele>396</ele><time>2020-10-17T13:31:11Z</time><name>PT4440</name></trkpt>
<trkpt lat="53.204354" lon="-2.024531"><ele>396</ele><time>2020-10-17T13:31:15Z</time><name>PT4441</name></trkpt>
<trkpt lat="53.204390" lon="-2.024537"><ele>396</ele><time>2020-10-17T13:31:18Z</time><name>PT4442</name></trkpt>
<trkpt lat="53.204419" lon="-2.024544"><ele>395</ele><time>2020-10-17T13:31:21Z</time><name>PT4443</name></trkpt>
<trkpt lat="53.204460" lon="-2.024559"><ele>395</ele><time>2020-10-17T13:31:25Z</time><name>PT4444</name></trkpt>
<trkpt lat="53.204493" lon="-2.024571"><ele>395</ele><time>2020-10-17T13:31:28Z</time><name>PT4445</name></trkpt>
<trkpt lat="53.204530" lon="-2.024587"><ele>394</ele><time>2020-10-17T13:31:32Z</time><name>PT4446</name></trkpt>
<trkpt lat="53.204562" lon="-2.024595"><ele>393</ele><time>2020-10-17T13:31:35Z</time><name>PT4447</name></trkpt>
<trkpt lat="53.204592" lon="-2.024604"><ele>393</ele><time>2020-10-17T13:31:38Z</time><name>PT4448</name></trkpt>
<trkpt lat="53.204619" lon="-2.024609"><ele>393</ele><time>2020-10-17T13:31:41Z</time><name>PT4449</name></trkpt>
<trkpt lat="53.204657" lon="-2.024624"><ele>392</ele><time>2020-10-17T13:31:45Z</time><name>PT4450</name></trkpt>
<trkpt lat="53.204689" lon="-2.024634"><ele>391</ele><time>2020-10-17T13:31:48Z</time><name>PT4451</name></trkpt>
<trkpt lat="53.204736" lon="-2.024657"><ele>392</ele><time>2020-10-17T13:31:52Z</time><name>PT4452</name></trkpt>
<trkpt lat="53.204765" lon="-2.024663"><ele>392</ele><time>2020-10-17T13:31:55Z</time><name>PT4453</name></trkpt>
<trkpt lat="53.204800" lon="-2.024675"><ele>391</ele><time>2020-10-17T13:31:58Z</time><name>PT4454</name></trkpt>
<trkpt lat="53.204846" lon="-2.024686"><ele>391</ele><time>2020-10-17T13:32:02Z</time><name>PT4455</name></trkpt>
<trkpt lat="53.204883" lon="-2.024691"><ele>390</ele><time>2020-10-17T13:32:05Z</time><name>PT4456</name></trkpt>
<trkpt lat="53.204927" lon="-2.024704"><ele>389</ele><time>2020-10-17T13:32:09Z</time><name>PT4457</name></trkpt>
<trkpt lat="53.204976" lon="-2.024715"><ele>389</ele><time>2020-10-17T13:32:13Z</time><name>PT4458</name></trkpt>
<trkpt lat="53.205007" lon="-2.024728"><ele>388</ele><time>2020-10-17T13:32:16Z</time><name>PT4459</name></trkpt>
<trkpt lat="53.205047" lon="-2.024738"><ele>388</ele><time>2020-10-17T13:32:20Z</time><name>PT4460</name></trkpt>
<trkpt lat="53.205081" lon="-2.024746"><ele>387</ele><time>2020-10-17T13:32:24Z</time><name>PT4461</name></trkpt>
<trkpt lat="53.205112" lon="-2.024752"><ele>386</ele><time>2020-10-17T13:32:27Z</time><name>PT4462</name></trkpt>
<trkpt lat="53.205148" lon="-2.024758"><ele>386</ele><time>2020-10-17T13:32:31Z</time><name>PT4463</name></trkpt>
<trkpt lat="53.205185" lon="-2.024763"><ele>385</ele><time>2020-10-17T13:32:35Z</time><name>PT4464</name></trkpt>
<trkpt lat="53.205210" lon="-2.024761"><ele>384</ele><time>2020-10-17T13:32:38Z</time><name>PT4465</name></trkpt>
<trkpt lat="53.205241" lon="-2.024751"><ele>384</ele><time>2020-10-17T13:32:42Z</time><name>PT4466</name></trkpt>
<trkpt lat="53.205282" lon="-2.024742"><ele>384</ele><time>2020-10-17T13:32:46Z</time><name>PT4467</name></trkpt>
<trkpt lat="53.205318" lon="-2.024736"><ele>384</ele><time>2020-10-17T13:32:50Z</time><name>PT4468</name></trkpt>
<trkpt lat="53.205357" lon="-2.024728"><ele>383</ele><time>2020-10-17T13:32:54Z</time><name>PT4469</name></trkpt>
<trkpt lat="53.205393" lon="-2.024716"><ele>384</ele><time>2020-10-17T13:32:58Z</time><name>PT4470</name></trkpt>
<trkpt lat="53.205420" lon="-2.024713"><ele>383</ele><time>2020-10-17T13:33:02Z</time><name>PT4471</name></trkpt>
<trkpt lat="53.205441" lon="-2.024704"><ele>382</ele><time>2020-10-17T13:33:06Z</time><name>PT4472</name></trkpt>
<trkpt lat="53.205465" lon="-2.024702"><ele>383</ele><time>2020-10-17T13:33:09Z</time><name>PT4473</name></trkpt>
<trkpt lat="53.205501" lon="-2.024695"><ele>382</ele><time>2020-10-17T13:33:13Z</time><name>PT4474</name></trkpt>
<trkpt lat="53.205521" lon="-2.024696"><ele>382</ele><time>2020-10-17T13:33:17Z</time><name>PT4475</name></trkpt>
<trkpt lat="53.205520" lon="-2.024697"><ele>381</ele><time>2020-10-17T13:33:20Z</time><name>PT4476</name></trkpt>
<trkpt lat="53.205522" lon="-2.024693"><ele>381</ele><time>2020-10-17T13:33:27Z</time><name>PT4477</name></trkpt>
<trkpt lat="53.205521" lon="-2.024690"><ele>381</ele><time>2020-10-17T13:33:30Z</time><name>PT4478</name></trkpt>
<trkpt lat="53.205521" lon="-2.024685"><ele>381</ele><time>2020-10-17T13:33:34Z</time><name>PT4479</name></trkpt>
<trkpt lat="53.205519" lon="-2.024687"><ele>381</ele><time>2020-10-17T13:33:38Z</time><name>PT4480</name></trkpt>
<trkpt lat="53.205522" lon="-2.024677"><ele>381</ele><time>2020-10-17T13:33:41Z</time><name>PT4481</name></trkpt>
<trkpt lat="53.205526" lon="-2.024669"><ele>382</ele><time>2020-10-17T13:33:43Z</time><name>PT4482</name></trkpt>
<trkpt lat="53.205526" lon="-2.024670"><ele>382</ele><time>2020-10-17T13:34:03Z</time><name>PT4483</name></trkpt>
<trkpt lat="53.205526" lon="-2.024669"><ele>382</ele><time>2020-10-17T13:34:04Z</time><name>PT4484</name></trkpt>
<trkpt lat="53.205527" lon="-2.024669"><ele>382</ele><time>2020-10-17T13:34:05Z</time><name>PT4485</name></trkpt>
<trkpt lat="53.205526" lon="-2.024670"><ele>381</ele><time>2020-10-17T13:34:11Z</time><name>PT4486</name></trkpt>
<trkpt lat="53.205525" lon="-2.024669"><ele>382</ele><time>2020-10-17T13:34:12Z</time><name>PT4487</name></trkpt>
<trkpt lat="53.205526" lon="-2.024669"><ele>382</ele><time>2020-10-17T13:34:14Z</time><name>PT4488</name></trkpt>
<trkpt lat="53.205524" lon="-2.024671"><ele>382</ele><time>2020-10-17T13:34:15Z</time><name>PT4489</name></trkpt>
<trkpt lat="53.205524" lon="-2.024672"><ele>382</ele><time>2020-10-17T13:34:16Z</time><name>PT4490</name></trkpt>
<trkpt lat="53.205527" lon="-2.024670"><ele>382</ele><time>2020-10-17T13:34:17Z</time><name>PT4491</name></trkpt>
<trkpt lat="53.205532" lon="-2.024669"><ele>381</ele><time>2020-10-17T13:34:18Z</time><name>PT4492</name></trkpt>
<trkpt lat="53.205532" lon="-2.024668"><ele>381</ele><time>2020-10-17T13:34:19Z</time><name>PT4493</name></trkpt>
<trkpt lat="53.205539" lon="-2.024644"><ele>380</ele><time>2020-10-17T13:35:17Z</time><name>PT4494</name></trkpt>
<trkpt lat="53.205544" lon="-2.024625"><ele>379</ele><time>2020-10-17T13:35:18Z</time><name>PT4495</name></trkpt>
<trkpt lat="53.205545" lon="-2.024616"><ele>379</ele><time>2020-10-17T13:35:19Z</time><name>PT4496</name></trkpt>
<trkpt lat="53.205550" lon="-2.024613"><ele>379</ele><time>2020-10-17T13:35:49Z</time><name>PT4497</name></trkpt>
<trkpt lat="53.205554" lon="-2.024619"><ele>379</ele><time>2020-10-17T13:35:50Z</time><name>PT4498</name></trkpt>
<trkpt lat="53.205556" lon="-2.024623"><ele>379</ele><time>2020-10-17T13:35:51Z</time><name>PT4499</name></trkpt>
<trkpt lat="53.205559" lon="-2.024624"><ele>379</ele><time>2020-10-17T13:35:52Z</time><name>PT4500</name></trkpt>
<trkpt lat="53.205558" lon="-2.024624"><ele>379</ele><time>2020-10-17T13:35:53Z</time><name>PT4501</name></trkpt>
<trkpt lat="53.205557" lon="-2.024629"><ele>379</ele><time>2020-10-17T13:35:54Z</time><name>PT4502</name></trkpt>
<trkpt lat="53.205549" lon="-2.024624"><ele>379</ele><time>2020-10-17T13:35:58Z</time><name>PT4503</name></trkpt>
<trkpt lat="53.205544" lon="-2.024613"><ele>379</ele><time>2020-10-17T13:35:59Z</time><name>PT4504</name></trkpt>
<trkpt lat="53.205548" lon="-2.024622"><ele>379</ele><time>2020-10-17T13:36:00Z</time><name>PT4505</name></trkpt>
<trkpt lat="53.205549" lon="-2.024625"><ele>379</ele><time>2020-10-17T13:36:01Z</time><name>PT4506</name></trkpt>
<trkpt lat="53.205548" lon="-2.024623"><ele>379</ele><time>2020-10-17T13:36:02Z</time><name>PT4507</name></trkpt>
<trkpt lat="53.205548" lon="-2.024627"><ele>379</ele><time>2020-10-17T13:36:03Z</time><name>PT4508</name></trkpt>
<trkpt lat="53.205547" lon="-2.024626"><ele>379</ele><time>2020-10-17T13:36:04Z</time><name>PT4509</name></trkpt>
<trkpt lat="53.205556" lon="-2.024624"><ele>379</ele><time>2020-10-17T13:36:05Z</time><name>PT4510</name></trkpt>
<trkpt lat="53.205565" lon="-2.024619"><ele>379</ele><time>2020-10-17T13:36:06Z</time><name>PT4511</name></trkpt>
<trkpt lat="53.205574" lon="-2.024613"><ele>379</ele><time>2020-10-17T13:36:07Z</time><name>PT4512</name></trkpt>
<trkpt lat="53.205582" lon="-2.024615"><ele>379</ele><time>2020-10-17T13:36:08Z</time><name>PT4513</name></trkpt>
<trkpt lat="53.205589" lon="-2.024608"><ele>378</ele><time>2020-10-17T13:36:09Z</time><name>PT4514</name></trkpt>
<trkpt lat="53.205597" lon="-2.024609"><ele>377</ele><time>2020-10-17T13:36:10Z</time><name>PT4515</name></trkpt>
<trkpt lat="53.205606" lon="-2.024607"><ele>377</ele><time>2020-10-17T13:36:11Z</time><name>PT4516</name></trkpt>
<trkpt lat="53.205616" lon="-2.024606"><ele>377</ele><time>2020-10-17T13:36:12Z</time><name>PT4517</name></trkpt>
<trkpt lat="53.205622" lon="-2.024604"><ele>376</ele><time>2020-10-17T13:36:13Z</time><name>PT4518</name></trkpt>
<trkpt lat="53.205629" lon="-2.024597"><ele>376</ele><time>2020-10-17T13:36:14Z</time><name>PT4519</name></trkpt>
<trkpt lat="53.205633" lon="-2.024593"><ele>375</ele><time>2020-10-17T13:36:15Z</time><name>PT4520</name></trkpt>
<trkpt lat="53.205642" lon="-2.024589"><ele>375</ele><time>2020-10-17T13:36:16Z</time><name>PT4521</name></trkpt>
<trkpt lat="53.205649" lon="-2.024584"><ele>375</ele><time>2020-10-17T13:36:17Z</time><name>PT4522</name></trkpt>
<trkpt lat="53.205656" lon="-2.024582"><ele>375</ele><time>2020-10-17T13:36:18Z</time><name>PT4523</name></trkpt>
<trkpt lat="53.205663" lon="-2.024579"><ele>375</ele><time>2020-10-17T13:36:19Z</time><name>PT4524</name></trkpt>
<trkpt lat="53.205665" lon="-2.024576"><ele>373</ele><time>2020-10-17T13:36:20Z</time><name>PT4525</name></trkpt>
<trkpt lat="53.205667" lon="-2.024573"><ele>372</ele><time>2020-10-17T13:36:21Z</time><name>PT4526</name></trkpt>
<trkpt lat="53.205674" lon="-2.024563"><ele>372</ele><time>2020-10-17T13:36:22Z</time><name>PT4527</name></trkpt>
<trkpt lat="53.205683" lon="-2.024554"><ele>372</ele><time>2020-10-17T13:36:23Z</time><name>PT4528</name></trkpt>
<trkpt lat="53.205688" lon="-2.024548"><ele>371</ele><time>2020-10-17T13:36:24Z</time><name>PT4529</name></trkpt>
<trkpt lat="53.205697" lon="-2.024544"><ele>371</ele><time>2020-10-17T13:36:25Z</time><name>PT4530</name></trkpt>
<trkpt lat="53.205703" lon="-2.024547"><ele>370</ele><time>2020-10-17T13:36:26Z</time><name>PT4531</name></trkpt>
<trkpt lat="53.205709" lon="-2.024540"><ele>369</ele><time>2020-10-17T13:36:27Z</time><name>PT4532</name></trkpt>
<trkpt lat="53.205716" lon="-2.024536"><ele>368</ele><time>2020-10-17T13:36:28Z</time><name>PT4533</name></trkpt>
<trkpt lat="53.205726" lon="-2.024531"><ele>369</ele><time>2020-10-17T13:36:29Z</time><name>PT4534</name></trkpt>
<trkpt lat="53.205734" lon="-2.024527"><ele>369</ele><time>2020-10-17T13:36:30Z</time><name>PT4535</name></trkpt>
<trkpt lat="53.205741" lon="-2.024519"><ele>368</ele><time>2020-10-17T13:36:31Z</time><name>PT4536</name></trkpt>
<trkpt lat="53.205752" lon="-2.024513"><ele>368</ele><time>2020-10-17T13:36:32Z</time><name>PT4537</name></trkpt>
<trkpt lat="53.205762" lon="-2.024502"><ele>368</ele><time>2020-10-17T13:36:33Z</time><name>PT4538</name></trkpt>
<trkpt lat="53.205773" lon="-2.024496"><ele>368</ele><time>2020-10-17T13:36:34Z</time><name>PT4539</name></trkpt>
<trkpt lat="53.205783" lon="-2.024489"><ele>368</ele><time>2020-10-17T13:36:35Z</time><name>PT4540</name></trkpt>
<trkpt lat="53.205792" lon="-2.024481"><ele>368</ele><time>2020-10-17T13:36:36Z</time><name>PT4541</name></trkpt>
<trkpt lat="53.205803" lon="-2.024473"><ele>368</ele><time>2020-10-17T13:36:37Z</time><name>PT4542</name></trkpt>
<trkpt lat="53.205812" lon="-2.024469"><ele>367</ele><time>2020-10-17T13:36:38Z</time><name>PT4543</name></trkpt>
<trkpt lat="53.205823" lon="-2.024463"><ele>367</ele><time>2020-10-17T13:36:39Z</time><name>PT4544</name></trkpt>
<trkpt lat="53.205833" lon="-2.024459"><ele>367</ele><time>2020-10-17T13:36:40Z</time><name>PT4545</name></trkpt>
<trkpt lat="53.205842" lon="-2.024454"><ele>367</ele><time>2020-10-17T13:36:41Z</time><name>PT4546</name></trkpt>
<trkpt lat="53.205850" lon="-2.024452"><ele>367</ele><time>2020-10-17T13:36:42Z</time><name>PT4547</name></trkpt>
<trkpt lat="53.205863" lon="-2.024443"><ele>367</ele><time>2020-10-17T13:36:43Z</time><name>PT4548</name></trkpt>
<trkpt lat="53.205903" lon="-2.024410"><ele>366</ele><time>2020-10-17T13:36:47Z</time><name>PT4549</name></trkpt>
<trkpt lat="53.205944" lon="-2.024382"><ele>368</ele><time>2020-10-17T13:36:50Z</time><name>PT4550</name></trkpt>
<trkpt lat="53.205984" lon="-2.024340"><ele>369</ele><time>2020-10-17T13:36:54Z</time><name>PT4551</name></trkpt>
<trkpt lat="53.206018" lon="-2.024297"><ele>367</ele><time>2020-10-17T13:36:58Z</time><name>PT4552</name></trkpt>
<trkpt lat="53.206053" lon="-2.024250"><ele>366</ele><time>2020-10-17T13:37:02Z</time><name>PT4553</name></trkpt>
<trkpt lat="53.206089" lon="-2.024200"><ele>366</ele><time>2020-10-17T13:37:06Z</time><name>PT4554</name></trkpt>
<trkpt lat="53.206120" lon="-2.024171"><ele>365</ele><time>2020-10-17T13:37:09Z</time><name>PT4555</name></trkpt>
<trkpt lat="53.206149" lon="-2.024147"><ele>365</ele><time>2020-10-17T13:37:13Z</time><name>PT4556</name></trkpt>
<trkpt lat="53.206158" lon="-2.024134"><ele>366</ele><time>2020-10-17T13:37:17Z</time><name>PT4557</name></trkpt>
<trkpt lat="53.206177" lon="-2.024093"><ele>367</ele><time>2020-10-17T13:37:32Z</time><name>PT4558</name></trkpt>
<trkpt lat="53.206191" lon="-2.024068"><ele>366</ele><time>2020-10-17T13:37:35Z</time><name>PT4559</name></trkpt>
<trkpt lat="53.206222" lon="-2.024019"><ele>366</ele><time>2020-10-17T13:37:39Z</time><name>PT4560</name></trkpt>
<trkpt lat="53.206252" lon="-2.024025"><ele>367</ele><time>2020-10-17T13:37:43Z</time><name>PT4561</name></trkpt>
<trkpt lat="53.206279" lon="-2.024031"><ele>365</ele><time>2020-10-17T13:37:47Z</time><name>PT4562</name></trkpt>
<trkpt lat="53.206316" lon="-2.024043"><ele>366</ele><time>2020-10-17T13:37:51Z</time><name>PT4563</name></trkpt>
<trkpt lat="53.206345" lon="-2.024049"><ele>366</ele><time>2020-10-17T13:37:54Z</time><name>PT4564</name></trkpt>
<trkpt lat="53.206370" lon="-2.024057"><ele>365</ele><time>2020-10-17T13:37:57Z</time><name>PT4565</name></trkpt>
<trkpt lat="53.206392" lon="-2.024054"><ele>365</ele><time>2020-10-17T13:38:01Z</time><name>PT4566</name></trkpt>
<trkpt lat="53.206412" lon="-2.024053"><ele>364</ele><time>2020-10-17T13:38:04Z</time><name>PT4567</name></trkpt>
<trkpt lat="53.206435" lon="-2.024051"><ele>364</ele><time>2020-10-17T13:38:07Z</time><name>PT4568</name></trkpt>
<trkpt lat="53.206451" lon="-2.024050"><ele>364</ele><time>2020-10-17T13:38:10Z</time><name>PT4569</name></trkpt>
<trkpt lat="53.206468" lon="-2.024039"><ele>362</ele><time>2020-10-17T13:38:14Z</time><name>PT4570</name></trkpt>
<trkpt lat="53.206474" lon="-2.024034"><ele>362</ele><time>2020-10-17T13:38:18Z</time><name>PT4571</name></trkpt>
<trkpt lat="53.206484" lon="-2.024034"><ele>362</ele><time>2020-10-17T13:38:22Z</time><name>PT4572</name></trkpt>
<trkpt lat="53.206486" lon="-2.024040"><ele>361</ele><time>2020-10-17T13:38:46Z</time><name>PT4573</name></trkpt>
<trkpt lat="53.206482" lon="-2.024040"><ele>361</ele><time>2020-10-17T13:38:50Z</time><name>PT4574</name></trkpt>
<trkpt lat="53.206485" lon="-2.024040"><ele>360</ele><time>2020-10-17T13:38:54Z</time><name>PT4575</name></trkpt>
<trkpt lat="53.206483" lon="-2.024015"><ele>360</ele><time>2020-10-17T13:39:14Z</time><name>PT4576</name></trkpt>
<trkpt lat="53.206497" lon="-2.024004"><ele>359</ele><time>2020-10-17T13:39:18Z</time><name>PT4577</name></trkpt>
<trkpt lat="53.206502" lon="-2.024007"><ele>358</ele><time>2020-10-17T13:39:21Z</time><name>PT4578</name></trkpt>
<trkpt lat="53.206508" lon="-2.024013"><ele>357</ele><time>2020-10-17T13:39:24Z</time><name>PT4579</name></trkpt>
<trkpt lat="53.206526" lon="-2.024001"><ele>357</ele><time>2020-10-17T13:39:31Z</time><name>PT4580</name></trkpt>
<trkpt lat="53.206552" lon="-2.023985"><ele>358</ele><time>2020-10-17T13:39:34Z</time><name>PT4581</name></trkpt>
<trkpt lat="53.206566" lon="-2.023962"><ele>358</ele><time>2020-10-17T13:39:37Z</time><name>PT4582</name></trkpt>
<trkpt lat="53.206569" lon="-2.023910"><ele>358</ele><time>2020-10-17T13:39:41Z</time><name>PT4583</name></trkpt>
<trkpt lat="53.206579" lon="-2.023875"><ele>358</ele><time>2020-10-17T13:39:44Z</time><name>PT4584</name></trkpt>
<trkpt lat="53.206597" lon="-2.023860"><ele>359</ele><time>2020-10-17T13:39:48Z</time><name>PT4585</name></trkpt>
<trkpt lat="53.206599" lon="-2.023864"><ele>356</ele><time>2020-10-17T13:39:51Z</time><name>PT4586</name></trkpt>
<trkpt lat="53.206610" lon="-2.023860"><ele>356</ele><time>2020-10-17T13:39:54Z</time><name>PT4587</name></trkpt>
<trkpt lat="53.206630" lon="-2.023838"><ele>355</ele><time>2020-10-17T13:39:58Z</time><name>PT4588</name></trkpt>
<trkpt lat="53.206647" lon="-2.023829"><ele>355</ele><time>2020-10-17T13:40:01Z</time><name>PT4589</name></trkpt>
<trkpt lat="53.206663" lon="-2.023833"><ele>354</ele><time>2020-10-17T13:40:04Z</time><name>PT4590</name></trkpt>
<trkpt lat="53.206695" lon="-2.023833"><ele>354</ele><time>2020-10-17T13:40:08Z</time><name>PT4591</name></trkpt>
<trkpt lat="53.206724" lon="-2.023814"><ele>354</ele><time>2020-10-17T13:40:11Z</time><name>PT4592</name></trkpt>
<trkpt lat="53.206768" lon="-2.023784"><ele>355</ele><time>2020-10-17T13:40:15Z</time><name>PT4593</name></trkpt>
<trkpt lat="53.206799" lon="-2.023758"><ele>354</ele><time>2020-10-17T13:40:18Z</time><name>PT4594</name></trkpt>
<trkpt lat="53.206841" lon="-2.023729"><ele>353</ele><time>2020-10-17T13:40:22Z</time><name>PT4595</name></trkpt>
<trkpt lat="53.206881" lon="-2.023704"><ele>353</ele><time>2020-10-17T13:40:26Z</time><name>PT4596</name></trkpt>
<trkpt lat="53.206917" lon="-2.023671"><ele>352</ele><time>2020-10-17T13:40:29Z</time><name>PT4597</name></trkpt>
<trkpt lat="53.206965" lon="-2.023647"><ele>352</ele><time>2020-10-17T13:40:33Z</time><name>PT4598</name></trkpt>
<trkpt lat="53.206992" lon="-2.023627"><ele>351</ele><time>2020-10-17T13:40:36Z</time><name>PT4599</name></trkpt>
<trkpt lat="53.207026" lon="-2.023609"><ele>350</ele><time>2020-10-17T13:40:39Z</time><name>PT4600</name></trkpt>
<trkpt lat="53.207068" lon="-2.023572"><ele>349</ele><time>2020-10-17T13:40:43Z</time><name>PT4601</name></trkpt>
<trkpt lat="53.207100" lon="-2.023558"><ele>348</ele><time>2020-10-17T13:40:46Z</time><name>PT4602</name></trkpt>
<trkpt lat="53.207152" lon="-2.023506"><ele>349</ele><time>2020-10-17T13:40:50Z</time><name>PT4603</name></trkpt>
<trkpt lat="53.207203" lon="-2.023477"><ele>349</ele><time>2020-10-17T13:40:54Z</time><name>PT4604</name></trkpt>
<trkpt lat="53.207226" lon="-2.023464"><ele>348</ele><time>2020-10-17T13:40:57Z</time><name>PT4605</name></trkpt>
<trkpt lat="53.207264" lon="-2.023436"><ele>345</ele><time>2020-10-17T13:41:01Z</time><name>PT4606</name></trkpt>
<trkpt lat="53.207306" lon="-2.023405"><ele>345</ele><time>2020-10-17T13:41:05Z</time><name>PT4607</name></trkpt>
<trkpt lat="53.207326" lon="-2.023386"><ele>344</ele><time>2020-10-17T13:41:08Z</time><name>PT4608</name></trkpt>
<trkpt lat="53.207358" lon="-2.023362"><ele>345</ele><time>2020-10-17T13:41:12Z</time><name>PT4609</name></trkpt>
<trkpt lat="53.207382" lon="-2.023356"><ele>345</ele><time>2020-10-17T13:41:16Z</time><name>PT4610</name></trkpt>
<trkpt lat="53.207404" lon="-2.023346"><ele>346</ele><time>2020-10-17T13:41:19Z</time><name>PT4611</name></trkpt>
<trkpt lat="53.207436" lon="-2.023342"><ele>345</ele><time>2020-10-17T13:41:23Z</time><name>PT4612</name></trkpt>
<trkpt lat="53.207478" lon="-2.023348"><ele>345</ele><time>2020-10-17T13:41:27Z</time><name>PT4613</name></trkpt>
<trkpt lat="53.207507" lon="-2.023339"><ele>345</ele><time>2020-10-17T13:41:30Z</time><name>PT4614</name></trkpt>
<trkpt lat="53.207538" lon="-2.023337"><ele>345</ele><time>2020-10-17T13:41:33Z</time><name>PT4615</name></trkpt>
<trkpt lat="53.207580" lon="-2.023320"><ele>345</ele><time>2020-10-17T13:41:37Z</time><name>PT4616</name></trkpt>
<trkpt lat="53.207615" lon="-2.023299"><ele>344</ele><time>2020-10-17T13:41:41Z</time><name>PT4617</name></trkpt>
<trkpt lat="53.207650" lon="-2.023280"><ele>344</ele><time>2020-10-17T13:41:45Z</time><name>PT4618</name></trkpt>
<trkpt lat="53.207675" lon="-2.023270"><ele>343</ele><time>2020-10-17T13:41:49Z</time><name>PT4619</name></trkpt>
<trkpt lat="53.207703" lon="-2.023262"><ele>343</ele><time>2020-10-17T13:41:52Z</time><name>PT4620</name></trkpt>
<trkpt lat="53.207721" lon="-2.023259"><ele>343</ele><time>2020-10-17T13:41:55Z</time><name>PT4621</name></trkpt>
<trkpt lat="53.207756" lon="-2.023247"><ele>344</ele><time>2020-10-17T13:41:59Z</time><name>PT4622</name></trkpt>
<trkpt lat="53.207777" lon="-2.023239"><ele>344</ele><time>2020-10-17T13:42:02Z</time><name>PT4623</name></trkpt>
<trkpt lat="53.207810" lon="-2.023229"><ele>345</ele><time>2020-10-17T13:42:06Z</time><name>PT4624</name></trkpt>
<trkpt lat="53.207836" lon="-2.023232"><ele>346</ele><time>2020-10-17T13:42:09Z</time><name>PT4625</name></trkpt>
<trkpt lat="53.207874" lon="-2.023236"><ele>346</ele><time>2020-10-17T13:42:13Z</time><name>PT4626</name></trkpt>
<trkpt lat="53.207904" lon="-2.023232"><ele>346</ele><time>2020-10-17T13:42:16Z</time><name>PT4627</name></trkpt>
<trkpt lat="53.207929" lon="-2.023225"><ele>346</ele><time>2020-10-17T13:42:19Z</time><name>PT4628</name></trkpt>
<trkpt lat="53.207954" lon="-2.023237"><ele>346</ele><time>2020-10-17T13:42:23Z</time><name>PT4629</name></trkpt>
<trkpt lat="53.207989" lon="-2.023252"><ele>346</ele><time>2020-10-17T13:42:27Z</time><name>PT4630</name></trkpt>
<trkpt lat="53.208029" lon="-2.023234"><ele>348</ele><time>2020-10-17T13:42:30Z</time><name>PT4631</name></trkpt>
<trkpt lat="53.208063" lon="-2.023222"><ele>349</ele><time>2020-10-17T13:42:33Z</time><name>PT4632</name></trkpt>
<trkpt lat="53.208095" lon="-2.023220"><ele>347</ele><time>2020-10-17T13:42:36Z</time><name>PT4633</name></trkpt>
<trkpt lat="53.208149" lon="-2.023216"><ele>348</ele><time>2020-10-17T13:42:40Z</time><name>PT4634</name></trkpt>
<trkpt lat="53.208168" lon="-2.023210"><ele>347</ele><time>2020-10-17T13:42:43Z</time><name>PT4635</name></trkpt>
<trkpt lat="53.208200" lon="-2.023212"><ele>346</ele><time>2020-10-17T13:42:47Z</time><name>PT4636</name></trkpt>
<trkpt lat="53.208223" lon="-2.023226"><ele>346</ele><time>2020-10-17T13:42:50Z</time><name>PT4637</name></trkpt>
<trkpt lat="53.208247" lon="-2.023271"><ele>344</ele><time>2020-10-17T13:42:54Z</time><name>PT4638</name></trkpt>
<trkpt lat="53.208272" lon="-2.023314"><ele>343</ele><time>2020-10-17T13:42:58Z</time><name>PT4639</name></trkpt>
<trkpt lat="53.208301" lon="-2.023345"><ele>344</ele><time>2020-10-17T13:43:01Z</time><name>PT4640</name></trkpt>
<trkpt lat="53.208332" lon="-2.023394"><ele>345</ele><time>2020-10-17T13:43:05Z</time><name>PT4641</name></trkpt>
<trkpt lat="53.208368" lon="-2.023457"><ele>346</ele><time>2020-10-17T13:43:09Z</time><name>PT4642</name></trkpt>
<trkpt lat="53.208402" lon="-2.023490"><ele>348</ele><time>2020-10-17T13:43:12Z</time><name>PT4643</name></trkpt>
<trkpt lat="53.208402" lon="-2.023557"><ele>346</ele><time>2020-10-17T13:43:16Z</time><name>PT4644</name></trkpt>
<trkpt lat="53.208402" lon="-2.023618"><ele>346</ele><time>2020-10-17T13:43:20Z</time><name>PT4645</name></trkpt>
<trkpt lat="53.208394" lon="-2.023659"><ele>346</ele><time>2020-10-17T13:43:23Z</time><name>PT4646</name></trkpt>
<trkpt lat="53.208395" lon="-2.023694"><ele>345</ele><time>2020-10-17T13:43:26Z</time><name>PT4647</name></trkpt>
<trkpt lat="53.208391" lon="-2.023736"><ele>343</ele><time>2020-10-17T13:43:31Z</time><name>PT4648</name></trkpt>
<trkpt lat="53.208391" lon="-2.023787"><ele>341</ele><time>2020-10-17T13:43:34Z</time><name>PT4649</name></trkpt>
<trkpt lat="53.208394" lon="-2.023818"><ele>341</ele><time>2020-10-17T13:43:37Z</time><name>PT4650</name></trkpt>
<trkpt lat="53.208392" lon="-2.023842"><ele>340</ele><time>2020-10-17T13:43:41Z</time><name>PT4651</name></trkpt>
<trkpt lat="53.208390" lon="-2.023860"><ele>340</ele><time>2020-10-17T13:43:44Z</time><name>PT4652</name></trkpt>
<trkpt lat="53.208391" lon="-2.023864"><ele>340</ele><time>2020-10-17T13:43:48Z</time><name>PT4653</name></trkpt>
<trkpt lat="53.208392" lon="-2.023884"><ele>340</ele><time>2020-10-17T13:43:55Z</time><name>PT4654</name></trkpt>
<trkpt lat="53.208390" lon="-2.023895"><ele>339</ele><time>2020-10-17T13:43:59Z</time><name>PT4655</name></trkpt>
<trkpt lat="53.208390" lon="-2.023911"><ele>340</ele><time>2020-10-17T13:44:06Z</time><name>PT4656</name></trkpt>
<trkpt lat="53.208392" lon="-2.023934"><ele>339</ele><time>2020-10-17T13:44:10Z</time><name>PT4657</name></trkpt>
<trkpt lat="53.208397" lon="-2.023972"><ele>339</ele><time>2020-10-17T13:44:14Z</time><name>PT4658</name></trkpt>
<trkpt lat="53.208400" lon="-2.023984"><ele>339</ele><time>2020-10-17T13:44:17Z</time><name>PT4659</name></trkpt>
<trkpt lat="53.208424" lon="-2.024020"><ele>340</ele><time>2020-10-17T13:44:21Z</time><name>PT4660</name></trkpt>
<trkpt lat="53.208468" lon="-2.024062"><ele>339</ele><time>2020-10-17T13:44:25Z</time><name>PT4661</name></trkpt>
<trkpt lat="53.208511" lon="-2.024098"><ele>339</ele><time>2020-10-17T13:44:29Z</time><name>PT4662</name></trkpt>
<trkpt lat="53.208550" lon="-2.024147"><ele>339</ele><time>2020-10-17T13:44:33Z</time><name>PT4663</name></trkpt>
<trkpt lat="53.208591" lon="-2.024180"><ele>339</ele><time>2020-10-17T13:44:37Z</time><name>PT4664</name></trkpt>
<trkpt lat="53.208616" lon="-2.024213"><ele>339</ele><time>2020-10-17T13:44:40Z</time><name>PT4665</name></trkpt>
<trkpt lat="53.208644" lon="-2.024243"><ele>338</ele><time>2020-10-17T13:44:43Z</time><name>PT4666</name></trkpt>
<trkpt lat="53.208687" lon="-2.024279"><ele>338</ele><time>2020-10-17T13:44:47Z</time><name>PT4667</name></trkpt>
<trkpt lat="53.208720" lon="-2.024306"><ele>338</ele><time>2020-10-17T13:44:50Z</time><name>PT4668</name></trkpt>
<trkpt lat="53.208747" lon="-2.024337"><ele>339</ele><time>2020-10-17T13:44:53Z</time><name>PT4669</name></trkpt>
<trkpt lat="53.208783" lon="-2.024370"><ele>339</ele><time>2020-10-17T13:44:57Z</time><name>PT4670</name></trkpt>
<trkpt lat="53.208810" lon="-2.024394"><ele>339</ele><time>2020-10-17T13:45:00Z</time><name>PT4671</name></trkpt>
<trkpt lat="53.208849" lon="-2.024434"><ele>339</ele><time>2020-10-17T13:45:04Z</time><name>PT4672</name></trkpt>
<trkpt lat="53.208877" lon="-2.024464"><ele>340</ele><time>2020-10-17T13:45:07Z</time><name>PT4673</name></trkpt>
<trkpt lat="53.208909" lon="-2.024497"><ele>340</ele><time>2020-10-17T13:45:10Z</time><name>PT4674</name></trkpt>
<trkpt lat="53.208937" lon="-2.024526"><ele>341</ele><time>2020-10-17T13:45:13Z</time><name>PT4675</name></trkpt>
<trkpt lat="53.208964" lon="-2.024560"><ele>341</ele><time>2020-10-17T13:45:16Z</time><name>PT4676</name></trkpt>
<trkpt lat="53.208984" lon="-2.024597"><ele>339</ele><time>2020-10-17T13:45:19Z</time><name>PT4677</name></trkpt>
<trkpt lat="53.209007" lon="-2.024626"><ele>338</ele><time>2020-10-17T13:45:22Z</time><name>PT4678</name></trkpt>
<trkpt lat="53.209029" lon="-2.024662"><ele>338</ele><time>2020-10-17T13:45:25Z</time><name>PT4679</name></trkpt>
<trkpt lat="53.209048" lon="-2.024732"><ele>337</ele><time>2020-10-17T13:45:29Z</time><name>PT4680</name></trkpt>
<trkpt lat="53.209061" lon="-2.024784"><ele>337</ele><time>2020-10-17T13:45:32Z</time><name>PT4681</name></trkpt>
<trkpt lat="53.209089" lon="-2.024865"><ele>338</ele><time>2020-10-17T13:45:36Z</time><name>PT4682</name></trkpt>
<trkpt lat="53.209112" lon="-2.024930"><ele>337</ele><time>2020-10-17T13:45:40Z</time><name>PT4683</name></trkpt>
<trkpt lat="53.209135" lon="-2.024976"><ele>338</ele><time>2020-10-17T13:45:43Z</time><name>PT4684</name></trkpt>
<trkpt lat="53.209152" lon="-2.025031"><ele>338</ele><time>2020-10-17T13:45:46Z</time><name>PT4685</name></trkpt>
<trkpt lat="53.209165" lon="-2.025095"><ele>340</ele><time>2020-10-17T13:45:50Z</time><name>PT4686</name></trkpt>
<trkpt lat="53.209199" lon="-2.025166"><ele>338</ele><time>2020-10-17T13:45:54Z</time><name>PT4687</name></trkpt>
<trkpt lat="53.209214" lon="-2.025221"><ele>338</ele><time>2020-10-17T13:45:57Z</time><name>PT4688</name></trkpt>
<trkpt lat="53.209237" lon="-2.025290"><ele>338</ele><time>2020-10-17T13:46:01Z</time><name>PT4689</name></trkpt>
<trkpt lat="53.209268" lon="-2.025361"><ele>340</ele><time>2020-10-17T13:46:05Z</time><name>PT4690</name></trkpt>
<trkpt lat="53.209289" lon="-2.025419"><ele>341</ele><time>2020-10-17T13:46:08Z</time><name>PT4691</name></trkpt>
<trkpt lat="53.209313" lon="-2.025475"><ele>341</ele><time>2020-10-17T13:46:12Z</time><name>PT4692</name></trkpt>
<trkpt lat="53.209332" lon="-2.025500"><ele>341</ele><time>2020-10-17T13:46:15Z</time><name>PT4693</name></trkpt>
<trkpt lat="53.209357" lon="-2.025547"><ele>341</ele><time>2020-10-17T13:46:19Z</time><name>PT4694</name></trkpt>
<trkpt lat="53.209383" lon="-2.025622"><ele>340</ele><time>2020-10-17T13:46:23Z</time><name>PT4695</name></trkpt>
<trkpt lat="53.209396" lon="-2.025676"><ele>339</ele><time>2020-10-17T13:46:27Z</time><name>PT4696</name></trkpt>
<trkpt lat="53.209413" lon="-2.025752"><ele>337</ele><time>2020-10-17T13:46:31Z</time><name>PT4697</name></trkpt>
<trkpt lat="53.209429" lon="-2.025811"><ele>338</ele><time>2020-10-17T13:46:34Z</time><name>PT4698</name></trkpt>
<trkpt lat="53.209450" lon="-2.025860"><ele>338</ele><time>2020-10-17T13:46:37Z</time><name>PT4699</name></trkpt>
<trkpt lat="53.209458" lon="-2.025889"><ele>338</ele><time>2020-10-17T13:46:40Z</time><name>PT4700</name></trkpt>
<trkpt lat="53.209478" lon="-2.025926"><ele>338</ele><time>2020-10-17T13:46:43Z</time><name>PT4701</name></trkpt>
<trkpt lat="53.209487" lon="-2.025984"><ele>338</ele><time>2020-10-17T13:46:47Z</time><name>PT4702</name></trkpt>
<trkpt lat="53.209496" lon="-2.026009"><ele>337</ele><time>2020-10-17T13:46:50Z</time><name>PT4703</name></trkpt>
<trkpt lat="53.209489" lon="-2.026024"><ele>339</ele><time>2020-10-17T13:46:53Z</time><name>PT4704</name></trkpt>
<trkpt lat="53.209508" lon="-2.026086"><ele>337</ele><time>2020-10-17T13:47:00Z</time><name>PT4705</name></trkpt>
<trkpt lat="53.209530" lon="-2.026126"><ele>338</ele><time>2020-10-17T13:47:04Z</time><name>PT4706</name></trkpt>
<trkpt lat="53.209538" lon="-2.026143"><ele>337</ele><time>2020-10-17T13:47:07Z</time><name>PT4707</name></trkpt>
<trkpt lat="53.209537" lon="-2.026145"><ele>337</ele><time>2020-10-17T13:47:10Z</time><name>PT4708</name></trkpt>
<trkpt lat="53.209545" lon="-2.026154"><ele>337</ele><time>2020-10-17T13:47:17Z</time><name>PT4709</name></trkpt>
<trkpt lat="53.209539" lon="-2.026160"><ele>338</ele><time>2020-10-17T13:47:21Z</time><name>PT4710</name></trkpt>
<trkpt lat="53.209563" lon="-2.026215"><ele>339</ele><time>2020-10-17T13:47:25Z</time><name>PT4711</name></trkpt>
<trkpt lat="53.209591" lon="-2.026265"><ele>339</ele><time>2020-10-17T13:47:28Z</time><name>PT4712</name></trkpt>
<trkpt lat="53.209617" lon="-2.026320"><ele>338</ele><time>2020-10-17T13:47:32Z</time><name>PT4713</name></trkpt>
<trkpt lat="53.209626" lon="-2.026363"><ele>338</ele><time>2020-10-17T13:47:35Z</time><name>PT4714</name></trkpt>
<trkpt lat="53.209640" lon="-2.026407"><ele>340</ele><time>2020-10-17T13:47:38Z</time><name>PT4715</name></trkpt>
<trkpt lat="53.209675" lon="-2.026470"><ele>341</ele><time>2020-10-17T13:47:42Z</time><name>PT4716</name></trkpt>
<trkpt lat="53.209704" lon="-2.026516"><ele>340</ele><time>2020-10-17T13:47:46Z</time><name>PT4717</name></trkpt>
<trkpt lat="53.209710" lon="-2.026530"><ele>341</ele><time>2020-10-17T13:47:48Z</time><name>PT4718</name></trkpt>
<trkpt lat="53.209711" lon="-2.026533"><ele>341</ele><time>2020-10-17T13:47:49Z</time><name>PT4719</name></trkpt>
<trkpt lat="53.209710" lon="-2.026535"><ele>340</ele><time>2020-10-17T13:47:50Z</time><name>PT4720</name></trkpt>
<trkpt lat="53.209708" lon="-2.026541"><ele>340</ele><time>2020-10-17T13:47:54Z</time><name>PT4721</name></trkpt>
<trkpt lat="53.209709" lon="-2.026553"><ele>340</ele><time>2020-10-17T13:47:55Z</time><name>PT4722</name></trkpt>
<trkpt lat="53.209712" lon="-2.026563"><ele>339</ele><time>2020-10-17T13:47:56Z</time><name>PT4723</name></trkpt>
<trkpt lat="53.209715" lon="-2.026568"><ele>339</ele><time>2020-10-17T13:47:57Z</time><name>PT4724</name></trkpt>
<trkpt lat="53.209724" lon="-2.026575"><ele>338</ele><time>2020-10-17T13:47:58Z</time><name>PT4725</name></trkpt>
<trkpt lat="53.209729" lon="-2.026575"><ele>338</ele><time>2020-10-17T13:47:59Z</time><name>PT4726</name></trkpt>
<trkpt lat="53.209730" lon="-2.026585"><ele>338</ele><time>2020-10-17T13:48:00Z</time><name>PT4727</name></trkpt>
<trkpt lat="53.209729" lon="-2.026587"><ele>338</ele><time>2020-10-17T13:48:01Z</time><name>PT4728</name></trkpt>
<trkpt lat="53.209732" lon="-2.026591"><ele>338</ele><time>2020-10-17T13:48:02Z</time><name>PT4729</name></trkpt>
<trkpt lat="53.209738" lon="-2.026593"><ele>338</ele><time>2020-10-17T13:48:03Z</time><name>PT4730</name></trkpt>
<trkpt lat="53.209745" lon="-2.026595"><ele>338</ele><time>2020-10-17T13:48:05Z</time><name>PT4731</name></trkpt>
<trkpt lat="53.209744" lon="-2.026592"><ele>338</ele><time>2020-10-17T13:48:06Z</time><name>PT4732</name></trkpt>
<trkpt lat="53.209743" lon="-2.026590"><ele>338</ele><time>2020-10-17T13:48:07Z</time><name>PT4733</name></trkpt>
<trkpt lat="53.209743" lon="-2.026587"><ele>338</ele><time>2020-10-17T13:48:08Z</time><name>PT4734</name></trkpt>
<trkpt lat="53.209740" lon="-2.026588"><ele>338</ele><time>2020-10-17T13:48:11Z</time><name>PT4735</name></trkpt>
<trkpt lat="53.209743" lon="-2.026584"><ele>337</ele><time>2020-10-17T13:48:12Z</time><name>PT4736</name></trkpt>
<trkpt lat="53.209745" lon="-2.026583"><ele>337</ele><time>2020-10-17T13:48:13Z</time><name>PT4737</name></trkpt>
<trkpt lat="53.209749" lon="-2.026575"><ele>336</ele><time>2020-10-17T13:48:33Z</time><name>PT4738</name></trkpt>
<trkpt lat="53.209749" lon="-2.026581"><ele>336</ele><time>2020-10-17T13:48:34Z</time><name>PT4739</name></trkpt>
<trkpt lat="53.209744" lon="-2.026590"><ele>335</ele><time>2020-10-17T13:48:35Z</time><name>PT4740</name></trkpt>
<trkpt lat="53.209735" lon="-2.026598"><ele>335</ele><time>2020-10-17T13:48:36Z</time><name>PT4741</name></trkpt>
<trkpt lat="53.209745" lon="-2.026574"><ele>334</ele><time>2020-10-17T13:49:03Z</time><name>PT4742</name></trkpt>
<trkpt lat="53.209746" lon="-2.026573"><ele>334</ele><time>2020-10-17T13:49:04Z</time><name>PT4743</name></trkpt>
<trkpt lat="53.209747" lon="-2.026570"><ele>334</ele><time>2020-10-17T13:49:05Z</time><name>PT4744</name></trkpt>
<trkpt lat="53.209771" lon="-2.026607"><ele>335</ele><time>2020-10-17T13:49:14Z</time><name>PT4745</name></trkpt>
<trkpt lat="53.209780" lon="-2.026616"><ele>334</ele><time>2020-10-17T13:49:15Z</time><name>PT4746</name></trkpt>
<trkpt lat="53.209781" lon="-2.026617"><ele>332</ele><time>2020-10-17T13:49:16Z</time><name>PT4747</name></trkpt>
<trkpt lat="53.209793" lon="-2.026629"><ele>331</ele><time>2020-10-17T13:49:17Z</time><name>PT4748</name></trkpt>
<trkpt lat="53.209803" lon="-2.026628"><ele>330</ele><time>2020-10-17T13:49:18Z</time><name>PT4749</name></trkpt>
<trkpt lat="53.209816" lon="-2.026632"><ele>330</ele><time>2020-10-17T13:49:19Z</time><name>PT4750</name></trkpt>
<trkpt lat="53.209827" lon="-2.026635"><ele>329</ele><time>2020-10-17T13:49:20Z</time><name>PT4751</name></trkpt>
<trkpt lat="53.209839" lon="-2.026637"><ele>328</ele><time>2020-10-17T13:49:21Z</time><name>PT4752</name></trkpt>
<trkpt lat="53.209848" lon="-2.026641"><ele>328</ele><time>2020-10-17T13:49:22Z</time><name>PT4753</name></trkpt>
<trkpt lat="53.209860" lon="-2.026647"><ele>327</ele><time>2020-10-17T13:49:23Z</time><name>PT4754</name></trkpt>
<trkpt lat="53.209867" lon="-2.026645"><ele>327</ele><time>2020-10-17T13:49:24Z</time><name>PT4755</name></trkpt>
<trkpt lat="53.209876" lon="-2.026641"><ele>327</ele><time>2020-10-17T13:49:25Z</time><name>PT4756</name></trkpt>
<trkpt lat="53.209879" lon="-2.026635"><ele>327</ele><time>2020-10-17T13:49:26Z</time><name>PT4757</name></trkpt>
<trkpt lat="53.209888" lon="-2.026627"><ele>327</ele><time>2020-10-17T13:49:27Z</time><name>PT4758</name></trkpt>
<trkpt lat="53.209893" lon="-2.026620"><ele>327</ele><time>2020-10-17T13:49:28Z</time><name>PT4759</name></trkpt>
<trkpt lat="53.209901" lon="-2.026625"><ele>327</ele><time>2020-10-17T13:49:29Z</time><name>PT4760</name></trkpt>
<trkpt lat="53.209906" lon="-2.026627"><ele>327</ele><time>2020-10-17T13:49:30Z</time><name>PT4761</name></trkpt>
<trkpt lat="53.209911" lon="-2.026629"><ele>327</ele><time>2020-10-17T13:49:31Z</time><name>PT4762</name></trkpt>
<trkpt lat="53.209917" lon="-2.026613"><ele>325</ele><time>2020-10-17T13:49:39Z</time><name>PT4763</name></trkpt>
<trkpt lat="53.209921" lon="-2.026605"><ele>324</ele><time>2020-10-17T13:49:40Z</time><name>PT4764</name></trkpt>
<trkpt lat="53.209928" lon="-2.026583"><ele>324</ele><time>2020-10-17T13:49:41Z</time><name>PT4765</name></trkpt>
<trkpt lat="53.209937" lon="-2.026576"><ele>323</ele><time>2020-10-17T13:49:42Z</time><name>PT4766</name></trkpt>
<trkpt lat="53.209946" lon="-2.026572"><ele>322</ele><time>2020-10-17T13:49:43Z</time><name>PT4767</name></trkpt>
<trkpt lat="53.209948" lon="-2.026564"><ele>322</ele><time>2020-10-17T13:49:44Z</time><name>PT4768</name></trkpt>
<trkpt lat="53.209952" lon="-2.026555"><ele>322</ele><time>2020-10-17T13:49:45Z</time><name>PT4769</name></trkpt>
<trkpt lat="53.209948" lon="-2.026546"><ele>320</ele><time>2020-10-17T13:49:46Z</time><name>PT4770</name></trkpt>
<trkpt lat="53.209955" lon="-2.026545"><ele>319</ele><time>2020-10-17T13:49:47Z</time><name>PT4771</name></trkpt>
<trkpt lat="53.209956" lon="-2.026537"><ele>318</ele><time>2020-10-17T13:49:48Z</time><name>PT4772</name></trkpt>
<trkpt lat="53.209956" lon="-2.026533"><ele>317</ele><time>2020-10-17T13:49:49Z</time><name>PT4773</name></trkpt>
<trkpt lat="53.209960" lon="-2.026530"><ele>316</ele><time>2020-10-17T13:49:50Z</time><name>PT4774</name></trkpt>
<trkpt lat="53.209965" lon="-2.026529"><ele>316</ele><time>2020-10-17T13:49:51Z</time><name>PT4775</name></trkpt>
<trkpt lat="53.209970" lon="-2.026523"><ele>315</ele><time>2020-10-17T13:49:52Z</time><name>PT4776</name></trkpt>
<trkpt lat="53.209976" lon="-2.026520"><ele>315</ele><time>2020-10-17T13:49:53Z</time><name>PT4777</name></trkpt>
<trkpt lat="53.209981" lon="-2.026512"><ele>314</ele><time>2020-10-17T13:49:54Z</time><name>PT4778</name></trkpt>
<trkpt lat="53.209987" lon="-2.026497"><ele>314</ele><time>2020-10-17T13:49:55Z</time><name>PT4779</name></trkpt>
<trkpt lat="53.209994" lon="-2.026487"><ele>315</ele><time>2020-10-17T13:49:56Z</time><name>PT4780</name></trkpt>
<trkpt lat="53.209997" lon="-2.026477"><ele>314</ele><time>2020-10-17T13:49:57Z</time><name>PT4781</name></trkpt>
<trkpt lat="53.209999" lon="-2.026467"><ele>314</ele><time>2020-10-17T13:49:58Z</time><name>PT4782</name></trkpt>
<trkpt lat="53.210006" lon="-2.026448"><ele>314</ele><time>2020-10-17T13:49:59Z</time><name>PT4783</name></trkpt>
<trkpt lat="53.210016" lon="-2.026434"><ele>314</ele><time>2020-10-17T13:50:00Z</time><name>PT4784</name></trkpt>
<trkpt lat="53.210026" lon="-2.026423"><ele>315</ele><time>2020-10-17T13:50:01Z</time><name>PT4785</name></trkpt>
<trkpt lat="53.210031" lon="-2.026421"><ele>316</ele><time>2020-10-17T13:50:02Z</time><name>PT4786</name></trkpt>
<trkpt lat="53.210039" lon="-2.026416"><ele>316</ele><time>2020-10-17T13:50:04Z</time><name>PT4787</name></trkpt>
<trkpt lat="53.210046" lon="-2.026411"><ele>316</ele><time>2020-10-17T13:50:04Z</time><name>PT4788</name></trkpt>
<trkpt lat="53.210060" lon="-2.026403"><ele>317</ele><time>2020-10-17T13:50:05Z</time><name>PT4789</name></trkpt>
<trkpt lat="53.210069" lon="-2.026396"><ele>317</ele><time>2020-10-17T13:50:06Z</time><name>PT4790</name></trkpt>
<trkpt lat="53.210076" lon="-2.026383"><ele>318</ele><time>2020-10-17T13:50:07Z</time><name>PT4791</name></trkpt>
<trkpt lat="53.210084" lon="-2.026369"><ele>318</ele><time>2020-10-17T13:50:08Z</time><name>PT4792</name></trkpt>
<trkpt lat="53.210094" lon="-2.026357"><ele>319</ele><time>2020-10-17T13:50:09Z</time><name>PT4793</name></trkpt>
<trkpt lat="53.210099" lon="-2.026348"><ele>318</ele><time>2020-10-17T13:50:10Z</time><name>PT4794</name></trkpt>
<trkpt lat="53.210108" lon="-2.026334"><ele>319</ele><time>2020-10-17T13:50:11Z</time><name>PT4795</name></trkpt>
<trkpt lat="53.210117" lon="-2.026322"><ele>319</ele><time>2020-10-17T13:50:12Z</time><name>PT4796</name></trkpt>
<trkpt lat="53.210123" lon="-2.026308"><ele>318</ele><time>2020-10-17T13:50:13Z</time><name>PT4797</name></trkpt>
<trkpt lat="53.210130" lon="-2.026297"><ele>318</ele><time>2020-10-17T13:50:14Z</time><name>PT4798</name></trkpt>
<trkpt lat="53.210136" lon="-2.026287"><ele>319</ele><time>2020-10-17T13:50:15Z</time><name>PT4799</name></trkpt>
<trkpt lat="53.210141" lon="-2.026272"><ele>319</ele><time>2020-10-17T13:50:16Z</time><name>PT4800</name></trkpt>
<trkpt lat="53.210152" lon="-2.026259"><ele>320</ele><time>2020-10-17T13:50:17Z</time><name>PT4801</name></trkpt>
<trkpt lat="53.210167" lon="-2.026251"><ele>321</ele><time>2020-10-17T13:50:19Z</time><name>PT4802</name></trkpt>
<trkpt lat="53.210172" lon="-2.026237"><ele>320</ele><time>2020-10-17T13:50:19Z</time><name>PT4803</name></trkpt>
<trkpt lat="53.210184" lon="-2.026222"><ele>322</ele><time>2020-10-17T13:50:20Z</time><name>PT4804</name></trkpt>
<trkpt lat="53.210195" lon="-2.026207"><ele>322</ele><time>2020-10-17T13:50:21Z</time><name>PT4805</name></trkpt>
<trkpt lat="53.210204" lon="-2.026197"><ele>322</ele><time>2020-10-17T13:50:22Z</time><name>PT4806</name></trkpt>
<trkpt lat="53.210209" lon="-2.026196"><ele>322</ele><time>2020-10-17T13:50:23Z</time><name>PT4807</name></trkpt>
<trkpt lat="53.210215" lon="-2.026190"><ele>322</ele><time>2020-10-17T13:50:24Z</time><name>PT4808</name></trkpt>
<trkpt lat="53.210219" lon="-2.026176"><ele>322</ele><time>2020-10-17T13:50:25Z</time><name>PT4809</name></trkpt>
<trkpt lat="53.210228" lon="-2.026161"><ele>322</ele><time>2020-10-17T13:50:26Z</time><name>PT4810</name></trkpt>
<trkpt lat="53.210238" lon="-2.026148"><ele>322</ele><time>2020-10-17T13:50:27Z</time><name>PT4811</name></trkpt>
<trkpt lat="53.210244" lon="-2.026135"><ele>322</ele><time>2020-10-17T13:50:28Z</time><name>PT4812</name></trkpt>
<trkpt lat="53.210251" lon="-2.026126"><ele>322</ele><time>2020-10-17T13:50:29Z</time><name>PT4813</name></trkpt>
<trkpt lat="53.210256" lon="-2.026113"><ele>322</ele><time>2020-10-17T13:50:30Z</time><name>PT4814</name></trkpt>
<trkpt lat="53.210263" lon="-2.026101"><ele>321</ele><time>2020-10-17T13:50:31Z</time><name>PT4815</name></trkpt>
<trkpt lat="53.210275" lon="-2.026086"><ele>321</ele><time>2020-10-17T13:50:32Z</time><name>PT4816</name></trkpt>
<trkpt lat="53.210285" lon="-2.026076"><ele>322</ele><time>2020-10-17T13:50:33Z</time><name>PT4817</name></trkpt>
<trkpt lat="53.210293" lon="-2.026062"><ele>321</ele><time>2020-10-17T13:50:34Z</time><name>PT4818</name></trkpt>
<trkpt lat="53.210299" lon="-2.026047"><ele>320</ele><time>2020-10-17T13:50:35Z</time><name>PT4819</name></trkpt>
<trkpt lat="53.210303" lon="-2.026035"><ele>320</ele><time>2020-10-17T13:50:36Z</time><name>PT4820</name></trkpt>
<trkpt lat="53.210304" lon="-2.026028"><ele>319</ele><time>2020-10-17T13:50:37Z</time><name>PT4821</name></trkpt>
<trkpt lat="53.210302" lon="-2.026016"><ele>317</ele><time>2020-10-17T13:50:38Z</time><name>PT4822</name></trkpt>
<trkpt lat="53.210306" lon="-2.026005"><ele>317</ele><time>2020-10-17T13:50:39Z</time><name>PT4823</name></trkpt>
<trkpt lat="53.210319" lon="-2.025996"><ele>317</ele><time>2020-10-17T13:50:40Z</time><name>PT4824</name></trkpt>
<trkpt lat="53.210318" lon="-2.025989"><ele>315</ele><time>2020-10-17T13:50:41Z</time><name>PT4825</name></trkpt>
<trkpt lat="53.210320" lon="-2.025979"><ele>314</ele><time>2020-10-17T13:50:42Z</time><name>PT4826</name></trkpt>
<trkpt lat="53.210327" lon="-2.025975"><ele>314</ele><time>2020-10-17T13:50:43Z</time><name>PT4827</name></trkpt>
<trkpt lat="53.210334" lon="-2.025962"><ele>314</ele><time>2020-10-17T13:50:44Z</time><name>PT4828</name></trkpt>
<trkpt lat="53.210339" lon="-2.025952"><ele>315</ele><time>2020-10-17T13:50:45Z</time><name>PT4829</name></trkpt>
<trkpt lat="53.210342" lon="-2.025942"><ele>313</ele><time>2020-10-17T13:50:46Z</time><name>PT4830</name></trkpt>
<trkpt lat="53.210350" lon="-2.025933"><ele>313</ele><time>2020-10-17T13:50:47Z</time><name>PT4831</name></trkpt>
<trkpt lat="53.210355" lon="-2.025922"><ele>312</ele><time>2020-10-17T13:50:48Z</time><name>PT4832</name></trkpt>
<trkpt lat="53.210361" lon="-2.025912"><ele>312</ele><time>2020-10-17T13:50:49Z</time><name>PT4833</name></trkpt>
<trkpt lat="53.210373" lon="-2.025902"><ele>312</ele><time>2020-10-17T13:50:50Z</time><name>PT4834</name></trkpt>
<trkpt lat="53.210385" lon="-2.025889"><ele>311</ele><time>2020-10-17T13:50:51Z</time><name>PT4835</name></trkpt>
<trkpt lat="53.210391" lon="-2.025872"><ele>311</ele><time>2020-10-17T13:50:52Z</time><name>PT4836</name></trkpt>
<trkpt lat="53.210390" lon="-2.025851"><ele>311</ele><time>2020-10-17T13:50:53Z</time><name>PT4837</name></trkpt>
<trkpt lat="53.210394" lon="-2.025845"><ele>310</ele><time>2020-10-17T13:50:54Z</time><name>PT4838</name></trkpt>
<trkpt lat="53.210394" lon="-2.025827"><ele>310</ele><time>2020-10-17T13:50:55Z</time><name>PT4839</name></trkpt>
<trkpt lat="53.210394" lon="-2.025822"><ele>309</ele><time>2020-10-17T13:50:56Z</time><name>PT4840</name></trkpt>
<trkpt lat="53.210402" lon="-2.025816"><ele>310</ele><time>2020-10-17T13:50:57Z</time><name>PT4841</name></trkpt>
<trkpt lat="53.210408" lon="-2.025805"><ele>309</ele><time>2020-10-17T13:50:58Z</time><name>PT4842</name></trkpt>
<trkpt lat="53.210412" lon="-2.025796"><ele>309</ele><time>2020-10-17T13:50:59Z</time><name>PT4843</name></trkpt>
<trkpt lat="53.210421" lon="-2.025789"><ele>309</ele><time>2020-10-17T13:51:00Z</time><name>PT4844</name></trkpt>
<trkpt lat="53.210427" lon="-2.025771"><ele>309</ele><time>2020-10-17T13:51:01Z</time><name>PT4845</name></trkpt>
<trkpt lat="53.210432" lon="-2.025764"><ele>309</ele><time>2020-10-17T13:51:02Z</time><name>PT4846</name></trkpt>
<trkpt lat="53.210464" lon="-2.025738"><ele>309</ele><time>2020-10-17T13:51:05Z</time><name>PT4847</name></trkpt>
<trkpt lat="53.210499" lon="-2.025700"><ele>311</ele><time>2020-10-17T13:51:09Z</time><name>PT4848</name></trkpt>
<trkpt lat="53.210519" lon="-2.025657"><ele>311</ele><time>2020-10-17T13:51:12Z</time><name>PT4849</name></trkpt>
<trkpt lat="53.210565" lon="-2.025627"><ele>311</ele><time>2020-10-17T13:51:16Z</time><name>PT4850</name></trkpt>
<trkpt lat="53.210588" lon="-2.025603"><ele>310</ele><time>2020-10-17T13:51:19Z</time><name>PT4851</name></trkpt>
<trkpt lat="53.210604" lon="-2.025579"><ele>309</ele><time>2020-10-17T13:51:22Z</time><name>PT4852</name></trkpt>
<trkpt lat="53.210638" lon="-2.025536"><ele>310</ele><time>2020-10-17T13:51:25Z</time><name>PT4853</name></trkpt>
<trkpt lat="53.210676" lon="-2.025486"><ele>311</ele><time>2020-10-17T13:51:28Z</time><name>PT4854</name></trkpt>
<trkpt lat="53.210686" lon="-2.025445"><ele>310</ele><time>2020-10-17T13:51:31Z</time><name>PT4855</name></trkpt>
<trkpt lat="53.210736" lon="-2.025417"><ele>313</ele><time>2020-10-17T13:51:35Z</time><name>PT4856</name></trkpt>
<trkpt lat="53.210745" lon="-2.025399"><ele>313</ele><time>2020-10-17T13:51:38Z</time><name>PT4857</name></trkpt>
<trkpt lat="53.210751" lon="-2.025380"><ele>310</ele><time>2020-10-17T13:51:42Z</time><name>PT4858</name></trkpt>
<trkpt lat="53.210766" lon="-2.025346"><ele>308</ele><time>2020-10-17T13:51:45Z</time><name>PT4859</name></trkpt>
<trkpt lat="53.210774" lon="-2.025328"><ele>306</ele><time>2020-10-17T13:51:48Z</time><name>PT4860</name></trkpt>
<trkpt lat="53.210794" lon="-2.025316"><ele>305</ele><time>2020-10-17T13:51:52Z</time><name>PT4861</name></trkpt>
<trkpt lat="53.210819" lon="-2.025343"><ele>305</ele><time>2020-10-17T13:51:55Z</time><name>PT4862</name></trkpt>
<trkpt lat="53.210838" lon="-2.025317"><ele>304</ele><time>2020-10-17T13:51:59Z</time><name>PT4863</name></trkpt>
<trkpt lat="53.210865" lon="-2.025304"><ele>306</ele><time>2020-10-17T13:52:02Z</time><name>PT4864</name></trkpt>
<trkpt lat="53.210856" lon="-2.025292"><ele>304</ele><time>2020-10-17T13:52:05Z</time><name>PT4865</name></trkpt>
<trkpt lat="53.210881" lon="-2.025266"><ele>306</ele><time>2020-10-17T13:52:09Z</time><name>PT4866</name></trkpt>
<trkpt lat="53.210888" lon="-2.025255"><ele>306</ele><time>2020-10-17T13:52:12Z</time><name>PT4867</name></trkpt>
<trkpt lat="53.210896" lon="-2.025231"><ele>305</ele><time>2020-10-17T13:52:15Z</time><name>PT4868</name></trkpt>
<trkpt lat="53.210946" lon="-2.025226"><ele>309</ele><time>2020-10-17T13:52:19Z</time><name>PT4869</name></trkpt>
<trkpt lat="53.210956" lon="-2.025227"><ele>309</ele><time>2020-10-17T13:52:23Z</time><name>PT4870</name></trkpt>
<trkpt lat="53.210969" lon="-2.025237"><ele>309</ele><time>2020-10-17T13:52:27Z</time><name>PT4871</name></trkpt>
<trkpt lat="53.210975" lon="-2.025231"><ele>310</ele><time>2020-10-17T13:52:34Z</time><name>PT4872</name></trkpt>
<trkpt lat="53.210975" lon="-2.025219"><ele>309</ele><time>2020-10-17T13:52:37Z</time><name>PT4873</name></trkpt>
<trkpt lat="53.210985" lon="-2.025234"><ele>309</ele><time>2020-10-17T13:52:40Z</time><name>PT4874</name></trkpt>
<trkpt lat="53.211011" lon="-2.025251"><ele>309</ele><time>2020-10-17T13:52:44Z</time><name>PT4875</name></trkpt>
<trkpt lat="53.211047" lon="-2.025270"><ele>308</ele><time>2020-10-17T13:52:48Z</time><name>PT4876</name></trkpt>
<trkpt lat="53.211092" lon="-2.025272"><ele>308</ele><time>2020-10-17T13:52:52Z</time><name>PT4877</name></trkpt>
<trkpt lat="53.211134" lon="-2.025272"><ele>307</ele><time>2020-10-17T13:52:56Z</time><name>PT4878</name></trkpt>
<trkpt lat="53.211181" lon="-2.025288"><ele>306</ele><time>2020-10-17T13:53:00Z</time><name>PT4879</name></trkpt>
<trkpt lat="53.211221" lon="-2.025309"><ele>305</ele><time>2020-10-17T13:53:04Z</time><name>PT4880</name></trkpt>
<trkpt lat="53.211253" lon="-2.025333"><ele>305</ele><time>2020-10-17T13:53:07Z</time><name>PT4881</name></trkpt>
<trkpt lat="53.211290" lon="-2.025350"><ele>304</ele><time>2020-10-17T13:53:10Z</time><name>PT4882</name></trkpt>
<trkpt lat="53.211327" lon="-2.025368"><ele>304</ele><time>2020-10-17T13:53:13Z</time><name>PT4883</name></trkpt>
<trkpt lat="53.211361" lon="-2.025363"><ele>303</ele><time>2020-10-17T13:53:16Z</time><name>PT4884</name></trkpt>
<trkpt lat="53.211405" lon="-2.025343"><ele>304</ele><time>2020-10-17T13:53:20Z</time><name>PT4885</name></trkpt>
<trkpt lat="53.211437" lon="-2.025302"><ele>303</ele><time>2020-10-17T13:53:24Z</time><name>PT4886</name></trkpt>
<trkpt lat="53.211472" lon="-2.025245"><ele>303</ele><time>2020-10-17T13:53:28Z</time><name>PT4887</name></trkpt>
<trkpt lat="53.211501" lon="-2.025207"><ele>303</ele><time>2020-10-17T13:53:31Z</time><name>PT4888</name></trkpt>
<trkpt lat="53.211530" lon="-2.025152"><ele>303</ele><time>2020-10-17T13:53:35Z</time><name>PT4889</name></trkpt>
<trkpt lat="53.211576" lon="-2.025117"><ele>304</ele><time>2020-10-17T13:53:39Z</time><name>PT4890</name></trkpt>
<trkpt lat="53.211609" lon="-2.025093"><ele>304</ele><time>2020-10-17T13:53:42Z</time><name>PT4891</name></trkpt>
<trkpt lat="53.211640" lon="-2.025064"><ele>304</ele><time>2020-10-17T13:53:45Z</time><name>PT4892</name></trkpt>
<trkpt lat="53.211680" lon="-2.025028"><ele>305</ele><time>2020-10-17T13:53:49Z</time><name>PT4893</name></trkpt>
<trkpt lat="53.211721" lon="-2.024985"><ele>306</ele><time>2020-10-17T13:53:53Z</time><name>PT4894</name></trkpt>
<trkpt lat="53.211747" lon="-2.024944"><ele>306</ele><time>2020-10-17T13:53:56Z</time><name>PT4895</name></trkpt>
<trkpt lat="53.211788" lon="-2.024893"><ele>307</ele><time>2020-10-17T13:54:00Z</time><name>PT4896</name></trkpt>
<trkpt lat="53.211812" lon="-2.024858"><ele>307</ele><time>2020-10-17T13:54:03Z</time><name>PT4897</name></trkpt>
<trkpt lat="53.211837" lon="-2.024803"><ele>307</ele><time>2020-10-17T13:54:07Z</time><name>PT4898</name></trkpt>
<trkpt lat="53.211872" lon="-2.024751"><ele>307</ele><time>2020-10-17T13:54:11Z</time><name>PT4899</name></trkpt>
<trkpt lat="53.211907" lon="-2.024706"><ele>307</ele><time>2020-10-17T13:54:15Z</time><name>PT4900</name></trkpt>
<trkpt lat="53.211932" lon="-2.024660"><ele>307</ele><time>2020-10-17T13:54:18Z</time><name>PT4901</name></trkpt>
<trkpt lat="53.211961" lon="-2.024611"><ele>307</ele><time>2020-10-17T13:54:21Z</time><name>PT4902</name></trkpt>
<trkpt lat="53.211996" lon="-2.024553"><ele>307</ele><time>2020-10-17T13:54:25Z</time><name>PT4903</name></trkpt>
<trkpt lat="53.212022" lon="-2.024510"><ele>307</ele><time>2020-10-17T13:54:28Z</time><name>PT4904</name></trkpt>
<trkpt lat="53.212053" lon="-2.024451"><ele>307</ele><time>2020-10-17T13:54:32Z</time><name>PT4905</name></trkpt>
<trkpt lat="53.212072" lon="-2.024403"><ele>307</ele><time>2020-10-17T13:54:35Z</time><name>PT4906</name></trkpt>
<trkpt lat="53.212108" lon="-2.024356"><ele>308</ele><time>2020-10-17T13:54:39Z</time><name>PT4907</name></trkpt>
<trkpt lat="53.212132" lon="-2.024314"><ele>308</ele><time>2020-10-17T13:54:42Z</time><name>PT4908</name></trkpt>
<trkpt lat="53.212155" lon="-2.024264"><ele>307</ele><time>2020-10-17T13:54:46Z</time><name>PT4909</name></trkpt>
<trkpt lat="53.212174" lon="-2.024224"><ele>308</ele><time>2020-10-17T13:54:49Z</time><name>PT4910</name></trkpt>
<trkpt lat="53.212205" lon="-2.024172"><ele>308</ele><time>2020-10-17T13:54:53Z</time><name>PT4911</name></trkpt>
<trkpt lat="53.212233" lon="-2.024158"><ele>307</ele><time>2020-10-17T13:54:56Z</time><name>PT4912</name></trkpt>
<trkpt lat="53.212263" lon="-2.024151"><ele>308</ele><time>2020-10-17T13:54:59Z</time><name>PT4913</name></trkpt>
<trkpt lat="53.212298" lon="-2.024125"><ele>308</ele><time>2020-10-17T13:55:03Z</time><name>PT4914</name></trkpt>
<trkpt lat="53.212326" lon="-2.024106"><ele>309</ele><time>2020-10-17T13:55:06Z</time><name>PT4915</name></trkpt>
<trkpt lat="53.212364" lon="-2.024079"><ele>308</ele><time>2020-10-17T13:55:10Z</time><name>PT4916</name></trkpt>
<trkpt lat="53.212393" lon="-2.024038"><ele>308</ele><time>2020-10-17T13:55:14Z</time><name>PT4917</name></trkpt>
<trkpt lat="53.212412" lon="-2.024012"><ele>309</ele><time>2020-10-17T13:55:17Z</time><name>PT4918</name></trkpt>
<trkpt lat="53.212449" lon="-2.023984"><ele>309</ele><time>2020-10-17T13:55:21Z</time><name>PT4919</name></trkpt>
<trkpt lat="53.212463" lon="-2.023954"><ele>309</ele><time>2020-10-17T13:55:24Z</time><name>PT4920</name></trkpt>
<trkpt lat="53.212470" lon="-2.023887"><ele>308</ele><time>2020-10-17T13:55:28Z</time><name>PT4921</name></trkpt>
<trkpt lat="53.212476" lon="-2.023844"><ele>307</ele><time>2020-10-17T13:55:32Z</time><name>PT4922</name></trkpt>
<trkpt lat="53.212489" lon="-2.023848"><ele>306</ele><time>2020-10-17T13:55:35Z</time><name>PT4923</name></trkpt>
<trkpt lat="53.212488" lon="-2.023845"><ele>304</ele><time>2020-10-17T13:55:38Z</time><name>PT4924</name></trkpt>
<trkpt lat="53.212490" lon="-2.023845"><ele>304</ele><time>2020-10-17T13:55:42Z</time><name>PT4925</name></trkpt>
<trkpt lat="53.212502" lon="-2.023826"><ele>304</ele><time>2020-10-17T13:55:46Z</time><name>PT4926</name></trkpt>
<trkpt lat="53.212519" lon="-2.023817"><ele>304</ele><time>2020-10-17T13:55:49Z</time><name>PT4927</name></trkpt>
<trkpt lat="53.212531" lon="-2.023813"><ele>304</ele><time>2020-10-17T13:55:52Z</time><name>PT4928</name></trkpt>
<trkpt lat="53.212555" lon="-2.023826"><ele>303</ele><time>2020-10-17T13:55:56Z</time><name>PT4929</name></trkpt>
<trkpt lat="53.212587" lon="-2.023821"><ele>304</ele><time>2020-10-17T13:56:00Z</time><name>PT4930</name></trkpt>
<trkpt lat="53.212622" lon="-2.023802"><ele>305</ele><time>2020-10-17T13:56:04Z</time><name>PT4931</name></trkpt>
<trkpt lat="53.212651" lon="-2.023785"><ele>303</ele><time>2020-10-17T13:56:08Z</time><name>PT4932</name></trkpt>
<trkpt lat="53.212682" lon="-2.023799"><ele>301</ele><time>2020-10-17T13:56:12Z</time><name>PT4933</name></trkpt>
<trkpt lat="53.212710" lon="-2.023803"><ele>300</ele><time>2020-10-17T13:56:15Z</time><name>PT4934</name></trkpt>
<trkpt lat="53.212757" lon="-2.023766"><ele>302</ele><time>2020-10-17T13:56:19Z</time><name>PT4935</name></trkpt>
<trkpt lat="53.212805" lon="-2.023738"><ele>303</ele><time>2020-10-17T13:56:22Z</time><name>PT4936</name></trkpt>
<trkpt lat="53.212842" lon="-2.023719"><ele>303</ele><time>2020-10-17T13:56:25Z</time><name>PT4937</name></trkpt>
<trkpt lat="53.212880" lon="-2.023705"><ele>303</ele><time>2020-10-17T13:56:28Z</time><name>PT4938</name></trkpt>
<trkpt lat="53.212927" lon="-2.023694"><ele>304</ele><time>2020-10-17T13:56:31Z</time><name>PT4939</name></trkpt>
<trkpt lat="53.212968" lon="-2.023674"><ele>305</ele><time>2020-10-17T13:56:34Z</time><name>PT4940</name></trkpt>
<trkpt lat="53.213022" lon="-2.023650"><ele>306</ele><time>2020-10-17T13:56:38Z</time><name>PT4941</name></trkpt>
<trkpt lat="53.213062" lon="-2.023635"><ele>306</ele><time>2020-10-17T13:56:41Z</time><name>PT4942</name></trkpt>
<trkpt lat="53.213098" lon="-2.023623"><ele>306</ele><time>2020-10-17T13:56:44Z</time><name>PT4943</name></trkpt>
<trkpt lat="53.213150" lon="-2.023600"><ele>307</ele><time>2020-10-17T13:56:48Z</time><name>PT4944</name></trkpt>
<trkpt lat="53.213188" lon="-2.023577"><ele>306</ele><time>2020-10-17T13:56:52Z</time><name>PT4945</name></trkpt>
<trkpt lat="53.213215" lon="-2.023545"><ele>306</ele><time>2020-10-17T13:56:55Z</time><name>PT4946</name></trkpt>
<trkpt lat="53.213246" lon="-2.023518"><ele>305</ele><time>2020-10-17T13:56:58Z</time><name>PT4947</name></trkpt>
<trkpt lat="53.213282" lon="-2.023489"><ele>306</ele><time>2020-10-17T13:57:02Z</time><name>PT4948</name></trkpt>
<trkpt lat="53.213305" lon="-2.023472"><ele>307</ele><time>2020-10-17T13:57:05Z</time><name>PT4949</name></trkpt>
<trkpt lat="53.213327" lon="-2.023472"><ele>307</ele><time>2020-10-17T13:57:09Z</time><name>PT4950</name></trkpt>
<trkpt lat="53.213342" lon="-2.023452"><ele>306</ele><time>2020-10-17T13:57:12Z</time><name>PT4951</name></trkpt>
<trkpt lat="53.213381" lon="-2.023437"><ele>306</ele><time>2020-10-17T13:57:16Z</time><name>PT4952</name></trkpt>
<trkpt lat="53.213418" lon="-2.023423"><ele>305</ele><time>2020-10-17T13:57:19Z</time><name>PT4953</name></trkpt>
<trkpt lat="53.213471" lon="-2.023382"><ele>304</ele><time>2020-10-17T13:57:23Z</time><name>PT4954</name></trkpt>
<trkpt lat="53.213510" lon="-2.023350"><ele>304</ele><time>2020-10-17T13:57:26Z</time><name>PT4955</name></trkpt>
<trkpt lat="53.213551" lon="-2.023314"><ele>303</ele><time>2020-10-17T13:57:30Z</time><name>PT4956</name></trkpt>
<trkpt lat="53.213591" lon="-2.023287"><ele>303</ele><time>2020-10-17T13:57:34Z</time><name>PT4957</name></trkpt>
<trkpt lat="53.213633" lon="-2.023263"><ele>302</ele><time>2020-10-17T13:57:38Z</time><name>PT4958</name></trkpt>
<trkpt lat="53.213681" lon="-2.023228"><ele>302</ele><time>2020-10-17T13:57:42Z</time><name>PT4959</name></trkpt>
<trkpt lat="53.213714" lon="-2.023197"><ele>303</ele><time>2020-10-17T13:57:45Z</time><name>PT4960</name></trkpt>
<trkpt lat="53.213748" lon="-2.023182"><ele>303</ele><time>2020-10-17T13:57:48Z</time><name>PT4961</name></trkpt>
<trkpt lat="53.213799" lon="-2.023167"><ele>305</ele><time>2020-10-17T13:57:52Z</time><name>PT4962</name></trkpt>
<trkpt lat="53.213825" lon="-2.023135"><ele>304</ele><time>2020-10-17T13:57:55Z</time><name>PT4963</name></trkpt>
<trkpt lat="53.213860" lon="-2.023101"><ele>304</ele><time>2020-10-17T13:57:59Z</time><name>PT4964</name></trkpt>
<trkpt lat="53.213906" lon="-2.023075"><ele>304</ele><time>2020-10-17T13:58:03Z</time><name>PT4965</name></trkpt>
<trkpt lat="53.213941" lon="-2.023055"><ele>304</ele><time>2020-10-17T13:58:06Z</time><name>PT4966</name></trkpt>
<trkpt lat="53.213987" lon="-2.023033"><ele>304</ele><time>2020-10-17T13:58:10Z</time><name>PT4967</name></trkpt>
<trkpt lat="53.214026" lon="-2.023015"><ele>304</ele><time>2020-10-17T13:58:13Z</time><name>PT4968</name></trkpt>
<trkpt lat="53.214073" lon="-2.022988"><ele>304</ele><time>2020-10-17T13:58:17Z</time><name>PT4969</name></trkpt>
<trkpt lat="53.214105" lon="-2.022967"><ele>304</ele><time>2020-10-17T13:58:20Z</time><name>PT4970</name></trkpt>
<trkpt lat="53.214154" lon="-2.022942"><ele>305</ele><time>2020-10-17T13:58:24Z</time><name>PT4971</name></trkpt>
<trkpt lat="53.214186" lon="-2.022922"><ele>305</ele><time>2020-10-17T13:58:27Z</time><name>PT4972</name></trkpt>
<trkpt lat="53.214215" lon="-2.022902"><ele>305</ele><time>2020-10-17T13:58:30Z</time><name>PT4973</name></trkpt>
<trkpt lat="53.214246" lon="-2.022888"><ele>305</ele><time>2020-10-17T13:58:33Z</time><name>PT4974</name></trkpt>
<trkpt lat="53.214280" lon="-2.022863"><ele>302</ele><time>2020-10-17T13:58:37Z</time><name>PT4975</name></trkpt>
<trkpt lat="53.214322" lon="-2.022839"><ele>302</ele><time>2020-10-17T13:58:41Z</time><name>PT4976</name></trkpt>
<trkpt lat="53.214361" lon="-2.022826"><ele>303</ele><time>2020-10-17T13:58:44Z</time><name>PT4977</name></trkpt>
<trkpt lat="53.214399" lon="-2.022793"><ele>303</ele><time>2020-10-17T13:58:48Z</time><name>PT4978</name></trkpt>
<trkpt lat="53.214428" lon="-2.022777"><ele>303</ele><time>2020-10-17T13:58:51Z</time><name>PT4979</name></trkpt>
<trkpt lat="53.214437" lon="-2.022773"><ele>303</ele><time>2020-10-17T13:58:52Z</time><name>PT4980</name></trkpt>
<trkpt lat="53.214446" lon="-2.022763"><ele>304</ele><time>2020-10-17T13:58:53Z</time><name>PT4981</name></trkpt>
<trkpt lat="53.214457" lon="-2.022764"><ele>304</ele><time>2020-10-17T13:58:54Z</time><name>PT4982</name></trkpt>
<trkpt lat="53.214469" lon="-2.022766"><ele>304</ele><time>2020-10-17T13:58:55Z</time><name>PT4983</name></trkpt>
<trkpt lat="53.214476" lon="-2.022764"><ele>304</ele><time>2020-10-17T13:58:56Z</time><name>PT4984</name></trkpt>
<trkpt lat="53.214490" lon="-2.022758"><ele>304</ele><time>2020-10-17T13:58:57Z</time><name>PT4985</name></trkpt>
<trkpt lat="53.214504" lon="-2.022758"><ele>303</ele><time>2020-10-17T13:58:58Z</time><name>PT4986</name></trkpt>
<trkpt lat="53.214513" lon="-2.022761"><ele>303</ele><time>2020-10-17T13:58:59Z</time><name>PT4987</name></trkpt>
<trkpt lat="53.214523" lon="-2.022762"><ele>303</ele><time>2020-10-17T13:59:00Z</time><name>PT4988</name></trkpt>
<trkpt lat="53.214529" lon="-2.022763"><ele>303</ele><time>2020-10-17T13:59:01Z</time><name>PT4989</name></trkpt>
<trkpt lat="53.214535" lon="-2.022762"><ele>303</ele><time>2020-10-17T13:59:02Z</time><name>PT4990</name></trkpt>
<trkpt lat="53.214542" lon="-2.022764"><ele>303</ele><time>2020-10-17T13:59:03Z</time><name>PT4991</name></trkpt>
<trkpt lat="53.214550" lon="-2.022768"><ele>303</ele><time>2020-10-17T13:59:04Z</time><name>PT4992</name></trkpt>
<trkpt lat="53.214557" lon="-2.022768"><ele>303</ele><time>2020-10-17T13:59:05Z</time><name>PT4993</name></trkpt>
<trkpt lat="53.214566" lon="-2.022768"><ele>303</ele><time>2020-10-17T13:59:06Z</time><name>PT4994</name></trkpt>
<trkpt lat="53.214576" lon="-2.022771"><ele>304</ele><time>2020-10-17T13:59:07Z</time><name>PT4995</name></trkpt>
<trkpt lat="53.214588" lon="-2.022775"><ele>304</ele><time>2020-10-17T13:59:08Z</time><name>PT4996</name></trkpt>
<trkpt lat="53.214598" lon="-2.022775"><ele>304</ele><time>2020-10-17T13:59:09Z</time><name>PT4997</name></trkpt>
<trkpt lat="53.214608" lon="-2.022771"><ele>304</ele><time>2020-10-17T13:59:10Z</time><name>PT4998</name></trkpt>
<trkpt lat="53.214618" lon="-2.022772"><ele>304</ele><time>2020-10-17T13:59:11Z</time><name>PT4999</name></trkpt>
<trkpt lat="53.214628" lon="-2.022775"><ele>304</ele><time>2020-10-17T13:59:12Z</time><name>PT5000</name></trkpt>
<trkpt lat="53.214638" lon="-2.022777"><ele>304</ele><time>2020-10-17T13:59:13Z</time><name>PT5001</name></trkpt>
<trkpt lat="53.214648" lon="-2.022781"><ele>304</ele><time>2020-10-17T13:59:14Z</time><name>PT5002</name></trkpt>
<trkpt lat="53.214658" lon="-2.022784"><ele>304</ele><time>2020-10-17T13:59:15Z</time><name>PT5003</name></trkpt>
<trkpt lat="53.214669" lon="-2.022786"><ele>304</ele><time>2020-10-17T13:59:16Z</time><name>PT5004</name></trkpt>
<trkpt lat="53.214679" lon="-2.022785"><ele>304</ele><time>2020-10-17T13:59:17Z</time><name>PT5005</name></trkpt>
<trkpt lat="53.214688" lon="-2.022785"><ele>304</ele><time>2020-10-17T13:59:18Z</time><name>PT5006</name></trkpt>
<trkpt lat="53.214698" lon="-2.022787"><ele>304</ele><time>2020-10-17T13:59:19Z</time><name>PT5007</name></trkpt>
<trkpt lat="53.214708" lon="-2.022788"><ele>304</ele><time>2020-10-17T13:59:20Z</time><name>PT5008</name></trkpt>
<trkpt lat="53.214718" lon="-2.022787"><ele>304</ele><time>2020-10-17T13:59:21Z</time><name>PT5009</name></trkpt>
<trkpt lat="53.214729" lon="-2.022788"><ele>304</ele><time>2020-10-17T13:59:22Z</time><name>PT5010</name></trkpt>
<trkpt lat="53.214740" lon="-2.022789"><ele>304</ele><time>2020-10-17T13:59:23Z</time><name>PT5011</name></trkpt>
<trkpt lat="53.214750" lon="-2.022792"><ele>304</ele><time>2020-10-17T13:59:24Z</time><name>PT5012</name></trkpt>
<trkpt lat="53.214760" lon="-2.022793"><ele>304</ele><time>2020-10-17T13:59:25Z</time><name>PT5013</name></trkpt>
<trkpt lat="53.214770" lon="-2.022793"><ele>304</ele><time>2020-10-17T13:59:26Z</time><name>PT5014</name></trkpt>
<trkpt lat="53.214782" lon="-2.022793"><ele>304</ele><time>2020-10-17T13:59:27Z</time><name>PT5015</name></trkpt>
<trkpt lat="53.214791" lon="-2.022793"><ele>304</ele><time>2020-10-17T13:59:28Z</time><name>PT5016</name></trkpt>
<trkpt lat="53.214800" lon="-2.022793"><ele>304</ele><time>2020-10-17T13:59:29Z</time><name>PT5017</name></trkpt>
<trkpt lat="53.214810" lon="-2.022794"><ele>304</ele><time>2020-10-17T13:59:30Z</time><name>PT5018</name></trkpt>
<trkpt lat="53.214820" lon="-2.022795"><ele>304</ele><time>2020-10-17T13:59:31Z</time><name>PT5019</name></trkpt>
<trkpt lat="53.214823" lon="-2.022798"><ele>304</ele><time>2020-10-17T13:59:32Z</time><name>PT5020</name></trkpt>
<trkpt lat="53.214824" lon="-2.022798"><ele>304</ele><time>2020-10-17T13:59:33Z</time><name>PT5021</name></trkpt>
<trkpt lat="53.214825" lon="-2.022799"><ele>304</ele><time>2020-10-17T13:59:34Z</time><name>PT5022</name></trkpt>
<trkpt lat="53.214827" lon="-2.022800"><ele>304</ele><time>2020-10-17T13:59:35Z</time><name>PT5023</name></trkpt>
<trkpt lat="53.214832" lon="-2.022801"><ele>304</ele><time>2020-10-17T13:59:36Z</time><name>PT5024</name></trkpt>
<trkpt lat="53.214841" lon="-2.022799"><ele>304</ele><time>2020-10-17T13:59:37Z</time><name>PT5025</name></trkpt>
<trkpt lat="53.214850" lon="-2.022802"><ele>304</ele><time>2020-10-17T13:59:38Z</time><name>PT5026</name></trkpt>
<trkpt lat="53.214858" lon="-2.022802"><ele>304</ele><time>2020-10-17T13:59:39Z</time><name>PT5027</name></trkpt>
<trkpt lat="53.214864" lon="-2.022803"><ele>304</ele><time>2020-10-17T13:59:40Z</time><name>PT5028</name></trkpt>
<trkpt lat="53.214867" lon="-2.022805"><ele>304</ele><time>2020-10-17T13:59:41Z</time><name>PT5029</name></trkpt>
<trkpt lat="53.214867" lon="-2.022807"><ele>304</ele><time>2020-10-17T13:59:42Z</time><name>PT5030</name></trkpt>
<trkpt lat="53.214867" lon="-2.022807"><ele>304</ele><time>2020-10-17T13:59:43Z</time><name>PT5031</name></trkpt>
<trkpt lat="53.214869" lon="-2.022813"><ele>304</ele><time>2020-10-17T13:59:47Z</time><name>PT5032</name></trkpt>
<trkpt lat="53.214870" lon="-2.022817"><ele>304</ele><time>2020-10-17T13:59:48Z</time><name>PT5033</name></trkpt>
<trkpt lat="53.214870" lon="-2.022819"><ele>304</ele><time>2020-10-17T13:59:49Z</time><name>PT5034</name></trkpt>
<trkpt lat="53.214870" lon="-2.022822"><ele>304</ele><time>2020-10-17T13:59:50Z</time><name>PT5035</name></trkpt>
<trkpt lat="53.214871" lon="-2.022820"><ele>304</ele><time>2020-10-17T13:59:51Z</time><name>PT5036</name></trkpt>
<trkpt lat="53.214872" lon="-2.022818"><ele>304</ele><time>2020-10-17T13:59:52Z</time><name>PT5037</name></trkpt>
<trkpt lat="53.214871" lon="-2.022822"><ele>304</ele><time>2020-10-17T14:00:00Z</time><name>PT5038</name></trkpt>
<trkpt lat="53.214874" lon="-2.022823"><ele>305</ele><time>2020-10-17T14:00:01Z</time><name>PT5039</name></trkpt>
<trkpt lat="53.214880" lon="-2.022817"><ele>304</ele><time>2020-10-17T14:00:02Z</time><name>PT5040</name></trkpt>
<trkpt lat="53.214881" lon="-2.022816"><ele>304</ele><time>2020-10-17T14:00:03Z</time><name>PT5041</name></trkpt>
<trkpt lat="53.214881" lon="-2.022814"><ele>304</ele><time>2020-10-17T14:00:04Z</time><name>PT5042</name></trkpt>
<trkpt lat="53.214885" lon="-2.022813"><ele>304</ele><time>2020-10-17T14:00:05Z</time><name>PT5043</name></trkpt>
<trkpt lat="53.214884" lon="-2.022812"><ele>304</ele><time>2020-10-17T14:00:06Z</time><name>PT5044</name></trkpt>
<trkpt lat="53.214884" lon="-2.022813"><ele>304</ele><time>2020-10-17T14:00:07Z</time><name>PT5045</name></trkpt>
<trkpt lat="53.214887" lon="-2.022814"><ele>304</ele><time>2020-10-17T14:00:08Z</time><name>PT5046</name></trkpt>
<trkpt lat="53.214888" lon="-2.022813"><ele>304</ele><time>2020-10-17T14:00:09Z</time><name>PT5047</name></trkpt>
<trkpt lat="53.214889" lon="-2.022815"><ele>304</ele><time>2020-10-17T14:00:10Z</time><name>PT5048</name></trkpt>
<trkpt lat="53.214890" lon="-2.022818"><ele>304</ele><time>2020-10-17T14:00:11Z</time><name>PT5049</name></trkpt>
<trkpt lat="53.214891" lon="-2.022819"><ele>304</ele><time>2020-10-17T14:00:12Z</time><name>PT5050</name></trkpt>
<trkpt lat="53.214892" lon="-2.022820"><ele>304</ele><time>2020-10-17T14:00:13Z</time><name>PT5051</name></trkpt>
<trkpt lat="53.214893" lon="-2.022821"><ele>304</ele><time>2020-10-17T14:00:14Z</time><name>PT5052</name></trkpt>
<trkpt lat="53.214894" lon="-2.022824"><ele>304</ele><time>2020-10-17T14:00:18Z</time><name>PT5053</name></trkpt>
<trkpt lat="53.214895" lon="-2.022825"><ele>304</ele><time>2020-10-17T14:00:19Z</time><name>PT5054</name></trkpt>
<trkpt lat="53.214895" lon="-2.022828"><ele>304</ele><time>2020-10-17T14:00:20Z</time><name>PT5055</name></trkpt>
<trkpt lat="53.214895" lon="-2.022825"><ele>304</ele><time>2020-10-17T14:00:21Z</time><name>PT5056</name></trkpt>
<trkpt lat="53.214896" lon="-2.022827"><ele>303</ele><time>2020-10-17T14:00:22Z</time><name>PT5057</name></trkpt>
<trkpt lat="53.214897" lon="-2.022829"><ele>303</ele><time>2020-10-17T14:00:23Z</time><name>PT5058</name></trkpt>
<trkpt lat="53.214897" lon="-2.022828"><ele>303</ele><time>2020-10-17T14:00:24Z</time><name>PT5059</name></trkpt>
<trkpt lat="53.214898" lon="-2.022828"><ele>303</ele><time>2020-10-17T14:00:25Z</time><name>PT5060</name></trkpt>
<trkpt lat="53.214898" lon="-2.022825"><ele>303</ele><time>2020-10-17T14:00:26Z</time><name>PT5061</name></trkpt>
<trkpt lat="53.214897" lon="-2.022822"><ele>303</ele><time>2020-10-17T14:00:27Z</time><name>PT5062</name></trkpt>
<trkpt lat="53.214903" lon="-2.022818"><ele>303</ele><time>2020-10-17T14:00:31Z</time><name>PT5063</name></trkpt>
<trkpt lat="53.214906" lon="-2.022817"><ele>303</ele><time>2020-10-17T14:00:32Z</time><name>PT5064</name></trkpt>
<trkpt lat="53.214905" lon="-2.022811"><ele>303</ele><time>2020-10-17T14:00:33Z</time><name>PT5065</name></trkpt>
<trkpt lat="53.214908" lon="-2.022806"><ele>303</ele><time>2020-10-17T14:00:34Z</time><name>PT5066</name></trkpt>
<trkpt lat="53.214907" lon="-2.022803"><ele>303</ele><time>2020-10-17T14:00:35Z</time><name>PT5067</name></trkpt>
<trkpt lat="53.214906" lon="-2.022800"><ele>302</ele><time>2020-10-17T14:00:36Z</time><name>PT5068</name></trkpt>
<trkpt lat="53.214906" lon="-2.022796"><ele>302</ele><time>2020-10-17T14:00:37Z</time><name>PT5069</name></trkpt>
<trkpt lat="53.214905" lon="-2.022789"><ele>302</ele><time>2020-10-17T14:00:45Z</time><name>PT5070</name></trkpt>
<trkpt lat="53.214909" lon="-2.022785"><ele>302</ele><time>2020-10-17T14:00:46Z</time><name>PT5071</name></trkpt>
<trkpt lat="53.214910" lon="-2.022782"><ele>301</ele><time>2020-10-17T14:00:47Z</time><name>PT5072</name></trkpt>
<trkpt lat="53.214916" lon="-2.022773"><ele>302</ele><time>2020-10-17T14:00:48Z</time><name>PT5073</name></trkpt>
<trkpt lat="53.214920" lon="-2.022773"><ele>302</ele><time>2020-10-17T14:00:49Z</time><name>PT5074</name></trkpt>
<trkpt lat="53.214918" lon="-2.022777"><ele>302</ele><time>2020-10-17T14:00:50Z</time><name>PT5075</name></trkpt>
<trkpt lat="53.214919" lon="-2.022776"><ele>302</ele><time>2020-10-17T14:00:51Z</time><name>PT5076</name></trkpt>
<trkpt lat="53.214922" lon="-2.022780"><ele>302</ele><time>2020-10-17T14:00:58Z</time><name>PT5077</name></trkpt>
<trkpt lat="53.214924" lon="-2.022785"><ele>302</ele><time>2020-10-17T14:00:59Z</time><name>PT5078</name></trkpt>
<trkpt lat="53.214924" lon="-2.022826"><ele>301</ele><time>2020-10-17T14:01:00Z</time><name>PT5079</name></trkpt>
<trkpt lat="53.214938" lon="-2.022821"><ele>301</ele><time>2020-10-17T14:01:01Z</time><name>PT5080</name></trkpt>
<trkpt lat="53.214950" lon="-2.022828"><ele>300</ele><time>2020-10-17T14:01:02Z</time><name>PT5081</name></trkpt>
<trkpt lat="53.214958" lon="-2.022834"><ele>300</ele><time>2020-10-17T14:01:03Z</time><name>PT5082</name></trkpt>
<trkpt lat="53.214978" lon="-2.022854"><ele>300</ele><time>2020-10-17T14:01:04Z</time><name>PT5083</name></trkpt>
<trkpt lat="53.214990" lon="-2.022846"><ele>299</ele><time>2020-10-17T14:01:05Z</time><name>PT5084</name></trkpt>
<trkpt lat="53.215001" lon="-2.022852"><ele>299</ele><time>2020-10-17T14:01:06Z</time><name>PT5085</name></trkpt>
<trkpt lat="53.215013" lon="-2.022856"><ele>299</ele><time>2020-10-17T14:01:07Z</time><name>PT5086</name></trkpt>
<trkpt lat="53.215026" lon="-2.022865"><ele>299</ele><time>2020-10-17T14:01:08Z</time><name>PT5087</name></trkpt>
<trkpt lat="53.215036" lon="-2.022874"><ele>298</ele><time>2020-10-17T14:01:09Z</time><name>PT5088</name></trkpt>
<trkpt lat="53.215050" lon="-2.022883"><ele>297</ele><time>2020-10-17T14:01:10Z</time><name>PT5089</name></trkpt>
<trkpt lat="53.215060" lon="-2.022898"><ele>297</ele><time>2020-10-17T14:01:11Z</time><name>PT5090</name></trkpt>
<trkpt lat="53.215072" lon="-2.022910"><ele>297</ele><time>2020-10-17T14:01:12Z</time><name>PT5091</name></trkpt>
<trkpt lat="53.215082" lon="-2.022923"><ele>297</ele><time>2020-10-17T14:01:13Z</time><name>PT5092</name></trkpt>
<trkpt lat="53.215093" lon="-2.022939"><ele>296</ele><time>2020-10-17T14:01:14Z</time><name>PT5093</name></trkpt>
<trkpt lat="53.215115" lon="-2.022963"><ele>296</ele><time>2020-10-17T14:01:16Z</time><name>PT5094</name></trkpt>
<trkpt lat="53.215128" lon="-2.022975"><ele>295</ele><time>2020-10-17T14:01:17Z</time><name>PT5095</name></trkpt>
<trkpt lat="53.215138" lon="-2.022985"><ele>295</ele><time>2020-10-17T14:01:18Z</time><name>PT5096</name></trkpt>
<trkpt lat="53.215149" lon="-2.022994"><ele>295</ele><time>2020-10-17T14:01:19Z</time><name>PT5097</name></trkpt>
<trkpt lat="53.215158" lon="-2.023005"><ele>295</ele><time>2020-10-17T14:01:20Z</time><name>PT5098</name></trkpt>
<trkpt lat="53.215162" lon="-2.023018"><ele>295</ele><time>2020-10-17T14:01:21Z</time><name>PT5099</name></trkpt>
<trkpt lat="53.215171" lon="-2.023030"><ele>297</ele><time>2020-10-17T14:01:22Z</time><name>PT5100</name></trkpt>
<trkpt lat="53.215187" lon="-2.023041"><ele>297</ele><time>2020-10-17T14:01:23Z</time><name>PT5101</name></trkpt>
<trkpt lat="53.215193" lon="-2.023053"><ele>298</ele><time>2020-10-17T14:01:24Z</time><name>PT5102</name></trkpt>
<trkpt lat="53.215206" lon="-2.023062"><ele>298</ele><time>2020-10-17T14:01:25Z</time><name>PT5103</name></trkpt>
<trkpt lat="53.215216" lon="-2.023072"><ele>299</ele><time>2020-10-17T14:01:26Z</time><name>PT5104</name></trkpt>
<trkpt lat="53.215225" lon="-2.023083"><ele>298</ele><time>2020-10-17T14:01:27Z</time><name>PT5105</name></trkpt>
<trkpt lat="53.215235" lon="-2.023094"><ele>299</ele><time>2020-10-17T14:01:28Z</time><name>PT5106</name></trkpt>
<trkpt lat="53.215245" lon="-2.023106"><ele>299</ele><time>2020-10-17T14:01:29Z</time><name>PT5107</name></trkpt>
<trkpt lat="53.215253" lon="-2.023116"><ele>298</ele><time>2020-10-17T14:01:30Z</time><name>PT5108</name></trkpt>
<trkpt lat="53.215261" lon="-2.023128"><ele>298</ele><time>2020-10-17T14:01:31Z</time><name>PT5109</name></trkpt>
<trkpt lat="53.215272" lon="-2.023141"><ele>298</ele><time>2020-10-17T14:01:32Z</time><name>PT5110</name></trkpt>
<trkpt lat="53.215281" lon="-2.023153"><ele>298</ele><time>2020-10-17T14:01:33Z</time><name>PT5111</name></trkpt>
<trkpt lat="53.215290" lon="-2.023165"><ele>298</ele><time>2020-10-17T14:01:34Z</time><name>PT5112</name></trkpt>
<trkpt lat="53.215300" lon="-2.023177"><ele>298</ele><time>2020-10-17T14:01:35Z</time><name>PT5113</name></trkpt>
<trkpt lat="53.215312" lon="-2.023186"><ele>298</ele><time>2020-10-17T14:01:36Z</time><name>PT5114</name></trkpt>
<trkpt lat="53.215324" lon="-2.023197"><ele>298</ele><time>2020-10-17T14:01:37Z</time><name>PT5115</name></trkpt>
<trkpt lat="53.215336" lon="-2.023210"><ele>298</ele><time>2020-10-17T14:01:38Z</time><name>PT5116</name></trkpt>
<trkpt lat="53.215346" lon="-2.023222"><ele>298</ele><time>2020-10-17T14:01:39Z</time><name>PT5117</name></trkpt>
<trkpt lat="53.215356" lon="-2.023233"><ele>298</ele><time>2020-10-17T14:01:40Z</time><name>PT5118</name></trkpt>
<trkpt lat="53.215367" lon="-2.023243"><ele>298</ele><time>2020-10-17T14:01:41Z</time><name>PT5119</name></trkpt>
<trkpt lat="53.215378" lon="-2.023251"><ele>298</ele><time>2020-10-17T14:01:42Z</time><name>PT5120</name></trkpt>
<trkpt lat="53.215389" lon="-2.023259"><ele>298</ele><time>2020-10-17T14:01:43Z</time><name>PT5121</name></trkpt>
<trkpt lat="53.215400" lon="-2.023265"><ele>298</ele><time>2020-10-17T14:01:44Z</time><name>PT5122</name></trkpt>
<trkpt lat="53.215412" lon="-2.023264"><ele>298</ele><time>2020-10-17T14:01:45Z</time><name>PT5123</name></trkpt>
<trkpt lat="53.215420" lon="-2.023271"><ele>298</ele><time>2020-10-17T14:01:46Z</time><name>PT5124</name></trkpt>
<trkpt lat="53.215424" lon="-2.023278"><ele>298</ele><time>2020-10-17T14:01:47Z</time><name>PT5125</name></trkpt>
<trkpt lat="53.215428" lon="-2.023280"><ele>299</ele><time>2020-10-17T14:01:48Z</time><name>PT5126</name></trkpt>
<trkpt lat="53.215431" lon="-2.023289"><ele>298</ele><time>2020-10-17T14:01:49Z</time><name>PT5127</name></trkpt>
<trkpt lat="53.215432" lon="-2.023297"><ele>298</ele><time>2020-10-17T14:01:50Z</time><name>PT5128</name></trkpt>
<trkpt lat="53.215435" lon="-2.023305"><ele>298</ele><time>2020-10-17T14:01:51Z</time><name>PT5129</name></trkpt>
<trkpt lat="53.215442" lon="-2.023304"><ele>298</ele><time>2020-10-17T14:01:54Z</time><name>PT5130</name></trkpt>
<trkpt lat="53.215446" lon="-2.023293"><ele>298</ele><time>2020-10-17T14:01:58Z</time><name>PT5131</name></trkpt>
<trkpt lat="53.215452" lon="-2.023309"><ele>298</ele><time>2020-10-17T14:02:01Z</time><name>PT5132</name></trkpt>
<trkpt lat="53.215461" lon="-2.023305"><ele>297</ele><time>2020-10-17T14:02:05Z</time><name>PT5133</name></trkpt>
<trkpt lat="53.215470" lon="-2.023280"><ele>299</ele><time>2020-10-17T14:02:08Z</time><name>PT5134</name></trkpt>
<trkpt lat="53.215484" lon="-2.023271"><ele>298</ele><time>2020-10-17T14:02:12Z</time><name>PT5135</name></trkpt>
<trkpt lat="53.215498" lon="-2.023257"><ele>297</ele><time>2020-10-17T14:02:15Z</time><name>PT5136</name></trkpt>
<trkpt lat="53.215506" lon="-2.023269"><ele>295</ele><time>2020-10-17T14:02:19Z</time><name>PT5137</name></trkpt>
<trkpt lat="53.215504" lon="-2.023270"><ele>295</ele><time>2020-10-17T14:02:22Z</time><name>PT5138</name></trkpt>
<trkpt lat="53.215508" lon="-2.023276"><ele>295</ele><time>2020-10-17T14:02:30Z</time><name>PT5139</name></trkpt>
<trkpt lat="53.215533" lon="-2.023343"><ele>294</ele><time>2020-10-17T14:02:33Z</time><name>PT5140</name></trkpt>
<trkpt lat="53.215543" lon="-2.023390"><ele>291</ele><time>2020-10-17T14:02:37Z</time><name>PT5141</name></trkpt>
<trkpt lat="53.215556" lon="-2.023425"><ele>291</ele><time>2020-10-17T14:02:40Z</time><name>PT5142</name></trkpt>
<trkpt lat="53.215560" lon="-2.023470"><ele>294</ele><time>2020-10-17T14:02:43Z</time><name>PT5143</name></trkpt>
<trkpt lat="53.215571" lon="-2.023539"><ele>295</ele><time>2020-10-17T14:02:47Z</time><name>PT5144</name></trkpt>
<trkpt lat="53.215592" lon="-2.023588"><ele>294</ele><time>2020-10-17T14:02:50Z</time><name>PT5145</name></trkpt>
<trkpt lat="53.215615" lon="-2.023649"><ele>294</ele><time>2020-10-17T14:02:54Z</time><name>PT5146</name></trkpt>
<trkpt lat="53.215635" lon="-2.023709"><ele>294</ele><time>2020-10-17T14:02:58Z</time><name>PT5147</name></trkpt>
<trkpt lat="53.215650" lon="-2.023776"><ele>294</ele><time>2020-10-17T14:03:02Z</time><name>PT5148</name></trkpt>
<trkpt lat="53.215664" lon="-2.023820"><ele>293</ele><time>2020-10-17T14:03:05Z</time><name>PT5149</name></trkpt>
<trkpt lat="53.215676" lon="-2.023878"><ele>293</ele><time>2020-10-17T14:03:09Z</time><name>PT5150</name></trkpt>
<trkpt lat="53.215699" lon="-2.023928"><ele>292</ele><time>2020-10-17T14:03:13Z</time><name>PT5151</name></trkpt>
<trkpt lat="53.215711" lon="-2.023997"><ele>292</ele><time>2020-10-17T14:03:17Z</time><name>PT5152</name></trkpt>
<trkpt lat="53.215726" lon="-2.024068"><ele>292</ele><time>2020-10-17T14:03:21Z</time><name>PT5153</name></trkpt>
<trkpt lat="53.215741" lon="-2.024113"><ele>292</ele><time>2020-10-17T14:03:24Z</time><name>PT5154</name></trkpt>
<trkpt lat="53.215759" lon="-2.024170"><ele>291</ele><time>2020-10-17T14:03:28Z</time><name>PT5155</name></trkpt>
<trkpt lat="53.215774" lon="-2.024228"><ele>290</ele><time>2020-10-17T14:03:31Z</time><name>PT5156</name></trkpt>
<trkpt lat="53.215795" lon="-2.024298"><ele>289</ele><time>2020-10-17T14:03:35Z</time><name>PT5157</name></trkpt>
<trkpt lat="53.215814" lon="-2.024360"><ele>289</ele><time>2020-10-17T14:03:39Z</time><name>PT5158</name></trkpt>
<trkpt lat="53.215836" lon="-2.024444"><ele>287</ele><time>2020-10-17T14:03:43Z</time><name>PT5159</name></trkpt>
<trkpt lat="53.215842" lon="-2.024502"><ele>288</ele><time>2020-10-17T14:03:46Z</time><name>PT5160</name></trkpt>
<trkpt lat="53.215859" lon="-2.024541"><ele>291</ele><time>2020-10-17T14:03:50Z</time><name>PT5161</name></trkpt>
<trkpt lat="53.215856" lon="-2.024541"><ele>290</ele><time>2020-10-17T14:03:54Z</time><name>PT5162</name></trkpt>
<trkpt lat="53.215852" lon="-2.024493"><ele>288</ele><time>2020-10-17T14:03:57Z</time><name>PT5163</name></trkpt>
<trkpt lat="53.215836" lon="-2.024437"><ele>288</ele><time>2020-10-17T14:04:01Z</time><name>PT5164</name></trkpt>
<trkpt lat="53.215832" lon="-2.024421"><ele>290</ele><time>2020-10-17T14:04:04Z</time><name>PT5165</name></trkpt>
<trkpt lat="53.215834" lon="-2.024423"><ele>291</ele><time>2020-10-17T14:04:07Z</time><name>PT5166</name></trkpt>
<trkpt lat="53.215869" lon="-2.024504"><ele>290</ele><time>2020-10-17T14:04:11Z</time><name>PT5167</name></trkpt>
<trkpt lat="53.215874" lon="-2.024548"><ele>288</ele><time>2020-10-17T14:04:14Z</time><name>PT5168</name></trkpt>
<trkpt lat="53.215874" lon="-2.024593"><ele>287</ele><time>2020-10-17T14:04:18Z</time><name>PT5169</name></trkpt>
<trkpt lat="53.215884" lon="-2.024652"><ele>284</ele><time>2020-10-17T14:04:22Z</time><name>PT5170</name></trkpt>
<trkpt lat="53.215890" lon="-2.024670"><ele>284</ele><time>2020-10-17T14:04:25Z</time><name>PT5171</name></trkpt>
<trkpt lat="53.215883" lon="-2.024712"><ele>285</ele><time>2020-10-17T14:04:28Z</time><name>PT5172</name></trkpt>
<trkpt lat="53.215846" lon="-2.024863"><ele>284</ele><time>2020-10-17T14:04:32Z</time><name>PT5173</name></trkpt>
<trkpt lat="53.215821" lon="-2.024989"><ele>284</ele><time>2020-10-17T14:04:36Z</time><name>PT5174</name></trkpt>
<trkpt lat="53.215800" lon="-2.025070"><ele>284</ele><time>2020-10-17T14:04:40Z</time><name>PT5175</name></trkpt>
<trkpt lat="53.215772" lon="-2.025129"><ele>287</ele><time>2020-10-17T14:04:43Z</time><name>PT5176</name></trkpt>
<trkpt lat="53.215760" lon="-2.025149"><ele>290</ele><time>2020-10-17T14:04:46Z</time><name>PT5177</name></trkpt>
<trkpt lat="53.215754" lon="-2.025154"><ele>292</ele><time>2020-10-17T14:04:50Z</time><name>PT5178</name></trkpt>
<trkpt lat="53.215748" lon="-2.025186"><ele>292</ele><time>2020-10-17T14:04:54Z</time><name>PT5179</name></trkpt>
<trkpt lat="53.215725" lon="-2.025230"><ele>292</ele><time>2020-10-17T14:04:58Z</time><name>PT5180</name></trkpt>
<trkpt lat="53.215708" lon="-2.025283"><ele>292</ele><time>2020-10-17T14:05:02Z</time><name>PT5181</name></trkpt>
<trkpt lat="53.215700" lon="-2.025313"><ele>290</ele><time>2020-10-17T14:05:06Z</time><name>PT5182</name></trkpt>
<trkpt lat="53.215693" lon="-2.025351"><ele>288</ele><time>2020-10-17T14:05:09Z</time><name>PT5183</name></trkpt>
<trkpt lat="53.215688" lon="-2.025399"><ele>288</ele><time>2020-10-17T14:05:12Z</time><name>PT5184</name></trkpt>
<trkpt lat="53.215678" lon="-2.025412"><ele>286</ele><time>2020-10-17T14:05:16Z</time><name>PT5185</name></trkpt>
<trkpt lat="53.215669" lon="-2.025429"><ele>284</ele><time>2020-10-17T14:05:19Z</time><name>PT5186</name></trkpt>
<trkpt lat="53.215651" lon="-2.025477"><ele>283</ele><time>2020-10-17T14:05:22Z</time><name>PT5187</name></trkpt>
<trkpt lat="53.215593" lon="-2.025651"><ele>283</ele><time>2020-10-17T14:05:26Z</time><name>PT5188</name></trkpt>
<trkpt lat="53.215557" lon="-2.025762"><ele>284</ele><time>2020-10-17T14:05:29Z</time><name>PT5189</name></trkpt>
<trkpt lat="53.215547" lon="-2.025818"><ele>282</ele><time>2020-10-17T14:05:33Z</time><name>PT5190</name></trkpt>
<trkpt lat="53.215540" lon="-2.025857"><ele>281</ele><time>2020-10-17T14:05:36Z</time><name>PT5191</name></trkpt>
<trkpt lat="53.215531" lon="-2.025907"><ele>279</ele><time>2020-10-17T14:05:40Z</time><name>PT5192</name></trkpt>
<trkpt lat="53.215518" lon="-2.025930"><ele>278</ele><time>2020-10-17T14:05:43Z</time><name>PT5193</name></trkpt>
<trkpt lat="53.215509" lon="-2.025964"><ele>280</ele><time>2020-10-17T14:05:47Z</time><name>PT5194</name></trkpt>
<trkpt lat="53.215505" lon="-2.025987"><ele>279</ele><time>2020-10-17T14:05:50Z</time><name>PT5195</name></trkpt>
<trkpt lat="53.215489" lon="-2.026050"><ele>277</ele><time>2020-10-17T14:05:54Z</time><name>PT5196</name></trkpt>
<trkpt lat="53.215496" lon="-2.026065"><ele>279</ele><time>2020-10-17T14:05:58Z</time><name>PT5197</name></trkpt>
<trkpt lat="53.215487" lon="-2.026081"><ele>278</ele><time>2020-10-17T14:06:01Z</time><name>PT5198</name></trkpt>
<trkpt lat="53.215485" lon="-2.026084"><ele>278</ele><time>2020-10-17T14:06:05Z</time><name>PT5199</name></trkpt>
<trkpt lat="53.215483" lon="-2.026099"><ele>278</ele><time>2020-10-17T14:06:13Z</time><name>PT5200</name></trkpt>
<trkpt lat="53.215476" lon="-2.026120"><ele>278</ele><time>2020-10-17T14:06:14Z</time><name>PT5201</name></trkpt>
<trkpt lat="53.215471" lon="-2.026134"><ele>278</ele><time>2020-10-17T14:06:15Z</time><name>PT5202</name></trkpt>
<trkpt lat="53.215465" lon="-2.026151"><ele>278</ele><time>2020-10-17T14:06:16Z</time><name>PT5203</name></trkpt>
<trkpt lat="53.215462" lon="-2.026166"><ele>277</ele><time>2020-10-17T14:06:17Z</time><name>PT5204</name></trkpt>
<trkpt lat="53.215456" lon="-2.026184"><ele>277</ele><time>2020-10-17T14:06:18Z</time><name>PT5205</name></trkpt>
<trkpt lat="53.215450" lon="-2.026202"><ele>276</ele><time>2020-10-17T14:06:19Z</time><name>PT5206</name></trkpt>
<trkpt lat="53.215444" lon="-2.026216"><ele>276</ele><time>2020-10-17T14:06:20Z</time><name>PT5207</name></trkpt>
<trkpt lat="53.215439" lon="-2.026230"><ele>276</ele><time>2020-10-17T14:06:21Z</time><name>PT5208</name></trkpt>
<trkpt lat="53.215433" lon="-2.026246"><ele>275</ele><time>2020-10-17T14:06:22Z</time><name>PT5209</name></trkpt>
<trkpt lat="53.215425" lon="-2.026263"><ele>275</ele><time>2020-10-17T14:06:23Z</time><name>PT5210</name></trkpt>
<trkpt lat="53.215423" lon="-2.026282"><ele>275</ele><time>2020-10-17T14:06:24Z</time><name>PT5211</name></trkpt>
<trkpt lat="53.215417" lon="-2.026298"><ele>275</ele><time>2020-10-17T14:06:25Z</time><name>PT5212</name></trkpt>
<trkpt lat="53.215412" lon="-2.026315"><ele>274</ele><time>2020-10-17T14:06:26Z</time><name>PT5213</name></trkpt>
<trkpt lat="53.215406" lon="-2.026333"><ele>274</ele><time>2020-10-17T14:06:27Z</time><name>PT5214</name></trkpt>
<trkpt lat="53.215401" lon="-2.026351"><ele>274</ele><time>2020-10-17T14:06:28Z</time><name>PT5215</name></trkpt>
<trkpt lat="53.215395" lon="-2.026368"><ele>274</ele><time>2020-10-17T14:06:29Z</time><name>PT5216</name></trkpt>
<trkpt lat="53.215389" lon="-2.026382"><ele>274</ele><time>2020-10-17T14:06:31Z</time><name>PT5217</name></trkpt>
<trkpt lat="53.215385" lon="-2.026397"><ele>272</ele><time>2020-10-17T14:06:31Z</time><name>PT5218</name></trkpt>
<trkpt lat="53.215381" lon="-2.026415"><ele>272</ele><time>2020-10-17T14:06:32Z</time><name>PT5219</name></trkpt>
<trkpt lat="53.215376" lon="-2.026435"><ele>272</ele><time>2020-10-17T14:06:33Z</time><name>PT5220</name></trkpt>
<trkpt lat="53.215373" lon="-2.026454"><ele>271</ele><time>2020-10-17T14:06:34Z</time><name>PT5221</name></trkpt>
<trkpt lat="53.215367" lon="-2.026473"><ele>271</ele><time>2020-10-17T14:06:35Z</time><name>PT5222</name></trkpt>
<trkpt lat="53.215359" lon="-2.026488"><ele>270</ele><time>2020-10-17T14:06:36Z</time><name>PT5223</name></trkpt>
<trkpt lat="53.215354" lon="-2.026504"><ele>270</ele><time>2020-10-17T14:06:37Z</time><name>PT5224</name></trkpt>
<trkpt lat="53.215342" lon="-2.026522"><ele>270</ele><time>2020-10-17T14:06:38Z</time><name>PT5225</name></trkpt>
<trkpt lat="53.215334" lon="-2.026540"><ele>269</ele><time>2020-10-17T14:06:39Z</time><name>PT5226</name></trkpt>
<trkpt lat="53.215331" lon="-2.026558"><ele>268</ele><time>2020-10-17T14:06:40Z</time><name>PT5227</name></trkpt>
<trkpt lat="53.215328" lon="-2.026578"><ele>268</ele><time>2020-10-17T14:06:41Z</time><name>PT5228</name></trkpt>
<trkpt lat="53.215323" lon="-2.026600"><ele>267</ele><time>2020-10-17T14:06:42Z</time><name>PT5229</name></trkpt>
<trkpt lat="53.215319" lon="-2.026620"><ele>267</ele><time>2020-10-17T14:06:43Z</time><name>PT5230</name></trkpt>
<trkpt lat="53.215314" lon="-2.026639"><ele>267</ele><time>2020-10-17T14:06:44Z</time><name>PT5231</name></trkpt>
<trkpt lat="53.215311" lon="-2.026659"><ele>266</ele><time>2020-10-17T14:06:45Z</time><name>PT5232</name></trkpt>
<trkpt lat="53.215307" lon="-2.026676"><ele>266</ele><time>2020-10-17T14:06:46Z</time><name>PT5233</name></trkpt>
<trkpt lat="53.215303" lon="-2.026696"><ele>266</ele><time>2020-10-17T14:06:47Z</time><name>PT5234</name></trkpt>
<trkpt lat="53.215298" lon="-2.026715"><ele>266</ele><time>2020-10-17T14:06:48Z</time><name>PT5235</name></trkpt>
<trkpt lat="53.215295" lon="-2.026737"><ele>267</ele><time>2020-10-17T14:06:49Z</time><name>PT5236</name></trkpt>
<trkpt lat="53.215292" lon="-2.026758"><ele>266</ele><time>2020-10-17T14:06:50Z</time><name>PT5237</name></trkpt>
<trkpt lat="53.215288" lon="-2.026776"><ele>267</ele><time>2020-10-17T14:06:51Z</time><name>PT5238</name></trkpt>
<trkpt lat="53.215286" lon="-2.026802"><ele>268</ele><time>2020-10-17T14:06:52Z</time><name>PT5239</name></trkpt>
<trkpt lat="53.215279" lon="-2.026821"><ele>268</ele><time>2020-10-17T14:06:53Z</time><name>PT5240</name></trkpt>
<trkpt lat="53.215272" lon="-2.026842"><ele>268</ele><time>2020-10-17T14:06:54Z</time><name>PT5241</name></trkpt>
<trkpt lat="53.215268" lon="-2.026862"><ele>268</ele><time>2020-10-17T14:06:55Z</time><name>PT5242</name></trkpt>
<trkpt lat="53.215263" lon="-2.026883"><ele>268</ele><time>2020-10-17T14:06:56Z</time><name>PT5243</name></trkpt>
<trkpt lat="53.215257" lon="-2.026907"><ele>268</ele><time>2020-10-17T14:06:57Z</time><name>PT5244</name></trkpt>
<trkpt lat="53.215251" lon="-2.026930"><ele>268</ele><time>2020-10-17T14:06:58Z</time><name>PT5245</name></trkpt>
<trkpt lat="53.215248" lon="-2.026952"><ele>269</ele><time>2020-10-17T14:06:59Z</time><name>PT5246</name></trkpt>
<trkpt lat="53.215240" lon="-2.026969"><ele>269</ele><time>2020-10-17T14:07:00Z</time><name>PT5247</name></trkpt>
<trkpt lat="53.215232" lon="-2.026988"><ele>269</ele><time>2020-10-17T14:07:01Z</time><name>PT5248</name></trkpt>
<trkpt lat="53.215225" lon="-2.027013"><ele>270</ele><time>2020-10-17T14:07:02Z</time><name>PT5249</name></trkpt>
<trkpt lat="53.215219" lon="-2.027037"><ele>270</ele><time>2020-10-17T14:07:03Z</time><name>PT5250</name></trkpt>
<trkpt lat="53.215213" lon="-2.027061"><ele>270</ele><time>2020-10-17T14:07:04Z</time><name>PT5251</name></trkpt>
<trkpt lat="53.215207" lon="-2.027084"><ele>270</ele><time>2020-10-17T14:07:05Z</time><name>PT5252</name></trkpt>
<trkpt lat="53.215204" lon="-2.027101"><ele>270</ele><time>2020-10-17T14:07:06Z</time><name>PT5253</name></trkpt>
<trkpt lat="53.215198" lon="-2.027122"><ele>269</ele><time>2020-10-17T14:07:07Z</time><name>PT5254</name></trkpt>
<trkpt lat="53.215193" lon="-2.027144"><ele>269</ele><time>2020-10-17T14:07:08Z</time><name>PT5255</name></trkpt>
<trkpt lat="53.215189" lon="-2.027163"><ele>269</ele><time>2020-10-17T14:07:09Z</time><name>PT5256</name></trkpt>
<trkpt lat="53.215187" lon="-2.027182"><ele>268</ele><time>2020-10-17T14:07:10Z</time><name>PT5257</name></trkpt>
<trkpt lat="53.215185" lon="-2.027203"><ele>268</ele><time>2020-10-17T14:07:11Z</time><name>PT5258</name></trkpt>
<trkpt lat="53.215184" lon="-2.027226"><ele>267</ele><time>2020-10-17T14:07:12Z</time><name>PT5259</name></trkpt>
<trkpt lat="53.215186" lon="-2.027251"><ele>268</ele><time>2020-10-17T14:07:13Z</time><name>PT5260</name></trkpt>
<trkpt lat="53.215192" lon="-2.027273"><ele>267</ele><time>2020-10-17T14:07:14Z</time><name>PT5261</name></trkpt>
<trkpt lat="53.215198" lon="-2.027291"><ele>268</ele><time>2020-10-17T14:07:15Z</time><name>PT5262</name></trkpt>
<trkpt lat="53.215207" lon="-2.027303"><ele>268</ele><time>2020-10-17T14:07:16Z</time><name>PT5263</name></trkpt>
<trkpt lat="53.215216" lon="-2.027314"><ele>268</ele><time>2020-10-17T14:07:17Z</time><name>PT5264</name></trkpt>
<trkpt lat="53.215227" lon="-2.027324"><ele>268</ele><time>2020-10-17T14:07:18Z</time><name>PT5265</name></trkpt>
<trkpt lat="53.215236" lon="-2.027333"><ele>269</ele><time>2020-10-17T14:07:19Z</time><name>PT5266</name></trkpt>
<trkpt lat="53.215243" lon="-2.027336"><ele>269</ele><time>2020-10-17T14:07:20Z</time><name>PT5267</name></trkpt>
<trkpt lat="53.215247" lon="-2.027333"><ele>269</ele><time>2020-10-17T14:07:21Z</time><name>PT5268</name></trkpt>
<trkpt lat="53.215256" lon="-2.027337"><ele>269</ele><time>2020-10-17T14:07:22Z</time><name>PT5269</name></trkpt>
<trkpt lat="53.215268" lon="-2.027337"><ele>269</ele><time>2020-10-17T14:07:23Z</time><name>PT5270</name></trkpt>
<trkpt lat="53.215277" lon="-2.027334"><ele>269</ele><time>2020-10-17T14:07:24Z</time><name>PT5271</name></trkpt>
<trkpt lat="53.215289" lon="-2.027329"><ele>269</ele><time>2020-10-17T14:07:25Z</time><name>PT5272</name></trkpt>
<trkpt lat="53.215302" lon="-2.027325"><ele>269</ele><time>2020-10-17T14:07:26Z</time><name>PT5273</name></trkpt>
<trkpt lat="53.215313" lon="-2.027320"><ele>269</ele><time>2020-10-17T14:07:27Z</time><name>PT5274</name></trkpt>
<trkpt lat="53.215329" lon="-2.027315"><ele>270</ele><time>2020-10-17T14:07:28Z</time><name>PT5275</name></trkpt>
<trkpt lat="53.215344" lon="-2.027315"><ele>269</ele><time>2020-10-17T14:07:29Z</time><name>PT5276</name></trkpt>
<trkpt lat="53.215360" lon="-2.027315"><ele>269</ele><time>2020-10-17T14:07:30Z</time><name>PT5277</name></trkpt>
<trkpt lat="53.215375" lon="-2.027322"><ele>271</ele><time>2020-10-17T14:07:31Z</time><name>PT5278</name></trkpt>
<trkpt lat="53.215386" lon="-2.027316"><ele>271</ele><time>2020-10-17T14:07:32Z</time><name>PT5279</name></trkpt>
<trkpt lat="53.215399" lon="-2.027316"><ele>271</ele><time>2020-10-17T14:07:34Z</time><name>PT5280</name></trkpt>
<trkpt lat="53.215412" lon="-2.027313"><ele>272</ele><time>2020-10-17T14:07:34Z</time><name>PT5281</name></trkpt>
<trkpt lat="53.215424" lon="-2.027305"><ele>272</ele><time>2020-10-17T14:07:35Z</time><name>PT5282</name></trkpt>
<trkpt lat="53.215435" lon="-2.027302"><ele>273</ele><time>2020-10-17T14:07:36Z</time><name>PT5283</name></trkpt>
<trkpt lat="53.215441" lon="-2.027288"><ele>273</ele><time>2020-10-17T14:07:37Z</time><name>PT5284</name></trkpt>
<trkpt lat="53.215447" lon="-2.027285"><ele>274</ele><time>2020-10-17T14:07:38Z</time><name>PT5285</name></trkpt>
<trkpt lat="53.215459" lon="-2.027286"><ele>275</ele><time>2020-10-17T14:07:39Z</time><name>PT5286</name></trkpt>
<trkpt lat="53.215466" lon="-2.027293"><ele>275</ele><time>2020-10-17T14:07:40Z</time><name>PT5287</name></trkpt>
<trkpt lat="53.215479" lon="-2.027299"><ele>275</ele><time>2020-10-17T14:07:41Z</time><name>PT5288</name></trkpt>
<trkpt lat="53.215492" lon="-2.027296"><ele>276</ele><time>2020-10-17T14:07:42Z</time><name>PT5289</name></trkpt>
<trkpt lat="53.215505" lon="-2.027291"><ele>277</ele><time>2020-10-17T14:07:43Z</time><name>PT5290</name></trkpt>
<trkpt lat="53.215514" lon="-2.027285"><ele>276</ele><time>2020-10-17T14:07:44Z</time><name>PT5291</name></trkpt>
<trkpt lat="53.215531" lon="-2.027287"><ele>277</ele><time>2020-10-17T14:07:45Z</time><name>PT5292</name></trkpt>
<trkpt lat="53.215547" lon="-2.027287"><ele>277</ele><time>2020-10-17T14:07:46Z</time><name>PT5293</name></trkpt>
<trkpt lat="53.215560" lon="-2.027281"><ele>277</ele><time>2020-10-17T14:07:47Z</time><name>PT5294</name></trkpt>
<trkpt lat="53.215575" lon="-2.027278"><ele>278</ele><time>2020-10-17T14:07:48Z</time><name>PT5295</name></trkpt>
<trkpt lat="53.215592" lon="-2.027277"><ele>278</ele><time>2020-10-17T14:07:49Z</time><name>PT5296</name></trkpt>
<trkpt lat="53.215607" lon="-2.027268"><ele>276</ele><time>2020-10-17T14:07:50Z</time><name>PT5297</name></trkpt>
<trkpt lat="53.215618" lon="-2.027260"><ele>276</ele><time>2020-10-17T14:07:51Z</time><name>PT5298</name></trkpt>
<trkpt lat="53.215633" lon="-2.027259"><ele>275</ele><time>2020-10-17T14:07:52Z</time><name>PT5299</name></trkpt>
<trkpt lat="53.215649" lon="-2.027255"><ele>275</ele><time>2020-10-17T14:07:53Z</time><name>PT5300</name></trkpt>
<trkpt lat="53.215663" lon="-2.027254"><ele>275</ele><time>2020-10-17T14:07:54Z</time><name>PT5301</name></trkpt>
<trkpt lat="53.215680" lon="-2.027245"><ele>276</ele><time>2020-10-17T14:07:55Z</time><name>PT5302</name></trkpt>
<trkpt lat="53.215693" lon="-2.027240"><ele>276</ele><time>2020-10-17T14:07:56Z</time><name>PT5303</name></trkpt>
<trkpt lat="53.215714" lon="-2.027240"><ele>273</ele><time>2020-10-17T14:07:57Z</time><name>PT5304</name></trkpt>
<trkpt lat="53.215727" lon="-2.027247"><ele>271</ele><time>2020-10-17T14:07:58Z</time><name>PT5305</name></trkpt>
<trkpt lat="53.215742" lon="-2.027249"><ele>271</ele><time>2020-10-17T14:07:59Z</time><name>PT5306</name></trkpt>
<trkpt lat="53.215759" lon="-2.027236"><ele>272</ele><time>2020-10-17T14:08:00Z</time><name>PT5307</name></trkpt>
<trkpt lat="53.215770" lon="-2.027223"><ele>272</ele><time>2020-10-17T14:08:01Z</time><name>PT5308</name></trkpt>
<trkpt lat="53.215781" lon="-2.027211"><ele>272</ele><time>2020-10-17T14:08:02Z</time><name>PT5309</name></trkpt>
<trkpt lat="53.215796" lon="-2.027195"><ele>273</ele><time>2020-10-17T14:08:03Z</time><name>PT5310</name></trkpt>
<trkpt lat="53.215812" lon="-2.027195"><ele>273</ele><time>2020-10-17T14:08:04Z</time><name>PT5311</name></trkpt>
<trkpt lat="53.215827" lon="-2.027192"><ele>273</ele><time>2020-10-17T14:08:05Z</time><name>PT5312</name></trkpt>
<trkpt lat="53.215841" lon="-2.027187"><ele>273</ele><time>2020-10-17T14:08:06Z</time><name>PT5313</name></trkpt>
<trkpt lat="53.215856" lon="-2.027183"><ele>272</ele><time>2020-10-17T14:08:07Z</time><name>PT5314</name></trkpt>
<trkpt lat="53.215866" lon="-2.027169"><ele>272</ele><time>2020-10-17T14:08:08Z</time><name>PT5315</name></trkpt>
<trkpt lat="53.215879" lon="-2.027155"><ele>272</ele><time>2020-10-17T14:08:09Z</time><name>PT5316</name></trkpt>
<trkpt lat="53.215889" lon="-2.027148"><ele>272</ele><time>2020-10-17T14:08:10Z</time><name>PT5317</name></trkpt>
<trkpt lat="53.215904" lon="-2.027146"><ele>271</ele><time>2020-10-17T14:08:11Z</time><name>PT5318</name></trkpt>
<trkpt lat="53.215920" lon="-2.027140"><ele>272</ele><time>2020-10-17T14:08:12Z</time><name>PT5319</name></trkpt>
<trkpt lat="53.215932" lon="-2.027140"><ele>269</ele><time>2020-10-17T14:08:13Z</time><name>PT5320</name></trkpt>
<trkpt lat="53.215944" lon="-2.027136"><ele>268</ele><time>2020-10-17T14:08:14Z</time><name>PT5321</name></trkpt>
<trkpt lat="53.215956" lon="-2.027109"><ele>269</ele><time>2020-10-17T14:08:15Z</time><name>PT5322</name></trkpt>
<trkpt lat="53.215970" lon="-2.027092"><ele>270</ele><time>2020-10-17T14:08:16Z</time><name>PT5323</name></trkpt>
<trkpt lat="53.215980" lon="-2.027079"><ele>269</ele><time>2020-10-17T14:08:17Z</time><name>PT5324</name></trkpt>
<trkpt lat="53.215992" lon="-2.027064"><ele>270</ele><time>2020-10-17T14:08:18Z</time><name>PT5325</name></trkpt>
<trkpt lat="53.216005" lon="-2.027053"><ele>270</ele><time>2020-10-17T14:08:19Z</time><name>PT5326</name></trkpt>
<trkpt lat="53.216017" lon="-2.027035"><ele>270</ele><time>2020-10-17T14:08:20Z</time><name>PT5327</name></trkpt>
<trkpt lat="53.216023" lon="-2.027030"><ele>269</ele><time>2020-10-17T14:08:21Z</time><name>PT5328</name></trkpt>
<trkpt lat="53.216033" lon="-2.027025"><ele>268</ele><time>2020-10-17T14:08:22Z</time><name>PT5329</name></trkpt>
<trkpt lat="53.216044" lon="-2.027023"><ele>268</ele><time>2020-10-17T14:08:23Z</time><name>PT5330</name></trkpt>
<trkpt lat="53.216057" lon="-2.027012"><ele>268</ele><time>2020-10-17T14:08:24Z</time><name>PT5331</name></trkpt>
<trkpt lat="53.216065" lon="-2.026996"><ele>268</ele><time>2020-10-17T14:08:25Z</time><name>PT5332</name></trkpt>
<trkpt lat="53.216081" lon="-2.026997"><ele>268</ele><time>2020-10-17T14:08:26Z</time><name>PT5333</name></trkpt>
<trkpt lat="53.216086" lon="-2.026986"><ele>268</ele><time>2020-10-17T14:08:27Z</time><name>PT5334</name></trkpt>
<trkpt lat="53.216102" lon="-2.026977"><ele>268</ele><time>2020-10-17T14:08:28Z</time><name>PT5335</name></trkpt>
<trkpt lat="53.216114" lon="-2.026968"><ele>268</ele><time>2020-10-17T14:08:29Z</time><name>PT5336</name></trkpt>
<trkpt lat="53.216122" lon="-2.026947"><ele>267</ele><time>2020-10-17T14:08:30Z</time><name>PT5337</name></trkpt>
<trkpt lat="53.216130" lon="-2.026927"><ele>267</ele><time>2020-10-17T14:08:31Z</time><name>PT5338</name></trkpt>
<trkpt lat="53.216151" lon="-2.026926"><ele>269</ele><time>2020-10-17T14:08:32Z</time><name>PT5339</name></trkpt>
<trkpt lat="53.216165" lon="-2.026915"><ele>269</ele><time>2020-10-17T14:08:33Z</time><name>PT5340</name></trkpt>
<trkpt lat="53.216175" lon="-2.026912"><ele>269</ele><time>2020-10-17T14:08:34Z</time><name>PT5341</name></trkpt>
<trkpt lat="53.216176" lon="-2.026889"><ele>268</ele><time>2020-10-17T14:08:35Z</time><name>PT5342</name></trkpt>
<trkpt lat="53.216186" lon="-2.026873"><ele>269</ele><time>2020-10-17T14:08:36Z</time><name>PT5343</name></trkpt>
<trkpt lat="53.216199" lon="-2.026864"><ele>269</ele><time>2020-10-17T14:08:37Z</time><name>PT5344</name></trkpt>
<trkpt lat="53.216201" lon="-2.026847"><ele>267</ele><time>2020-10-17T14:08:38Z</time><name>PT5345</name></trkpt>
<trkpt lat="53.216216" lon="-2.026839"><ele>268</ele><time>2020-10-17T14:08:39Z</time><name>PT5346</name></trkpt>
<trkpt lat="53.216230" lon="-2.026831"><ele>268</ele><time>2020-10-17T14:08:40Z</time><name>PT5347</name></trkpt>
<trkpt lat="53.216241" lon="-2.026812"><ele>269</ele><time>2020-10-17T14:08:41Z</time><name>PT5348</name></trkpt>
<trkpt lat="53.216249" lon="-2.026800"><ele>267</ele><time>2020-10-17T14:08:43Z</time><name>PT5349</name></trkpt>
<trkpt lat="53.216257" lon="-2.026782"><ele>267</ele><time>2020-10-17T14:08:43Z</time><name>PT5350</name></trkpt>
<trkpt lat="53.216262" lon="-2.026759"><ele>266</ele><time>2020-10-17T14:08:44Z</time><name>PT5351</name></trkpt>
<trkpt lat="53.216267" lon="-2.026740"><ele>265</ele><time>2020-10-17T14:08:45Z</time><name>PT5352</name></trkpt>
<trkpt lat="53.216277" lon="-2.026727"><ele>264</ele><time>2020-10-17T14:08:46Z</time><name>PT5353</name></trkpt>
<trkpt lat="53.216284" lon="-2.026719"><ele>263</ele><time>2020-10-17T14:08:47Z</time><name>PT5354</name></trkpt>
<trkpt lat="53.216295" lon="-2.026710"><ele>263</ele><time>2020-10-17T14:08:48Z</time><name>PT5355</name></trkpt>
<trkpt lat="53.216305" lon="-2.026695"><ele>263</ele><time>2020-10-17T14:08:49Z</time><name>PT5356</name></trkpt>
<trkpt lat="53.216331" lon="-2.026688"><ele>264</ele><time>2020-10-17T14:08:50Z</time><name>PT5357</name></trkpt>
<trkpt lat="53.216387" lon="-2.026676"><ele>270</ele><time>2020-10-17T14:08:51Z</time><name>PT5358</name></trkpt>
<trkpt lat="53.216425" lon="-2.026661"><ele>274</ele><time>2020-10-17T14:08:52Z</time><name>PT5359</name></trkpt>
<trkpt lat="53.216456" lon="-2.026654"><ele>275</ele><time>2020-10-17T14:08:53Z</time><name>PT5360</name></trkpt>
<trkpt lat="53.216474" lon="-2.026649"><ele>276</ele><time>2020-10-17T14:08:54Z</time><name>PT5361</name></trkpt>
<trkpt lat="53.216490" lon="-2.026644"><ele>276</ele><time>2020-10-17T14:08:55Z</time><name>PT5362</name></trkpt>
<trkpt lat="53.216500" lon="-2.026635"><ele>276</ele><time>2020-10-17T14:08:56Z</time><name>PT5363</name></trkpt>
<trkpt lat="53.216509" lon="-2.026623"><ele>276</ele><time>2020-10-17T14:08:57Z</time><name>PT5364</name></trkpt>
<trkpt lat="53.216517" lon="-2.026616"><ele>276</ele><time>2020-10-17T14:08:58Z</time><name>PT5365</name></trkpt>
<trkpt lat="53.216524" lon="-2.026605"><ele>275</ele><time>2020-10-17T14:08:59Z</time><name>PT5366</name></trkpt>
<trkpt lat="53.216537" lon="-2.026604"><ele>274</ele><time>2020-10-17T14:09:00Z</time><name>PT5367</name></trkpt>
<trkpt lat="53.216555" lon="-2.026603"><ele>274</ele><time>2020-10-17T14:09:01Z</time><name>PT5368</name></trkpt>
<trkpt lat="53.216566" lon="-2.026598"><ele>274</ele><time>2020-10-17T14:09:02Z</time><name>PT5369</name></trkpt>
<trkpt lat="53.216574" lon="-2.026579"><ele>273</ele><time>2020-10-17T14:09:03Z</time><name>PT5370</name></trkpt>
<trkpt lat="53.216587" lon="-2.026570"><ele>273</ele><time>2020-10-17T14:09:04Z</time><name>PT5371</name></trkpt>
<trkpt lat="53.216599" lon="-2.026563"><ele>274</ele><time>2020-10-17T14:09:05Z</time><name>PT5372</name></trkpt>
<trkpt lat="53.216614" lon="-2.026563"><ele>275</ele><time>2020-10-17T14:09:06Z</time><name>PT5373</name></trkpt>
<trkpt lat="53.216633" lon="-2.026550"><ele>277</ele><time>2020-10-17T14:09:07Z</time><name>PT5374</name></trkpt>
<trkpt lat="53.216644" lon="-2.026539"><ele>277</ele><time>2020-10-17T14:09:08Z</time><name>PT5375</name></trkpt>
<trkpt lat="53.216655" lon="-2.026524"><ele>278</ele><time>2020-10-17T14:09:09Z</time><name>PT5376</name></trkpt>
<trkpt lat="53.216666" lon="-2.026506"><ele>279</ele><time>2020-10-17T14:09:10Z</time><name>PT5377</name></trkpt>
<trkpt lat="53.216684" lon="-2.026495"><ele>279</ele><time>2020-10-17T14:09:11Z</time><name>PT5378</name></trkpt>
<trkpt lat="53.216694" lon="-2.026487"><ele>279</ele><time>2020-10-17T14:09:12Z</time><name>PT5379</name></trkpt>
<trkpt lat="53.216697" lon="-2.026472"><ele>279</ele><time>2020-10-17T14:09:13Z</time><name>PT5380</name></trkpt>
<trkpt lat="53.216705" lon="-2.026458"><ele>280</ele><time>2020-10-17T14:09:14Z</time><name>PT5381</name></trkpt>
<trkpt lat="53.216723" lon="-2.026456"><ele>281</ele><time>2020-10-17T14:09:15Z</time><name>PT5382</name></trkpt>
<trkpt lat="53.216738" lon="-2.026450"><ele>281</ele><time>2020-10-17T14:09:16Z</time><name>PT5383</name></trkpt>
<trkpt lat="53.216746" lon="-2.026437"><ele>281</ele><time>2020-10-17T14:09:17Z</time><name>PT5384</name></trkpt>
<trkpt lat="53.216755" lon="-2.026426"><ele>281</ele><time>2020-10-17T14:09:18Z</time><name>PT5385</name></trkpt>
<trkpt lat="53.216767" lon="-2.026413"><ele>282</ele><time>2020-10-17T14:09:19Z</time><name>PT5386</name></trkpt>
<trkpt lat="53.216777" lon="-2.026404"><ele>283</ele><time>2020-10-17T14:09:20Z</time><name>PT5387</name></trkpt>
<trkpt lat="53.216787" lon="-2.026399"><ele>283</ele><time>2020-10-17T14:09:21Z</time><name>PT5388</name></trkpt>
<trkpt lat="53.216796" lon="-2.026391"><ele>282</ele><time>2020-10-17T14:09:22Z</time><name>PT5389</name></trkpt>
<trkpt lat="53.216813" lon="-2.026392"><ele>281</ele><time>2020-10-17T14:09:23Z</time><name>PT5390</name></trkpt>
<trkpt lat="53.216825" lon="-2.026382"><ele>281</ele><time>2020-10-17T14:09:24Z</time><name>PT5391</name></trkpt>
<trkpt lat="53.216835" lon="-2.026374"><ele>281</ele><time>2020-10-17T14:09:25Z</time><name>PT5392</name></trkpt>
<trkpt lat="53.216845" lon="-2.026368"><ele>280</ele><time>2020-10-17T14:09:26Z</time><name>PT5393</name></trkpt>
<trkpt lat="53.216864" lon="-2.026359"><ele>279</ele><time>2020-10-17T14:09:27Z</time><name>PT5394</name></trkpt>
<trkpt lat="53.216878" lon="-2.026375"><ele>275</ele><time>2020-10-17T14:09:28Z</time><name>PT5395</name></trkpt>
<trkpt lat="53.216890" lon="-2.026369"><ele>276</ele><time>2020-10-17T14:09:29Z</time><name>PT5396</name></trkpt>
<trkpt lat="53.216901" lon="-2.026356"><ele>276</ele><time>2020-10-17T14:09:30Z</time><name>PT5397</name></trkpt>
<trkpt lat="53.216910" lon="-2.026345"><ele>276</ele><time>2020-10-17T14:09:31Z</time><name>PT5398</name></trkpt>
<trkpt lat="53.216913" lon="-2.026335"><ele>275</ele><time>2020-10-17T14:09:32Z</time><name>PT5399</name></trkpt>
<trkpt lat="53.216922" lon="-2.026320"><ele>275</ele><time>2020-10-17T14:09:33Z</time><name>PT5400</name></trkpt>
<trkpt lat="53.216931" lon="-2.026309"><ele>275</ele><time>2020-10-17T14:09:34Z</time><name>PT5401</name></trkpt>
<trkpt lat="53.216940" lon="-2.026305"><ele>274</ele><time>2020-10-17T14:09:35Z</time><name>PT5402</name></trkpt>
<trkpt lat="53.216947" lon="-2.026297"><ele>274</ele><time>2020-10-17T14:09:36Z</time><name>PT5403</name></trkpt>
<trkpt lat="53.216948" lon="-2.026292"><ele>273</ele><time>2020-10-17T14:09:37Z</time><name>PT5404</name></trkpt>
<trkpt lat="53.216964" lon="-2.026292"><ele>272</ele><time>2020-10-17T14:09:38Z</time><name>PT5405</name></trkpt>
<trkpt lat="53.216981" lon="-2.026294"><ele>271</ele><time>2020-10-17T14:09:39Z</time><name>PT5406</name></trkpt>
<trkpt lat="53.216996" lon="-2.026292"><ele>271</ele><time>2020-10-17T14:09:40Z</time><name>PT5407</name></trkpt>
<trkpt lat="53.217008" lon="-2.026283"><ele>271</ele><time>2020-10-17T14:09:41Z</time><name>PT5408</name></trkpt>
<trkpt lat="53.217031" lon="-2.026284"><ele>271</ele><time>2020-10-17T14:09:42Z</time><name>PT5409</name></trkpt>
<trkpt lat="53.217030" lon="-2.026271"><ele>269</ele><time>2020-10-17T14:09:43Z</time><name>PT5410</name></trkpt>
<trkpt lat="53.217036" lon="-2.026259"><ele>269</ele><time>2020-10-17T14:09:44Z</time><name>PT5411</name></trkpt>
<trkpt lat="53.217050" lon="-2.026250"><ele>270</ele><time>2020-10-17T14:09:45Z</time><name>PT5412</name></trkpt>
<trkpt lat="53.217063" lon="-2.026249"><ele>270</ele><time>2020-10-17T14:09:46Z</time><name>PT5413</name></trkpt>
<trkpt lat="53.217071" lon="-2.026253"><ele>268</ele><time>2020-10-17T14:09:47Z</time><name>PT5414</name></trkpt>
<trkpt lat="53.217084" lon="-2.026250"><ele>268</ele><time>2020-10-17T14:09:48Z</time><name>PT5415</name></trkpt>
<trkpt lat="53.217093" lon="-2.026238"><ele>269</ele><time>2020-10-17T14:09:49Z</time><name>PT5416</name></trkpt>
<trkpt lat="53.217106" lon="-2.026231"><ele>268</ele><time>2020-10-17T14:09:50Z</time><name>PT5417</name></trkpt>
<trkpt lat="53.217118" lon="-2.026229"><ele>269</ele><time>2020-10-17T14:09:51Z</time><name>PT5418</name></trkpt>
<trkpt lat="53.217129" lon="-2.026224"><ele>268</ele><time>2020-10-17T14:09:52Z</time><name>PT5419</name></trkpt>
<trkpt lat="53.217143" lon="-2.026215"><ele>268</ele><time>2020-10-17T14:09:53Z</time><name>PT5420</name></trkpt>
<trkpt lat="53.217137" lon="-2.026198"><ele>267</ele><time>2020-10-17T14:09:54Z</time><name>PT5421</name></trkpt>
<trkpt lat="53.217146" lon="-2.026191"><ele>267</ele><time>2020-10-17T14:09:55Z</time><name>PT5422</name></trkpt>
<trkpt lat="53.217155" lon="-2.026176"><ele>268</ele><time>2020-10-17T14:09:56Z</time><name>PT5423</name></trkpt>
<trkpt lat="53.217174" lon="-2.026167"><ele>270</ele><time>2020-10-17T14:09:57Z</time><name>PT5424</name></trkpt>
<trkpt lat="53.217190" lon="-2.026162"><ele>270</ele><time>2020-10-17T14:09:58Z</time><name>PT5425</name></trkpt>
<trkpt lat="53.217201" lon="-2.026159"><ele>270</ele><time>2020-10-17T14:09:59Z</time><name>PT5426</name></trkpt>
<trkpt lat="53.217210" lon="-2.026151"><ele>271</ele><time>2020-10-17T14:10:00Z</time><name>PT5427</name></trkpt>
<trkpt lat="53.217219" lon="-2.026140"><ele>272</ele><time>2020-10-17T14:10:01Z</time><name>PT5428</name></trkpt>
<trkpt lat="53.217225" lon="-2.026132"><ele>274</ele><time>2020-10-17T14:10:02Z</time><name>PT5429</name></trkpt>
<trkpt lat="53.217241" lon="-2.026124"><ele>276</ele><time>2020-10-17T14:10:03Z</time><name>PT5430</name></trkpt>
<trkpt lat="53.217263" lon="-2.026123"><ele>278</ele><time>2020-10-17T14:10:04Z</time><name>PT5431</name></trkpt>
<trkpt lat="53.217274" lon="-2.026127"><ele>278</ele><time>2020-10-17T14:10:05Z</time><name>PT5432</name></trkpt>
<trkpt lat="53.217281" lon="-2.026123"><ele>278</ele><time>2020-10-17T14:10:06Z</time><name>PT5433</name></trkpt>
<trkpt lat="53.217296" lon="-2.026127"><ele>279</ele><time>2020-10-17T14:10:07Z</time><name>PT5434</name></trkpt>
<trkpt lat="53.217306" lon="-2.026122"><ele>280</ele><time>2020-10-17T14:10:08Z</time><name>PT5435</name></trkpt>
<trkpt lat="53.217325" lon="-2.026114"><ele>280</ele><time>2020-10-17T14:10:09Z</time><name>PT5436</name></trkpt>
<trkpt lat="53.217332" lon="-2.026117"><ele>280</ele><time>2020-10-17T14:10:10Z</time><name>PT5437</name></trkpt>
<trkpt lat="53.217346" lon="-2.026112"><ele>282</ele><time>2020-10-17T14:10:11Z</time><name>PT5438</name></trkpt>
<trkpt lat="53.217359" lon="-2.026106"><ele>282</ele><time>2020-10-17T14:10:12Z</time><name>PT5439</name></trkpt>
<trkpt lat="53.217373" lon="-2.026095"><ele>282</ele><time>2020-10-17T14:10:13Z</time><name>PT5440</name></trkpt>
<trkpt lat="53.217387" lon="-2.026092"><ele>282</ele><time>2020-10-17T14:10:14Z</time><name>PT5441</name></trkpt>
<trkpt lat="53.217399" lon="-2.026085"><ele>281</ele><time>2020-10-17T14:10:15Z</time><name>PT5442</name></trkpt>
<trkpt lat="53.217403" lon="-2.026069"><ele>280</ele><time>2020-10-17T14:10:16Z</time><name>PT5443</name></trkpt>
<trkpt lat="53.217412" lon="-2.026061"><ele>279</ele><time>2020-10-17T14:10:17Z</time><name>PT5444</name></trkpt>
<trkpt lat="53.217419" lon="-2.026052"><ele>279</ele><time>2020-10-17T14:10:18Z</time><name>PT5445</name></trkpt>
<trkpt lat="53.217420" lon="-2.026029"><ele>279</ele><time>2020-10-17T14:10:19Z</time><name>PT5446</name></trkpt>
<trkpt lat="53.217438" lon="-2.026020"><ele>281</ele><time>2020-10-17T14:10:20Z</time><name>PT5447</name></trkpt>
<trkpt lat="53.217452" lon="-2.026007"><ele>282</ele><time>2020-10-17T14:10:21Z</time><name>PT5448</name></trkpt>
<trkpt lat="53.217481" lon="-2.026006"><ele>285</ele><time>2020-10-17T14:10:22Z</time><name>PT5449</name></trkpt>
<trkpt lat="53.217502" lon="-2.026010"><ele>285</ele><time>2020-10-17T14:10:23Z</time><name>PT5450</name></trkpt>
<trkpt lat="53.217523" lon="-2.026009"><ele>286</ele><time>2020-10-17T14:10:24Z</time><name>PT5451</name></trkpt>
<trkpt lat="53.217537" lon="-2.026009"><ele>286</ele><time>2020-10-17T14:10:25Z</time><name>PT5452</name></trkpt>
<trkpt lat="53.217557" lon="-2.026009"><ele>285</ele><time>2020-10-17T14:10:26Z</time><name>PT5453</name></trkpt>
<trkpt lat="53.217570" lon="-2.026006"><ele>285</ele><time>2020-10-17T14:10:27Z</time><name>PT5454</name></trkpt>
<trkpt lat="53.217590" lon="-2.025999"><ele>285</ele><time>2020-10-17T14:10:28Z</time><name>PT5455</name></trkpt>
<trkpt lat="53.217606" lon="-2.025996"><ele>286</ele><time>2020-10-17T14:10:29Z</time><name>PT5456</name></trkpt>
<trkpt lat="53.217617" lon="-2.025994"><ele>285</ele><time>2020-10-17T14:10:30Z</time><name>PT5457</name></trkpt>
<trkpt lat="53.217625" lon="-2.025989"><ele>286</ele><time>2020-10-17T14:10:31Z</time><name>PT5458</name></trkpt>
<trkpt lat="53.217632" lon="-2.025988"><ele>285</ele><time>2020-10-17T14:10:32Z</time><name>PT5459</name></trkpt>
<trkpt lat="53.217637" lon="-2.025988"><ele>284</ele><time>2020-10-17T14:10:33Z</time><name>PT5460</name></trkpt>
<trkpt lat="53.217661" lon="-2.025969"><ele>280</ele><time>2020-10-17T14:10:35Z</time><name>PT5461</name></trkpt>
<trkpt lat="53.217706" lon="-2.025977"><ele>279</ele><time>2020-10-17T14:10:36Z</time><name>PT5462</name></trkpt>
<trkpt lat="53.217735" lon="-2.025961"><ele>277</ele><time>2020-10-17T14:10:37Z</time><name>PT5463</name></trkpt>
<trkpt lat="53.217761" lon="-2.025950"><ele>276</ele><time>2020-10-17T14:10:38Z</time><name>PT5464</name></trkpt>
<trkpt lat="53.217783" lon="-2.025935"><ele>276</ele><time>2020-10-17T14:10:39Z</time><name>PT5465</name></trkpt>
<trkpt lat="53.217806" lon="-2.025909"><ele>275</ele><time>2020-10-17T14:10:40Z</time><name>PT5466</name></trkpt>
<trkpt lat="53.217832" lon="-2.025903"><ele>275</ele><time>2020-10-17T14:10:41Z</time><name>PT5467</name></trkpt>
<trkpt lat="53.217849" lon="-2.025896"><ele>275</ele><time>2020-10-17T14:10:42Z</time><name>PT5468</name></trkpt>
<trkpt lat="53.217865" lon="-2.025891"><ele>274</ele><time>2020-10-17T14:10:43Z</time><name>PT5469</name></trkpt>
<trkpt lat="53.217877" lon="-2.025885"><ele>274</ele><time>2020-10-17T14:10:44Z</time><name>PT5470</name></trkpt>
<trkpt lat="53.217900" lon="-2.025883"><ele>274</ele><time>2020-10-17T14:10:45Z</time><name>PT5471</name></trkpt>
<trkpt lat="53.217919" lon="-2.025880"><ele>275</ele><time>2020-10-17T14:10:46Z</time><name>PT5472</name></trkpt>
<trkpt lat="53.217930" lon="-2.025874"><ele>275</ele><time>2020-10-17T14:10:47Z</time><name>PT5473</name></trkpt>
<trkpt lat="53.217948" lon="-2.025867"><ele>275</ele><time>2020-10-17T14:10:48Z</time><name>PT5474</name></trkpt>
<trkpt lat="53.217971" lon="-2.025859"><ele>274</ele><time>2020-10-17T14:10:49Z</time><name>PT5475</name></trkpt>
<trkpt lat="53.217993" lon="-2.025852"><ele>275</ele><time>2020-10-17T14:10:50Z</time><name>PT5476</name></trkpt>
<trkpt lat="53.218012" lon="-2.025844"><ele>275</ele><time>2020-10-17T14:10:51Z</time><name>PT5477</name></trkpt>
<trkpt lat="53.218024" lon="-2.025838"><ele>275</ele><time>2020-10-17T14:10:52Z</time><name>PT5478</name></trkpt>
<trkpt lat="53.218042" lon="-2.025827"><ele>275</ele><time>2020-10-17T14:10:53Z</time><name>PT5479</name></trkpt>
<trkpt lat="53.218057" lon="-2.025824"><ele>274</ele><time>2020-10-17T14:10:54Z</time><name>PT5480</name></trkpt>
<trkpt lat="53.218066" lon="-2.025815"><ele>275</ele><time>2020-10-17T14:10:55Z</time><name>PT5481</name></trkpt>
<trkpt lat="53.218075" lon="-2.025806"><ele>275</ele><time>2020-10-17T14:10:56Z</time><name>PT5482</name></trkpt>
<trkpt lat="53.218091" lon="-2.025816"><ele>274</ele><time>2020-10-17T14:10:57Z</time><name>PT5483</name></trkpt>
<trkpt lat="53.218105" lon="-2.025822"><ele>274</ele><time>2020-10-17T14:10:58Z</time><name>PT5484</name></trkpt>
<trkpt lat="53.218119" lon="-2.025823"><ele>273</ele><time>2020-10-17T14:10:59Z</time><name>PT5485</name></trkpt>
<trkpt lat="53.218135" lon="-2.025818"><ele>274</ele><time>2020-10-17T14:11:00Z</time><name>PT5486</name></trkpt>
<trkpt lat="53.218143" lon="-2.025813"><ele>273</ele><time>2020-10-17T14:11:01Z</time><name>PT5487</name></trkpt>
<trkpt lat="53.218151" lon="-2.025811"><ele>272</ele><time>2020-10-17T14:11:02Z</time><name>PT5488</name></trkpt>
<trkpt lat="53.218174" lon="-2.025815"><ele>272</ele><time>2020-10-17T14:11:03Z</time><name>PT5489</name></trkpt>
<trkpt lat="53.218181" lon="-2.025812"><ele>272</ele><time>2020-10-17T14:11:04Z</time><name>PT5490</name></trkpt>
<trkpt lat="53.218191" lon="-2.025806"><ele>271</ele><time>2020-10-17T14:11:05Z</time><name>PT5491</name></trkpt>
<trkpt lat="53.218205" lon="-2.025800"><ele>271</ele><time>2020-10-17T14:11:06Z</time><name>PT5492</name></trkpt>
<trkpt lat="53.218220" lon="-2.025797"><ele>270</ele><time>2020-10-17T14:11:07Z</time><name>PT5493</name></trkpt>
<trkpt lat="53.218235" lon="-2.025795"><ele>270</ele><time>2020-10-17T14:11:08Z</time><name>PT5494</name></trkpt>
<trkpt lat="53.218246" lon="-2.025789"><ele>270</ele><time>2020-10-17T14:11:09Z</time><name>PT5495</name></trkpt>
<trkpt lat="53.218264" lon="-2.025788"><ele>271</ele><time>2020-10-17T14:11:10Z</time><name>PT5496</name></trkpt>
<trkpt lat="53.218287" lon="-2.025790"><ele>272</ele><time>2020-10-17T14:11:11Z</time><name>PT5497</name></trkpt>
<trkpt lat="53.218309" lon="-2.025782"><ele>272</ele><time>2020-10-17T14:11:12Z</time><name>PT5498</name></trkpt>
<trkpt lat="53.218324" lon="-2.025778"><ele>272</ele><time>2020-10-17T14:11:13Z</time><name>PT5499</name></trkpt>
<trkpt lat="53.218337" lon="-2.025772"><ele>273</ele><time>2020-10-17T14:11:14Z</time><name>PT5500</name></trkpt>
<trkpt lat="53.218356" lon="-2.025766"><ele>274</ele><time>2020-10-17T14:11:15Z</time><name>PT5501</name></trkpt>
<trkpt lat="53.218365" lon="-2.025762"><ele>273</ele><time>2020-10-17T14:11:16Z</time><name>PT5502</name></trkpt>
<trkpt lat="53.218376" lon="-2.025763"><ele>274</ele><time>2020-10-17T14:11:17Z</time><name>PT5503</name></trkpt>
<trkpt lat="53.218390" lon="-2.025761"><ele>274</ele><time>2020-10-17T14:11:18Z</time><name>PT5504</name></trkpt>
<trkpt lat="53.218405" lon="-2.025743"><ele>275</ele><time>2020-10-17T14:11:19Z</time><name>PT5505</name></trkpt>
<trkpt lat="53.218414" lon="-2.025741"><ele>275</ele><time>2020-10-17T14:11:20Z</time><name>PT5506</name></trkpt>
<trkpt lat="53.218419" lon="-2.025739"><ele>275</ele><time>2020-10-17T14:11:21Z</time><name>PT5507</name></trkpt>
<trkpt lat="53.218430" lon="-2.025735"><ele>276</ele><time>2020-10-17T14:11:22Z</time><name>PT5508</name></trkpt>
<trkpt lat="53.218434" lon="-2.025729"><ele>276</ele><time>2020-10-17T14:11:23Z</time><name>PT5509</name></trkpt>
<trkpt lat="53.218440" lon="-2.025720"><ele>276</ele><time>2020-10-17T14:11:24Z</time><name>PT5510</name></trkpt>
<trkpt lat="53.218449" lon="-2.025710"><ele>277</ele><time>2020-10-17T14:11:25Z</time><name>PT5511</name></trkpt>
<trkpt lat="53.218462" lon="-2.025708"><ele>277</ele><time>2020-10-17T14:11:26Z</time><name>PT5512</name></trkpt>
<trkpt lat="53.218470" lon="-2.025706"><ele>277</ele><time>2020-10-17T14:11:27Z</time><name>PT5513</name></trkpt>
<trkpt lat="53.218485" lon="-2.025704"><ele>277</ele><time>2020-10-17T14:11:28Z</time><name>PT5514</name></trkpt>
<trkpt lat="53.218497" lon="-2.025702"><ele>277</ele><time>2020-10-17T14:11:29Z</time><name>PT5515</name></trkpt>
<trkpt lat="53.218509" lon="-2.025698"><ele>277</ele><time>2020-10-17T14:11:30Z</time><name>PT5516</name></trkpt>
<trkpt lat="53.218521" lon="-2.025694"><ele>276</ele><time>2020-10-17T14:11:31Z</time><name>PT5517</name></trkpt>
<trkpt lat="53.218530" lon="-2.025686"><ele>276</ele><time>2020-10-17T14:11:32Z</time><name>PT5518</name></trkpt>
<trkpt lat="53.218539" lon="-2.025681"><ele>276</ele><time>2020-10-17T14:11:33Z</time><name>PT5519</name></trkpt>
<trkpt lat="53.218551" lon="-2.025680"><ele>275</ele><time>2020-10-17T14:11:34Z</time><name>PT5520</name></trkpt>
<trkpt lat="53.218559" lon="-2.025665"><ele>275</ele><time>2020-10-17T14:11:35Z</time><name>PT5521</name></trkpt>
<trkpt lat="53.218568" lon="-2.025667"><ele>275</ele><time>2020-10-17T14:11:36Z</time><name>PT5522</name></trkpt>
<trkpt lat="53.218581" lon="-2.025660"><ele>275</ele><time>2020-10-17T14:11:37Z</time><name>PT5523</name></trkpt>
<trkpt lat="53.218598" lon="-2.025645"><ele>276</ele><time>2020-10-17T14:11:38Z</time><name>PT5524</name></trkpt>
<trkpt lat="53.218616" lon="-2.025638"><ele>276</ele><time>2020-10-17T14:11:39Z</time><name>PT5525</name></trkpt>
<trkpt lat="53.218634" lon="-2.025624"><ele>276</ele><time>2020-10-17T14:11:40Z</time><name>PT5526</name></trkpt>
<trkpt lat="53.218652" lon="-2.025612"><ele>276</ele><time>2020-10-17T14:11:41Z</time><name>PT5527</name></trkpt>
<trkpt lat="53.218667" lon="-2.025607"><ele>276</ele><time>2020-10-17T14:11:42Z</time><name>PT5528</name></trkpt>
<trkpt lat="53.218685" lon="-2.025597"><ele>275</ele><time>2020-10-17T14:11:43Z</time><name>PT5529</name></trkpt>
<trkpt lat="53.218695" lon="-2.025588"><ele>275</ele><time>2020-10-17T14:11:44Z</time><name>PT5530</name></trkpt>
<trkpt lat="53.218704" lon="-2.025580"><ele>276</ele><time>2020-10-17T14:11:45Z</time><name>PT5531</name></trkpt>
<trkpt lat="53.218723" lon="-2.025574"><ele>275</ele><time>2020-10-17T14:11:46Z</time><name>PT5532</name></trkpt>
<trkpt lat="53.218733" lon="-2.025560"><ele>274</ele><time>2020-10-17T14:11:47Z</time><name>PT5533</name></trkpt>
<trkpt lat="53.218745" lon="-2.025553"><ele>274</ele><time>2020-10-17T14:11:48Z</time><name>PT5534</name></trkpt>
<trkpt lat="53.218755" lon="-2.025549"><ele>274</ele><time>2020-10-17T14:11:49Z</time><name>PT5535</name></trkpt>
<trkpt lat="53.218763" lon="-2.025541"><ele>274</ele><time>2020-10-17T14:11:50Z</time><name>PT5536</name></trkpt>
<trkpt lat="53.218782" lon="-2.025541"><ele>274</ele><time>2020-10-17T14:11:51Z</time><name>PT5537</name></trkpt>
<trkpt lat="53.218793" lon="-2.025537"><ele>273</ele><time>2020-10-17T14:11:52Z</time><name>PT5538</name></trkpt>
<trkpt lat="53.218802" lon="-2.025530"><ele>273</ele><time>2020-10-17T14:11:53Z</time><name>PT5539</name></trkpt>
<trkpt lat="53.218812" lon="-2.025527"><ele>273</ele><time>2020-10-17T14:11:54Z</time><name>PT5540</name></trkpt>
<trkpt lat="53.218823" lon="-2.025520"><ele>272</ele><time>2020-10-17T14:11:55Z</time><name>PT5541</name></trkpt>
<trkpt lat="53.218829" lon="-2.025519"><ele>271</ele><time>2020-10-17T14:11:56Z</time><name>PT5542</name></trkpt>
<trkpt lat="53.218841" lon="-2.025510"><ele>271</ele><time>2020-10-17T14:11:57Z</time><name>PT5543</name></trkpt>
<trkpt lat="53.218850" lon="-2.025508"><ele>271</ele><time>2020-10-17T14:11:58Z</time><name>PT5544</name></trkpt>
<trkpt lat="53.218861" lon="-2.025501"><ele>272</ele><time>2020-10-17T14:11:59Z</time><name>PT5545</name></trkpt>
<trkpt lat="53.218875" lon="-2.025495"><ele>271</ele><time>2020-10-17T14:12:00Z</time><name>PT5546</name></trkpt>
<trkpt lat="53.218889" lon="-2.025496"><ele>272</ele><time>2020-10-17T14:12:01Z</time><name>PT5547</name></trkpt>
<trkpt lat="53.218918" lon="-2.025474"><ele>271</ele><time>2020-10-17T14:12:05Z</time><name>PT5548</name></trkpt>
<trkpt lat="53.218951" lon="-2.025430"><ele>271</ele><time>2020-10-17T14:12:09Z</time><name>PT5549</name></trkpt>
<trkpt lat="53.218981" lon="-2.025402"><ele>270</ele><time>2020-10-17T14:12:12Z</time><name>PT5550</name></trkpt>
<trkpt lat="53.219066" lon="-2.025383"><ele>271</ele><time>2020-10-17T14:12:16Z</time><name>PT5551</name></trkpt>
<trkpt lat="53.219118" lon="-2.025357"><ele>271</ele><time>2020-10-17T14:12:20Z</time><name>PT5552</name></trkpt>
<trkpt lat="53.219185" lon="-2.025347"><ele>271</ele><time>2020-10-17T14:12:24Z</time><name>PT5553</name></trkpt>
<trkpt lat="53.219227" lon="-2.025308"><ele>271</ele><time>2020-10-17T14:12:28Z</time><name>PT5554</name></trkpt>
<trkpt lat="53.219271" lon="-2.025301"><ele>270</ele><time>2020-10-17T14:12:31Z</time><name>PT5555</name></trkpt>
<trkpt lat="53.219337" lon="-2.025281"><ele>271</ele><time>2020-10-17T14:12:35Z</time><name>PT5556</name></trkpt>
<trkpt lat="53.219366" lon="-2.025261"><ele>271</ele><time>2020-10-17T14:12:38Z</time><name>PT5557</name></trkpt>
<trkpt lat="53.219410" lon="-2.025232"><ele>270</ele><time>2020-10-17T14:12:42Z</time><name>PT5558</name></trkpt>
<trkpt lat="53.219456" lon="-2.025192"><ele>269</ele><time>2020-10-17T14:12:46Z</time><name>PT5559</name></trkpt>
<trkpt lat="53.219511" lon="-2.025184"><ele>271</ele><time>2020-10-17T14:12:49Z</time><name>PT5560</name></trkpt>
<trkpt lat="53.219579" lon="-2.025170"><ele>272</ele><time>2020-10-17T14:12:53Z</time><name>PT5561</name></trkpt>
<trkpt lat="53.219651" lon="-2.025151"><ele>273</ele><time>2020-10-17T14:12:57Z</time><name>PT5562</name></trkpt>
<trkpt lat="53.219721" lon="-2.025116"><ele>275</ele><time>2020-10-17T14:13:01Z</time><name>PT5563</name></trkpt>
<trkpt lat="53.219789" lon="-2.025065"><ele>277</ele><time>2020-10-17T14:13:05Z</time><name>PT5564</name></trkpt>
<trkpt lat="53.219832" lon="-2.025034"><ele>278</ele><time>2020-10-17T14:13:08Z</time><name>PT5565</name></trkpt>
<trkpt lat="53.219892" lon="-2.024987"><ele>280</ele><time>2020-10-17T14:13:12Z</time><name>PT5566</name></trkpt>
<trkpt lat="53.219934" lon="-2.024947"><ele>280</ele><time>2020-10-17T14:13:15Z</time><name>PT5567</name></trkpt>
<trkpt lat="53.219976" lon="-2.024906"><ele>281</ele><time>2020-10-17T14:13:19Z</time><name>PT5568</name></trkpt>
<trkpt lat="53.220024" lon="-2.024860"><ele>282</ele><time>2020-10-17T14:13:23Z</time><name>PT5569</name></trkpt>
<trkpt lat="53.220068" lon="-2.024813"><ele>283</ele><time>2020-10-17T14:13:26Z</time><name>PT5570</name></trkpt>
<trkpt lat="53.220098" lon="-2.024770"><ele>284</ele><time>2020-10-17T14:13:29Z</time><name>PT5571</name></trkpt>
<trkpt lat="53.220136" lon="-2.024726"><ele>285</ele><time>2020-10-17T14:13:33Z</time><name>PT5572</name></trkpt>
<trkpt lat="53.220181" lon="-2.024681"><ele>288</ele><time>2020-10-17T14:13:37Z</time><name>PT5573</name></trkpt>
<trkpt lat="53.220197" lon="-2.024643"><ele>286</ele><time>2020-10-17T14:13:41Z</time><name>PT5574</name></trkpt>
<trkpt lat="53.220236" lon="-2.024578"><ele>284</ele><time>2020-10-17T14:13:45Z</time><name>PT5575</name></trkpt>
<trkpt lat="53.220271" lon="-2.024523"><ele>282</ele><time>2020-10-17T14:13:49Z</time><name>PT5576</name></trkpt>
<trkpt lat="53.220318" lon="-2.024488"><ele>281</ele><time>2020-10-17T14:13:53Z</time><name>PT5577</name></trkpt>
<trkpt lat="53.220350" lon="-2.024429"><ele>280</ele><time>2020-10-17T14:13:57Z</time><name>PT5578</name></trkpt>
<trkpt lat="53.220386" lon="-2.024419"><ele>277</ele><time>2020-10-17T14:14:01Z</time><name>PT5579</name></trkpt>
<trkpt lat="53.220413" lon="-2.024404"><ele>276</ele><time>2020-10-17T14:14:04Z</time><name>PT5580</name></trkpt>
<trkpt lat="53.220439" lon="-2.024355"><ele>274</ele><time>2020-10-17T14:14:08Z</time><name>PT5581</name></trkpt>
<trkpt lat="53.220460" lon="-2.024324"><ele>273</ele><time>2020-10-17T14:14:11Z</time><name>PT5582</name></trkpt>
<trkpt lat="53.220481" lon="-2.024263"><ele>273</ele><time>2020-10-17T14:14:14Z</time><name>PT5583</name></trkpt>
<trkpt lat="53.220527" lon="-2.024211"><ele>273</ele><time>2020-10-17T14:14:18Z</time><name>PT5584</name></trkpt>
<trkpt lat="53.220566" lon="-2.024195"><ele>272</ele><time>2020-10-17T14:14:22Z</time><name>PT5585</name></trkpt>
<trkpt lat="53.220599" lon="-2.024155"><ele>273</ele><time>2020-10-17T14:14:25Z</time><name>PT5586</name></trkpt>
<trkpt lat="53.220638" lon="-2.024114"><ele>275</ele><time>2020-10-17T14:14:29Z</time><name>PT5587</name></trkpt>
<trkpt lat="53.220676" lon="-2.024077"><ele>277</ele><time>2020-10-17T14:14:32Z</time><name>PT5588</name></trkpt>
<trkpt lat="53.220711" lon="-2.024019"><ele>279</ele><time>2020-10-17T14:14:35Z</time><name>PT5589</name></trkpt>
<trkpt lat="53.220756" lon="-2.023950"><ele>281</ele><time>2020-10-17T14:14:39Z</time><name>PT5590</name></trkpt>
<trkpt lat="53.220797" lon="-2.023917"><ele>283</ele><time>2020-10-17T14:14:42Z</time><name>PT5591</name></trkpt>
<trkpt lat="53.220852" lon="-2.023848"><ele>288</ele><time>2020-10-17T14:14:45Z</time><name>PT5592</name></trkpt>
<trkpt lat="53.220884" lon="-2.023803"><ele>288</ele><time>2020-10-17T14:14:49Z</time><name>PT5593</name></trkpt>
<trkpt lat="53.220931" lon="-2.023742"><ele>290</ele><time>2020-10-17T14:14:53Z</time><name>PT5594</name></trkpt>
<trkpt lat="53.220960" lon="-2.023690"><ele>291</ele><time>2020-10-17T14:14:56Z</time><name>PT5595</name></trkpt>
<trkpt lat="53.220993" lon="-2.023656"><ele>291</ele><time>2020-10-17T14:15:00Z</time><name>PT5596</name></trkpt>
<trkpt lat="53.221024" lon="-2.023619"><ele>291</ele><time>2020-10-17T14:15:03Z</time><name>PT5597</name></trkpt>
<trkpt lat="53.221050" lon="-2.023598"><ele>291</ele><time>2020-10-17T14:15:06Z</time><name>PT5598</name></trkpt>
<trkpt lat="53.221077" lon="-2.023584"><ele>291</ele><time>2020-10-17T14:15:09Z</time><name>PT5599</name></trkpt>
<trkpt lat="53.221141" lon="-2.023562"><ele>291</ele><time>2020-10-17T14:15:13Z</time><name>PT5600</name></trkpt>
<trkpt lat="53.221185" lon="-2.023523"><ele>292</ele><time>2020-10-17T14:15:17Z</time><name>PT5601</name></trkpt>
<trkpt lat="53.221216" lon="-2.023477"><ele>292</ele><time>2020-10-17T14:15:20Z</time><name>PT5602</name></trkpt>
<trkpt lat="53.221263" lon="-2.023420"><ele>291</ele><time>2020-10-17T14:15:24Z</time><name>PT5603</name></trkpt>
<trkpt lat="53.221291" lon="-2.023375"><ele>291</ele><time>2020-10-17T14:15:27Z</time><name>PT5604</name></trkpt>
<trkpt lat="53.221329" lon="-2.023293"><ele>292</ele><time>2020-10-17T14:15:30Z</time><name>PT5605</name></trkpt>
<trkpt lat="53.221357" lon="-2.023248"><ele>291</ele><time>2020-10-17T14:15:33Z</time><name>PT5606</name></trkpt>
<trkpt lat="53.221403" lon="-2.023159"><ele>291</ele><time>2020-10-17T14:15:37Z</time><name>PT5607</name></trkpt>
<trkpt lat="53.221442" lon="-2.023117"><ele>290</ele><time>2020-10-17T14:15:41Z</time><name>PT5608</name></trkpt>
<trkpt lat="53.221489" lon="-2.023041"><ele>291</ele><time>2020-10-17T14:15:45Z</time><name>PT5609</name></trkpt>
<trkpt lat="53.221522" lon="-2.022987"><ele>291</ele><time>2020-10-17T14:15:48Z</time><name>PT5610</name></trkpt>
<trkpt lat="53.221559" lon="-2.022943"><ele>291</ele><time>2020-10-17T14:15:52Z</time><name>PT5611</name></trkpt>
<trkpt lat="53.221592" lon="-2.022905"><ele>291</ele><time>2020-10-17T14:15:55Z</time><name>PT5612</name></trkpt>
<trkpt lat="53.221637" lon="-2.022828"><ele>291</ele><time>2020-10-17T14:15:59Z</time><name>PT5613</name></trkpt>
<trkpt lat="53.221670" lon="-2.022776"><ele>290</ele><time>2020-10-17T14:16:03Z</time><name>PT5614</name></trkpt>
<trkpt lat="53.221702" lon="-2.022755"><ele>289</ele><time>2020-10-17T14:16:06Z</time><name>PT5615</name></trkpt>
<trkpt lat="53.221749" lon="-2.022694"><ele>290</ele><time>2020-10-17T14:16:10Z</time><name>PT5616</name></trkpt>
<trkpt lat="53.221791" lon="-2.022626"><ele>290</ele><time>2020-10-17T14:16:14Z</time><name>PT5617</name></trkpt>
<trkpt lat="53.221843" lon="-2.022590"><ele>290</ele><time>2020-10-17T14:16:18Z</time><name>PT5618</name></trkpt>
<trkpt lat="53.221899" lon="-2.022520"><ele>291</ele><time>2020-10-17T14:16:22Z</time><name>PT5619</name></trkpt>
<trkpt lat="53.221937" lon="-2.022501"><ele>291</ele><time>2020-10-17T14:16:25Z</time><name>PT5620</name></trkpt>
<trkpt lat="53.221984" lon="-2.022506"><ele>289</ele><time>2020-10-17T14:16:29Z</time><name>PT5621</name></trkpt>
<trkpt lat="53.222012" lon="-2.022502"><ele>288</ele><time>2020-10-17T14:16:32Z</time><name>PT5622</name></trkpt>
<trkpt lat="53.222055" lon="-2.022501"><ele>288</ele><time>2020-10-17T14:16:36Z</time><name>PT5623</name></trkpt>
<trkpt lat="53.222086" lon="-2.022524"><ele>287</ele><time>2020-10-17T14:16:39Z</time><name>PT5624</name></trkpt>
<trkpt lat="53.222125" lon="-2.022515"><ele>285</ele><time>2020-10-17T14:16:43Z</time><name>PT5625</name></trkpt>
<trkpt lat="53.222165" lon="-2.022532"><ele>284</ele><time>2020-10-17T14:16:47Z</time><name>PT5626</name></trkpt>
<trkpt lat="53.222193" lon="-2.022532"><ele>283</ele><time>2020-10-17T14:16:50Z</time><name>PT5627</name></trkpt>
<trkpt lat="53.222235" lon="-2.022556"><ele>282</ele><time>2020-10-17T14:16:54Z</time><name>PT5628</name></trkpt>
<trkpt lat="53.222269" lon="-2.022576"><ele>282</ele><time>2020-10-17T14:16:57Z</time><name>PT5629</name></trkpt>
<trkpt lat="53.222296" lon="-2.022589"><ele>282</ele><time>2020-10-17T14:17:00Z</time><name>PT5630</name></trkpt>
<trkpt lat="53.222333" lon="-2.022620"><ele>281</ele><time>2020-10-17T14:17:04Z</time><name>PT5631</name></trkpt>
<trkpt lat="53.222369" lon="-2.022631"><ele>282</ele><time>2020-10-17T14:17:07Z</time><name>PT5632</name></trkpt>
<trkpt lat="53.222400" lon="-2.022659"><ele>279</ele><time>2020-10-17T14:17:11Z</time><name>PT5633</name></trkpt>
<trkpt lat="53.222439" lon="-2.022672"><ele>280</ele><time>2020-10-17T14:17:14Z</time><name>PT5634</name></trkpt>
<trkpt lat="53.222463" lon="-2.022701"><ele>278</ele><time>2020-10-17T14:17:17Z</time><name>PT5635</name></trkpt>
<trkpt lat="53.222495" lon="-2.022733"><ele>278</ele><time>2020-10-17T14:17:21Z</time><name>PT5636</name></trkpt>
<trkpt lat="53.222521" lon="-2.022759"><ele>276</ele><time>2020-10-17T14:17:25Z</time><name>PT5637</name></trkpt>
<trkpt lat="53.222566" lon="-2.022806"><ele>276</ele><time>2020-10-17T14:17:29Z</time><name>PT5638</name></trkpt>
<trkpt lat="53.222598" lon="-2.022837"><ele>275</ele><time>2020-10-17T14:17:32Z</time><name>PT5639</name></trkpt>
<trkpt lat="53.222667" lon="-2.022878"><ele>277</ele><time>2020-10-17T14:17:36Z</time><name>PT5640</name></trkpt>
<trkpt lat="53.222693" lon="-2.022921"><ele>273</ele><time>2020-10-17T14:17:40Z</time><name>PT5641</name></trkpt>
<trkpt lat="53.222733" lon="-2.022943"><ele>274</ele><time>2020-10-17T14:17:44Z</time><name>PT5642</name></trkpt>
<trkpt lat="53.222796" lon="-2.022970"><ele>276</ele><time>2020-10-17T14:17:47Z</time><name>PT5643</name></trkpt>
<trkpt lat="53.222909" lon="-2.022986"><ele>282</ele><time>2020-10-17T14:17:51Z</time><name>PT5644</name></trkpt>
<trkpt lat="53.222971" lon="-2.022979"><ele>284</ele><time>2020-10-17T14:17:55Z</time><name>PT5645</name></trkpt>
<trkpt lat="53.223051" lon="-2.023008"><ele>286</ele><time>2020-10-17T14:17:59Z</time><name>PT5646</name></trkpt>
<trkpt lat="53.223089" lon="-2.022997"><ele>286</ele><time>2020-10-17T14:18:02Z</time><name>PT5647</name></trkpt>
<trkpt lat="53.223136" lon="-2.022989"><ele>287</ele><time>2020-10-17T14:18:05Z</time><name>PT5648</name></trkpt>
<trkpt lat="53.223196" lon="-2.022989"><ele>289</ele><time>2020-10-17T14:18:09Z</time><name>PT5649</name></trkpt>
<trkpt lat="53.223253" lon="-2.022978"><ele>290</ele><time>2020-10-17T14:18:13Z</time><name>PT5650</name></trkpt>
<trkpt lat="53.223295" lon="-2.022962"><ele>291</ele><time>2020-10-17T14:18:16Z</time><name>PT5651</name></trkpt>
<trkpt lat="53.223351" lon="-2.022946"><ele>290</ele><time>2020-10-17T14:18:20Z</time><name>PT5652</name></trkpt>
<trkpt lat="53.223400" lon="-2.022932"><ele>292</ele><time>2020-10-17T14:18:23Z</time><name>PT5653</name></trkpt>
<trkpt lat="53.223434" lon="-2.022917"><ele>292</ele><time>2020-10-17T14:18:26Z</time><name>PT5654</name></trkpt>
<trkpt lat="53.223487" lon="-2.022901"><ele>293</ele><time>2020-10-17T14:18:30Z</time><name>PT5655</name></trkpt>
<trkpt lat="53.223532" lon="-2.022890"><ele>292</ele><time>2020-10-17T14:18:34Z</time><name>PT5656</name></trkpt>
<trkpt lat="53.223580" lon="-2.022881"><ele>293</ele><time>2020-10-17T14:18:38Z</time><name>PT5657</name></trkpt>
<trkpt lat="53.223621" lon="-2.022871"><ele>293</ele><time>2020-10-17T14:18:41Z</time><name>PT5658</name></trkpt>
<trkpt lat="53.223651" lon="-2.022864"><ele>292</ele><time>2020-10-17T14:18:44Z</time><name>PT5659</name></trkpt>
<trkpt lat="53.223703" lon="-2.022840"><ele>293</ele><time>2020-10-17T14:18:48Z</time><name>PT5660</name></trkpt>
<trkpt lat="53.223744" lon="-2.022829"><ele>292</ele><time>2020-10-17T14:18:51Z</time><name>PT5661</name></trkpt>
<trkpt lat="53.223790" lon="-2.022821"><ele>291</ele><time>2020-10-17T14:18:55Z</time><name>PT5662</name></trkpt>
<trkpt lat="53.223834" lon="-2.022808"><ele>291</ele><time>2020-10-17T14:18:58Z</time><name>PT5663</name></trkpt>
<trkpt lat="53.223885" lon="-2.022801"><ele>291</ele><time>2020-10-17T14:19:01Z</time><name>PT5664</name></trkpt>
<trkpt lat="53.223935" lon="-2.022779"><ele>292</ele><time>2020-10-17T14:19:05Z</time><name>PT5665</name></trkpt>
<trkpt lat="53.223970" lon="-2.022766"><ele>290</ele><time>2020-10-17T14:19:08Z</time><name>PT5666</name></trkpt>
<trkpt lat="53.224012" lon="-2.022748"><ele>291</ele><time>2020-10-17T14:19:12Z</time><name>PT5667</name></trkpt>
<trkpt lat="53.224037" lon="-2.022733"><ele>291</ele><time>2020-10-17T14:19:15Z</time><name>PT5668</name></trkpt>
<trkpt lat="53.224082" lon="-2.022705"><ele>292</ele><time>2020-10-17T14:19:19Z</time><name>PT5669</name></trkpt>
<trkpt lat="53.224116" lon="-2.022682"><ele>290</ele><time>2020-10-17T14:19:22Z</time><name>PT5670</name></trkpt>
<trkpt lat="53.224152" lon="-2.022642"><ele>289</ele><time>2020-10-17T14:19:26Z</time><name>PT5671</name></trkpt>
<trkpt lat="53.224182" lon="-2.022611"><ele>289</ele><time>2020-10-17T14:19:29Z</time><name>PT5672</name></trkpt>
<trkpt lat="53.224226" lon="-2.022578"><ele>290</ele><time>2020-10-17T14:19:33Z</time><name>PT5673</name></trkpt>
<trkpt lat="53.224266" lon="-2.022553"><ele>290</ele><time>2020-10-17T14:19:37Z</time><name>PT5674</name></trkpt>
<trkpt lat="53.224297" lon="-2.022530"><ele>290</ele><time>2020-10-17T14:19:40Z</time><name>PT5675</name></trkpt>
<trkpt lat="53.224330" lon="-2.022497"><ele>290</ele><time>2020-10-17T14:19:44Z</time><name>PT5676</name></trkpt>
<trkpt lat="53.224363" lon="-2.022477"><ele>289</ele><time>2020-10-17T14:19:47Z</time><name>PT5677</name></trkpt>
<trkpt lat="53.224424" lon="-2.022458"><ele>287</ele><time>2020-10-17T14:19:51Z</time><name>PT5678</name></trkpt>
<trkpt lat="53.224474" lon="-2.022439"><ele>288</ele><time>2020-10-17T14:19:55Z</time><name>PT5679</name></trkpt>
<trkpt lat="53.224520" lon="-2.022430"><ele>289</ele><time>2020-10-17T14:19:58Z</time><name>PT5680</name></trkpt>
<trkpt lat="53.224560" lon="-2.022404"><ele>288</ele><time>2020-10-17T14:20:02Z</time><name>PT5681</name></trkpt>
<trkpt lat="53.224615" lon="-2.022374"><ele>289</ele><time>2020-10-17T14:20:06Z</time><name>PT5682</name></trkpt>
<trkpt lat="53.224659" lon="-2.022355"><ele>292</ele><time>2020-10-17T14:20:09Z</time><name>PT5683</name></trkpt>
<trkpt lat="53.224698" lon="-2.022340"><ele>291</ele><time>2020-10-17T14:20:12Z</time><name>PT5684</name></trkpt>
<trkpt lat="53.224742" lon="-2.022316"><ele>292</ele><time>2020-10-17T14:20:15Z</time><name>PT5685</name></trkpt>
<trkpt lat="53.224824" lon="-2.022242"><ele>294</ele><time>2020-10-17T14:20:19Z</time><name>PT5686</name></trkpt>
<trkpt lat="53.224838" lon="-2.022228"><ele>294</ele><time>2020-10-17T14:20:20Z</time><name>PT5687</name></trkpt>
<trkpt lat="53.224854" lon="-2.022210"><ele>294</ele><time>2020-10-17T14:20:21Z</time><name>PT5688</name></trkpt>
<trkpt lat="53.224868" lon="-2.022202"><ele>294</ele><time>2020-10-17T14:20:22Z</time><name>PT5689</name></trkpt>
<trkpt lat="53.224883" lon="-2.022194"><ele>295</ele><time>2020-10-17T14:20:23Z</time><name>PT5690</name></trkpt>
<trkpt lat="53.224895" lon="-2.022187"><ele>295</ele><time>2020-10-17T14:20:24Z</time><name>PT5691</name></trkpt>
<trkpt lat="53.224915" lon="-2.022177"><ele>295</ele><time>2020-10-17T14:20:25Z</time><name>PT5692</name></trkpt>
<trkpt lat="53.224929" lon="-2.022165"><ele>296</ele><time>2020-10-17T14:20:26Z</time><name>PT5693</name></trkpt>
<trkpt lat="53.224944" lon="-2.022158"><ele>296</ele><time>2020-10-17T14:20:27Z</time><name>PT5694</name></trkpt>
<trkpt lat="53.224955" lon="-2.022148"><ele>295</ele><time>2020-10-17T14:20:28Z</time><name>PT5695</name></trkpt>
<trkpt lat="53.224973" lon="-2.022136"><ele>296</ele><time>2020-10-17T14:20:29Z</time><name>PT5696</name></trkpt>
<trkpt lat="53.224986" lon="-2.022123"><ele>296</ele><time>2020-10-17T14:20:30Z</time><name>PT5697</name></trkpt>
<trkpt lat="53.224998" lon="-2.022115"><ele>295</ele><time>2020-10-17T14:20:31Z</time><name>PT5698</name></trkpt>
<trkpt lat="53.225008" lon="-2.022113"><ele>295</ele><time>2020-10-17T14:20:32Z</time><name>PT5699</name></trkpt>
<trkpt lat="53.225016" lon="-2.022109"><ele>294</ele><time>2020-10-17T14:20:33Z</time><name>PT5700</name></trkpt>
<trkpt lat="53.225025" lon="-2.022100"><ele>293</ele><time>2020-10-17T14:20:34Z</time><name>PT5701</name></trkpt>
<trkpt lat="53.225034" lon="-2.022091"><ele>292</ele><time>2020-10-17T14:20:35Z</time><name>PT5702</name></trkpt>
<trkpt lat="53.225050" lon="-2.022084"><ele>293</ele><time>2020-10-17T14:20:36Z</time><name>PT5703</name></trkpt>
<trkpt lat="53.225060" lon="-2.022075"><ele>293</ele><time>2020-10-17T14:20:37Z</time><name>PT5704</name></trkpt>
<trkpt lat="53.225069" lon="-2.022066"><ele>293</ele><time>2020-10-17T14:20:38Z</time><name>PT5705</name></trkpt>
<trkpt lat="53.225076" lon="-2.022065"><ele>293</ele><time>2020-10-17T14:20:39Z</time><name>PT5706</name></trkpt>
<trkpt lat="53.225083" lon="-2.022062"><ele>293</ele><time>2020-10-17T14:20:40Z</time><name>PT5707</name></trkpt>
<trkpt lat="53.225093" lon="-2.022052"><ele>293</ele><time>2020-10-17T14:20:41Z</time><name>PT5708</name></trkpt>
<trkpt lat="53.225112" lon="-2.022034"><ele>294</ele><time>2020-10-17T14:20:42Z</time><name>PT5709</name></trkpt>
<trkpt lat="53.225132" lon="-2.022020"><ele>294</ele><time>2020-10-17T14:20:43Z</time><name>PT5710</name></trkpt>
<trkpt lat="53.225145" lon="-2.022010"><ele>295</ele><time>2020-10-17T14:20:44Z</time><name>PT5711</name></trkpt>
<trkpt lat="53.225162" lon="-2.022011"><ele>296</ele><time>2020-10-17T14:20:46Z</time><name>PT5712</name></trkpt>
<trkpt lat="53.225170" lon="-2.022006"><ele>296</ele><time>2020-10-17T14:20:47Z</time><name>PT5713</name></trkpt>
<trkpt lat="53.225184" lon="-2.021990"><ele>297</ele><time>2020-10-17T14:20:48Z</time><name>PT5714</name></trkpt>
<trkpt lat="53.225198" lon="-2.021973"><ele>298</ele><time>2020-10-17T14:20:49Z</time><name>PT5715</name></trkpt>
<trkpt lat="53.225211" lon="-2.021960"><ele>298</ele><time>2020-10-17T14:20:50Z</time><name>PT5716</name></trkpt>
<trkpt lat="53.225221" lon="-2.021952"><ele>298</ele><time>2020-10-17T14:20:51Z</time><name>PT5717</name></trkpt>
<trkpt lat="53.225226" lon="-2.021942"><ele>298</ele><time>2020-10-17T14:20:52Z</time><name>PT5718</name></trkpt>
<trkpt lat="53.225231" lon="-2.021932"><ele>298</ele><time>2020-10-17T14:20:53Z</time><name>PT5719</name></trkpt>
<trkpt lat="53.225237" lon="-2.021916"><ele>297</ele><time>2020-10-17T14:20:54Z</time><name>PT5720</name></trkpt>
<trkpt lat="53.225248" lon="-2.021894"><ele>297</ele><time>2020-10-17T14:20:55Z</time><name>PT5721</name></trkpt>
<trkpt lat="53.225264" lon="-2.021878"><ele>297</ele><time>2020-10-17T14:20:56Z</time><name>PT5722</name></trkpt>
<trkpt lat="53.225279" lon="-2.021866"><ele>297</ele><time>2020-10-17T14:20:57Z</time><name>PT5723</name></trkpt>
<trkpt lat="53.225286" lon="-2.021854"><ele>297</ele><time>2020-10-17T14:20:58Z</time><name>PT5724</name></trkpt>
<trkpt lat="53.225291" lon="-2.021846"><ele>297</ele><time>2020-10-17T14:20:59Z</time><name>PT5725</name></trkpt>
<trkpt lat="53.225297" lon="-2.021836"><ele>296</ele><time>2020-10-17T14:21:00Z</time><name>PT5726</name></trkpt>
<trkpt lat="53.225308" lon="-2.021815"><ele>296</ele><time>2020-10-17T14:21:01Z</time><name>PT5727</name></trkpt>
<trkpt lat="53.225320" lon="-2.021791"><ele>296</ele><time>2020-10-17T14:21:02Z</time><name>PT5728</name></trkpt>
<trkpt lat="53.225330" lon="-2.021780"><ele>295</ele><time>2020-10-17T14:21:03Z</time><name>PT5729</name></trkpt>
<trkpt lat="53.225341" lon="-2.021774"><ele>295</ele><time>2020-10-17T14:21:04Z</time><name>PT5730</name></trkpt>
<trkpt lat="53.225349" lon="-2.021769"><ele>295</ele><time>2020-10-17T14:21:05Z</time><name>PT5731</name></trkpt>
<trkpt lat="53.225356" lon="-2.021765"><ele>295</ele><time>2020-10-17T14:21:06Z</time><name>PT5732</name></trkpt>
<trkpt lat="53.225366" lon="-2.021749"><ele>294</ele><time>2020-10-17T14:21:07Z</time><name>PT5733</name></trkpt>
<trkpt lat="53.225376" lon="-2.021726"><ele>294</ele><time>2020-10-17T14:21:08Z</time><name>PT5734</name></trkpt>
<trkpt lat="53.225386" lon="-2.021712"><ele>293</ele><time>2020-10-17T14:21:09Z</time><name>PT5735</name></trkpt>
<trkpt lat="53.225399" lon="-2.021701"><ele>293</ele><time>2020-10-17T14:21:10Z</time><name>PT5736</name></trkpt>
<trkpt lat="53.225411" lon="-2.021687"><ele>294</ele><time>2020-10-17T14:21:11Z</time><name>PT5737</name></trkpt>
<trkpt lat="53.225421" lon="-2.021667"><ele>295</ele><time>2020-10-17T14:21:12Z</time><name>PT5738</name></trkpt>
<trkpt lat="53.225430" lon="-2.021651"><ele>296</ele><time>2020-10-17T14:21:13Z</time><name>PT5739</name></trkpt>
<trkpt lat="53.225435" lon="-2.021647"><ele>294</ele><time>2020-10-17T14:21:14Z</time><name>PT5740</name></trkpt>
<trkpt lat="53.225451" lon="-2.021629"><ele>295</ele><time>2020-10-17T14:21:15Z</time><name>PT5741</name></trkpt>
<trkpt lat="53.225467" lon="-2.021613"><ele>295</ele><time>2020-10-17T14:21:16Z</time><name>PT5742</name></trkpt>
<trkpt lat="53.225480" lon="-2.021603"><ele>295</ele><time>2020-10-17T14:21:17Z</time><name>PT5743</name></trkpt>
<trkpt lat="53.225486" lon="-2.021597"><ele>295</ele><time>2020-10-17T14:21:18Z</time><name>PT5744</name></trkpt>
<trkpt lat="53.225493" lon="-2.021585"><ele>295</ele><time>2020-10-17T14:21:19Z</time><name>PT5745</name></trkpt>
<trkpt lat="53.225503" lon="-2.021568"><ele>295</ele><time>2020-10-17T14:21:20Z</time><name>PT5746</name></trkpt>
<trkpt lat="53.225517" lon="-2.021546"><ele>296</ele><time>2020-10-17T14:21:21Z</time><name>PT5747</name></trkpt>
<trkpt lat="53.225529" lon="-2.021531"><ele>296</ele><time>2020-10-17T14:21:22Z</time><name>PT5748</name></trkpt>
<trkpt lat="53.225536" lon="-2.021522"><ele>296</ele><time>2020-10-17T14:21:23Z</time><name>PT5749</name></trkpt>
<trkpt lat="53.225543" lon="-2.021518"><ele>296</ele><time>2020-10-17T14:21:24Z</time><name>PT5750</name></trkpt>
<trkpt lat="53.225557" lon="-2.021511"><ele>296</ele><time>2020-10-17T14:21:25Z</time><name>PT5751</name></trkpt>
<trkpt lat="53.225571" lon="-2.021493"><ele>296</ele><time>2020-10-17T14:21:26Z</time><name>PT5752</name></trkpt>
<trkpt lat="53.225586" lon="-2.021468"><ele>296</ele><time>2020-10-17T14:21:27Z</time><name>PT5753</name></trkpt>
<trkpt lat="53.225598" lon="-2.021448"><ele>295</ele><time>2020-10-17T14:21:28Z</time><name>PT5754</name></trkpt>
<trkpt lat="53.225609" lon="-2.021438"><ele>296</ele><time>2020-10-17T14:21:29Z</time><name>PT5755</name></trkpt>
<trkpt lat="53.225617" lon="-2.021433"><ele>296</ele><time>2020-10-17T14:21:30Z</time><name>PT5756</name></trkpt>
<trkpt lat="53.225623" lon="-2.021421"><ele>295</ele><time>2020-10-17T14:21:31Z</time><name>PT5757</name></trkpt>
<trkpt lat="53.225633" lon="-2.021405"><ele>294</ele><time>2020-10-17T14:21:32Z</time><name>PT5758</name></trkpt>
<trkpt lat="53.225649" lon="-2.021388"><ele>295</ele><time>2020-10-17T14:21:33Z</time><name>PT5759</name></trkpt>
<trkpt lat="53.225660" lon="-2.021374"><ele>294</ele><time>2020-10-17T14:21:34Z</time><name>PT5760</name></trkpt>
<trkpt lat="53.225668" lon="-2.021363"><ele>294</ele><time>2020-10-17T14:21:35Z</time><name>PT5761</name></trkpt>
<trkpt lat="53.225675" lon="-2.021355"><ele>294</ele><time>2020-10-17T14:21:36Z</time><name>PT5762</name></trkpt>
<trkpt lat="53.225686" lon="-2.021349"><ele>294</ele><time>2020-10-17T14:21:37Z</time><name>PT5763</name></trkpt>
<trkpt lat="53.225704" lon="-2.021337"><ele>294</ele><time>2020-10-17T14:21:38Z</time><name>PT5764</name></trkpt>
<trkpt lat="53.225720" lon="-2.021321"><ele>295</ele><time>2020-10-17T14:21:39Z</time><name>PT5765</name></trkpt>
<trkpt lat="53.225731" lon="-2.021305"><ele>294</ele><time>2020-10-17T14:21:40Z</time><name>PT5766</name></trkpt>
<trkpt lat="53.225741" lon="-2.021289"><ele>295</ele><time>2020-10-17T14:21:41Z</time><name>PT5767</name></trkpt>
<trkpt lat="53.225753" lon="-2.021277"><ele>295</ele><time>2020-10-17T14:21:42Z</time><name>PT5768</name></trkpt>
<trkpt lat="53.225766" lon="-2.021267"><ele>295</ele><time>2020-10-17T14:21:43Z</time><name>PT5769</name></trkpt>
<trkpt lat="53.225778" lon="-2.021256"><ele>296</ele><time>2020-10-17T14:21:44Z</time><name>PT5770</name></trkpt>
<trkpt lat="53.225789" lon="-2.021243"><ele>296</ele><time>2020-10-17T14:21:45Z</time><name>PT5771</name></trkpt>
<trkpt lat="53.225802" lon="-2.021233"><ele>296</ele><time>2020-10-17T14:21:46Z</time><name>PT5772</name></trkpt>
<trkpt lat="53.225809" lon="-2.021224"><ele>296</ele><time>2020-10-17T14:21:47Z</time><name>PT5773</name></trkpt>
<trkpt lat="53.225814" lon="-2.021214"><ele>296</ele><time>2020-10-17T14:21:48Z</time><name>PT5774</name></trkpt>
<trkpt lat="53.225823" lon="-2.021199"><ele>296</ele><time>2020-10-17T14:21:49Z</time><name>PT5775</name></trkpt>
<trkpt lat="53.225831" lon="-2.021187"><ele>295</ele><time>2020-10-17T14:21:50Z</time><name>PT5776</name></trkpt>
<trkpt lat="53.225840" lon="-2.021172"><ele>296</ele><time>2020-10-17T14:21:51Z</time><name>PT5777</name></trkpt>
<trkpt lat="53.225849" lon="-2.021159"><ele>295</ele><time>2020-10-17T14:21:52Z</time><name>PT5778</name></trkpt>
<trkpt lat="53.225857" lon="-2.021148"><ele>295</ele><time>2020-10-17T14:21:53Z</time><name>PT5779</name></trkpt>
<trkpt lat="53.225864" lon="-2.021136"><ele>296</ele><time>2020-10-17T14:21:54Z</time><name>PT5780</name></trkpt>
<trkpt lat="53.225873" lon="-2.021125"><ele>296</ele><time>2020-10-17T14:21:55Z</time><name>PT5781</name></trkpt>
<trkpt lat="53.225882" lon="-2.021116"><ele>296</ele><time>2020-10-17T14:21:56Z</time><name>PT5782</name></trkpt>
<trkpt lat="53.225892" lon="-2.021106"><ele>296</ele><time>2020-10-17T14:21:57Z</time><name>PT5783</name></trkpt>
<trkpt lat="53.225902" lon="-2.021095"><ele>296</ele><time>2020-10-17T14:21:58Z</time><name>PT5784</name></trkpt>
<trkpt lat="53.225911" lon="-2.021081"><ele>296</ele><time>2020-10-17T14:21:59Z</time><name>PT5785</name></trkpt>
<trkpt lat="53.225920" lon="-2.021067"><ele>296</ele><time>2020-10-17T14:22:00Z</time><name>PT5786</name></trkpt>
<trkpt lat="53.225931" lon="-2.021054"><ele>297</ele><time>2020-10-17T14:22:01Z</time><name>PT5787</name></trkpt>
<trkpt lat="53.225942" lon="-2.021043"><ele>297</ele><time>2020-10-17T14:22:02Z</time><name>PT5788</name></trkpt>
<trkpt lat="53.225951" lon="-2.021032"><ele>297</ele><time>2020-10-17T14:22:03Z</time><name>PT5789</name></trkpt>
<trkpt lat="53.225960" lon="-2.021020"><ele>297</ele><time>2020-10-17T14:22:04Z</time><name>PT5790</name></trkpt>
<trkpt lat="53.225969" lon="-2.021005"><ele>297</ele><time>2020-10-17T14:22:05Z</time><name>PT5791</name></trkpt>
<trkpt lat="53.225978" lon="-2.020994"><ele>297</ele><time>2020-10-17T14:22:06Z</time><name>PT5792</name></trkpt>
<trkpt lat="53.225990" lon="-2.020984"><ele>297</ele><time>2020-10-17T14:22:07Z</time><name>PT5793</name></trkpt>
<trkpt lat="53.225998" lon="-2.020972"><ele>297</ele><time>2020-10-17T14:22:08Z</time><name>PT5794</name></trkpt>
<trkpt lat="53.226007" lon="-2.020959"><ele>297</ele><time>2020-10-17T14:22:09Z</time><name>PT5795</name></trkpt>
<trkpt lat="53.226016" lon="-2.020945"><ele>297</ele><time>2020-10-17T14:22:10Z</time><name>PT5796</name></trkpt>
<trkpt lat="53.226025" lon="-2.020933"><ele>297</ele><time>2020-10-17T14:22:11Z</time><name>PT5797</name></trkpt>
<trkpt lat="53.226035" lon="-2.020922"><ele>297</ele><time>2020-10-17T14:22:12Z</time><name>PT5798</name></trkpt>
<trkpt lat="53.226044" lon="-2.020912"><ele>298</ele><time>2020-10-17T14:22:13Z</time><name>PT5799</name></trkpt>
<trkpt lat="53.226054" lon="-2.020901"><ele>298</ele><time>2020-10-17T14:22:14Z</time><name>PT5800</name></trkpt>
<trkpt lat="53.226061" lon="-2.020892"><ele>298</ele><time>2020-10-17T14:22:15Z</time><name>PT5801</name></trkpt>
<trkpt lat="53.226068" lon="-2.020883"><ele>299</ele><time>2020-10-17T14:22:16Z</time><name>PT5802</name></trkpt>
<trkpt lat="53.226074" lon="-2.020873"><ele>299</ele><time>2020-10-17T14:22:17Z</time><name>PT5803</name></trkpt>
<trkpt lat="53.226077" lon="-2.020863"><ele>299</ele><time>2020-10-17T14:22:18Z</time><name>PT5804</name></trkpt>
<trkpt lat="53.226080" lon="-2.020849"><ele>299</ele><time>2020-10-17T14:22:19Z</time><name>PT5805</name></trkpt>
<trkpt lat="53.226081" lon="-2.020832"><ele>299</ele><time>2020-10-17T14:22:20Z</time><name>PT5806</name></trkpt>
<trkpt lat="53.226082" lon="-2.020815"><ele>299</ele><time>2020-10-17T14:22:21Z</time><name>PT5807</name></trkpt>
<trkpt lat="53.226084" lon="-2.020799"><ele>299</ele><time>2020-10-17T14:22:22Z</time><name>PT5808</name></trkpt>
<trkpt lat="53.226080" lon="-2.020785"><ele>299</ele><time>2020-10-17T14:22:23Z</time><name>PT5809</name></trkpt>
<trkpt lat="53.226075" lon="-2.020770"><ele>299</ele><time>2020-10-17T14:22:24Z</time><name>PT5810</name></trkpt>
<trkpt lat="53.226069" lon="-2.020760"><ele>298</ele><time>2020-10-17T14:22:25Z</time><name>PT5811</name></trkpt>
<trkpt lat="53.226061" lon="-2.020752"><ele>298</ele><time>2020-10-17T14:22:26Z</time><name>PT5812</name></trkpt></trkseg></trk></gpx>